<?xml version='1.0' encoding='UTF-8'?><gpx version="1.1" creator="JPX - https://github.com/jenetics/jpx" xmlns="http://www.topografix.com/GPX/1/1"><trk><trkseg><trkpt lat="43.64873428775768" lon="11.068739890461297"><ele>225.0</ele><time>2026-04-20T12:25:01.001Z</time></trkpt><trkpt lat="43.648701490054975" lon="11.068833633007406"><ele>225.0</ele><time>2026-04-20T12:25:05.001Z</time></trkpt><trkpt lat="43.648654845228045" lon="11.068956572598202"><ele>225.0</ele><time>2026-04-20T12:25:07.001Z</time></trkpt><trkpt lat="43.64862584640577" lon="11.069079682126707"><ele>225.0</ele><time>2026-04-20T12:25:09.001Z</time></trkpt><trkpt lat="43.648621621360526" lon="11.069269427004444"><ele>225.0</ele><time>2026-04-20T12:25:11Z</time></trkpt><trkpt lat="43.648694612981956" lon="11.069380470563464"><ele>225.0</ele><time>2026-04-20T12:25:13Z</time></trkpt><trkpt lat="43.64877966113571" lon="11.069312150445102"><ele>225.0</ele><time>2026-04-20T12:25:14Z</time></trkpt><trkpt lat="43.64889428154989" lon="11.069219990661237"><ele>225.0</ele><time>2026-04-20T12:25:16Z</time></trkpt><trkpt lat="43.64900601812279" lon="11.069129274978424"><ele>225.0</ele><time>2026-04-20T12:25:18Z</time></trkpt><trkpt lat="43.64906512310089" lon="11.069095017425637"><ele>225.0</ele><time>2026-04-20T12:25:19Z</time></trkpt><trkpt lat="43.649120343372694" lon="11.069160366443501"><ele>225.0</ele><time>2026-04-20T12:25:23Z</time></trkpt><trkpt lat="43.649160478327005" lon="11.069249869853845"><ele>225.0</ele><time>2026-04-20T12:25:24Z</time></trkpt><trkpt lat="43.649211050356705" lon="11.069362648582516"><ele>225.0</ele><time>2026-04-20T12:25:26Z</time></trkpt><trkpt lat="43.649244472250174" lon="11.069437181431503"><ele>225.0</ele><time>2026-04-20T12:25:27Z</time></trkpt><trkpt lat="43.649128131780316" lon="11.06947853605105"><ele>225.0</ele><time>2026-04-20T12:25:34Z</time></trkpt><trkpt lat="43.64905886499902" lon="11.069538617616486"><ele>225.0</ele><time>2026-04-20T12:25:35Z</time></trkpt><trkpt lat="43.64897337125269" lon="11.069621753649534"><ele>225.0</ele><time>2026-04-20T12:25:36Z</time></trkpt><trkpt lat="43.64887463509041" lon="11.069727975108457"><ele>225.0</ele><time>2026-04-20T12:25:37Z</time></trkpt><trkpt lat="43.64879338778294" lon="11.069818628810056"><ele>225.0</ele><time>2026-04-20T12:25:38Z</time></trkpt><trkpt lat="43.64871922135964" lon="11.069929098936152"><ele>225.0</ele><time>2026-04-20T12:25:39Z</time></trkpt><trkpt lat="43.64861249998686" lon="11.070036392011119"><ele>225.0</ele><time>2026-04-20T12:25:40Z</time></trkpt><trkpt lat="43.64852599316687" lon="11.070161448380263"><ele>225.0</ele><time>2026-04-20T12:25:41Z</time></trkpt><trkpt lat="43.648437514740785" lon="11.070286281745034"><ele>225.0</ele><time>2026-04-20T12:25:42Z</time></trkpt><trkpt lat="43.64835655726004" lon="11.070392800915554"><ele>225.0</ele><time>2026-04-20T12:25:43Z</time></trkpt><trkpt lat="43.64829489801381" lon="11.070478335210181"><ele>225.0</ele><time>2026-04-20T12:25:44Z</time></trkpt><trkpt lat="43.64820870238324" lon="11.07060919739181"><ele>225.0</ele><time>2026-04-20T12:25:46Z</time></trkpt><trkpt lat="43.64814386099938" lon="11.070693858969952"><ele>225.0</ele><time>2026-04-20T12:25:47Z</time></trkpt><trkpt lat="43.64808137730307" lon="11.070803464851945"><ele>225.0</ele><time>2026-04-20T12:25:48Z</time></trkpt><trkpt lat="43.64801297263747" lon="11.070903837065446"><ele>225.0</ele><time>2026-04-20T12:25:49Z</time></trkpt><trkpt lat="43.64793127608757" lon="11.070982646888924"><ele>225.16666666666666</ele><time>2026-04-20T12:25:50Z</time></trkpt><trkpt lat="43.64786842114687" lon="11.07107466499493"><ele>225.33333333333331</ele><time>2026-04-20T12:25:51Z</time></trkpt><trkpt lat="43.64781893929155" lon="11.071171919508444"><ele>225.5</ele><time>2026-04-20T12:25:52Z</time></trkpt><trkpt lat="43.64777239871357" lon="11.071276862437497"><ele>225.66666666666666</ele><time>2026-04-20T12:25:53Z</time></trkpt><trkpt lat="43.64771599901006" lon="11.071365200796686"><ele>225.83333333333331</ele><time>2026-04-20T12:25:54Z</time></trkpt><trkpt lat="43.647653974055686" lon="11.071460729762743"><ele>226.0</ele><time>2026-04-20T12:25:55Z</time></trkpt><trkpt lat="43.647583159361545" lon="11.07157387505443"><ele>226.0</ele><time>2026-04-20T12:25:56Z</time></trkpt><trkpt lat="43.64751160586023" lon="11.071696587523004"><ele>226.00000000000003</ele><time>2026-04-20T12:25:57Z</time></trkpt><trkpt lat="43.64743035143614" lon="11.071812472670763"><ele>226.00000000000003</ele><time>2026-04-20T12:25:58Z</time></trkpt><trkpt lat="43.64735680050196" lon="11.071912625282458"><ele>226.0</ele><time>2026-04-20T12:25:59Z</time></trkpt><trkpt lat="43.6472953154381" lon="11.071997933092925"><ele>226.0</ele><time>2026-04-20T12:26:00Z</time></trkpt><trkpt lat="43.64723968568486" lon="11.07208273252255"><ele>226.0</ele><time>2026-04-20T12:26:01Z</time></trkpt><trkpt lat="43.647179849519496" lon="11.072136139053718"><ele>226.00000000000003</ele><time>2026-04-20T12:26:02Z</time></trkpt><trkpt lat="43.64711582763524" lon="11.07220957974514"><ele>226.00000000000003</ele><time>2026-04-20T12:26:03Z</time></trkpt><trkpt lat="43.64704438285657" lon="11.072306352221824"><ele>226.0</ele><time>2026-04-20T12:26:04Z</time></trkpt><trkpt lat="43.646979215734355" lon="11.072426477366411"><ele>226.0</ele><time>2026-04-20T12:26:05Z</time></trkpt><trkpt lat="43.646896782536366" lon="11.072526054587454"><ele>226.33333333333331</ele><time>2026-04-20T12:26:06Z</time></trkpt><trkpt lat="43.64681796930797" lon="11.072639491319093"><ele>226.66666666666666</ele><time>2026-04-20T12:26:07Z</time></trkpt><trkpt lat="43.646733845925596" lon="11.072727699146716"><ele>227.0</ele><time>2026-04-20T12:26:08Z</time></trkpt><trkpt lat="43.6466800530429" lon="11.072826064263575"><ele>227.33333333333331</ele><time>2026-04-20T12:26:09Z</time></trkpt><trkpt lat="43.64662815660654" lon="11.072903071446243"><ele>227.66666666666666</ele><time>2026-04-20T12:26:10Z</time></trkpt><trkpt lat="43.646576281292205" lon="11.07295252786915"><ele>228.0</ele><time>2026-04-20T12:26:11Z</time></trkpt><trkpt lat="43.64650674197467" lon="11.073029035529474"><ele>228.0</ele><time>2026-04-20T12:26:12Z</time></trkpt><trkpt lat="43.64643536105188" lon="11.073116385285212"><ele>228.0</ele><time>2026-04-20T12:26:13Z</time></trkpt><trkpt lat="43.64634679193136" lon="11.073195219408777"><ele>228.0</ele><time>2026-04-20T12:26:14Z</time></trkpt><trkpt lat="43.64625214777125" lon="11.07328132282479"><ele>228.0</ele><time>2026-04-20T12:26:15Z</time></trkpt><trkpt lat="43.646155733525845" lon="11.073366305993007"><ele>228.0</ele><time>2026-04-20T12:26:16Z</time></trkpt><trkpt lat="43.64607881650022" lon="11.07344879034414"><ele>228.5</ele><time>2026-04-20T12:26:17Z</time></trkpt><trkpt lat="43.6460242593568" lon="11.073511461953611"><ele>229.0</ele><time>2026-04-20T12:26:18Z</time></trkpt><trkpt lat="43.64596750191395" lon="11.073561498270902"><ele>229.5</ele><time>2026-04-20T12:26:20Z</time></trkpt><trkpt lat="43.645872894393264" lon="11.073579098059922"><ele>230.0</ele><time>2026-04-20T12:26:22Z</time></trkpt><trkpt lat="43.64580611251673" lon="11.073529913343192"><ele>230.5</ele><time>2026-04-20T12:26:23Z</time></trkpt><trkpt lat="43.64574131986485" lon="11.073481362496544"><ele>231.0</ele><time>2026-04-20T12:26:24Z</time></trkpt><trkpt lat="43.64568607133564" lon="11.073426663646583"><ele>231.0</ele><time>2026-04-20T12:26:25Z</time></trkpt><trkpt lat="43.64562503722964" lon="11.073323313468622"><ele>231.00000000000003</ele><time>2026-04-20T12:26:27Z</time></trkpt><trkpt lat="43.64557113993422" lon="11.073157387214598"><ele>231.00000000000003</ele><time>2026-04-20T12:26:29Z</time></trkpt><trkpt lat="43.64555542996659" lon="11.07303019254939"><ele>231.0</ele><time>2026-04-20T12:26:30Z</time></trkpt><trkpt lat="43.64554577638376" lon="11.072902537423067"><ele>231.0</ele><time>2026-04-20T12:26:31Z</time></trkpt><trkpt lat="43.64553009378128" lon="11.072754467678896"><ele>230.4</ele><time>2026-04-20T12:26:32Z</time></trkpt><trkpt lat="43.645526376963225" lon="11.07261485363205"><ele>229.8</ele><time>2026-04-20T12:26:33Z</time></trkpt><trkpt lat="43.645518634118254" lon="11.072499930897717"><ele>229.20000000000002</ele><time>2026-04-20T12:26:34Z</time></trkpt><trkpt lat="43.64550105957287" lon="11.072373668376205"><ele>228.60000000000002</ele><time>2026-04-20T12:26:36Z</time></trkpt><trkpt lat="43.64550768414717" lon="11.072201128570835"><ele>228.0</ele><time>2026-04-20T12:26:38Z</time></trkpt><trkpt lat="43.645513677631044" lon="11.072085092598288"><ele>227.4</ele><time>2026-04-20T12:26:39Z</time></trkpt><trkpt lat="43.645522922679355" lon="11.071956881839236"><ele>226.8</ele><time>2026-04-20T12:26:40Z</time></trkpt><trkpt lat="43.64554324242413" lon="11.071812360308876"><ele>226.2</ele><time>2026-04-20T12:26:41Z</time></trkpt><trkpt lat="43.64557313199772" lon="11.071664138709636"><ele>225.6</ele><time>2026-04-20T12:26:42Z</time></trkpt><trkpt lat="43.64559696316824" lon="11.07156206914523"><ele>225.0</ele><time>2026-04-20T12:26:43Z</time></trkpt><trkpt lat="43.645630149168554" lon="11.071430147045989"><ele>224.5</ele><time>2026-04-20T12:26:44Z</time></trkpt><trkpt lat="43.64565935383494" lon="11.07132272933659"><ele>224.0</ele><time>2026-04-20T12:26:45Z</time></trkpt><trkpt lat="43.64568908665737" lon="11.071220004182894"><ele>223.5</ele><time>2026-04-20T12:26:46Z</time></trkpt><trkpt lat="43.645725988471185" lon="11.071110039610636"><ele>223.0</ele><time>2026-04-20T12:26:47Z</time></trkpt><trkpt lat="43.64576685873552" lon="11.070994103742477"><ele>222.5</ele><time>2026-04-20T12:26:48Z</time></trkpt><trkpt lat="43.645809054704216" lon="11.070874407313822"><ele>222.0</ele><time>2026-04-20T12:26:49Z</time></trkpt><trkpt lat="43.645857201954286" lon="11.070713466440397"><ele>221.8</ele><time>2026-04-20T12:26:50Z</time></trkpt><trkpt lat="43.645900444849524" lon="11.070558266183548"><ele>221.6</ele><time>2026-04-20T12:26:51Z</time></trkpt><trkpt lat="43.64587017236279" lon="11.07040493403546"><ele>221.40000000000003</ele><time>2026-04-20T12:26:52Z</time></trkpt><trkpt lat="43.64589300237422" lon="11.070291827933692"><ele>221.20000000000002</ele><time>2026-04-20T12:26:53Z</time></trkpt><trkpt lat="43.64592907280626" lon="11.07018287208783"><ele>221.0</ele><time>2026-04-20T12:26:54Z</time></trkpt><trkpt lat="43.64596767677434" lon="11.07005880528327"><ele>221.0</ele><time>2026-04-20T12:26:55Z</time></trkpt><trkpt lat="43.64605194193249" lon="11.06996111260202"><ele>221.00000000000003</ele><time>2026-04-20T12:26:56Z</time></trkpt><trkpt lat="43.64603554726084" lon="11.069836646101203"><ele>221.00000000000003</ele><time>2026-04-20T12:26:57Z</time></trkpt><trkpt lat="43.64604986108984" lon="11.069730021055106"><ele>221.0</ele><time>2026-04-20T12:26:59Z</time></trkpt><trkpt lat="43.64612052914998" lon="11.069688304070596"><ele>221.0</ele><time>2026-04-20T12:27:01Z</time></trkpt><trkpt lat="43.64616237806767" lon="11.06952935733292"><ele>218.60000000000002</ele><time>2026-04-20T12:27:03Z</time></trkpt><trkpt lat="43.646194138214874" lon="11.069407408069736"><ele>216.20000000000002</ele><time>2026-04-20T12:27:04Z</time></trkpt><trkpt lat="43.64622603328571" lon="11.069281856491493"><ele>213.8</ele><time>2026-04-20T12:27:05Z</time></trkpt><trkpt lat="43.64625717238144" lon="11.069135743846829"><ele>211.39999999999998</ele><time>2026-04-20T12:27:06Z</time></trkpt><trkpt lat="43.64627296669283" lon="11.068982472475765"><ele>209.0</ele><time>2026-04-20T12:27:07Z</time></trkpt><trkpt lat="43.646293294190926" lon="11.068837930087424"><ele>209.0</ele><time>2026-04-20T12:27:08Z</time></trkpt><trkpt lat="43.64630280060832" lon="11.068673433344086"><ele>209.0</ele><time>2026-04-20T12:27:09Z</time></trkpt><trkpt lat="43.64631419819335" lon="11.068515686167057"><ele>209.0</ele><time>2026-04-20T12:27:10Z</time></trkpt><trkpt lat="43.64632309196873" lon="11.068355004192712"><ele>209.0</ele><time>2026-04-20T12:27:11Z</time></trkpt><trkpt lat="43.64634269847233" lon="11.06819724738686"><ele>210.25</ele><time>2026-04-20T12:27:12Z</time></trkpt><trkpt lat="43.6463664713359" lon="11.068035743734706"><ele>211.5</ele><time>2026-04-20T12:27:13Z</time></trkpt><trkpt lat="43.646377108472635" lon="11.067882308069526"><ele>212.75</ele><time>2026-04-20T12:27:14Z</time></trkpt><trkpt lat="43.64640039764866" lon="11.06773213042789"><ele>214.0</ele><time>2026-04-20T12:27:15Z</time></trkpt><trkpt lat="43.646426467107794" lon="11.067573290151634"><ele>215.75</ele><time>2026-04-20T12:27:16Z</time></trkpt><trkpt lat="43.64646968857269" lon="11.067414905457573"><ele>217.5</ele><time>2026-04-20T12:27:17Z</time></trkpt><trkpt lat="43.64650144489868" lon="11.067254084731895"><ele>219.25</ele><time>2026-04-20T12:27:18Z</time></trkpt><trkpt lat="43.646531695011696" lon="11.067101011038591"><ele>221.0</ele><time>2026-04-20T12:27:19Z</time></trkpt><trkpt lat="43.64655819736415" lon="11.066969109660835"><ele>221.0</ele><time>2026-04-20T12:27:20Z</time></trkpt><trkpt lat="43.64658070927764" lon="11.066838156556052"><ele>221.00000000000003</ele><time>2026-04-20T12:27:21Z</time></trkpt><trkpt lat="43.64656364753643" lon="11.066717190206012"><ele>221.00000000000003</ele><time>2026-04-20T12:27:22Z</time></trkpt><trkpt lat="43.64655091552673" lon="11.066605860742463"><ele>221.0</ele><time>2026-04-20T12:27:23Z</time></trkpt><trkpt lat="43.646503056699984" lon="11.066493468154055"><ele>221.0</ele><time>2026-04-20T12:27:24Z</time></trkpt><trkpt lat="43.646440196701434" lon="11.066358286482721"><ele>222.0</ele><time>2026-04-20T12:27:25Z</time></trkpt><trkpt lat="43.64638579993341" lon="11.066233923342999"><ele>223.00000000000003</ele><time>2026-04-20T12:27:26Z</time></trkpt><trkpt lat="43.646339337287074" lon="11.06610693644931"><ele>224.00000000000003</ele><time>2026-04-20T12:27:27Z</time></trkpt><trkpt lat="43.6463067873476" lon="11.065987947786438"><ele>225.0</ele><time>2026-04-20T12:27:28Z</time></trkpt><trkpt lat="43.646269364788914" lon="11.065862090833383"><ele>226.0</ele><time>2026-04-20T12:27:29Z</time></trkpt><trkpt lat="43.646218161430426" lon="11.065785496377362"><ele>225.16666666666666</ele><time>2026-04-20T12:27:30Z</time></trkpt><trkpt lat="43.64615786845244" lon="11.065750147513247"><ele>224.33333333333331</ele><time>2026-04-20T12:27:31Z</time></trkpt><trkpt lat="43.64607679033449" lon="11.065706833913657"><ele>223.5</ele><time>2026-04-20T12:27:32Z</time></trkpt><trkpt lat="43.64601962737165" lon="11.065665736162318"><ele>222.66666666666669</ele><time>2026-04-20T12:27:33Z</time></trkpt><trkpt lat="43.64593019328371" lon="11.06563786316889"><ele>221.83333333333334</ele><time>2026-04-20T12:27:42Z</time></trkpt><trkpt lat="43.64595320752914" lon="11.06554885515558"><ele>221.0</ele><time>2026-04-20T12:27:43Z</time></trkpt><trkpt lat="43.64594675176778" lon="11.065414887778232"><ele>233.0</ele><time>2026-04-20T12:27:45Z</time></trkpt><trkpt lat="43.645984446008164" lon="11.065314474587586"><ele>233.0</ele><time>2026-04-20T12:27:47Z</time></trkpt><trkpt lat="43.64602147477688" lon="11.065219962325735"><ele>233.0</ele><time>2026-04-20T12:27:50Z</time></trkpt></trkseg><trkseg><trkpt lat="43.64474921836646" lon="11.058547074601487"><ele>216.0</ele><time>2026-04-20T12:59:18Z</time></trkpt><trkpt lat="43.644799773815734" lon="11.058454616986863"><ele>216.00000000000003</ele><time>2026-04-20T12:59:41Z</time></trkpt><trkpt lat="43.64479216603145" lon="11.058288632023043"><ele>216.00000000000003</ele><time>2026-04-20T12:59:43Z</time></trkpt><trkpt lat="43.64475644062647" lon="11.05817718461227"><ele>216.0</ele><time>2026-04-20T12:59:44Z</time></trkpt><trkpt lat="43.64470845943639" lon="11.05803689307757"><ele>216.0</ele><time>2026-04-20T12:59:45Z</time></trkpt><trkpt lat="43.644662944604626" lon="11.057888408535499"><ele>214.25</ele><time>2026-04-20T12:59:46Z</time></trkpt><trkpt lat="43.644622145628304" lon="11.05771926169026"><ele>212.5</ele><time>2026-04-20T12:59:47Z</time></trkpt><trkpt lat="43.64457317367756" lon="11.057535677534865"><ele>210.75</ele><time>2026-04-20T12:59:48Z</time></trkpt><trkpt lat="43.64452337604383" lon="11.057335022940691"><ele>209.0</ele><time>2026-04-20T12:59:49Z</time></trkpt><trkpt lat="43.644471987063255" lon="11.057146805075252"><ele>208.66666666666669</ele><time>2026-04-20T12:59:50Z</time></trkpt><trkpt lat="43.64442204478438" lon="11.056957311632045"><ele>208.33333333333331</ele><time>2026-04-20T12:59:51Z</time></trkpt><trkpt lat="43.64437195738647" lon="11.05675900725619"><ele>208.0</ele><time>2026-04-20T12:59:52Z</time></trkpt><trkpt lat="43.6443180033633" lon="11.05654829312219"><ele>208.0</ele><time>2026-04-20T12:59:53Z</time></trkpt><trkpt lat="43.644269140493755" lon="11.05634717104058"><ele>208.0</ele><time>2026-04-20T12:59:54Z</time></trkpt><trkpt lat="43.64421734464104" lon="11.056153985128605"><ele>208.0</ele><time>2026-04-20T12:59:55Z</time></trkpt><trkpt lat="43.644167063912306" lon="11.055958637332566"><ele>206.33333333333331</ele><time>2026-04-20T12:59:56Z</time></trkpt><trkpt lat="43.6441213489055" lon="11.055755330889678"><ele>204.66666666666669</ele><time>2026-04-20T12:59:57Z</time></trkpt><trkpt lat="43.644088017298785" lon="11.055558037532755"><ele>203.0</ele><time>2026-04-20T12:59:58Z</time></trkpt><trkpt lat="43.644074709548825" lon="11.055351767716799"><ele>203.0</ele><time>2026-04-20T12:59:59Z</time></trkpt><trkpt lat="43.64407742335638" lon="11.055149678119525"><ele>203.0</ele><time>2026-04-20T13:00:00Z</time></trkpt><trkpt lat="43.644087724507955" lon="11.05492487609854"><ele>203.0</ele><time>2026-04-20T13:00:01Z</time></trkpt><trkpt lat="43.64411438161738" lon="11.05469754080751"><ele>202.33333333333334</ele><time>2026-04-20T13:00:02Z</time></trkpt><trkpt lat="43.64416258243598" lon="11.054472789069258"><ele>201.66666666666669</ele><time>2026-04-20T13:00:03Z</time></trkpt><trkpt lat="43.64420602493893" lon="11.054261900792195"><ele>201.0</ele><time>2026-04-20T13:00:04Z</time></trkpt><trkpt lat="43.64424528716908" lon="11.054065669690466"><ele>201.0</ele><time>2026-04-20T13:00:05Z</time></trkpt><trkpt lat="43.64427072042284" lon="11.053864035308797"><ele>201.0</ele><time>2026-04-20T13:00:06Z</time></trkpt><trkpt lat="43.64428403469876" lon="11.053650752629114"><ele>201.0</ele><time>2026-04-20T13:00:07Z</time></trkpt><trkpt lat="43.64428644485845" lon="11.053423675056562"><ele>203.33333333333331</ele><time>2026-04-20T13:00:08Z</time></trkpt><trkpt lat="43.644274249333684" lon="11.053197713076301"><ele>205.66666666666666</ele><time>2026-04-20T13:00:09Z</time></trkpt><trkpt lat="43.644238728750935" lon="11.052976898645756"><ele>208.0</ele><time>2026-04-20T13:00:10Z</time></trkpt><trkpt lat="43.64418914066435" lon="11.052757522215245"><ele>208.0</ele><time>2026-04-20T13:00:11Z</time></trkpt><trkpt lat="43.64414254940333" lon="11.052544786449184"><ele>208.0</ele><time>2026-04-20T13:00:12Z</time></trkpt><trkpt lat="43.64410443863079" lon="11.052330282019275"><ele>208.0</ele><time>2026-04-20T13:00:13Z</time></trkpt><trkpt lat="43.64406609795263" lon="11.052112985230268"><ele>208.66666666666666</ele><time>2026-04-20T13:00:14Z</time></trkpt><trkpt lat="43.64403607156843" lon="11.051890609154883"><ele>209.33333333333331</ele><time>2026-04-20T13:00:15Z</time></trkpt><trkpt lat="43.64401968921599" lon="11.051675673187484"><ele>210.0</ele><time>2026-04-20T13:00:16Z</time></trkpt><trkpt lat="43.64399961043066" lon="11.051479893356904"><ele>210.25</ele><time>2026-04-20T13:00:17Z</time></trkpt><trkpt lat="43.64397054821232" lon="11.051305141521727"><ele>210.5</ele><time>2026-04-20T13:00:18Z</time></trkpt><trkpt lat="43.643927748245055" lon="11.051124946942776"><ele>210.75</ele><time>2026-04-20T13:00:19Z</time></trkpt><trkpt lat="43.64386006415335" lon="11.050954255614649"><ele>211.0</ele><time>2026-04-20T13:00:20Z</time></trkpt><trkpt lat="43.64376194328702" lon="11.050781314956328"><ele>210.25</ele><time>2026-04-20T13:00:21Z</time></trkpt><trkpt lat="43.643659729030276" lon="11.050649320278279"><ele>209.5</ele><time>2026-04-20T13:00:22Z</time></trkpt><trkpt lat="43.64359799531859" lon="11.05049299136273"><ele>208.75</ele><time>2026-04-20T13:00:23Z</time></trkpt><trkpt lat="43.64357616073301" lon="11.050313938106356"><ele>208.0</ele><time>2026-04-20T13:00:24Z</time></trkpt><trkpt lat="43.64354433142221" lon="11.050124164951066"><ele>206.75</ele><time>2026-04-20T13:00:25Z</time></trkpt><trkpt lat="43.64353233549159" lon="11.04992253734715"><ele>205.5</ele><time>2026-04-20T13:00:26Z</time></trkpt><trkpt lat="43.643526050007566" lon="11.049711312594757"><ele>204.25</ele><time>2026-04-20T13:00:27Z</time></trkpt><trkpt lat="43.64352387501037" lon="11.049507763508615"><ele>203.0</ele><time>2026-04-20T13:00:28Z</time></trkpt><trkpt lat="43.64354232444676" lon="11.049325703867119"><ele>203.0</ele><time>2026-04-20T13:00:29Z</time></trkpt><trkpt lat="43.64358723603198" lon="11.049138263870946"><ele>203.0</ele><time>2026-04-20T13:00:30Z</time></trkpt><trkpt lat="43.643638044795445" lon="11.04894590256716"><ele>203.0</ele><time>2026-04-20T13:00:31Z</time></trkpt><trkpt lat="43.64368068178921" lon="11.048735848607947"><ele>203.0</ele><time>2026-04-20T13:00:32Z</time></trkpt><trkpt lat="43.64375506209117" lon="11.048527034974233"><ele>202.66666666666669</ele><time>2026-04-20T13:00:33Z</time></trkpt><trkpt lat="43.643829319912804" lon="11.048325161672992"><ele>202.33333333333331</ele><time>2026-04-20T13:00:34Z</time></trkpt><trkpt lat="43.64388111488218" lon="11.048136330914078"><ele>202.0</ele><time>2026-04-20T13:00:35Z</time></trkpt><trkpt lat="43.6439536529898" lon="11.047938939586174"><ele>202.0</ele><time>2026-04-20T13:00:36Z</time></trkpt><trkpt lat="43.64402883795063" lon="11.047757144694113"><ele>202.0</ele><time>2026-04-20T13:00:37Z</time></trkpt><trkpt lat="43.644105519309086" lon="11.047579460012265"><ele>202.0</ele><time>2026-04-20T13:00:38Z</time></trkpt><trkpt lat="43.644169272174594" lon="11.047412560852441"><ele>202.0</ele><time>2026-04-20T13:00:39Z</time></trkpt><trkpt lat="43.64422218112827" lon="11.047230855601521"><ele>200.75</ele><time>2026-04-20T13:00:40Z</time></trkpt><trkpt lat="43.64425161305623" lon="11.047059342840129"><ele>199.5</ele><time>2026-04-20T13:00:41Z</time></trkpt><trkpt lat="43.64426924945709" lon="11.046882606131682"><ele>198.25</ele><time>2026-04-20T13:00:42Z</time></trkpt><trkpt lat="43.64429309320157" lon="11.046723039016713"><ele>197.0</ele><time>2026-04-20T13:00:43Z</time></trkpt><trkpt lat="43.64432149214627" lon="11.046553194675425"><ele>195.25</ele><time>2026-04-20T13:00:44Z</time></trkpt><trkpt lat="43.644347803173666" lon="11.046390328938903"><ele>193.5</ele><time>2026-04-20T13:00:45Z</time></trkpt><trkpt lat="43.64437140944474" lon="11.046229779167776"><ele>191.75</ele><time>2026-04-20T13:00:46Z</time></trkpt><trkpt lat="43.64440670079183" lon="11.046054499856796"><ele>190.0</ele><time>2026-04-20T13:00:47Z</time></trkpt><trkpt lat="43.644442650797096" lon="11.045866444090766"><ele>190.33333333333334</ele><time>2026-04-20T13:00:48Z</time></trkpt><trkpt lat="43.64451041154666" lon="11.045684604929994"><ele>190.66666666666666</ele><time>2026-04-20T13:00:49Z</time></trkpt><trkpt lat="43.64458146671056" lon="11.045503054822923"><ele>191.0</ele><time>2026-04-20T13:00:50Z</time></trkpt><trkpt lat="43.644655195735794" lon="11.0452977623677"><ele>191.0</ele><time>2026-04-20T13:00:51Z</time></trkpt><trkpt lat="43.64473479469764" lon="11.045106601203077"><ele>191.0</ele><time>2026-04-20T13:00:52Z</time></trkpt><trkpt lat="43.644779262446065" lon="11.044903234956394"><ele>191.0</ele><time>2026-04-20T13:00:53Z</time></trkpt><trkpt lat="43.644815541196394" lon="11.0446845443871"><ele>191.33333333333331</ele><time>2026-04-20T13:00:54Z</time></trkpt><trkpt lat="43.644840789582986" lon="11.044457912541905"><ele>191.66666666666666</ele><time>2026-04-20T13:00:55Z</time></trkpt><trkpt lat="43.644857121491405" lon="11.04424170130234"><ele>192.0</ele><time>2026-04-20T13:00:56Z</time></trkpt><trkpt lat="43.6448786726335" lon="11.04402934910419"><ele>192.33333333333331</ele><time>2026-04-20T13:00:57Z</time></trkpt><trkpt lat="43.64490700549233" lon="11.043817000976562"><ele>192.66666666666666</ele><time>2026-04-20T13:00:58Z</time></trkpt><trkpt lat="43.6449291064931" lon="11.043598513196951"><ele>193.0</ele><time>2026-04-20T13:00:59Z</time></trkpt><trkpt lat="43.64494906111605" lon="11.043374430831962"><ele>193.66666666666666</ele><time>2026-04-20T13:01:00Z</time></trkpt><trkpt lat="43.644983736263214" lon="11.043148610265694"><ele>194.33333333333331</ele><time>2026-04-20T13:01:01Z</time></trkpt><trkpt lat="43.64498419697585" lon="11.042928732945782"><ele>195.0</ele><time>2026-04-20T13:01:02Z</time></trkpt><trkpt lat="43.64498476140847" lon="11.042705813194257"><ele>195.0</ele><time>2026-04-20T13:01:03Z</time></trkpt><trkpt lat="43.64498731865596" lon="11.04248057945969"><ele>195.0</ele><time>2026-04-20T13:01:04Z</time></trkpt><trkpt lat="43.64501185183217" lon="11.042257162649026"><ele>195.0</ele><time>2026-04-20T13:01:05Z</time></trkpt><trkpt lat="43.6450402078199" lon="11.042046466923276"><ele>194.5</ele><time>2026-04-20T13:01:06Z</time></trkpt><trkpt lat="43.64505674836448" lon="11.041840636070932"><ele>194.0</ele><time>2026-04-20T13:01:07Z</time></trkpt><trkpt lat="43.645075069906106" lon="11.041656350266647"><ele>193.5</ele><time>2026-04-20T13:01:08Z</time></trkpt><trkpt lat="43.64508278384701" lon="11.041488063836074"><ele>193.0</ele><time>2026-04-20T13:01:09Z</time></trkpt><trkpt lat="43.64508878462386" lon="11.041321294200607"><ele>192.0</ele><time>2026-04-20T13:01:10Z</time></trkpt><trkpt lat="43.645064107054175" lon="11.041176900837286"><ele>191.0</ele><time>2026-04-20T13:01:11Z</time></trkpt><trkpt lat="43.6450078067251" lon="11.04103331547213"><ele>190.0</ele><time>2026-04-20T13:01:12Z</time></trkpt><trkpt lat="43.64491803077098" lon="11.04089834699674"><ele>189.0</ele><time>2026-04-20T13:01:13Z</time></trkpt><trkpt lat="43.64481020702408" lon="11.040785441578489"><ele>187.33333333333334</ele><time>2026-04-20T13:01:14Z</time></trkpt><trkpt lat="43.644682248333325" lon="11.040683433907963"><ele>185.66666666666669</ele><time>2026-04-20T13:01:15Z</time></trkpt><trkpt lat="43.64454249838227" lon="11.040565249447786"><ele>184.0</ele><time>2026-04-20T13:01:16Z</time></trkpt><trkpt lat="43.64440840201128" lon="11.04044205553886"><ele>184.0</ele><time>2026-04-20T13:01:17Z</time></trkpt><trkpt lat="43.64427664280487" lon="11.040307646278583"><ele>184.0</ele><time>2026-04-20T13:01:18Z</time></trkpt><trkpt lat="43.6441440930634" lon="11.04017461738518"><ele>184.0</ele><time>2026-04-20T13:01:19Z</time></trkpt><trkpt lat="43.64401931955119" lon="11.040038317779524"><ele>183.33333333333334</ele><time>2026-04-20T13:01:20Z</time></trkpt><trkpt lat="43.64390395986489" lon="11.039896165483047"><ele>182.66666666666666</ele><time>2026-04-20T13:01:21Z</time></trkpt><trkpt lat="43.64379865138526" lon="11.039734337074554"><ele>182.0</ele><time>2026-04-20T13:01:22Z</time></trkpt><trkpt lat="43.64373167466757" lon="11.039558226261384"><ele>182.0</ele><time>2026-04-20T13:01:23Z</time></trkpt><trkpt lat="43.643674828149884" lon="11.039371498470423"><ele>182.0</ele><time>2026-04-20T13:01:24Z</time></trkpt><trkpt lat="43.6436315867038" lon="11.039158954761342"><ele>182.0</ele><time>2026-04-20T13:01:25Z</time></trkpt><trkpt lat="43.64359206286839" lon="11.038942254204446"><ele>185.33333333333331</ele><time>2026-04-20T13:01:26Z</time></trkpt><trkpt lat="43.64354815566268" lon="11.038724182042026"><ele>188.66666666666666</ele><time>2026-04-20T13:01:27Z</time></trkpt><trkpt lat="43.64349767856383" lon="11.038508453293835"><ele>192.0</ele><time>2026-04-20T13:01:28Z</time></trkpt><trkpt lat="43.64343166926145" lon="11.038303762031132"><ele>189.0</ele><time>2026-04-20T13:01:29Z</time></trkpt><trkpt lat="43.64335017677782" lon="11.038090392821422"><ele>186.0</ele><time>2026-04-20T13:01:30Z</time></trkpt><trkpt lat="43.6432529927966" lon="11.037871015023669"><ele>183.0</ele><time>2026-04-20T13:01:31Z</time></trkpt><trkpt lat="43.643152942946536" lon="11.037656380166345"><ele>180.33333333333334</ele><time>2026-04-20T13:01:32Z</time></trkpt><trkpt lat="43.643050054462506" lon="11.037449775744372"><ele>177.66666666666669</ele><time>2026-04-20T13:01:33Z</time></trkpt><trkpt lat="43.64295422399058" lon="11.037236449800993"><ele>175.0</ele><time>2026-04-20T13:01:34Z</time></trkpt><trkpt lat="43.64285247859699" lon="11.037018263647136"><ele>178.66666666666669</ele><time>2026-04-20T13:01:35Z</time></trkpt><trkpt lat="43.642749722295534" lon="11.036801417368057"><ele>182.33333333333334</ele><time>2026-04-20T13:01:36Z</time></trkpt><trkpt lat="43.64265016816203" lon="11.036583927765625"><ele>186.0</ele><time>2026-04-20T13:01:37Z</time></trkpt><trkpt lat="43.642546323767874" lon="11.036358556208642"><ele>186.0</ele><time>2026-04-20T13:01:38Z</time></trkpt><trkpt lat="43.64244568750434" lon="11.03614551212791"><ele>186.0</ele><time>2026-04-20T13:01:39Z</time></trkpt><trkpt lat="43.6423443386122" lon="11.035928627606008"><ele>186.0</ele><time>2026-04-20T13:01:40Z</time></trkpt><trkpt lat="43.64224745298197" lon="11.035712318219527"><ele>187.0</ele><time>2026-04-20T13:01:41Z</time></trkpt><trkpt lat="43.64214663613736" lon="11.035505286943987"><ele>188.0</ele><time>2026-04-20T13:01:42Z</time></trkpt><trkpt lat="43.64204270802923" lon="11.035295637679702"><ele>189.0</ele><time>2026-04-20T13:01:43Z</time></trkpt><trkpt lat="43.64193737815804" lon="11.035091027923924"><ele>188.33333333333334</ele><time>2026-04-20T13:01:44Z</time></trkpt><trkpt lat="43.6418383951608" lon="11.034888369696155"><ele>187.66666666666669</ele><time>2026-04-20T13:01:45Z</time></trkpt><trkpt lat="43.64173460548072" lon="11.034685002732699"><ele>187.0</ele><time>2026-04-20T13:01:46Z</time></trkpt><trkpt lat="43.641638702875774" lon="11.034478557571484"><ele>187.0</ele><time>2026-04-20T13:01:47Z</time></trkpt><trkpt lat="43.641543359957545" lon="11.034274849302967"><ele>187.0</ele><time>2026-04-20T13:01:48Z</time></trkpt><trkpt lat="43.64145141213259" lon="11.034070280950507"><ele>187.0</ele><time>2026-04-20T13:01:49Z</time></trkpt><trkpt lat="43.64136149375435" lon="11.033855098941483"><ele>189.33333333333334</ele><time>2026-04-20T13:01:50Z</time></trkpt><trkpt lat="43.64126862003413" lon="11.033633804723676"><ele>191.66666666666669</ele><time>2026-04-20T13:01:51Z</time></trkpt><trkpt lat="43.64118492640168" lon="11.033418814916217"><ele>194.0</ele><time>2026-04-20T13:01:52Z</time></trkpt><trkpt lat="43.64109586760971" lon="11.033194832919447"><ele>189.33333333333334</ele><time>2026-04-20T13:01:53Z</time></trkpt><trkpt lat="43.64100935662889" lon="11.032970307187709"><ele>184.66666666666669</ele><time>2026-04-20T13:01:54Z</time></trkpt><trkpt lat="43.640924599650646" lon="11.03275271974253"><ele>180.0</ele><time>2026-04-20T13:01:55Z</time></trkpt><trkpt lat="43.64083223400418" lon="11.032520243769211"><ele>179.0</ele><time>2026-04-20T13:01:56Z</time></trkpt><trkpt lat="43.64074352336456" lon="11.032282897912287"><ele>178.0</ele><time>2026-04-20T13:01:57Z</time></trkpt><trkpt lat="43.64064898468154" lon="11.032046416333985"><ele>177.0</ele><time>2026-04-20T13:01:58Z</time></trkpt><trkpt lat="43.640559953795254" lon="11.031795551082325"><ele>175.0</ele><time>2026-04-20T13:01:59Z</time></trkpt><trkpt lat="43.64046138498253" lon="11.031543885457026"><ele>173.0</ele><time>2026-04-20T13:02:00Z</time></trkpt><trkpt lat="43.6403651954268" lon="11.03129962053219"><ele>171.0</ele><time>2026-04-20T13:02:01Z</time></trkpt><trkpt lat="43.64027537438719" lon="11.031070952159824"><ele>169.33333333333334</ele><time>2026-04-20T13:02:02Z</time></trkpt><trkpt lat="43.64018280183992" lon="11.030834978295943"><ele>167.66666666666669</ele><time>2026-04-20T13:02:03Z</time></trkpt><trkpt lat="43.64009028543376" lon="11.030612931412573"><ele>166.0</ele><time>2026-04-20T13:02:04Z</time></trkpt><trkpt lat="43.640002069904995" lon="11.03037841069067"><ele>163.0</ele><time>2026-04-20T13:02:05Z</time></trkpt><trkpt lat="43.63992276436091" lon="11.03015794342087"><ele>160.0</ele><time>2026-04-20T13:02:06Z</time></trkpt><trkpt lat="43.63984077186322" lon="11.029940671096435"><ele>157.0</ele><time>2026-04-20T13:02:07Z</time></trkpt><trkpt lat="43.63975689851041" lon="11.029721879250088"><ele>155.66666666666669</ele><time>2026-04-20T13:02:08Z</time></trkpt><trkpt lat="43.63966684081335" lon="11.029510070419578"><ele>154.33333333333334</ele><time>2026-04-20T13:02:09Z</time></trkpt><trkpt lat="43.639582035600235" lon="11.029292022931228"><ele>153.0</ele><time>2026-04-20T13:02:10Z</time></trkpt><trkpt lat="43.63949616775967" lon="11.02907555169066"><ele>153.25</ele><time>2026-04-20T13:02:11Z</time></trkpt><trkpt lat="43.63941975309909" lon="11.028873089836358"><ele>153.5</ele><time>2026-04-20T13:02:12Z</time></trkpt><trkpt lat="43.63934900755819" lon="11.028683622251396"><ele>153.75</ele><time>2026-04-20T13:02:13Z</time></trkpt><trkpt lat="43.63929365622084" lon="11.028528458677265"><ele>154.0</ele><time>2026-04-20T13:02:14Z</time></trkpt><trkpt lat="43.6392463747302" lon="11.0283940492793"><ele>153.16666666666669</ele><time>2026-04-20T13:02:15Z</time></trkpt><trkpt lat="43.63920550684421" lon="11.028280270549494"><ele>152.33333333333334</ele><time>2026-04-20T13:02:16Z</time></trkpt><trkpt lat="43.639167971503525" lon="11.02816723200868"><ele>151.5</ele><time>2026-04-20T13:02:17Z</time></trkpt><trkpt lat="43.63915026055913" lon="11.028061512627078"><ele>150.66666666666666</ele><time>2026-04-20T13:02:18Z</time></trkpt><trkpt lat="43.63914518842489" lon="11.027957245974502"><ele>149.83333333333331</ele><time>2026-04-20T13:02:19Z</time></trkpt><trkpt lat="43.639139119837594" lon="11.027849062850636"><ele>149.0</ele><time>2026-04-20T13:02:20Z</time></trkpt><trkpt lat="43.639145657547054" lon="11.027754129631033"><ele>149.0</ele><time>2026-04-20T13:02:21Z</time></trkpt><trkpt lat="43.63913480832921" lon="11.027621004572351"><ele>149.0</ele><time>2026-04-20T13:02:23Z</time></trkpt><trkpt lat="43.63908214511437" lon="11.027569372751875"><ele>149.0</ele><time>2026-04-20T13:02:24Z</time></trkpt><trkpt lat="43.63900900122788" lon="11.027523246366778"><ele>149.0</ele><time>2026-04-20T13:02:25Z</time></trkpt><trkpt lat="43.638917815758866" lon="11.027467568679265"><ele>149.0</ele><time>2026-04-20T13:02:26Z</time></trkpt><trkpt lat="43.6388391727496" lon="11.02738842130669"><ele>149.0</ele><time>2026-04-20T13:02:27Z</time></trkpt><trkpt lat="43.63876153794041" lon="11.027274434112748"><ele>148.25</ele><time>2026-04-20T13:02:28Z</time></trkpt><trkpt lat="43.63867403982358" lon="11.027163132799014"><ele>147.5</ele><time>2026-04-20T13:02:29Z</time></trkpt><trkpt lat="43.63861239543355" lon="11.026987438051645"><ele>146.75</ele><time>2026-04-20T13:02:30Z</time></trkpt><trkpt lat="43.63853352437913" lon="11.026829924033002"><ele>146.0</ele><time>2026-04-20T13:02:31Z</time></trkpt><trkpt lat="43.63845407946839" lon="11.026656410742543"><ele>144.66666666666666</ele><time>2026-04-20T13:02:32Z</time></trkpt><trkpt lat="43.6383645098073" lon="11.026482578654287"><ele>143.33333333333334</ele><time>2026-04-20T13:02:33Z</time></trkpt><trkpt lat="43.638275894201776" lon="11.026301383328018"><ele>142.0</ele><time>2026-04-20T13:02:34Z</time></trkpt><trkpt lat="43.63818252572776" lon="11.026108036648633"><ele>142.0</ele><time>2026-04-20T13:02:35Z</time></trkpt><trkpt lat="43.63809603087515" lon="11.02593035784441"><ele>142.0</ele><time>2026-04-20T13:02:36Z</time></trkpt><trkpt lat="43.63800649335571" lon="11.02575861458391"><ele>142.0</ele><time>2026-04-20T13:02:37Z</time></trkpt><trkpt lat="43.63791621560341" lon="11.0255798482054"><ele>143.0</ele><time>2026-04-20T13:02:38Z</time></trkpt><trkpt lat="43.6378319536616" lon="11.025410570795074"><ele>144.0</ele><time>2026-04-20T13:02:39Z</time></trkpt><trkpt lat="43.637743512236746" lon="11.025233492922636"><ele>145.0</ele><time>2026-04-20T13:02:40Z</time></trkpt><trkpt lat="43.6376590509343" lon="11.025064807939717"><ele>145.25</ele><time>2026-04-20T13:02:41Z</time></trkpt><trkpt lat="43.637573822401315" lon="11.024894049064667"><ele>145.5</ele><time>2026-04-20T13:02:42Z</time></trkpt><trkpt lat="43.63748850058641" lon="11.024740869263901"><ele>145.75</ele><time>2026-04-20T13:02:43Z</time></trkpt><trkpt lat="43.63739125582567" lon="11.024596086457088"><ele>146.0</ele><time>2026-04-20T13:02:44Z</time></trkpt><trkpt lat="43.63727317370829" lon="11.0244663082495"><ele>146.0</ele><time>2026-04-20T13:02:45Z</time></trkpt><trkpt lat="43.637136929740066" lon="11.024358613509463"><ele>146.0</ele><time>2026-04-20T13:02:46Z</time></trkpt><trkpt lat="43.63700346335653" lon="11.024284439553231"><ele>146.0</ele><time>2026-04-20T13:02:47Z</time></trkpt><trkpt lat="43.63688767493989" lon="11.024216936483075"><ele>146.0</ele><time>2026-04-20T13:02:48Z</time></trkpt><trkpt lat="43.636791417903" lon="11.024167913976758"><ele>145.6</ele><time>2026-04-20T13:02:49Z</time></trkpt><trkpt lat="43.636719233018326" lon="11.024124664781983"><ele>145.2</ele><time>2026-04-20T13:02:50Z</time></trkpt><trkpt lat="43.636635750939156" lon="11.024073729623383"><ele>144.8</ele><time>2026-04-20T13:02:51Z</time></trkpt><trkpt lat="43.63654432172634" lon="11.024016984601365"><ele>144.4</ele><time>2026-04-20T13:02:52Z</time></trkpt><trkpt lat="43.63644381950879" lon="11.023941729821086"><ele>144.0</ele><time>2026-04-20T13:02:53Z</time></trkpt><trkpt lat="43.63634452266802" lon="11.023846900802676"><ele>144.0</ele><time>2026-04-20T13:02:54Z</time></trkpt><trkpt lat="43.636241555383364" lon="11.023731207888755"><ele>144.0</ele><time>2026-04-20T13:02:55Z</time></trkpt><trkpt lat="43.63613759656856" lon="11.023608591418123"><ele>144.0</ele><time>2026-04-20T13:02:56Z</time></trkpt><trkpt lat="43.636032726415124" lon="11.023479358832157"><ele>144.0</ele><time>2026-04-20T13:02:57Z</time></trkpt><trkpt lat="43.63592324859085" lon="11.023341557963276"><ele>144.0</ele><time>2026-04-20T13:02:58Z</time></trkpt><trkpt lat="43.635823835675765" lon="11.023205594090326"><ele>144.0</ele><time>2026-04-20T13:02:59Z</time></trkpt><trkpt lat="43.635725928108485" lon="11.023054565434808"><ele>144.0</ele><time>2026-04-20T13:03:00Z</time></trkpt><trkpt lat="43.63563929374669" lon="11.022890535006674"><ele>144.0</ele><time>2026-04-20T13:03:01Z</time></trkpt><trkpt lat="43.63554710122185" lon="11.022714911970716"><ele>144.0</ele><time>2026-04-20T13:03:02Z</time></trkpt><trkpt lat="43.63546177785724" lon="11.022534204024366"><ele>144.0</ele><time>2026-04-20T13:03:03Z</time></trkpt><trkpt lat="43.635390972935326" lon="11.022365468565514"><ele>144.0</ele><time>2026-04-20T13:03:04Z</time></trkpt><trkpt lat="43.635321536168846" lon="11.022193789738562"><ele>144.0</ele><time>2026-04-20T13:03:05Z</time></trkpt><trkpt lat="43.63526352764228" lon="11.02200942726235"><ele>146.0</ele><time>2026-04-20T13:03:06Z</time></trkpt><trkpt lat="43.63522004482377" lon="11.021810309827377"><ele>148.0</ele><time>2026-04-20T13:03:07Z</time></trkpt><trkpt lat="43.635190571723044" lon="11.021605524823876"><ele>150.0</ele><time>2026-04-20T13:03:08Z</time></trkpt><trkpt lat="43.63518338910353" lon="11.02139231032963"><ele>151.5</ele><time>2026-04-20T13:03:09Z</time></trkpt><trkpt lat="43.63518340712685" lon="11.021179352051712"><ele>153.0</ele><time>2026-04-20T13:03:10Z</time></trkpt><trkpt lat="43.63517990281549" lon="11.020965109892849"><ele>154.5</ele><time>2026-04-20T13:03:11Z</time></trkpt><trkpt lat="43.63517846277665" lon="11.02078043698172"><ele>156.0</ele><time>2026-04-20T13:03:12Z</time></trkpt><trkpt lat="43.6351731905867" lon="11.020598733654126"><ele>157.25</ele><time>2026-04-20T13:03:13Z</time></trkpt><trkpt lat="43.635167023221875" lon="11.020415471108063"><ele>158.5</ele><time>2026-04-20T13:03:14Z</time></trkpt><trkpt lat="43.63516219527442" lon="11.020238526849052"><ele>159.75</ele><time>2026-04-20T13:03:15Z</time></trkpt><trkpt lat="43.635161466297795" lon="11.020080957856905"><ele>161.0</ele><time>2026-04-20T13:03:16Z</time></trkpt><trkpt lat="43.635163845909034" lon="11.019948205753773"><ele>161.4</ele><time>2026-04-20T13:03:17Z</time></trkpt><trkpt lat="43.63515777535479" lon="11.019848870379896"><ele>161.8</ele><time>2026-04-20T13:03:18Z</time></trkpt><trkpt lat="43.63514998947958" lon="11.019662594681124"><ele>162.20000000000002</ele><time>2026-04-20T13:03:20Z</time></trkpt><trkpt lat="43.635136789332485" lon="11.019550557761496"><ele>162.60000000000002</ele><time>2026-04-20T13:03:21Z</time></trkpt><trkpt lat="43.63512740183753" lon="11.019429555639531"><ele>163.0</ele><time>2026-04-20T13:03:22Z</time></trkpt><trkpt lat="43.63511558096001" lon="11.019299445455022"><ele>163.0</ele><time>2026-04-20T13:03:23Z</time></trkpt><trkpt lat="43.635109356258894" lon="11.01915757888872"><ele>163.0</ele><time>2026-04-20T13:03:24Z</time></trkpt><trkpt lat="43.63511112335012" lon="11.018995167042181"><ele>163.0</ele><time>2026-04-20T13:03:25Z</time></trkpt><trkpt lat="43.63512517780955" lon="11.01882805397749"><ele>163.0</ele><time>2026-04-20T13:03:26Z</time></trkpt><trkpt lat="43.63513981957154" lon="11.018681482041073"><ele>163.0</ele><time>2026-04-20T13:03:27Z</time></trkpt><trkpt lat="43.63515139881765" lon="11.01854437753703"><ele>162.8</ele><time>2026-04-20T13:03:28Z</time></trkpt><trkpt lat="43.635166373046225" lon="11.018420995699733"><ele>162.60000000000002</ele><time>2026-04-20T13:03:29Z</time></trkpt><trkpt lat="43.635179017821955" lon="11.018303834873292"><ele>162.39999999999998</ele><time>2026-04-20T13:03:30Z</time></trkpt><trkpt lat="43.63518763478268" lon="11.018167788012033"><ele>162.2</ele><time>2026-04-20T13:03:31Z</time></trkpt><trkpt lat="43.635200287560856" lon="11.018011741042477"><ele>162.0</ele><time>2026-04-20T13:03:32Z</time></trkpt><trkpt lat="43.63520677211093" lon="11.017835245670138"><ele>161.5</ele><time>2026-04-20T13:03:33Z</time></trkpt><trkpt lat="43.63520982104491" lon="11.017659765667775"><ele>161.0</ele><time>2026-04-20T13:03:34Z</time></trkpt><trkpt lat="43.63520321418703" lon="11.017499520289412"><ele>160.5</ele><time>2026-04-20T13:03:35Z</time></trkpt><trkpt lat="43.6352130451556" lon="11.017341273343142"><ele>160.0</ele><time>2026-04-20T13:03:36Z</time></trkpt><trkpt lat="43.635243065403344" lon="11.017172357134466"><ele>159.75</ele><time>2026-04-20T13:03:37Z</time></trkpt><trkpt lat="43.63529383710659" lon="11.017000679172899"><ele>159.5</ele><time>2026-04-20T13:03:38Z</time></trkpt><trkpt lat="43.63536716695936" lon="11.016847713292968"><ele>159.25</ele><time>2026-04-20T13:03:39Z</time></trkpt><trkpt lat="43.635460319257874" lon="11.01670229486941"><ele>159.0</ele><time>2026-04-20T13:03:40Z</time></trkpt><trkpt lat="43.635566426756625" lon="11.016561196091724"><ele>160.33333333333334</ele><time>2026-04-20T13:03:41Z</time></trkpt><trkpt lat="43.635683175141715" lon="11.016428776028354"><ele>161.66666666666669</ele><time>2026-04-20T13:03:42Z</time></trkpt><trkpt lat="43.63581022539797" lon="11.016305648204451"><ele>163.0</ele><time>2026-04-20T13:03:43Z</time></trkpt><trkpt lat="43.63594100804951" lon="11.016202717116263"><ele>163.0</ele><time>2026-04-20T13:03:44Z</time></trkpt><trkpt lat="43.63606397993663" lon="11.0161241640099"><ele>163.0</ele><time>2026-04-20T13:03:45Z</time></trkpt><trkpt lat="43.6361793882022" lon="11.016043113260592"><ele>163.0</ele><time>2026-04-20T13:03:46Z</time></trkpt><trkpt lat="43.636272613579365" lon="11.015957876151111"><ele>163.0</ele><time>2026-04-20T13:03:47Z</time></trkpt><trkpt lat="43.6363487594982" lon="11.015869299917817"><ele>160.75</ele><time>2026-04-20T13:03:48Z</time></trkpt><trkpt lat="43.63641028164494" lon="11.01576775155105"><ele>158.5</ele><time>2026-04-20T13:03:49Z</time></trkpt><trkpt lat="43.63646176773012" lon="11.01563954519674"><ele>156.25</ele><time>2026-04-20T13:03:50Z</time></trkpt><trkpt lat="43.636508954864404" lon="11.0154875672409"><ele>154.0</ele><time>2026-04-20T13:03:51Z</time></trkpt><trkpt lat="43.63656768394666" lon="11.015321240380388"><ele>154.0</ele><time>2026-04-20T13:03:52Z</time></trkpt><trkpt lat="43.63662875212656" lon="11.015168326081367"><ele>154.0</ele><time>2026-04-20T13:03:53Z</time></trkpt><trkpt lat="43.63669426638092" lon="11.015027277653468"><ele>154.0</ele><time>2026-04-20T13:03:54Z</time></trkpt><trkpt lat="43.63677696777489" lon="11.014899132727114"><ele>154.0</ele><time>2026-04-20T13:03:55Z</time></trkpt><trkpt lat="43.636873293057626" lon="11.014775378829817"><ele>152.5</ele><time>2026-04-20T13:03:56Z</time></trkpt><trkpt lat="43.63698466332407" lon="11.014668738978807"><ele>151.0</ele><time>2026-04-20T13:03:57Z</time></trkpt><trkpt lat="43.63711463935434" lon="11.014573002881338"><ele>149.5</ele><time>2026-04-20T13:03:58Z</time></trkpt><trkpt lat="43.637259185730535" lon="11.01449508102883"><ele>148.0</ele><time>2026-04-20T13:03:59Z</time></trkpt><trkpt lat="43.63741574330884" lon="11.014438051974054"><ele>148.0</ele><time>2026-04-20T13:04:00Z</time></trkpt><trkpt lat="43.63757244169282" lon="11.014395382942665"><ele>148.0</ele><time>2026-04-20T13:04:01Z</time></trkpt><trkpt lat="43.63772937107478" lon="11.014357220635809"><ele>148.0</ele><time>2026-04-20T13:04:02Z</time></trkpt><trkpt lat="43.63788882959694" lon="11.014308078585804"><ele>149.25</ele><time>2026-04-20T13:04:03Z</time></trkpt><trkpt lat="43.638029541646056" lon="11.014265518039611"><ele>150.5</ele><time>2026-04-20T13:04:04Z</time></trkpt><trkpt lat="43.6381580776642" lon="11.014215119686332"><ele>151.75</ele><time>2026-04-20T13:04:05Z</time></trkpt><trkpt lat="43.63828867543147" lon="11.014136200776685"><ele>153.0</ele><time>2026-04-20T13:04:06Z</time></trkpt><trkpt lat="43.63841171149908" lon="11.014033367718863"><ele>153.0</ele><time>2026-04-20T13:04:07Z</time></trkpt><trkpt lat="43.638524437877685" lon="11.013910502871742"><ele>153.0</ele><time>2026-04-20T13:04:08Z</time></trkpt><trkpt lat="43.63863103277864" lon="11.013768438403746"><ele>153.0</ele><time>2026-04-20T13:04:09Z</time></trkpt><trkpt lat="43.63870830708809" lon="11.013610978754784"><ele>153.0</ele><time>2026-04-20T13:04:10Z</time></trkpt><trkpt lat="43.638768682348385" lon="11.013435979295433"><ele>156.75</ele><time>2026-04-20T13:04:11Z</time></trkpt><trkpt lat="43.6388147510868" lon="11.013250748574961"><ele>160.5</ele><time>2026-04-20T13:04:12Z</time></trkpt><trkpt lat="43.63884595714443" lon="11.013059367874076"><ele>164.25</ele><time>2026-04-20T13:04:13Z</time></trkpt><trkpt lat="43.63885688109845" lon="11.01285624157822"><ele>168.0</ele><time>2026-04-20T13:04:14Z</time></trkpt><trkpt lat="43.638849796693" lon="11.012648670551442"><ele>167.66666666666666</ele><time>2026-04-20T13:04:15Z</time></trkpt><trkpt lat="43.63883821484965" lon="11.012433964728276"><ele>167.33333333333331</ele><time>2026-04-20T13:04:16Z</time></trkpt><trkpt lat="43.63883126084652" lon="11.012213083810815"><ele>167.0</ele><time>2026-04-20T13:04:17Z</time></trkpt><trkpt lat="43.63882487668221" lon="11.011982920420097"><ele>167.0</ele><time>2026-04-20T13:04:18Z</time></trkpt><trkpt lat="43.63881666319281" lon="11.011757078532915"><ele>167.0</ele><time>2026-04-20T13:04:19Z</time></trkpt><trkpt lat="43.63880747923015" lon="11.011535019165597"><ele>167.0</ele><time>2026-04-20T13:04:20Z</time></trkpt><trkpt lat="43.63879927165018" lon="11.011319314430246"><ele>166.75</ele><time>2026-04-20T13:04:21Z</time></trkpt><trkpt lat="43.63878695956955" lon="11.011114131599602"><ele>166.5</ele><time>2026-04-20T13:04:22Z</time></trkpt><trkpt lat="43.63876381838364" lon="11.010918386276092"><ele>166.25</ele><time>2026-04-20T13:04:23Z</time></trkpt><trkpt lat="43.63872970365185" lon="11.010727352983665"><ele>166.0</ele><time>2026-04-20T13:04:24Z</time></trkpt><trkpt lat="43.638679366501165" lon="11.01054200928064"><ele>163.25</ele><time>2026-04-20T13:04:25Z</time></trkpt><trkpt lat="43.63861942841623" lon="11.010369501248496"><ele>160.5</ele><time>2026-04-20T13:04:26Z</time></trkpt><trkpt lat="43.63854719199706" lon="11.010200555728153"><ele>157.75</ele><time>2026-04-20T13:04:27Z</time></trkpt><trkpt lat="43.63846000294563" lon="11.010035046536997"><ele>155.0</ele><time>2026-04-20T13:04:28Z</time></trkpt><trkpt lat="43.638358003521944" lon="11.009877246688848"><ele>155.0</ele><time>2026-04-20T13:04:29Z</time></trkpt><trkpt lat="43.638240328032616" lon="11.009726327856995"><ele>155.0</ele><time>2026-04-20T13:04:30Z</time></trkpt><trkpt lat="43.6381053929022" lon="11.00958236916994"><ele>155.0</ele><time>2026-04-20T13:04:31Z</time></trkpt><trkpt lat="43.63797224791175" lon="11.00944266991286"><ele>155.0</ele><time>2026-04-20T13:04:32Z</time></trkpt><trkpt lat="43.637849099291266" lon="11.009310074515524"><ele>155.0</ele><time>2026-04-20T13:04:33Z</time></trkpt><trkpt lat="43.63773010329465" lon="11.00918028656649"><ele>155.0</ele><time>2026-04-20T13:04:34Z</time></trkpt><trkpt lat="43.63761682521956" lon="11.00905259077307"><ele>151.25</ele><time>2026-04-20T13:04:35Z</time></trkpt><trkpt lat="43.637507149823335" lon="11.008933856625825"><ele>147.5</ele><time>2026-04-20T13:04:36Z</time></trkpt><trkpt lat="43.63740151809717" lon="11.008815652475713"><ele>143.75</ele><time>2026-04-20T13:04:37Z</time></trkpt><trkpt lat="43.63729096060279" lon="11.008696646891279"><ele>140.0</ele><time>2026-04-20T13:04:38Z</time></trkpt><trkpt lat="43.63718047942765" lon="11.008581467409837"><ele>140.0</ele><time>2026-04-20T13:04:39Z</time></trkpt><trkpt lat="43.63707560783559" lon="11.008473328233057"><ele>140.0</ele><time>2026-04-20T13:04:40Z</time></trkpt><trkpt lat="43.63697207876213" lon="11.008359964622372"><ele>140.0</ele><time>2026-04-20T13:04:41Z</time></trkpt><trkpt lat="43.63687222205681" lon="11.008241866177535"><ele>140.0</ele><time>2026-04-20T13:04:42Z</time></trkpt><trkpt lat="43.636778352513424" lon="11.008129978393237"><ele>140.25</ele><time>2026-04-20T13:04:43Z</time></trkpt><trkpt lat="43.63668348564154" lon="11.007993911225073"><ele>140.5</ele><time>2026-04-20T13:04:44Z</time></trkpt><trkpt lat="43.636590256523974" lon="11.007858409099942"><ele>140.75</ele><time>2026-04-20T13:04:45Z</time></trkpt><trkpt lat="43.63649314188122" lon="11.007720790827953"><ele>141.0</ele><time>2026-04-20T13:04:46Z</time></trkpt><trkpt lat="43.63640179480046" lon="11.007577513342742"><ele>140.25</ele><time>2026-04-20T13:04:47Z</time></trkpt><trkpt lat="43.63631420013763" lon="11.007431733666992"><ele>139.5</ele><time>2026-04-20T13:04:48Z</time></trkpt><trkpt lat="43.63623195405147" lon="11.007282220562372"><ele>138.75</ele><time>2026-04-20T13:04:49Z</time></trkpt><trkpt lat="43.63615217821005" lon="11.007131498581689"><ele>138.0</ele><time>2026-04-20T13:04:50Z</time></trkpt><trkpt lat="43.63607451654637" lon="11.006988174504933"><ele>140.75</ele><time>2026-04-20T13:04:51Z</time></trkpt><trkpt lat="43.63599547696398" lon="11.006841994264063"><ele>143.5</ele><time>2026-04-20T13:04:52Z</time></trkpt><trkpt lat="43.63591730023588" lon="11.006705791549969"><ele>146.25</ele><time>2026-04-20T13:04:53Z</time></trkpt><trkpt lat="43.63582816597194" lon="11.006564793632823"><ele>149.0</ele><time>2026-04-20T13:04:54Z</time></trkpt><trkpt lat="43.63573334004393" lon="11.006441652518305"><ele>149.25</ele><time>2026-04-20T13:04:55Z</time></trkpt><trkpt lat="43.635630083225344" lon="11.006317608414458"><ele>149.5</ele><time>2026-04-20T13:04:56Z</time></trkpt><trkpt lat="43.635520163026186" lon="11.00621670476238"><ele>149.75</ele><time>2026-04-20T13:04:57Z</time></trkpt><trkpt lat="43.63540331358198" lon="11.006118046692453"><ele>150.0</ele><time>2026-04-20T13:04:58Z</time></trkpt><trkpt lat="43.635282563337405" lon="11.006040581756004"><ele>152.0</ele><time>2026-04-20T13:04:59Z</time></trkpt><trkpt lat="43.635157509474276" lon="11.005970936105653"><ele>154.0</ele><time>2026-04-20T13:05:00Z</time></trkpt><trkpt lat="43.63502774259334" lon="11.005910866177816"><ele>156.0</ele><time>2026-04-20T13:05:01Z</time></trkpt><trkpt lat="43.634899444198716" lon="11.00586297207671"><ele>158.0</ele><time>2026-04-20T13:05:02Z</time></trkpt><trkpt lat="43.63476523360468" lon="11.005823444381756"><ele>158.0</ele><time>2026-04-20T13:05:03Z</time></trkpt><trkpt lat="43.63462449227136" lon="11.005798512251312"><ele>158.0</ele><time>2026-04-20T13:05:04Z</time></trkpt><trkpt lat="43.63448006232754" lon="11.005785415750614"><ele>158.0</ele><time>2026-04-20T13:05:05Z</time></trkpt><trkpt lat="43.63433745680803" lon="11.005752607771095"><ele>158.0</ele><time>2026-04-20T13:05:06Z</time></trkpt><trkpt lat="43.63419294706495" lon="11.005688404133112"><ele>161.0</ele><time>2026-04-20T13:05:07Z</time></trkpt><trkpt lat="43.634055921580305" lon="11.005600680053151"><ele>164.0</ele><time>2026-04-20T13:05:08Z</time></trkpt><trkpt lat="43.63392989668431" lon="11.005490783373526"><ele>167.0</ele><time>2026-04-20T13:05:09Z</time></trkpt><trkpt lat="43.63382721598328" lon="11.005368698776564"><ele>170.0</ele><time>2026-04-20T13:05:10Z</time></trkpt><trkpt lat="43.633736128578875" lon="11.005213985948695"><ele>170.0</ele><time>2026-04-20T13:05:11Z</time></trkpt><trkpt lat="43.63365923870362" lon="11.005044044527436"><ele>170.0</ele><time>2026-04-20T13:05:12Z</time></trkpt><trkpt lat="43.633590944008716" lon="11.004864533326487"><ele>170.0</ele><time>2026-04-20T13:05:13Z</time></trkpt><trkpt lat="43.63353985864888" lon="11.004690567157303"><ele>170.0</ele><time>2026-04-20T13:05:14Z</time></trkpt><trkpt lat="43.633512577797184" lon="11.004508681291291"><ele>169.0</ele><time>2026-04-20T13:05:15Z</time></trkpt><trkpt lat="43.63350711384503" lon="11.004321844841837"><ele>168.0</ele><time>2026-04-20T13:05:16Z</time></trkpt><trkpt lat="43.63353372230734" lon="11.004123291420534"><ele>167.0</ele><time>2026-04-20T13:05:17Z</time></trkpt><trkpt lat="43.63354799982418" lon="11.003917498438307"><ele>166.0</ele><time>2026-04-20T13:05:18Z</time></trkpt><trkpt lat="43.63355947971204" lon="11.003721151968186"><ele>165.5</ele><time>2026-04-20T13:05:19Z</time></trkpt><trkpt lat="43.63356106412839" lon="11.0035336109865"><ele>165.0</ele><time>2026-04-20T13:05:20Z</time></trkpt><trkpt lat="43.63353947935797" lon="11.003352733169637"><ele>164.5</ele><time>2026-04-20T13:05:21Z</time></trkpt><trkpt lat="43.63350431045538" lon="11.003172860420054"><ele>164.0</ele><time>2026-04-20T13:05:22Z</time></trkpt><trkpt lat="43.63345074827792" lon="11.002989039997248"><ele>163.66666666666666</ele><time>2026-04-20T13:05:23Z</time></trkpt><trkpt lat="43.63338299653056" lon="11.002803645094012"><ele>163.33333333333334</ele><time>2026-04-20T13:05:24Z</time></trkpt><trkpt lat="43.633301670844524" lon="11.002620533748193"><ele>163.0</ele><time>2026-04-20T13:05:25Z</time></trkpt><trkpt lat="43.633204285288386" lon="11.002443520853005"><ele>164.0</ele><time>2026-04-20T13:05:26Z</time></trkpt><trkpt lat="43.63310625556045" lon="11.002269992135803"><ele>165.0</ele><time>2026-04-20T13:05:27Z</time></trkpt><trkpt lat="43.63301291205802" lon="11.002107677691003"><ele>166.0</ele><time>2026-04-20T13:05:28Z</time></trkpt><trkpt lat="43.632922954918754" lon="11.001953926855684"><ele>166.0</ele><time>2026-04-20T13:05:29Z</time></trkpt><trkpt lat="43.6328434343769" lon="11.001799177429508"><ele>166.0</ele><time>2026-04-20T13:05:30Z</time></trkpt><trkpt lat="43.63275880117946" lon="11.001655799446647"><ele>166.0</ele><time>2026-04-20T13:05:31Z</time></trkpt><trkpt lat="43.63268015756684" lon="11.001513811219239"><ele>166.0</ele><time>2026-04-20T13:05:32Z</time></trkpt><trkpt lat="43.6326103521823" lon="11.001375635697338"><ele>162.33333333333334</ele><time>2026-04-20T13:05:33Z</time></trkpt><trkpt lat="43.63251879363055" lon="11.001217382827237"><ele>158.66666666666666</ele><time>2026-04-20T13:05:34Z</time></trkpt><trkpt lat="43.6324260193193" lon="11.0010549309486"><ele>155.0</ele><time>2026-04-20T13:05:35Z</time></trkpt><trkpt lat="43.63232822549909" lon="11.000883986819572"><ele>153.66666666666666</ele><time>2026-04-20T13:05:36Z</time></trkpt><trkpt lat="43.63222960617896" lon="11.0007097327479"><ele>152.33333333333334</ele><time>2026-04-20T13:05:37Z</time></trkpt><trkpt lat="43.6321319258291" lon="11.000530418283114"><ele>151.0</ele><time>2026-04-20T13:05:38Z</time></trkpt><trkpt lat="43.6320306443214" lon="11.000348302826517"><ele>149.66666666666669</ele><time>2026-04-20T13:05:39Z</time></trkpt><trkpt lat="43.63192948813991" lon="11.000161523115086"><ele>148.33333333333334</ele><time>2026-04-20T13:05:40Z</time></trkpt><trkpt lat="43.63182871158111" lon="10.99998640722012"><ele>147.0</ele><time>2026-04-20T13:05:41Z</time></trkpt><trkpt lat="43.63172904278616" lon="10.999807508098723"><ele>147.0</ele><time>2026-04-20T13:05:42Z</time></trkpt><trkpt lat="43.6316289089063" lon="10.999622411673185"><ele>147.0</ele><time>2026-04-20T13:05:43Z</time></trkpt><trkpt lat="43.631536012240446" lon="10.99943464757497"><ele>147.0</ele><time>2026-04-20T13:05:44Z</time></trkpt><trkpt lat="43.63144785336029" lon="10.999236398337287"><ele>147.66666666666666</ele><time>2026-04-20T13:05:45Z</time></trkpt><trkpt lat="43.6313707413545" lon="10.999034411214124"><ele>148.33333333333331</ele><time>2026-04-20T13:05:46Z</time></trkpt><trkpt lat="43.63130056755682" lon="10.998828918186245"><ele>149.0</ele><time>2026-04-20T13:05:47Z</time></trkpt><trkpt lat="43.631233387668395" lon="10.998619307213687"><ele>149.0</ele><time>2026-04-20T13:05:48Z</time></trkpt><trkpt lat="43.63116675744042" lon="10.998407368595899"><ele>149.0</ele><time>2026-04-20T13:05:49Z</time></trkpt><trkpt lat="43.63109898345353" lon="10.998198916166396"><ele>149.0</ele><time>2026-04-20T13:05:50Z</time></trkpt><trkpt lat="43.631032859805664" lon="10.997998767907072"><ele>147.33333333333331</ele><time>2026-04-20T13:05:51Z</time></trkpt><trkpt lat="43.630967195028845" lon="10.997795137448852"><ele>145.66666666666666</ele><time>2026-04-20T13:05:52Z</time></trkpt><trkpt lat="43.630895254192524" lon="10.99759448960656"><ele>144.0</ele><time>2026-04-20T13:05:53Z</time></trkpt><trkpt lat="43.63082333102731" lon="10.997398475735862"><ele>143.66666666666666</ele><time>2026-04-20T13:05:54Z</time></trkpt><trkpt lat="43.630734524069716" lon="10.997207514836497"><ele>143.33333333333331</ele><time>2026-04-20T13:05:55Z</time></trkpt><trkpt lat="43.63062955019739" lon="10.997028140515624"><ele>143.0</ele><time>2026-04-20T13:05:56Z</time></trkpt><trkpt lat="43.63051532322802" lon="10.996867086727235"><ele>143.0</ele><time>2026-04-20T13:05:57Z</time></trkpt><trkpt lat="43.63039986532929" lon="10.996711286585667"><ele>143.0</ele><time>2026-04-20T13:05:58Z</time></trkpt><trkpt lat="43.630279301070885" lon="10.99655283500821"><ele>143.0</ele><time>2026-04-20T13:05:59Z</time></trkpt><trkpt lat="43.630163696458794" lon="10.996399276102304"><ele>142.33333333333331</ele><time>2026-04-20T13:06:00Z</time></trkpt><trkpt lat="43.63004569269505" lon="10.99624052517995"><ele>141.66666666666666</ele><time>2026-04-20T13:06:01Z</time></trkpt><trkpt lat="43.629925197718826" lon="10.996079505586424"><ele>141.0</ele><time>2026-04-20T13:06:02Z</time></trkpt><trkpt lat="43.629809867409165" lon="10.995926291811111"><ele>142.0</ele><time>2026-04-20T13:06:03Z</time></trkpt><trkpt lat="43.62969156498011" lon="10.995773789148634"><ele>143.0</ele><time>2026-04-20T13:06:04Z</time></trkpt><trkpt lat="43.62957682232292" lon="10.995626021919946"><ele>144.0</ele><time>2026-04-20T13:06:05Z</time></trkpt><trkpt lat="43.629461166181876" lon="10.995470973754182"><ele>144.0</ele><time>2026-04-20T13:06:06Z</time></trkpt><trkpt lat="43.62934427185693" lon="10.995307868701858"><ele>144.0</ele><time>2026-04-20T13:06:07Z</time></trkpt><trkpt lat="43.629242491327645" lon="10.995135387808107"><ele>144.0</ele><time>2026-04-20T13:06:08Z</time></trkpt><trkpt lat="43.629144712056195" lon="10.99495609526874"><ele>144.33333333333334</ele><time>2026-04-20T13:06:09Z</time></trkpt><trkpt lat="43.629049219697784" lon="10.994773335486633"><ele>144.66666666666669</ele><time>2026-04-20T13:06:10Z</time></trkpt><trkpt lat="43.62895437188482" lon="10.994586392332655"><ele>145.0</ele><time>2026-04-20T13:06:11Z</time></trkpt><trkpt lat="43.62886318137476" lon="10.994410386181716"><ele>145.0</ele><time>2026-04-20T13:06:12Z</time></trkpt><trkpt lat="43.62877408008723" lon="10.99424055373256"><ele>145.0</ele><time>2026-04-20T13:06:13Z</time></trkpt><trkpt lat="43.62868223159762" lon="10.994069775483998"><ele>145.0</ele><time>2026-04-20T13:06:14Z</time></trkpt><trkpt lat="43.628598345091376" lon="10.993889674850283"><ele>143.33333333333334</ele><time>2026-04-20T13:06:15Z</time></trkpt><trkpt lat="43.62852366726937" lon="10.993686912934475"><ele>141.66666666666666</ele><time>2026-04-20T13:06:16Z</time></trkpt><trkpt lat="43.628457279295446" lon="10.993474284382142"><ele>140.0</ele><time>2026-04-20T13:06:17Z</time></trkpt><trkpt lat="43.62840548489802" lon="10.993263963651602"><ele>140.0</ele><time>2026-04-20T13:06:18Z</time></trkpt><trkpt lat="43.628363242870314" lon="10.99305569339245"><ele>140.0</ele><time>2026-04-20T13:06:19Z</time></trkpt><trkpt lat="43.62832497913225" lon="10.992842527459228"><ele>140.0</ele><time>2026-04-20T13:06:20Z</time></trkpt><trkpt lat="43.62828638584233" lon="10.992626648796318"><ele>139.33333333333331</ele><time>2026-04-20T13:06:21Z</time></trkpt><trkpt lat="43.62824409832431" lon="10.992409127475161"><ele>138.66666666666666</ele><time>2026-04-20T13:06:22Z</time></trkpt><trkpt lat="43.62820423628977" lon="10.992193072435798"><ele>138.0</ele><time>2026-04-20T13:06:23Z</time></trkpt><trkpt lat="43.62817127177839" lon="10.991981138030448"><ele>138.0</ele><time>2026-04-20T13:06:24Z</time></trkpt><trkpt lat="43.6281401343937" lon="10.99177288573686"><ele>138.0</ele><time>2026-04-20T13:06:25Z</time></trkpt><trkpt lat="43.62810657670456" lon="10.991571063705731"><ele>138.0</ele><time>2026-04-20T13:06:26Z</time></trkpt><trkpt lat="43.628072732966615" lon="10.991386225393443"><ele>138.0</ele><time>2026-04-20T13:06:27Z</time></trkpt><trkpt lat="43.628033073280356" lon="10.991207590426349"><ele>137.5</ele><time>2026-04-20T13:06:28Z</time></trkpt><trkpt lat="43.627976794639416" lon="10.991035572072533"><ele>137.0</ele><time>2026-04-20T13:06:29Z</time></trkpt><trkpt lat="43.627897930607816" lon="10.990877387111174"><ele>136.5</ele><time>2026-04-20T13:06:30Z</time></trkpt><trkpt lat="43.62779802089379" lon="10.990736069455565"><ele>136.0</ele><time>2026-04-20T13:06:31Z</time></trkpt><trkpt lat="43.62767889469865" lon="10.990613474922824"><ele>134.0</ele><time>2026-04-20T13:06:32Z</time></trkpt><trkpt lat="43.62754080373278" lon="10.990502420108198"><ele>132.0</ele><time>2026-04-20T13:06:33Z</time></trkpt><trkpt lat="43.62740318986645" lon="10.99039246429862"><ele>130.0</ele><time>2026-04-20T13:06:34Z</time></trkpt><trkpt lat="43.62726504595391" lon="10.990285071736464"><ele>130.0</ele><time>2026-04-20T13:06:35Z</time></trkpt><trkpt lat="43.627124560615144" lon="10.990182152100353"><ele>130.0</ele><time>2026-04-20T13:06:36Z</time></trkpt><trkpt lat="43.62699661355064" lon="10.990079045572726"><ele>130.0</ele><time>2026-04-20T13:06:37Z</time></trkpt><trkpt lat="43.6268729251921" lon="10.989986033358111"><ele>130.0</ele><time>2026-04-20T13:06:38Z</time></trkpt><trkpt lat="43.62674294772854" lon="10.989912204907903"><ele>128.33333333333334</ele><time>2026-04-20T13:06:39Z</time></trkpt><trkpt lat="43.626594665039065" lon="10.989862714529748"><ele>126.66666666666666</ele><time>2026-04-20T13:06:40Z</time></trkpt><trkpt lat="43.626437636587454" lon="10.989846335291197"><ele>125.0</ele><time>2026-04-20T13:06:41Z</time></trkpt><trkpt lat="43.62626527000369" lon="10.989841728230454"><ele>124.0</ele><time>2026-04-20T13:06:42Z</time></trkpt><trkpt lat="43.62610427223171" lon="10.989859460850603"><ele>123.0</ele><time>2026-04-20T13:06:43Z</time></trkpt><trkpt lat="43.62595376120986" lon="10.989874040222467"><ele>122.0</ele><time>2026-04-20T13:06:44Z</time></trkpt><trkpt lat="43.625801107009394" lon="10.989878293885903"><ele>122.0</ele><time>2026-04-20T13:06:45Z</time></trkpt><trkpt lat="43.6256466286702" lon="10.989887884548853"><ele>122.0</ele><time>2026-04-20T13:06:46Z</time></trkpt><trkpt lat="43.62548763684086" lon="10.989893978191919"><ele>122.0</ele><time>2026-04-20T13:06:47Z</time></trkpt><trkpt lat="43.62532920053315" lon="10.989889752090477"><ele>122.0</ele><time>2026-04-20T13:06:48Z</time></trkpt><trkpt lat="43.62517269535987" lon="10.989875786736816"><ele>122.0</ele><time>2026-04-20T13:06:49Z</time></trkpt><trkpt lat="43.625021511290356" lon="10.98983980083577"><ele>122.0</ele><time>2026-04-20T13:06:50Z</time></trkpt><trkpt lat="43.6248726177352" lon="10.989770818563318"><ele>122.0</ele><time>2026-04-20T13:06:51Z</time></trkpt><trkpt lat="43.62472817175887" lon="10.989685516341961"><ele>122.0</ele><time>2026-04-20T13:06:52Z</time></trkpt><trkpt lat="43.6245871378578" lon="10.989585403767208"><ele>122.0</ele><time>2026-04-20T13:06:53Z</time></trkpt><trkpt lat="43.62445753984732" lon="10.989470290902556"><ele>119.66666666666666</ele><time>2026-04-20T13:06:54Z</time></trkpt><trkpt lat="43.62433738172471" lon="10.98934563096546"><ele>117.33333333333334</ele><time>2026-04-20T13:06:55Z</time></trkpt><trkpt lat="43.6242176633476" lon="10.98920444485299"><ele>115.0</ele><time>2026-04-20T13:06:56Z</time></trkpt><trkpt lat="43.62410605253144" lon="10.989049171135076"><ele>115.0</ele><time>2026-04-20T13:06:57Z</time></trkpt><trkpt lat="43.62400226832819" lon="10.988900261054813"><ele>115.0</ele><time>2026-04-20T13:06:58Z</time></trkpt><trkpt lat="43.62389588408219" lon="10.988760132220804"><ele>115.0</ele><time>2026-04-20T13:06:59Z</time></trkpt><trkpt lat="43.623778771824824" lon="10.988635288193747"><ele>115.0</ele><time>2026-04-20T13:07:00Z</time></trkpt><trkpt lat="43.62364516125674" lon="10.988537735501493"><ele>114.66666666666667</ele><time>2026-04-20T13:07:01Z</time></trkpt><trkpt lat="43.62350215453791" lon="10.988461804025437"><ele>114.33333333333334</ele><time>2026-04-20T13:07:02Z</time></trkpt><trkpt lat="43.62335103260771" lon="10.988416781180657"><ele>114.0</ele><time>2026-04-20T13:07:03Z</time></trkpt><trkpt lat="43.62319195561784" lon="10.988391918111288"><ele>114.0</ele><time>2026-04-20T13:07:04Z</time></trkpt><trkpt lat="43.623035464514885" lon="10.98838727881742"><ele>114.0</ele><time>2026-04-20T13:07:05Z</time></trkpt><trkpt lat="43.622877037629614" lon="10.988380198223313"><ele>114.0</ele><time>2026-04-20T13:07:06Z</time></trkpt><trkpt lat="43.622719968220956" lon="10.988367821912115"><ele>116.0</ele><time>2026-04-20T13:07:07Z</time></trkpt><trkpt lat="43.62256334801548" lon="10.988358252105245"><ele>118.0</ele><time>2026-04-20T13:07:08Z</time></trkpt><trkpt lat="43.62240080639616" lon="10.98834161838832"><ele>120.0</ele><time>2026-04-20T13:07:09Z</time></trkpt><trkpt lat="43.62224006122952" lon="10.988324723909589"><ele>120.0</ele><time>2026-04-20T13:07:10Z</time></trkpt><trkpt lat="43.622078549673176" lon="10.988313101617832"><ele>120.0</ele><time>2026-04-20T13:07:11Z</time></trkpt><trkpt lat="43.62191417463229" lon="10.988299230062772"><ele>120.0</ele><time>2026-04-20T13:07:12Z</time></trkpt><trkpt lat="43.621749834889506" lon="10.988275158989012"><ele>120.0</ele><time>2026-04-20T13:07:13Z</time></trkpt><trkpt lat="43.62158766739969" lon="10.988250354100986"><ele>120.0</ele><time>2026-04-20T13:07:14Z</time></trkpt><trkpt lat="43.621425488791616" lon="10.988214527803864"><ele>120.0</ele><time>2026-04-20T13:07:15Z</time></trkpt><trkpt lat="43.62126697493587" lon="10.988149961782547"><ele>121.66666666666666</ele><time>2026-04-20T13:07:16Z</time></trkpt><trkpt lat="43.62111566004797" lon="10.9880618834996"><ele>123.33333333333333</ele><time>2026-04-20T13:07:17Z</time></trkpt><trkpt lat="43.6209741476245" lon="10.987948496188894"><ele>125.0</ele><time>2026-04-20T13:07:18Z</time></trkpt><trkpt lat="43.620842529274356" lon="10.987809984020064"><ele>125.0</ele><time>2026-04-20T13:07:19Z</time></trkpt><trkpt lat="43.62072617758713" lon="10.987648541136235"><ele>125.0</ele><time>2026-04-20T13:07:20Z</time></trkpt><trkpt lat="43.62062188559799" lon="10.987479108027602"><ele>125.0</ele><time>2026-04-20T13:07:21Z</time></trkpt><trkpt lat="43.62051638381066" lon="10.987302430503904"><ele>124.33333333333333</ele><time>2026-04-20T13:07:22Z</time></trkpt><trkpt lat="43.62040711156101" lon="10.987129377893371"><ele>123.66666666666666</ele><time>2026-04-20T13:07:23Z</time></trkpt><trkpt lat="43.620300360287935" lon="10.986961109446128"><ele>123.0</ele><time>2026-04-20T13:07:24Z</time></trkpt><trkpt lat="43.62019473702927" lon="10.98679622830328"><ele>122.0</ele><time>2026-04-20T13:07:25Z</time></trkpt><trkpt lat="43.62008801107465" lon="10.98663082724626"><ele>121.0</ele><time>2026-04-20T13:07:26Z</time></trkpt><trkpt lat="43.61998389314984" lon="10.98646886278056"><ele>120.0</ele><time>2026-04-20T13:07:27Z</time></trkpt><trkpt lat="43.619878545397015" lon="10.986311406401548"><ele>120.0</ele><time>2026-04-20T13:07:28Z</time></trkpt><trkpt lat="43.61977376252078" lon="10.986150403788711"><ele>120.0</ele><time>2026-04-20T13:07:29Z</time></trkpt><trkpt lat="43.619660982935095" lon="10.985992595370268"><ele>120.0</ele><time>2026-04-20T13:07:30Z</time></trkpt><trkpt lat="43.61954078429777" lon="10.985843296397618"><ele>119.33333333333334</ele><time>2026-04-20T13:07:31Z</time></trkpt><trkpt lat="43.6194107974323" lon="10.985710204255998"><ele>118.66666666666667</ele><time>2026-04-20T13:07:32Z</time></trkpt><trkpt lat="43.619277286468446" lon="10.98558874208367"><ele>118.0</ele><time>2026-04-20T13:07:33Z</time></trkpt><trkpt lat="43.61913913367848" lon="10.98547364770944"><ele>118.0</ele><time>2026-04-20T13:07:34Z</time></trkpt><trkpt lat="43.61900025192175" lon="10.985362965928786"><ele>118.0</ele><time>2026-04-20T13:07:35Z</time></trkpt><trkpt lat="43.61886072483474" lon="10.985252580360827"><ele>118.0</ele><time>2026-04-20T13:07:36Z</time></trkpt><trkpt lat="43.61872308990826" lon="10.985139651366927"><ele>119.66666666666667</ele><time>2026-04-20T13:07:37Z</time></trkpt><trkpt lat="43.61858399227876" lon="10.985026182405655"><ele>121.33333333333334</ele><time>2026-04-20T13:07:38Z</time></trkpt><trkpt lat="43.61844017911849" lon="10.984917571941242"><ele>123.0</ele><time>2026-04-20T13:07:39Z</time></trkpt><trkpt lat="43.618295393521755" lon="10.984822268152794"><ele>123.0</ele><time>2026-04-20T13:07:40Z</time></trkpt><trkpt lat="43.618141180101496" lon="10.984743022567642"><ele>123.0</ele><time>2026-04-20T13:07:41Z</time></trkpt><trkpt lat="43.617984312985016" lon="10.984682854927765"><ele>123.0</ele><time>2026-04-20T13:07:42Z</time></trkpt><trkpt lat="43.61782581672605" lon="10.984629755338126"><ele>123.33333333333334</ele><time>2026-04-20T13:07:43Z</time></trkpt><trkpt lat="43.617670655188114" lon="10.984580109489904"><ele>123.66666666666667</ele><time>2026-04-20T13:07:44Z</time></trkpt><trkpt lat="43.61751513342218" lon="10.984526154771306"><ele>124.0</ele><time>2026-04-20T13:07:45Z</time></trkpt><trkpt lat="43.61736676769764" lon="10.984473891658094"><ele>124.0</ele><time>2026-04-20T13:07:46Z</time></trkpt><trkpt lat="43.61722900703911" lon="10.984418593046751"><ele>124.0</ele><time>2026-04-20T13:07:47Z</time></trkpt><trkpt lat="43.617092318322364" lon="10.984348985014629"><ele>124.0</ele><time>2026-04-20T13:07:48Z</time></trkpt><trkpt lat="43.61696240405652" lon="10.984280095260903"><ele>124.0</ele><time>2026-04-20T13:07:49Z</time></trkpt><trkpt lat="43.61683734832769" lon="10.984209308622074"><ele>126.5</ele><time>2026-04-20T13:07:50Z</time></trkpt><trkpt lat="43.616709923531346" lon="10.984129175592837"><ele>129.0</ele><time>2026-04-20T13:07:51Z</time></trkpt><trkpt lat="43.616588712007406" lon="10.984044465385095"><ele>131.5</ele><time>2026-04-20T13:07:52Z</time></trkpt><trkpt lat="43.616473255305685" lon="10.983968147508921"><ele>134.0</ele><time>2026-04-20T13:07:53Z</time></trkpt><trkpt lat="43.61634028613978" lon="10.983884634551572"><ele>134.0</ele><time>2026-04-20T13:07:54Z</time></trkpt><trkpt lat="43.616210618627626" lon="10.983791593532345"><ele>134.0</ele><time>2026-04-20T13:07:55Z</time></trkpt><trkpt lat="43.616074501540076" lon="10.983693023574153"><ele>134.0</ele><time>2026-04-20T13:07:56Z</time></trkpt><trkpt lat="43.6159427676453" lon="10.98360395974455"><ele>134.0</ele><time>2026-04-20T13:07:57Z</time></trkpt><trkpt lat="43.615811532175464" lon="10.983504127712639"><ele>133.33333333333331</ele><time>2026-04-20T13:07:58Z</time></trkpt><trkpt lat="43.615690150769765" lon="10.98338424892606"><ele>132.66666666666666</ele><time>2026-04-20T13:07:59Z</time></trkpt><trkpt lat="43.61557696504701" lon="10.983239829278977"><ele>132.0</ele><time>2026-04-20T13:08:00Z</time></trkpt><trkpt lat="43.61547434753672" lon="10.983076038881835"><ele>132.75</ele><time>2026-04-20T13:08:01Z</time></trkpt><trkpt lat="43.615393218405785" lon="10.982901840611122"><ele>133.5</ele><time>2026-04-20T13:08:02Z</time></trkpt><trkpt lat="43.615326124292125" lon="10.98272989570461"><ele>134.25</ele><time>2026-04-20T13:08:03Z</time></trkpt><trkpt lat="43.61527537344799" lon="10.982540580936476"><ele>135.0</ele><time>2026-04-20T13:08:04Z</time></trkpt><trkpt lat="43.61524269997947" lon="10.982331958819298"><ele>135.33333333333334</ele><time>2026-04-20T13:08:05Z</time></trkpt><trkpt lat="43.6152170074839" lon="10.982113536983247"><ele>135.66666666666669</ele><time>2026-04-20T13:08:06Z</time></trkpt><trkpt lat="43.61520305557458" lon="10.981888344118028"><ele>136.0</ele><time>2026-04-20T13:08:07Z</time></trkpt><trkpt lat="43.615192234145276" lon="10.981683091774194"><ele>135.5</ele><time>2026-04-20T13:08:08Z</time></trkpt><trkpt lat="43.615174538941716" lon="10.981485275852926"><ele>135.0</ele><time>2026-04-20T13:08:09Z</time></trkpt><trkpt lat="43.61514415580039" lon="10.981285885845313"><ele>134.5</ele><time>2026-04-20T13:08:10Z</time></trkpt><trkpt lat="43.61509344273392" lon="10.98109751904535"><ele>134.0</ele><time>2026-04-20T13:08:11Z</time></trkpt><trkpt lat="43.61502712730105" lon="10.980912782128556"><ele>131.66666666666666</ele><time>2026-04-20T13:08:12Z</time></trkpt><trkpt lat="43.6149427279399" lon="10.980730155283123"><ele>129.33333333333334</ele><time>2026-04-20T13:08:13Z</time></trkpt><trkpt lat="43.614840744850845" lon="10.980551929693698"><ele>127.0</ele><time>2026-04-20T13:08:14Z</time></trkpt><trkpt lat="43.614730678394245" lon="10.980396956586944"><ele>127.0</ele><time>2026-04-20T13:08:15Z</time></trkpt><trkpt lat="43.61460700378738" lon="10.980254381364988"><ele>127.0</ele><time>2026-04-20T13:08:16Z</time></trkpt><trkpt lat="43.61447897222539" lon="10.9801166717338"><ele>127.0</ele><time>2026-04-20T13:08:17Z</time></trkpt><trkpt lat="43.6143570249378" lon="10.979978630593903"><ele>124.33333333333334</ele><time>2026-04-20T13:08:18Z</time></trkpt><trkpt lat="43.6142337329865" lon="10.979834054699921"><ele>121.66666666666666</ele><time>2026-04-20T13:08:19Z</time></trkpt><trkpt lat="43.614105842144305" lon="10.979690984504959"><ele>119.0</ele><time>2026-04-20T13:08:20Z</time></trkpt><trkpt lat="43.613976277992975" lon="10.97954298662245"><ele>119.0</ele><time>2026-04-20T13:08:21Z</time></trkpt><trkpt lat="43.61385232597847" lon="10.979402399166599"><ele>119.0</ele><time>2026-04-20T13:08:22Z</time></trkpt><trkpt lat="43.61374028137377" lon="10.979275469504422"><ele>119.0</ele><time>2026-04-20T13:08:23Z</time></trkpt><trkpt lat="43.61362446365614" lon="10.979138645522557"><ele>118.75</ele><time>2026-04-20T13:08:24Z</time></trkpt><trkpt lat="43.613514620888104" lon="10.97900461038583"><ele>118.5</ele><time>2026-04-20T13:08:25Z</time></trkpt><trkpt lat="43.613410958643364" lon="10.978865409944804"><ele>118.25</ele><time>2026-04-20T13:08:26Z</time></trkpt><trkpt lat="43.61331110577959" lon="10.978705761101887"><ele>118.0</ele><time>2026-04-20T13:08:27Z</time></trkpt><trkpt lat="43.61321409270488" lon="10.978530632942032"><ele>119.33333333333334</ele><time>2026-04-20T13:08:28Z</time></trkpt><trkpt lat="43.61312696436179" lon="10.97834624597363"><ele>120.66666666666666</ele><time>2026-04-20T13:08:29Z</time></trkpt><trkpt lat="43.6130488390553" lon="10.978145147036667"><ele>122.0</ele><time>2026-04-20T13:08:30Z</time></trkpt><trkpt lat="43.612976207897674" lon="10.977955917133992"><ele>122.0</ele><time>2026-04-20T13:08:31Z</time></trkpt><trkpt lat="43.61290107042746" lon="10.977772261777597"><ele>122.0</ele><time>2026-04-20T13:08:32Z</time></trkpt><trkpt lat="43.612831211474386" lon="10.97758042236115"><ele>122.0</ele><time>2026-04-20T13:08:33Z</time></trkpt><trkpt lat="43.61274771748712" lon="10.97738041945415"><ele>121.66666666666666</ele><time>2026-04-20T13:08:34Z</time></trkpt><trkpt lat="43.61266988787998" lon="10.977188588258947"><ele>121.33333333333334</ele><time>2026-04-20T13:08:35Z</time></trkpt><trkpt lat="43.612589113624786" lon="10.976997166620926"><ele>121.0</ele><time>2026-04-20T13:08:36Z</time></trkpt><trkpt lat="43.61249890595545" lon="10.976809945053382"><ele>120.33333333333334</ele><time>2026-04-20T13:08:37Z</time></trkpt><trkpt lat="43.6123932793558" lon="10.97663123391444"><ele>119.66666666666666</ele><time>2026-04-20T13:08:38Z</time></trkpt><trkpt lat="43.612273351112215" lon="10.976457955264804"><ele>119.0</ele><time>2026-04-20T13:08:39Z</time></trkpt><trkpt lat="43.612149145284384" lon="10.976293134950325"><ele>119.0</ele><time>2026-04-20T13:08:40Z</time></trkpt><trkpt lat="43.61202076908052" lon="10.976136895388235"><ele>119.0</ele><time>2026-04-20T13:08:41Z</time></trkpt><trkpt lat="43.611887732363336" lon="10.97599456043161"><ele>119.0</ele><time>2026-04-20T13:08:42Z</time></trkpt><trkpt lat="43.611759929452106" lon="10.975868307963246"><ele>117.33333333333333</ele><time>2026-04-20T13:08:43Z</time></trkpt><trkpt lat="43.611623467536134" lon="10.975756344991375"><ele>115.66666666666666</ele><time>2026-04-20T13:08:44Z</time></trkpt><trkpt lat="43.611479980250365" lon="10.975654218797633"><ele>114.0</ele><time>2026-04-20T13:08:45Z</time></trkpt><trkpt lat="43.61134251828214" lon="10.975558832114224"><ele>114.0</ele><time>2026-04-20T13:08:46Z</time></trkpt><trkpt lat="43.61120952587699" lon="10.975471532549449"><ele>114.0</ele><time>2026-04-20T13:08:47Z</time></trkpt><trkpt lat="43.6110826941549" lon="10.975380275767684"><ele>114.0</ele><time>2026-04-20T13:08:48Z</time></trkpt><trkpt lat="43.6109660087444" lon="10.975295470825797"><ele>114.0</ele><time>2026-04-20T13:08:49Z</time></trkpt><trkpt lat="43.61085307356137" lon="10.9751944965209"><ele>113.5</ele><time>2026-04-20T13:08:50Z</time></trkpt><trkpt lat="43.61074674274252" lon="10.975066162329718"><ele>113.0</ele><time>2026-04-20T13:08:51Z</time></trkpt><trkpt lat="43.61064491512285" lon="10.974923799193867"><ele>112.5</ele><time>2026-04-20T13:08:52Z</time></trkpt><trkpt lat="43.610546703063115" lon="10.97478554940011"><ele>112.0</ele><time>2026-04-20T13:08:53Z</time></trkpt><trkpt lat="43.61045543564648" lon="10.97463848431722"><ele>112.0</ele><time>2026-04-20T13:08:54Z</time></trkpt><trkpt lat="43.61035653532443" lon="10.974496047080653"><ele>112.0</ele><time>2026-04-20T13:08:55Z</time></trkpt><trkpt lat="43.61025183284094" lon="10.974365088362832"><ele>112.0</ele><time>2026-04-20T13:08:56Z</time></trkpt><trkpt lat="43.61012878108661" lon="10.974238737557254"><ele>112.0</ele><time>2026-04-20T13:08:57Z</time></trkpt><trkpt lat="43.60999691133259" lon="10.974125215666572"><ele>111.25</ele><time>2026-04-20T13:08:58Z</time></trkpt><trkpt lat="43.609865764070626" lon="10.97402107408927"><ele>110.5</ele><time>2026-04-20T13:08:59Z</time></trkpt><trkpt lat="43.609734302442135" lon="10.973921755911034"><ele>109.75</ele><time>2026-04-20T13:09:00Z</time></trkpt><trkpt lat="43.60960863127318" lon="10.973822443166952"><ele>109.0</ele><time>2026-04-20T13:09:01Z</time></trkpt><trkpt lat="43.60949016309775" lon="10.97373251092513"><ele>106.6</ele><time>2026-04-20T13:09:02Z</time></trkpt><trkpt lat="43.60939046875705" lon="10.973649241286097"><ele>104.2</ele><time>2026-04-20T13:09:03Z</time></trkpt><trkpt lat="43.60930465524378" lon="10.97357539404219"><ele>101.8</ele><time>2026-04-20T13:09:04Z</time></trkpt><trkpt lat="43.6092327198368" lon="10.973505817011079"><ele>99.39999999999999</ele><time>2026-04-20T13:09:05Z</time></trkpt><trkpt lat="43.60917109236014" lon="10.973430362152671"><ele>97.0</ele><time>2026-04-20T13:09:06Z</time></trkpt><trkpt lat="43.609125626794025" lon="10.973349638794888"><ele>97.0</ele><time>2026-04-20T13:09:07Z</time></trkpt><trkpt lat="43.609075605057214" lon="10.973233855290017"><ele>97.0</ele><time>2026-04-20T13:09:09Z</time></trkpt><trkpt lat="43.60902749623939" lon="10.973161013628639"><ele>97.0</ele><time>2026-04-20T13:09:11Z</time></trkpt><trkpt lat="43.60889268918821" lon="10.973102649348514"><ele>97.0</ele><time>2026-04-20T13:09:13Z</time></trkpt><trkpt lat="43.60880029371459" lon="10.973086952216796"><ele>97.0</ele><time>2026-04-20T13:09:14Z</time></trkpt><trkpt lat="43.60870094879483" lon="10.973053600663068"><ele>95.75</ele><time>2026-04-20T13:09:15Z</time></trkpt><trkpt lat="43.60860140549557" lon="10.973028570254813"><ele>94.5</ele><time>2026-04-20T13:09:16Z</time></trkpt><trkpt lat="43.60847570300225" lon="10.972987964125346"><ele>93.25</ele><time>2026-04-20T13:09:17Z</time></trkpt><trkpt lat="43.608346332960245" lon="10.972934075861103"><ele>92.0</ele><time>2026-04-20T13:09:18Z</time></trkpt><trkpt lat="43.60823087750064" lon="10.972875565677048"><ele>92.0</ele><time>2026-04-20T13:09:19Z</time></trkpt><trkpt lat="43.608121725756256" lon="10.972818727746825"><ele>92.0</ele><time>2026-04-20T13:09:20Z</time></trkpt><trkpt lat="43.60801499639176" lon="10.972788429173423"><ele>92.0</ele><time>2026-04-20T13:09:21Z</time></trkpt><trkpt lat="43.607911640803664" lon="10.972776907906029"><ele>92.0</ele><time>2026-04-20T13:09:22Z</time></trkpt><trkpt lat="43.60781114361437" lon="10.972782888334581"><ele>92.0</ele><time>2026-04-20T13:09:23Z</time></trkpt><trkpt lat="43.60770930592229" lon="10.972810240014176"><ele>92.0</ele><time>2026-04-20T13:09:24Z</time></trkpt><trkpt lat="43.607609980334416" lon="10.972838910827067"><ele>92.0</ele><time>2026-04-20T13:09:25Z</time></trkpt><trkpt lat="43.60750970896081" lon="10.972930132550019"><ele>92.0</ele><time>2026-04-20T13:09:26Z</time></trkpt><trkpt lat="43.60741758471104" lon="10.97305945776443"><ele>92.0</ele><time>2026-04-20T13:09:27Z</time></trkpt><trkpt lat="43.607337592407056" lon="10.973209644964312"><ele>90.0</ele><time>2026-04-20T13:09:28Z</time></trkpt><trkpt lat="43.60726481782116" lon="10.973374832896628"><ele>88.0</ele><time>2026-04-20T13:09:29Z</time></trkpt><trkpt lat="43.607171836250245" lon="10.973531736957877"><ele>86.0</ele><time>2026-04-20T13:09:30Z</time></trkpt><trkpt lat="43.60707733761264" lon="10.973698585314255"><ele>84.0</ele><time>2026-04-20T13:09:31Z</time></trkpt><trkpt lat="43.60699381944168" lon="10.973871124975195"><ele>84.0</ele><time>2026-04-20T13:09:32Z</time></trkpt><trkpt lat="43.606922146047" lon="10.974053295712602"><ele>84.0</ele><time>2026-04-20T13:09:33Z</time></trkpt><trkpt lat="43.60685213536779" lon="10.97424526710594"><ele>84.0</ele><time>2026-04-20T13:09:34Z</time></trkpt><trkpt lat="43.60677232703768" lon="10.97443263186037"><ele>79.75</ele><time>2026-04-20T13:09:35Z</time></trkpt><trkpt lat="43.60671115225939" lon="10.974626027270242"><ele>75.5</ele><time>2026-04-20T13:09:36Z</time></trkpt><trkpt lat="43.60665364527649" lon="10.97481135978827"><ele>71.25</ele><time>2026-04-20T13:09:37Z</time></trkpt><trkpt lat="43.60659730238747" lon="10.974989491708156"><ele>67.0</ele><time>2026-04-20T13:09:38Z</time></trkpt><trkpt lat="43.60654835977548" lon="10.975169689367096"><ele>64.75</ele><time>2026-04-20T13:09:39Z</time></trkpt><trkpt lat="43.606464163300245" lon="10.975318565628427"><ele>62.5</ele><time>2026-04-20T13:09:40Z</time></trkpt><trkpt lat="43.60638332197447" lon="10.975472422793064"><ele>60.25</ele><time>2026-04-20T13:09:41Z</time></trkpt><trkpt lat="43.60630050261722" lon="10.975624248453364"><ele>58.0</ele><time>2026-04-20T13:09:42Z</time></trkpt><trkpt lat="43.60619294321246" lon="10.975741272588373"><ele>57.5</ele><time>2026-04-20T13:09:43Z</time></trkpt><trkpt lat="43.60607627664831" lon="10.975844348711462"><ele>57.0</ele><time>2026-04-20T13:09:44Z</time></trkpt><trkpt lat="43.605952844509744" lon="10.97592357754865"><ele>56.5</ele><time>2026-04-20T13:09:45Z</time></trkpt><trkpt lat="43.6058226803028" lon="10.97597283537"><ele>56.0</ele><time>2026-04-20T13:09:46Z</time></trkpt><trkpt lat="43.60568464704728" lon="10.976005813584658"><ele>55.0</ele><time>2026-04-20T13:09:47Z</time></trkpt><trkpt lat="43.60554108419742" lon="10.976022279235679"><ele>54.0</ele><time>2026-04-20T13:09:48Z</time></trkpt><trkpt lat="43.605394354533466" lon="10.976026621617477"><ele>53.0</ele><time>2026-04-20T13:09:49Z</time></trkpt><trkpt lat="43.605243668560234" lon="10.976007079032977"><ele>52.0</ele><time>2026-04-20T13:09:50Z</time></trkpt><trkpt lat="43.605081954439775" lon="10.975977758311506"><ele>51.75</ele><time>2026-04-20T13:09:51Z</time></trkpt><trkpt lat="43.60493180379062" lon="10.975938616543386"><ele>51.5</ele><time>2026-04-20T13:09:52Z</time></trkpt><trkpt lat="43.604781720613204" lon="10.975893269977917"><ele>51.25</ele><time>2026-04-20T13:09:53Z</time></trkpt><trkpt lat="43.60464299397902" lon="10.97585812992754"><ele>51.0</ele><time>2026-04-20T13:09:54Z</time></trkpt><trkpt lat="43.60451121883202" lon="10.975823031541504"><ele>51.199999999999996</ele><time>2026-04-20T13:09:55Z</time></trkpt><trkpt lat="43.60439341604774" lon="10.975791091348011"><ele>51.4</ele><time>2026-04-20T13:09:56Z</time></trkpt><trkpt lat="43.60429433252291" lon="10.975766321322736"><ele>51.6</ele><time>2026-04-20T13:09:57Z</time></trkpt><trkpt lat="43.604202797949526" lon="10.975740519305731"><ele>51.8</ele><time>2026-04-20T13:09:58Z</time></trkpt><trkpt lat="43.60411839940714" lon="10.975713634397893"><ele>52.0</ele><time>2026-04-20T13:09:59Z</time></trkpt><trkpt lat="43.604039656817896" lon="10.975692146667292"><ele>52.0</ele><time>2026-04-20T13:10:00Z</time></trkpt><trkpt lat="43.603965596619425" lon="10.97567134219999"><ele>52.0</ele><time>2026-04-20T13:10:01Z</time></trkpt><trkpt lat="43.60390304562786" lon="10.975652009115226"><ele>52.0</ele><time>2026-04-20T13:10:02Z</time></trkpt><trkpt lat="43.603818025387504" lon="10.975631240844754"><ele>52.0</ele><time>2026-04-20T13:10:04Z</time></trkpt><trkpt lat="43.60372767097859" lon="10.975592635659241"><ele>52.0</ele><time>2026-04-20T13:10:36Z</time></trkpt><trkpt lat="43.60359915897991" lon="10.97555549052301"><ele>52.0</ele><time>2026-04-20T13:10:38Z</time></trkpt><trkpt lat="43.603510824405475" lon="10.975527922720293"><ele>52.0</ele><time>2026-04-20T13:10:39Z</time></trkpt><trkpt lat="43.603416790346856" lon="10.975502689515467"><ele>52.0</ele><time>2026-04-20T13:10:40Z</time></trkpt><trkpt lat="43.60331017495315" lon="10.975473443317505"><ele>52.0</ele><time>2026-04-20T13:10:41Z</time></trkpt><trkpt lat="43.60319514817387" lon="10.975444822050909"><ele>52.0</ele><time>2026-04-20T13:10:42Z</time></trkpt><trkpt lat="43.60306837661614" lon="10.97541063776174"><ele>52.0</ele><time>2026-04-20T13:10:43Z</time></trkpt><trkpt lat="43.602940784548835" lon="10.975376225755381"><ele>52.0</ele><time>2026-04-20T13:10:44Z</time></trkpt><trkpt lat="43.602809173261086" lon="10.975341423792516"><ele>52.0</ele><time>2026-04-20T13:10:45Z</time></trkpt><trkpt lat="43.6026702850858" lon="10.975301507933876"><ele>52.0</ele><time>2026-04-20T13:10:46Z</time></trkpt><trkpt lat="43.60252682664499" lon="10.97525767095984"><ele>53.0</ele><time>2026-04-20T13:10:47Z</time></trkpt><trkpt lat="43.60237984176973" lon="10.975213181672993"><ele>54.0</ele><time>2026-04-20T13:10:48Z</time></trkpt><trkpt lat="43.60222877663443" lon="10.975169271467337"><ele>55.0</ele><time>2026-04-20T13:10:49Z</time></trkpt><trkpt lat="43.60207690205902" lon="10.975126341981465"><ele>54.25</ele><time>2026-04-20T13:10:50Z</time></trkpt><trkpt lat="43.60193001002956" lon="10.975082823622863"><ele>53.5</ele><time>2026-04-20T13:10:51Z</time></trkpt><trkpt lat="43.60178719563921" lon="10.97504405074824"><ele>52.75</ele><time>2026-04-20T13:10:52Z</time></trkpt><trkpt lat="43.60164451954214" lon="10.975006851463197"><ele>52.0</ele><time>2026-04-20T13:10:53Z</time></trkpt><trkpt lat="43.60150092835332" lon="10.974967584255673"><ele>52.0</ele><time>2026-04-20T13:10:54Z</time></trkpt><trkpt lat="43.60135861875354" lon="10.974926622197254"><ele>52.0</ele><time>2026-04-20T13:10:55Z</time></trkpt><trkpt lat="43.60121503899631" lon="10.974889615246248"><ele>52.0</ele><time>2026-04-20T13:10:56Z</time></trkpt><trkpt lat="43.60107138920962" lon="10.974858637703244"><ele>52.0</ele><time>2026-04-20T13:10:57Z</time></trkpt><trkpt lat="43.60092610630116" lon="10.974828707099185"><ele>52.5</ele><time>2026-04-20T13:10:58Z</time></trkpt><trkpt lat="43.60078173807265" lon="10.974804082900432"><ele>53.0</ele><time>2026-04-20T13:10:59Z</time></trkpt><trkpt lat="43.60064093804533" lon="10.974783457579434"><ele>53.5</ele><time>2026-04-20T13:11:00Z</time></trkpt><trkpt lat="43.60049888860194" lon="10.974763974084857"><ele>54.0</ele><time>2026-04-20T13:11:01Z</time></trkpt><trkpt lat="43.60035363470145" lon="10.97474844271405"><ele>55.75</ele><time>2026-04-20T13:11:02Z</time></trkpt><trkpt lat="43.60021640984594" lon="10.974735876520802"><ele>57.5</ele><time>2026-04-20T13:11:03Z</time></trkpt><trkpt lat="43.600090381203664" lon="10.97472776236152"><ele>59.25</ele><time>2026-04-20T13:11:04Z</time></trkpt><trkpt lat="43.59997258210499" lon="10.974719574993024"><ele>61.0</ele><time>2026-04-20T13:11:05Z</time></trkpt><trkpt lat="43.599859685122055" lon="10.974715992044194"><ele>61.0</ele><time>2026-04-20T13:11:06Z</time></trkpt><trkpt lat="43.599748049825614" lon="10.974710992288538"><ele>60.99999999999999</ele><time>2026-04-20T13:11:07Z</time></trkpt><trkpt lat="43.5996365903025" lon="10.974696078806229"><ele>60.99999999999999</ele><time>2026-04-20T13:11:08Z</time></trkpt><trkpt lat="43.59953398663213" lon="10.974674036834578"><ele>61.0</ele><time>2026-04-20T13:11:09Z</time></trkpt><trkpt lat="43.59944161142046" lon="10.974653988284901"><ele>61.0</ele><time>2026-04-20T13:11:10Z</time></trkpt><trkpt lat="43.59936778957121" lon="10.97463729893942"><ele>60.599999999999994</ele><time>2026-04-20T13:11:11Z</time></trkpt><trkpt lat="43.599258460925995" lon="10.974600776728577"><ele>60.199999999999996</ele><time>2026-04-20T13:11:13Z</time></trkpt><trkpt lat="43.59919157591085" lon="10.974571299288009"><ele>59.800000000000004</ele><time>2026-04-20T13:11:16Z</time></trkpt><trkpt lat="43.599083477729586" lon="10.974563622968601"><ele>59.400000000000006</ele><time>2026-04-20T13:12:05Z</time></trkpt><trkpt lat="43.598948186139104" lon="10.974532829308508"><ele>59.0</ele><time>2026-04-20T13:12:07Z</time></trkpt><trkpt lat="43.59886276539132" lon="10.974512847249773"><ele>59.0</ele><time>2026-04-20T13:12:08Z</time></trkpt><trkpt lat="43.598766768684584" lon="10.974491336802915"><ele>59.00000000000001</ele><time>2026-04-20T13:12:09Z</time></trkpt><trkpt lat="43.59866816766812" lon="10.974451266221774"><ele>59.00000000000001</ele><time>2026-04-20T13:12:10Z</time></trkpt><trkpt lat="43.59855860731295" lon="10.974399711938618"><ele>59.0</ele><time>2026-04-20T13:12:11Z</time></trkpt><trkpt lat="43.59844333551519" lon="10.97433692632756"><ele>59.0</ele><time>2026-04-20T13:12:12Z</time></trkpt><trkpt lat="43.5983240412338" lon="10.97425750425169"><ele>58.5</ele><time>2026-04-20T13:12:13Z</time></trkpt><trkpt lat="43.59820698048146" lon="10.974161878735478"><ele>58.0</ele><time>2026-04-20T13:12:14Z</time></trkpt><trkpt lat="43.59808996102925" lon="10.974059731663706"><ele>57.5</ele><time>2026-04-20T13:12:15Z</time></trkpt><trkpt lat="43.59796479955809" lon="10.973944687075047"><ele>57.0</ele><time>2026-04-20T13:12:16Z</time></trkpt><trkpt lat="43.59784063409719" lon="10.973816946979936"><ele>56.0</ele><time>2026-04-20T13:12:17Z</time></trkpt><trkpt lat="43.5977135241779" lon="10.973681617136064"><ele>55.0</ele><time>2026-04-20T13:12:18Z</time></trkpt><trkpt lat="43.59758496822283" lon="10.973548141739563"><ele>54.0</ele><time>2026-04-20T13:12:19Z</time></trkpt><trkpt lat="43.59745044197441" lon="10.97340494903396"><ele>53.33333333333333</ele><time>2026-04-20T13:12:20Z</time></trkpt><trkpt lat="43.5973157003433" lon="10.97326168494292"><ele>52.666666666666664</ele><time>2026-04-20T13:12:21Z</time></trkpt><trkpt lat="43.597178087933194" lon="10.973117037470592"><ele>52.0</ele><time>2026-04-20T13:12:22Z</time></trkpt><trkpt lat="43.597038415193296" lon="10.97297136236984"><ele>51.33333333333333</ele><time>2026-04-20T13:12:23Z</time></trkpt><trkpt lat="43.59690187553128" lon="10.972836204142862"><ele>50.66666666666667</ele><time>2026-04-20T13:12:24Z</time></trkpt><trkpt lat="43.59675703374794" lon="10.972712053887113"><ele>50.0</ele><time>2026-04-20T13:12:25Z</time></trkpt><trkpt lat="43.59662063486903" lon="10.972599589889384"><ele>50.66666666666667</ele><time>2026-04-20T13:12:26Z</time></trkpt><trkpt lat="43.59648346409822" lon="10.972492084281036"><ele>51.33333333333333</ele><time>2026-04-20T13:12:27Z</time></trkpt><trkpt lat="43.596334898283914" lon="10.972402253197474"><ele>52.0</ele><time>2026-04-20T13:12:28Z</time></trkpt><trkpt lat="43.596187719273495" lon="10.972329805749846"><ele>52.0</ele><time>2026-04-20T13:12:29Z</time></trkpt><trkpt lat="43.596039011676595" lon="10.972273622186556"><ele>52.0</ele><time>2026-04-20T13:12:30Z</time></trkpt><trkpt lat="43.59587759148522" lon="10.972226821962657"><ele>52.0</ele><time>2026-04-20T13:12:31Z</time></trkpt><trkpt lat="43.59571139056438" lon="10.972189738498884"><ele>52.0</ele><time>2026-04-20T13:12:32Z</time></trkpt><trkpt lat="43.595536831277826" lon="10.972174951732327"><ele>52.0</ele><time>2026-04-20T13:12:33Z</time></trkpt><trkpt lat="43.59536354298811" lon="10.972167799865419"><ele>52.0</ele><time>2026-04-20T13:12:34Z</time></trkpt><trkpt lat="43.595183842039646" lon="10.972167931529372"><ele>52.0</ele><time>2026-04-20T13:12:35Z</time></trkpt><trkpt lat="43.59500437673047" lon="10.972174439064526"><ele>52.0</ele><time>2026-04-20T13:12:36Z</time></trkpt><trkpt lat="43.59482434710242" lon="10.97218198461291"><ele>52.0</ele><time>2026-04-20T13:12:37Z</time></trkpt><trkpt lat="43.59464692319578" lon="10.972188501153756"><ele>51.666666666666664</ele><time>2026-04-20T13:12:38Z</time></trkpt><trkpt lat="43.59447004211733" lon="10.97219672330155"><ele>51.33333333333333</ele><time>2026-04-20T13:12:39Z</time></trkpt><trkpt lat="43.59429477631105" lon="10.972204467190332"><ele>51.0</ele><time>2026-04-20T13:12:40Z</time></trkpt><trkpt lat="43.5941235061174" lon="10.97221067115462"><ele>51.0</ele><time>2026-04-20T13:12:41Z</time></trkpt><trkpt lat="43.59395924494254" lon="10.972209366826219"><ele>51.0</ele><time>2026-04-20T13:12:42Z</time></trkpt><trkpt lat="43.593812625296216" lon="10.972215726941153"><ele>51.0</ele><time>2026-04-20T13:12:43Z</time></trkpt><trkpt lat="43.59366921210794" lon="10.972218314311549"><ele>50.75</ele><time>2026-04-20T13:12:44Z</time></trkpt><trkpt lat="43.593539440448346" lon="10.972222398423797"><ele>50.5</ele><time>2026-04-20T13:12:45Z</time></trkpt><trkpt lat="43.59342367279109" lon="10.97222489030942"><ele>50.25</ele><time>2026-04-20T13:12:46Z</time></trkpt><trkpt lat="43.59332017404366" lon="10.972233927785018"><ele>50.0</ele><time>2026-04-20T13:12:47Z</time></trkpt><trkpt lat="43.59321984447134" lon="10.97223310112761"><ele>50.00000000000001</ele><time>2026-04-20T13:12:48Z</time></trkpt><trkpt lat="43.59313747869104" lon="10.972226209453224"><ele>50.0</ele><time>2026-04-20T13:12:49Z</time></trkpt><trkpt lat="43.59306831192601" lon="10.972200314325468"><ele>50.0</ele><time>2026-04-20T13:12:50Z</time></trkpt><trkpt lat="43.59300550877135" lon="10.972155690368375"><ele>50.0</ele><time>2026-04-20T13:12:51Z</time></trkpt><trkpt lat="43.592940483556134" lon="10.972100944192396"><ele>50.00000000000001</ele><time>2026-04-20T13:12:52Z</time></trkpt><trkpt lat="43.592863179603036" lon="10.972064076164388"><ele>50.0</ele><time>2026-04-20T13:12:53Z</time></trkpt><trkpt lat="43.5927800269075" lon="10.972060477053118"><ele>50.2</ele><time>2026-04-20T13:12:54Z</time></trkpt><trkpt lat="43.5926994181343" lon="10.97208628422967"><ele>50.4</ele><time>2026-04-20T13:12:55Z</time></trkpt><trkpt lat="43.592621131048084" lon="10.972140080405273"><ele>50.599999999999994</ele><time>2026-04-20T13:12:56Z</time></trkpt><trkpt lat="43.592538872770774" lon="10.972195793083056"><ele>50.8</ele><time>2026-04-20T13:12:57Z</time></trkpt><trkpt lat="43.59244484026771" lon="10.972234048883022"><ele>51.0</ele><time>2026-04-20T13:12:58Z</time></trkpt><trkpt lat="43.59235519783686" lon="10.972298249401073"><ele>51.0</ele><time>2026-04-20T13:12:59Z</time></trkpt><trkpt lat="43.59221762708266" lon="10.972221963150227"><ele>51.0</ele><time>2026-04-20T13:13:00Z</time></trkpt><trkpt lat="43.59209755382513" lon="10.972201598637435"><ele>51.0</ele><time>2026-04-20T13:13:01Z</time></trkpt><trkpt lat="43.591972362212296" lon="10.972183678694947"><ele>51.0</ele><time>2026-04-20T13:13:02Z</time></trkpt><trkpt lat="43.591857421593524" lon="10.972166123099612"><ele>50.75</ele><time>2026-04-20T13:13:03Z</time></trkpt><trkpt lat="43.591746492848564" lon="10.972149526451457"><ele>50.5</ele><time>2026-04-20T13:13:04Z</time></trkpt><trkpt lat="43.59163354091044" lon="10.972129283931654"><ele>50.25</ele><time>2026-04-20T13:13:05Z</time></trkpt><trkpt lat="43.591519679226096" lon="10.972114688806455"><ele>50.0</ele><time>2026-04-20T13:13:06Z</time></trkpt><trkpt lat="43.591404712269046" lon="10.972098731469105"><ele>50.0</ele><time>2026-04-20T13:13:07Z</time></trkpt><trkpt lat="43.59128973344261" lon="10.972078969879817"><ele>50.0</ele><time>2026-04-20T13:13:08Z</time></trkpt><trkpt lat="43.59116953059165" lon="10.97205939845872"><ele>50.0</ele><time>2026-04-20T13:13:09Z</time></trkpt><trkpt lat="43.59104581952976" lon="10.972044087251547"><ele>50.0</ele><time>2026-04-20T13:13:10Z</time></trkpt><trkpt lat="43.5909133160999" lon="10.972026286294449"><ele>50.5</ele><time>2026-04-20T13:13:11Z</time></trkpt><trkpt lat="43.59077912685843" lon="10.972000625698485"><ele>51.0</ele><time>2026-04-20T13:13:12Z</time></trkpt><trkpt lat="43.59063714535392" lon="10.971974501979481"><ele>51.5</ele><time>2026-04-20T13:13:13Z</time></trkpt><trkpt lat="43.59049075565311" lon="10.971942349182282"><ele>52.0</ele><time>2026-04-20T13:13:14Z</time></trkpt><trkpt lat="43.59035832962804" lon="10.97191282844408"><ele>52.0</ele><time>2026-04-20T13:13:15Z</time></trkpt><trkpt lat="43.59023392510425" lon="10.971884219948524"><ele>52.0</ele><time>2026-04-20T13:13:16Z</time></trkpt><trkpt lat="43.59011799086092" lon="10.97184908049772"><ele>52.0</ele><time>2026-04-20T13:13:17Z</time></trkpt><trkpt lat="43.590014133299945" lon="10.971801992858053"><ele>52.0</ele><time>2026-04-20T13:13:18Z</time></trkpt><trkpt lat="43.58993067881142" lon="10.971741804536048"><ele>52.0</ele><time>2026-04-20T13:13:19Z</time></trkpt><trkpt lat="43.58986166650367" lon="10.971676442789635"><ele>51.83333333333333</ele><time>2026-04-20T13:13:20Z</time></trkpt><trkpt lat="43.58981258890022" lon="10.971590206077657"><ele>51.666666666666664</ele><time>2026-04-20T13:13:21Z</time></trkpt><trkpt lat="43.58976676264085" lon="10.971490881665149"><ele>51.5</ele><time>2026-04-20T13:13:22Z</time></trkpt><trkpt lat="43.5897072287551" lon="10.971394996687437"><ele>51.33333333333333</ele><time>2026-04-20T13:13:23Z</time></trkpt><trkpt lat="43.589648551646064" lon="10.971323068467917"><ele>51.166666666666664</ele><time>2026-04-20T13:13:24Z</time></trkpt><trkpt lat="43.589581716036626" lon="10.971277036968463"><ele>51.0</ele><time>2026-04-20T13:13:25Z</time></trkpt><trkpt lat="43.589504648787056" lon="10.971257131933477"><ele>51.4</ele><time>2026-04-20T13:13:26Z</time></trkpt><trkpt lat="43.589411798864795" lon="10.971264891828861"><ele>51.8</ele><time>2026-04-20T13:13:27Z</time></trkpt><trkpt lat="43.589312594716496" lon="10.971295460161821"><ele>52.199999999999996</ele><time>2026-04-20T13:13:28Z</time></trkpt><trkpt lat="43.58921813639071" lon="10.971302997248989"><ele>52.599999999999994</ele><time>2026-04-20T13:13:29Z</time></trkpt><trkpt lat="43.589125420490106" lon="10.971283428006997"><ele>53.0</ele><time>2026-04-20T13:13:30Z</time></trkpt><trkpt lat="43.589026516971344" lon="10.97123919903064"><ele>53.0</ele><time>2026-04-20T13:13:31Z</time></trkpt><trkpt lat="43.588913460832096" lon="10.971225287944469"><ele>53.0</ele><time>2026-04-20T13:13:32Z</time></trkpt><trkpt lat="43.58881085547586" lon="10.971079898187089"><ele>53.0</ele><time>2026-04-20T13:13:33Z</time></trkpt><trkpt lat="43.588701311901865" lon="10.970975292908022"><ele>53.0</ele><time>2026-04-20T13:13:34Z</time></trkpt><trkpt lat="43.588590958226675" lon="10.970864457488927"><ele>53.25</ele><time>2026-04-20T13:13:35Z</time></trkpt><trkpt lat="43.588476660115504" lon="10.970747837940793"><ele>53.5</ele><time>2026-04-20T13:13:36Z</time></trkpt><trkpt lat="43.588359558927" lon="10.970624898852993"><ele>53.75</ele><time>2026-04-20T13:13:37Z</time></trkpt><trkpt lat="43.58823943592229" lon="10.970501260229288"><ele>54.0</ele><time>2026-04-20T13:13:38Z</time></trkpt><trkpt lat="43.588115989442564" lon="10.970374068291324"><ele>54.0</ele><time>2026-04-20T13:13:39Z</time></trkpt><trkpt lat="43.587991606249545" lon="10.970239008225441"><ele>54.0</ele><time>2026-04-20T13:13:40Z</time></trkpt><trkpt lat="43.58786432970029" lon="10.97010076227425"><ele>54.0</ele><time>2026-04-20T13:13:41Z</time></trkpt><trkpt lat="43.587736587666484" lon="10.969957049428718"><ele>55.33333333333333</ele><time>2026-04-20T13:13:42Z</time></trkpt><trkpt lat="43.587608939376" lon="10.969814601865805"><ele>56.666666666666664</ele><time>2026-04-20T13:13:43Z</time></trkpt><trkpt lat="43.5874802052851" lon="10.969674500546715"><ele>58.0</ele><time>2026-04-20T13:13:44Z</time></trkpt><trkpt lat="43.5873550216748" lon="10.96954025253737"><ele>58.0</ele><time>2026-04-20T13:13:45Z</time></trkpt><trkpt lat="43.58723757648298" lon="10.969417790274601"><ele>58.0</ele><time>2026-04-20T13:13:46Z</time></trkpt><trkpt lat="43.58712684061831" lon="10.96929537994582"><ele>58.0</ele><time>2026-04-20T13:13:47Z</time></trkpt><trkpt lat="43.58701962037515" lon="10.969173508682438"><ele>58.0</ele><time>2026-04-20T13:13:48Z</time></trkpt><trkpt lat="43.58691427833321" lon="10.969053253707449"><ele>57.2</ele><time>2026-04-20T13:13:49Z</time></trkpt><trkpt lat="43.58681488752133" lon="10.968944757559326"><ele>56.4</ele><time>2026-04-20T13:13:50Z</time></trkpt><trkpt lat="43.58672424582129" lon="10.96884294167667"><ele>55.60000000000001</ele><time>2026-04-20T13:13:51Z</time></trkpt><trkpt lat="43.586642376400384" lon="10.968752372738553"><ele>54.800000000000004</ele><time>2026-04-20T13:13:52Z</time></trkpt><trkpt lat="43.58657103258333" lon="10.968671851703307"><ele>54.0</ele><time>2026-04-20T13:13:53Z</time></trkpt><trkpt lat="43.586504231548446" lon="10.968595984516975"><ele>54.0</ele><time>2026-04-20T13:13:54Z</time></trkpt><trkpt lat="43.58645220149562" lon="10.96853630895489"><ele>54.0</ele><time>2026-04-20T13:13:55Z</time></trkpt><trkpt lat="43.5863736289803" lon="10.968442936452528"><ele>54.0</ele><time>2026-04-20T13:13:57Z</time></trkpt><trkpt lat="43.58630965303892" lon="10.968361088919789"><ele>54.0</ele><time>2026-04-20T13:13:59Z</time></trkpt><trkpt lat="43.58625252040308" lon="10.968294902120075"><ele>54.0</ele><time>2026-04-20T13:14:02Z</time></trkpt><trkpt lat="43.586194658716565" lon="10.96822348218346"><ele>54.0</ele><time>2026-04-20T13:14:26Z</time></trkpt><trkpt lat="43.586237400458955" lon="10.968121216848997"><ele>54.0</ele><time>2026-04-20T13:14:28Z</time></trkpt><trkpt lat="43.586267689119076" lon="10.968043169191597"><ele>54.0</ele><time>2026-04-20T13:14:29Z</time></trkpt><trkpt lat="43.586293192696616" lon="10.967948520393865"><ele>54.0</ele><time>2026-04-20T13:14:30Z</time></trkpt><trkpt lat="43.586317751925485" lon="10.967826014852134"><ele>54.0</ele><time>2026-04-20T13:14:31Z</time></trkpt><trkpt lat="43.58634819624187" lon="10.967689994856144"><ele>54.0</ele><time>2026-04-20T13:14:32Z</time></trkpt><trkpt lat="43.58639936235996" lon="10.967557227796489"><ele>54.0</ele><time>2026-04-20T13:14:33Z</time></trkpt><trkpt lat="43.586430161516354" lon="10.967395301387125"><ele>54.25</ele><time>2026-04-20T13:14:34Z</time></trkpt><trkpt lat="43.58648240895021" lon="10.967232143000757"><ele>54.5</ele><time>2026-04-20T13:14:35Z</time></trkpt><trkpt lat="43.586537283830666" lon="10.967061845875545"><ele>54.75</ele><time>2026-04-20T13:14:36Z</time></trkpt><trkpt lat="43.58658250132204" lon="10.96688627877353"><ele>55.0</ele><time>2026-04-20T13:14:37Z</time></trkpt><trkpt lat="43.5866407884865" lon="10.966710660426386"><ele>54.75</ele><time>2026-04-20T13:14:38Z</time></trkpt><trkpt lat="43.586692364203664" lon="10.966525345466001"><ele>54.5</ele><time>2026-04-20T13:14:39Z</time></trkpt><trkpt lat="43.58674529970944" lon="10.966336308590009"><ele>54.25</ele><time>2026-04-20T13:14:40Z</time></trkpt><trkpt lat="43.5867929662612" lon="10.966139286621033"><ele>54.0</ele><time>2026-04-20T13:14:41Z</time></trkpt><trkpt lat="43.58682531226885" lon="10.965947308629936"><ele>54.25</ele><time>2026-04-20T13:14:42Z</time></trkpt><trkpt lat="43.58684958957884" lon="10.965748606016025"><ele>54.5</ele><time>2026-04-20T13:14:43Z</time></trkpt><trkpt lat="43.586861601742704" lon="10.965544971085542"><ele>54.75</ele><time>2026-04-20T13:14:44Z</time></trkpt><trkpt lat="43.586861274085784" lon="10.965339741328945"><ele>55.0</ele><time>2026-04-20T13:14:45Z</time></trkpt><trkpt lat="43.58684698436703" lon="10.965136611133397"><ele>55.33333333333333</ele><time>2026-04-20T13:14:46Z</time></trkpt><trkpt lat="43.586822841525" lon="10.964931395413837"><ele>55.66666666666667</ele><time>2026-04-20T13:14:47Z</time></trkpt><trkpt lat="43.58678573773341" lon="10.964729424048826"><ele>56.0</ele><time>2026-04-20T13:14:48Z</time></trkpt><trkpt lat="43.586732424883195" lon="10.964527820775176"><ele>56.0</ele><time>2026-04-20T13:14:49Z</time></trkpt><trkpt lat="43.58666636328366" lon="10.96433517787449"><ele>56.0</ele><time>2026-04-20T13:14:50Z</time></trkpt><trkpt lat="43.58658887524132" lon="10.964143098172682"><ele>56.0</ele><time>2026-04-20T13:14:51Z</time></trkpt><trkpt lat="43.586498921037254" lon="10.963952406886905"><ele>56.333333333333336</ele><time>2026-04-20T13:14:52Z</time></trkpt><trkpt lat="43.5864019249688" lon="10.96377414270578"><ele>56.66666666666667</ele><time>2026-04-20T13:14:53Z</time></trkpt><trkpt lat="43.58630168796985" lon="10.963598093562181"><ele>57.0</ele><time>2026-04-20T13:14:54Z</time></trkpt><trkpt lat="43.586201226019455" lon="10.963417552647288"><ele>57.33333333333333</ele><time>2026-04-20T13:14:55Z</time></trkpt><trkpt lat="43.586095536949074" lon="10.963239052619585"><ele>57.666666666666664</ele><time>2026-04-20T13:14:56Z</time></trkpt><trkpt lat="43.585989670426784" lon="10.96305465067002"><ele>58.0</ele><time>2026-04-20T13:14:57Z</time></trkpt><trkpt lat="43.585885050600275" lon="10.962871804678255"><ele>58.0</ele><time>2026-04-20T13:14:58Z</time></trkpt><trkpt lat="43.585775822395384" lon="10.962688083356271"><ele>58.0</ele><time>2026-04-20T13:14:59Z</time></trkpt><trkpt lat="43.585668095823735" lon="10.962505347129403"><ele>58.0</ele><time>2026-04-20T13:15:00Z</time></trkpt><trkpt lat="43.58556205022754" lon="10.962318908291612"><ele>58.33333333333333</ele><time>2026-04-20T13:15:01Z</time></trkpt><trkpt lat="43.58544912303231" lon="10.962138485986477"><ele>58.66666666666667</ele><time>2026-04-20T13:15:02Z</time></trkpt><trkpt lat="43.58533160849269" lon="10.961965121889213"><ele>59.0</ele><time>2026-04-20T13:15:03Z</time></trkpt><trkpt lat="43.585201681771395" lon="10.961791041258628"><ele>59.333333333333336</ele><time>2026-04-20T13:15:04Z</time></trkpt><trkpt lat="43.58506804140608" lon="10.961631071111155"><ele>59.66666666666667</ele><time>2026-04-20T13:15:05Z</time></trkpt><trkpt lat="43.584925665368594" lon="10.961478576937195"><ele>60.0</ele><time>2026-04-20T13:15:06Z</time></trkpt><trkpt lat="43.58477607846216" lon="10.961331592723091"><ele>60.0</ele><time>2026-04-20T13:15:07Z</time></trkpt><trkpt lat="43.58462133286338" lon="10.961194455811683"><ele>60.0</ele><time>2026-04-20T13:15:08Z</time></trkpt><trkpt lat="43.58446110677149" lon="10.961062132829767"><ele>60.0</ele><time>2026-04-20T13:15:09Z</time></trkpt><trkpt lat="43.58430326832986" lon="10.96092762218802"><ele>61.0</ele><time>2026-04-20T13:15:10Z</time></trkpt><trkpt lat="43.584155045920824" lon="10.96080043816839"><ele>62.0</ele><time>2026-04-20T13:15:11Z</time></trkpt><trkpt lat="43.58400520151466" lon="10.960669630696415"><ele>63.0</ele><time>2026-04-20T13:15:12Z</time></trkpt><trkpt lat="43.58386208557528" lon="10.960533937409423"><ele>63.0</ele><time>2026-04-20T13:15:13Z</time></trkpt><trkpt lat="43.583729336294404" lon="10.960388758401404"><ele>63.0</ele><time>2026-04-20T13:15:14Z</time></trkpt><trkpt lat="43.58360505083769" lon="10.960222507569464"><ele>63.0</ele><time>2026-04-20T13:15:15Z</time></trkpt><trkpt lat="43.583484855038634" lon="10.960040725521354"><ele>62.33333333333333</ele><time>2026-04-20T13:15:16Z</time></trkpt><trkpt lat="43.583376642702774" lon="10.95984822261984"><ele>61.666666666666664</ele><time>2026-04-20T13:15:17Z</time></trkpt><trkpt lat="43.58328207553682" lon="10.959637847324586"><ele>61.0</ele><time>2026-04-20T13:15:18Z</time></trkpt><trkpt lat="43.58319794402495" lon="10.959416420368898"><ele>61.33333333333333</ele><time>2026-04-20T13:15:19Z</time></trkpt><trkpt lat="43.583123119016726" lon="10.959186971109254"><ele>61.66666666666667</ele><time>2026-04-20T13:15:20Z</time></trkpt><trkpt lat="43.58305493481168" lon="10.958951472441777"><ele>62.0</ele><time>2026-04-20T13:15:21Z</time></trkpt><trkpt lat="43.58298741723998" lon="10.958715844730765"><ele>62.0</ele><time>2026-04-20T13:15:22Z</time></trkpt><trkpt lat="43.582919939512536" lon="10.958475552041254"><ele>62.0</ele><time>2026-04-20T13:15:23Z</time></trkpt><trkpt lat="43.58285373247979" lon="10.958234245487272"><ele>62.0</ele><time>2026-04-20T13:15:24Z</time></trkpt><trkpt lat="43.58278492783647" lon="10.957994458195063"><ele>62.0</ele><time>2026-04-20T13:15:25Z</time></trkpt><trkpt lat="43.58271744733127" lon="10.957755674458367"><ele>62.0</ele><time>2026-04-20T13:15:26Z</time></trkpt><trkpt lat="43.582646543239626" lon="10.95751501133588"><ele>62.0</ele><time>2026-04-20T13:15:27Z</time></trkpt><trkpt lat="43.582577743843835" lon="10.957273157603348"><ele>62.66666666666667</ele><time>2026-04-20T13:15:28Z</time></trkpt><trkpt lat="43.58250801599002" lon="10.957031078103524"><ele>63.33333333333333</ele><time>2026-04-20T13:15:29Z</time></trkpt><trkpt lat="43.582441183670085" lon="10.956787207787727"><ele>64.0</ele><time>2026-04-20T13:15:30Z</time></trkpt><trkpt lat="43.58237299405798" lon="10.956544180785862"><ele>64.0</ele><time>2026-04-20T13:15:31Z</time></trkpt><trkpt lat="43.58230957644323" lon="10.956314029225423"><ele>64.0</ele><time>2026-04-20T13:15:32Z</time></trkpt><trkpt lat="43.58225004843152" lon="10.956089539308147"><ele>64.0</ele><time>2026-04-20T13:15:33Z</time></trkpt><trkpt lat="43.58218411965705" lon="10.955870101459688"><ele>64.0</ele><time>2026-04-20T13:15:34Z</time></trkpt><trkpt lat="43.58212100324888" lon="10.955652063659208"><ele>64.0</ele><time>2026-04-20T13:15:35Z</time></trkpt><trkpt lat="43.582056545223494" lon="10.955437814182462"><ele>64.0</ele><time>2026-04-20T13:15:36Z</time></trkpt><trkpt lat="43.58199377443093" lon="10.955225012869192"><ele>64.0</ele><time>2026-04-20T13:15:37Z</time></trkpt><trkpt lat="43.581933084850704" lon="10.95501279433916"><ele>64.0</ele><time>2026-04-20T13:15:38Z</time></trkpt><trkpt lat="43.58186702574257" lon="10.954800351611363"><ele>64.0</ele><time>2026-04-20T13:15:39Z</time></trkpt><trkpt lat="43.58179514643589" lon="10.954596269739987"><ele>64.0</ele><time>2026-04-20T13:15:40Z</time></trkpt><trkpt lat="43.58170824050863" lon="10.954404556715152"><ele>64.0</ele><time>2026-04-20T13:15:41Z</time></trkpt><trkpt lat="43.58160626266854" lon="10.954222174098414"><ele>64.0</ele><time>2026-04-20T13:15:42Z</time></trkpt><trkpt lat="43.58148627608008" lon="10.954057421167633"><ele>64.66666666666666</ele><time>2026-04-20T13:15:43Z</time></trkpt><trkpt lat="43.58135306284076" lon="10.95391039116128"><ele>65.33333333333333</ele><time>2026-04-20T13:15:44Z</time></trkpt><trkpt lat="43.58121094645703" lon="10.95378799956272"><ele>66.0</ele><time>2026-04-20T13:15:45Z</time></trkpt><trkpt lat="43.58105982706129" lon="10.953673480253808"><ele>67.0</ele><time>2026-04-20T13:15:46Z</time></trkpt><trkpt lat="43.58090915529599" lon="10.953569473057403"><ele>68.0</ele><time>2026-04-20T13:15:47Z</time></trkpt><trkpt lat="43.5807532089571" lon="10.953465351393138"><ele>69.0</ele><time>2026-04-20T13:15:48Z</time></trkpt><trkpt lat="43.58059899850607" lon="10.953359239313057"><ele>69.0</ele><time>2026-04-20T13:15:49Z</time></trkpt><trkpt lat="43.58045423227099" lon="10.953254244589413"><ele>69.0</ele><time>2026-04-20T13:15:50Z</time></trkpt><trkpt lat="43.58031702681439" lon="10.953129727708662"><ele>69.0</ele><time>2026-04-20T13:15:51Z</time></trkpt><trkpt lat="43.5801904816081" lon="10.95298867045215"><ele>70.33333333333333</ele><time>2026-04-20T13:15:52Z</time></trkpt><trkpt lat="43.580078326239665" lon="10.9528375565342"><ele>71.66666666666666</ele><time>2026-04-20T13:15:53Z</time></trkpt><trkpt lat="43.579978594062574" lon="10.952671762490535"><ele>73.0</ele><time>2026-04-20T13:15:54Z</time></trkpt><trkpt lat="43.57989193538853" lon="10.952501074220814"><ele>74.5</ele><time>2026-04-20T13:15:55Z</time></trkpt><trkpt lat="43.57981033286982" lon="10.952326694215364"><ele>76.0</ele><time>2026-04-20T13:15:56Z</time></trkpt><trkpt lat="43.57973614360319" lon="10.952171742718496"><ele>77.5</ele><time>2026-04-20T13:15:57Z</time></trkpt><trkpt lat="43.57966931413972" lon="10.952023361020272"><ele>79.0</ele><time>2026-04-20T13:15:58Z</time></trkpt><trkpt lat="43.579597189946604" lon="10.951871201659213"><ele>79.0</ele><time>2026-04-20T13:15:59Z</time></trkpt><trkpt lat="43.57952121265061" lon="10.951715933730991"><ele>79.0</ele><time>2026-04-20T13:16:00Z</time></trkpt><trkpt lat="43.57944686317981" lon="10.951562111708766"><ele>79.0</ele><time>2026-04-20T13:16:01Z</time></trkpt><trkpt lat="43.57936564023999" lon="10.951412140198768"><ele>79.0</ele><time>2026-04-20T13:16:02Z</time></trkpt><trkpt lat="43.579269841077675" lon="10.951274661122076"><ele>82.0</ele><time>2026-04-20T13:16:03Z</time></trkpt><trkpt lat="43.579163917701905" lon="10.951146296863786"><ele>85.0</ele><time>2026-04-20T13:16:04Z</time></trkpt><trkpt lat="43.579053229990656" lon="10.951027793601138"><ele>88.0</ele><time>2026-04-20T13:16:05Z</time></trkpt><trkpt lat="43.578928149117175" lon="10.95092051194333"><ele>91.0</ele><time>2026-04-20T13:16:06Z</time></trkpt><trkpt lat="43.57879186880268" lon="10.950819963286715"><ele>88.66666666666666</ele><time>2026-04-20T13:16:07Z</time></trkpt><trkpt lat="43.57864699092559" lon="10.95072832637062"><ele>86.33333333333333</ele><time>2026-04-20T13:16:08Z</time></trkpt><trkpt lat="43.57850722843401" lon="10.950633905611927"><ele>84.0</ele><time>2026-04-20T13:16:09Z</time></trkpt><trkpt lat="43.57837470979802" lon="10.950537065233773"><ele>84.0</ele><time>2026-04-20T13:16:10Z</time></trkpt><trkpt lat="43.578239120651574" lon="10.950442915680037"><ele>84.0</ele><time>2026-04-20T13:16:11Z</time></trkpt><trkpt lat="43.57811270943472" lon="10.950347045398255"><ele>84.0</ele><time>2026-04-20T13:16:12Z</time></trkpt><trkpt lat="43.5779862509619" lon="10.950230042606265"><ele>84.0</ele><time>2026-04-20T13:16:13Z</time></trkpt><trkpt lat="43.57787114127162" lon="10.950105345989353"><ele>83.0</ele><time>2026-04-20T13:16:14Z</time></trkpt><trkpt lat="43.577763120057476" lon="10.949961050000917"><ele>82.0</ele><time>2026-04-20T13:16:15Z</time></trkpt><trkpt lat="43.577668880909286" lon="10.949800863703967"><ele>81.0</ele><time>2026-04-20T13:16:16Z</time></trkpt><trkpt lat="43.57758571362645" lon="10.94963307913137"><ele>80.0</ele><time>2026-04-20T13:16:17Z</time></trkpt><trkpt lat="43.577513878754544" lon="10.949458764164453"><ele>80.0</ele><time>2026-04-20T13:16:18Z</time></trkpt><trkpt lat="43.5774532077732" lon="10.949279604593327"><ele>80.0</ele><time>2026-04-20T13:16:19Z</time></trkpt><trkpt lat="43.577393625361324" lon="10.949101622622283"><ele>80.0</ele><time>2026-04-20T13:16:20Z</time></trkpt><trkpt lat="43.57733731621519" lon="10.948926342298412"><ele>80.0</ele><time>2026-04-20T13:16:21Z</time></trkpt><trkpt lat="43.57728126750983" lon="10.948750400042556"><ele>81.0</ele><time>2026-04-20T13:16:22Z</time></trkpt><trkpt lat="43.57723231156805" lon="10.94857646458377"><ele>82.0</ele><time>2026-04-20T13:16:23Z</time></trkpt><trkpt lat="43.57717545802473" lon="10.948399855554387"><ele>83.0</ele><time>2026-04-20T13:16:24Z</time></trkpt><trkpt lat="43.57711849592383" lon="10.94822530586805"><ele>84.0</ele><time>2026-04-20T13:16:25Z</time></trkpt><trkpt lat="43.577056321123344" lon="10.948047486816353"><ele>83.33333333333333</ele><time>2026-04-20T13:16:26Z</time></trkpt><trkpt lat="43.576982536967066" lon="10.947870057346798"><ele>82.66666666666666</ele><time>2026-04-20T13:16:27Z</time></trkpt><trkpt lat="43.57689824288438" lon="10.947699554296127"><ele>82.0</ele><time>2026-04-20T13:16:28Z</time></trkpt><trkpt lat="43.57680290924618" lon="10.947531204216965"><ele>82.0</ele><time>2026-04-20T13:16:29Z</time></trkpt><trkpt lat="43.57669607101641" lon="10.947373690518587"><ele>82.0</ele><time>2026-04-20T13:16:30Z</time></trkpt><trkpt lat="43.576582166072555" lon="10.947219984991275"><ele>82.0</ele><time>2026-04-20T13:16:31Z</time></trkpt><trkpt lat="43.57646819626033" lon="10.947069750713787"><ele>82.0</ele><time>2026-04-20T13:16:32Z</time></trkpt><trkpt lat="43.57635336507736" lon="10.946920668227348"><ele>82.0</ele><time>2026-04-20T13:16:33Z</time></trkpt><trkpt lat="43.5762369794376" lon="10.946768780582241"><ele>82.0</ele><time>2026-04-20T13:16:34Z</time></trkpt><trkpt lat="43.57611997770228" lon="10.946618464711149"><ele>83.0</ele><time>2026-04-20T13:16:35Z</time></trkpt><trkpt lat="43.57599689229195" lon="10.946459440965015"><ele>84.0</ele><time>2026-04-20T13:16:36Z</time></trkpt><trkpt lat="43.57587650394651" lon="10.94629660527605"><ele>85.0</ele><time>2026-04-20T13:16:37Z</time></trkpt><trkpt lat="43.57575853349015" lon="10.946140975919889"><ele>85.0</ele><time>2026-04-20T13:16:38Z</time></trkpt><trkpt lat="43.57564110735237" lon="10.945979836856168"><ele>85.0</ele><time>2026-04-20T13:16:39Z</time></trkpt><trkpt lat="43.57552135204661" lon="10.945816902262441"><ele>85.0</ele><time>2026-04-20T13:16:40Z</time></trkpt><trkpt lat="43.57540195617933" lon="10.945655269349308"><ele>85.0</ele><time>2026-04-20T13:16:41Z</time></trkpt><trkpt lat="43.57527964158454" lon="10.94550297912863"><ele>85.0</ele><time>2026-04-20T13:16:42Z</time></trkpt><trkpt lat="43.5751593094894" lon="10.945351416925932"><ele>85.0</ele><time>2026-04-20T13:16:43Z</time></trkpt><trkpt lat="43.575033200667164" lon="10.945191587661071"><ele>86.66666666666666</ele><time>2026-04-20T13:16:44Z</time></trkpt><trkpt lat="43.57490275339365" lon="10.945043446661435"><ele>88.33333333333333</ele><time>2026-04-20T13:16:45Z</time></trkpt><trkpt lat="43.57475970661273" lon="10.944911365690126"><ele>90.0</ele><time>2026-04-20T13:16:46Z</time></trkpt><trkpt lat="43.57461956389677" lon="10.944791884359974"><ele>89.0</ele><time>2026-04-20T13:16:47Z</time></trkpt><trkpt lat="43.57448863124997" lon="10.944679194229469"><ele>88.0</ele><time>2026-04-20T13:16:48Z</time></trkpt><trkpt lat="43.5743627122861" lon="10.94455832006417"><ele>87.0</ele><time>2026-04-20T13:16:49Z</time></trkpt><trkpt lat="43.574251876998424" lon="10.944412768767974"><ele>87.0</ele><time>2026-04-20T13:16:50Z</time></trkpt><trkpt lat="43.57415408538138" lon="10.944251172757708"><ele>87.0</ele><time>2026-04-20T13:16:51Z</time></trkpt><trkpt lat="43.57406858640841" lon="10.944075123402186"><ele>87.0</ele><time>2026-04-20T13:16:52Z</time></trkpt><trkpt lat="43.573996250034774" lon="10.943887416541195"><ele>88.66666666666667</ele><time>2026-04-20T13:16:53Z</time></trkpt><trkpt lat="43.57393416644091" lon="10.943692831644306"><ele>90.33333333333334</ele><time>2026-04-20T13:16:54Z</time></trkpt><trkpt lat="43.57389247574086" lon="10.943491484331153"><ele>92.0</ele><time>2026-04-20T13:16:55Z</time></trkpt><trkpt lat="43.573857048013934" lon="10.943291603802543"><ele>92.75</ele><time>2026-04-20T13:16:56Z</time></trkpt><trkpt lat="43.57382089805922" lon="10.943095507346294"><ele>93.5</ele><time>2026-04-20T13:16:57Z</time></trkpt><trkpt lat="43.57377816988523" lon="10.942918480060035"><ele>94.25</ele><time>2026-04-20T13:16:58Z</time></trkpt><trkpt lat="43.57372945623546" lon="10.942759619971037"><ele>95.0</ele><time>2026-04-20T13:16:59Z</time></trkpt><trkpt lat="43.57366682097336" lon="10.942602493233007"><ele>97.25</ele><time>2026-04-20T13:17:00Z</time></trkpt><trkpt lat="43.57359391103523" lon="10.942453232278007"><ele>99.5</ele><time>2026-04-20T13:17:01Z</time></trkpt><trkpt lat="43.5735119449005" lon="10.942314586879366"><ele>101.75</ele><time>2026-04-20T13:17:02Z</time></trkpt><trkpt lat="43.57341463691739" lon="10.942189299431067"><ele>104.0</ele><time>2026-04-20T13:17:03Z</time></trkpt><trkpt lat="43.57330835492089" lon="10.942078110138874"><ele>104.0</ele><time>2026-04-20T13:17:04Z</time></trkpt><trkpt lat="43.573194162539764" lon="10.94197377549587"><ele>104.0</ele><time>2026-04-20T13:17:05Z</time></trkpt><trkpt lat="43.57309174374133" lon="10.9418776506544"><ele>104.0</ele><time>2026-04-20T13:17:06Z</time></trkpt><trkpt lat="43.57298701748138" lon="10.941778065773388"><ele>104.0</ele><time>2026-04-20T13:17:07Z</time></trkpt><trkpt lat="43.57288025066759" lon="10.941675001607834"><ele>106.5</ele><time>2026-04-20T13:17:08Z</time></trkpt><trkpt lat="43.57277082420163" lon="10.941572974338074"><ele>109.0</ele><time>2026-04-20T13:17:09Z</time></trkpt><trkpt lat="43.57266321571939" lon="10.941473064880729"><ele>111.5</ele><time>2026-04-20T13:17:10Z</time></trkpt><trkpt lat="43.57255620642824" lon="10.941364152910658"><ele>114.0</ele><time>2026-04-20T13:17:11Z</time></trkpt><trkpt lat="43.57244960053043" lon="10.941263315811971"><ele>114.0</ele><time>2026-04-20T13:17:12Z</time></trkpt><trkpt lat="43.572346039902584" lon="10.941165252998946"><ele>114.0</ele><time>2026-04-20T13:17:13Z</time></trkpt><trkpt lat="43.57223887576575" lon="10.94106661051991"><ele>114.0</ele><time>2026-04-20T13:17:14Z</time></trkpt><trkpt lat="43.5721322933523" lon="10.940966110280185"><ele>114.0</ele><time>2026-04-20T13:17:15Z</time></trkpt><trkpt lat="43.57202944302818" lon="10.94086312667901"><ele>116.0</ele><time>2026-04-20T13:17:16Z</time></trkpt><trkpt lat="43.57192393487121" lon="10.940758571934554"><ele>118.0</ele><time>2026-04-20T13:17:17Z</time></trkpt><trkpt lat="43.57182384160583" lon="10.94065292851032"><ele>120.0</ele><time>2026-04-20T13:17:18Z</time></trkpt><trkpt lat="43.5717321508142" lon="10.940533688404438"><ele>122.0</ele><time>2026-04-20T13:17:19Z</time></trkpt><trkpt lat="43.571651687964334" lon="10.940401883686231"><ele>122.0</ele><time>2026-04-20T13:17:20Z</time></trkpt><trkpt lat="43.57158146045976" lon="10.940264868559263"><ele>122.0</ele><time>2026-04-20T13:17:21Z</time></trkpt><trkpt lat="43.57151734786572" lon="10.940118404395347"><ele>122.0</ele><time>2026-04-20T13:17:22Z</time></trkpt><trkpt lat="43.57146416961965" lon="10.939971112126369"><ele>122.0</ele><time>2026-04-20T13:17:23Z</time></trkpt><trkpt lat="43.57142504313523" lon="10.939837696695326"><ele>125.25</ele><time>2026-04-20T13:17:24Z</time></trkpt><trkpt lat="43.57138475144727" lon="10.939692552157672"><ele>128.5</ele><time>2026-04-20T13:17:25Z</time></trkpt><trkpt lat="43.57134723224956" lon="10.939543425738455"><ele>131.75</ele><time>2026-04-20T13:17:26Z</time></trkpt><trkpt lat="43.571296226145606" lon="10.939403052249824"><ele>135.0</ele><time>2026-04-20T13:17:27Z</time></trkpt><trkpt lat="43.57123407132796" lon="10.939265232282816"><ele>135.25</ele><time>2026-04-20T13:17:28Z</time></trkpt><trkpt lat="43.571164167571155" lon="10.939129548258025"><ele>135.5</ele><time>2026-04-20T13:17:29Z</time></trkpt><trkpt lat="43.57108150761302" lon="10.938992881666106"><ele>135.75</ele><time>2026-04-20T13:17:30Z</time></trkpt><trkpt lat="43.57098716837519" lon="10.938861654637789"><ele>136.0</ele><time>2026-04-20T13:17:31Z</time></trkpt><trkpt lat="43.57089010282309" lon="10.938741990387575"><ele>136.0</ele><time>2026-04-20T13:17:32Z</time></trkpt><trkpt lat="43.57077888121348" lon="10.938635542482835"><ele>136.0</ele><time>2026-04-20T13:17:33Z</time></trkpt><trkpt lat="43.57065694701894" lon="10.938540020900028"><ele>136.0</ele><time>2026-04-20T13:17:34Z</time></trkpt><trkpt lat="43.57052233626559" lon="10.93845105730826"><ele>136.0</ele><time>2026-04-20T13:17:35Z</time></trkpt><trkpt lat="43.57038285381188" lon="10.938359123676488"><ele>137.33333333333334</ele><time>2026-04-20T13:17:36Z</time></trkpt><trkpt lat="43.57024500410812" lon="10.938270923265486"><ele>138.66666666666666</ele><time>2026-04-20T13:17:37Z</time></trkpt><trkpt lat="43.570102273675985" lon="10.938175972561737"><ele>140.0</ele><time>2026-04-20T13:17:38Z</time></trkpt><trkpt lat="43.56996529860698" lon="10.938087380160065"><ele>140.0</ele><time>2026-04-20T13:17:39Z</time></trkpt><trkpt lat="43.56983147273979" lon="10.937994112223732"><ele>140.0</ele><time>2026-04-20T13:17:40Z</time></trkpt><trkpt lat="43.569695717525974" lon="10.937898774324399"><ele>140.0</ele><time>2026-04-20T13:17:41Z</time></trkpt><trkpt lat="43.56956352299869" lon="10.937816350960144"><ele>140.0</ele><time>2026-04-20T13:17:42Z</time></trkpt><trkpt lat="43.56942784535498" lon="10.93772575740954"><ele>141.75</ele><time>2026-04-20T13:17:43Z</time></trkpt><trkpt lat="43.569300329628206" lon="10.937644814732218"><ele>143.5</ele><time>2026-04-20T13:17:44Z</time></trkpt><trkpt lat="43.56917136335935" lon="10.93756642781267"><ele>145.25</ele><time>2026-04-20T13:17:45Z</time></trkpt><trkpt lat="43.56904276427697" lon="10.937508406563953"><ele>147.0</ele><time>2026-04-20T13:17:46Z</time></trkpt><trkpt lat="43.56890944535456" lon="10.937475180095017"><ele>148.75</ele><time>2026-04-20T13:17:47Z</time></trkpt><trkpt lat="43.568776681953324" lon="10.93746088907462"><ele>150.5</ele><time>2026-04-20T13:17:48Z</time></trkpt><trkpt lat="43.56864654850655" lon="10.937475654869063"><ele>152.25</ele><time>2026-04-20T13:17:49Z</time></trkpt><trkpt lat="43.56851599468032" lon="10.937509000187225"><ele>154.0</ele><time>2026-04-20T13:17:50Z</time></trkpt><trkpt lat="43.56839030743476" lon="10.937568957336051"><ele>156.5</ele><time>2026-04-20T13:17:51Z</time></trkpt><trkpt lat="43.568274582840715" lon="10.9376511610623"><ele>159.0</ele><time>2026-04-20T13:17:52Z</time></trkpt><trkpt lat="43.56816576539966" lon="10.937748097258748"><ele>161.5</ele><time>2026-04-20T13:17:53Z</time></trkpt><trkpt lat="43.56807192654744" lon="10.937851481647137"><ele>164.0</ele><time>2026-04-20T13:17:54Z</time></trkpt><trkpt lat="43.56798118941669" lon="10.937946742812866"><ele>164.0</ele><time>2026-04-20T13:17:55Z</time></trkpt><trkpt lat="43.56788372827962" lon="10.938050377464682"><ele>164.0</ele><time>2026-04-20T13:17:56Z</time></trkpt><trkpt lat="43.567786798039705" lon="10.938146938607733"><ele>164.0</ele><time>2026-04-20T13:17:57Z</time></trkpt><trkpt lat="43.56768250553238" lon="10.938242784246585"><ele>164.0</ele><time>2026-04-20T13:17:58Z</time></trkpt><trkpt lat="43.56757298737617" lon="10.93833183801159"><ele>166.25</ele><time>2026-04-20T13:17:59Z</time></trkpt><trkpt lat="43.567458273467096" lon="10.938402680183826"><ele>168.5</ele><time>2026-04-20T13:18:00Z</time></trkpt><trkpt lat="43.567338414396644" lon="10.938462636949708"><ele>170.75</ele><time>2026-04-20T13:18:01Z</time></trkpt><trkpt lat="43.567215497850384" lon="10.93851219426581"><ele>173.0</ele><time>2026-04-20T13:18:02Z</time></trkpt><trkpt lat="43.56708920247326" lon="10.938549014885684"><ele>175.5</ele><time>2026-04-20T13:18:03Z</time></trkpt><trkpt lat="43.56696385850113" lon="10.938571293428124"><ele>178.0</ele><time>2026-04-20T13:18:04Z</time></trkpt><trkpt lat="43.56683593280233" lon="10.938577398346823"><ele>180.5</ele><time>2026-04-20T13:18:05Z</time></trkpt><trkpt lat="43.56670890363428" lon="10.938580347417178"><ele>183.0</ele><time>2026-04-20T13:18:06Z</time></trkpt><trkpt lat="43.566576623725254" lon="10.938585356728018"><ele>183.0</ele><time>2026-04-20T13:18:07Z</time></trkpt><trkpt lat="43.56644780544205" lon="10.93859946107732"><ele>183.0</ele><time>2026-04-20T13:18:08Z</time></trkpt><trkpt lat="43.566313089210354" lon="10.938607338512698"><ele>183.0</ele><time>2026-04-20T13:18:09Z</time></trkpt><trkpt lat="43.56618610403618" lon="10.938642738446102"><ele>183.0</ele><time>2026-04-20T13:18:10Z</time></trkpt><trkpt lat="43.566056871713556" lon="10.938688717699607"><ele>184.0</ele><time>2026-04-20T13:18:11Z</time></trkpt><trkpt lat="43.56593498331762" lon="10.938748776975523"><ele>185.0</ele><time>2026-04-20T13:18:12Z</time></trkpt><trkpt lat="43.56580928590138" lon="10.938816313501597"><ele>186.0</ele><time>2026-04-20T13:18:13Z</time></trkpt><trkpt lat="43.5656879478853" lon="10.938881892303117"><ele>187.0</ele><time>2026-04-20T13:18:14Z</time></trkpt><trkpt lat="43.565580843045424" lon="10.938935571381968"><ele>187.0</ele><time>2026-04-20T13:18:15Z</time></trkpt><trkpt lat="43.56548310756866" lon="10.938985892113037"><ele>187.0</ele><time>2026-04-20T13:18:16Z</time></trkpt><trkpt lat="43.56539335171025" lon="10.939026563698327"><ele>187.0</ele><time>2026-04-20T13:18:17Z</time></trkpt><trkpt lat="43.56529798124282" lon="10.939070783128882"><ele>187.0</ele><time>2026-04-20T13:18:18Z</time></trkpt><trkpt lat="43.56519272380274" lon="10.939110873669883"><ele>187.0</ele><time>2026-04-20T13:18:19Z</time></trkpt><trkpt lat="43.565082733457345" lon="10.939146361262818"><ele>187.75</ele><time>2026-04-20T13:18:20Z</time></trkpt><trkpt lat="43.56496786354844" lon="10.93918296407313"><ele>188.5</ele><time>2026-04-20T13:18:21Z</time></trkpt><trkpt lat="43.564849388758105" lon="10.939222775001884"><ele>189.25</ele><time>2026-04-20T13:18:22Z</time></trkpt><trkpt lat="43.56472636940841" lon="10.939261344517625"><ele>190.0</ele><time>2026-04-20T13:18:23Z</time></trkpt><trkpt lat="43.56459876137097" lon="10.939298404028706"><ele>189.25</ele><time>2026-04-20T13:18:24Z</time></trkpt><trkpt lat="43.56446778481668" lon="10.939338731655647"><ele>188.5</ele><time>2026-04-20T13:18:25Z</time></trkpt><trkpt lat="43.56433002376811" lon="10.939371305779634"><ele>187.75</ele><time>2026-04-20T13:18:26Z</time></trkpt><trkpt lat="43.56418960082424" lon="10.939396911978664"><ele>187.0</ele><time>2026-04-20T13:18:27Z</time></trkpt><trkpt lat="43.56404187206221" lon="10.939410016442444"><ele>187.0</ele><time>2026-04-20T13:18:28Z</time></trkpt><trkpt lat="43.56389031851992" lon="10.939417524698891"><ele>187.0</ele><time>2026-04-20T13:18:29Z</time></trkpt><trkpt lat="43.56373695105899" lon="10.939414515741515"><ele>187.0</ele><time>2026-04-20T13:18:30Z</time></trkpt><trkpt lat="43.5635791869831" lon="10.939399212633132"><ele>187.66666666666669</ele><time>2026-04-20T13:18:31Z</time></trkpt><trkpt lat="43.56342189948701" lon="10.939391296831737"><ele>188.33333333333334</ele><time>2026-04-20T13:18:32Z</time></trkpt><trkpt lat="43.56326080077855" lon="10.939382326136151"><ele>189.0</ele><time>2026-04-20T13:18:33Z</time></trkpt><trkpt lat="43.563100536473165" lon="10.93937511450075"><ele>189.0</ele><time>2026-04-20T13:18:34Z</time></trkpt><trkpt lat="43.56294212593929" lon="10.939370065464031"><ele>189.0</ele><time>2026-04-20T13:18:35Z</time></trkpt><trkpt lat="43.56278465099668" lon="10.939369728766422"><ele>189.0</ele><time>2026-04-20T13:18:36Z</time></trkpt><trkpt lat="43.56262888513507" lon="10.939379646931693"><ele>189.0</ele><time>2026-04-20T13:18:37Z</time></trkpt><trkpt lat="43.56247498408619" lon="10.939395629523695"><ele>189.0</ele><time>2026-04-20T13:18:38Z</time></trkpt><trkpt lat="43.56231548596447" lon="10.939408148671081"><ele>189.0</ele><time>2026-04-20T13:18:39Z</time></trkpt><trkpt lat="43.56215646438928" lon="10.939427996303378"><ele>191.66666666666669</ele><time>2026-04-20T13:18:40Z</time></trkpt><trkpt lat="43.56200085539631" lon="10.939447784985928"><ele>194.33333333333334</ele><time>2026-04-20T13:18:41Z</time></trkpt><trkpt lat="43.56184519670345" lon="10.939471392996793"><ele>197.0</ele><time>2026-04-20T13:18:42Z</time></trkpt><trkpt lat="43.56168747888016" lon="10.939486978802107"><ele>197.0</ele><time>2026-04-20T13:18:43Z</time></trkpt><trkpt lat="43.561528220142925" lon="10.939483146592677"><ele>197.0</ele><time>2026-04-20T13:18:44Z</time></trkpt><trkpt lat="43.56137092171546" lon="10.93945866266443"><ele>197.0</ele><time>2026-04-20T13:18:45Z</time></trkpt><trkpt lat="43.56121716589707" lon="10.939417672597582"><ele>200.0</ele><time>2026-04-20T13:18:46Z</time></trkpt><trkpt lat="43.56106066024863" lon="10.939363587552918"><ele>203.0</ele><time>2026-04-20T13:18:47Z</time></trkpt><trkpt lat="43.56090796612558" lon="10.93929921289319"><ele>206.0</ele><time>2026-04-20T13:18:48Z</time></trkpt><trkpt lat="43.56075750629117" lon="10.939221254530764"><ele>208.33333333333334</ele><time>2026-04-20T13:18:49Z</time></trkpt><trkpt lat="43.560612202964315" lon="10.93914816416859"><ele>210.66666666666669</ele><time>2026-04-20T13:18:50Z</time></trkpt><trkpt lat="43.56046527080551" lon="10.939083679197832"><ele>213.0</ele><time>2026-04-20T13:18:51Z</time></trkpt><trkpt lat="43.560322242503624" lon="10.93902232339793"><ele>213.33333333333331</ele><time>2026-04-20T13:18:52Z</time></trkpt><trkpt lat="43.56017542158471" lon="10.938966691263524"><ele>213.66666666666666</ele><time>2026-04-20T13:18:53Z</time></trkpt><trkpt lat="43.56002845239135" lon="10.93891478718505"><ele>214.0</ele><time>2026-04-20T13:18:54Z</time></trkpt><trkpt lat="43.55987736474908" lon="10.938870020177546"><ele>214.0</ele><time>2026-04-20T13:18:55Z</time></trkpt><trkpt lat="43.559723634586895" lon="10.938837576301259"><ele>214.0</ele><time>2026-04-20T13:18:56Z</time></trkpt><trkpt lat="43.55956470789964" lon="10.938821053975301"><ele>214.0</ele><time>2026-04-20T13:18:57Z</time></trkpt><trkpt lat="43.55941027967945" lon="10.938818466412929"><ele>216.33333333333331</ele><time>2026-04-20T13:18:58Z</time></trkpt><trkpt lat="43.55925329493895" lon="10.938820350864573"><ele>218.66666666666669</ele><time>2026-04-20T13:18:59Z</time></trkpt><trkpt lat="43.55909607259019" lon="10.938829458343942"><ele>221.0</ele><time>2026-04-20T13:19:00Z</time></trkpt><trkpt lat="43.55893889158871" lon="10.938839438260064"><ele>221.0</ele><time>2026-04-20T13:19:01Z</time></trkpt><trkpt lat="43.558781848900466" lon="10.938847044570009"><ele>221.0</ele><time>2026-04-20T13:19:02Z</time></trkpt><trkpt lat="43.5586269436018" lon="10.938856640525131"><ele>221.0</ele><time>2026-04-20T13:19:03Z</time></trkpt><trkpt lat="43.55847176123007" lon="10.938864487621958"><ele>222.66666666666669</ele><time>2026-04-20T13:19:04Z</time></trkpt><trkpt lat="43.55831680533754" lon="10.938864689796562"><ele>224.33333333333331</ele><time>2026-04-20T13:19:05Z</time></trkpt><trkpt lat="43.55816201357631" lon="10.938866691349483"><ele>226.0</ele><time>2026-04-20T13:19:06Z</time></trkpt><trkpt lat="43.558004074446664" lon="10.938857950764866"><ele>226.66666666666666</ele><time>2026-04-20T13:19:07Z</time></trkpt><trkpt lat="43.55785082816122" lon="10.93882682208902"><ele>227.33333333333331</ele><time>2026-04-20T13:19:08Z</time></trkpt><trkpt lat="43.55769987071609" lon="10.938775824290094"><ele>228.0</ele><time>2026-04-20T13:19:09Z</time></trkpt><trkpt lat="43.557553661873236" lon="10.938698623558139"><ele>228.0</ele><time>2026-04-20T13:19:10Z</time></trkpt><trkpt lat="43.55741482551236" lon="10.93860307635953"><ele>228.0</ele><time>2026-04-20T13:19:11Z</time></trkpt><trkpt lat="43.5572838426164" lon="10.93849131753968"><ele>228.0</ele><time>2026-04-20T13:19:12Z</time></trkpt><trkpt lat="43.557161472341626" lon="10.938366013850596"><ele>228.66666666666669</ele><time>2026-04-20T13:19:13Z</time></trkpt><trkpt lat="43.557049899298754" lon="10.938218292554483"><ele>229.33333333333334</ele><time>2026-04-20T13:19:14Z</time></trkpt><trkpt lat="43.55694845692745" lon="10.938059894249086"><ele>230.0</ele><time>2026-04-20T13:19:15Z</time></trkpt><trkpt lat="43.55685644156904" lon="10.937886715093942"><ele>230.0</ele><time>2026-04-20T13:19:16Z</time></trkpt><trkpt lat="43.55677900758183" lon="10.937700618013437"><ele>230.0</ele><time>2026-04-20T13:19:17Z</time></trkpt><trkpt lat="43.55671603243008" lon="10.937504228080728"><ele>230.0</ele><time>2026-04-20T13:19:18Z</time></trkpt><trkpt lat="43.55666709696752" lon="10.937306004845382"><ele>230.33333333333334</ele><time>2026-04-20T13:19:19Z</time></trkpt><trkpt lat="43.55663078236992" lon="10.937094746458554"><ele>230.66666666666669</ele><time>2026-04-20T13:19:20Z</time></trkpt><trkpt lat="43.55660400662386" lon="10.936878686288182"><ele>231.0</ele><time>2026-04-20T13:19:21Z</time></trkpt><trkpt lat="43.55658846847849" lon="10.936660259654985"><ele>231.0</ele><time>2026-04-20T13:19:22Z</time></trkpt><trkpt lat="43.556570360407" lon="10.93645554359639"><ele>231.0</ele><time>2026-04-20T13:19:23Z</time></trkpt><trkpt lat="43.55654924482678" lon="10.936254326524473"><ele>231.0</ele><time>2026-04-20T13:19:24Z</time></trkpt><trkpt lat="43.55651648069053" lon="10.936054939580211"><ele>231.0</ele><time>2026-04-20T13:19:25Z</time></trkpt><trkpt lat="43.55646439105205" lon="10.935857160062154"><ele>231.66666666666669</ele><time>2026-04-20T13:19:26Z</time></trkpt><trkpt lat="43.55639524893827" lon="10.93566445418455"><ele>232.33333333333334</ele><time>2026-04-20T13:19:27Z</time></trkpt><trkpt lat="43.55631156649317" lon="10.93548726198517"><ele>233.0</ele><time>2026-04-20T13:19:28Z</time></trkpt><trkpt lat="43.55620955646115" lon="10.935329116034449"><ele>235.33333333333334</ele><time>2026-04-20T13:19:29Z</time></trkpt><trkpt lat="43.556095013907836" lon="10.935194180460625"><ele>237.66666666666669</ele><time>2026-04-20T13:19:30Z</time></trkpt><trkpt lat="43.555965874725224" lon="10.93507775972196"><ele>240.0</ele><time>2026-04-20T13:19:31Z</time></trkpt><trkpt lat="43.55582500366643" lon="10.93498301379064"><ele>240.33333333333331</ele><time>2026-04-20T13:19:32Z</time></trkpt><trkpt lat="43.55567495799551" lon="10.934912162690813"><ele>240.66666666666666</ele><time>2026-04-20T13:19:33Z</time></trkpt><trkpt lat="43.555515774322906" lon="10.93485566937138"><ele>241.0</ele><time>2026-04-20T13:19:34Z</time></trkpt><trkpt lat="43.55534977134275" lon="10.934820206133839"><ele>240.33333333333331</ele><time>2026-04-20T13:19:35Z</time></trkpt><trkpt lat="43.5551858682305" lon="10.93480344767072"><ele>239.66666666666669</ele><time>2026-04-20T13:19:36Z</time></trkpt><trkpt lat="43.55501872698003" lon="10.93480231363948"><ele>239.0</ele><time>2026-04-20T13:19:37Z</time></trkpt><trkpt lat="43.55484984316422" lon="10.934798624900294"><ele>239.0</ele><time>2026-04-20T13:19:38Z</time></trkpt><trkpt lat="43.554674790412186" lon="10.93478890338482"><ele>239.0</ele><time>2026-04-20T13:19:39Z</time></trkpt><trkpt lat="43.55449996504953" lon="10.934782615750091"><ele>239.0</ele><time>2026-04-20T13:19:40Z</time></trkpt><trkpt lat="43.55432213527772" lon="10.934775041697637"><ele>239.0</ele><time>2026-04-20T13:19:41Z</time></trkpt><trkpt lat="43.554152200728154" lon="10.934771806111788"><ele>239.0</ele><time>2026-04-20T13:19:42Z</time></trkpt><trkpt lat="43.55398344019602" lon="10.934772468235593"><ele>239.0</ele><time>2026-04-20T13:19:43Z</time></trkpt><trkpt lat="43.55381878814159" lon="10.934765498032162"><ele>239.33333333333334</ele><time>2026-04-20T13:19:44Z</time></trkpt><trkpt lat="43.55365984554505" lon="10.934749698768517"><ele>239.66666666666669</ele><time>2026-04-20T13:19:45Z</time></trkpt><trkpt lat="43.553498573787394" lon="10.934711770655966"><ele>240.0</ele><time>2026-04-20T13:19:46Z</time></trkpt><trkpt lat="43.55334398210817" lon="10.93465706063642"><ele>240.0</ele><time>2026-04-20T13:19:47Z</time></trkpt><trkpt lat="43.55318961592945" lon="10.934584039183855"><ele>240.0</ele><time>2026-04-20T13:19:48Z</time></trkpt><trkpt lat="43.55303287427145" lon="10.934499012831612"><ele>240.0</ele><time>2026-04-20T13:19:49Z</time></trkpt><trkpt lat="43.55287976357946" lon="10.934391822035609"><ele>242.0</ele><time>2026-04-20T13:19:50Z</time></trkpt><trkpt lat="43.55273611499074" lon="10.934266489001512"><ele>244.0</ele><time>2026-04-20T13:19:51Z</time></trkpt><trkpt lat="43.552599726660596" lon="10.934124745335172"><ele>246.0</ele><time>2026-04-20T13:19:52Z</time></trkpt><trkpt lat="43.5524749070463" lon="10.933967511567742"><ele>246.66666666666669</ele><time>2026-04-20T13:19:53Z</time></trkpt><trkpt lat="43.552363561941114" lon="10.933808750893817"><ele>247.33333333333334</ele><time>2026-04-20T13:19:54Z</time></trkpt><trkpt lat="43.55227201436808" lon="10.9336531689451"><ele>248.0</ele><time>2026-04-20T13:19:55Z</time></trkpt><trkpt lat="43.552191725270504" lon="10.933481547743368"><ele>248.5</ele><time>2026-04-20T13:19:56Z</time></trkpt><trkpt lat="43.55212723990003" lon="10.933321622463664"><ele>249.0</ele><time>2026-04-20T13:19:57Z</time></trkpt><trkpt lat="43.55206944973309" lon="10.933157063638317"><ele>249.5</ele><time>2026-04-20T13:19:58Z</time></trkpt><trkpt lat="43.55201833072855" lon="10.932983261002404"><ele>250.0</ele><time>2026-04-20T13:19:59Z</time></trkpt><trkpt lat="43.55196857679005" lon="10.932806402549812"><ele>250.0</ele><time>2026-04-20T13:20:00Z</time></trkpt><trkpt lat="43.55191050711151" lon="10.932636499690929"><ele>250.0</ele><time>2026-04-20T13:20:01Z</time></trkpt><trkpt lat="43.55184305573373" lon="10.932466060985918"><ele>250.0</ele><time>2026-04-20T13:20:02Z</time></trkpt><trkpt lat="43.551765388831726" lon="10.93229945309983"><ele>250.0</ele><time>2026-04-20T13:20:03Z</time></trkpt><trkpt lat="43.551678768990286" lon="10.93214045408815"><ele>250.5</ele><time>2026-04-20T13:20:04Z</time></trkpt><trkpt lat="43.55158357436723" lon="10.931992925845918"><ele>251.0</ele><time>2026-04-20T13:20:05Z</time></trkpt><trkpt lat="43.55147786832412" lon="10.931856411361423"><ele>251.5</ele><time>2026-04-20T13:20:06Z</time></trkpt><trkpt lat="43.55136665972605" lon="10.931726862734429"><ele>252.0</ele><time>2026-04-20T13:20:07Z</time></trkpt><trkpt lat="43.551248185314186" lon="10.931613740109174"><ele>254.5</ele><time>2026-04-20T13:20:08Z</time></trkpt><trkpt lat="43.55112343270226" lon="10.931504649168925"><ele>257.0</ele><time>2026-04-20T13:20:09Z</time></trkpt><trkpt lat="43.550993255494376" lon="10.931407015123202"><ele>259.5</ele><time>2026-04-20T13:20:10Z</time></trkpt><trkpt lat="43.55085365486372" lon="10.931324159143891"><ele>262.0</ele><time>2026-04-20T13:20:11Z</time></trkpt><trkpt lat="43.55071829619183" lon="10.931250532670507"><ele>262.0</ele><time>2026-04-20T13:20:12Z</time></trkpt><trkpt lat="43.55058010673409" lon="10.931183249294167"><ele>262.0</ele><time>2026-04-20T13:20:13Z</time></trkpt><trkpt lat="43.550440309897404" lon="10.93111131958735"><ele>262.0</ele><time>2026-04-20T13:20:14Z</time></trkpt><trkpt lat="43.55029563791685" lon="10.931036804396008"><ele>262.0</ele><time>2026-04-20T13:20:15Z</time></trkpt><trkpt lat="43.550153352264786" lon="10.930954560327832"><ele>262.0</ele><time>2026-04-20T13:20:16Z</time></trkpt><trkpt lat="43.55001397738512" lon="10.93087290148664"><ele>262.0</ele><time>2026-04-20T13:20:17Z</time></trkpt><trkpt lat="43.54987255284677" lon="10.930791048763693"><ele>264.0</ele><time>2026-04-20T13:20:18Z</time></trkpt><trkpt lat="43.54973552727198" lon="10.930706223301556"><ele>266.0</ele><time>2026-04-20T13:20:19Z</time></trkpt><trkpt lat="43.549599338508735" lon="10.930611709508238"><ele>268.0</ele><time>2026-04-20T13:20:20Z</time></trkpt><trkpt lat="43.54946754716628" lon="10.930511430524463"><ele>268.3333333333333</ele><time>2026-04-20T13:20:21Z</time></trkpt><trkpt lat="43.54933873775022" lon="10.9304043299404"><ele>268.6666666666667</ele><time>2026-04-20T13:20:22Z</time></trkpt><trkpt lat="43.549216662920045" lon="10.930284778616883"><ele>269.0</ele><time>2026-04-20T13:20:23Z</time></trkpt><trkpt lat="43.54909411949435" lon="10.930154546784204"><ele>272.0</ele><time>2026-04-20T13:20:24Z</time></trkpt><trkpt lat="43.54897884917223" lon="10.93002328557864"><ele>275.0</ele><time>2026-04-20T13:20:25Z</time></trkpt><trkpt lat="43.548867000908714" lon="10.929883604716965"><ele>278.0</ele><time>2026-04-20T13:20:26Z</time></trkpt><trkpt lat="43.54876397469174" lon="10.929742291436222"><ele>281.0</ele><time>2026-04-20T13:20:27Z</time></trkpt><trkpt lat="43.548675740119705" lon="10.929611110811688"><ele>281.0</ele><time>2026-04-20T13:20:28Z</time></trkpt><trkpt lat="43.548595265917754" lon="10.929495607366118"><ele>281.0</ele><time>2026-04-20T13:20:29Z</time></trkpt><trkpt lat="43.548513933904864" lon="10.929397626289497"><ele>281.0</ele><time>2026-04-20T13:20:30Z</time></trkpt><trkpt lat="43.5484291095409" lon="10.92930315016947"><ele>281.0</ele><time>2026-04-20T13:20:31Z</time></trkpt><trkpt lat="43.54834097372056" lon="10.929216680774063"><ele>281.0</ele><time>2026-04-20T13:20:32Z</time></trkpt><trkpt lat="43.54824705605781" lon="10.92914144707794"><ele>283.40000000000003</ele><time>2026-04-20T13:20:33Z</time></trkpt><trkpt lat="43.54814850586468" lon="10.929069730842928"><ele>285.8</ele><time>2026-04-20T13:20:34Z</time></trkpt><trkpt lat="43.548059696247535" lon="10.929009380403723"><ele>288.20000000000005</ele><time>2026-04-20T13:20:35Z</time></trkpt><trkpt lat="43.54796536786127" lon="10.928955483961614"><ele>290.6</ele><time>2026-04-20T13:20:36Z</time></trkpt><trkpt lat="43.54786602752081" lon="10.928912421371628"><ele>293.0</ele><time>2026-04-20T13:20:37Z</time></trkpt><trkpt lat="43.54775842347745" lon="10.928875312739708"><ele>293.75</ele><time>2026-04-20T13:20:38Z</time></trkpt><trkpt lat="43.54764625034722" lon="10.92884592001616"><ele>294.5</ele><time>2026-04-20T13:20:39Z</time></trkpt><trkpt lat="43.54752895714946" lon="10.928830781476849"><ele>295.25</ele><time>2026-04-20T13:20:40Z</time></trkpt><trkpt lat="43.547406771857254" lon="10.928817311418214"><ele>296.0</ele><time>2026-04-20T13:20:41Z</time></trkpt><trkpt lat="43.54728149468397" lon="10.928809012152803"><ele>296.0</ele><time>2026-04-20T13:20:42Z</time></trkpt><trkpt lat="43.54715234595612" lon="10.928801925576858"><ele>296.0</ele><time>2026-04-20T13:20:43Z</time></trkpt><trkpt lat="43.54701982842292" lon="10.928799376239745"><ele>296.0</ele><time>2026-04-20T13:20:44Z</time></trkpt><trkpt lat="43.54688632938572" lon="10.928795650202096"><ele>296.0</ele><time>2026-04-20T13:20:45Z</time></trkpt><trkpt lat="43.54674684702422" lon="10.928790426486577"><ele>297.5</ele><time>2026-04-20T13:20:46Z</time></trkpt><trkpt lat="43.546610970436895" lon="10.928783460026708"><ele>299.0</ele><time>2026-04-20T13:20:47Z</time></trkpt><trkpt lat="43.5464766354756" lon="10.928781578098262"><ele>300.5</ele><time>2026-04-20T13:20:48Z</time></trkpt><trkpt lat="43.54633934432824" lon="10.928777239319372"><ele>302.0</ele><time>2026-04-20T13:20:49Z</time></trkpt><trkpt lat="43.54620260364997" lon="10.928773120344715"><ele>304.0</ele><time>2026-04-20T13:20:50Z</time></trkpt><trkpt lat="43.54606502998275" lon="10.928771402031042"><ele>306.0</ele><time>2026-04-20T13:20:51Z</time></trkpt><trkpt lat="43.545927748759595" lon="10.928763827351672"><ele>308.0</ele><time>2026-04-20T13:20:52Z</time></trkpt><trkpt lat="43.54579022013256" lon="10.92875878022876"><ele>310.0</ele><time>2026-04-20T13:20:53Z</time></trkpt><trkpt lat="43.54565315850035" lon="10.928751990248527"><ele>310.0</ele><time>2026-04-20T13:20:54Z</time></trkpt><trkpt lat="43.545513586761004" lon="10.928744407418353"><ele>310.0</ele><time>2026-04-20T13:20:55Z</time></trkpt><trkpt lat="43.545373637369714" lon="10.928733169988284"><ele>310.0</ele><time>2026-04-20T13:20:56Z</time></trkpt><trkpt lat="43.54523455557033" lon="10.928715409642253"><ele>310.0</ele><time>2026-04-20T13:20:57Z</time></trkpt><trkpt lat="43.54509672379025" lon="10.92868361181516"><ele>311.0</ele><time>2026-04-20T13:20:58Z</time></trkpt><trkpt lat="43.54495096150363" lon="10.92863784820353"><ele>312.0</ele><time>2026-04-20T13:20:59Z</time></trkpt><trkpt lat="43.544810715785204" lon="10.928587974583817"><ele>313.0</ele><time>2026-04-20T13:21:00Z</time></trkpt><trkpt lat="43.54467738740949" lon="10.928530912314832"><ele>314.0</ele><time>2026-04-20T13:21:01Z</time></trkpt><trkpt lat="43.54454725591921" lon="10.928471293185552"><ele>315.5</ele><time>2026-04-20T13:21:02Z</time></trkpt><trkpt lat="43.54441421996014" lon="10.92840725400682"><ele>317.0</ele><time>2026-04-20T13:21:03Z</time></trkpt><trkpt lat="43.544283774821615" lon="10.928334015375839"><ele>318.5</ele><time>2026-04-20T13:21:04Z</time></trkpt><trkpt lat="43.544155570775025" lon="10.92825999180597"><ele>320.0</ele><time>2026-04-20T13:21:05Z</time></trkpt><trkpt lat="43.54402884067431" lon="10.928183220600054"><ele>322.25</ele><time>2026-04-20T13:21:06Z</time></trkpt><trkpt lat="43.54390491969817" lon="10.928103091803179"><ele>324.5</ele><time>2026-04-20T13:21:07Z</time></trkpt><trkpt lat="43.5437825956391" lon="10.928022787887"><ele>326.75</ele><time>2026-04-20T13:21:08Z</time></trkpt><trkpt lat="43.54366049023292" lon="10.92794122589096"><ele>329.0</ele><time>2026-04-20T13:21:09Z</time></trkpt><trkpt lat="43.54353785845591" lon="10.927858640253028"><ele>330.5</ele><time>2026-04-20T13:21:10Z</time></trkpt><trkpt lat="43.543414585298855" lon="10.927777412641325"><ele>332.0</ele><time>2026-04-20T13:21:11Z</time></trkpt><trkpt lat="43.54329161868317" lon="10.92769984626795"><ele>333.5</ele><time>2026-04-20T13:21:12Z</time></trkpt><trkpt lat="43.54317116850422" lon="10.927622698728596"><ele>335.0</ele><time>2026-04-20T13:21:13Z</time></trkpt><trkpt lat="43.54304859529535" lon="10.927537963193553"><ele>335.75</ele><time>2026-04-20T13:21:14Z</time></trkpt><trkpt lat="43.542926756382975" lon="10.927449984215583"><ele>336.5</ele><time>2026-04-20T13:21:15Z</time></trkpt><trkpt lat="43.54280441725982" lon="10.927378973770914"><ele>337.25</ele><time>2026-04-20T13:21:16Z</time></trkpt><trkpt lat="43.542680212867964" lon="10.927321703009872"><ele>338.0</ele><time>2026-04-20T13:21:17Z</time></trkpt><trkpt lat="43.54255101917206" lon="10.927282248966169"><ele>339.0</ele><time>2026-04-20T13:21:18Z</time></trkpt><trkpt lat="43.54241669313817" lon="10.927265674876745"><ele>340.0</ele><time>2026-04-20T13:21:19Z</time></trkpt><trkpt lat="43.54227338960863" lon="10.927262327411297"><ele>341.0</ele><time>2026-04-20T13:21:20Z</time></trkpt><trkpt lat="43.54212831933569" lon="10.927258297098561"><ele>342.0</ele><time>2026-04-20T13:21:21Z</time></trkpt><trkpt lat="43.54198090064643" lon="10.92724958012331"><ele>344.3333333333333</ele><time>2026-04-20T13:21:22Z</time></trkpt><trkpt lat="43.54183357820772" lon="10.927248921874202"><ele>346.66666666666663</ele><time>2026-04-20T13:21:23Z</time></trkpt><trkpt lat="43.5416786446857" lon="10.927243800938385"><ele>349.0</ele><time>2026-04-20T13:21:24Z</time></trkpt><trkpt lat="43.541526453932235" lon="10.92723911047394"><ele>349.0</ele><time>2026-04-20T13:21:25Z</time></trkpt><trkpt lat="43.541372054297035" lon="10.927235765887632"><ele>349.0</ele><time>2026-04-20T13:21:26Z</time></trkpt><trkpt lat="43.54121920014506" lon="10.927231503472786"><ele>349.0</ele><time>2026-04-20T13:21:27Z</time></trkpt><trkpt lat="43.54107171800891" lon="10.92722862107586"><ele>351.0</ele><time>2026-04-20T13:21:28Z</time></trkpt><trkpt lat="43.540936032978195" lon="10.927229063544988"><ele>353.0</ele><time>2026-04-20T13:21:29Z</time></trkpt><trkpt lat="43.54080493206342" lon="10.927217948108066"><ele>355.0</ele><time>2026-04-20T13:21:30Z</time></trkpt><trkpt lat="43.54067538849233" lon="10.927177884447206"><ele>357.0</ele><time>2026-04-20T13:21:31Z</time></trkpt><trkpt lat="43.540536482124374" lon="10.927107024815152"><ele>357.0</ele><time>2026-04-20T13:21:32Z</time></trkpt><trkpt lat="43.5404393544319" lon="10.92701672641865"><ele>357.0</ele><time>2026-04-20T13:21:33Z</time></trkpt><trkpt lat="43.54033002064104" lon="10.926925890211772"><ele>357.0</ele><time>2026-04-20T13:21:34Z</time></trkpt><trkpt lat="43.5402331341965" lon="10.926855180638968"><ele>357.0</ele><time>2026-04-20T13:21:35Z</time></trkpt><trkpt lat="43.54012861192541" lon="10.926781800301065"><ele>359.0</ele><time>2026-04-20T13:21:36Z</time></trkpt><trkpt lat="43.540028997982425" lon="10.92670806849473"><ele>361.0</ele><time>2026-04-20T13:21:37Z</time></trkpt><trkpt lat="43.539928694340105" lon="10.926630785479196"><ele>363.0</ele><time>2026-04-20T13:21:38Z</time></trkpt><trkpt lat="43.539825787818586" lon="10.926554490692387"><ele>365.0</ele><time>2026-04-20T13:21:39Z</time></trkpt><trkpt lat="43.53972197567443" lon="10.926482387682881"><ele>365.0</ele><time>2026-04-20T13:21:40Z</time></trkpt><trkpt lat="43.53961765505865" lon="10.926410561930602"><ele>365.0</ele><time>2026-04-20T13:21:41Z</time></trkpt><trkpt lat="43.539511613880656" lon="10.926336302191833"><ele>365.0</ele><time>2026-04-20T13:21:42Z</time></trkpt><trkpt lat="43.53940402680252" lon="10.926258542342099"><ele>365.0</ele><time>2026-04-20T13:21:43Z</time></trkpt><trkpt lat="43.539300017138984" lon="10.92617683208953"><ele>367.5</ele><time>2026-04-20T13:21:44Z</time></trkpt><trkpt lat="43.539193887435" lon="10.92609828984523"><ele>370.0</ele><time>2026-04-20T13:21:45Z</time></trkpt><trkpt lat="43.53907903262497" lon="10.926018483026157"><ele>372.5</ele><time>2026-04-20T13:21:46Z</time></trkpt><trkpt lat="43.53896097537308" lon="10.925945462144451"><ele>375.0</ele><time>2026-04-20T13:21:47Z</time></trkpt><trkpt lat="43.53883930236698" lon="10.925874441703213"><ele>375.0</ele><time>2026-04-20T13:21:48Z</time></trkpt><trkpt lat="43.53871822851127" lon="10.925809213600212"><ele>375.0</ele><time>2026-04-20T13:21:49Z</time></trkpt><trkpt lat="43.538597540216585" lon="10.92573095243467"><ele>375.0</ele><time>2026-04-20T13:21:50Z</time></trkpt><trkpt lat="43.53847930103265" lon="10.92564438581614"><ele>375.0</ele><time>2026-04-20T13:21:51Z</time></trkpt><trkpt lat="43.53835765245113" lon="10.92554805078915"><ele>376.75</ele><time>2026-04-20T13:21:52Z</time></trkpt><trkpt lat="43.538240630333654" lon="10.925448993934722"><ele>378.5</ele><time>2026-04-20T13:21:53Z</time></trkpt><trkpt lat="43.53812516987861" lon="10.9253434356899"><ele>380.25</ele><time>2026-04-20T13:21:54Z</time></trkpt><trkpt lat="43.53800683853561" lon="10.925241350770746"><ele>382.0</ele><time>2026-04-20T13:21:55Z</time></trkpt><trkpt lat="43.537887101924554" lon="10.925135843231029"><ele>384.25</ele><time>2026-04-20T13:21:56Z</time></trkpt><trkpt lat="43.5377714929769" lon="10.925033779216339"><ele>386.5</ele><time>2026-04-20T13:21:57Z</time></trkpt><trkpt lat="43.537652482749216" lon="10.924935153801526"><ele>388.75</ele><time>2026-04-20T13:21:58Z</time></trkpt><trkpt lat="43.537533965122385" lon="10.924834369538956"><ele>391.0</ele><time>2026-04-20T13:21:59Z</time></trkpt><trkpt lat="43.53741639015393" lon="10.924734591707368"><ele>391.0</ele><time>2026-04-20T13:22:00Z</time></trkpt><trkpt lat="43.53730266140252" lon="10.92463438689156"><ele>391.0</ele><time>2026-04-20T13:22:01Z</time></trkpt><trkpt lat="43.5371897046404" lon="10.92453618650052"><ele>391.0</ele><time>2026-04-20T13:22:02Z</time></trkpt><trkpt lat="43.537073071089154" lon="10.924433312930516"><ele>391.0</ele><time>2026-04-20T13:22:03Z</time></trkpt><trkpt lat="43.53695639398316" lon="10.924334430497268"><ele>392.0</ele><time>2026-04-20T13:22:04Z</time></trkpt><trkpt lat="43.53683941281609" lon="10.924237977759995"><ele>393.0</ele><time>2026-04-20T13:22:05Z</time></trkpt><trkpt lat="43.536717295990904" lon="10.924141945338087"><ele>394.0</ele><time>2026-04-20T13:22:06Z</time></trkpt><trkpt lat="43.53659254471411" lon="10.92405654103722"><ele>395.0</ele><time>2026-04-20T13:22:07Z</time></trkpt><trkpt lat="43.53646369356883" lon="10.923982897741967"><ele>395.75</ele><time>2026-04-20T13:22:08Z</time></trkpt><trkpt lat="43.5363319931133" lon="10.923925133603303"><ele>396.5</ele><time>2026-04-20T13:22:09Z</time></trkpt><trkpt lat="43.536194559767445" lon="10.923874154833891"><ele>397.25</ele><time>2026-04-20T13:22:10Z</time></trkpt><trkpt lat="43.536057440269275" lon="10.923836218900224"><ele>398.0</ele><time>2026-04-20T13:22:11Z</time></trkpt><trkpt lat="43.53592088392455" lon="10.923817965125048"><ele>400.25</ele><time>2026-04-20T13:22:12Z</time></trkpt><trkpt lat="43.53578201673096" lon="10.92382078046334"><ele>402.5</ele><time>2026-04-20T13:22:13Z</time></trkpt><trkpt lat="43.53564117138606" lon="10.923828215585475"><ele>404.75</ele><time>2026-04-20T13:22:14Z</time></trkpt><trkpt lat="43.535502774983456" lon="10.923843831904579"><ele>407.0</ele><time>2026-04-20T13:22:15Z</time></trkpt><trkpt lat="43.535363707604944" lon="10.923858239654834"><ele>408.5</ele><time>2026-04-20T13:22:16Z</time></trkpt><trkpt lat="43.53522483675395" lon="10.923872118338998"><ele>410.0</ele><time>2026-04-20T13:22:17Z</time></trkpt><trkpt lat="43.535089400024624" lon="10.923885846586954"><ele>411.5</ele><time>2026-04-20T13:22:18Z</time></trkpt><trkpt lat="43.53495262487879" lon="10.9239001645655"><ele>413.0</ele><time>2026-04-20T13:22:19Z</time></trkpt><trkpt lat="43.53481787055811" lon="10.923913856619329"><ele>413.0</ele><time>2026-04-20T13:22:20Z</time></trkpt><trkpt lat="43.53468386502979" lon="10.923929412274457"><ele>413.0</ele><time>2026-04-20T13:22:21Z</time></trkpt><trkpt lat="43.53454734902382" lon="10.923940822553893"><ele>413.0</ele><time>2026-04-20T13:22:22Z</time></trkpt><trkpt lat="43.534411049468055" lon="10.923951342832268"><ele>413.0</ele><time>2026-04-20T13:22:23Z</time></trkpt><trkpt lat="43.53427418540925" lon="10.923960223584679"><ele>414.75</ele><time>2026-04-20T13:22:24Z</time></trkpt><trkpt lat="43.53413817948889" lon="10.923973785336536"><ele>416.5</ele><time>2026-04-20T13:22:25Z</time></trkpt><trkpt lat="43.53400189816584" lon="10.923990718472934"><ele>418.25</ele><time>2026-04-20T13:22:26Z</time></trkpt><trkpt lat="43.53386568805256" lon="10.924009475617215"><ele>420.0</ele><time>2026-04-20T13:22:27Z</time></trkpt><trkpt lat="43.53372570230487" lon="10.924017810994286"><ele>422.25</ele><time>2026-04-20T13:22:28Z</time></trkpt><trkpt lat="43.533587040224376" lon="10.924031971998737"><ele>424.5</ele><time>2026-04-20T13:22:29Z</time></trkpt><trkpt lat="43.533448291477114" lon="10.924051532201565"><ele>426.75</ele><time>2026-04-20T13:22:30Z</time></trkpt><trkpt lat="43.533307409696285" lon="10.924066845454126"><ele>429.0</ele><time>2026-04-20T13:22:31Z</time></trkpt><trkpt lat="43.53316856386" lon="10.924079343294462"><ele>429.0</ele><time>2026-04-20T13:22:32Z</time></trkpt><trkpt lat="43.53303012362766" lon="10.924086087683751"><ele>429.0</ele><time>2026-04-20T13:22:33Z</time></trkpt><trkpt lat="43.53289254462235" lon="10.924071528338082"><ele>429.0</ele><time>2026-04-20T13:22:34Z</time></trkpt><trkpt lat="43.53276582233251" lon="10.924035425597658"><ele>429.0</ele><time>2026-04-20T13:22:35Z</time></trkpt><trkpt lat="43.53265127309592" lon="10.923989582376027"><ele>430.79999999999995</ele><time>2026-04-20T13:22:36Z</time></trkpt><trkpt lat="43.53254363127604" lon="10.923948908103528"><ele>432.59999999999997</ele><time>2026-04-20T13:22:37Z</time></trkpt><trkpt lat="43.53244171080728" lon="10.923921544843472"><ele>434.4</ele><time>2026-04-20T13:22:38Z</time></trkpt><trkpt lat="43.53233745999761" lon="10.92392200411158"><ele>436.2</ele><time>2026-04-20T13:22:39Z</time></trkpt><trkpt lat="43.532230537745455" lon="10.92395464243363"><ele>438.0</ele><time>2026-04-20T13:22:40Z</time></trkpt><trkpt lat="43.53212566276916" lon="10.92402607952852"><ele>438.2</ele><time>2026-04-20T13:22:41Z</time></trkpt><trkpt lat="43.53203282336708" lon="10.924127692627373"><ele>438.4</ele><time>2026-04-20T13:22:42Z</time></trkpt><trkpt lat="43.53194970462895" lon="10.92423499548426"><ele>438.59999999999997</ele><time>2026-04-20T13:22:43Z</time></trkpt><trkpt lat="43.53185911206548" lon="10.924320035021813"><ele>438.79999999999995</ele><time>2026-04-20T13:22:44Z</time></trkpt><trkpt lat="43.53175932484041" lon="10.924365478498363"><ele>439.0</ele><time>2026-04-20T13:22:45Z</time></trkpt><trkpt lat="43.53166234669388" lon="10.924376077576378"><ele>439.0</ele><time>2026-04-20T13:22:46Z</time></trkpt><trkpt lat="43.53156755620763" lon="10.924336858048623"><ele>439.0</ele><time>2026-04-20T13:22:47Z</time></trkpt><trkpt lat="43.531480387987735" lon="10.92428402562295"><ele>439.0</ele><time>2026-04-20T13:22:48Z</time></trkpt><trkpt lat="43.53138897721479" lon="10.924236931921422"><ele>439.0</ele><time>2026-04-20T13:22:49Z</time></trkpt><trkpt lat="43.531288454520045" lon="10.9242198245632"><ele>439.0</ele><time>2026-04-20T13:22:50Z</time></trkpt><trkpt lat="43.53115611430155" lon="10.924241509730539"><ele>442.0</ele><time>2026-04-20T13:22:51Z</time></trkpt><trkpt lat="43.531026301526616" lon="10.924280779081595"><ele>445.0</ele><time>2026-04-20T13:22:52Z</time></trkpt><trkpt lat="43.5309613592032" lon="10.924360650878528"><ele>448.0</ele><time>2026-04-20T13:22:53Z</time></trkpt><trkpt lat="43.53086831125387" lon="10.924437571096455"><ele>451.0</ele><time>2026-04-20T13:22:54Z</time></trkpt><trkpt lat="43.53080036538961" lon="10.924530908116344"><ele>454.0</ele><time>2026-04-20T13:22:55Z</time></trkpt><trkpt lat="43.530747780478684" lon="10.924648747576631"><ele>454.0</ele><time>2026-04-20T13:22:56Z</time></trkpt><trkpt lat="43.53073273723723" lon="10.924802271461928"><ele>454.0</ele><time>2026-04-20T13:22:57Z</time></trkpt><trkpt lat="43.53074832018272" lon="10.924947850720367"><ele>454.0</ele><time>2026-04-20T13:22:58Z</time></trkpt><trkpt lat="43.53077607710316" lon="10.925095040214613"><ele>454.0</ele><time>2026-04-20T13:22:59Z</time></trkpt><trkpt lat="43.53081323083454" lon="10.92522906192133"><ele>454.0</ele><time>2026-04-20T13:23:00Z</time></trkpt><trkpt lat="43.53082763379739" lon="10.925376514080805"><ele>454.25</ele><time>2026-04-20T13:23:01Z</time></trkpt><trkpt lat="43.53080327167612" lon="10.925520240344317"><ele>454.5</ele><time>2026-04-20T13:23:02Z</time></trkpt><trkpt lat="43.530793857560916" lon="10.925684245684618"><ele>454.75</ele><time>2026-04-20T13:23:03Z</time></trkpt><trkpt lat="43.53074931982471" lon="10.925833773637116"><ele>455.0</ele><time>2026-04-20T13:23:04Z</time></trkpt><trkpt lat="43.530727158626526" lon="10.925987498742186"><ele>454.5</ele><time>2026-04-20T13:23:05Z</time></trkpt><trkpt lat="43.53071065912849" lon="10.926154111261754"><ele>454.0</ele><time>2026-04-20T13:23:06Z</time></trkpt><trkpt lat="43.530709064144766" lon="10.92635138779259"><ele>453.5</ele><time>2026-04-20T13:23:07Z</time></trkpt><trkpt lat="43.53071695821475" lon="10.926557860129549"><ele>453.0</ele><time>2026-04-20T13:23:08Z</time></trkpt><trkpt lat="43.53071852633455" lon="10.926776246802923"><ele>451.5</ele><time>2026-04-20T13:23:09Z</time></trkpt><trkpt lat="43.530718912622525" lon="10.926984364805628"><ele>450.0</ele><time>2026-04-20T13:23:10Z</time></trkpt><trkpt lat="43.53071559022263" lon="10.927187044894318"><ele>448.5</ele><time>2026-04-20T13:23:11Z</time></trkpt><trkpt lat="43.53069598790878" lon="10.92738960121741"><ele>447.0</ele><time>2026-04-20T13:23:12Z</time></trkpt><trkpt lat="43.53065359028027" lon="10.927587515474604"><ele>445.66666666666663</ele><time>2026-04-20T13:23:13Z</time></trkpt><trkpt lat="43.53058050841202" lon="10.927761015613429"><ele>444.3333333333333</ele><time>2026-04-20T13:23:14Z</time></trkpt><trkpt lat="43.53051088630314" lon="10.927949755943485"><ele>443.0</ele><time>2026-04-20T13:23:15Z</time></trkpt><trkpt lat="43.530439559054294" lon="10.928140496510318"><ele>441.75</ele><time>2026-04-20T13:23:16Z</time></trkpt><trkpt lat="43.530374372341406" lon="10.928323244423641"><ele>440.5</ele><time>2026-04-20T13:23:17Z</time></trkpt><trkpt lat="43.530334999878356" lon="10.928487469860656"><ele>439.25</ele><time>2026-04-20T13:23:18Z</time></trkpt><trkpt lat="43.53028145049146" lon="10.928625038771427"><ele>438.0</ele><time>2026-04-20T13:23:19Z</time></trkpt><trkpt lat="43.530214066830695" lon="10.92873426086522"><ele>438.0</ele><time>2026-04-20T13:23:20Z</time></trkpt><trkpt lat="43.53014925640855" lon="10.928839807277148"><ele>437.99999999999994</ele><time>2026-04-20T13:23:21Z</time></trkpt><trkpt lat="43.53008216177977" lon="10.928932352413886"><ele>437.99999999999994</ele><time>2026-04-20T13:23:22Z</time></trkpt><trkpt lat="43.52998584344742" lon="10.928969396517171"><ele>438.0</ele><time>2026-04-20T13:23:23Z</time></trkpt><trkpt lat="43.52990052872924" lon="10.929044326326041"><ele>438.0</ele><time>2026-04-20T13:23:24Z</time></trkpt><trkpt lat="43.529822252463156" lon="10.929089545517375"><ele>438.0</ele><time>2026-04-20T13:23:25Z</time></trkpt><trkpt lat="43.529733534718716" lon="10.929172222795236"><ele>437.99999999999994</ele><time>2026-04-20T13:23:27Z</time></trkpt><trkpt lat="43.529692197851375" lon="10.929304502307438"><ele>437.99999999999994</ele><time>2026-04-20T13:23:31Z</time></trkpt><trkpt lat="43.52972172039084" lon="10.929390878522609"><ele>438.0</ele><time>2026-04-20T13:23:32Z</time></trkpt><trkpt lat="43.5297772817975" lon="10.929476111163291"><ele>438.0</ele><time>2026-04-20T13:23:33Z</time></trkpt><trkpt lat="43.52983428735354" lon="10.929579247933484"><ele>436.75</ele><time>2026-04-20T13:23:34Z</time></trkpt><trkpt lat="43.52988616805688" lon="10.929714323431071"><ele>435.5</ele><time>2026-04-20T13:23:35Z</time></trkpt><trkpt lat="43.529937961152484" lon="10.929872975139801"><ele>434.25</ele><time>2026-04-20T13:23:36Z</time></trkpt><trkpt lat="43.530000851064834" lon="10.930047709458561"><ele>433.0</ele><time>2026-04-20T13:23:37Z</time></trkpt><trkpt lat="43.530065041551694" lon="10.930225793334294"><ele>431.75</ele><time>2026-04-20T13:23:38Z</time></trkpt><trkpt lat="43.5301195372656" lon="10.93042906223705"><ele>430.5</ele><time>2026-04-20T13:23:39Z</time></trkpt><trkpt lat="43.530183474618255" lon="10.930613687464307"><ele>429.25</ele><time>2026-04-20T13:23:40Z</time></trkpt><trkpt lat="43.53025274831951" lon="10.9307616666688"><ele>428.0</ele><time>2026-04-20T13:23:41Z</time></trkpt><trkpt lat="43.53028758398254" lon="10.930873071453492"><ele>428.00000000000006</ele><time>2026-04-20T13:23:42Z</time></trkpt><trkpt lat="43.53031756691474" lon="10.930964822075543"><ele>428.0</ele><time>2026-04-20T13:23:43Z</time></trkpt><trkpt lat="43.530343688780185" lon="10.931051838454922"><ele>428.0</ele><time>2026-04-20T13:23:44Z</time></trkpt><trkpt lat="43.53037634344736" lon="10.931158096659422"><ele>428.0</ele><time>2026-04-20T13:23:46Z</time></trkpt><trkpt lat="43.53040420212325" lon="10.93123966063687"><ele>428.0</ele><time>2026-04-20T13:23:51Z</time></trkpt><trkpt lat="43.53037019898679" lon="10.93114354287621"><ele>428.00000000000006</ele><time>2026-04-20T13:23:54Z</time></trkpt><trkpt lat="43.53034236861309" lon="10.931059907689878"><ele>428.0</ele><time>2026-04-20T13:23:55Z</time></trkpt><trkpt lat="43.53027666873843" lon="10.930815625882643"><ele>428.0</ele><time>2026-04-20T13:23:56Z</time></trkpt><trkpt lat="43.53023830459683" lon="10.930627262587779"><ele>428.0</ele><time>2026-04-20T13:23:59Z</time></trkpt><trkpt lat="43.53019295588076" lon="10.9304958883051"><ele>428.0</ele><time>2026-04-20T13:24:00Z</time></trkpt><trkpt lat="43.53014731682387" lon="10.930359122191318"><ele>428.0</ele><time>2026-04-20T13:24:01Z</time></trkpt><trkpt lat="43.530100492934146" lon="10.930219045058506"><ele>428.0</ele><time>2026-04-20T13:24:02Z</time></trkpt><trkpt lat="43.53005039360884" lon="10.930070856599132"><ele>428.0</ele><time>2026-04-20T13:24:03Z</time></trkpt><trkpt lat="43.52994764228221" lon="10.929766466981807"><ele>428.0</ele><time>2026-04-20T13:24:05Z</time></trkpt><trkpt lat="43.52989298503269" lon="10.92961469566921"><ele>429.25</ele><time>2026-04-20T13:24:06Z</time></trkpt><trkpt lat="43.529836979710424" lon="10.92948078974562"><ele>430.5</ele><time>2026-04-20T13:24:07Z</time></trkpt><trkpt lat="43.529768212904216" lon="10.929363141692587"><ele>431.75</ele><time>2026-04-20T13:24:08Z</time></trkpt><trkpt lat="43.52968356441069" lon="10.92925162434353"><ele>433.0</ele><time>2026-04-20T13:24:09Z</time></trkpt><trkpt lat="43.52958602044339" lon="10.929160162822031"><ele>433.0</ele><time>2026-04-20T13:24:10Z</time></trkpt><trkpt lat="43.52948277262443" lon="10.929070131290437"><ele>433.0</ele><time>2026-04-20T13:24:11Z</time></trkpt><trkpt lat="43.5293694493728" lon="10.928983766554872"><ele>433.0</ele><time>2026-04-20T13:24:12Z</time></trkpt><trkpt lat="43.529253867448475" lon="10.928890281094427"><ele>433.0</ele><time>2026-04-20T13:24:13Z</time></trkpt><trkpt lat="43.52913621409336" lon="10.928790480935957"><ele>433.0</ele><time>2026-04-20T13:24:14Z</time></trkpt><trkpt lat="43.52901034587142" lon="10.928702283639447"><ele>433.0</ele><time>2026-04-20T13:24:15Z</time></trkpt><trkpt lat="43.52887473911232" lon="10.928626080189742"><ele>433.0</ele><time>2026-04-20T13:24:16Z</time></trkpt><trkpt lat="43.52873286005799" lon="10.928558145958368"><ele>433.0</ele><time>2026-04-20T13:24:17Z</time></trkpt><trkpt lat="43.52858243068001" lon="10.928518223132452"><ele>432.0</ele><time>2026-04-20T13:24:18Z</time></trkpt><trkpt lat="43.528425365507424" lon="10.928506126288669"><ele>431.0</ele><time>2026-04-20T13:24:19Z</time></trkpt><trkpt lat="43.52826111886318" lon="10.928509134591671"><ele>430.0</ele><time>2026-04-20T13:24:20Z</time></trkpt><trkpt lat="43.528094719555114" lon="10.928511474712455"><ele>430.0</ele><time>2026-04-20T13:24:21Z</time></trkpt><trkpt lat="43.5279248952777" lon="10.92850777314292"><ele>430.0</ele><time>2026-04-20T13:24:22Z</time></trkpt><trkpt lat="43.527760194507195" lon="10.92851065887868"><ele>430.0</ele><time>2026-04-20T13:24:23Z</time></trkpt><trkpt lat="43.52758857504401" lon="10.928518760298813"><ele>429.6666666666667</ele><time>2026-04-20T13:24:24Z</time></trkpt><trkpt lat="43.52741015828343" lon="10.928527601018807"><ele>429.33333333333337</ele><time>2026-04-20T13:24:25Z</time></trkpt><trkpt lat="43.52722542933116" lon="10.928544727924667"><ele>429.0</ele><time>2026-04-20T13:24:26Z</time></trkpt><trkpt lat="43.5270435982054" lon="10.92856662858844"><ele>428.66666666666663</ele><time>2026-04-20T13:24:27Z</time></trkpt><trkpt lat="43.52685700726607" lon="10.928592452666843"><ele>428.3333333333333</ele><time>2026-04-20T13:24:28Z</time></trkpt><trkpt lat="43.52667133939867" lon="10.928620697840989"><ele>428.0</ele><time>2026-04-20T13:24:29Z</time></trkpt><trkpt lat="43.52648461288354" lon="10.928640652624257"><ele>428.0</ele><time>2026-04-20T13:24:30Z</time></trkpt><trkpt lat="43.526295523692944" lon="10.928667370711706"><ele>428.0</ele><time>2026-04-20T13:24:31Z</time></trkpt><trkpt lat="43.52610530987403" lon="10.928693529891946"><ele>428.0</ele><time>2026-04-20T13:24:32Z</time></trkpt><trkpt lat="43.52591686116584" lon="10.928726266581812"><ele>427.3333333333333</ele><time>2026-04-20T13:24:33Z</time></trkpt><trkpt lat="43.52572249677686" lon="10.928752295264799"><ele>426.66666666666663</ele><time>2026-04-20T13:24:34Z</time></trkpt><trkpt lat="43.525534656050446" lon="10.928780909704653"><ele>426.0</ele><time>2026-04-20T13:24:35Z</time></trkpt><trkpt lat="43.52534357223422" lon="10.928809308222913"><ele>424.0</ele><time>2026-04-20T13:24:36Z</time></trkpt><trkpt lat="43.52515761227002" lon="10.928833067273237"><ele>422.0</ele><time>2026-04-20T13:24:37Z</time></trkpt><trkpt lat="43.52497197906745" lon="10.928838246799252"><ele>420.0</ele><time>2026-04-20T13:24:38Z</time></trkpt><trkpt lat="43.524786863141976" lon="10.928820561818092"><ele>420.0</ele><time>2026-04-20T13:24:39Z</time></trkpt><trkpt lat="43.524602658526426" lon="10.928791135791133"><ele>420.0</ele><time>2026-04-20T13:24:40Z</time></trkpt><trkpt lat="43.52442304483403" lon="10.928754564828212"><ele>420.0</ele><time>2026-04-20T13:24:41Z</time></trkpt><trkpt lat="43.52424268747961" lon="10.928717191149023"><ele>420.33333333333337</ele><time>2026-04-20T13:24:42Z</time></trkpt><trkpt lat="43.52406642396117" lon="10.928681780081233"><ele>420.6666666666667</ele><time>2026-04-20T13:24:43Z</time></trkpt><trkpt lat="43.52389264131246" lon="10.928648277316247"><ele>421.0</ele><time>2026-04-20T13:24:44Z</time></trkpt><trkpt lat="43.52372629913917" lon="10.928594874658256"><ele>421.6666666666667</ele><time>2026-04-20T13:24:45Z</time></trkpt><trkpt lat="43.52357015543431" lon="10.928569641107853"><ele>422.33333333333337</ele><time>2026-04-20T13:24:46Z</time></trkpt><trkpt lat="43.523412595082206" lon="10.928528317311978"><ele>423.0</ele><time>2026-04-20T13:24:47Z</time></trkpt><trkpt lat="43.52325863799256" lon="10.928469187733134"><ele>426.0</ele><time>2026-04-20T13:24:48Z</time></trkpt><trkpt lat="43.52310648815043" lon="10.928391586104707"><ele>429.0</ele><time>2026-04-20T13:24:49Z</time></trkpt><trkpt lat="43.522957164331366" lon="10.928305601646478"><ele>432.0</ele><time>2026-04-20T13:24:50Z</time></trkpt><trkpt lat="43.522804166518036" lon="10.92822211881729"><ele>432.0</ele><time>2026-04-20T13:24:51Z</time></trkpt><trkpt lat="43.52264852188971" lon="10.928137184834089"><ele>432.0</ele><time>2026-04-20T13:24:52Z</time></trkpt><trkpt lat="43.522496439213505" lon="10.928056763650858"><ele>432.0</ele><time>2026-04-20T13:24:53Z</time></trkpt><trkpt lat="43.52235416054359" lon="10.927979914314664"><ele>432.0</ele><time>2026-04-20T13:24:54Z</time></trkpt><trkpt lat="43.52222364238826" lon="10.927912883967597"><ele>432.0</ele><time>2026-04-20T13:24:55Z</time></trkpt><trkpt lat="43.52209509353511" lon="10.927853887935843"><ele>432.0</ele><time>2026-04-20T13:24:56Z</time></trkpt><trkpt lat="43.521964088169426" lon="10.927808955443068"><ele>432.0</ele><time>2026-04-20T13:24:57Z</time></trkpt><trkpt lat="43.521832343461554" lon="10.927769142986179"><ele>431.5</ele><time>2026-04-20T13:24:58Z</time></trkpt><trkpt lat="43.52170072426815" lon="10.927732309733704"><ele>431.0</ele><time>2026-04-20T13:24:59Z</time></trkpt><trkpt lat="43.52157665066599" lon="10.927700238836902"><ele>430.5</ele><time>2026-04-20T13:25:00Z</time></trkpt><trkpt lat="43.52146341019603" lon="10.927670947290254"><ele>430.0</ele><time>2026-04-20T13:25:01Z</time></trkpt><trkpt lat="43.52135341603991" lon="10.92763854749513"><ele>430.0</ele><time>2026-04-20T13:25:02Z</time></trkpt><trkpt lat="43.521242752797676" lon="10.927607893903266"><ele>430.0</ele><time>2026-04-20T13:25:03Z</time></trkpt><trkpt lat="43.521130640655095" lon="10.927576993982477"><ele>430.0</ele><time>2026-04-20T13:25:04Z</time></trkpt><trkpt lat="43.52101932366239" lon="10.927547590675362"><ele>430.0</ele><time>2026-04-20T13:25:05Z</time></trkpt><trkpt lat="43.52090840431184" lon="10.927517313478036"><ele>431.75</ele><time>2026-04-20T13:25:06Z</time></trkpt><trkpt lat="43.52079454597693" lon="10.927484928829692"><ele>433.5</ele><time>2026-04-20T13:25:07Z</time></trkpt><trkpt lat="43.52067947407395" lon="10.927454758432294"><ele>435.25</ele><time>2026-04-20T13:25:08Z</time></trkpt><trkpt lat="43.520566931206226" lon="10.9274264938397"><ele>437.0</ele><time>2026-04-20T13:25:09Z</time></trkpt><trkpt lat="43.5204508833116" lon="10.927393253550282"><ele>437.75</ele><time>2026-04-20T13:25:10Z</time></trkpt><trkpt lat="43.52033214728835" lon="10.92736077206833"><ele>438.5</ele><time>2026-04-20T13:25:11Z</time></trkpt><trkpt lat="43.52021538171253" lon="10.927331088650812"><ele>439.25</ele><time>2026-04-20T13:25:12Z</time></trkpt><trkpt lat="43.52009538615409" lon="10.927299214511498"><ele>440.0</ele><time>2026-04-20T13:25:13Z</time></trkpt><trkpt lat="43.51998000583059" lon="10.927270549401355"><ele>440.0</ele><time>2026-04-20T13:25:14Z</time></trkpt><trkpt lat="43.51986686727156" lon="10.927237213945578"><ele>440.0</ele><time>2026-04-20T13:25:15Z</time></trkpt><trkpt lat="43.51975352550852" lon="10.927204269891062"><ele>440.0</ele><time>2026-04-20T13:25:16Z</time></trkpt><trkpt lat="43.51964118357393" lon="10.927175725636232"><ele>440.0</ele><time>2026-04-20T13:25:17Z</time></trkpt><trkpt lat="43.519527824885174" lon="10.927148831186994"><ele>440.25</ele><time>2026-04-20T13:25:18Z</time></trkpt><trkpt lat="43.519413234293815" lon="10.927124264391338"><ele>440.5</ele><time>2026-04-20T13:25:19Z</time></trkpt><trkpt lat="43.519299004493725" lon="10.927103392556651"><ele>440.75</ele><time>2026-04-20T13:25:20Z</time></trkpt><trkpt lat="43.51918652778968" lon="10.927091603786943"><ele>441.0</ele><time>2026-04-20T13:25:21Z</time></trkpt><trkpt lat="43.519073170511184" lon="10.927081754389052"><ele>441.0</ele><time>2026-04-20T13:25:22Z</time></trkpt><trkpt lat="43.51895869938594" lon="10.927069124955725"><ele>441.0</ele><time>2026-04-20T13:25:23Z</time></trkpt><trkpt lat="43.5188410651686" lon="10.92706359102731"><ele>441.0</ele><time>2026-04-20T13:25:24Z</time></trkpt><trkpt lat="43.51872472385667" lon="10.927055421046443"><ele>441.0</ele><time>2026-04-20T13:25:25Z</time></trkpt><trkpt lat="43.518606674666245" lon="10.92704631375655"><ele>440.5</ele><time>2026-04-20T13:25:26Z</time></trkpt><trkpt lat="43.51848759708497" lon="10.927038914257018"><ele>440.0</ele><time>2026-04-20T13:25:27Z</time></trkpt><trkpt lat="43.518367622576484" lon="10.927027499372205"><ele>439.5</ele><time>2026-04-20T13:25:28Z</time></trkpt><trkpt lat="43.518248983395864" lon="10.927015524860812"><ele>439.0</ele><time>2026-04-20T13:25:29Z</time></trkpt><trkpt lat="43.51812963310878" lon="10.92700221789588"><ele>439.0</ele><time>2026-04-20T13:25:30Z</time></trkpt><trkpt lat="43.518010207176296" lon="10.926987305592878"><ele>439.0</ele><time>2026-04-20T13:25:31Z</time></trkpt><trkpt lat="43.517892923236964" lon="10.926981115410038"><ele>439.0</ele><time>2026-04-20T13:25:32Z</time></trkpt><trkpt lat="43.51777580773836" lon="10.92697441146413"><ele>439.0</ele><time>2026-04-20T13:25:33Z</time></trkpt><trkpt lat="43.51765738862772" lon="10.926966597362114"><ele>438.75</ele><time>2026-04-20T13:25:34Z</time></trkpt><trkpt lat="43.5175378902967" lon="10.926953289067548"><ele>438.5</ele><time>2026-04-20T13:25:35Z</time></trkpt><trkpt lat="43.51741857008978" lon="10.926938647196117"><ele>438.25</ele><time>2026-04-20T13:25:36Z</time></trkpt><trkpt lat="43.51729267685861" lon="10.92692490902006"><ele>438.0</ele><time>2026-04-20T13:25:37Z</time></trkpt><trkpt lat="43.51716566829218" lon="10.926911743643636"><ele>438.75</ele><time>2026-04-20T13:25:38Z</time></trkpt><trkpt lat="43.51703682482591" lon="10.926902019970314"><ele>439.5</ele><time>2026-04-20T13:25:39Z</time></trkpt><trkpt lat="43.51690637297237" lon="10.926890176749316"><ele>440.25</ele><time>2026-04-20T13:25:40Z</time></trkpt><trkpt lat="43.5167740871264" lon="10.926881306398"><ele>441.0</ele><time>2026-04-20T13:25:41Z</time></trkpt><trkpt lat="43.51664212565794" lon="10.92687073597251"><ele>441.0</ele><time>2026-04-20T13:25:42Z</time></trkpt><trkpt lat="43.51652246605544" lon="10.926859618432648"><ele>441.0</ele><time>2026-04-20T13:25:43Z</time></trkpt><trkpt lat="43.51640804684112" lon="10.926851787063468"><ele>441.0</ele><time>2026-04-20T13:25:44Z</time></trkpt><trkpt lat="43.516291300056054" lon="10.926866844011071"><ele>441.0</ele><time>2026-04-20T13:25:45Z</time></trkpt><trkpt lat="43.51617660693593" lon="10.926920770217958"><ele>444.0</ele><time>2026-04-20T13:25:46Z</time></trkpt><trkpt lat="43.51607528590854" lon="10.927010550200778"><ele>447.0</ele><time>2026-04-20T13:25:47Z</time></trkpt><trkpt lat="43.51599473237524" lon="10.927126698554204"><ele>450.0</ele><time>2026-04-20T13:25:48Z</time></trkpt><trkpt lat="43.51592741041303" lon="10.92725935577513"><ele>453.0</ele><time>2026-04-20T13:25:49Z</time></trkpt><trkpt lat="43.51586385239968" lon="10.927393793079048"><ele>453.0</ele><time>2026-04-20T13:25:50Z</time></trkpt><trkpt lat="43.51579461001165" lon="10.927523630574136"><ele>452.99999999999994</ele><time>2026-04-20T13:25:51Z</time></trkpt><trkpt lat="43.51572752842205" lon="10.927641934835854"><ele>452.99999999999994</ele><time>2026-04-20T13:25:52Z</time></trkpt><trkpt lat="43.51565405515235" lon="10.927750745596786"><ele>453.0</ele><time>2026-04-20T13:25:53Z</time></trkpt><trkpt lat="43.51556628562488" lon="10.92785197867057"><ele>453.0</ele><time>2026-04-20T13:25:54Z</time></trkpt><trkpt lat="43.515467537005854" lon="10.927940175679161"><ele>455.5</ele><time>2026-04-20T13:25:55Z</time></trkpt><trkpt lat="43.51536901047284" lon="10.928029950910432"><ele>458.0</ele><time>2026-04-20T13:25:56Z</time></trkpt><trkpt lat="43.51527164230034" lon="10.92812811902361"><ele>460.5</ele><time>2026-04-20T13:25:57Z</time></trkpt><trkpt lat="43.51517400736581" lon="10.92822624902261"><ele>463.0</ele><time>2026-04-20T13:25:58Z</time></trkpt><trkpt lat="43.51507728735518" lon="10.928316965051165"><ele>463.5</ele><time>2026-04-20T13:25:59Z</time></trkpt><trkpt lat="43.51497562203072" lon="10.92840599887519"><ele>464.0</ele><time>2026-04-20T13:26:00Z</time></trkpt><trkpt lat="43.514868519630376" lon="10.928480180855741"><ele>464.5</ele><time>2026-04-20T13:26:01Z</time></trkpt><trkpt lat="43.51474880557978" lon="10.928533377136581"><ele>465.0</ele><time>2026-04-20T13:26:02Z</time></trkpt><trkpt lat="43.51462515161519" lon="10.92856427517322"><ele>467.75</ele><time>2026-04-20T13:26:03Z</time></trkpt><trkpt lat="43.51449921218663" lon="10.928576224332536"><ele>470.5</ele><time>2026-04-20T13:26:04Z</time></trkpt><trkpt lat="43.5143777417119" lon="10.928584632886809"><ele>473.25</ele><time>2026-04-20T13:26:05Z</time></trkpt><trkpt lat="43.51426049495156" lon="10.928606217288989"><ele>476.0</ele><time>2026-04-20T13:26:06Z</time></trkpt><trkpt lat="43.51414677026608" lon="10.928642450053196"><ele>476.0</ele><time>2026-04-20T13:26:07Z</time></trkpt><trkpt lat="43.51403568983954" lon="10.928704791914962"><ele>476.0</ele><time>2026-04-20T13:26:08Z</time></trkpt><trkpt lat="43.513927525173266" lon="10.928787690255959"><ele>476.0</ele><time>2026-04-20T13:26:09Z</time></trkpt><trkpt lat="43.51382929718333" lon="10.92888774735041"><ele>476.0</ele><time>2026-04-20T13:26:10Z</time></trkpt><trkpt lat="43.51373329350801" lon="10.929000125477918"><ele>475.75</ele><time>2026-04-20T13:26:11Z</time></trkpt><trkpt lat="43.51364501371185" lon="10.929123981978902"><ele>475.5</ele><time>2026-04-20T13:26:12Z</time></trkpt><trkpt lat="43.51356415862769" lon="10.92925204546626"><ele>475.25</ele><time>2026-04-20T13:26:13Z</time></trkpt><trkpt lat="43.513488335474676" lon="10.929394748069283"><ele>475.0</ele><time>2026-04-20T13:26:14Z</time></trkpt><trkpt lat="43.513420993473765" lon="10.929545851758911"><ele>476.5</ele><time>2026-04-20T13:26:15Z</time></trkpt><trkpt lat="43.513358467615035" lon="10.929704133123956"><ele>478.0</ele><time>2026-04-20T13:26:16Z</time></trkpt><trkpt lat="43.51328611867191" lon="10.929842438015534"><ele>479.5</ele><time>2026-04-20T13:26:17Z</time></trkpt><trkpt lat="43.513195583412575" lon="10.9299599427714"><ele>481.0</ele><time>2026-04-20T13:26:18Z</time></trkpt><trkpt lat="43.513094010198515" lon="10.930056459745348"><ele>481.25</ele><time>2026-04-20T13:26:19Z</time></trkpt><trkpt lat="43.51297970779379" lon="10.930127346001393"><ele>481.5</ele><time>2026-04-20T13:26:20Z</time></trkpt><trkpt lat="43.51285325428386" lon="10.930174141698139"><ele>481.75</ele><time>2026-04-20T13:26:21Z</time></trkpt><trkpt lat="43.512718865328516" lon="10.930195094848767"><ele>482.0</ele><time>2026-04-20T13:26:22Z</time></trkpt><trkpt lat="43.51258049115606" lon="10.93019093875607"><ele>482.5</ele><time>2026-04-20T13:26:23Z</time></trkpt><trkpt lat="43.51244790272818" lon="10.93017379491994"><ele>483.0</ele><time>2026-04-20T13:26:24Z</time></trkpt><trkpt lat="43.51231285244948" lon="10.93013979991384"><ele>483.5</ele><time>2026-04-20T13:26:25Z</time></trkpt><trkpt lat="43.512178659525745" lon="10.930103496902097"><ele>484.0</ele><time>2026-04-20T13:26:26Z</time></trkpt><trkpt lat="43.5120419735819" lon="10.930067833800733"><ele>484.5</ele><time>2026-04-20T13:26:27Z</time></trkpt><trkpt lat="43.51190335589582" lon="10.93003210258829"><ele>485.0</ele><time>2026-04-20T13:26:28Z</time></trkpt><trkpt lat="43.511763544386035" lon="10.929981087745846"><ele>485.5</ele><time>2026-04-20T13:26:29Z</time></trkpt><trkpt lat="43.51162388715804" lon="10.929916724238463"><ele>486.0</ele><time>2026-04-20T13:26:30Z</time></trkpt><trkpt lat="43.511484944458694" lon="10.929843436998455"><ele>486.0</ele><time>2026-04-20T13:26:31Z</time></trkpt><trkpt lat="43.51134878009306" lon="10.929754321645676"><ele>486.0</ele><time>2026-04-20T13:26:32Z</time></trkpt><trkpt lat="43.511213671762974" lon="10.929656790924524"><ele>486.0</ele><time>2026-04-20T13:26:33Z</time></trkpt><trkpt lat="43.511078519724485" lon="10.929558114111273"><ele>487.0</ele><time>2026-04-20T13:26:34Z</time></trkpt><trkpt lat="43.510942673185724" lon="10.929462717013088"><ele>488.0</ele><time>2026-04-20T13:26:35Z</time></trkpt><trkpt lat="43.510810219507334" lon="10.929369991905604"><ele>489.0</ele><time>2026-04-20T13:26:36Z</time></trkpt><trkpt lat="43.51067958003462" lon="10.929281175414207"><ele>490.0</ele><time>2026-04-20T13:26:37Z</time></trkpt><trkpt lat="43.51054699829566" lon="10.929192285800237"><ele>490.0</ele><time>2026-04-20T13:26:38Z</time></trkpt><trkpt lat="43.51041145373573" lon="10.929110624159167"><ele>490.0</ele><time>2026-04-20T13:26:39Z</time></trkpt><trkpt lat="43.51027147242971" lon="10.929030365523252"><ele>490.0</ele><time>2026-04-20T13:26:40Z</time></trkpt><trkpt lat="43.51012553904005" lon="10.928952926734471"><ele>490.33333333333337</ele><time>2026-04-20T13:26:41Z</time></trkpt><trkpt lat="43.50997741715841" lon="10.928875548038919"><ele>490.66666666666663</ele><time>2026-04-20T13:26:42Z</time></trkpt><trkpt lat="43.5098232313134" lon="10.928792320610428"><ele>491.0</ele><time>2026-04-20T13:26:43Z</time></trkpt><trkpt lat="43.509671527880336" lon="10.928717348232382"><ele>488.66666666666663</ele><time>2026-04-20T13:26:44Z</time></trkpt><trkpt lat="43.50951877524952" lon="10.928648581647527"><ele>486.33333333333337</ele><time>2026-04-20T13:26:45Z</time></trkpt><trkpt lat="43.50936221499113" lon="10.928590176119485"><ele>484.0</ele><time>2026-04-20T13:26:46Z</time></trkpt><trkpt lat="43.509196721759615" lon="10.928554708223324"><ele>484.0</ele><time>2026-04-20T13:26:47Z</time></trkpt><trkpt lat="43.50902885028254" lon="10.92855143944009"><ele>484.0</ele><time>2026-04-20T13:26:48Z</time></trkpt><trkpt lat="43.508862562665605" lon="10.92855588281128"><ele>484.0</ele><time>2026-04-20T13:26:49Z</time></trkpt><trkpt lat="43.50869751244386" lon="10.928569924353779"><ele>486.0</ele><time>2026-04-20T13:26:50Z</time></trkpt><trkpt lat="43.50853789984884" lon="10.928589005749622"><ele>488.0</ele><time>2026-04-20T13:26:51Z</time></trkpt><trkpt lat="43.50837452298214" lon="10.928602776173403"><ele>490.0</ele><time>2026-04-20T13:26:52Z</time></trkpt><trkpt lat="43.50821322625747" lon="10.928610631021835"><ele>490.0</ele><time>2026-04-20T13:26:53Z</time></trkpt><trkpt lat="43.50804929499354" lon="10.928622704380004"><ele>490.0</ele><time>2026-04-20T13:26:54Z</time></trkpt><trkpt lat="43.50788565980624" lon="10.92862988729714"><ele>490.0</ele><time>2026-04-20T13:26:55Z</time></trkpt><trkpt lat="43.50772552221205" lon="10.928642317958234"><ele>491.33333333333337</ele><time>2026-04-20T13:26:56Z</time></trkpt><trkpt lat="43.507565308439446" lon="10.92865060893742"><ele>492.66666666666663</ele><time>2026-04-20T13:26:57Z</time></trkpt><trkpt lat="43.507415721850776" lon="10.928664004917168"><ele>494.0</ele><time>2026-04-20T13:26:58Z</time></trkpt><trkpt lat="43.507268348774986" lon="10.92868315757195"><ele>494.0</ele><time>2026-04-20T13:26:59Z</time></trkpt><trkpt lat="43.507120619774994" lon="10.928707017662157"><ele>494.0</ele><time>2026-04-20T13:27:00Z</time></trkpt><trkpt lat="43.506979525190566" lon="10.928740587282256"><ele>494.0</ele><time>2026-04-20T13:27:01Z</time></trkpt><trkpt lat="43.50685459457175" lon="10.928777952184129"><ele>494.0</ele><time>2026-04-20T13:27:02Z</time></trkpt><trkpt lat="43.50674152989524" lon="10.92882783477567"><ele>494.6</ele><time>2026-04-20T13:27:03Z</time></trkpt><trkpt lat="43.50664726720335" lon="10.928898075713118"><ele>495.2</ele><time>2026-04-20T13:27:04Z</time></trkpt><trkpt lat="43.50656617187142" lon="10.92899840264068"><ele>495.80000000000007</ele><time>2026-04-20T13:27:05Z</time></trkpt><trkpt lat="43.50650141396464" lon="10.92912300112975"><ele>496.40000000000003</ele><time>2026-04-20T13:27:06Z</time></trkpt><trkpt lat="43.50644721074969" lon="10.929263619399665"><ele>497.0</ele><time>2026-04-20T13:27:07Z</time></trkpt><trkpt lat="43.50639720460944" lon="10.929391675463531"><ele>497.0</ele><time>2026-04-20T13:27:08Z</time></trkpt><trkpt lat="43.506328349521446" lon="10.929496099182261"><ele>497.00000000000006</ele><time>2026-04-20T13:27:09Z</time></trkpt><trkpt lat="43.50624035240184" lon="10.929555041011975"><ele>497.00000000000006</ele><time>2026-04-20T13:27:10Z</time></trkpt><trkpt lat="43.506139179294756" lon="10.929577739082404"><ele>497.0</ele><time>2026-04-20T13:27:11Z</time></trkpt><trkpt lat="43.506031990954874" lon="10.929578876270279"><ele>497.0</ele><time>2026-04-20T13:27:12Z</time></trkpt><trkpt lat="43.50591966667974" lon="10.929567032703645"><ele>498.5</ele><time>2026-04-20T13:27:13Z</time></trkpt><trkpt lat="43.505801003847886" lon="10.929560401466723"><ele>500.0</ele><time>2026-04-20T13:27:14Z</time></trkpt><trkpt lat="43.50568298506715" lon="10.92955867739789"><ele>501.5</ele><time>2026-04-20T13:27:15Z</time></trkpt><trkpt lat="43.50554721215894" lon="10.929525230399527"><ele>503.0</ele><time>2026-04-20T13:27:16Z</time></trkpt><trkpt lat="43.50541832553846" lon="10.929519945476121"><ele>505.25</ele><time>2026-04-20T13:27:17Z</time></trkpt><trkpt lat="43.5052928133834" lon="10.92952054226268"><ele>507.5</ele><time>2026-04-20T13:27:18Z</time></trkpt><trkpt lat="43.5051598957374" lon="10.929515392317034"><ele>509.75</ele><time>2026-04-20T13:27:19Z</time></trkpt><trkpt lat="43.50503034540635" lon="10.92950837244078"><ele>512.0</ele><time>2026-04-20T13:27:20Z</time></trkpt><trkpt lat="43.504897409921234" lon="10.92949321173331"><ele>512.0</ele><time>2026-04-20T13:27:21Z</time></trkpt><trkpt lat="43.50475933663809" lon="10.92947305774768"><ele>512.0</ele><time>2026-04-20T13:27:22Z</time></trkpt><trkpt lat="43.50462191166672" lon="10.929445402221052"><ele>512.0</ele><time>2026-04-20T13:27:23Z</time></trkpt><trkpt lat="43.50448555313902" lon="10.929412123687602"><ele>512.0</ele><time>2026-04-20T13:27:24Z</time></trkpt><trkpt lat="43.50434958616453" lon="10.929379853087491"><ele>514.5</ele><time>2026-04-20T13:27:25Z</time></trkpt><trkpt lat="43.50421379543002" lon="10.929345004147306"><ele>517.0</ele><time>2026-04-20T13:27:26Z</time></trkpt><trkpt lat="43.50406792970104" lon="10.929293238646721"><ele>519.5</ele><time>2026-04-20T13:27:27Z</time></trkpt><trkpt lat="43.5039247479214" lon="10.929236870786237"><ele>522.0</ele><time>2026-04-20T13:27:28Z</time></trkpt><trkpt lat="43.50377417936145" lon="10.929183580598837"><ele>521.0</ele><time>2026-04-20T13:27:29Z</time></trkpt><trkpt lat="43.503612991770204" lon="10.929121380685059"><ele>520.0</ele><time>2026-04-20T13:27:30Z</time></trkpt><trkpt lat="43.50344908404117" lon="10.929058137898059"><ele>519.0</ele><time>2026-04-20T13:27:31Z</time></trkpt><trkpt lat="43.50327872930407" lon="10.928992202166112"><ele>519.0</ele><time>2026-04-20T13:27:32Z</time></trkpt><trkpt lat="43.50309986814661" lon="10.928925887434207"><ele>519.0</ele><time>2026-04-20T13:27:33Z</time></trkpt><trkpt lat="43.502920725698495" lon="10.928863296586298"><ele>519.0</ele><time>2026-04-20T13:27:34Z</time></trkpt><trkpt lat="43.5027391766469" lon="10.928793105530819"><ele>517.6666666666666</ele><time>2026-04-20T13:27:35Z</time></trkpt><trkpt lat="43.502557210923975" lon="10.928728561993921"><ele>516.3333333333333</ele><time>2026-04-20T13:27:36Z</time></trkpt><trkpt lat="43.50237291465698" lon="10.928674397302345"><ele>515.0</ele><time>2026-04-20T13:27:37Z</time></trkpt><trkpt lat="43.50218995403758" lon="10.928608439919039"><ele>514.6666666666666</ele><time>2026-04-20T13:27:38Z</time></trkpt><trkpt lat="43.50201195393406" lon="10.928519075529515"><ele>514.3333333333334</ele><time>2026-04-20T13:27:39Z</time></trkpt><trkpt lat="43.501824118023265" lon="10.92844697388141"><ele>514.0</ele><time>2026-04-20T13:27:40Z</time></trkpt><trkpt lat="43.50163520905961" lon="10.928374865826086"><ele>514.0</ele><time>2026-04-20T13:27:41Z</time></trkpt><trkpt lat="43.501451097790024" lon="10.92830534521472"><ele>514.0</ele><time>2026-04-20T13:27:42Z</time></trkpt><trkpt lat="43.50126510393228" lon="10.928234947650996"><ele>514.0</ele><time>2026-04-20T13:27:43Z</time></trkpt><trkpt lat="43.501078880761625" lon="10.928164274932305"><ele>512.6666666666667</ele><time>2026-04-20T13:27:44Z</time></trkpt><trkpt lat="43.500894346431885" lon="10.928092663374077"><ele>511.33333333333337</ele><time>2026-04-20T13:27:45Z</time></trkpt><trkpt lat="43.50070825529858" lon="10.92802079583772"><ele>510.0</ele><time>2026-04-20T13:27:46Z</time></trkpt><trkpt lat="43.50053767172458" lon="10.92796137682483"><ele>509.66666666666663</ele><time>2026-04-20T13:27:47Z</time></trkpt><trkpt lat="43.50034523144023" lon="10.92790131079977"><ele>509.3333333333333</ele><time>2026-04-20T13:27:48Z</time></trkpt><trkpt lat="43.50015216264511" lon="10.927850118418467"><ele>509.0</ele><time>2026-04-20T13:27:49Z</time></trkpt><trkpt lat="43.49996060914535" lon="10.927826752349535"><ele>509.0</ele><time>2026-04-20T13:27:50Z</time></trkpt><trkpt lat="43.49977773064455" lon="10.92778110593026"><ele>509.0</ele><time>2026-04-20T13:27:51Z</time></trkpt><trkpt lat="43.499596681275676" lon="10.927721262178727"><ele>509.0</ele><time>2026-04-20T13:27:52Z</time></trkpt><trkpt lat="43.49941555502547" lon="10.927673733438573"><ele>509.0</ele><time>2026-04-20T13:27:53Z</time></trkpt><trkpt lat="43.49923599584784" lon="10.9276271131147"><ele>509.0</ele><time>2026-04-20T13:27:54Z</time></trkpt><trkpt lat="43.49905934567019" lon="10.927576644768148"><ele>509.0</ele><time>2026-04-20T13:27:55Z</time></trkpt><trkpt lat="43.49888259772225" lon="10.927519438875596"><ele>510.66666666666663</ele><time>2026-04-20T13:27:56Z</time></trkpt><trkpt lat="43.49870778437482" lon="10.927450085006328"><ele>512.3333333333334</ele><time>2026-04-20T13:27:57Z</time></trkpt><trkpt lat="43.498532934679446" lon="10.927387421739152"><ele>514.0</ele><time>2026-04-20T13:27:58Z</time></trkpt><trkpt lat="43.49835975286939" lon="10.92733185213415"><ele>514.0</ele><time>2026-04-20T13:27:59Z</time></trkpt><trkpt lat="43.498186585051876" lon="10.92727758934353"><ele>514.0</ele><time>2026-04-20T13:28:00Z</time></trkpt><trkpt lat="43.49800779494347" lon="10.9272307785792"><ele>514.0</ele><time>2026-04-20T13:28:01Z</time></trkpt><trkpt lat="43.49782468541686" lon="10.927188693312377"><ele>512.6666666666667</ele><time>2026-04-20T13:28:02Z</time></trkpt><trkpt lat="43.49763859769366" lon="10.92714767725257"><ele>511.33333333333337</ele><time>2026-04-20T13:28:03Z</time></trkpt><trkpt lat="43.49746015793783" lon="10.927114710843107"><ele>510.0</ele><time>2026-04-20T13:28:04Z</time></trkpt><trkpt lat="43.49728564954013" lon="10.927081003804945"><ele>510.0</ele><time>2026-04-20T13:28:05Z</time></trkpt><trkpt lat="43.497125854854076" lon="10.927043787936581"><ele>510.0</ele><time>2026-04-20T13:28:06Z</time></trkpt><trkpt lat="43.49698025395846" lon="10.927008800100797"><ele>510.0</ele><time>2026-04-20T13:28:07Z</time></trkpt><trkpt lat="43.49685049174093" lon="10.926986358305149"><ele>510.0</ele><time>2026-04-20T13:28:08Z</time></trkpt><trkpt lat="43.4967383397323" lon="10.926963624729567"><ele>510.2</ele><time>2026-04-20T13:28:09Z</time></trkpt><trkpt lat="43.496646755706216" lon="10.926942003037556"><ele>510.4</ele><time>2026-04-20T13:28:10Z</time></trkpt><trkpt lat="43.496557608514" lon="10.926902881387642"><ele>510.6</ele><time>2026-04-20T13:28:11Z</time></trkpt><trkpt lat="43.49646637803043" lon="10.926829103708597"><ele>510.8</ele><time>2026-04-20T13:28:12Z</time></trkpt><trkpt lat="43.49637926058946" lon="10.926718955793989"><ele>511.0</ele><time>2026-04-20T13:28:13Z</time></trkpt><trkpt lat="43.496300816094376" lon="10.926588834491081"><ele>509.5</ele><time>2026-04-20T13:28:14Z</time></trkpt><trkpt lat="43.49621810847157" lon="10.926451543274831"><ele>508.0</ele><time>2026-04-20T13:28:15Z</time></trkpt><trkpt lat="43.496137160552585" lon="10.926320196854434"><ele>506.5</ele><time>2026-04-20T13:28:16Z</time></trkpt><trkpt lat="43.4960602800301" lon="10.926205615840475"><ele>505.0</ele><time>2026-04-20T13:28:17Z</time></trkpt><trkpt lat="43.49598306222486" lon="10.926111563508256"><ele>505.0</ele><time>2026-04-20T13:28:18Z</time></trkpt><trkpt lat="43.49590110310999" lon="10.926042768453765"><ele>505.0</ele><time>2026-04-20T13:28:19Z</time></trkpt><trkpt lat="43.495805032225704" lon="10.92600345462459"><ele>505.0</ele><time>2026-04-20T13:28:20Z</time></trkpt><trkpt lat="43.49569074577162" lon="10.926007888635985"><ele>505.0</ele><time>2026-04-20T13:28:21Z</time></trkpt><trkpt lat="43.49556540564308" lon="10.926040837106541"><ele>505.0</ele><time>2026-04-20T13:28:22Z</time></trkpt><trkpt lat="43.49545761928446" lon="10.926099817305898"><ele>503.2</ele><time>2026-04-20T13:28:23Z</time></trkpt><trkpt lat="43.49536725868258" lon="10.926128598166885"><ele>501.4</ele><time>2026-04-20T13:28:24Z</time></trkpt><trkpt lat="43.49526607264015" lon="10.926094249115476"><ele>499.6</ele><time>2026-04-20T13:28:25Z</time></trkpt><trkpt lat="43.49518895788683" lon="10.926052255212873"><ele>497.8</ele><time>2026-04-20T13:28:26Z</time></trkpt><trkpt lat="43.49509439274677" lon="10.92602284401604"><ele>496.0</ele><time>2026-04-20T13:28:27Z</time></trkpt><trkpt lat="43.49499240091927" lon="10.925987713318282"><ele>496.0</ele><time>2026-04-20T13:28:28Z</time></trkpt><trkpt lat="43.49487712510256" lon="10.925997717329466"><ele>496.0</ele><time>2026-04-20T13:28:29Z</time></trkpt><trkpt lat="43.49475997352866" lon="10.926071120270361"><ele>496.0</ele><time>2026-04-20T13:28:30Z</time></trkpt><trkpt lat="43.4946436192076" lon="10.926152063446361"><ele>496.0</ele><time>2026-04-20T13:28:31Z</time></trkpt><trkpt lat="43.49452596763428" lon="10.926242613509684"><ele>496.5</ele><time>2026-04-20T13:28:32Z</time></trkpt><trkpt lat="43.49440474417822" lon="10.926328963398234"><ele>497.0</ele><time>2026-04-20T13:28:33Z</time></trkpt><trkpt lat="43.49427933162675" lon="10.92641829723595"><ele>497.5</ele><time>2026-04-20T13:28:34Z</time></trkpt><trkpt lat="43.494153450558635" lon="10.92650796484747"><ele>498.0</ele><time>2026-04-20T13:28:35Z</time></trkpt><trkpt lat="43.4940359423868" lon="10.926592449760689"><ele>498.0</ele><time>2026-04-20T13:28:36Z</time></trkpt><trkpt lat="43.49391569544146" lon="10.926685268446578"><ele>498.0</ele><time>2026-04-20T13:28:37Z</time></trkpt><trkpt lat="43.49380291953442" lon="10.926809004555984"><ele>498.0</ele><time>2026-04-20T13:28:38Z</time></trkpt><trkpt lat="43.49368142104165" lon="10.926922476457241"><ele>498.0</ele><time>2026-04-20T13:28:39Z</time></trkpt><trkpt lat="43.49357429142885" lon="10.92705178292861"><ele>498.0</ele><time>2026-04-20T13:28:40Z</time></trkpt><trkpt lat="43.493461279403775" lon="10.927199924408573"><ele>498.0</ele><time>2026-04-20T13:28:41Z</time></trkpt><trkpt lat="43.4933605253858" lon="10.927356366796849"><ele>498.0</ele><time>2026-04-20T13:28:42Z</time></trkpt><trkpt lat="43.49327132093648" lon="10.927498912106206"><ele>498.0</ele><time>2026-04-20T13:28:43Z</time></trkpt><trkpt lat="43.49316588773216" lon="10.927654299651381"><ele>497.0</ele><time>2026-04-20T13:28:44Z</time></trkpt><trkpt lat="43.493066621178" lon="10.927807203379528"><ele>496.0</ele><time>2026-04-20T13:28:45Z</time></trkpt><trkpt lat="43.49297422160908" lon="10.927924801637017"><ele>495.0</ele><time>2026-04-20T13:28:46Z</time></trkpt><trkpt lat="43.4929035226814" lon="10.928031113149334"><ele>494.0</ele><time>2026-04-20T13:28:47Z</time></trkpt><trkpt lat="43.49284796512523" lon="10.928119376463199"><ele>492.49999999999994</ele><time>2026-04-20T13:28:48Z</time></trkpt><trkpt lat="43.49277592092661" lon="10.92823273799535"><ele>491.0</ele><time>2026-04-20T13:28:50Z</time></trkpt><trkpt lat="43.49273088488149" lon="10.928298629310111"><ele>489.5</ele><time>2026-04-20T13:28:52Z</time></trkpt><trkpt lat="43.49266957924217" lon="10.928385396156331"><ele>488.0</ele><time>2026-04-20T13:28:54Z</time></trkpt><trkpt lat="43.49262116799485" lon="10.928451336094525"><ele>486.49999999999994</ele><time>2026-04-20T13:28:55Z</time></trkpt><trkpt lat="43.49256123835598" lon="10.92853026385121"><ele>485.0</ele><time>2026-04-20T13:28:56Z</time></trkpt><trkpt lat="43.49248821842333" lon="10.928613771872996"><ele>484.8</ele><time>2026-04-20T13:28:57Z</time></trkpt><trkpt lat="43.49240695577571" lon="10.928692139037285"><ele>484.6</ele><time>2026-04-20T13:28:58Z</time></trkpt><trkpt lat="43.49230710119932" lon="10.928756701589714"><ele>484.4</ele><time>2026-04-20T13:28:59Z</time></trkpt><trkpt lat="43.49219859927115" lon="10.928793084118068"><ele>484.2</ele><time>2026-04-20T13:29:00Z</time></trkpt><trkpt lat="43.49208583046896" lon="10.92879885044737"><ele>484.0</ele><time>2026-04-20T13:29:01Z</time></trkpt><trkpt lat="43.49196670430054" lon="10.928781824909425"><ele>484.4</ele><time>2026-04-20T13:29:02Z</time></trkpt><trkpt lat="43.491851072965375" lon="10.92874403039331"><ele>484.79999999999995</ele><time>2026-04-20T13:29:03Z</time></trkpt><trkpt lat="43.491749805845" lon="10.92868172384317"><ele>485.20000000000005</ele><time>2026-04-20T13:29:04Z</time></trkpt><trkpt lat="43.4916571365067" lon="10.928610672533585"><ele>485.6</ele><time>2026-04-20T13:29:05Z</time></trkpt><trkpt lat="43.491564637543675" lon="10.928549968418508"><ele>486.0</ele><time>2026-04-20T13:29:06Z</time></trkpt><trkpt lat="43.49147715334566" lon="10.928510591280354"><ele>486.0</ele><time>2026-04-20T13:29:07Z</time></trkpt><trkpt lat="43.491388068784374" lon="10.928498961325019"><ele>486.0</ele><time>2026-04-20T13:29:08Z</time></trkpt><trkpt lat="43.491298694648805" lon="10.928514093411897"><ele>486.0</ele><time>2026-04-20T13:29:09Z</time></trkpt><trkpt lat="43.491203920449806" lon="10.928538884752221"><ele>486.0</ele><time>2026-04-20T13:29:10Z</time></trkpt><trkpt lat="43.49111073521688" lon="10.928607369834602"><ele>486.0</ele><time>2026-04-20T13:29:11Z</time></trkpt><trkpt lat="43.4910266425306" lon="10.928706357212025"><ele>484.5</ele><time>2026-04-20T13:29:12Z</time></trkpt><trkpt lat="43.49097066745649" lon="10.928850392899106"><ele>483.0</ele><time>2026-04-20T13:29:13Z</time></trkpt><trkpt lat="43.49090544653497" lon="10.92898191969532"><ele>481.5</ele><time>2026-04-20T13:29:14Z</time></trkpt><trkpt lat="43.49083537956185" lon="10.929118539688758"><ele>480.0</ele><time>2026-04-20T13:29:15Z</time></trkpt><trkpt lat="43.490770997621375" lon="10.92927963844598"><ele>480.0</ele><time>2026-04-20T13:29:16Z</time></trkpt><trkpt lat="43.49070742033142" lon="10.929436118589885"><ele>480.0</ele><time>2026-04-20T13:29:17Z</time></trkpt><trkpt lat="43.490651224029044" lon="10.9295824346529"><ele>480.0</ele><time>2026-04-20T13:29:18Z</time></trkpt><trkpt lat="43.490590336542716" lon="10.929729981453827"><ele>480.0</ele><time>2026-04-20T13:29:19Z</time></trkpt><trkpt lat="43.49052752445346" lon="10.929872840894726"><ele>480.0</ele><time>2026-04-20T13:29:20Z</time></trkpt><trkpt lat="43.4904656778206" lon="10.93000937461345"><ele>480.0</ele><time>2026-04-20T13:29:21Z</time></trkpt><trkpt lat="43.490405490399155" lon="10.930151862888017"><ele>480.0</ele><time>2026-04-20T13:29:22Z</time></trkpt><trkpt lat="43.4903423854123" lon="10.930293155762886"><ele>480.0</ele><time>2026-04-20T13:29:23Z</time></trkpt><trkpt lat="43.49027771149268" lon="10.930447517707263"><ele>475.5</ele><time>2026-04-20T13:29:24Z</time></trkpt><trkpt lat="43.49021628504895" lon="10.930607194201936"><ele>471.0</ele><time>2026-04-20T13:29:25Z</time></trkpt><trkpt lat="43.49016036387967" lon="10.930776289479397"><ele>466.5</ele><time>2026-04-20T13:29:26Z</time></trkpt><trkpt lat="43.490121725482766" lon="10.930950099744875"><ele>462.0</ele><time>2026-04-20T13:29:27Z</time></trkpt><trkpt lat="43.490095818472724" lon="10.931138385523777"><ele>461.75</ele><time>2026-04-20T13:29:28Z</time></trkpt><trkpt lat="43.49008138778096" lon="10.931333918198895"><ele>461.5</ele><time>2026-04-20T13:29:29Z</time></trkpt><trkpt lat="43.490074043175476" lon="10.93153373859973"><ele>461.25</ele><time>2026-04-20T13:29:30Z</time></trkpt><trkpt lat="43.49007650013179" lon="10.931725146960673"><ele>461.0</ele><time>2026-04-20T13:29:31Z</time></trkpt><trkpt lat="43.49007811661076" lon="10.931888217171224"><ele>460.4</ele><time>2026-04-20T13:29:32Z</time></trkpt><trkpt lat="43.490077402837606" lon="10.932053129624073"><ele>459.8</ele><time>2026-04-20T13:29:33Z</time></trkpt><trkpt lat="43.49007666023573" lon="10.932179195982403"><ele>459.19999999999993</ele><time>2026-04-20T13:29:34Z</time></trkpt><trkpt lat="43.49007448566601" lon="10.93228699386561"><ele>458.59999999999997</ele><time>2026-04-20T13:29:35Z</time></trkpt><trkpt lat="43.48999539046419" lon="10.932460975548455"><ele>458.0</ele><time>2026-04-20T13:29:37Z</time></trkpt><trkpt lat="43.48988895407309" lon="10.932479764410491"><ele>457.99999999999994</ele><time>2026-04-20T13:29:39Z</time></trkpt><trkpt lat="43.48982786093636" lon="10.932432591659111"><ele>458.0</ele><time>2026-04-20T13:29:40Z</time></trkpt><trkpt lat="43.48978267092388" lon="10.932348280578033"><ele>458.0</ele><time>2026-04-20T13:29:41Z</time></trkpt><trkpt lat="43.48976297909782" lon="10.932239211553055"><ele>458.0</ele><time>2026-04-20T13:29:42Z</time></trkpt><trkpt lat="43.48976202216098" lon="10.932101742829833"><ele>457.99999999999994</ele><time>2026-04-20T13:29:43Z</time></trkpt><trkpt lat="43.48975694651668" lon="10.931955872241643"><ele>458.0</ele><time>2026-04-20T13:29:44Z</time></trkpt><trkpt lat="43.489742597098235" lon="10.931797634832533"><ele>458.75</ele><time>2026-04-20T13:29:45Z</time></trkpt><trkpt lat="43.48972605091768" lon="10.931621454634104"><ele>459.5</ele><time>2026-04-20T13:29:46Z</time></trkpt><trkpt lat="43.489701711806916" lon="10.931433948798285"><ele>460.25</ele><time>2026-04-20T13:29:47Z</time></trkpt><trkpt lat="43.489680711669365" lon="10.931235371327427"><ele>461.0</ele><time>2026-04-20T13:29:48Z</time></trkpt><trkpt lat="43.489667178210915" lon="10.931029859425536"><ele>461.25</ele><time>2026-04-20T13:29:49Z</time></trkpt><trkpt lat="43.48965266494369" lon="10.930819598308615"><ele>461.5</ele><time>2026-04-20T13:29:50Z</time></trkpt><trkpt lat="43.489637094508105" lon="10.930622278084105"><ele>461.75</ele><time>2026-04-20T13:29:51Z</time></trkpt><trkpt lat="43.489613332069645" lon="10.930421370600097"><ele>462.0</ele><time>2026-04-20T13:29:52Z</time></trkpt><trkpt lat="43.48957502083472" lon="10.930217199585128"><ele>453.66666666666663</ele><time>2026-04-20T13:29:53Z</time></trkpt><trkpt lat="43.489526426644744" lon="10.930018519244907"><ele>445.3333333333333</ele><time>2026-04-20T13:29:54Z</time></trkpt><trkpt lat="43.489470326296406" lon="10.929817794790969"><ele>437.0</ele><time>2026-04-20T13:29:55Z</time></trkpt><trkpt lat="43.48940897466751" lon="10.929632736464358"><ele>437.0</ele><time>2026-04-20T13:29:56Z</time></trkpt><trkpt lat="43.489354174179" lon="10.929454297235157"><ele>437.0</ele><time>2026-04-20T13:29:57Z</time></trkpt><trkpt lat="43.48930161586351" lon="10.929288685503899"><ele>437.0</ele><time>2026-04-20T13:29:58Z</time></trkpt><trkpt lat="43.48926193132675" lon="10.92913575402367"><ele>437.0</ele><time>2026-04-20T13:29:59Z</time></trkpt><trkpt lat="43.489237720310804" lon="10.928970504451701"><ele>436.75</ele><time>2026-04-20T13:30:00Z</time></trkpt><trkpt lat="43.48923412835546" lon="10.92877936288706"><ele>436.5</ele><time>2026-04-20T13:30:01Z</time></trkpt><trkpt lat="43.489248212466634" lon="10.928579154958474"><ele>436.25</ele><time>2026-04-20T13:30:02Z</time></trkpt><trkpt lat="43.489268653336715" lon="10.928369132100086"><ele>436.0</ele><time>2026-04-20T13:30:03Z</time></trkpt><trkpt lat="43.48928237332471" lon="10.928151289276506"><ele>435.5</ele><time>2026-04-20T13:30:04Z</time></trkpt><trkpt lat="43.4892964073485" lon="10.927946225355065"><ele>435.0</ele><time>2026-04-20T13:30:05Z</time></trkpt><trkpt lat="43.48931033268463" lon="10.927751430753254"><ele>434.5</ele><time>2026-04-20T13:30:06Z</time></trkpt><trkpt lat="43.48932321861648" lon="10.927566373095043"><ele>434.0</ele><time>2026-04-20T13:30:07Z</time></trkpt><trkpt lat="43.489338442291185" lon="10.927382954092407"><ele>433.3333333333333</ele><time>2026-04-20T13:30:08Z</time></trkpt><trkpt lat="43.48935481298855" lon="10.927184763174933"><ele>432.66666666666663</ele><time>2026-04-20T13:30:09Z</time></trkpt><trkpt lat="43.48937756288999" lon="10.926978851522973"><ele>432.0</ele><time>2026-04-20T13:30:10Z</time></trkpt><trkpt lat="43.489406718081945" lon="10.926763770263356"><ele>429.66666666666663</ele><time>2026-04-20T13:30:11Z</time></trkpt><trkpt lat="43.48943718781255" lon="10.92654535203967"><ele>427.3333333333333</ele><time>2026-04-20T13:30:12Z</time></trkpt><trkpt lat="43.489467024533994" lon="10.926325007016024"><ele>425.0</ele><time>2026-04-20T13:30:13Z</time></trkpt><trkpt lat="43.4894983396384" lon="10.92611105443817"><ele>422.3333333333333</ele><time>2026-04-20T13:30:14Z</time></trkpt><trkpt lat="43.48952504190502" lon="10.925893800336704"><ele>419.66666666666663</ele><time>2026-04-20T13:30:15Z</time></trkpt><trkpt lat="43.489556108905035" lon="10.925674823241799"><ele>417.0</ele><time>2026-04-20T13:30:16Z</time></trkpt><trkpt lat="43.489584584009805" lon="10.925453292816904"><ele>419.66666666666663</ele><time>2026-04-20T13:30:17Z</time></trkpt><trkpt lat="43.489617702022485" lon="10.92523014930931"><ele>422.3333333333333</ele><time>2026-04-20T13:30:18Z</time></trkpt><trkpt lat="43.48965111323941" lon="10.925014819156459"><ele>425.0</ele><time>2026-04-20T13:30:19Z</time></trkpt><trkpt lat="43.48968190816484" lon="10.924808958115795"><ele>425.0</ele><time>2026-04-20T13:30:20Z</time></trkpt><trkpt lat="43.48971602817014" lon="10.924604453021958"><ele>425.0</ele><time>2026-04-20T13:30:21Z</time></trkpt><trkpt lat="43.48974822408291" lon="10.924402726362517"><ele>425.0</ele><time>2026-04-20T13:30:22Z</time></trkpt><trkpt lat="43.489777786439326" lon="10.92420903614446"><ele>425.0</ele><time>2026-04-20T13:30:23Z</time></trkpt><trkpt lat="43.48980750128729" lon="10.92401892424651"><ele>425.0</ele><time>2026-04-20T13:30:24Z</time></trkpt><trkpt lat="43.489835681881466" lon="10.92383556873718"><ele>425.0</ele><time>2026-04-20T13:30:25Z</time></trkpt><trkpt lat="43.489857923342534" lon="10.923655273589006"><ele>425.0</ele><time>2026-04-20T13:30:26Z</time></trkpt><trkpt lat="43.489881802313526" lon="10.923493273537064"><ele>425.0</ele><time>2026-04-20T13:30:27Z</time></trkpt><trkpt lat="43.48989911139607" lon="10.923349050330474"><ele>425.0</ele><time>2026-04-20T13:30:28Z</time></trkpt><trkpt lat="43.4899027186469" lon="10.923226711403561"><ele>425.0</ele><time>2026-04-20T13:30:29Z</time></trkpt><trkpt lat="43.48988884425307" lon="10.923113540638353"><ele>425.0</ele><time>2026-04-20T13:30:30Z</time></trkpt><trkpt lat="43.48985230843057" lon="10.923003898769508"><ele>425.0</ele><time>2026-04-20T13:30:31Z</time></trkpt><trkpt lat="43.48979200105612" lon="10.922908038383714"><ele>425.0</ele><time>2026-04-20T13:30:32Z</time></trkpt><trkpt lat="43.48970159756437" lon="10.922816437417685"><ele>425.0</ele><time>2026-04-20T13:30:33Z</time></trkpt><trkpt lat="43.48960171588749" lon="10.922730165540296"><ele>425.0</ele><time>2026-04-20T13:30:34Z</time></trkpt><trkpt lat="43.48948913239785" lon="10.922644685786544"><ele>425.0</ele><time>2026-04-20T13:30:35Z</time></trkpt><trkpt lat="43.489381389177495" lon="10.922559106370766"><ele>425.0</ele><time>2026-04-20T13:30:36Z</time></trkpt><trkpt lat="43.48927726147123" lon="10.922476827821914"><ele>422.75</ele><time>2026-04-20T13:30:37Z</time></trkpt><trkpt lat="43.489183045465005" lon="10.922370816320775"><ele>420.5</ele><time>2026-04-20T13:30:38Z</time></trkpt><trkpt lat="43.48909607668245" lon="10.92224871080488"><ele>418.25</ele><time>2026-04-20T13:30:39Z</time></trkpt><trkpt lat="43.489016733865036" lon="10.922115479047262"><ele>416.0</ele><time>2026-04-20T13:30:40Z</time></trkpt><trkpt lat="43.48893783969144" lon="10.92197074094704"><ele>416.0</ele><time>2026-04-20T13:30:41Z</time></trkpt><trkpt lat="43.48885573652423" lon="10.921816739469994"><ele>416.0</ele><time>2026-04-20T13:30:42Z</time></trkpt><trkpt lat="43.48876395283385" lon="10.921660501765015"><ele>416.0</ele><time>2026-04-20T13:30:43Z</time></trkpt><trkpt lat="43.48866095410404" lon="10.921508497802453"><ele>416.0</ele><time>2026-04-20T13:30:44Z</time></trkpt><trkpt lat="43.488555568943944" lon="10.921366997447734"><ele>415.0</ele><time>2026-04-20T13:30:45Z</time></trkpt><trkpt lat="43.48844947750556" lon="10.921231998973006"><ele>414.0</ele><time>2026-04-20T13:30:46Z</time></trkpt><trkpt lat="43.48834096770009" lon="10.921093331330908"><ele>413.0</ele><time>2026-04-20T13:30:47Z</time></trkpt><trkpt lat="43.488230947505755" lon="10.920952856023563"><ele>412.0</ele><time>2026-04-20T13:30:48Z</time></trkpt><trkpt lat="43.488121536093175" lon="10.920809651031337"><ele>412.0</ele><time>2026-04-20T13:30:49Z</time></trkpt><trkpt lat="43.488008068606575" lon="10.920663399259423"><ele>412.0</ele><time>2026-04-20T13:30:50Z</time></trkpt><trkpt lat="43.48788981442767" lon="10.920516911433833"><ele>412.0</ele><time>2026-04-20T13:30:51Z</time></trkpt><trkpt lat="43.48777337835555" lon="10.920366797816994"><ele>409.6666666666667</ele><time>2026-04-20T13:30:52Z</time></trkpt><trkpt lat="43.4876579147489" lon="10.920214510898038"><ele>407.33333333333337</ele><time>2026-04-20T13:30:53Z</time></trkpt><trkpt lat="43.48754801853602" lon="10.920067704549897"><ele>405.0</ele><time>2026-04-20T13:30:54Z</time></trkpt><trkpt lat="43.4874333531131" lon="10.91991841295835"><ele>405.0</ele><time>2026-04-20T13:30:55Z</time></trkpt><trkpt lat="43.48731803928566" lon="10.919772412830852"><ele>405.0</ele><time>2026-04-20T13:30:56Z</time></trkpt><trkpt lat="43.48720359090404" lon="10.919626695118978"><ele>405.0</ele><time>2026-04-20T13:30:57Z</time></trkpt><trkpt lat="43.487085259401155" lon="10.919479828165414"><ele>402.0</ele><time>2026-04-20T13:30:58Z</time></trkpt><trkpt lat="43.48696557311951" lon="10.919331106421106"><ele>399.0</ele><time>2026-04-20T13:30:59Z</time></trkpt><trkpt lat="43.48684912653879" lon="10.919182101869632"><ele>396.0</ele><time>2026-04-20T13:31:00Z</time></trkpt><trkpt lat="43.486729553670855" lon="10.91902835385296"><ele>396.0</ele><time>2026-04-20T13:31:01Z</time></trkpt><trkpt lat="43.48660854128876" lon="10.918870500463248"><ele>396.0</ele><time>2026-04-20T13:31:02Z</time></trkpt><trkpt lat="43.486489873666926" lon="10.918717910314998"><ele>396.0</ele><time>2026-04-20T13:31:03Z</time></trkpt><trkpt lat="43.48637237089963" lon="10.918565815816088"><ele>396.0</ele><time>2026-04-20T13:31:04Z</time></trkpt><trkpt lat="43.48626243138623" lon="10.918420484384617"><ele>396.0</ele><time>2026-04-20T13:31:05Z</time></trkpt><trkpt lat="43.486158738281894" lon="10.918288291692763"><ele>396.0</ele><time>2026-04-20T13:31:06Z</time></trkpt><trkpt lat="43.48606276555012" lon="10.91815860795268"><ele>396.0</ele><time>2026-04-20T13:31:07Z</time></trkpt><trkpt lat="43.485969032778826" lon="10.918013234562244"><ele>397.0</ele><time>2026-04-20T13:31:08Z</time></trkpt><trkpt lat="43.48588624964176" lon="10.9178394932175"><ele>398.0</ele><time>2026-04-20T13:31:09Z</time></trkpt><trkpt lat="43.48581760584929" lon="10.917644484786122"><ele>399.0</ele><time>2026-04-20T13:31:10Z</time></trkpt><trkpt lat="43.485751717506346" lon="10.917438890684648"><ele>399.0</ele><time>2026-04-20T13:31:11Z</time></trkpt><trkpt lat="43.48568285259369" lon="10.917233396832557"><ele>399.0</ele><time>2026-04-20T13:31:12Z</time></trkpt><trkpt lat="43.48561208820091" lon="10.917020639729085"><ele>399.0</ele><time>2026-04-20T13:31:13Z</time></trkpt><trkpt lat="43.48552894719728" lon="10.91680453585908"><ele>401.0</ele><time>2026-04-20T13:31:14Z</time></trkpt><trkpt lat="43.485446650221405" lon="10.916584366892467"><ele>403.0</ele><time>2026-04-20T13:31:15Z</time></trkpt><trkpt lat="43.48535607574445" lon="10.916360967693043"><ele>405.0</ele><time>2026-04-20T13:31:16Z</time></trkpt><trkpt lat="43.48527546394528" lon="10.916132315251382"><ele>400.0</ele><time>2026-04-20T13:31:17Z</time></trkpt><trkpt lat="43.485198518819274" lon="10.915907061080084"><ele>395.0</ele><time>2026-04-20T13:31:18Z</time></trkpt><trkpt lat="43.48511765865161" lon="10.915693394747656"><ele>390.0</ele><time>2026-04-20T13:31:19Z</time></trkpt><trkpt lat="43.48503879572275" lon="10.915480338390797"><ele>390.0</ele><time>2026-04-20T13:31:20Z</time></trkpt><trkpt lat="43.484957741930394" lon="10.915267167188507"><ele>390.0</ele><time>2026-04-20T13:31:21Z</time></trkpt><trkpt lat="43.48489153967604" lon="10.915058121434173"><ele>390.0</ele><time>2026-04-20T13:31:22Z</time></trkpt><trkpt lat="43.48483332246465" lon="10.914862950070189"><ele>391.75</ele><time>2026-04-20T13:31:23Z</time></trkpt><trkpt lat="43.48478749087966" lon="10.91467122969139"><ele>393.5</ele><time>2026-04-20T13:31:24Z</time></trkpt><trkpt lat="43.484751283231304" lon="10.9144783015814"><ele>395.25</ele><time>2026-04-20T13:31:25Z</time></trkpt><trkpt lat="43.484718540377955" lon="10.914277140114747"><ele>397.0</ele><time>2026-04-20T13:31:26Z</time></trkpt><trkpt lat="43.48467159782061" lon="10.91408128750652"><ele>398.0</ele><time>2026-04-20T13:31:27Z</time></trkpt><trkpt lat="43.48460697819408" lon="10.913895895629793"><ele>399.0</ele><time>2026-04-20T13:31:28Z</time></trkpt><trkpt lat="43.48453027300752" lon="10.913716985805975"><ele>400.0</ele><time>2026-04-20T13:31:29Z</time></trkpt><trkpt lat="43.484440412252866" lon="10.913541812067228"><ele>395.25</ele><time>2026-04-20T13:31:30Z</time></trkpt><trkpt lat="43.48434862751704" lon="10.91337700637673"><ele>390.5</ele><time>2026-04-20T13:31:31Z</time></trkpt><trkpt lat="43.48426403659301" lon="10.913219051784985"><ele>385.75</ele><time>2026-04-20T13:31:32Z</time></trkpt><trkpt lat="43.48419271419781" lon="10.913077356490321"><ele>381.0</ele><time>2026-04-20T13:31:33Z</time></trkpt><trkpt lat="43.48412698805736" lon="10.912956460181263"><ele>381.0</ele><time>2026-04-20T13:31:34Z</time></trkpt><trkpt lat="43.4840686218687" lon="10.912849112649912"><ele>381.0</ele><time>2026-04-20T13:31:35Z</time></trkpt><trkpt lat="43.48401355399604" lon="10.912740218874111"><ele>381.0</ele><time>2026-04-20T13:31:36Z</time></trkpt><trkpt lat="43.48396527202447" lon="10.912632584430515"><ele>381.0</ele><time>2026-04-20T13:31:37Z</time></trkpt><trkpt lat="43.48394437734123" lon="10.912524544071665"><ele>381.0</ele><time>2026-04-20T13:31:38Z</time></trkpt><trkpt lat="43.48393932907406" lon="10.912406601535041"><ele>381.8333333333333</ele><time>2026-04-20T13:31:39Z</time></trkpt><trkpt lat="43.4839564615831" lon="10.912296948553209"><ele>382.66666666666663</ele><time>2026-04-20T13:31:40Z</time></trkpt><trkpt lat="43.48399916702202" lon="10.912202312975943"><ele>383.5</ele><time>2026-04-20T13:31:41Z</time></trkpt><trkpt lat="43.48404798918824" lon="10.912120763700527"><ele>384.3333333333333</ele><time>2026-04-20T13:31:42Z</time></trkpt><trkpt lat="43.48410116879322" lon="10.912024964167061"><ele>385.16666666666663</ele><time>2026-04-20T13:31:43Z</time></trkpt><trkpt lat="43.484161643735604" lon="10.911913384485148"><ele>386.0</ele><time>2026-04-20T13:31:44Z</time></trkpt><trkpt lat="43.484228203420074" lon="10.911796186471227"><ele>384.0</ele><time>2026-04-20T13:31:45Z</time></trkpt><trkpt lat="43.48429704511066" lon="10.91167384335482"><ele>382.0</ele><time>2026-04-20T13:31:46Z</time></trkpt><trkpt lat="43.48437038119745" lon="10.911547727806985"><ele>380.0</ele><time>2026-04-20T13:31:47Z</time></trkpt><trkpt lat="43.48444357526516" lon="10.911415014900244"><ele>378.0</ele><time>2026-04-20T13:31:48Z</time></trkpt><trkpt lat="43.484524550095784" lon="10.911277648735345"><ele>377.75</ele><time>2026-04-20T13:31:49Z</time></trkpt><trkpt lat="43.48460175291328" lon="10.911141875624912"><ele>377.5</ele><time>2026-04-20T13:31:50Z</time></trkpt><trkpt lat="43.48467729803406" lon="10.91101347451045"><ele>377.25</ele><time>2026-04-20T13:31:51Z</time></trkpt><trkpt lat="43.484750154141246" lon="10.910890154846745"><ele>377.0</ele><time>2026-04-20T13:31:52Z</time></trkpt><trkpt lat="43.4848262985247" lon="10.910781917436008"><ele>377.0</ele><time>2026-04-20T13:31:53Z</time></trkpt><trkpt lat="43.48492996148853" lon="10.910694388719703"><ele>377.0</ele><time>2026-04-20T13:31:54Z</time></trkpt><trkpt lat="43.485044014649674" lon="10.910634447375294"><ele>377.0</ele><time>2026-04-20T13:31:55Z</time></trkpt><trkpt lat="43.48517014339482" lon="10.910606240679744"><ele>377.0</ele><time>2026-04-20T13:31:56Z</time></trkpt><trkpt lat="43.48530737200923" lon="10.910585977034467"><ele>378.0</ele><time>2026-04-20T13:31:57Z</time></trkpt><trkpt lat="43.485447620907365" lon="10.910559481078236"><ele>379.0</ele><time>2026-04-20T13:31:58Z</time></trkpt><trkpt lat="43.485577914804004" lon="10.910541740604474"><ele>380.0</ele><time>2026-04-20T13:31:59Z</time></trkpt><trkpt lat="43.48570377921137" lon="10.910517498113881"><ele>381.0</ele><time>2026-04-20T13:32:00Z</time></trkpt><trkpt lat="43.48583451847465" lon="10.910494811908782"><ele>381.0</ele><time>2026-04-20T13:32:01Z</time></trkpt><trkpt lat="43.48596005810068" lon="10.910468131954506"><ele>381.0</ele><time>2026-04-20T13:32:02Z</time></trkpt><trkpt lat="43.48609841457492" lon="10.910458258303231"><ele>381.0</ele><time>2026-04-20T13:32:03Z</time></trkpt><trkpt lat="43.48623650528259" lon="10.910454320179849"><ele>381.0</ele><time>2026-04-20T13:32:04Z</time></trkpt><trkpt lat="43.486373841136626" lon="10.910456422740108"><ele>379.0</ele><time>2026-04-20T13:32:05Z</time></trkpt><trkpt lat="43.48651085493689" lon="10.910456645341077"><ele>377.0</ele><time>2026-04-20T13:32:06Z</time></trkpt><trkpt lat="43.48663728233664" lon="10.91046549936563"><ele>375.0</ele><time>2026-04-20T13:32:07Z</time></trkpt><trkpt lat="43.486746493299094" lon="10.910456368445688"><ele>373.0</ele><time>2026-04-20T13:32:08Z</time></trkpt><trkpt lat="43.48685593376254" lon="10.910415931351926"><ele>373.0</ele><time>2026-04-20T13:32:09Z</time></trkpt><trkpt lat="43.48695910509435" lon="10.91032699768031"><ele>373.0</ele><time>2026-04-20T13:32:10Z</time></trkpt><trkpt lat="43.48706387466273" lon="10.910214154832943"><ele>373.0</ele><time>2026-04-20T13:32:11Z</time></trkpt><trkpt lat="43.48717070239362" lon="10.910089830450069"><ele>373.0</ele><time>2026-04-20T13:32:12Z</time></trkpt><trkpt lat="43.487271029171055" lon="10.909955744759532"><ele>374.0</ele><time>2026-04-20T13:32:13Z</time></trkpt><trkpt lat="43.487367740964054" lon="10.909808500914155"><ele>375.0</ele><time>2026-04-20T13:32:14Z</time></trkpt><trkpt lat="43.48745438535932" lon="10.909638414336076"><ele>376.0</ele><time>2026-04-20T13:32:15Z</time></trkpt><trkpt lat="43.48753081504547" lon="10.90945739961093"><ele>377.0</ele><time>2026-04-20T13:32:16Z</time></trkpt><trkpt lat="43.48760528557731" lon="10.909269221503031"><ele>371.0</ele><time>2026-04-20T13:32:17Z</time></trkpt><trkpt lat="43.48767609216732" lon="10.90908827427759"><ele>365.0</ele><time>2026-04-20T13:32:18Z</time></trkpt><trkpt lat="43.48773755164463" lon="10.908893434248515"><ele>359.0</ele><time>2026-04-20T13:32:19Z</time></trkpt><trkpt lat="43.48778435385369" lon="10.908682064362967"><ele>359.0</ele><time>2026-04-20T13:32:20Z</time></trkpt><trkpt lat="43.48782440275566" lon="10.908485455028107"><ele>359.0</ele><time>2026-04-20T13:32:21Z</time></trkpt><trkpt lat="43.48785639507047" lon="10.90827544192192"><ele>359.0</ele><time>2026-04-20T13:32:22Z</time></trkpt><trkpt lat="43.487881283014325" lon="10.908063861826287"><ele>358.25</ele><time>2026-04-20T13:32:23Z</time></trkpt><trkpt lat="43.487911511632305" lon="10.907850317933498"><ele>357.5</ele><time>2026-04-20T13:32:24Z</time></trkpt><trkpt lat="43.487936595446" lon="10.907651291193941"><ele>356.75</ele><time>2026-04-20T13:32:25Z</time></trkpt><trkpt lat="43.48796443492822" lon="10.907457465853037"><ele>356.0</ele><time>2026-04-20T13:32:26Z</time></trkpt><trkpt lat="43.48798079792217" lon="10.907258045212764"><ele>359.0</ele><time>2026-04-20T13:32:27Z</time></trkpt><trkpt lat="43.48799442074707" lon="10.907054469961013"><ele>362.0</ele><time>2026-04-20T13:32:28Z</time></trkpt><trkpt lat="43.487994457960006" lon="10.906839714492287"><ele>365.0</ele><time>2026-04-20T13:32:29Z</time></trkpt><trkpt lat="43.487981619980275" lon="10.90663097985064"><ele>366.25</ele><time>2026-04-20T13:32:30Z</time></trkpt><trkpt lat="43.48796461224222" lon="10.90643094665083"><ele>367.5</ele><time>2026-04-20T13:32:31Z</time></trkpt><trkpt lat="43.487953960550655" lon="10.906222461883457"><ele>368.75</ele><time>2026-04-20T13:32:32Z</time></trkpt><trkpt lat="43.48794032911412" lon="10.906021945863342"><ele>370.0</ele><time>2026-04-20T13:32:33Z</time></trkpt><trkpt lat="43.48792416536503" lon="10.905815375008707"><ele>365.5</ele><time>2026-04-20T13:32:34Z</time></trkpt><trkpt lat="43.487911684561965" lon="10.905613077171207"><ele>361.0</ele><time>2026-04-20T13:32:35Z</time></trkpt><trkpt lat="43.48789795059506" lon="10.905410281015962"><ele>356.5</ele><time>2026-04-20T13:32:36Z</time></trkpt><trkpt lat="43.487883484143865" lon="10.905220031164284"><ele>352.0</ele><time>2026-04-20T13:32:37Z</time></trkpt><trkpt lat="43.487871494305395" lon="10.905049672273421"><ele>351.5</ele><time>2026-04-20T13:32:38Z</time></trkpt><trkpt lat="43.48785860849045" lon="10.904882049079758"><ele>351.0</ele><time>2026-04-20T13:32:39Z</time></trkpt><trkpt lat="43.48784480412415" lon="10.904696028778027"><ele>350.5</ele><time>2026-04-20T13:32:40Z</time></trkpt><trkpt lat="43.48783531684242" lon="10.904503902381817"><ele>350.0</ele><time>2026-04-20T13:32:41Z</time></trkpt><trkpt lat="43.48783101854147" lon="10.90430579672824"><ele>350.25</ele><time>2026-04-20T13:32:42Z</time></trkpt><trkpt lat="43.487838083469434" lon="10.904106175993666"><ele>350.5</ele><time>2026-04-20T13:32:43Z</time></trkpt><trkpt lat="43.487851010061725" lon="10.903913185515679"><ele>350.75</ele><time>2026-04-20T13:32:44Z</time></trkpt><trkpt lat="43.487869358143314" lon="10.903749507155023"><ele>351.0</ele><time>2026-04-20T13:32:45Z</time></trkpt><trkpt lat="43.487885753103086" lon="10.903578507534732"><ele>351.0</ele><time>2026-04-20T13:32:46Z</time></trkpt><trkpt lat="43.487895288016155" lon="10.903407560581913"><ele>351.0</ele><time>2026-04-20T13:32:47Z</time></trkpt><trkpt lat="43.487879926097335" lon="10.90323657850206"><ele>351.0</ele><time>2026-04-20T13:32:48Z</time></trkpt><trkpt lat="43.48784848080505" lon="10.903080529154593"><ele>351.0</ele><time>2026-04-20T13:32:49Z</time></trkpt><trkpt lat="43.48779407521544" lon="10.902916193861406"><ele>351.0</ele><time>2026-04-20T13:32:50Z</time></trkpt><trkpt lat="43.487723873510994" lon="10.902772776861962"><ele>351.0</ele><time>2026-04-20T13:32:51Z</time></trkpt><trkpt lat="43.48765755565526" lon="10.902654710098775"><ele>351.0</ele><time>2026-04-20T13:32:52Z</time></trkpt><trkpt lat="43.48759859521692" lon="10.902530719991944"><ele>351.0</ele><time>2026-04-20T13:32:53Z</time></trkpt><trkpt lat="43.48755988636456" lon="10.902380649400088"><ele>351.0</ele><time>2026-04-20T13:32:54Z</time></trkpt><trkpt lat="43.487540859163445" lon="10.902209596540914"><ele>351.0</ele><time>2026-04-20T13:32:55Z</time></trkpt><trkpt lat="43.48753777153632" lon="10.902023487527158"><ele>351.0</ele><time>2026-04-20T13:32:56Z</time></trkpt><trkpt lat="43.48753018480457" lon="10.901831164750517"><ele>351.0</ele><time>2026-04-20T13:32:57Z</time></trkpt><trkpt lat="43.487524761056605" lon="10.901646496968704"><ele>351.0</ele><time>2026-04-20T13:32:58Z</time></trkpt><trkpt lat="43.48751644420399" lon="10.901464274337455"><ele>351.0</ele><time>2026-04-20T13:32:59Z</time></trkpt><trkpt lat="43.48751305646598" lon="10.901287717743767"><ele>351.0</ele><time>2026-04-20T13:33:00Z</time></trkpt><trkpt lat="43.48750771514002" lon="10.90112011652903"><ele>351.0</ele><time>2026-04-20T13:33:01Z</time></trkpt><trkpt lat="43.48751797138107" lon="10.900983965468003"><ele>351.0</ele><time>2026-04-20T13:33:02Z</time></trkpt><trkpt lat="43.48754737076783" lon="10.900844148044932"><ele>351.0</ele><time>2026-04-20T13:33:03Z</time></trkpt><trkpt lat="43.48760444303703" lon="10.900712126734653"><ele>351.0</ele><time>2026-04-20T13:33:04Z</time></trkpt><trkpt lat="43.48767738002105" lon="10.900597859871752"><ele>351.0</ele><time>2026-04-20T13:33:05Z</time></trkpt><trkpt lat="43.48774760716173" lon="10.900503709721582"><ele>351.0</ele><time>2026-04-20T13:33:06Z</time></trkpt><trkpt lat="43.48780076818374" lon="10.900388040205172"><ele>351.0</ele><time>2026-04-20T13:33:07Z</time></trkpt><trkpt lat="43.487828223523756" lon="10.900255909698702"><ele>351.0</ele><time>2026-04-20T13:33:08Z</time></trkpt><trkpt lat="43.48783027573097" lon="10.900107997882843"><ele>351.0</ele><time>2026-04-20T13:33:09Z</time></trkpt><trkpt lat="43.48780334189721" lon="10.899958453764409"><ele>351.0</ele><time>2026-04-20T13:33:10Z</time></trkpt><trkpt lat="43.48775173697223" lon="10.899816011041713"><ele>351.0</ele><time>2026-04-20T13:33:11Z</time></trkpt><trkpt lat="43.48769356006593" lon="10.899680440292077"><ele>350.0</ele><time>2026-04-20T13:33:12Z</time></trkpt><trkpt lat="43.4876424501161" lon="10.89954995456203"><ele>349.0</ele><time>2026-04-20T13:33:13Z</time></trkpt><trkpt lat="43.48760656389919" lon="10.899405034908149"><ele>348.0</ele><time>2026-04-20T13:33:14Z</time></trkpt><trkpt lat="43.48759075558198" lon="10.899246575868913"><ele>347.0</ele><time>2026-04-20T13:33:15Z</time></trkpt><trkpt lat="43.487594338488464" lon="10.899088039163143"><ele>347.0</ele><time>2026-04-20T13:33:16Z</time></trkpt><trkpt lat="43.4876073774976" lon="10.898915845656695"><ele>347.0</ele><time>2026-04-20T13:33:17Z</time></trkpt><trkpt lat="43.48762872941764" lon="10.898739164651614"><ele>347.0</ele><time>2026-04-20T13:33:18Z</time></trkpt><trkpt lat="43.48766293806471" lon="10.898557313066936"><ele>347.0</ele><time>2026-04-20T13:33:19Z</time></trkpt><trkpt lat="43.48769778175904" lon="10.898373660311677"><ele>346.0</ele><time>2026-04-20T13:33:20Z</time></trkpt><trkpt lat="43.48773321538808" lon="10.89818575547958"><ele>345.0</ele><time>2026-04-20T13:33:21Z</time></trkpt><trkpt lat="43.48776534532954" lon="10.897992250510883"><ele>344.0</ele><time>2026-04-20T13:33:22Z</time></trkpt><trkpt lat="43.48780070048459" lon="10.897815770192313"><ele>343.0</ele><time>2026-04-20T13:33:23Z</time></trkpt><trkpt lat="43.48782904454886" lon="10.897645136812315"><ele>341.0</ele><time>2026-04-20T13:33:24Z</time></trkpt><trkpt lat="43.48784249588281" lon="10.897477359243844"><ele>339.0</ele><time>2026-04-20T13:33:25Z</time></trkpt><trkpt lat="43.487834236609665" lon="10.897299960348816"><ele>337.0</ele><time>2026-04-20T13:33:26Z</time></trkpt><trkpt lat="43.48780920773197" lon="10.897119385197449"><ele>335.0</ele><time>2026-04-20T13:33:27Z</time></trkpt><trkpt lat="43.487770274114716" lon="10.89692532496246"><ele>334.25</ele><time>2026-04-20T13:33:28Z</time></trkpt><trkpt lat="43.487731916260024" lon="10.896739349534618"><ele>333.5</ele><time>2026-04-20T13:33:29Z</time></trkpt><trkpt lat="43.48769792032722" lon="10.89656386133248"><ele>332.75</ele><time>2026-04-20T13:33:30Z</time></trkpt><trkpt lat="43.4876713361394" lon="10.896375580088032"><ele>332.0</ele><time>2026-04-20T13:33:31Z</time></trkpt><trkpt lat="43.48766981106443" lon="10.896183419821293"><ele>332.0</ele><time>2026-04-20T13:33:32Z</time></trkpt><trkpt lat="43.487671635174856" lon="10.89599403337734"><ele>332.0</ele><time>2026-04-20T13:33:33Z</time></trkpt><trkpt lat="43.48766618784364" lon="10.895807043346727"><ele>332.0</ele><time>2026-04-20T13:33:34Z</time></trkpt><trkpt lat="43.487669343552476" lon="10.895632032415891"><ele>332.0</ele><time>2026-04-20T13:33:35Z</time></trkpt><trkpt lat="43.48766213682455" lon="10.895475981684458"><ele>332.0</ele><time>2026-04-20T13:33:36Z</time></trkpt><trkpt lat="43.487650293719724" lon="10.895337691939675"><ele>332.0</ele><time>2026-04-20T13:33:37Z</time></trkpt><trkpt lat="43.48762521790622" lon="10.89520984556505"><ele>332.0</ele><time>2026-04-20T13:33:38Z</time></trkpt><trkpt lat="43.48757338609537" lon="10.895083889262569"><ele>332.0</ele><time>2026-04-20T13:33:39Z</time></trkpt><trkpt lat="43.48749466998145" lon="10.894980300709316"><ele>332.0</ele><time>2026-04-20T13:33:40Z</time></trkpt><trkpt lat="43.48738941280406" lon="10.894883886746882"><ele>332.0</ele><time>2026-04-20T13:33:41Z</time></trkpt><trkpt lat="43.48727326113514" lon="10.894808391760316"><ele>332.0</ele><time>2026-04-20T13:33:42Z</time></trkpt><trkpt lat="43.48714222037692" lon="10.894735483937342"><ele>332.0</ele><time>2026-04-20T13:33:43Z</time></trkpt><trkpt lat="43.487006282714994" lon="10.894654601296484"><ele>332.0</ele><time>2026-04-20T13:33:44Z</time></trkpt><trkpt lat="43.48687606522622" lon="10.894571250705168"><ele>328.0</ele><time>2026-04-20T13:33:45Z</time></trkpt><trkpt lat="43.486750263675596" lon="10.894487399146138"><ele>324.0</ele><time>2026-04-20T13:33:46Z</time></trkpt><trkpt lat="43.486628303342876" lon="10.89440954169648"><ele>320.0</ele><time>2026-04-20T13:33:47Z</time></trkpt><trkpt lat="43.486509130525384" lon="10.894336592238357"><ele>316.0</ele><time>2026-04-20T13:33:48Z</time></trkpt><trkpt lat="43.486389759187" lon="10.894261591381282"><ele>314.75</ele><time>2026-04-20T13:33:49Z</time></trkpt><trkpt lat="43.48627712525407" lon="10.894192885606198"><ele>313.5</ele><time>2026-04-20T13:33:50Z</time></trkpt><trkpt lat="43.486174664899174" lon="10.894122813722289"><ele>312.25</ele><time>2026-04-20T13:33:51Z</time></trkpt><trkpt lat="43.4860810679261" lon="10.894052706545441"><ele>311.0</ele><time>2026-04-20T13:33:52Z</time></trkpt><trkpt lat="43.48599765875573" lon="10.893962694712778"><ele>311.0</ele><time>2026-04-20T13:33:53Z</time></trkpt><trkpt lat="43.48592849678769" lon="10.893834537576426"><ele>311.0</ele><time>2026-04-20T13:33:54Z</time></trkpt><trkpt lat="43.48588027805105" lon="10.893678594399574"><ele>311.0</ele><time>2026-04-20T13:33:55Z</time></trkpt><trkpt lat="43.48584974340352" lon="10.893512070451584"><ele>311.0</ele><time>2026-04-20T13:33:56Z</time></trkpt><trkpt lat="43.485836874122484" lon="10.893333598931289"><ele>311.75</ele><time>2026-04-20T13:33:57Z</time></trkpt><trkpt lat="43.485817248545274" lon="10.893152029903623"><ele>312.5</ele><time>2026-04-20T13:33:58Z</time></trkpt><trkpt lat="43.48578654077223" lon="10.892965344628376"><ele>313.25</ele><time>2026-04-20T13:33:59Z</time></trkpt><trkpt lat="43.48574309217185" lon="10.892782942711431"><ele>314.0</ele><time>2026-04-20T13:34:00Z</time></trkpt><trkpt lat="43.48568676418903" lon="10.892598090774849"><ele>313.0</ele><time>2026-04-20T13:34:01Z</time></trkpt><trkpt lat="43.48562386948345" lon="10.892424797725635"><ele>312.0</ele><time>2026-04-20T13:34:02Z</time></trkpt><trkpt lat="43.48556538324523" lon="10.89224966837131"><ele>311.0</ele><time>2026-04-20T13:34:03Z</time></trkpt><trkpt lat="43.48550619574118" lon="10.892072516846403"><ele>310.0</ele><time>2026-04-20T13:34:04Z</time></trkpt><trkpt lat="43.48544480232798" lon="10.891895193243055"><ele>307.5</ele><time>2026-04-20T13:34:05Z</time></trkpt><trkpt lat="43.48538352619316" lon="10.8917231956679"><ele>305.0</ele><time>2026-04-20T13:34:06Z</time></trkpt><trkpt lat="43.485321279101655" lon="10.891546997765142"><ele>302.5</ele><time>2026-04-20T13:34:07Z</time></trkpt><trkpt lat="43.48526284096226" lon="10.891381326097806"><ele>300.0</ele><time>2026-04-20T13:34:08Z</time></trkpt><trkpt lat="43.48520020777506" lon="10.891204769547416"><ele>300.0</ele><time>2026-04-20T13:34:09Z</time></trkpt><trkpt lat="43.48513716717466" lon="10.89103148204492"><ele>300.0</ele><time>2026-04-20T13:34:10Z</time></trkpt><trkpt lat="43.4850786260532" lon="10.890859194197073"><ele>300.0</ele><time>2026-04-20T13:34:11Z</time></trkpt><trkpt lat="43.48502210487342" lon="10.890690547284809"><ele>300.0</ele><time>2026-04-20T13:34:12Z</time></trkpt><trkpt lat="43.484963284624605" lon="10.89052473500579"><ele>300.5</ele><time>2026-04-20T13:34:13Z</time></trkpt><trkpt lat="43.4849084444499" lon="10.890368296780979"><ele>301.0</ele><time>2026-04-20T13:34:14Z</time></trkpt><trkpt lat="43.48485096975571" lon="10.890212259192582"><ele>301.5</ele><time>2026-04-20T13:34:15Z</time></trkpt><trkpt lat="43.48477921010774" lon="10.890067605538247"><ele>302.0</ele><time>2026-04-20T13:34:16Z</time></trkpt><trkpt lat="43.48469178564428" lon="10.889929223591672"><ele>302.75</ele><time>2026-04-20T13:34:17Z</time></trkpt><trkpt lat="43.48459168967514" lon="10.889809508966504"><ele>303.5</ele><time>2026-04-20T13:34:18Z</time></trkpt><trkpt lat="43.48447445199193" lon="10.889693596582196"><ele>304.25</ele><time>2026-04-20T13:34:19Z</time></trkpt><trkpt lat="43.48436971150527" lon="10.889592429178165"><ele>305.0</ele><time>2026-04-20T13:34:20Z</time></trkpt><trkpt lat="43.4842698503159" lon="10.889489245730312"><ele>305.0</ele><time>2026-04-20T13:34:21Z</time></trkpt><trkpt lat="43.48418464657257" lon="10.889372186003714"><ele>305.0</ele><time>2026-04-20T13:34:22Z</time></trkpt><trkpt lat="43.48412015212294" lon="10.889237346025224"><ele>305.0</ele><time>2026-04-20T13:34:23Z</time></trkpt><trkpt lat="43.4840719268797" lon="10.889076150613386"><ele>305.0</ele><time>2026-04-20T13:34:24Z</time></trkpt><trkpt lat="43.4840324503937" lon="10.88890752066084"><ele>303.0</ele><time>2026-04-20T13:34:25Z</time></trkpt><trkpt lat="43.48399908744096" lon="10.888746756146798"><ele>301.0</ele><time>2026-04-20T13:34:26Z</time></trkpt><trkpt lat="43.483961080913645" lon="10.888594698125353"><ele>299.0</ele><time>2026-04-20T13:34:27Z</time></trkpt><trkpt lat="43.483908838713454" lon="10.888458090636885"><ele>297.0</ele><time>2026-04-20T13:34:28Z</time></trkpt><trkpt lat="43.48383683746178" lon="10.888339538131373"><ele>298.6</ele><time>2026-04-20T13:34:29Z</time></trkpt><trkpt lat="43.483752177975546" lon="10.888238570996622"><ele>300.2</ele><time>2026-04-20T13:34:30Z</time></trkpt><trkpt lat="43.48365372124666" lon="10.888150660604046"><ele>301.8</ele><time>2026-04-20T13:34:31Z</time></trkpt><trkpt lat="43.483561503825456" lon="10.88807464993649"><ele>303.4</ele><time>2026-04-20T13:34:32Z</time></trkpt><trkpt lat="43.48348651648629" lon="10.887997528868098"><ele>305.0</ele><time>2026-04-20T13:34:33Z</time></trkpt><trkpt lat="43.48343374378018" lon="10.887911361210056"><ele>305.0</ele><time>2026-04-20T13:34:34Z</time></trkpt><trkpt lat="43.483408994097275" lon="10.887811745141107"><ele>305.0</ele><time>2026-04-20T13:34:35Z</time></trkpt><trkpt lat="43.48341315404943" lon="10.887702143815241"><ele>305.0</ele><time>2026-04-20T13:34:36Z</time></trkpt><trkpt lat="43.483449800202266" lon="10.887595546635929"><ele>305.0</ele><time>2026-04-20T13:34:37Z</time></trkpt><trkpt lat="43.483516448044305" lon="10.887504479397847"><ele>305.0</ele><time>2026-04-20T13:34:38Z</time></trkpt><trkpt lat="43.48360035995244" lon="10.887419362819092"><ele>305.0</ele><time>2026-04-20T13:34:39Z</time></trkpt><trkpt lat="43.483700777953096" lon="10.88734050552271"><ele>300.5</ele><time>2026-04-20T13:34:40Z</time></trkpt><trkpt lat="43.48380427355052" lon="10.887249367607282"><ele>296.0</ele><time>2026-04-20T13:34:41Z</time></trkpt><trkpt lat="43.48389996427879" lon="10.88714990440623"><ele>291.5</ele><time>2026-04-20T13:34:42Z</time></trkpt><trkpt lat="43.483990134201704" lon="10.88703533449125"><ele>287.0</ele><time>2026-04-20T13:34:43Z</time></trkpt><trkpt lat="43.484075677423114" lon="10.886899254205051"><ele>288.5</ele><time>2026-04-20T13:34:44Z</time></trkpt><trkpt lat="43.484152345290966" lon="10.886754450618222"><ele>290.0</ele><time>2026-04-20T13:34:45Z</time></trkpt><trkpt lat="43.48422267127042" lon="10.886622337307417"><ele>291.5</ele><time>2026-04-20T13:34:46Z</time></trkpt><trkpt lat="43.4842930612527" lon="10.88649219097373"><ele>293.0</ele><time>2026-04-20T13:34:47Z</time></trkpt><trkpt lat="43.48436209941648" lon="10.886360958970155"><ele>293.0</ele><time>2026-04-20T13:34:48Z</time></trkpt><trkpt lat="43.48442340553544" lon="10.886237319192784"><ele>293.0</ele><time>2026-04-20T13:34:49Z</time></trkpt><trkpt lat="43.48448364750194" lon="10.886118789460802"><ele>293.0</ele><time>2026-04-20T13:34:50Z</time></trkpt><trkpt lat="43.48453928899404" lon="10.885987636478017"><ele>293.0</ele><time>2026-04-20T13:34:51Z</time></trkpt><trkpt lat="43.48456987965686" lon="10.88586111665093"><ele>293.0</ele><time>2026-04-20T13:34:52Z</time></trkpt><trkpt lat="43.484579100473674" lon="10.885732091624217"><ele>293.5</ele><time>2026-04-20T13:34:53Z</time></trkpt><trkpt lat="43.48456227696082" lon="10.88558806592993"><ele>294.0</ele><time>2026-04-20T13:34:54Z</time></trkpt><trkpt lat="43.48453139979082" lon="10.885431636621822"><ele>294.5</ele><time>2026-04-20T13:34:55Z</time></trkpt><trkpt lat="43.484499432638245" lon="10.885260463365768"><ele>295.0</ele><time>2026-04-20T13:34:56Z</time></trkpt><trkpt lat="43.48446697097983" lon="10.885077960192525"><ele>294.0</ele><time>2026-04-20T13:34:57Z</time></trkpt><trkpt lat="43.48443058165895" lon="10.884888278345322"><ele>293.0</ele><time>2026-04-20T13:34:58Z</time></trkpt><trkpt lat="43.48439633409393" lon="10.884704058481228"><ele>292.0</ele><time>2026-04-20T13:34:59Z</time></trkpt><trkpt lat="43.48435977559821" lon="10.884535491000582"><ele>291.0</ele><time>2026-04-20T13:35:00Z</time></trkpt><trkpt lat="43.48432834487162" lon="10.884348314817968"><ele>290.0</ele><time>2026-04-20T13:35:01Z</time></trkpt><trkpt lat="43.48430139174947" lon="10.884154464444768"><ele>289.0</ele><time>2026-04-20T13:35:02Z</time></trkpt><trkpt lat="43.48427128195069" lon="10.883993645667374"><ele>288.0</ele><time>2026-04-20T13:35:03Z</time></trkpt><trkpt lat="43.48423387918005" lon="10.883843637537918"><ele>287.0</ele><time>2026-04-20T13:35:04Z</time></trkpt><trkpt lat="43.4841843955244" lon="10.88370660328916"><ele>287.0</ele><time>2026-04-20T13:35:05Z</time></trkpt><trkpt lat="43.48412110041462" lon="10.883588225876254"><ele>287.0</ele><time>2026-04-20T13:35:06Z</time></trkpt><trkpt lat="43.484037478875216" lon="10.883479163093176"><ele>287.0</ele><time>2026-04-20T13:35:07Z</time></trkpt><trkpt lat="43.483947908237944" lon="10.883366815778498"><ele>287.0</ele><time>2026-04-20T13:35:08Z</time></trkpt><trkpt lat="43.48386257184913" lon="10.88322936644044"><ele>287.25</ele><time>2026-04-20T13:35:09Z</time></trkpt><trkpt lat="43.48379568553228" lon="10.883072890239875"><ele>287.5</ele><time>2026-04-20T13:35:10Z</time></trkpt><trkpt lat="43.48374241170771" lon="10.882900644682522"><ele>287.75</ele><time>2026-04-20T13:35:11Z</time></trkpt><trkpt lat="43.48370199356435" lon="10.8827326248006"><ele>288.0</ele><time>2026-04-20T13:35:12Z</time></trkpt><trkpt lat="43.483674149813176" lon="10.882575258242262"><ele>286.4</ele><time>2026-04-20T13:35:13Z</time></trkpt><trkpt lat="43.483643493693734" lon="10.882413704983783"><ele>284.8</ele><time>2026-04-20T13:35:14Z</time></trkpt><trkpt lat="43.483617595115064" lon="10.882267945803322"><ele>283.2</ele><time>2026-04-20T13:35:15Z</time></trkpt><trkpt lat="43.483584160633605" lon="10.882138322556003"><ele>281.6</ele><time>2026-04-20T13:35:16Z</time></trkpt><trkpt lat="43.48354489947244" lon="10.882028300113857"><ele>280.0</ele><time>2026-04-20T13:35:17Z</time></trkpt><trkpt lat="43.48349144956636" lon="10.881923118674214"><ele>280.0</ele><time>2026-04-20T13:35:18Z</time></trkpt><trkpt lat="43.48341630463495" lon="10.881831678502365"><ele>280.0</ele><time>2026-04-20T13:35:19Z</time></trkpt><trkpt lat="43.48332447703328" lon="10.881765179877677"><ele>280.0</ele><time>2026-04-20T13:35:20Z</time></trkpt><trkpt lat="43.48321279982039" lon="10.881720351751044"><ele>280.0</ele><time>2026-04-20T13:35:21Z</time></trkpt><trkpt lat="43.48309435317257" lon="10.881694971805581"><ele>280.0</ele><time>2026-04-20T13:35:22Z</time></trkpt><trkpt lat="43.48296881283084" lon="10.881675701669616"><ele>280.0</ele><time>2026-04-20T13:35:23Z</time></trkpt><trkpt lat="43.48285367791043" lon="10.881671588970663"><ele>280.0</ele><time>2026-04-20T13:35:24Z</time></trkpt><trkpt lat="43.482735123464295" lon="10.8816868862823"><ele>280.0</ele><time>2026-04-20T13:35:25Z</time></trkpt><trkpt lat="43.482614328359396" lon="10.881742602924392"><ele>280.0</ele><time>2026-04-20T13:35:26Z</time></trkpt><trkpt lat="43.48250037909895" lon="10.881816542533414"><ele>280.0</ele><time>2026-04-20T13:35:27Z</time></trkpt><trkpt lat="43.48239354480344" lon="10.881916436592686"><ele>280.0</ele><time>2026-04-20T13:35:28Z</time></trkpt><trkpt lat="43.48227697370608" lon="10.882013965460548"><ele>280.0</ele><time>2026-04-20T13:35:29Z</time></trkpt><trkpt lat="43.482171963164326" lon="10.882125850295616"><ele>280.0</ele><time>2026-04-20T13:35:30Z</time></trkpt><trkpt lat="43.48207093838767" lon="10.88223050247789"><ele>278.4</ele><time>2026-04-20T13:35:31Z</time></trkpt><trkpt lat="43.48197791054121" lon="10.882328097138878"><ele>276.8</ele><time>2026-04-20T13:35:32Z</time></trkpt><trkpt lat="43.48189766256769" lon="10.882408436379292"><ele>275.2</ele><time>2026-04-20T13:35:33Z</time></trkpt><trkpt lat="43.48182533852909" lon="10.88247600840365"><ele>273.6</ele><time>2026-04-20T13:35:34Z</time></trkpt><trkpt lat="43.481752427560075" lon="10.882516616100155"><ele>272.0</ele><time>2026-04-20T13:35:35Z</time></trkpt><trkpt lat="43.4816684476946" lon="10.882527389949242"><ele>272.0</ele><time>2026-04-20T13:35:36Z</time></trkpt><trkpt lat="43.48158653739739" lon="10.882495726011477"><ele>272.0</ele><time>2026-04-20T13:35:37Z</time></trkpt><trkpt lat="43.48151600828665" lon="10.88243103105646"><ele>272.0</ele><time>2026-04-20T13:35:38Z</time></trkpt><trkpt lat="43.481464531714586" lon="10.88233412721571"><ele>272.0</ele><time>2026-04-20T13:35:39Z</time></trkpt><trkpt lat="43.48142628846385" lon="10.882206916745284"><ele>272.0</ele><time>2026-04-20T13:35:40Z</time></trkpt><trkpt lat="43.48140012259319" lon="10.882053478236978"><ele>272.0</ele><time>2026-04-20T13:35:41Z</time></trkpt><trkpt lat="43.48138025717442" lon="10.881890363587514"><ele>272.0</ele><time>2026-04-20T13:35:42Z</time></trkpt><trkpt lat="43.48135712467183" lon="10.881719978927299"><ele>272.0</ele><time>2026-04-20T13:35:43Z</time></trkpt><trkpt lat="43.481334607538976" lon="10.881542492936925"><ele>272.0</ele><time>2026-04-20T13:35:44Z</time></trkpt><trkpt lat="43.481307084771984" lon="10.881360938521649"><ele>271.0</ele><time>2026-04-20T13:35:45Z</time></trkpt><trkpt lat="43.48127016214477" lon="10.881194576100023"><ele>270.0</ele><time>2026-04-20T13:35:46Z</time></trkpt><trkpt lat="43.48123358487359" lon="10.881027580003268"><ele>269.0</ele><time>2026-04-20T13:35:47Z</time></trkpt><trkpt lat="43.48116488683627" lon="10.880857067017718"><ele>268.0</ele><time>2026-04-20T13:35:48Z</time></trkpt><trkpt lat="43.48108773636721" lon="10.88068642515978"><ele>268.0</ele><time>2026-04-20T13:35:49Z</time></trkpt><trkpt lat="43.481007333615615" lon="10.880528281415804"><ele>268.0</ele><time>2026-04-20T13:35:50Z</time></trkpt><trkpt lat="43.48092081282553" lon="10.880361190119295"><ele>268.0</ele><time>2026-04-20T13:35:51Z</time></trkpt><trkpt lat="43.48082865931519" lon="10.88018145688589"><ele>268.0</ele><time>2026-04-20T13:35:52Z</time></trkpt><trkpt lat="43.480751366731255" lon="10.879984376487778"><ele>266.0</ele><time>2026-04-20T13:35:53Z</time></trkpt><trkpt lat="43.48065395236128" lon="10.879774272569557"><ele>264.0</ele><time>2026-04-20T13:35:54Z</time></trkpt><trkpt lat="43.48055832496058" lon="10.879564149883166"><ele>262.0</ele><time>2026-04-20T13:35:55Z</time></trkpt><trkpt lat="43.48045636018755" lon="10.879356304045512"><ele>261.66666666666663</ele><time>2026-04-20T13:35:56Z</time></trkpt><trkpt lat="43.48036607667096" lon="10.879138979814911"><ele>261.3333333333333</ele><time>2026-04-20T13:35:57Z</time></trkpt><trkpt lat="43.48026181187304" lon="10.878919022615328"><ele>261.0</ele><time>2026-04-20T13:35:58Z</time></trkpt><trkpt lat="43.480167550170975" lon="10.878706878397123"><ele>261.0</ele><time>2026-04-20T13:35:59Z</time></trkpt><trkpt lat="43.48008452686008" lon="10.878520364026008"><ele>261.0</ele><time>2026-04-20T13:36:00Z</time></trkpt><trkpt lat="43.48000157997162" lon="10.878347776768761"><ele>261.0</ele><time>2026-04-20T13:36:01Z</time></trkpt><trkpt lat="43.47992680016718" lon="10.8781751284886"><ele>258.75</ele><time>2026-04-20T13:36:02Z</time></trkpt><trkpt lat="43.47985885903252" lon="10.878015898066494"><ele>256.5</ele><time>2026-04-20T13:36:03Z</time></trkpt><trkpt lat="43.47978247647081" lon="10.87785146485578"><ele>254.25</ele><time>2026-04-20T13:36:04Z</time></trkpt><trkpt lat="43.479703512886566" lon="10.877671999741283"><ele>252.0</ele><time>2026-04-20T13:36:05Z</time></trkpt><trkpt lat="43.479623813822116" lon="10.877489503672102"><ele>252.0</ele><time>2026-04-20T13:36:06Z</time></trkpt><trkpt lat="43.47954504535261" lon="10.877305588907369"><ele>252.0</ele><time>2026-04-20T13:36:07Z</time></trkpt><trkpt lat="43.47947426543122" lon="10.877119185718056"><ele>252.0</ele><time>2026-04-20T13:36:08Z</time></trkpt><trkpt lat="43.47941969137708" lon="10.876953836846884"><ele>252.0</ele><time>2026-04-20T13:36:09Z</time></trkpt><trkpt lat="43.47937675330911" lon="10.876782641267344"><ele>252.0</ele><time>2026-04-20T13:36:10Z</time></trkpt><trkpt lat="43.47934894132808" lon="10.876588492656383"><ele>252.0</ele><time>2026-04-20T13:36:11Z</time></trkpt><trkpt lat="43.47933578047824" lon="10.876380907875221"><ele>252.0</ele><time>2026-04-20T13:36:12Z</time></trkpt><trkpt lat="43.47932182265633" lon="10.876195758120003"><ele>252.0</ele><time>2026-04-20T13:36:13Z</time></trkpt><trkpt lat="43.47930594564928" lon="10.876024002544048"><ele>251.39999999999998</ele><time>2026-04-20T13:36:14Z</time></trkpt><trkpt lat="43.479284544977716" lon="10.875879964968593"><ele>250.79999999999998</ele><time>2026-04-20T13:36:15Z</time></trkpt><trkpt lat="43.479259072284556" lon="10.8757446858007"><ele>250.2</ele><time>2026-04-20T13:36:16Z</time></trkpt><trkpt lat="43.4792190661508" lon="10.87562554042993"><ele>249.6</ele><time>2026-04-20T13:36:17Z</time></trkpt><trkpt lat="43.479156225107" lon="10.875508274916802"><ele>249.0</ele><time>2026-04-20T13:36:18Z</time></trkpt><trkpt lat="43.4790703685165" lon="10.875401537496176"><ele>249.0</ele><time>2026-04-20T13:36:19Z</time></trkpt><trkpt lat="43.47895977944711" lon="10.875300352887425"><ele>249.0</ele><time>2026-04-20T13:36:20Z</time></trkpt><trkpt lat="43.478833872655365" lon="10.875218584383777"><ele>249.0</ele><time>2026-04-20T13:36:21Z</time></trkpt><trkpt lat="43.478690257010214" lon="10.875136552782399"><ele>249.0</ele><time>2026-04-20T13:36:22Z</time></trkpt><trkpt lat="43.4785430643263" lon="10.875044016873415"><ele>247.5</ele><time>2026-04-20T13:36:23Z</time></trkpt><trkpt lat="43.478404302604716" lon="10.874952244303444"><ele>246.0</ele><time>2026-04-20T13:36:24Z</time></trkpt><trkpt lat="43.478272198887424" lon="10.87487017415703"><ele>244.5</ele><time>2026-04-20T13:36:25Z</time></trkpt><trkpt lat="43.47814280594246" lon="10.874785614729241"><ele>243.0</ele><time>2026-04-20T13:36:26Z</time></trkpt><trkpt lat="43.478013722503235" lon="10.874701139367396"><ele>242.33333333333331</ele><time>2026-04-20T13:36:27Z</time></trkpt><trkpt lat="43.477876009790485" lon="10.874610496826286"><ele>241.66666666666666</ele><time>2026-04-20T13:36:28Z</time></trkpt><trkpt lat="43.477742544555475" lon="10.874523814565121"><ele>241.0</ele><time>2026-04-20T13:36:29Z</time></trkpt><trkpt lat="43.47760352875592" lon="10.874419456977565"><ele>241.0</ele><time>2026-04-20T13:36:30Z</time></trkpt><trkpt lat="43.47746580870206" lon="10.874306767427578"><ele>241.0</ele><time>2026-04-20T13:36:31Z</time></trkpt><trkpt lat="43.477326456961286" lon="10.874179448855507"><ele>241.0</ele><time>2026-04-20T13:36:32Z</time></trkpt><trkpt lat="43.47719216308094" lon="10.874053315588855"><ele>237.66666666666666</ele><time>2026-04-20T13:36:33Z</time></trkpt><trkpt lat="43.4770648880144" lon="10.87392512318429"><ele>234.33333333333331</ele><time>2026-04-20T13:36:34Z</time></trkpt><trkpt lat="43.47693659085238" lon="10.873796920542718"><ele>231.0</ele><time>2026-04-20T13:36:35Z</time></trkpt><trkpt lat="43.47680461886688" lon="10.873661520527659"><ele>231.0</ele><time>2026-04-20T13:36:36Z</time></trkpt><trkpt lat="43.47667113895877" lon="10.873519817651417"><ele>231.0</ele><time>2026-04-20T13:36:37Z</time></trkpt><trkpt lat="43.476532950550606" lon="10.873382589947594"><ele>231.0</ele><time>2026-04-20T13:36:38Z</time></trkpt><trkpt lat="43.476396321425476" lon="10.873240926439761"><ele>226.33333333333331</ele><time>2026-04-20T13:36:39Z</time></trkpt><trkpt lat="43.4762681230334" lon="10.87310454351818"><ele>221.66666666666666</ele><time>2026-04-20T13:36:40Z</time></trkpt><trkpt lat="43.47614198512914" lon="10.872973788724252"><ele>217.0</ele><time>2026-04-20T13:36:41Z</time></trkpt><trkpt lat="43.47601560232347" lon="10.87284402603799"><ele>217.0</ele><time>2026-04-20T13:36:42Z</time></trkpt><trkpt lat="43.475900042350105" lon="10.872705995856629"><ele>217.0</ele><time>2026-04-20T13:36:43Z</time></trkpt><trkpt lat="43.47579030952294" lon="10.872542886455735"><ele>217.0</ele><time>2026-04-20T13:36:44Z</time></trkpt><trkpt lat="43.475696174974665" lon="10.87236163111659"><ele>217.0</ele><time>2026-04-20T13:36:45Z</time></trkpt><trkpt lat="43.475609744653006" lon="10.872169434500911"><ele>217.0</ele><time>2026-04-20T13:36:46Z</time></trkpt><trkpt lat="43.475524495248976" lon="10.87196158891364"><ele>217.0</ele><time>2026-04-20T13:36:47Z</time></trkpt><trkpt lat="43.47543811042676" lon="10.871753502357269"><ele>216.33333333333331</ele><time>2026-04-20T13:36:48Z</time></trkpt><trkpt lat="43.475359954726606" lon="10.871535607908488"><ele>215.66666666666669</ele><time>2026-04-20T13:36:49Z</time></trkpt><trkpt lat="43.47529695418004" lon="10.871303364455406"><ele>215.0</ele><time>2026-04-20T13:36:50Z</time></trkpt><trkpt lat="43.47524786650551" lon="10.871061048581861"><ele>216.0</ele><time>2026-04-20T13:36:51Z</time></trkpt><trkpt lat="43.47520687681225" lon="10.870815726029619"><ele>217.0</ele><time>2026-04-20T13:36:52Z</time></trkpt><trkpt lat="43.47516320477956" lon="10.870569939752187"><ele>218.0</ele><time>2026-04-20T13:36:53Z</time></trkpt><trkpt lat="43.47512137280727" lon="10.87032327357278"><ele>218.33333333333334</ele><time>2026-04-20T13:36:54Z</time></trkpt><trkpt lat="43.47507910065752" lon="10.870075155523326"><ele>218.66666666666669</ele><time>2026-04-20T13:36:55Z</time></trkpt><trkpt lat="43.47504071432869" lon="10.869844509011445"><ele>219.0</ele><time>2026-04-20T13:36:56Z</time></trkpt><trkpt lat="43.47500244796581" lon="10.869629137118418"><ele>219.0</ele><time>2026-04-20T13:36:57Z</time></trkpt><trkpt lat="43.47496519345891" lon="10.86940693082768"><ele>219.0</ele><time>2026-04-20T13:36:58Z</time></trkpt><trkpt lat="43.47492958600418" lon="10.869189241483236"><ele>219.0</ele><time>2026-04-20T13:36:59Z</time></trkpt><trkpt lat="43.47489475773075" lon="10.868991623160435"><ele>219.0</ele><time>2026-04-20T13:37:00Z</time></trkpt><trkpt lat="43.47485946600556" lon="10.86880285100792"><ele>219.0</ele><time>2026-04-20T13:37:01Z</time></trkpt><trkpt lat="43.474825865646324" lon="10.868621308716653"><ele>219.0</ele><time>2026-04-20T13:37:02Z</time></trkpt><trkpt lat="43.47479007084609" lon="10.868449534158476"><ele>219.0</ele><time>2026-04-20T13:37:03Z</time></trkpt><trkpt lat="43.474739005551214" lon="10.868272078667314"><ele>218.0</ele><time>2026-04-20T13:37:04Z</time></trkpt><trkpt lat="43.474673405668256" lon="10.868096352820046"><ele>217.0</ele><time>2026-04-20T13:37:05Z</time></trkpt><trkpt lat="43.4745910778093" lon="10.86792580164172"><ele>216.0</ele><time>2026-04-20T13:37:06Z</time></trkpt><trkpt lat="43.47449612936171" lon="10.867757429228888"><ele>215.0</ele><time>2026-04-20T13:37:07Z</time></trkpt><trkpt lat="43.47439238457908" lon="10.867588495648583"><ele>214.33333333333334</ele><time>2026-04-20T13:37:08Z</time></trkpt><trkpt lat="43.47428693544995" lon="10.867418994994985"><ele>213.66666666666669</ele><time>2026-04-20T13:37:09Z</time></trkpt><trkpt lat="43.4741848733539" lon="10.867242818521033"><ele>213.0</ele><time>2026-04-20T13:37:10Z</time></trkpt><trkpt lat="43.474074547176286" lon="10.867061586383631"><ele>213.0</ele><time>2026-04-20T13:37:11Z</time></trkpt><trkpt lat="43.47396406065386" lon="10.866874399021805"><ele>213.0</ele><time>2026-04-20T13:37:12Z</time></trkpt><trkpt lat="43.47385327437114" lon="10.866687923936475"><ele>213.0</ele><time>2026-04-20T13:37:13Z</time></trkpt><trkpt lat="43.473736863088035" lon="10.866497777979331"><ele>212.33333333333331</ele><time>2026-04-20T13:37:14Z</time></trkpt><trkpt lat="43.47362944957135" lon="10.866317182321568"><ele>211.66666666666666</ele><time>2026-04-20T13:37:15Z</time></trkpt><trkpt lat="43.47352096103615" lon="10.866129186400817"><ele>211.0</ele><time>2026-04-20T13:37:16Z</time></trkpt><trkpt lat="43.47341040565417" lon="10.865940913448243"><ele>211.0</ele><time>2026-04-20T13:37:17Z</time></trkpt><trkpt lat="43.473295810414456" lon="10.86575081509905"><ele>211.0</ele><time>2026-04-20T13:37:18Z</time></trkpt><trkpt lat="43.47318141165824" lon="10.865558007808382"><ele>211.0</ele><time>2026-04-20T13:37:19Z</time></trkpt><trkpt lat="43.47306771450393" lon="10.865366660875681"><ele>211.0</ele><time>2026-04-20T13:37:20Z</time></trkpt><trkpt lat="43.47296189828202" lon="10.86518970042167"><ele>211.0</ele><time>2026-04-20T13:37:21Z</time></trkpt><trkpt lat="43.472854496651046" lon="10.865007426604334"><ele>211.0</ele><time>2026-04-20T13:37:22Z</time></trkpt><trkpt lat="43.472743124171465" lon="10.864821519253294"><ele>211.0</ele><time>2026-04-20T13:37:23Z</time></trkpt><trkpt lat="43.47262772377855" lon="10.864634711197185"><ele>211.0</ele><time>2026-04-20T13:37:24Z</time></trkpt><trkpt lat="43.472515166269154" lon="10.864446365986622"><ele>211.0</ele><time>2026-04-20T13:37:25Z</time></trkpt><trkpt lat="43.47241703277056" lon="10.864276464710773"><ele>210.0</ele><time>2026-04-20T13:37:26Z</time></trkpt><trkpt lat="43.47233300805696" lon="10.864123098476092"><ele>209.0</ele><time>2026-04-20T13:37:27Z</time></trkpt><trkpt lat="43.4722594726633" lon="10.863971054659025"><ele>208.0</ele><time>2026-04-20T13:37:28Z</time></trkpt><trkpt lat="43.47220260437126" lon="10.863812102600802"><ele>207.0</ele><time>2026-04-20T13:37:29Z</time></trkpt><trkpt lat="43.47215742083627" lon="10.863629825301246"><ele>205.33333333333331</ele><time>2026-04-20T13:37:30Z</time></trkpt><trkpt lat="43.47212997305643" lon="10.863423880040017"><ele>203.66666666666666</ele><time>2026-04-20T13:37:31Z</time></trkpt><trkpt lat="43.4721204514255" lon="10.863212680925358"><ele>202.0</ele><time>2026-04-20T13:37:32Z</time></trkpt><trkpt lat="43.47212362569614" lon="10.862991716039417"><ele>202.0</ele><time>2026-04-20T13:37:33Z</time></trkpt><trkpt lat="43.47213739251032" lon="10.86276514459542"><ele>202.0</ele><time>2026-04-20T13:37:34Z</time></trkpt><trkpt lat="43.47214788625729" lon="10.862540570994275"><ele>202.0</ele><time>2026-04-20T13:37:35Z</time></trkpt><trkpt lat="43.472156952913004" lon="10.862323605519052"><ele>201.66666666666666</ele><time>2026-04-20T13:37:36Z</time></trkpt><trkpt lat="43.47216911305293" lon="10.862106843683021"><ele>201.33333333333331</ele><time>2026-04-20T13:37:37Z</time></trkpt><trkpt lat="43.47217841007999" lon="10.861888069027014"><ele>201.0</ele><time>2026-04-20T13:37:38Z</time></trkpt><trkpt lat="43.47218160065416" lon="10.861671871399343"><ele>202.0</ele><time>2026-04-20T13:37:39Z</time></trkpt><trkpt lat="43.472170055573265" lon="10.861459126729494"><ele>203.0</ele><time>2026-04-20T13:37:40Z</time></trkpt><trkpt lat="43.472144344183334" lon="10.861251574966408"><ele>204.0</ele><time>2026-04-20T13:37:41Z</time></trkpt><trkpt lat="43.47210245901044" lon="10.861040250959613"><ele>206.0</ele><time>2026-04-20T13:37:42Z</time></trkpt><trkpt lat="43.47204609638006" lon="10.860830947208335"><ele>208.0</ele><time>2026-04-20T13:37:43Z</time></trkpt><trkpt lat="43.47197416264572" lon="10.860622944510817"><ele>210.0</ele><time>2026-04-20T13:37:44Z</time></trkpt><trkpt lat="43.47189483727967" lon="10.860418580489881"><ele>210.0</ele><time>2026-04-20T13:37:45Z</time></trkpt><trkpt lat="43.47181718224522" lon="10.860219201151136"><ele>210.0</ele><time>2026-04-20T13:37:46Z</time></trkpt><trkpt lat="43.47174464174035" lon="10.859999187789818"><ele>210.0</ele><time>2026-04-20T13:37:47Z</time></trkpt><trkpt lat="43.471682287046484" lon="10.859777054643502"><ele>209.0</ele><time>2026-04-20T13:37:48Z</time></trkpt><trkpt lat="43.47162535301445" lon="10.859543737803884"><ele>208.0</ele><time>2026-04-20T13:37:49Z</time></trkpt><trkpt lat="43.47156918896013" lon="10.859311138351977"><ele>207.0</ele><time>2026-04-20T13:37:50Z</time></trkpt><trkpt lat="43.471514879566165" lon="10.859070719398517"><ele>206.0</ele><time>2026-04-20T13:37:51Z</time></trkpt><trkpt lat="43.47146154177454" lon="10.858827115657139"><ele>205.0</ele><time>2026-04-20T13:37:52Z</time></trkpt><trkpt lat="43.47140916501982" lon="10.858581522395117"><ele>204.0</ele><time>2026-04-20T13:37:53Z</time></trkpt><trkpt lat="43.47135574568163" lon="10.858336113292934"><ele>203.66666666666669</ele><time>2026-04-20T13:37:54Z</time></trkpt><trkpt lat="43.47129924714816" lon="10.858090830003576"><ele>203.33333333333334</ele><time>2026-04-20T13:37:55Z</time></trkpt><trkpt lat="43.47124924227547" lon="10.857852429150073"><ele>203.0</ele><time>2026-04-20T13:37:56Z</time></trkpt><trkpt lat="43.47120797977687" lon="10.857640782555903"><ele>202.66666666666669</ele><time>2026-04-20T13:37:57Z</time></trkpt><trkpt lat="43.47117425642615" lon="10.857438550127666"><ele>202.33333333333331</ele><time>2026-04-20T13:37:58Z</time></trkpt><trkpt lat="43.47115258120495" lon="10.857228563454395"><ele>202.0</ele><time>2026-04-20T13:37:59Z</time></trkpt><trkpt lat="43.47114915278246" lon="10.857009192385176"><ele>204.0</ele><time>2026-04-20T13:38:00Z</time></trkpt><trkpt lat="43.471158287692646" lon="10.856778475945555"><ele>206.0</ele><time>2026-04-20T13:38:01Z</time></trkpt><trkpt lat="43.4711805408937" lon="10.856548249868329"><ele>208.0</ele><time>2026-04-20T13:38:02Z</time></trkpt><trkpt lat="43.471207804364674" lon="10.856320561887035"><ele>208.0</ele><time>2026-04-20T13:38:03Z</time></trkpt><trkpt lat="43.471227069161785" lon="10.856110770059882"><ele>208.0</ele><time>2026-04-20T13:38:04Z</time></trkpt><trkpt lat="43.47123070004358" lon="10.855894913387093"><ele>208.0</ele><time>2026-04-20T13:38:05Z</time></trkpt><trkpt lat="43.47122009108611" lon="10.85567497419046"><ele>208.66666666666666</ele><time>2026-04-20T13:38:06Z</time></trkpt><trkpt lat="43.47119724723092" lon="10.85545676767644"><ele>209.33333333333331</ele><time>2026-04-20T13:38:07Z</time></trkpt><trkpt lat="43.471159434287664" lon="10.855242087026967"><ele>210.0</ele><time>2026-04-20T13:38:08Z</time></trkpt><trkpt lat="43.471118296802054" lon="10.855019274365244"><ele>210.0</ele><time>2026-04-20T13:38:09Z</time></trkpt><trkpt lat="43.47107977580001" lon="10.854806282191669"><ele>210.0</ele><time>2026-04-20T13:38:10Z</time></trkpt><trkpt lat="43.47104698980619" lon="10.854617297277262"><ele>210.0</ele><time>2026-04-20T13:38:11Z</time></trkpt><trkpt lat="43.47101742804845" lon="10.854448708748109"><ele>210.0</ele><time>2026-04-20T13:38:12Z</time></trkpt><trkpt lat="43.47099157035289" lon="10.854292867638206"><ele>208.25</ele><time>2026-04-20T13:38:13Z</time></trkpt><trkpt lat="43.47097572892847" lon="10.854130880321302"><ele>206.5</ele><time>2026-04-20T13:38:14Z</time></trkpt><trkpt lat="43.4709784937607" lon="10.853947115757148"><ele>204.75</ele><time>2026-04-20T13:38:15Z</time></trkpt><trkpt lat="43.47099794974968" lon="10.85375566029182"><ele>203.0</ele><time>2026-04-20T13:38:16Z</time></trkpt><trkpt lat="43.471035869055505" lon="10.853555340260423"><ele>201.33333333333334</ele><time>2026-04-20T13:38:17Z</time></trkpt><trkpt lat="43.47108016083232" lon="10.853346599676755"><ele>199.66666666666669</ele><time>2026-04-20T13:38:18Z</time></trkpt><trkpt lat="43.47112409002256" lon="10.853138062700092"><ele>198.0</ele><time>2026-04-20T13:38:19Z</time></trkpt><trkpt lat="43.471162288561125" lon="10.852939907371265"><ele>198.0</ele><time>2026-04-20T13:38:20Z</time></trkpt><trkpt lat="43.47120070688538" lon="10.852747157185417"><ele>198.0</ele><time>2026-04-20T13:38:21Z</time></trkpt><trkpt lat="43.47124227832519" lon="10.852553295631163"><ele>198.0</ele><time>2026-04-20T13:38:22Z</time></trkpt><trkpt lat="43.47128064678285" lon="10.852361823393615"><ele>198.0</ele><time>2026-04-20T13:38:23Z</time></trkpt><trkpt lat="43.47130702740302" lon="10.852167472011052"><ele>198.0</ele><time>2026-04-20T13:38:24Z</time></trkpt><trkpt lat="43.471315152244365" lon="10.851968148904445"><ele>198.0</ele><time>2026-04-20T13:38:25Z</time></trkpt><trkpt lat="43.47130331693666" lon="10.851760320538217"><ele>198.0</ele><time>2026-04-20T13:38:26Z</time></trkpt><trkpt lat="43.47127334866547" lon="10.851553759828313"><ele>198.0</ele><time>2026-04-20T13:38:27Z</time></trkpt><trkpt lat="43.47123010592098" lon="10.85134665466137"><ele>195.33333333333334</ele><time>2026-04-20T13:38:28Z</time></trkpt><trkpt lat="43.47118344222683" lon="10.851138770222395"><ele>192.66666666666669</ele><time>2026-04-20T13:38:29Z</time></trkpt><trkpt lat="43.471135050538706" lon="10.850927919227418"><ele>190.0</ele><time>2026-04-20T13:38:30Z</time></trkpt><trkpt lat="43.47108755971285" lon="10.850713669443532"><ele>190.0</ele><time>2026-04-20T13:38:31Z</time></trkpt><trkpt lat="43.471039921970394" lon="10.850493536648376"><ele>190.0</ele><time>2026-04-20T13:38:32Z</time></trkpt><trkpt lat="43.47099506777486" lon="10.850282426606267"><ele>190.0</ele><time>2026-04-20T13:38:33Z</time></trkpt><trkpt lat="43.47094801226622" lon="10.850070833327601"><ele>191.66666666666669</ele><time>2026-04-20T13:38:34Z</time></trkpt><trkpt lat="43.47089647783642" lon="10.849850125652654"><ele>193.33333333333334</ele><time>2026-04-20T13:38:35Z</time></trkpt><trkpt lat="43.470845735985954" lon="10.849630814986554"><ele>195.0</ele><time>2026-04-20T13:38:36Z</time></trkpt><trkpt lat="43.47079306170203" lon="10.849413579751634"><ele>197.33333333333331</ele><time>2026-04-20T13:38:37Z</time></trkpt><trkpt lat="43.4707370986451" lon="10.849195096905188"><ele>199.66666666666666</ele><time>2026-04-20T13:38:38Z</time></trkpt><trkpt lat="43.47067765424553" lon="10.848975453420314"><ele>202.0</ele><time>2026-04-20T13:38:39Z</time></trkpt><trkpt lat="43.470616951961496" lon="10.848757148178743"><ele>202.0</ele><time>2026-04-20T13:38:40Z</time></trkpt><trkpt lat="43.4705564398202" lon="10.848542372908994"><ele>202.0</ele><time>2026-04-20T13:38:41Z</time></trkpt><trkpt lat="43.47049293332649" lon="10.848326827817795"><ele>202.0</ele><time>2026-04-20T13:38:42Z</time></trkpt><trkpt lat="43.4704280212072" lon="10.84810612243507"><ele>198.0</ele><time>2026-04-20T13:38:43Z</time></trkpt><trkpt lat="43.47036615656525" lon="10.8478810028926"><ele>194.0</ele><time>2026-04-20T13:38:44Z</time></trkpt><trkpt lat="43.47029900720731" lon="10.84766275514072"><ele>190.0</ele><time>2026-04-20T13:38:45Z</time></trkpt><trkpt lat="43.47022212130229" lon="10.84745118768475"><ele>190.0</ele><time>2026-04-20T13:38:46Z</time></trkpt><trkpt lat="43.470137080957436" lon="10.847245999784764"><ele>190.0</ele><time>2026-04-20T13:38:47Z</time></trkpt><trkpt lat="43.47005152771862" lon="10.84705640706732"><ele>190.0</ele><time>2026-04-20T13:38:48Z</time></trkpt><trkpt lat="43.46996862449808" lon="10.84688196226888"><ele>192.0</ele><time>2026-04-20T13:38:49Z</time></trkpt><trkpt lat="43.469884046094904" lon="10.846719835887352"><ele>194.0</ele><time>2026-04-20T13:38:50Z</time></trkpt><trkpt lat="43.46980416286559" lon="10.84656961902575"><ele>196.0</ele><time>2026-04-20T13:38:51Z</time></trkpt><trkpt lat="43.46973074479539" lon="10.846428446475024"><ele>198.0</ele><time>2026-04-20T13:38:52Z</time></trkpt><trkpt lat="43.469657931192764" lon="10.846293977555746"><ele>194.0</ele><time>2026-04-20T13:38:53Z</time></trkpt><trkpt lat="43.46959199295372" lon="10.846157095411908"><ele>190.0</ele><time>2026-04-20T13:38:54Z</time></trkpt><trkpt lat="43.46953886933775" lon="10.846009387856734"><ele>186.0</ele><time>2026-04-20T13:38:55Z</time></trkpt><trkpt lat="43.46950830095717" lon="10.845842722260565"><ele>182.0</ele><time>2026-04-20T13:38:56Z</time></trkpt><trkpt lat="43.46949639641659" lon="10.845671961246412"><ele>182.0</ele><time>2026-04-20T13:38:57Z</time></trkpt><trkpt lat="43.46950053941509" lon="10.845481729157392"><ele>182.0</ele><time>2026-04-20T13:38:58Z</time></trkpt><trkpt lat="43.46952373208997" lon="10.84528316879976"><ele>182.0</ele><time>2026-04-20T13:38:59Z</time></trkpt><trkpt lat="43.469530082124564" lon="10.845083357479368"><ele>182.0</ele><time>2026-04-20T13:39:00Z</time></trkpt><trkpt lat="43.469541701423644" lon="10.844875475320878"><ele>182.0</ele><time>2026-04-20T13:39:01Z</time></trkpt><trkpt lat="43.46955169560353" lon="10.844652109467578"><ele>182.0</ele><time>2026-04-20T13:39:02Z</time></trkpt><trkpt lat="43.46956414561387" lon="10.84444082740662"><ele>182.0</ele><time>2026-04-20T13:39:03Z</time></trkpt><trkpt lat="43.46956493452451" lon="10.844242994631657"><ele>182.0</ele><time>2026-04-20T13:39:04Z</time></trkpt><trkpt lat="43.46955745116616" lon="10.844040420993768"><ele>182.0</ele><time>2026-04-20T13:39:05Z</time></trkpt><trkpt lat="43.46953064141361" lon="10.843835724376898"><ele>182.0</ele><time>2026-04-20T13:39:06Z</time></trkpt><trkpt lat="43.46949726053845" lon="10.843627929699867"><ele>185.0</ele><time>2026-04-20T13:39:07Z</time></trkpt><trkpt lat="43.46945337131352" lon="10.843420273424732"><ele>188.0</ele><time>2026-04-20T13:39:08Z</time></trkpt><trkpt lat="43.469391681689025" lon="10.843217598578416"><ele>191.0</ele><time>2026-04-20T13:39:09Z</time></trkpt><trkpt lat="43.46933420571651" lon="10.843013118641121"><ele>191.0</ele><time>2026-04-20T13:39:10Z</time></trkpt><trkpt lat="43.46928066489561" lon="10.842822047151635"><ele>191.0</ele><time>2026-04-20T13:39:11Z</time></trkpt><trkpt lat="43.46923189910515" lon="10.842638516121866"><ele>191.0</ele><time>2026-04-20T13:39:12Z</time></trkpt><trkpt lat="43.469187394546594" lon="10.842469345745334"><ele>191.0</ele><time>2026-04-20T13:39:13Z</time></trkpt><trkpt lat="43.46915193947046" lon="10.842317586970706"><ele>191.25</ele><time>2026-04-20T13:39:14Z</time></trkpt><trkpt lat="43.4691359817542" lon="10.842166767807209"><ele>191.5</ele><time>2026-04-20T13:39:15Z</time></trkpt><trkpt lat="43.46914434296453" lon="10.842004772266252"><ele>191.75</ele><time>2026-04-20T13:39:16Z</time></trkpt><trkpt lat="43.46917286470153" lon="10.841830478604049"><ele>192.0</ele><time>2026-04-20T13:39:17Z</time></trkpt><trkpt lat="43.46922162800682" lon="10.841658551805594"><ele>192.25</ele><time>2026-04-20T13:39:18Z</time></trkpt><trkpt lat="43.46929145243563" lon="10.841500043655042"><ele>192.5</ele><time>2026-04-20T13:39:19Z</time></trkpt><trkpt lat="43.46935342649193" lon="10.841365362065286"><ele>192.75</ele><time>2026-04-20T13:39:20Z</time></trkpt><trkpt lat="43.46940002348352" lon="10.841238863727416"><ele>193.0</ele><time>2026-04-20T13:39:21Z</time></trkpt><trkpt lat="43.46942392769229" lon="10.84110646865189"><ele>194.25</ele><time>2026-04-20T13:39:22Z</time></trkpt><trkpt lat="43.46942571157319" lon="10.840957869397439"><ele>195.5</ele><time>2026-04-20T13:39:23Z</time></trkpt><trkpt lat="43.46940642837751" lon="10.840793772427588"><ele>196.75</ele><time>2026-04-20T13:39:24Z</time></trkpt><trkpt lat="43.46936754325809" lon="10.84062020417393"><ele>198.0</ele><time>2026-04-20T13:39:25Z</time></trkpt><trkpt lat="43.46931881898681" lon="10.840439759142301"><ele>198.0</ele><time>2026-04-20T13:39:26Z</time></trkpt><trkpt lat="43.46925958058906" lon="10.840256331746083"><ele>198.0</ele><time>2026-04-20T13:39:27Z</time></trkpt><trkpt lat="43.469200185981975" lon="10.8400576752739"><ele>198.0</ele><time>2026-04-20T13:39:28Z</time></trkpt><trkpt lat="43.46913551744514" lon="10.839865542557497"><ele>195.66666666666666</ele><time>2026-04-20T13:39:29Z</time></trkpt><trkpt lat="43.46907121162402" lon="10.839661176547162"><ele>193.33333333333331</ele><time>2026-04-20T13:39:30Z</time></trkpt><trkpt lat="43.46901026528538" lon="10.839448089966542"><ele>191.0</ele><time>2026-04-20T13:39:31Z</time></trkpt><trkpt lat="43.46895186061612" lon="10.839250565535366"><ele>193.66666666666666</ele><time>2026-04-20T13:39:32Z</time></trkpt><trkpt lat="43.468891437562874" lon="10.839042469318024"><ele>196.33333333333331</ele><time>2026-04-20T13:39:33Z</time></trkpt><trkpt lat="43.46883272163498" lon="10.838838205605095"><ele>199.0</ele><time>2026-04-20T13:39:34Z</time></trkpt><trkpt lat="43.46877256354918" lon="10.83863170567687"><ele>197.33333333333331</ele><time>2026-04-20T13:39:35Z</time></trkpt><trkpt lat="43.46870956242904" lon="10.83843835048049"><ele>195.66666666666669</ele><time>2026-04-20T13:39:36Z</time></trkpt><trkpt lat="43.46864623762608" lon="10.838242903668835"><ele>194.0</ele><time>2026-04-20T13:39:37Z</time></trkpt><trkpt lat="43.46857914680367" lon="10.838064590380258"><ele>194.0</ele><time>2026-04-20T13:39:38Z</time></trkpt><trkpt lat="43.46849949723189" lon="10.837891538540378"><ele>194.0</ele><time>2026-04-20T13:39:39Z</time></trkpt><trkpt lat="43.46840562078123" lon="10.837722892953122"><ele>194.0</ele><time>2026-04-20T13:39:40Z</time></trkpt><trkpt lat="43.46830510205152" lon="10.837566895740835"><ele>192.5</ele><time>2026-04-20T13:39:41Z</time></trkpt><trkpt lat="43.46819098643831" lon="10.837423691833338"><ele>191.0</ele><time>2026-04-20T13:39:42Z</time></trkpt><trkpt lat="43.46808764542342" lon="10.837307028431523"><ele>189.5</ele><time>2026-04-20T13:39:43Z</time></trkpt><trkpt lat="43.467984093241064" lon="10.837191763262013"><ele>188.0</ele><time>2026-04-20T13:39:44Z</time></trkpt><trkpt lat="43.46786236989934" lon="10.837088618271935"><ele>188.0</ele><time>2026-04-20T13:39:45Z</time></trkpt><trkpt lat="43.467724566458784" lon="10.836994451573965"><ele>188.0</ele><time>2026-04-20T13:39:46Z</time></trkpt><trkpt lat="43.46758071312812" lon="10.836915507439357"><ele>188.0</ele><time>2026-04-20T13:39:47Z</time></trkpt><trkpt lat="43.4674249823744" lon="10.836848212564258"><ele>185.5</ele><time>2026-04-20T13:39:48Z</time></trkpt><trkpt lat="43.467280981021005" lon="10.836797699482553"><ele>183.0</ele><time>2026-04-20T13:39:49Z</time></trkpt><trkpt lat="43.46713961142264" lon="10.836740311865183"><ele>180.5</ele><time>2026-04-20T13:39:50Z</time></trkpt><trkpt lat="43.466997142032916" lon="10.836669904765257"><ele>178.0</ele><time>2026-04-20T13:39:51Z</time></trkpt><trkpt lat="43.466856663559476" lon="10.83658054469466"><ele>178.0</ele><time>2026-04-20T13:39:52Z</time></trkpt><trkpt lat="43.46671735585556" lon="10.836477238129708"><ele>178.0</ele><time>2026-04-20T13:39:53Z</time></trkpt><trkpt lat="43.46658313373276" lon="10.836365825927519"><ele>178.0</ele><time>2026-04-20T13:39:54Z</time></trkpt><trkpt lat="43.46645898908532" lon="10.83624605440119"><ele>178.0</ele><time>2026-04-20T13:39:55Z</time></trkpt><trkpt lat="43.466349842586595" lon="10.836118299036578"><ele>178.0</ele><time>2026-04-20T13:39:56Z</time></trkpt><trkpt lat="43.4662428238516" lon="10.835974923358819"><ele>178.0</ele><time>2026-04-20T13:39:57Z</time></trkpt><trkpt lat="43.46613929279801" lon="10.835818886315963"><ele>178.0</ele><time>2026-04-20T13:39:58Z</time></trkpt><trkpt lat="43.46604074135658" lon="10.835658717018775"><ele>177.0</ele><time>2026-04-20T13:39:59Z</time></trkpt><trkpt lat="43.465951687064134" lon="10.83548487233501"><ele>176.0</ele><time>2026-04-20T13:40:00Z</time></trkpt><trkpt lat="43.465867313115844" lon="10.835308223815172"><ele>175.0</ele><time>2026-04-20T13:40:01Z</time></trkpt><trkpt lat="43.46577766249193" lon="10.83512794242527"><ele>172.33333333333334</ele><time>2026-04-20T13:40:02Z</time></trkpt><trkpt lat="43.4656849250978" lon="10.834937762550348"><ele>169.66666666666666</ele><time>2026-04-20T13:40:03Z</time></trkpt><trkpt lat="43.465591742265225" lon="10.834755589079737"><ele>167.0</ele><time>2026-04-20T13:40:04Z</time></trkpt><trkpt lat="43.46549888329173" lon="10.834566947767268"><ele>166.0</ele><time>2026-04-20T13:40:05Z</time></trkpt><trkpt lat="43.465406263743866" lon="10.834377563688212"><ele>165.0</ele><time>2026-04-20T13:40:06Z</time></trkpt><trkpt lat="43.46531589251663" lon="10.83419494932555"><ele>164.0</ele><time>2026-04-20T13:40:07Z</time></trkpt><trkpt lat="43.465233137751376" lon="10.834016802167882"><ele>163.75</ele><time>2026-04-20T13:40:08Z</time></trkpt><trkpt lat="43.465155946104495" lon="10.833848593267197"><ele>163.5</ele><time>2026-04-20T13:40:09Z</time></trkpt><trkpt lat="43.46507835761346" lon="10.833686385102487"><ele>163.25</ele><time>2026-04-20T13:40:10Z</time></trkpt><trkpt lat="43.464998223743635" lon="10.833521420023901"><ele>163.0</ele><time>2026-04-20T13:40:11Z</time></trkpt><trkpt lat="43.46491977546114" lon="10.833361692177318"><ele>162.25</ele><time>2026-04-20T13:40:12Z</time></trkpt><trkpt lat="43.46484171183176" lon="10.833204260386006"><ele>161.5</ele><time>2026-04-20T13:40:13Z</time></trkpt><trkpt lat="43.46475231803677" lon="10.833047858257668"><ele>160.75</ele><time>2026-04-20T13:40:14Z</time></trkpt><trkpt lat="43.46465013333094" lon="10.832904125239725"><ele>160.0</ele><time>2026-04-20T13:40:15Z</time></trkpt><trkpt lat="43.46453594387263" lon="10.8327730489646"><ele>159.25</ele><time>2026-04-20T13:40:16Z</time></trkpt><trkpt lat="43.464417359342235" lon="10.832661068583045"><ele>158.5</ele><time>2026-04-20T13:40:17Z</time></trkpt><trkpt lat="43.46429017770753" lon="10.832564025305292"><ele>157.75</ele><time>2026-04-20T13:40:18Z</time></trkpt><trkpt lat="43.46415377059896" lon="10.832483119551807"><ele>157.0</ele><time>2026-04-20T13:40:19Z</time></trkpt><trkpt lat="43.46401415338722" lon="10.832424477151905"><ele>157.0</ele><time>2026-04-20T13:40:20Z</time></trkpt><trkpt lat="43.46386654019529" lon="10.832376183284445"><ele>157.0</ele><time>2026-04-20T13:40:21Z</time></trkpt><trkpt lat="43.46371632053233" lon="10.832337727618583"><ele>157.0</ele><time>2026-04-20T13:40:22Z</time></trkpt><trkpt lat="43.46357167577858" lon="10.832307688272248"><ele>154.75</ele><time>2026-04-20T13:40:23Z</time></trkpt><trkpt lat="43.46342779637677" lon="10.83227270827599"><ele>152.5</ele><time>2026-04-20T13:40:24Z</time></trkpt><trkpt lat="43.46328855472293" lon="10.832233079347397"><ele>150.25</ele><time>2026-04-20T13:40:25Z</time></trkpt><trkpt lat="43.46314339217888" lon="10.832197214225362"><ele>148.0</ele><time>2026-04-20T13:40:26Z</time></trkpt><trkpt lat="43.46299413553827" lon="10.83216180316122"><ele>143.33333333333334</ele><time>2026-04-20T13:40:27Z</time></trkpt><trkpt lat="43.46283900655362" lon="10.83211898109873"><ele>138.66666666666666</ele><time>2026-04-20T13:40:28Z</time></trkpt><trkpt lat="43.46268308677797" lon="10.832064273976023"><ele>134.0</ele><time>2026-04-20T13:40:29Z</time></trkpt><trkpt lat="43.46252566982595" lon="10.83200091014207"><ele>134.0</ele><time>2026-04-20T13:40:30Z</time></trkpt><trkpt lat="43.46236329551414" lon="10.831931687149462"><ele>134.0</ele><time>2026-04-20T13:40:31Z</time></trkpt><trkpt lat="43.46219325642559" lon="10.831855431662825"><ele>134.0</ele><time>2026-04-20T13:40:32Z</time></trkpt><trkpt lat="43.46201975354945" lon="10.831779582717695"><ele>133.33333333333331</ele><time>2026-04-20T13:40:33Z</time></trkpt><trkpt lat="43.461842330448064" lon="10.831704513529479"><ele>132.66666666666666</ele><time>2026-04-20T13:40:34Z</time></trkpt><trkpt lat="43.46167136545046" lon="10.83163171325328"><ele>132.0</ele><time>2026-04-20T13:40:35Z</time></trkpt><trkpt lat="43.46150608646418" lon="10.831558878981859"><ele>132.0</ele><time>2026-04-20T13:40:36Z</time></trkpt><trkpt lat="43.46134421210772" lon="10.831485638143086"><ele>132.0</ele><time>2026-04-20T13:40:37Z</time></trkpt><trkpt lat="43.46118402720743" lon="10.831414182829546"><ele>132.0</ele><time>2026-04-20T13:40:38Z</time></trkpt><trkpt lat="43.4610264477976" lon="10.831348182237916"><ele>132.0</ele><time>2026-04-20T13:40:39Z</time></trkpt><trkpt lat="43.460869586093416" lon="10.831277666491557"><ele>132.0</ele><time>2026-04-20T13:40:40Z</time></trkpt><trkpt lat="43.46070476943842" lon="10.831200695544622"><ele>132.0</ele><time>2026-04-20T13:40:41Z</time></trkpt><trkpt lat="43.46053510286364" lon="10.831122196945616"><ele>131.66666666666666</ele><time>2026-04-20T13:40:42Z</time></trkpt><trkpt lat="43.460364651945774" lon="10.831049428614042"><ele>131.33333333333331</ele><time>2026-04-20T13:40:43Z</time></trkpt><trkpt lat="43.46018919007718" lon="10.830971450303135"><ele>131.0</ele><time>2026-04-20T13:40:44Z</time></trkpt><trkpt lat="43.46001154281185" lon="10.830898469939164"><ele>127.0</ele><time>2026-04-20T13:40:45Z</time></trkpt><trkpt lat="43.45983043224768" lon="10.830819274631194"><ele>123.0</ele><time>2026-04-20T13:40:46Z</time></trkpt><trkpt lat="43.459648857054894" lon="10.830741153979304"><ele>119.0</ele><time>2026-04-20T13:40:47Z</time></trkpt><trkpt lat="43.45946392765418" lon="10.830656989927055"><ele>116.33333333333333</ele><time>2026-04-20T13:40:48Z</time></trkpt><trkpt lat="43.459276887039884" lon="10.830575494302435"><ele>113.66666666666666</ele><time>2026-04-20T13:40:49Z</time></trkpt><trkpt lat="43.45909194844269" lon="10.830496943213936"><ele>111.0</ele><time>2026-04-20T13:40:50Z</time></trkpt><trkpt lat="43.4589089982937" lon="10.830420645543914"><ele>107.66666666666666</ele><time>2026-04-20T13:40:51Z</time></trkpt><trkpt lat="43.458722508823044" lon="10.830336785260197"><ele>104.33333333333333</ele><time>2026-04-20T13:40:52Z</time></trkpt><trkpt lat="43.45854310033299" lon="10.830258786785492"><ele>101.0</ele><time>2026-04-20T13:40:53Z</time></trkpt><trkpt lat="43.45836808135467" lon="10.83018125205862"><ele>101.0</ele><time>2026-04-20T13:40:54Z</time></trkpt><trkpt lat="43.458189016792254" lon="10.830106333393148"><ele>101.0</ele><time>2026-04-20T13:40:55Z</time></trkpt><trkpt lat="43.458016135426455" lon="10.830028549621959"><ele>101.0</ele><time>2026-04-20T13:40:56Z</time></trkpt><trkpt lat="43.45785223686701" lon="10.82995781773833"><ele>101.0</ele><time>2026-04-20T13:40:57Z</time></trkpt><trkpt lat="43.45770019122383" lon="10.82988892918608"><ele>101.0</ele><time>2026-04-20T13:40:58Z</time></trkpt><trkpt lat="43.457558596990474" lon="10.8298316531991"><ele>101.0</ele><time>2026-04-20T13:40:59Z</time></trkpt><trkpt lat="43.457435968658494" lon="10.829788314133765"><ele>101.0</ele><time>2026-04-20T13:41:00Z</time></trkpt><trkpt lat="43.45732881917646" lon="10.82975477590676"><ele>100.99999999999999</ele><time>2026-04-20T13:41:01Z</time></trkpt><trkpt lat="43.45723387723066" lon="10.829730070593882"><ele>101.0</ele><time>2026-04-20T13:41:02Z</time></trkpt><trkpt lat="43.457155666849275" lon="10.82970942297419"><ele>101.0</ele><time>2026-04-20T13:41:03Z</time></trkpt><trkpt lat="43.45704603697402" lon="10.829685580933813"><ele>101.0</ele><time>2026-04-20T13:41:05Z</time></trkpt><trkpt lat="43.456979360760194" lon="10.829664232135993"><ele>100.99999999999999</ele><time>2026-04-20T13:41:09Z</time></trkpt><trkpt lat="43.45689018655377" lon="10.82969187170797"><ele>101.0</ele><time>2026-04-20T13:41:44Z</time></trkpt><trkpt lat="43.45681673958703" lon="10.829713068783759"><ele>100.75</ele><time>2026-04-20T13:41:45Z</time></trkpt><trkpt lat="43.456672785404656" lon="10.829731828116435"><ele>100.5</ele><time>2026-04-20T13:41:47Z</time></trkpt><trkpt lat="43.456574564921425" lon="10.829732908013034"><ele>100.25</ele><time>2026-04-20T13:41:48Z</time></trkpt><trkpt lat="43.456463769395576" lon="10.829743019993867"><ele>100.0</ele><time>2026-04-20T13:41:49Z</time></trkpt><trkpt lat="43.45635097406783" lon="10.82976998975727"><ele>100.5</ele><time>2026-04-20T13:41:50Z</time></trkpt><trkpt lat="43.45622481999773" lon="10.829810942375937"><ele>101.0</ele><time>2026-04-20T13:41:51Z</time></trkpt><trkpt lat="43.456094750628246" lon="10.82985876240811"><ele>101.5</ele><time>2026-04-20T13:41:52Z</time></trkpt><trkpt lat="43.45595746534649" lon="10.829913182992495"><ele>102.0</ele><time>2026-04-20T13:41:53Z</time></trkpt><trkpt lat="43.45581462708648" lon="10.829977407279692"><ele>102.0</ele><time>2026-04-20T13:41:54Z</time></trkpt><trkpt lat="43.455666084384916" lon="10.830039423203297"><ele>102.0</ele><time>2026-04-20T13:41:55Z</time></trkpt><trkpt lat="43.45551198363887" lon="10.830110992631434"><ele>102.0</ele><time>2026-04-20T13:41:56Z</time></trkpt><trkpt lat="43.455349761537434" lon="10.830176727949203"><ele>102.0</ele><time>2026-04-20T13:41:57Z</time></trkpt><trkpt lat="43.455188911484" lon="10.830235724075573"><ele>102.0</ele><time>2026-04-20T13:41:58Z</time></trkpt><trkpt lat="43.455039588198474" lon="10.830295852381063"><ele>102.0</ele><time>2026-04-20T13:41:59Z</time></trkpt><trkpt lat="43.4548935946015" lon="10.830348742505459"><ele>102.0</ele><time>2026-04-20T13:42:00Z</time></trkpt><trkpt lat="43.45475785453869" lon="10.83038890238803"><ele>102.0</ele><time>2026-04-20T13:42:01Z</time></trkpt><trkpt lat="43.45463447013266" lon="10.830420197681802"><ele>102.0</ele><time>2026-04-20T13:42:02Z</time></trkpt><trkpt lat="43.45452350316468" lon="10.830437461837207"><ele>102.0</ele><time>2026-04-20T13:42:03Z</time></trkpt><trkpt lat="43.45442259656233" lon="10.83042716394152"><ele>102.39999999999999</ele><time>2026-04-20T13:42:04Z</time></trkpt><trkpt lat="43.45433752763981" lon="10.830390630179208"><ele>102.8</ele><time>2026-04-20T13:42:05Z</time></trkpt><trkpt lat="43.45426845067817" lon="10.830339000013028"><ele>103.2</ele><time>2026-04-20T13:42:06Z</time></trkpt><trkpt lat="43.45420954539026" lon="10.830254883139403"><ele>103.6</ele><time>2026-04-20T13:42:07Z</time></trkpt><trkpt lat="43.45416699146848" lon="10.830136069697712"><ele>104.0</ele><time>2026-04-20T13:42:08Z</time></trkpt><trkpt lat="43.454143117277304" lon="10.829992511751906"><ele>104.25</ele><time>2026-04-20T13:42:09Z</time></trkpt><trkpt lat="43.4541331405545" lon="10.82983909074771"><ele>104.5</ele><time>2026-04-20T13:42:10Z</time></trkpt><trkpt lat="43.454134992701924" lon="10.829671864862618"><ele>104.75</ele><time>2026-04-20T13:42:11Z</time></trkpt><trkpt lat="43.45412673080723" lon="10.829488634369417"><ele>105.0</ele><time>2026-04-20T13:42:12Z</time></trkpt><trkpt lat="43.45411820663711" lon="10.82929319642727"><ele>105.0</ele><time>2026-04-20T13:42:13Z</time></trkpt><trkpt lat="43.45410844997732" lon="10.829098945997522"><ele>105.0</ele><time>2026-04-20T13:42:14Z</time></trkpt><trkpt lat="43.45410000925908" lon="10.828910906579727"><ele>105.0</ele><time>2026-04-20T13:42:15Z</time></trkpt><trkpt lat="43.45410540948298" lon="10.828724233313501"><ele>105.0</ele><time>2026-04-20T13:42:16Z</time></trkpt><trkpt lat="43.45412570371825" lon="10.828533439707552"><ele>105.25</ele><time>2026-04-20T13:42:17Z</time></trkpt><trkpt lat="43.45416139455804" lon="10.828338031575766"><ele>105.5</ele><time>2026-04-20T13:42:18Z</time></trkpt><trkpt lat="43.45420564678207" lon="10.828159504763091"><ele>105.75</ele><time>2026-04-20T13:42:19Z</time></trkpt><trkpt lat="43.454247444684306" lon="10.827975962118575"><ele>106.0</ele><time>2026-04-20T13:42:20Z</time></trkpt><trkpt lat="43.45427788349938" lon="10.827773938485084"><ele>106.33333333333334</ele><time>2026-04-20T13:42:21Z</time></trkpt><trkpt lat="43.45428573457377" lon="10.827564852497101"><ele>106.66666666666666</ele><time>2026-04-20T13:42:22Z</time></trkpt><trkpt lat="43.45427794795971" lon="10.82734326788018"><ele>107.0</ele><time>2026-04-20T13:42:23Z</time></trkpt><trkpt lat="43.45424761437318" lon="10.827123714563456"><ele>107.0</ele><time>2026-04-20T13:42:24Z</time></trkpt><trkpt lat="43.45421237114752" lon="10.826896169133157"><ele>107.0</ele><time>2026-04-20T13:42:25Z</time></trkpt><trkpt lat="43.45418034961709" lon="10.826667896519213"><ele>107.0</ele><time>2026-04-20T13:42:26Z</time></trkpt><trkpt lat="43.45415167204385" lon="10.826441192068952"><ele>106.33333333333333</ele><time>2026-04-20T13:42:27Z</time></trkpt><trkpt lat="43.454122117734165" lon="10.826215685847677"><ele>105.66666666666666</ele><time>2026-04-20T13:42:28Z</time></trkpt><trkpt lat="43.45409272899118" lon="10.825982874474603"><ele>105.0</ele><time>2026-04-20T13:42:29Z</time></trkpt><trkpt lat="43.45406509945335" lon="10.825754384683437"><ele>105.0</ele><time>2026-04-20T13:42:30Z</time></trkpt><trkpt lat="43.454036308089265" lon="10.825522965284378"><ele>105.0</ele><time>2026-04-20T13:42:31Z</time></trkpt><trkpt lat="43.454008958103785" lon="10.825290947303664"><ele>105.0</ele><time>2026-04-20T13:42:32Z</time></trkpt><trkpt lat="43.45397908862111" lon="10.825064162834048"><ele>103.66666666666666</ele><time>2026-04-20T13:42:33Z</time></trkpt><trkpt lat="43.45394601413743" lon="10.82483185285245"><ele>102.33333333333333</ele><time>2026-04-20T13:42:34Z</time></trkpt><trkpt lat="43.453914641084324" lon="10.824601731530741"><ele>101.0</ele><time>2026-04-20T13:42:35Z</time></trkpt><trkpt lat="43.45388533208811" lon="10.824367369050089"><ele>100.66666666666666</ele><time>2026-04-20T13:42:36Z</time></trkpt><trkpt lat="43.45385114890312" lon="10.824128090496203"><ele>100.33333333333334</ele><time>2026-04-20T13:42:37Z</time></trkpt><trkpt lat="43.453820284143205" lon="10.823887524999206"><ele>100.0</ele><time>2026-04-20T13:42:38Z</time></trkpt><trkpt lat="43.453787336459065" lon="10.823644503593837"><ele>108.66666666666667</ele><time>2026-04-20T13:42:39Z</time></trkpt><trkpt lat="43.45374705455941" lon="10.823400298548393"><ele>117.33333333333334</ele><time>2026-04-20T13:42:40Z</time></trkpt><trkpt lat="43.45370442022797" lon="10.823156118155694"><ele>126.0</ele><time>2026-04-20T13:42:41Z</time></trkpt><trkpt lat="43.4536545174985" lon="10.822914602301003"><ele>126.0</ele><time>2026-04-20T13:42:42Z</time></trkpt><trkpt lat="43.45359340469306" lon="10.822675328139372"><ele>126.0</ele><time>2026-04-20T13:42:43Z</time></trkpt><trkpt lat="43.45353279004183" lon="10.822428473087127"><ele>126.0</ele><time>2026-04-20T13:42:44Z</time></trkpt><trkpt lat="43.45347182604222" lon="10.822190588293923"><ele>122.33333333333334</ele><time>2026-04-20T13:42:45Z</time></trkpt><trkpt lat="43.45341076467823" lon="10.821944404333463"><ele>118.66666666666667</ele><time>2026-04-20T13:42:46Z</time></trkpt><trkpt lat="43.45335241911469" lon="10.821698760340354"><ele>115.0</ele><time>2026-04-20T13:42:47Z</time></trkpt><trkpt lat="43.45329225921398" lon="10.821443559882015"><ele>112.0</ele><time>2026-04-20T13:42:48Z</time></trkpt><trkpt lat="43.453227573885286" lon="10.821190890822256"><ele>109.0</ele><time>2026-04-20T13:42:49Z</time></trkpt><trkpt lat="43.453163707654944" lon="10.820937437126126"><ele>106.0</ele><time>2026-04-20T13:42:50Z</time></trkpt><trkpt lat="43.45310129435243" lon="10.820681888790972"><ele>105.0</ele><time>2026-04-20T13:42:51Z</time></trkpt><trkpt lat="43.453039473816055" lon="10.820426494705316"><ele>104.0</ele><time>2026-04-20T13:42:52Z</time></trkpt><trkpt lat="43.45297405924059" lon="10.820168599620784"><ele>103.0</ele><time>2026-04-20T13:42:53Z</time></trkpt><trkpt lat="43.452902510417836" lon="10.819918454570217"><ele>106.66666666666667</ele><time>2026-04-20T13:42:54Z</time></trkpt><trkpt lat="43.45282413468988" lon="10.819668714740336"><ele>110.33333333333334</ele><time>2026-04-20T13:42:55Z</time></trkpt><trkpt lat="43.45275007427616" lon="10.819430106733334"><ele>114.0</ele><time>2026-04-20T13:42:56Z</time></trkpt><trkpt lat="43.45267712724368" lon="10.819188566668238"><ele>114.0</ele><time>2026-04-20T13:42:57Z</time></trkpt><trkpt lat="43.45261148374454" lon="10.818938877762974"><ele>114.0</ele><time>2026-04-20T13:42:58Z</time></trkpt><trkpt lat="43.452564193999834" lon="10.818679183538753"><ele>114.0</ele><time>2026-04-20T13:42:59Z</time></trkpt><trkpt lat="43.45252641532947" lon="10.818408672554328"><ele>111.66666666666666</ele><time>2026-04-20T13:43:00Z</time></trkpt><trkpt lat="43.4524856405906" lon="10.818145378629765"><ele>109.33333333333333</ele><time>2026-04-20T13:43:01Z</time></trkpt><trkpt lat="43.45244214892565" lon="10.817883393041834"><ele>107.0</ele><time>2026-04-20T13:43:02Z</time></trkpt><trkpt lat="43.4523964751984" lon="10.817617057466713"><ele>105.0</ele><time>2026-04-20T13:43:03Z</time></trkpt><trkpt lat="43.45234345463194" lon="10.817361280400624"><ele>103.0</ele><time>2026-04-20T13:43:04Z</time></trkpt><trkpt lat="43.45228208775563" lon="10.817103273548371"><ele>101.0</ele><time>2026-04-20T13:43:05Z</time></trkpt><trkpt lat="43.452217221713916" lon="10.816860598052743"><ele>100.0</ele><time>2026-04-20T13:43:06Z</time></trkpt><trkpt lat="43.45215616500357" lon="10.816620048690876"><ele>99.0</ele><time>2026-04-20T13:43:07Z</time></trkpt><trkpt lat="43.45209325563077" lon="10.816371827526762"><ele>98.0</ele><time>2026-04-20T13:43:08Z</time></trkpt><trkpt lat="43.45202324983943" lon="10.81613770356848"><ele>98.0</ele><time>2026-04-20T13:43:09Z</time></trkpt><trkpt lat="43.45195202468156" lon="10.815900842075884"><ele>98.0</ele><time>2026-04-20T13:43:10Z</time></trkpt><trkpt lat="43.451885204050775" lon="10.815661979994191"><ele>98.0</ele><time>2026-04-20T13:43:11Z</time></trkpt><trkpt lat="43.451818798862526" lon="10.815418352626317"><ele>98.0</ele><time>2026-04-20T13:43:12Z</time></trkpt><trkpt lat="43.45175071298671" lon="10.815177258729024"><ele>98.0</ele><time>2026-04-20T13:43:13Z</time></trkpt><trkpt lat="43.45168532588703" lon="10.814949219032686"><ele>98.0</ele><time>2026-04-20T13:43:14Z</time></trkpt><trkpt lat="43.45162501183561" lon="10.81472923129687"><ele>99.0</ele><time>2026-04-20T13:43:15Z</time></trkpt><trkpt lat="43.45156737048442" lon="10.814504615970629"><ele>100.0</ele><time>2026-04-20T13:43:16Z</time></trkpt><trkpt lat="43.45151745516964" lon="10.814270265938593"><ele>101.0</ele><time>2026-04-20T13:43:17Z</time></trkpt><trkpt lat="43.45147595483336" lon="10.81402996470784"><ele>101.0</ele><time>2026-04-20T13:43:18Z</time></trkpt><trkpt lat="43.4514458077652" lon="10.813792925979953"><ele>101.0</ele><time>2026-04-20T13:43:19Z</time></trkpt><trkpt lat="43.451422211000356" lon="10.81355194038073"><ele>101.0</ele><time>2026-04-20T13:43:20Z</time></trkpt><trkpt lat="43.451408971863295" lon="10.813303767241084"><ele>100.66666666666666</ele><time>2026-04-20T13:43:21Z</time></trkpt><trkpt lat="43.45140202386877" lon="10.813071918953417"><ele>100.33333333333334</ele><time>2026-04-20T13:43:22Z</time></trkpt><trkpt lat="43.45139716135725" lon="10.812858867949354"><ele>100.0</ele><time>2026-04-20T13:43:23Z</time></trkpt><trkpt lat="43.451386849793685" lon="10.812629400254515"><ele>99.0</ele><time>2026-04-20T13:43:24Z</time></trkpt><trkpt lat="43.451383815705405" lon="10.812403684618506"><ele>98.0</ele><time>2026-04-20T13:43:25Z</time></trkpt><trkpt lat="43.45137297533683" lon="10.812188474147955"><ele>97.0</ele><time>2026-04-20T13:43:26Z</time></trkpt><trkpt lat="43.45135047286788" lon="10.811973894964305"><ele>96.0</ele><time>2026-04-20T13:43:27Z</time></trkpt><trkpt lat="43.45130796163893" lon="10.811755625971282"><ele>95.0</ele><time>2026-04-20T13:43:28Z</time></trkpt><trkpt lat="43.45126202210184" lon="10.811539465745927"><ele>94.0</ele><time>2026-04-20T13:43:29Z</time></trkpt><trkpt lat="43.451212687367" lon="10.811327490006446"><ele>97.0</ele><time>2026-04-20T13:43:30Z</time></trkpt><trkpt lat="43.45115915999962" lon="10.81112087334537"><ele>100.0</ele><time>2026-04-20T13:43:31Z</time></trkpt><trkpt lat="43.45111255470449" lon="10.810904366686055"><ele>103.0</ele><time>2026-04-20T13:43:32Z</time></trkpt><trkpt lat="43.45105524779774" lon="10.810691548592033"><ele>103.0</ele><time>2026-04-20T13:43:33Z</time></trkpt><trkpt lat="43.451000443085135" lon="10.810478519638266"><ele>103.0</ele><time>2026-04-20T13:43:34Z</time></trkpt><trkpt lat="43.45095843201856" lon="10.810258237350732"><ele>103.0</ele><time>2026-04-20T13:43:35Z</time></trkpt><trkpt lat="43.45093063048426" lon="10.810034394854192"><ele>101.0</ele><time>2026-04-20T13:43:36Z</time></trkpt><trkpt lat="43.45090728235877" lon="10.809812315566028"><ele>99.0</ele><time>2026-04-20T13:43:37Z</time></trkpt><trkpt lat="43.450888616042846" lon="10.809583904931092"><ele>97.0</ele><time>2026-04-20T13:43:38Z</time></trkpt><trkpt lat="43.450867767180064" lon="10.809358243461663"><ele>96.66666666666667</ele><time>2026-04-20T13:43:39Z</time></trkpt><trkpt lat="43.45084985171527" lon="10.809137128773763"><ele>96.33333333333334</ele><time>2026-04-20T13:43:40Z</time></trkpt><trkpt lat="43.45083244560649" lon="10.808917321582058"><ele>96.0</ele><time>2026-04-20T13:43:41Z</time></trkpt><trkpt lat="43.45081063734057" lon="10.808698521761567"><ele>95.66666666666667</ele><time>2026-04-20T13:43:42Z</time></trkpt><trkpt lat="43.45079485966991" lon="10.808477623091575"><ele>95.33333333333334</ele><time>2026-04-20T13:43:43Z</time></trkpt><trkpt lat="43.45078130697639" lon="10.808258834260197"><ele>95.0</ele><time>2026-04-20T13:43:44Z</time></trkpt><trkpt lat="43.45076391452246" lon="10.808038915654038"><ele>95.0</ele><time>2026-04-20T13:43:45Z</time></trkpt><trkpt lat="43.450754115977404" lon="10.807812317576165"><ele>95.0</ele><time>2026-04-20T13:43:46Z</time></trkpt><trkpt lat="43.45075445862328" lon="10.807582136750236"><ele>95.0</ele><time>2026-04-20T13:43:47Z</time></trkpt><trkpt lat="43.450764389629846" lon="10.80735086816222"><ele>95.0</ele><time>2026-04-20T13:43:48Z</time></trkpt><trkpt lat="43.45077824367726" lon="10.80711972159694"><ele>95.0</ele><time>2026-04-20T13:43:49Z</time></trkpt><trkpt lat="43.45079344996293" lon="10.806886398720694"><ele>95.0</ele><time>2026-04-20T13:43:50Z</time></trkpt><trkpt lat="43.45080748970977" lon="10.806652440020148"><ele>94.66666666666667</ele><time>2026-04-20T13:43:51Z</time></trkpt><trkpt lat="43.45082276934181" lon="10.806424809786144"><ele>94.33333333333333</ele><time>2026-04-20T13:43:52Z</time></trkpt><trkpt lat="43.450843209627685" lon="10.806195593001577"><ele>94.0</ele><time>2026-04-20T13:43:53Z</time></trkpt><trkpt lat="43.45087861259224" lon="10.80596174405629"><ele>94.66666666666666</ele><time>2026-04-20T13:43:54Z</time></trkpt><trkpt lat="43.450921858971206" lon="10.8057311682878"><ele>95.33333333333333</ele><time>2026-04-20T13:43:55Z</time></trkpt><trkpt lat="43.45097288494908" lon="10.805495140908842"><ele>96.0</ele><time>2026-04-20T13:43:56Z</time></trkpt><trkpt lat="43.45102799370749" lon="10.805264415342357"><ele>96.33333333333334</ele><time>2026-04-20T13:43:57Z</time></trkpt><trkpt lat="43.451079018608866" lon="10.80503391134657"><ele>96.66666666666667</ele><time>2026-04-20T13:43:58Z</time></trkpt><trkpt lat="43.45113339719765" lon="10.804806715455168"><ele>97.0</ele><time>2026-04-20T13:43:59Z</time></trkpt><trkpt lat="43.45119033937441" lon="10.80457592504122"><ele>97.0</ele><time>2026-04-20T13:44:00Z</time></trkpt><trkpt lat="43.45124382683369" lon="10.80434546309377"><ele>97.0</ele><time>2026-04-20T13:44:01Z</time></trkpt><trkpt lat="43.45129368439367" lon="10.804116687239162"><ele>97.0</ele><time>2026-04-20T13:44:02Z</time></trkpt><trkpt lat="43.451344316727905" lon="10.803886350001017"><ele>96.33333333333334</ele><time>2026-04-20T13:44:03Z</time></trkpt><trkpt lat="43.451392390601384" lon="10.803662654145464"><ele>95.66666666666667</ele><time>2026-04-20T13:44:04Z</time></trkpt><trkpt lat="43.45140719134997" lon="10.803424279234713"><ele>95.0</ele><time>2026-04-20T13:44:05Z</time></trkpt><trkpt lat="43.45142663726565" lon="10.803201080772276"><ele>95.0</ele><time>2026-04-20T13:44:06Z</time></trkpt><trkpt lat="43.45143771575491" lon="10.802980227865481"><ele>95.0</ele><time>2026-04-20T13:44:07Z</time></trkpt><trkpt lat="43.451441588677476" lon="10.802761525488702"><ele>95.0</ele><time>2026-04-20T13:44:08Z</time></trkpt><trkpt lat="43.45146004948568" lon="10.802542478560671"><ele>94.33333333333334</ele><time>2026-04-20T13:44:09Z</time></trkpt><trkpt lat="43.45149504226727" lon="10.802325386214466"><ele>93.66666666666667</ele><time>2026-04-20T13:44:10Z</time></trkpt><trkpt lat="43.4515491749631" lon="10.802108104514508"><ele>93.0</ele><time>2026-04-20T13:44:11Z</time></trkpt><trkpt lat="43.45160927596502" lon="10.801891936324282"><ele>92.66666666666667</ele><time>2026-04-20T13:44:12Z</time></trkpt><trkpt lat="43.45166704059583" lon="10.80167568952098"><ele>92.33333333333334</ele><time>2026-04-20T13:44:13Z</time></trkpt><trkpt lat="43.451727780366745" lon="10.801462243249812"><ele>92.0</ele><time>2026-04-20T13:44:14Z</time></trkpt><trkpt lat="43.4517866749793" lon="10.801258662663036"><ele>92.0</ele><time>2026-04-20T13:44:15Z</time></trkpt><trkpt lat="43.45184359770699" lon="10.801058358811925"><ele>92.0</ele><time>2026-04-20T13:44:16Z</time></trkpt><trkpt lat="43.45189995097557" lon="10.800847884944789"><ele>92.0</ele><time>2026-04-20T13:44:17Z</time></trkpt><trkpt lat="43.451956499161405" lon="10.800640890509982"><ele>92.0</ele><time>2026-04-20T13:44:18Z</time></trkpt><trkpt lat="43.45201326181799" lon="10.800438518483476"><ele>92.0</ele><time>2026-04-20T13:44:19Z</time></trkpt><trkpt lat="43.45206230374765" lon="10.800245261689112"><ele>92.0</ele><time>2026-04-20T13:44:20Z</time></trkpt><trkpt lat="43.452117137272815" lon="10.80004480980583"><ele>91.33333333333334</ele><time>2026-04-20T13:44:21Z</time></trkpt><trkpt lat="43.45216965346909" lon="10.799844255309575"><ele>90.66666666666667</ele><time>2026-04-20T13:44:22Z</time></trkpt><trkpt lat="43.45221770904286" lon="10.799644377030859"><ele>90.0</ele><time>2026-04-20T13:44:23Z</time></trkpt><trkpt lat="43.45227222820636" lon="10.799439425751105"><ele>89.66666666666667</ele><time>2026-04-20T13:44:24Z</time></trkpt><trkpt lat="43.45232984586466" lon="10.799231956818666"><ele>89.33333333333334</ele><time>2026-04-20T13:44:25Z</time></trkpt><trkpt lat="43.45238552495267" lon="10.799028420416676"><ele>89.0</ele><time>2026-04-20T13:44:26Z</time></trkpt><trkpt lat="43.45243610065412" lon="10.798821727157794"><ele>89.0</ele><time>2026-04-20T13:44:27Z</time></trkpt><trkpt lat="43.45249189520888" lon="10.798612287175605"><ele>89.0</ele><time>2026-04-20T13:44:28Z</time></trkpt><trkpt lat="43.45254623142602" lon="10.79840691889395"><ele>89.0</ele><time>2026-04-20T13:44:29Z</time></trkpt><trkpt lat="43.45260500762435" lon="10.79820264063845"><ele>89.0</ele><time>2026-04-20T13:44:30Z</time></trkpt><trkpt lat="43.45265178908557" lon="10.798000286209211"><ele>89.0</ele><time>2026-04-20T13:44:31Z</time></trkpt><trkpt lat="43.45270423907587" lon="10.797796261731023"><ele>89.0</ele><time>2026-04-20T13:44:32Z</time></trkpt><trkpt lat="43.45275977138363" lon="10.797593039010534"><ele>89.0</ele><time>2026-04-20T13:44:33Z</time></trkpt><trkpt lat="43.452815889730694" lon="10.797388855713807"><ele>89.0</ele><time>2026-04-20T13:44:34Z</time></trkpt><trkpt lat="43.452866907021715" lon="10.797183642449884"><ele>89.0</ele><time>2026-04-20T13:44:35Z</time></trkpt><trkpt lat="43.45292214778847" lon="10.796976138442105"><ele>89.33333333333334</ele><time>2026-04-20T13:44:36Z</time></trkpt><trkpt lat="43.452973849769315" lon="10.796770900662484"><ele>89.66666666666667</ele><time>2026-04-20T13:44:37Z</time></trkpt><trkpt lat="43.45303441196039" lon="10.79656374386658"><ele>90.0</ele><time>2026-04-20T13:44:38Z</time></trkpt><trkpt lat="43.453086562920326" lon="10.796356064526774"><ele>90.0</ele><time>2026-04-20T13:44:39Z</time></trkpt><trkpt lat="43.45314239232957" lon="10.796151348185672"><ele>90.0</ele><time>2026-04-20T13:44:40Z</time></trkpt><trkpt lat="43.45319658224038" lon="10.795944484590917"><ele>90.0</ele><time>2026-04-20T13:44:41Z</time></trkpt><trkpt lat="43.453248134948936" lon="10.795741712558426"><ele>89.33333333333333</ele><time>2026-04-20T13:44:42Z</time></trkpt><trkpt lat="43.45330542388158" lon="10.795535072380478"><ele>88.66666666666666</ele><time>2026-04-20T13:44:43Z</time></trkpt><trkpt lat="43.45335703620965" lon="10.79534251021075"><ele>88.0</ele><time>2026-04-20T13:44:44Z</time></trkpt><trkpt lat="43.45340862045881" lon="10.795160696583157"><ele>87.5</ele><time>2026-04-20T13:44:45Z</time></trkpt><trkpt lat="43.45345058516329" lon="10.794981268085634"><ele>87.0</ele><time>2026-04-20T13:44:46Z</time></trkpt><trkpt lat="43.453481760420125" lon="10.79480528512289"><ele>86.5</ele><time>2026-04-20T13:44:47Z</time></trkpt><trkpt lat="43.45350644754935" lon="10.794618149522147"><ele>86.0</ele><time>2026-04-20T13:44:48Z</time></trkpt><trkpt lat="43.4535103942244" lon="10.79441908590235"><ele>85.66666666666667</ele><time>2026-04-20T13:44:49Z</time></trkpt><trkpt lat="43.453506505428315" lon="10.794214395174807"><ele>85.33333333333333</ele><time>2026-04-20T13:44:50Z</time></trkpt><trkpt lat="43.45348830248649" lon="10.794004412794164"><ele>85.0</ele><time>2026-04-20T13:44:51Z</time></trkpt><trkpt lat="43.453457953410606" lon="10.793794124170653"><ele>85.0</ele><time>2026-04-20T13:44:52Z</time></trkpt><trkpt lat="43.45343172483708" lon="10.79358486603372"><ele>85.0</ele><time>2026-04-20T13:44:53Z</time></trkpt><trkpt lat="43.45340236581599" lon="10.793376195535076"><ele>85.0</ele><time>2026-04-20T13:44:54Z</time></trkpt><trkpt lat="43.45337042304331" lon="10.793174251762881"><ele>85.33333333333333</ele><time>2026-04-20T13:44:55Z</time></trkpt><trkpt lat="43.4533409626001" lon="10.792969155831393"><ele>85.66666666666667</ele><time>2026-04-20T13:44:56Z</time></trkpt><trkpt lat="43.45331098861501" lon="10.792763707155311"><ele>86.0</ele><time>2026-04-20T13:44:57Z</time></trkpt><trkpt lat="43.4532785627898" lon="10.79255904435039"><ele>86.0</ele><time>2026-04-20T13:44:58Z</time></trkpt><trkpt lat="43.45324548884521" lon="10.79235376294946"><ele>86.0</ele><time>2026-04-20T13:44:59Z</time></trkpt><trkpt lat="43.45321783782351" lon="10.792159128005494"><ele>86.0</ele><time>2026-04-20T13:45:00Z</time></trkpt><trkpt lat="43.45318921076395" lon="10.791971530321513"><ele>86.0</ele><time>2026-04-20T13:45:01Z</time></trkpt><trkpt lat="43.453162621832526" lon="10.791780621860381"><ele>86.25</ele><time>2026-04-20T13:45:02Z</time></trkpt><trkpt lat="43.45314860606661" lon="10.791577726349342"><ele>86.5</ele><time>2026-04-20T13:45:03Z</time></trkpt><trkpt lat="43.45314775028982" lon="10.791371592240619"><ele>86.75</ele><time>2026-04-20T13:45:04Z</time></trkpt><trkpt lat="43.453159565912166" lon="10.79116954087929"><ele>87.0</ele><time>2026-04-20T13:45:05Z</time></trkpt><trkpt lat="43.453172847730904" lon="10.790978596790266"><ele>87.25</ele><time>2026-04-20T13:45:06Z</time></trkpt><trkpt lat="43.453183646808775" lon="10.79078732048027"><ele>87.5</ele><time>2026-04-20T13:45:07Z</time></trkpt><trkpt lat="43.45320826318357" lon="10.790593092273294"><ele>87.75</ele><time>2026-04-20T13:45:08Z</time></trkpt><trkpt lat="43.45324507358091" lon="10.790399072796403"><ele>88.0</ele><time>2026-04-20T13:45:09Z</time></trkpt><trkpt lat="43.4532958973382" lon="10.790212406719744"><ele>87.33333333333333</ele><time>2026-04-20T13:45:10Z</time></trkpt><trkpt lat="43.453358038789275" lon="10.790022446916634"><ele>86.66666666666667</ele><time>2026-04-20T13:45:11Z</time></trkpt><trkpt lat="43.4534232455263" lon="10.789827425601839"><ele>86.0</ele><time>2026-04-20T13:45:12Z</time></trkpt><trkpt lat="43.453490262543134" lon="10.78962316205566"><ele>86.0</ele><time>2026-04-20T13:45:13Z</time></trkpt><trkpt lat="43.45356375362776" lon="10.789412010791704"><ele>86.0</ele><time>2026-04-20T13:45:14Z</time></trkpt><trkpt lat="43.45363817430865" lon="10.789200472555805"><ele>86.0</ele><time>2026-04-20T13:45:15Z</time></trkpt><trkpt lat="43.45371796180351" lon="10.788986812315173"><ele>85.33333333333334</ele><time>2026-04-20T13:45:16Z</time></trkpt><trkpt lat="43.45380300498998" lon="10.788767411329951"><ele>84.66666666666667</ele><time>2026-04-20T13:45:17Z</time></trkpt><trkpt lat="43.45388088550045" lon="10.788549541482459"><ele>84.0</ele><time>2026-04-20T13:45:18Z</time></trkpt><trkpt lat="43.45396829778145" lon="10.788335715544552"><ele>84.0</ele><time>2026-04-20T13:45:19Z</time></trkpt><trkpt lat="43.454055759597885" lon="10.78812387620231"><ele>84.0</ele><time>2026-04-20T13:45:20Z</time></trkpt><trkpt lat="43.454136533620414" lon="10.787902877729929"><ele>84.0</ele><time>2026-04-20T13:45:21Z</time></trkpt><trkpt lat="43.4542123631783" lon="10.78767968722783"><ele>84.33333333333333</ele><time>2026-04-20T13:45:22Z</time></trkpt><trkpt lat="43.4542930561184" lon="10.787455947537786"><ele>84.66666666666666</ele><time>2026-04-20T13:45:23Z</time></trkpt><trkpt lat="43.45437225346197" lon="10.787229464423142"><ele>85.0</ele><time>2026-04-20T13:45:24Z</time></trkpt><trkpt lat="43.45445466379488" lon="10.787001756132389"><ele>85.33333333333333</ele><time>2026-04-20T13:45:25Z</time></trkpt><trkpt lat="43.454537870800266" lon="10.786773903199544"><ele>85.66666666666667</ele><time>2026-04-20T13:45:26Z</time></trkpt><trkpt lat="43.454618656484875" lon="10.786542152196668"><ele>86.0</ele><time>2026-04-20T13:45:27Z</time></trkpt><trkpt lat="43.45470654415742" lon="10.786314681859366"><ele>86.0</ele><time>2026-04-20T13:45:28Z</time></trkpt><trkpt lat="43.45480757302483" lon="10.786082761174265"><ele>86.0</ele><time>2026-04-20T13:45:29Z</time></trkpt><trkpt lat="43.45490926494554" lon="10.785866665604845"><ele>86.0</ele><time>2026-04-20T13:45:30Z</time></trkpt><trkpt lat="43.45501235400447" lon="10.785646967799444"><ele>86.0</ele><time>2026-04-20T13:45:31Z</time></trkpt><trkpt lat="43.45510704489668" lon="10.785439413355416"><ele>86.0</ele><time>2026-04-20T13:45:32Z</time></trkpt><trkpt lat="43.455195794613" lon="10.78524213699535"><ele>86.0</ele><time>2026-04-20T13:45:33Z</time></trkpt><trkpt lat="43.45527859270333" lon="10.785047355599511"><ele>86.0</ele><time>2026-04-20T13:45:34Z</time></trkpt><trkpt lat="43.4553581556102" lon="10.784861587925079"><ele>86.0</ele><time>2026-04-20T13:45:35Z</time></trkpt><trkpt lat="43.45543822007644" lon="10.784684058918009"><ele>86.0</ele><time>2026-04-20T13:45:36Z</time></trkpt><trkpt lat="43.4555236227908" lon="10.784505699483205"><ele>85.66666666666667</ele><time>2026-04-20T13:45:37Z</time></trkpt><trkpt lat="43.45562631786919" lon="10.784338012565074"><ele>85.33333333333333</ele><time>2026-04-20T13:45:38Z</time></trkpt><trkpt lat="43.45574277096906" lon="10.784185014904216"><ele>85.0</ele><time>2026-04-20T13:45:39Z</time></trkpt><trkpt lat="43.455867483248184" lon="10.784045981748424"><ele>85.0</ele><time>2026-04-20T13:45:40Z</time></trkpt><trkpt lat="43.455999892880904" lon="10.78390764427943"><ele>85.0</ele><time>2026-04-20T13:45:41Z</time></trkpt><trkpt lat="43.4561360594829" lon="10.783774933700865"><ele>85.0</ele><time>2026-04-20T13:45:42Z</time></trkpt><trkpt lat="43.45627235068349" lon="10.783634737921096"><ele>84.0</ele><time>2026-04-20T13:45:43Z</time></trkpt><trkpt lat="43.45641088490789" lon="10.783491216505423"><ele>83.0</ele><time>2026-04-20T13:45:44Z</time></trkpt><trkpt lat="43.45654561256367" lon="10.78334842649216"><ele>82.0</ele><time>2026-04-20T13:45:45Z</time></trkpt><trkpt lat="43.4566896301815" lon="10.783202290761196"><ele>82.0</ele><time>2026-04-20T13:45:46Z</time></trkpt><trkpt lat="43.45683301850263" lon="10.78305369254134"><ele>82.0</ele><time>2026-04-20T13:45:47Z</time></trkpt><trkpt lat="43.45696378450055" lon="10.782917463967555"><ele>82.0</ele><time>2026-04-20T13:45:48Z</time></trkpt><trkpt lat="43.45708109135845" lon="10.782793317345511"><ele>82.25</ele><time>2026-04-20T13:45:49Z</time></trkpt><trkpt lat="43.45718864369309" lon="10.782674707732278"><ele>82.5</ele><time>2026-04-20T13:45:50Z</time></trkpt><trkpt lat="43.457295929479436" lon="10.782564478320268"><ele>82.75</ele><time>2026-04-20T13:45:51Z</time></trkpt><trkpt lat="43.457391603046126" lon="10.78246075717071"><ele>83.0</ele><time>2026-04-20T13:45:52Z</time></trkpt><trkpt lat="43.457485712306315" lon="10.782370155711547"><ele>83.0</ele><time>2026-04-20T13:45:53Z</time></trkpt><trkpt lat="43.457554726058035" lon="10.782297709260119"><ele>83.0</ele><time>2026-04-20T13:45:54Z</time></trkpt><trkpt lat="43.45762402066946" lon="10.782241684301242"><ele>83.0</ele><time>2026-04-20T13:45:55Z</time></trkpt><trkpt lat="43.45767336743985" lon="10.782172873348209"><ele>83.0</ele><time>2026-04-20T13:45:58Z</time></trkpt><trkpt lat="43.45772453311256" lon="10.782105111919753"><ele>83.0</ele><time>2026-04-20T13:46:03Z</time></trkpt><trkpt lat="43.45764763317837" lon="10.78196582023011"><ele>83.0</ele><time>2026-04-20T13:46:05Z</time></trkpt><trkpt lat="43.45759068458827" lon="10.781915805298926"><ele>83.60000000000001</ele><time>2026-04-20T13:46:06Z</time></trkpt><trkpt lat="43.4574836886869" lon="10.781836720162175"><ele>84.2</ele><time>2026-04-20T13:46:08Z</time></trkpt><trkpt lat="43.45740828089863" lon="10.781817190125722"><ele>84.8</ele><time>2026-04-20T13:46:10Z</time></trkpt><trkpt lat="43.45734406377655" lon="10.781802299002068"><ele>85.4</ele><time>2026-04-20T13:46:43Z</time></trkpt><trkpt lat="43.45721800761834" lon="10.781786042587669"><ele>86.0</ele><time>2026-04-20T13:46:45Z</time></trkpt><trkpt lat="43.45710432493769" lon="10.781775613463138"><ele>86.33333333333334</ele><time>2026-04-20T13:46:47Z</time></trkpt><trkpt lat="43.456968603331084" lon="10.781762292953129"><ele>86.66666666666667</ele><time>2026-04-20T13:46:49Z</time></trkpt><trkpt lat="43.45689209202674" lon="10.78174718802948"><ele>87.0</ele><time>2026-04-20T13:46:50Z</time></trkpt><trkpt lat="43.45681774757586" lon="10.781751161776135"><ele>87.33333333333333</ele><time>2026-04-20T13:46:51Z</time></trkpt><trkpt lat="43.45673754315247" lon="10.78174699417691"><ele>87.66666666666666</ele><time>2026-04-20T13:46:52Z</time></trkpt><trkpt lat="43.456660520886686" lon="10.781741358830947"><ele>88.0</ele><time>2026-04-20T13:46:53Z</time></trkpt><trkpt lat="43.45659059437746" lon="10.781734935743186"><ele>88.0</ele><time>2026-04-20T13:46:54Z</time></trkpt><trkpt lat="43.45649843541526" lon="10.78168338890277"><ele>88.0</ele><time>2026-04-20T13:46:56Z</time></trkpt><trkpt lat="43.456428774114464" lon="10.781577742605053"><ele>88.0</ele><time>2026-04-20T13:46:58Z</time></trkpt><trkpt lat="43.45641299428835" lon="10.78142925984474"><ele>88.0</ele><time>2026-04-20T13:47:00Z</time></trkpt><trkpt lat="43.456362446913495" lon="10.781316687407994"><ele>88.0</ele><time>2026-04-20T13:47:02Z</time></trkpt><trkpt lat="43.45629807699861" lon="10.781219385260785"><ele>88.0</ele><time>2026-04-20T13:47:04Z</time></trkpt><trkpt lat="43.45623062181709" lon="10.781147559072114"><ele>88.0</ele><time>2026-04-20T13:47:06Z</time></trkpt><trkpt lat="43.45617225087267" lon="10.781095457114771"><ele>88.0</ele><time>2026-04-20T13:47:08Z</time></trkpt><trkpt lat="43.4561067055392" lon="10.781067421963904"><ele>88.0</ele><time>2026-04-20T13:47:11Z</time></trkpt><trkpt lat="43.45616503878818" lon="10.781131085568251"><ele>88.0</ele><time>2026-04-20T13:47:20Z</time></trkpt><trkpt lat="43.45625770269893" lon="10.781168422532295"><ele>88.0</ele><time>2026-04-20T13:47:22Z</time></trkpt><trkpt lat="43.45633900168838" lon="10.781256964901951"><ele>88.0</ele><time>2026-04-20T13:47:24Z</time></trkpt><trkpt lat="43.456394259841794" lon="10.781380095405494"><ele>88.0</ele><time>2026-04-20T13:47:26Z</time></trkpt><trkpt lat="43.45649059527077" lon="10.781358890678792"><ele>88.0</ele><time>2026-04-20T13:47:27Z</time></trkpt><trkpt lat="43.45644913679745" lon="10.781589587269515"><ele>88.0</ele><time>2026-04-20T13:47:28Z</time></trkpt><trkpt lat="43.45650369280387" lon="10.781702424482496"><ele>88.0</ele><time>2026-04-20T13:47:30Z</time></trkpt><trkpt lat="43.45656550568777" lon="10.781736199658834"><ele>88.0</ele><time>2026-04-20T13:47:31Z</time></trkpt><trkpt lat="43.45663294945861" lon="10.781758287851723"><ele>88.0</ele><time>2026-04-20T13:47:32Z</time></trkpt><trkpt lat="43.45671051676005" lon="10.781768925616102"><ele>88.0</ele><time>2026-04-20T13:47:33Z</time></trkpt><trkpt lat="43.45678408542835" lon="10.78177727502072"><ele>88.0</ele><time>2026-04-20T13:47:34Z</time></trkpt><trkpt lat="43.45685259880786" lon="10.781786211528537"><ele>88.0</ele><time>2026-04-20T13:47:35Z</time></trkpt><trkpt lat="43.45693073714793" lon="10.781791814366576"><ele>88.0</ele><time>2026-04-20T13:47:36Z</time></trkpt><trkpt lat="43.45701154105995" lon="10.78180554830107"><ele>88.0</ele><time>2026-04-20T13:47:37Z</time></trkpt><trkpt lat="43.457091828549075" lon="10.781811922604184"><ele>88.0</ele><time>2026-04-20T13:47:38Z</time></trkpt><trkpt lat="43.45716139912136" lon="10.781817690004145"><ele>88.0</ele><time>2026-04-20T13:47:39Z</time></trkpt><trkpt lat="43.45728371491666" lon="10.78182311547781"><ele>88.0</ele><time>2026-04-20T13:47:41Z</time></trkpt><trkpt lat="43.45734776209986" lon="10.781828458188656"><ele>88.0</ele><time>2026-04-20T13:47:42Z</time></trkpt><trkpt lat="43.45746922083366" lon="10.781859214731192"><ele>87.16666666666666</ele><time>2026-04-20T13:47:44Z</time></trkpt><trkpt lat="43.45753535237137" lon="10.78191009072213"><ele>86.33333333333333</ele><time>2026-04-20T13:47:45Z</time></trkpt><trkpt lat="43.457590653474895" lon="10.781975131953851"><ele>85.5</ele><time>2026-04-20T13:47:46Z</time></trkpt><trkpt lat="43.457637144649865" lon="10.782095903748225"><ele>84.66666666666667</ele><time>2026-04-20T13:47:48Z</time></trkpt><trkpt lat="43.45768227289782" lon="10.782161276159899"><ele>83.83333333333334</ele><time>2026-04-20T13:47:53Z</time></trkpt><trkpt lat="43.457778685713045" lon="10.782085811946716"><ele>83.0</ele><time>2026-04-20T13:47:55Z</time></trkpt><trkpt lat="43.45783046307417" lon="10.782007232361416"><ele>83.0</ele><time>2026-04-20T13:47:56Z</time></trkpt><trkpt lat="43.457899050479675" lon="10.781933644537617"><ele>83.0</ele><time>2026-04-20T13:47:57Z</time></trkpt><trkpt lat="43.457975409024876" lon="10.781851366846665"><ele>83.0</ele><time>2026-04-20T13:47:58Z</time></trkpt><trkpt lat="43.458058258147574" lon="10.781762491225157"><ele>83.0</ele><time>2026-04-20T13:47:59Z</time></trkpt><trkpt lat="43.45815372005239" lon="10.781664379337883"><ele>83.0</ele><time>2026-04-20T13:48:00Z</time></trkpt><trkpt lat="43.45826235373297" lon="10.781559300830446"><ele>83.0</ele><time>2026-04-20T13:48:01Z</time></trkpt><trkpt lat="43.45835913656659" lon="10.781443036124994"><ele>83.0</ele><time>2026-04-20T13:48:02Z</time></trkpt><trkpt lat="43.458475008916814" lon="10.781321948805028"><ele>83.0</ele><time>2026-04-20T13:48:03Z</time></trkpt><trkpt lat="43.45858484728375" lon="10.781198379371121"><ele>83.0</ele><time>2026-04-20T13:48:04Z</time></trkpt><trkpt lat="43.45870657517161" lon="10.781074303476204"><ele>82.66666666666667</ele><time>2026-04-20T13:48:05Z</time></trkpt><trkpt lat="43.45882993147027" lon="10.780944452676575"><ele>82.33333333333333</ele><time>2026-04-20T13:48:06Z</time></trkpt><trkpt lat="43.45896299853605" lon="10.780809423959935"><ele>82.0</ele><time>2026-04-20T13:48:07Z</time></trkpt><trkpt lat="43.45909724687546" lon="10.78066864888222"><ele>82.0</ele><time>2026-04-20T13:48:08Z</time></trkpt><trkpt lat="43.45922992056872" lon="10.780523605218812"><ele>82.0</ele><time>2026-04-20T13:48:09Z</time></trkpt><trkpt lat="43.45936427616159" lon="10.780378506899792"><ele>82.0</ele><time>2026-04-20T13:48:10Z</time></trkpt><trkpt lat="43.45950759314939" lon="10.780226931411056"><ele>82.66666666666666</ele><time>2026-04-20T13:48:11Z</time></trkpt><trkpt lat="43.4596412752575" lon="10.780084944535917"><ele>83.33333333333333</ele><time>2026-04-20T13:48:12Z</time></trkpt><trkpt lat="43.45978015685673" lon="10.779938561406178"><ele>84.0</ele><time>2026-04-20T13:48:13Z</time></trkpt><trkpt lat="43.4599313718583" lon="10.779785012241245"><ele>84.0</ele><time>2026-04-20T13:48:14Z</time></trkpt><trkpt lat="43.46008193434765" lon="10.77963683577761"><ele>84.0</ele><time>2026-04-20T13:48:15Z</time></trkpt><trkpt lat="43.460221889253866" lon="10.779487557833587"><ele>84.0</ele><time>2026-04-20T13:48:16Z</time></trkpt><trkpt lat="43.460369706723846" lon="10.779332888742413"><ele>84.33333333333333</ele><time>2026-04-20T13:48:17Z</time></trkpt><trkpt lat="43.46050773283926" lon="10.779180442034276"><ele>84.66666666666666</ele><time>2026-04-20T13:48:18Z</time></trkpt><trkpt lat="43.460656038078405" lon="10.779026267031226"><ele>85.0</ele><time>2026-04-20T13:48:19Z</time></trkpt><trkpt lat="43.46080067919651" lon="10.778873031134797"><ele>85.0</ele><time>2026-04-20T13:48:20Z</time></trkpt><trkpt lat="43.46093760639165" lon="10.778722587751481"><ele>85.0</ele><time>2026-04-20T13:48:21Z</time></trkpt><trkpt lat="43.461076485012576" lon="10.778569405908067"><ele>85.0</ele><time>2026-04-20T13:48:22Z</time></trkpt><trkpt lat="43.46122828978713" lon="10.778413917280433"><ele>84.33333333333333</ele><time>2026-04-20T13:48:23Z</time></trkpt><trkpt lat="43.46138410241824" lon="10.77826685939309"><ele>83.66666666666667</ele><time>2026-04-20T13:48:24Z</time></trkpt><trkpt lat="43.46154606605548" lon="10.778138056785652"><ele>83.0</ele><time>2026-04-20T13:48:25Z</time></trkpt><trkpt lat="43.461712338743624" lon="10.778009714926421"><ele>83.0</ele><time>2026-04-20T13:48:26Z</time></trkpt><trkpt lat="43.46187307887242" lon="10.777880916086387"><ele>83.0</ele><time>2026-04-20T13:48:27Z</time></trkpt><trkpt lat="43.46204477101762" lon="10.777750395427764"><ele>83.0</ele><time>2026-04-20T13:48:28Z</time></trkpt><trkpt lat="43.46220500721391" lon="10.777619895744621"><ele>83.0</ele><time>2026-04-20T13:48:29Z</time></trkpt><trkpt lat="43.462369627369505" lon="10.777489130121603"><ele>83.0</ele><time>2026-04-20T13:48:30Z</time></trkpt><trkpt lat="43.46253787954767" lon="10.777354820929297"><ele>83.0</ele><time>2026-04-20T13:48:31Z</time></trkpt><trkpt lat="43.46271088936716" lon="10.777217745390569"><ele>83.0</ele><time>2026-04-20T13:48:32Z</time></trkpt><trkpt lat="43.46288214707448" lon="10.777083389729645"><ele>83.0</ele><time>2026-04-20T13:48:33Z</time></trkpt><trkpt lat="43.4630554265467" lon="10.776951751683184"><ele>83.0</ele><time>2026-04-20T13:48:34Z</time></trkpt><trkpt lat="43.463224674285996" lon="10.776817509190362"><ele>82.33333333333334</ele><time>2026-04-20T13:48:35Z</time></trkpt><trkpt lat="43.463391990218526" lon="10.776681434773394"><ele>81.66666666666667</ele><time>2026-04-20T13:48:36Z</time></trkpt><trkpt lat="43.46356290338323" lon="10.776549124842179"><ele>81.0</ele><time>2026-04-20T13:48:37Z</time></trkpt><trkpt lat="43.46373400109376" lon="10.776414198892782"><ele>80.33333333333333</ele><time>2026-04-20T13:48:38Z</time></trkpt><trkpt lat="43.46391429052554" lon="10.776278576858466"><ele>79.66666666666666</ele><time>2026-04-20T13:48:39Z</time></trkpt><trkpt lat="43.46408403872349" lon="10.776148917610323"><ele>79.0</ele><time>2026-04-20T13:48:40Z</time></trkpt><trkpt lat="43.46424857404212" lon="10.776022415613701"><ele>79.0</ele><time>2026-04-20T13:48:41Z</time></trkpt><trkpt lat="43.46440689576125" lon="10.775896627259973"><ele>79.0</ele><time>2026-04-20T13:48:42Z</time></trkpt><trkpt lat="43.46456384805434" lon="10.775772319068773"><ele>79.0</ele><time>2026-04-20T13:48:43Z</time></trkpt><trkpt lat="43.46472016748049" lon="10.775645479414294"><ele>79.0</ele><time>2026-04-20T13:48:44Z</time></trkpt><trkpt lat="43.46487957749845" lon="10.77552048882203"><ele>79.0</ele><time>2026-04-20T13:48:45Z</time></trkpt><trkpt lat="43.46504009198931" lon="10.775391767782018"><ele>79.0</ele><time>2026-04-20T13:48:46Z</time></trkpt><trkpt lat="43.46520811321732" lon="10.775265134889583"><ele>78.66666666666666</ele><time>2026-04-20T13:48:47Z</time></trkpt><trkpt lat="43.46536881234138" lon="10.775137106693869"><ele>78.33333333333333</ele><time>2026-04-20T13:48:48Z</time></trkpt><trkpt lat="43.46552591282024" lon="10.775012424737719"><ele>78.0</ele><time>2026-04-20T13:48:49Z</time></trkpt><trkpt lat="43.46568337601959" lon="10.774898310865577"><ele>78.0</ele><time>2026-04-20T13:48:50Z</time></trkpt><trkpt lat="43.46585395718394" lon="10.77479927387928"><ele>78.0</ele><time>2026-04-20T13:48:51Z</time></trkpt><trkpt lat="43.46602649890486" lon="10.774725471700796"><ele>78.0</ele><time>2026-04-20T13:48:52Z</time></trkpt><trkpt lat="43.46619818031381" lon="10.774662266240268"><ele>77.66666666666667</ele><time>2026-04-20T13:48:53Z</time></trkpt><trkpt lat="43.46638610318089" lon="10.77460126898338"><ele>77.33333333333334</ele><time>2026-04-20T13:48:54Z</time></trkpt><trkpt lat="43.46657443564751" lon="10.774547005333858"><ele>77.0</ele><time>2026-04-20T13:48:55Z</time></trkpt><trkpt lat="43.46675931071412" lon="10.774491089041183"><ele>77.0</ele><time>2026-04-20T13:48:56Z</time></trkpt><trkpt lat="43.46694147462543" lon="10.774438358356388"><ele>77.0</ele><time>2026-04-20T13:48:57Z</time></trkpt><trkpt lat="43.4671094461412" lon="10.774391127234203"><ele>77.0</ele><time>2026-04-20T13:48:58Z</time></trkpt><trkpt lat="43.4672683910633" lon="10.774346950657783"><ele>78.5</ele><time>2026-04-20T13:48:59Z</time></trkpt><trkpt lat="43.46741699565574" lon="10.774304682216242"><ele>80.0</ele><time>2026-04-20T13:49:00Z</time></trkpt><trkpt lat="43.46755401463799" lon="10.774250177697654"><ele>81.5</ele><time>2026-04-20T13:49:01Z</time></trkpt><trkpt lat="43.46767358700857" lon="10.774190235263564"><ele>83.0</ele><time>2026-04-20T13:49:02Z</time></trkpt><trkpt lat="43.46779892880856" lon="10.774092754262702"><ele>83.0</ele><time>2026-04-20T13:49:03Z</time></trkpt><trkpt lat="43.46792856906801" lon="10.773980588443075"><ele>83.0</ele><time>2026-04-20T13:49:04Z</time></trkpt><trkpt lat="43.46805590735311" lon="10.773851422523252"><ele>83.0</ele><time>2026-04-20T13:49:05Z</time></trkpt><trkpt lat="43.46818791344417" lon="10.773714001450987"><ele>84.0</ele><time>2026-04-20T13:49:06Z</time></trkpt><trkpt lat="43.46832382852334" lon="10.773577423405415"><ele>85.0</ele><time>2026-04-20T13:49:07Z</time></trkpt><trkpt lat="43.4684626100285" lon="10.773429727912035"><ele>86.0</ele><time>2026-04-20T13:49:08Z</time></trkpt><trkpt lat="43.46859845592626" lon="10.77328011673463"><ele>86.0</ele><time>2026-04-20T13:49:09Z</time></trkpt><trkpt lat="43.46874316606838" lon="10.773125785419857"><ele>86.0</ele><time>2026-04-20T13:49:10Z</time></trkpt><trkpt lat="43.468890123554296" lon="10.772972687234883"><ele>86.0</ele><time>2026-04-20T13:49:11Z</time></trkpt><trkpt lat="43.46902767756302" lon="10.772828132928655"><ele>84.66666666666667</ele><time>2026-04-20T13:49:12Z</time></trkpt><trkpt lat="43.46916786438972" lon="10.77267578292335"><ele>83.33333333333333</ele><time>2026-04-20T13:49:13Z</time></trkpt><trkpt lat="43.46931516823522" lon="10.772521006188718"><ele>82.0</ele><time>2026-04-20T13:49:14Z</time></trkpt><trkpt lat="43.46946695249313" lon="10.772361255445029"><ele>79.66666666666666</ele><time>2026-04-20T13:49:15Z</time></trkpt><trkpt lat="43.469609374893786" lon="10.772201792325255"><ele>77.33333333333333</ele><time>2026-04-20T13:49:16Z</time></trkpt><trkpt lat="43.46975950840806" lon="10.772034023276653"><ele>75.0</ele><time>2026-04-20T13:49:17Z</time></trkpt><trkpt lat="43.46990794221307" lon="10.771865098751626"><ele>77.66666666666667</ele><time>2026-04-20T13:49:18Z</time></trkpt><trkpt lat="43.47006301063173" lon="10.77169265521374"><ele>80.33333333333334</ele><time>2026-04-20T13:49:19Z</time></trkpt><trkpt lat="43.47021379288689" lon="10.77151734086671"><ele>83.0</ele><time>2026-04-20T13:49:20Z</time></trkpt><trkpt lat="43.4703611943703" lon="10.771341733328661"><ele>81.66666666666667</ele><time>2026-04-20T13:49:21Z</time></trkpt><trkpt lat="43.4704999976497" lon="10.771164483479845"><ele>80.33333333333333</ele><time>2026-04-20T13:49:22Z</time></trkpt><trkpt lat="43.47064851365223" lon="10.770997631719384"><ele>79.0</ele><time>2026-04-20T13:49:23Z</time></trkpt><trkpt lat="43.470787636657434" lon="10.770818529281767"><ele>79.0</ele><time>2026-04-20T13:49:24Z</time></trkpt><trkpt lat="43.470927343520835" lon="10.770654746310463"><ele>79.0</ele><time>2026-04-20T13:49:25Z</time></trkpt><trkpt lat="43.47105824409855" lon="10.770462757497162"><ele>79.0</ele><time>2026-04-20T13:49:26Z</time></trkpt><trkpt lat="43.47117311840701" lon="10.77027418796391"><ele>77.66666666666666</ele><time>2026-04-20T13:49:27Z</time></trkpt><trkpt lat="43.47128820023117" lon="10.77007880867539"><ele>76.33333333333333</ele><time>2026-04-20T13:49:28Z</time></trkpt><trkpt lat="43.47139475108079" lon="10.769893902710685"><ele>75.0</ele><time>2026-04-20T13:49:29Z</time></trkpt><trkpt lat="43.47150468120927" lon="10.769697686463841"><ele>75.0</ele><time>2026-04-20T13:49:30Z</time></trkpt><trkpt lat="43.47160717753744" lon="10.769493640394655"><ele>75.0</ele><time>2026-04-20T13:49:31Z</time></trkpt><trkpt lat="43.471699881232496" lon="10.769289939505125"><ele>75.0</ele><time>2026-04-20T13:49:32Z</time></trkpt><trkpt lat="43.471766453078104" lon="10.76908124221978"><ele>75.75</ele><time>2026-04-20T13:49:33Z</time></trkpt><trkpt lat="43.47182900313608" lon="10.768897531207525"><ele>76.5</ele><time>2026-04-20T13:49:34Z</time></trkpt><trkpt lat="43.471883110987" lon="10.768718529032713"><ele>77.25</ele><time>2026-04-20T13:49:35Z</time></trkpt><trkpt lat="43.471931137761274" lon="10.768540340917449"><ele>78.0</ele><time>2026-04-20T13:49:36Z</time></trkpt><trkpt lat="43.47198859107078" lon="10.768364969898588"><ele>78.0</ele><time>2026-04-20T13:49:37Z</time></trkpt><trkpt lat="43.47203571392709" lon="10.768193195545518"><ele>78.0</ele><time>2026-04-20T13:49:38Z</time></trkpt><trkpt lat="43.47208667577861" lon="10.768022401964258"><ele>78.0</ele><time>2026-04-20T13:49:39Z</time></trkpt><trkpt lat="43.472138868129264" lon="10.767850865910978"><ele>78.0</ele><time>2026-04-20T13:49:40Z</time></trkpt><trkpt lat="43.472193588377436" lon="10.767674184483669"><ele>77.5</ele><time>2026-04-20T13:49:41Z</time></trkpt><trkpt lat="43.472242553710004" lon="10.767495345269113"><ele>77.0</ele><time>2026-04-20T13:49:42Z</time></trkpt><trkpt lat="43.472292439971525" lon="10.767315094002862"><ele>76.5</ele><time>2026-04-20T13:49:43Z</time></trkpt><trkpt lat="43.47234017313425" lon="10.767128489676978"><ele>76.0</ele><time>2026-04-20T13:49:44Z</time></trkpt><trkpt lat="43.4723931951704" lon="10.766931848973158"><ele>76.0</ele><time>2026-04-20T13:49:45Z</time></trkpt><trkpt lat="43.47244398236632" lon="10.766736876326592"><ele>76.0</ele><time>2026-04-20T13:49:46Z</time></trkpt><trkpt lat="43.47249721592643" lon="10.766539097124861"><ele>76.0</ele><time>2026-04-20T13:49:47Z</time></trkpt><trkpt lat="43.47254826294503" lon="10.766332773606472"><ele>76.0</ele><time>2026-04-20T13:49:48Z</time></trkpt><trkpt lat="43.47259960956982" lon="10.766125525227134"><ele>76.0</ele><time>2026-04-20T13:49:49Z</time></trkpt><trkpt lat="43.472661755582706" lon="10.76591283941945"><ele>76.0</ele><time>2026-04-20T13:49:50Z</time></trkpt><trkpt lat="43.47272025683484" lon="10.7656995521124"><ele>76.66666666666666</ele><time>2026-04-20T13:49:51Z</time></trkpt><trkpt lat="43.47278773194796" lon="10.765483382071997"><ele>77.33333333333333</ele><time>2026-04-20T13:49:52Z</time></trkpt><trkpt lat="43.47284669554631" lon="10.765262996007056"><ele>78.0</ele><time>2026-04-20T13:49:53Z</time></trkpt><trkpt lat="43.472886202875564" lon="10.765044316105733"><ele>78.33333333333333</ele><time>2026-04-20T13:49:54Z</time></trkpt><trkpt lat="43.47292828911124" lon="10.76481209628219"><ele>78.66666666666666</ele><time>2026-04-20T13:49:55Z</time></trkpt><trkpt lat="43.472956921199035" lon="10.764576750840599"><ele>79.0</ele><time>2026-04-20T13:49:56Z</time></trkpt><trkpt lat="43.47297200639039" lon="10.764360180491588"><ele>79.0</ele><time>2026-04-20T13:49:57Z</time></trkpt><trkpt lat="43.47299402440056" lon="10.764150368343941"><ele>79.0</ele><time>2026-04-20T13:49:58Z</time></trkpt><trkpt lat="43.47300845463816" lon="10.763955068743643"><ele>79.0</ele><time>2026-04-20T13:49:59Z</time></trkpt><trkpt lat="43.47302389771654" lon="10.763789689861346"><ele>79.0</ele><time>2026-04-20T13:50:00Z</time></trkpt><trkpt lat="43.47303846211215" lon="10.763649261106961"><ele>79.0</ele><time>2026-04-20T13:50:01Z</time></trkpt><trkpt lat="43.47304443246468" lon="10.763535411241525"><ele>79.0</ele><time>2026-04-20T13:50:02Z</time></trkpt><trkpt lat="43.47305900466432" lon="10.76341149980129"><ele>79.0</ele><time>2026-04-20T13:50:04Z</time></trkpt><trkpt lat="43.47304891759128" lon="10.763306183009266"><ele>79.0</ele><time>2026-04-20T13:50:08Z</time></trkpt><trkpt lat="43.47293329236931" lon="10.763264651413456"><ele>79.0</ele><time>2026-04-20T13:50:10Z</time></trkpt><trkpt lat="43.472856333414455" lon="10.763259916957411"><ele>79.0</ele><time>2026-04-20T13:50:11Z</time></trkpt><trkpt lat="43.4727661658564" lon="10.763243602692999"><ele>79.5</ele><time>2026-04-20T13:50:12Z</time></trkpt><trkpt lat="43.47265677336498" lon="10.763221523768596"><ele>80.0</ele><time>2026-04-20T13:50:13Z</time></trkpt><trkpt lat="43.47256302059691" lon="10.763206077478204"><ele>80.5</ele><time>2026-04-20T13:50:14Z</time></trkpt><trkpt lat="43.47244702249638" lon="10.763176664055278"><ele>81.0</ele><time>2026-04-20T13:50:15Z</time></trkpt><trkpt lat="43.47231874898419" lon="10.76312787171439"><ele>81.0</ele><time>2026-04-20T13:50:16Z</time></trkpt><trkpt lat="43.47218112963649" lon="10.763066682638016"><ele>81.0</ele><time>2026-04-20T13:50:17Z</time></trkpt><trkpt lat="43.47204602862469" lon="10.762999350050826"><ele>81.0</ele><time>2026-04-20T13:50:18Z</time></trkpt><trkpt lat="43.471909991882654" lon="10.7629216165824"><ele>81.0</ele><time>2026-04-20T13:50:19Z</time></trkpt><trkpt lat="43.47176841735211" lon="10.762840322423205"><ele>80.66666666666667</ele><time>2026-04-20T13:50:20Z</time></trkpt><trkpt lat="43.47162663502828" lon="10.762748625033655"><ele>80.33333333333334</ele><time>2026-04-20T13:50:21Z</time></trkpt><trkpt lat="43.471478565341904" lon="10.762656057153228"><ele>80.0</ele><time>2026-04-20T13:50:22Z</time></trkpt><trkpt lat="43.47133081412564" lon="10.762563094743465"><ele>81.0</ele><time>2026-04-20T13:50:23Z</time></trkpt><trkpt lat="43.471175758502795" lon="10.762472514482216"><ele>82.0</ele><time>2026-04-20T13:50:24Z</time></trkpt><trkpt lat="43.47101680812349" lon="10.762377509193023"><ele>83.0</ele><time>2026-04-20T13:50:25Z</time></trkpt><trkpt lat="43.470859897163145" lon="10.762282514452922"><ele>83.0</ele><time>2026-04-20T13:50:26Z</time></trkpt><trkpt lat="43.470698547455626" lon="10.762186212567347"><ele>83.0</ele><time>2026-04-20T13:50:27Z</time></trkpt><trkpt lat="43.47054026771393" lon="10.76209042592585"><ele>83.0</ele><time>2026-04-20T13:50:28Z</time></trkpt><trkpt lat="43.47038304956685" lon="10.761995738541195"><ele>83.33333333333334</ele><time>2026-04-20T13:50:29Z</time></trkpt><trkpt lat="43.470225458032346" lon="10.761900975402394"><ele>83.66666666666667</ele><time>2026-04-20T13:50:30Z</time></trkpt><trkpt lat="43.47006543456549" lon="10.761811436181643"><ele>84.0</ele><time>2026-04-20T13:50:31Z</time></trkpt><trkpt lat="43.469902725082086" lon="10.761724691591576"><ele>84.0</ele><time>2026-04-20T13:50:32Z</time></trkpt><trkpt lat="43.46974102031181" lon="10.761645790896395"><ele>84.0</ele><time>2026-04-20T13:50:33Z</time></trkpt><trkpt lat="43.46957425432605" lon="10.761584980580073"><ele>84.0</ele><time>2026-04-20T13:50:34Z</time></trkpt><trkpt lat="43.46940157422019" lon="10.761524245633533"><ele>84.0</ele><time>2026-04-20T13:50:35Z</time></trkpt><trkpt lat="43.46923127091998" lon="10.761473410790092"><ele>84.0</ele><time>2026-04-20T13:50:36Z</time></trkpt><trkpt lat="43.469055473242264" lon="10.761426519351271"><ele>84.0</ele><time>2026-04-20T13:50:37Z</time></trkpt><trkpt lat="43.468878254966214" lon="10.76136687089226"><ele>83.0</ele><time>2026-04-20T13:50:38Z</time></trkpt><trkpt lat="43.468701238896784" lon="10.761311113044288"><ele>82.0</ele><time>2026-04-20T13:50:39Z</time></trkpt><trkpt lat="43.468522270497424" lon="10.761251722077217"><ele>81.0</ele><time>2026-04-20T13:50:40Z</time></trkpt><trkpt lat="43.468344240415604" lon="10.761196301101158"><ele>81.0</ele><time>2026-04-20T13:50:41Z</time></trkpt><trkpt lat="43.46816986760424" lon="10.76114096210371"><ele>81.0</ele><time>2026-04-20T13:50:42Z</time></trkpt><trkpt lat="43.46798963822616" lon="10.76108116862068"><ele>81.0</ele><time>2026-04-20T13:50:43Z</time></trkpt><trkpt lat="43.467812461111166" lon="10.76102210116267"><ele>83.0</ele><time>2026-04-20T13:50:44Z</time></trkpt><trkpt lat="43.46763739117528" lon="10.760970248269983"><ele>85.0</ele><time>2026-04-20T13:50:45Z</time></trkpt><trkpt lat="43.467468285618935" lon="10.760920227874582"><ele>87.0</ele><time>2026-04-20T13:50:46Z</time></trkpt><trkpt lat="43.46729576815283" lon="10.760866969790866"><ele>87.0</ele><time>2026-04-20T13:50:47Z</time></trkpt><trkpt lat="43.46712272457631" lon="10.760811703033927"><ele>87.0</ele><time>2026-04-20T13:50:48Z</time></trkpt><trkpt lat="43.466948511900355" lon="10.760757380926446"><ele>87.0</ele><time>2026-04-20T13:50:49Z</time></trkpt><trkpt lat="43.466783582614816" lon="10.760706229113874"><ele>85.66666666666667</ele><time>2026-04-20T13:50:50Z</time></trkpt><trkpt lat="43.466618846842096" lon="10.760656889046084"><ele>84.33333333333334</ele><time>2026-04-20T13:50:51Z</time></trkpt><trkpt lat="43.46645111636097" lon="10.760603706595296"><ele>83.0</ele><time>2026-04-20T13:50:52Z</time></trkpt><trkpt lat="43.46629301959905" lon="10.760553426429867"><ele>82.5</ele><time>2026-04-20T13:50:53Z</time></trkpt><trkpt lat="43.46614246034262" lon="10.760503009051625"><ele>82.0</ele><time>2026-04-20T13:50:54Z</time></trkpt><trkpt lat="43.46599706947917" lon="10.760456724908327"><ele>81.5</ele><time>2026-04-20T13:50:55Z</time></trkpt><trkpt lat="43.46585643176644" lon="10.760427261229323"><ele>81.0</ele><time>2026-04-20T13:50:56Z</time></trkpt><trkpt lat="43.46570529177375" lon="10.760407225336095"><ele>81.0</ele><time>2026-04-20T13:50:57Z</time></trkpt><trkpt lat="43.46555114415362" lon="10.760398501418548"><ele>81.0</ele><time>2026-04-20T13:50:58Z</time></trkpt><trkpt lat="43.46539824630382" lon="10.760403654485225"><ele>81.0</ele><time>2026-04-20T13:50:59Z</time></trkpt><trkpt lat="43.465243362351615" lon="10.760416652887733"><ele>81.33333333333333</ele><time>2026-04-20T13:51:00Z</time></trkpt><trkpt lat="43.4650888844464" lon="10.76043582952021"><ele>81.66666666666666</ele><time>2026-04-20T13:51:01Z</time></trkpt><trkpt lat="43.464933705634664" lon="10.760462341071735"><ele>82.0</ele><time>2026-04-20T13:51:02Z</time></trkpt><trkpt lat="43.464777618619706" lon="10.760489676332003"><ele>82.0</ele><time>2026-04-20T13:51:03Z</time></trkpt><trkpt lat="43.46461772632065" lon="10.760516369422636"><ele>82.0</ele><time>2026-04-20T13:51:04Z</time></trkpt><trkpt lat="43.464455887217234" lon="10.760544736415287"><ele>82.0</ele><time>2026-04-20T13:51:05Z</time></trkpt><trkpt lat="43.46429125539232" lon="10.760573077139272"><ele>82.33333333333333</ele><time>2026-04-20T13:51:06Z</time></trkpt><trkpt lat="43.464134284231854" lon="10.76059446690633"><ele>82.66666666666667</ele><time>2026-04-20T13:51:07Z</time></trkpt><trkpt lat="43.46397227574693" lon="10.760602304386321"><ele>83.0</ele><time>2026-04-20T13:51:08Z</time></trkpt><trkpt lat="43.46381353275834" lon="10.760593285244523"><ele>84.0</ele><time>2026-04-20T13:51:09Z</time></trkpt><trkpt lat="43.463651541808" lon="10.760580129792864"><ele>85.0</ele><time>2026-04-20T13:51:10Z</time></trkpt><trkpt lat="43.46349419109788" lon="10.760572172302917"><ele>86.0</ele><time>2026-04-20T13:51:11Z</time></trkpt><trkpt lat="43.463333078538476" lon="10.760552880391543"><ele>86.0</ele><time>2026-04-20T13:51:12Z</time></trkpt><trkpt lat="43.46317482561685" lon="10.76053927401054"><ele>86.0</ele><time>2026-04-20T13:51:13Z</time></trkpt><trkpt lat="43.46301807552081" lon="10.760549873502814"><ele>86.0</ele><time>2026-04-20T13:51:14Z</time></trkpt><trkpt lat="43.46285798615609" lon="10.760590594429312"><ele>86.66666666666667</ele><time>2026-04-20T13:51:15Z</time></trkpt><trkpt lat="43.462699069813496" lon="10.760646157820869"><ele>87.33333333333333</ele><time>2026-04-20T13:51:16Z</time></trkpt><trkpt lat="43.46254987026008" lon="10.76069833914408"><ele>88.0</ele><time>2026-04-20T13:51:17Z</time></trkpt><trkpt lat="43.462412635821295" lon="10.760739501567915"><ele>88.0</ele><time>2026-04-20T13:51:18Z</time></trkpt><trkpt lat="43.46228541296507" lon="10.76077127007083"><ele>88.0</ele><time>2026-04-20T13:51:19Z</time></trkpt><trkpt lat="43.46214431806498" lon="10.760780440124986"><ele>88.0</ele><time>2026-04-20T13:51:20Z</time></trkpt><trkpt lat="43.46200247126119" lon="10.760759926176497"><ele>88.0</ele><time>2026-04-20T13:51:21Z</time></trkpt><trkpt lat="43.46186219585857" lon="10.760709801647646"><ele>88.0</ele><time>2026-04-20T13:51:22Z</time></trkpt><trkpt lat="43.4617196321784" lon="10.760631796850587"><ele>88.0</ele><time>2026-04-20T13:51:23Z</time></trkpt><trkpt lat="43.46158001981826" lon="10.760536792461302"><ele>88.0</ele><time>2026-04-20T13:51:24Z</time></trkpt><trkpt lat="43.46143946360719" lon="10.760433983932277"><ele>88.0</ele><time>2026-04-20T13:51:25Z</time></trkpt><trkpt lat="43.461296686890705" lon="10.760334059026443"><ele>88.0</ele><time>2026-04-20T13:51:26Z</time></trkpt><trkpt lat="43.46115921504557" lon="10.76023802229754"><ele>88.0</ele><time>2026-04-20T13:51:27Z</time></trkpt><trkpt lat="43.461019099409604" lon="10.760145237664839"><ele>89.33333333333333</ele><time>2026-04-20T13:51:28Z</time></trkpt><trkpt lat="43.46087768131744" lon="10.760043989781241"><ele>90.66666666666667</ele><time>2026-04-20T13:51:29Z</time></trkpt><trkpt lat="43.46073685024136" lon="10.759941655455888"><ele>92.0</ele><time>2026-04-20T13:51:30Z</time></trkpt><trkpt lat="43.460595815923774" lon="10.759839476840487"><ele>92.0</ele><time>2026-04-20T13:51:31Z</time></trkpt><trkpt lat="43.460455632027525" lon="10.75973722967177"><ele>92.0</ele><time>2026-04-20T13:51:32Z</time></trkpt><trkpt lat="43.460324311243774" lon="10.759646448465478"><ele>92.0</ele><time>2026-04-20T13:51:33Z</time></trkpt><trkpt lat="43.46020170230848" lon="10.75956647827055"><ele>92.0</ele><time>2026-04-20T13:51:34Z</time></trkpt><trkpt lat="43.460090245400615" lon="10.75949699945752"><ele>91.19999999999999</ele><time>2026-04-20T13:51:35Z</time></trkpt><trkpt lat="43.45998626202372" lon="10.759457348414372"><ele>90.4</ele><time>2026-04-20T13:51:36Z</time></trkpt><trkpt lat="43.45988508029205" lon="10.75943728775244"><ele>89.6</ele><time>2026-04-20T13:51:37Z</time></trkpt><trkpt lat="43.45979136002263" lon="10.759441735427524"><ele>88.80000000000001</ele><time>2026-04-20T13:51:38Z</time></trkpt><trkpt lat="43.459695905088836" lon="10.759465045385301"><ele>88.0</ele><time>2026-04-20T13:51:39Z</time></trkpt><trkpt lat="43.45960054696631" lon="10.759506172691665"><ele>87.4</ele><time>2026-04-20T13:51:40Z</time></trkpt><trkpt lat="43.4595103933845" lon="10.75955982769526"><ele>86.80000000000001</ele><time>2026-04-20T13:51:41Z</time></trkpt><trkpt lat="43.45942980296271" lon="10.759634449680277"><ele>86.2</ele><time>2026-04-20T13:51:42Z</time></trkpt><trkpt lat="43.459357765404256" lon="10.759730278251073"><ele>85.6</ele><time>2026-04-20T13:51:43Z</time></trkpt><trkpt lat="43.45929074126062" lon="10.759846760439192"><ele>85.0</ele><time>2026-04-20T13:51:44Z</time></trkpt><trkpt lat="43.45923354282989" lon="10.759981096465959"><ele>85.0</ele><time>2026-04-20T13:51:45Z</time></trkpt><trkpt lat="43.45917673449577" lon="10.760137090394382"><ele>85.0</ele><time>2026-04-20T13:51:46Z</time></trkpt><trkpt lat="43.459118532047114" lon="10.760297185718358"><ele>85.0</ele><time>2026-04-20T13:51:47Z</time></trkpt><trkpt lat="43.45905754163406" lon="10.760455293070889"><ele>85.0</ele><time>2026-04-20T13:51:48Z</time></trkpt><trkpt lat="43.45899755986078" lon="10.760628066145312"><ele>85.0</ele><time>2026-04-20T13:51:49Z</time></trkpt><trkpt lat="43.458936039470515" lon="10.760804158208225"><ele>85.0</ele><time>2026-04-20T13:51:50Z</time></trkpt><trkpt lat="43.458870330517655" lon="10.760990135512243"><ele>85.0</ele><time>2026-04-20T13:51:51Z</time></trkpt><trkpt lat="43.45880044079458" lon="10.761181164172095"><ele>85.0</ele><time>2026-04-20T13:51:52Z</time></trkpt><trkpt lat="43.45872811013138" lon="10.761375287283258"><ele>86.33333333333333</ele><time>2026-04-20T13:51:53Z</time></trkpt><trkpt lat="43.45865542575919" lon="10.761572074557195"><ele>87.66666666666667</ele><time>2026-04-20T13:51:54Z</time></trkpt><trkpt lat="43.4585891260308" lon="10.761751176491874"><ele>89.0</ele><time>2026-04-20T13:51:55Z</time></trkpt><trkpt lat="43.45853408694829" lon="10.761935090849171"><ele>89.25</ele><time>2026-04-20T13:51:56Z</time></trkpt><trkpt lat="43.45849538357598" lon="10.762124785068233"><ele>89.5</ele><time>2026-04-20T13:51:57Z</time></trkpt><trkpt lat="43.45847460543436" lon="10.762326819992236"><ele>89.75</ele><time>2026-04-20T13:51:58Z</time></trkpt><trkpt lat="43.45847402877136" lon="10.762535942174482"><ele>90.0</ele><time>2026-04-20T13:51:59Z</time></trkpt><trkpt lat="43.45847897630748" lon="10.762747487299052"><ele>90.0</ele><time>2026-04-20T13:52:00Z</time></trkpt><trkpt lat="43.45847927548582" lon="10.762939414190717"><ele>90.0</ele><time>2026-04-20T13:52:01Z</time></trkpt><trkpt lat="43.458477447376474" lon="10.763119816858925"><ele>90.0</ele><time>2026-04-20T13:52:02Z</time></trkpt><trkpt lat="43.458470296433845" lon="10.763294188018943"><ele>90.0</ele><time>2026-04-20T13:52:03Z</time></trkpt><trkpt lat="43.45843350080595" lon="10.76346424387072"><ele>89.25</ele><time>2026-04-20T13:52:04Z</time></trkpt><trkpt lat="43.45837948935814" lon="10.763607071012059"><ele>88.5</ele><time>2026-04-20T13:52:05Z</time></trkpt><trkpt lat="43.45830071925979" lon="10.763741920801673"><ele>87.75</ele><time>2026-04-20T13:52:06Z</time></trkpt><trkpt lat="43.4581964547971" lon="10.76386205518373"><ele>87.0</ele><time>2026-04-20T13:52:07Z</time></trkpt><trkpt lat="43.45808502599291" lon="10.763982155098251"><ele>87.0</ele><time>2026-04-20T13:52:08Z</time></trkpt><trkpt lat="43.45797350330431" lon="10.764117934129363"><ele>87.0</ele><time>2026-04-20T13:52:09Z</time></trkpt><trkpt lat="43.45785425844914" lon="10.764254528728777"><ele>87.0</ele><time>2026-04-20T13:52:10Z</time></trkpt><trkpt lat="43.45772456484316" lon="10.764398844454803"><ele>87.66666666666667</ele><time>2026-04-20T13:52:11Z</time></trkpt><trkpt lat="43.45759409823087" lon="10.764550956039406"><ele>88.33333333333334</ele><time>2026-04-20T13:52:12Z</time></trkpt><trkpt lat="43.457461334100955" lon="10.7647046995752"><ele>89.0</ele><time>2026-04-20T13:52:13Z</time></trkpt><trkpt lat="43.45732840640254" lon="10.764860173661223"><ele>89.0</ele><time>2026-04-20T13:52:14Z</time></trkpt><trkpt lat="43.457189379033956" lon="10.765017607879782"><ele>89.0</ele><time>2026-04-20T13:52:15Z</time></trkpt><trkpt lat="43.45704948890894" lon="10.765178725223153"><ele>89.0</ele><time>2026-04-20T13:52:16Z</time></trkpt><trkpt lat="43.45690491315775" lon="10.765344329544261"><ele>89.33333333333334</ele><time>2026-04-20T13:52:17Z</time></trkpt><trkpt lat="43.45675799283756" lon="10.765511267725254"><ele>89.66666666666667</ele><time>2026-04-20T13:52:18Z</time></trkpt><trkpt lat="43.456604491746035" lon="10.765683178858874"><ele>90.0</ele><time>2026-04-20T13:52:19Z</time></trkpt><trkpt lat="43.45645109584648" lon="10.765853795106462"><ele>89.33333333333333</ele><time>2026-04-20T13:52:20Z</time></trkpt><trkpt lat="43.45629801893023" lon="10.76602994864409"><ele>88.66666666666666</ele><time>2026-04-20T13:52:21Z</time></trkpt><trkpt lat="43.456145386341824" lon="10.766205054592175"><ele>88.0</ele><time>2026-04-20T13:52:22Z</time></trkpt><trkpt lat="43.45599202351849" lon="10.76637540396335"><ele>89.0</ele><time>2026-04-20T13:52:23Z</time></trkpt><trkpt lat="43.45583894340884" lon="10.766536999888151"><ele>90.0</ele><time>2026-04-20T13:52:24Z</time></trkpt><trkpt lat="43.455687729109265" lon="10.766705281278643"><ele>91.0</ele><time>2026-04-20T13:52:25Z</time></trkpt><trkpt lat="43.45553566551685" lon="10.766869925984102"><ele>92.33333333333333</ele><time>2026-04-20T13:52:26Z</time></trkpt><trkpt lat="43.45539179668951" lon="10.767034133532166"><ele>93.66666666666667</ele><time>2026-04-20T13:52:27Z</time></trkpt><trkpt lat="43.45524722507872" lon="10.767198659128262"><ele>95.0</ele><time>2026-04-20T13:52:28Z</time></trkpt><trkpt lat="43.45510687637983" lon="10.767357800516653"><ele>95.0</ele><time>2026-04-20T13:52:29Z</time></trkpt><trkpt lat="43.45497819663487" lon="10.767513523901348"><ele>95.0</ele><time>2026-04-20T13:52:30Z</time></trkpt><trkpt lat="43.45484847871397" lon="10.767672054396677"><ele>95.0</ele><time>2026-04-20T13:52:31Z</time></trkpt><trkpt lat="43.45471423329792" lon="10.767821006465683"><ele>95.33333333333334</ele><time>2026-04-20T13:52:32Z</time></trkpt><trkpt lat="43.454575409190646" lon="10.767957392908134"><ele>95.66666666666667</ele><time>2026-04-20T13:52:33Z</time></trkpt><trkpt lat="43.45442337521746" lon="10.768082293039848"><ele>96.0</ele><time>2026-04-20T13:52:34Z</time></trkpt><trkpt lat="43.45426632706586" lon="10.768196608165104"><ele>96.0</ele><time>2026-04-20T13:52:35Z</time></trkpt><trkpt lat="43.454099707474775" lon="10.768294725738027"><ele>96.0</ele><time>2026-04-20T13:52:36Z</time></trkpt><trkpt lat="43.45392693205729" lon="10.76838098609155"><ele>96.0</ele><time>2026-04-20T13:52:37Z</time></trkpt><trkpt lat="43.4537566565688" lon="10.768471185569313"><ele>96.33333333333334</ele><time>2026-04-20T13:52:38Z</time></trkpt><trkpt lat="43.45358382329378" lon="10.768568164797236"><ele>96.66666666666667</ele><time>2026-04-20T13:52:39Z</time></trkpt><trkpt lat="43.45341356377729" lon="10.768663755515945"><ele>97.0</ele><time>2026-04-20T13:52:40Z</time></trkpt><trkpt lat="43.45324665142289" lon="10.76876256913149"><ele>97.0</ele><time>2026-04-20T13:52:41Z</time></trkpt><trkpt lat="43.45307682630005" lon="10.768859269721371"><ele>97.0</ele><time>2026-04-20T13:52:42Z</time></trkpt><trkpt lat="43.452896688250135" lon="10.768948022364185"><ele>97.0</ele><time>2026-04-20T13:52:43Z</time></trkpt><trkpt lat="43.45272718699203" lon="10.769040997026936"><ele>97.66666666666667</ele><time>2026-04-20T13:52:44Z</time></trkpt><trkpt lat="43.45254668679975" lon="10.769137042012591"><ele>98.33333333333334</ele><time>2026-04-20T13:52:45Z</time></trkpt><trkpt lat="43.45237271220773" lon="10.769235382023139"><ele>99.0</ele><time>2026-04-20T13:52:46Z</time></trkpt><trkpt lat="43.452195997583395" lon="10.76932887955223"><ele>99.0</ele><time>2026-04-20T13:52:47Z</time></trkpt><trkpt lat="43.4520210035472" lon="10.76942139516192"><ele>99.0</ele><time>2026-04-20T13:52:48Z</time></trkpt><trkpt lat="43.45184561430559" lon="10.769515792478154"><ele>99.0</ele><time>2026-04-20T13:52:49Z</time></trkpt><trkpt lat="43.45167225568354" lon="10.769614361387061"><ele>99.0</ele><time>2026-04-20T13:52:50Z</time></trkpt><trkpt lat="43.4514935696267" lon="10.769715054461221"><ele>99.0</ele><time>2026-04-20T13:52:51Z</time></trkpt><trkpt lat="43.451318640391655" lon="10.76981184414498"><ele>99.0</ele><time>2026-04-20T13:52:52Z</time></trkpt><trkpt lat="43.45114465253902" lon="10.769909675076484"><ele>99.66666666666666</ele><time>2026-04-20T13:52:53Z</time></trkpt><trkpt lat="43.4509743263142" lon="10.770001622891108"><ele>100.33333333333333</ele><time>2026-04-20T13:52:54Z</time></trkpt><trkpt lat="43.45081317459293" lon="10.770092306279226"><ele>101.0</ele><time>2026-04-20T13:52:55Z</time></trkpt><trkpt lat="43.45066283777457" lon="10.770180387256842"><ele>101.0</ele><time>2026-04-20T13:52:56Z</time></trkpt><trkpt lat="43.45052135042078" lon="10.770258220531037"><ele>101.0</ele><time>2026-04-20T13:52:57Z</time></trkpt><trkpt lat="43.45038879887077" lon="10.770332583130443"><ele>101.0</ele><time>2026-04-20T13:52:58Z</time></trkpt><trkpt lat="43.45026457701088" lon="10.770402038657087"><ele>101.0</ele><time>2026-04-20T13:52:59Z</time></trkpt><trkpt lat="43.45016004714302" lon="10.770468019851302"><ele>101.0</ele><time>2026-04-20T13:53:00Z</time></trkpt><trkpt lat="43.45007039716268" lon="10.77054492281691"><ele>101.0</ele><time>2026-04-20T13:53:01Z</time></trkpt><trkpt lat="43.4500014010232" lon="10.770639707787907"><ele>101.0</ele><time>2026-04-20T13:53:02Z</time></trkpt><trkpt lat="43.4499478252734" lon="10.770762308827127"><ele>101.0</ele><time>2026-04-20T13:53:03Z</time></trkpt><trkpt lat="43.44991869016239" lon="10.770896218607401"><ele>101.0</ele><time>2026-04-20T13:53:04Z</time></trkpt><trkpt lat="43.449911912422635" lon="10.771049623866856"><ele>100.5</ele><time>2026-04-20T13:53:05Z</time></trkpt><trkpt lat="43.44991707666461" lon="10.771210632739937"><ele>100.0</ele><time>2026-04-20T13:53:06Z</time></trkpt><trkpt lat="43.4499288820325" lon="10.77138199997314"><ele>99.5</ele><time>2026-04-20T13:53:07Z</time></trkpt><trkpt lat="43.44993527660759" lon="10.77152935918121"><ele>99.0</ele><time>2026-04-20T13:53:08Z</time></trkpt><trkpt lat="43.449941120467464" lon="10.771671829572888"><ele>99.0</ele><time>2026-04-20T13:53:09Z</time></trkpt><trkpt lat="43.44994925439784" lon="10.771802765378728"><ele>99.0</ele><time>2026-04-20T13:53:10Z</time></trkpt><trkpt lat="43.449949607900635" lon="10.771928928208254"><ele>99.0</ele><time>2026-04-20T13:53:11Z</time></trkpt><trkpt lat="43.4499223725843" lon="10.772056170014187"><ele>99.0</ele><time>2026-04-20T13:53:12Z</time></trkpt><trkpt lat="43.44986983312943" lon="10.772164673263052"><ele>99.0</ele><time>2026-04-20T13:53:13Z</time></trkpt><trkpt lat="43.44979393366935" lon="10.772248516590416"><ele>98.80000000000001</ele><time>2026-04-20T13:53:14Z</time></trkpt><trkpt lat="43.449699325376024" lon="10.77229514846673"><ele>98.60000000000001</ele><time>2026-04-20T13:53:15Z</time></trkpt><trkpt lat="43.44959212153897" lon="10.772299616272765"><ele>98.4</ele><time>2026-04-20T13:53:16Z</time></trkpt><trkpt lat="43.4494759246181" lon="10.772280336124147"><ele>98.2</ele><time>2026-04-20T13:53:17Z</time></trkpt><trkpt lat="43.44936288486098" lon="10.772254574795845"><ele>98.0</ele><time>2026-04-20T13:53:18Z</time></trkpt><trkpt lat="43.44924977388355" lon="10.77223839193859"><ele>99.0</ele><time>2026-04-20T13:53:19Z</time></trkpt><trkpt lat="43.44913512734921" lon="10.77221851351567"><ele>100.0</ele><time>2026-04-20T13:53:20Z</time></trkpt><trkpt lat="43.4490125383129" lon="10.772190227409238"><ele>101.0</ele><time>2026-04-20T13:53:21Z</time></trkpt><trkpt lat="43.4489053161934" lon="10.772171541639004"><ele>102.0</ele><time>2026-04-20T13:53:22Z</time></trkpt><trkpt lat="43.44879129337391" lon="10.77215858124925"><ele>103.39999999999999</ele><time>2026-04-20T13:53:23Z</time></trkpt><trkpt lat="43.448678161907274" lon="10.772147028697228"><ele>104.8</ele><time>2026-04-20T13:53:24Z</time></trkpt><trkpt lat="43.44856761600424" lon="10.772149660976753"><ele>106.2</ele><time>2026-04-20T13:53:25Z</time></trkpt><trkpt lat="43.448454112769355" lon="10.772163611844762"><ele>107.6</ele><time>2026-04-20T13:53:26Z</time></trkpt><trkpt lat="43.448347695829476" lon="10.77217642261272"><ele>109.0</ele><time>2026-04-20T13:53:27Z</time></trkpt><trkpt lat="43.44823640248892" lon="10.772191258833729"><ele>109.0</ele><time>2026-04-20T13:53:28Z</time></trkpt><trkpt lat="43.4481273620328" lon="10.772213994088357"><ele>109.0</ele><time>2026-04-20T13:53:29Z</time></trkpt><trkpt lat="43.44801303004508" lon="10.772233180995327"><ele>109.0</ele><time>2026-04-20T13:53:30Z</time></trkpt><trkpt lat="43.44789382186814" lon="10.772251071936815"><ele>109.0</ele><time>2026-04-20T13:53:31Z</time></trkpt><trkpt lat="43.44777275000685" lon="10.772271163472626"><ele>109.0</ele><time>2026-04-20T13:53:32Z</time></trkpt><trkpt lat="43.44764489029998" lon="10.772291182596577"><ele>109.0</ele><time>2026-04-20T13:53:33Z</time></trkpt><trkpt lat="43.447505619915" lon="10.772312451649077"><ele>109.0</ele><time>2026-04-20T13:53:34Z</time></trkpt><trkpt lat="43.447361575792065" lon="10.77233694692523"><ele>109.0</ele><time>2026-04-20T13:53:35Z</time></trkpt><trkpt lat="43.44721410722368" lon="10.77236221812004"><ele>108.66666666666667</ele><time>2026-04-20T13:53:36Z</time></trkpt><trkpt lat="43.447052498249725" lon="10.772392241433405"><ele>108.33333333333334</ele><time>2026-04-20T13:53:37Z</time></trkpt><trkpt lat="43.44689060200706" lon="10.772417898952945"><ele>108.0</ele><time>2026-04-20T13:53:38Z</time></trkpt><trkpt lat="43.44672180477337" lon="10.772442806238743"><ele>108.0</ele><time>2026-04-20T13:53:39Z</time></trkpt><trkpt lat="43.44655403633958" lon="10.772474294589077"><ele>108.0</ele><time>2026-04-20T13:53:40Z</time></trkpt><trkpt lat="43.44638123132404" lon="10.772499169816559"><ele>108.0</ele><time>2026-04-20T13:53:41Z</time></trkpt><trkpt lat="43.44620693399387" lon="10.772520832553914"><ele>108.33333333333334</ele><time>2026-04-20T13:53:42Z</time></trkpt><trkpt lat="43.446030828037564" lon="10.772546258208886"><ele>108.66666666666667</ele><time>2026-04-20T13:53:43Z</time></trkpt><trkpt lat="43.44585139232471" lon="10.772567018501288"><ele>109.0</ele><time>2026-04-20T13:53:44Z</time></trkpt><trkpt lat="43.44567114503151" lon="10.772579701453106"><ele>109.0</ele><time>2026-04-20T13:53:45Z</time></trkpt><trkpt lat="43.44549069077205" lon="10.772590750262083"><ele>109.0</ele><time>2026-04-20T13:53:46Z</time></trkpt><trkpt lat="43.44530982125703" lon="10.772602912448141"><ele>109.0</ele><time>2026-04-20T13:53:47Z</time></trkpt><trkpt lat="43.445129774469784" lon="10.772616364847906"><ele>109.66666666666667</ele><time>2026-04-20T13:53:48Z</time></trkpt><trkpt lat="43.44495102657573" lon="10.772628907332201"><ele>110.33333333333334</ele><time>2026-04-20T13:53:49Z</time></trkpt><trkpt lat="43.444774451385925" lon="10.77264113429346"><ele>111.0</ele><time>2026-04-20T13:53:50Z</time></trkpt><trkpt lat="43.44459529110862" lon="10.772650222009549"><ele>111.0</ele><time>2026-04-20T13:53:51Z</time></trkpt><trkpt lat="43.444418878349595" lon="10.772662046529142"><ele>111.0</ele><time>2026-04-20T13:53:52Z</time></trkpt><trkpt lat="43.44424627328363" lon="10.772677421475516"><ele>111.0</ele><time>2026-04-20T13:53:53Z</time></trkpt><trkpt lat="43.44407373442692" lon="10.772690564757434"><ele>111.33333333333334</ele><time>2026-04-20T13:53:54Z</time></trkpt><trkpt lat="43.443901566861214" lon="10.772702839765065"><ele>111.66666666666667</ele><time>2026-04-20T13:53:55Z</time></trkpt><trkpt lat="43.44373080231205" lon="10.772704392333548"><ele>112.0</ele><time>2026-04-20T13:53:56Z</time></trkpt><trkpt lat="43.44356046365174" lon="10.772690083180656"><ele>112.66666666666667</ele><time>2026-04-20T13:53:57Z</time></trkpt><trkpt lat="43.44338693857799" lon="10.772651836473676"><ele>113.33333333333334</ele><time>2026-04-20T13:53:58Z</time></trkpt><trkpt lat="43.4432188096125" lon="10.772588893202622"><ele>114.0</ele><time>2026-04-20T13:53:59Z</time></trkpt><trkpt lat="43.443052320260094" lon="10.772509238650875"><ele>114.33333333333334</ele><time>2026-04-20T13:54:00Z</time></trkpt><trkpt lat="43.44287978744979" lon="10.772434004649886"><ele>114.66666666666667</ele><time>2026-04-20T13:54:01Z</time></trkpt><trkpt lat="43.442706352301926" lon="10.772365142521373"><ele>115.0</ele><time>2026-04-20T13:54:02Z</time></trkpt><trkpt lat="43.44253299015433" lon="10.77229567937986"><ele>115.0</ele><time>2026-04-20T13:54:03Z</time></trkpt><trkpt lat="43.44235902725215" lon="10.772222489935798"><ele>115.0</ele><time>2026-04-20T13:54:04Z</time></trkpt><trkpt lat="43.44218433686227" lon="10.772150437210389"><ele>115.0</ele><time>2026-04-20T13:54:05Z</time></trkpt><trkpt lat="43.442009756951485" lon="10.772079555611569"><ele>116.66666666666667</ele><time>2026-04-20T13:54:06Z</time></trkpt><trkpt lat="43.441834106363885" lon="10.772006107150109"><ele>118.33333333333334</ele><time>2026-04-20T13:54:07Z</time></trkpt><trkpt lat="43.44165964060556" lon="10.771932122116802"><ele>120.0</ele><time>2026-04-20T13:54:08Z</time></trkpt><trkpt lat="43.441484773855166" lon="10.771858608856604"><ele>119.33333333333334</ele><time>2026-04-20T13:54:09Z</time></trkpt><trkpt lat="43.44131051195026" lon="10.771789619472505"><ele>118.66666666666667</ele><time>2026-04-20T13:54:10Z</time></trkpt><trkpt lat="43.441142919214066" lon="10.771720261014044"><ele>118.0</ele><time>2026-04-20T13:54:11Z</time></trkpt><trkpt lat="43.440988959100125" lon="10.77165563377239"><ele>118.0</ele><time>2026-04-20T13:54:12Z</time></trkpt><trkpt lat="43.440847210233386" lon="10.771592113070414"><ele>118.0</ele><time>2026-04-20T13:54:13Z</time></trkpt><trkpt lat="43.44071440874006" lon="10.771539362284994"><ele>118.0</ele><time>2026-04-20T13:54:14Z</time></trkpt><trkpt lat="43.44057462908777" lon="10.771480046171822"><ele>118.0</ele><time>2026-04-20T13:54:15Z</time></trkpt><trkpt lat="43.44043848152076" lon="10.77139886290385"><ele>118.33333333333334</ele><time>2026-04-20T13:54:16Z</time></trkpt><trkpt lat="43.44031022030348" lon="10.771284016055974"><ele>118.66666666666666</ele><time>2026-04-20T13:54:17Z</time></trkpt><trkpt lat="43.440193455055415" lon="10.77114441747556"><ele>119.0</ele><time>2026-04-20T13:54:18Z</time></trkpt><trkpt lat="43.44008431983668" lon="10.77099211508134"><ele>119.0</ele><time>2026-04-20T13:54:19Z</time></trkpt><trkpt lat="43.4399747266156" lon="10.77083783393386"><ele>119.0</ele><time>2026-04-20T13:54:20Z</time></trkpt><trkpt lat="43.4398634635193" lon="10.770685460122985"><ele>119.0</ele><time>2026-04-20T13:54:21Z</time></trkpt><trkpt lat="43.43974702472491" lon="10.7705334007225"><ele>119.66666666666666</ele><time>2026-04-20T13:54:22Z</time></trkpt><trkpt lat="43.439631623528996" lon="10.77037968346481"><ele>120.33333333333334</ele><time>2026-04-20T13:54:23Z</time></trkpt><trkpt lat="43.4395183382666" lon="10.770219535836747"><ele>121.0</ele><time>2026-04-20T13:54:24Z</time></trkpt><trkpt lat="43.439402167256425" lon="10.770061611168169"><ele>121.0</ele><time>2026-04-20T13:54:25Z</time></trkpt><trkpt lat="43.43928365304013" lon="10.769905343381799"><ele>121.0</ele><time>2026-04-20T13:54:26Z</time></trkpt><trkpt lat="43.43916281652344" lon="10.76974318396425"><ele>121.0</ele><time>2026-04-20T13:54:27Z</time></trkpt><trkpt lat="43.43903928709236" lon="10.769581589640024"><ele>121.0</ele><time>2026-04-20T13:54:28Z</time></trkpt><trkpt lat="43.43891671069146" lon="10.769420901796979"><ele>121.0</ele><time>2026-04-20T13:54:29Z</time></trkpt><trkpt lat="43.438793756642525" lon="10.769257998160384"><ele>121.0</ele><time>2026-04-20T13:54:30Z</time></trkpt><trkpt lat="43.43867139525237" lon="10.769094957786951"><ele>121.66666666666667</ele><time>2026-04-20T13:54:31Z</time></trkpt><trkpt lat="43.43854856905296" lon="10.768930247362613"><ele>122.33333333333334</ele><time>2026-04-20T13:54:32Z</time></trkpt><trkpt lat="43.438424870892874" lon="10.76876724908959"><ele>123.0</ele><time>2026-04-20T13:54:33Z</time></trkpt><trkpt lat="43.43830203644391" lon="10.7686020056057"><ele>123.66666666666666</ele><time>2026-04-20T13:54:34Z</time></trkpt><trkpt lat="43.43817923299234" lon="10.768437084074154"><ele>124.33333333333333</ele><time>2026-04-20T13:54:35Z</time></trkpt><trkpt lat="43.43805682367715" lon="10.768271161708482"><ele>125.0</ele><time>2026-04-20T13:54:36Z</time></trkpt><trkpt lat="43.43793314400395" lon="10.768105734374892"><ele>125.0</ele><time>2026-04-20T13:54:37Z</time></trkpt><trkpt lat="43.437808224724805" lon="10.767941594433529"><ele>125.0</ele><time>2026-04-20T13:54:38Z</time></trkpt><trkpt lat="43.43768548239075" lon="10.767772701196828"><ele>125.0</ele><time>2026-04-20T13:54:39Z</time></trkpt><trkpt lat="43.43756580035496" lon="10.767608134847096"><ele>124.66666666666666</ele><time>2026-04-20T13:54:40Z</time></trkpt><trkpt lat="43.43744110906017" lon="10.76744392236545"><ele>124.33333333333334</ele><time>2026-04-20T13:54:41Z</time></trkpt><trkpt lat="43.437314290334356" lon="10.767280454503318"><ele>124.0</ele><time>2026-04-20T13:54:42Z</time></trkpt><trkpt lat="43.43718930397689" lon="10.767114395304402"><ele>124.66666666666667</ele><time>2026-04-20T13:54:43Z</time></trkpt><trkpt lat="43.437067123700636" lon="10.766945127960758"><ele>125.33333333333334</ele><time>2026-04-20T13:54:44Z</time></trkpt><trkpt lat="43.436954956820514" lon="10.766760993253637"><ele>126.0</ele><time>2026-04-20T13:54:45Z</time></trkpt><trkpt lat="43.43685670287888" lon="10.766562259301335"><ele>126.0</ele><time>2026-04-20T13:54:46Z</time></trkpt><trkpt lat="43.436771116532725" lon="10.76634805840455"><ele>126.0</ele><time>2026-04-20T13:54:47Z</time></trkpt><trkpt lat="43.436692033773916" lon="10.766128860121638"><ele>126.0</ele><time>2026-04-20T13:54:48Z</time></trkpt><trkpt lat="43.4366092917797" lon="10.765909063718885"><ele>125.66666666666666</ele><time>2026-04-20T13:54:49Z</time></trkpt><trkpt lat="43.43652615989323" lon="10.765690724528563"><ele>125.33333333333333</ele><time>2026-04-20T13:54:50Z</time></trkpt><trkpt lat="43.4364429927862" lon="10.765469426708558"><ele>125.0</ele><time>2026-04-20T13:54:51Z</time></trkpt><trkpt lat="43.43636127386497" lon="10.765245169437701"><ele>127.66666666666666</ele><time>2026-04-20T13:54:52Z</time></trkpt><trkpt lat="43.43627756421572" lon="10.76502235813969"><ele>130.33333333333334</ele><time>2026-04-20T13:54:53Z</time></trkpt><trkpt lat="43.43619500824726" lon="10.7647996608326"><ele>133.0</ele><time>2026-04-20T13:54:54Z</time></trkpt><trkpt lat="43.4361118306458" lon="10.764577952331964"><ele>132.33333333333334</ele><time>2026-04-20T13:54:55Z</time></trkpt><trkpt lat="43.43602642603082" lon="10.764358998179949"><ele>131.66666666666666</ele><time>2026-04-20T13:54:56Z</time></trkpt><trkpt lat="43.435939123872004" lon="10.76414005366124"><ele>131.0</ele><time>2026-04-20T13:54:57Z</time></trkpt><trkpt lat="43.43585367453097" lon="10.763919467123811"><ele>131.0</ele><time>2026-04-20T13:54:58Z</time></trkpt><trkpt lat="43.43576878695378" lon="10.763698840034492"><ele>131.0</ele><time>2026-04-20T13:54:59Z</time></trkpt><trkpt lat="43.43568165521481" lon="10.763477970898952"><ele>131.0</ele><time>2026-04-20T13:55:00Z</time></trkpt><trkpt lat="43.435594544779605" lon="10.763258148233842"><ele>130.33333333333331</ele><time>2026-04-20T13:55:01Z</time></trkpt><trkpt lat="43.43550636426958" lon="10.763038089476723"><ele>129.66666666666666</ele><time>2026-04-20T13:55:02Z</time></trkpt><trkpt lat="43.435421249473855" lon="10.762816349643945"><ele>129.0</ele><time>2026-04-20T13:55:03Z</time></trkpt><trkpt lat="43.43533744925087" lon="10.76259652020746"><ele>130.33333333333334</ele><time>2026-04-20T13:55:04Z</time></trkpt><trkpt lat="43.435254510067665" lon="10.762374569298151"><ele>131.66666666666669</ele><time>2026-04-20T13:55:05Z</time></trkpt><trkpt lat="43.43517066836081" lon="10.762153829847836"><ele>133.0</ele><time>2026-04-20T13:55:06Z</time></trkpt><trkpt lat="43.435085778702216" lon="10.761932206934215"><ele>132.66666666666669</ele><time>2026-04-20T13:55:07Z</time></trkpt><trkpt lat="43.43500123695591" lon="10.761709597080173"><ele>132.33333333333334</ele><time>2026-04-20T13:55:08Z</time></trkpt><trkpt lat="43.43491827066131" lon="10.761491105224914"><ele>132.0</ele><time>2026-04-20T13:55:09Z</time></trkpt><trkpt lat="43.43483431911559" lon="10.761272984774378"><ele>132.0</ele><time>2026-04-20T13:55:10Z</time></trkpt><trkpt lat="43.4347489711236" lon="10.7610633401663"><ele>132.0</ele><time>2026-04-20T13:55:11Z</time></trkpt><trkpt lat="43.434655567363116" lon="10.760865598129723"><ele>132.0</ele><time>2026-04-20T13:55:12Z</time></trkpt><trkpt lat="43.43454257620624" lon="10.76069175257942"><ele>133.66666666666666</ele><time>2026-04-20T13:55:13Z</time></trkpt><trkpt lat="43.43442083053401" lon="10.760529159391917"><ele>135.33333333333331</ele><time>2026-04-20T13:55:14Z</time></trkpt><trkpt lat="43.43428966223752" lon="10.760385310224665"><ele>137.0</ele><time>2026-04-20T13:55:15Z</time></trkpt><trkpt lat="43.43415855109281" lon="10.760234298108882"><ele>136.0</ele><time>2026-04-20T13:55:16Z</time></trkpt><trkpt lat="43.43403048293938" lon="10.760076637328597"><ele>135.0</ele><time>2026-04-20T13:55:17Z</time></trkpt><trkpt lat="43.43391238457362" lon="10.759931048152836"><ele>134.0</ele><time>2026-04-20T13:55:18Z</time></trkpt><trkpt lat="43.43379896910156" lon="10.759804525914076"><ele>136.0</ele><time>2026-04-20T13:55:19Z</time></trkpt><trkpt lat="43.43367791965029" lon="10.759690967818907"><ele>138.0</ele><time>2026-04-20T13:55:20Z</time></trkpt><trkpt lat="43.43354149304602" lon="10.75960177859733"><ele>140.0</ele><time>2026-04-20T13:55:21Z</time></trkpt><trkpt lat="43.43339797767021" lon="10.759531708296848"><ele>140.0</ele><time>2026-04-20T13:55:22Z</time></trkpt><trkpt lat="43.43324801174699" lon="10.759479292918435"><ele>140.0</ele><time>2026-04-20T13:55:23Z</time></trkpt><trkpt lat="43.43310040446904" lon="10.7594335412122"><ele>140.0</ele><time>2026-04-20T13:55:24Z</time></trkpt><trkpt lat="43.4329524689939" lon="10.75938354780523"><ele>139.33333333333331</ele><time>2026-04-20T13:55:25Z</time></trkpt><trkpt lat="43.43280250754077" lon="10.75933617526982"><ele>138.66666666666666</ele><time>2026-04-20T13:55:26Z</time></trkpt><trkpt lat="43.432651878040616" lon="10.759298099477627"><ele>138.0</ele><time>2026-04-20T13:55:27Z</time></trkpt><trkpt lat="43.432500461758416" lon="10.759268674572848"><ele>138.0</ele><time>2026-04-20T13:55:28Z</time></trkpt><trkpt lat="43.43234831194878" lon="10.759253760865462"><ele>138.0</ele><time>2026-04-20T13:55:29Z</time></trkpt><trkpt lat="43.43219704328205" lon="10.759250764496521"><ele>138.0</ele><time>2026-04-20T13:55:30Z</time></trkpt><trkpt lat="43.43205142254665" lon="10.759261542631705"><ele>139.25</ele><time>2026-04-20T13:55:31Z</time></trkpt><trkpt lat="43.431922668172696" lon="10.759289840706836"><ele>140.5</ele><time>2026-04-20T13:55:32Z</time></trkpt><trkpt lat="43.43179170478" lon="10.759331389293255"><ele>141.75</ele><time>2026-04-20T13:55:33Z</time></trkpt><trkpt lat="43.431659107261744" lon="10.759378156011397"><ele>143.0</ele><time>2026-04-20T13:55:34Z</time></trkpt><trkpt lat="43.43152289339291" lon="10.759422173627069"><ele>144.5</ele><time>2026-04-20T13:55:35Z</time></trkpt><trkpt lat="43.431385910929045" lon="10.759466692109621"><ele>146.0</ele><time>2026-04-20T13:55:36Z</time></trkpt><trkpt lat="43.43124520668679" lon="10.759507662954174"><ele>147.5</ele><time>2026-04-20T13:55:37Z</time></trkpt><trkpt lat="43.431103245643065" lon="10.759549775069468"><ele>149.0</ele><time>2026-04-20T13:55:38Z</time></trkpt><trkpt lat="43.430959022692086" lon="10.75959568067064"><ele>149.0</ele><time>2026-04-20T13:55:39Z</time></trkpt><trkpt lat="43.43081256716758" lon="10.759640991670727"><ele>149.0</ele><time>2026-04-20T13:55:40Z</time></trkpt><trkpt lat="43.43066871110451" lon="10.759687389021444"><ele>149.0</ele><time>2026-04-20T13:55:41Z</time></trkpt><trkpt lat="43.430520240120146" lon="10.75973116603549"><ele>148.33333333333331</ele><time>2026-04-20T13:55:42Z</time></trkpt><trkpt lat="43.43036840581641" lon="10.759761433734635"><ele>147.66666666666666</ele><time>2026-04-20T13:55:43Z</time></trkpt><trkpt lat="43.43021331878852" lon="10.759756556192828"><ele>147.0</ele><time>2026-04-20T13:55:44Z</time></trkpt><trkpt lat="43.430059566714014" lon="10.759721987220754"><ele>147.0</ele><time>2026-04-20T13:55:45Z</time></trkpt><trkpt lat="43.429911544675114" lon="10.759659465007157"><ele>147.0</ele><time>2026-04-20T13:55:46Z</time></trkpt><trkpt lat="43.42976215730299" lon="10.759594990469862"><ele>147.0</ele><time>2026-04-20T13:55:47Z</time></trkpt><trkpt lat="43.42962837894463" lon="10.759537776681377"><ele>148.25</ele><time>2026-04-20T13:55:48Z</time></trkpt><trkpt lat="43.42950493116344" lon="10.7594897210717"><ele>149.5</ele><time>2026-04-20T13:55:49Z</time></trkpt><trkpt lat="43.4293775271682" lon="10.759467984307403"><ele>150.75</ele><time>2026-04-20T13:55:50Z</time></trkpt><trkpt lat="43.42924436203795" lon="10.759484147480988"><ele>152.0</ele><time>2026-04-20T13:55:51Z</time></trkpt><trkpt lat="43.42911400014561" lon="10.759530022937367"><ele>152.0</ele><time>2026-04-20T13:55:52Z</time></trkpt><trkpt lat="43.428994185647795" lon="10.759614593795877"><ele>152.0</ele><time>2026-04-20T13:55:53Z</time></trkpt><trkpt lat="43.428883690746076" lon="10.759728348106817"><ele>152.0</ele><time>2026-04-20T13:55:54Z</time></trkpt><trkpt lat="43.42878203756981" lon="10.759852147521444"><ele>152.0</ele><time>2026-04-20T13:55:55Z</time></trkpt><trkpt lat="43.42868855599902" lon="10.759965124923927"><ele>153.5</ele><time>2026-04-20T13:55:56Z</time></trkpt><trkpt lat="43.4285902709278" lon="10.760074732700408"><ele>155.0</ele><time>2026-04-20T13:55:57Z</time></trkpt><trkpt lat="43.428477566586885" lon="10.760168330075405"><ele>156.5</ele><time>2026-04-20T13:55:58Z</time></trkpt><trkpt lat="43.4283576786817" lon="10.76023122496074"><ele>158.0</ele><time>2026-04-20T13:55:59Z</time></trkpt><trkpt lat="43.42824137379913" lon="10.760262770793702"><ele>158.0</ele><time>2026-04-20T13:56:00Z</time></trkpt><trkpt lat="43.42814587196031" lon="10.760285572232194"><ele>158.0</ele><time>2026-04-20T13:56:01Z</time></trkpt><trkpt lat="43.428063842250076" lon="10.76033923723065"><ele>158.0</ele><time>2026-04-20T13:56:02Z</time></trkpt><trkpt lat="43.42798219546866" lon="10.760431252339156"><ele>158.0</ele><time>2026-04-20T13:56:03Z</time></trkpt><trkpt lat="43.42790758190039" lon="10.760564586505646"><ele>158.0</ele><time>2026-04-20T13:56:04Z</time></trkpt><trkpt lat="43.42784734981643" lon="10.760719574451608"><ele>156.75</ele><time>2026-04-20T13:56:05Z</time></trkpt><trkpt lat="43.42778836117883" lon="10.760892625831078"><ele>155.5</ele><time>2026-04-20T13:56:06Z</time></trkpt><trkpt lat="43.42771749658979" lon="10.761046492413016"><ele>154.25</ele><time>2026-04-20T13:56:07Z</time></trkpt><trkpt lat="43.427644014871674" lon="10.76118573174337"><ele>153.0</ele><time>2026-04-20T13:56:08Z</time></trkpt><trkpt lat="43.42757891274348" lon="10.761313389421224"><ele>153.0</ele><time>2026-04-20T13:56:09Z</time></trkpt><trkpt lat="43.42752427234774" lon="10.761434893465868"><ele>153.0</ele><time>2026-04-20T13:56:10Z</time></trkpt><trkpt lat="43.42748094391924" lon="10.761575948586891"><ele>153.0</ele><time>2026-04-20T13:56:11Z</time></trkpt><trkpt lat="43.427448795520526" lon="10.761727678458533"><ele>153.0</ele><time>2026-04-20T13:56:12Z</time></trkpt><trkpt lat="43.42743538237256" lon="10.761884148175755"><ele>153.0</ele><time>2026-04-20T13:56:13Z</time></trkpt><trkpt lat="43.427440885811656" lon="10.762026236284362"><ele>153.20000000000002</ele><time>2026-04-20T13:56:14Z</time></trkpt><trkpt lat="43.427457504278344" lon="10.762171589270023"><ele>153.4</ele><time>2026-04-20T13:56:15Z</time></trkpt><trkpt lat="43.42747246814777" lon="10.762324345278142"><ele>153.60000000000002</ele><time>2026-04-20T13:56:16Z</time></trkpt><trkpt lat="43.42747821360783" lon="10.762449679259708"><ele>153.8</ele><time>2026-04-20T13:56:17Z</time></trkpt><trkpt lat="43.42747931904278" lon="10.762551909725715"><ele>154.0</ele><time>2026-04-20T13:56:18Z</time></trkpt><trkpt lat="43.42745916139659" lon="10.762652173467021"><ele>154.6</ele><time>2026-04-20T13:56:19Z</time></trkpt><trkpt lat="43.42740749332531" lon="10.762751214793846"><ele>155.2</ele><time>2026-04-20T13:56:20Z</time></trkpt><trkpt lat="43.42733001351106" lon="10.76282887437666"><ele>155.79999999999998</ele><time>2026-04-20T13:56:21Z</time></trkpt><trkpt lat="43.427234627983694" lon="10.762886906577126"><ele>156.4</ele><time>2026-04-20T13:56:22Z</time></trkpt><trkpt lat="43.427125938464144" lon="10.76293918703535"><ele>157.0</ele><time>2026-04-20T13:56:23Z</time></trkpt><trkpt lat="43.42701956504953" lon="10.762987549350274"><ele>154.6</ele><time>2026-04-20T13:56:24Z</time></trkpt><trkpt lat="43.42692042555408" lon="10.76303476940069"><ele>152.2</ele><time>2026-04-20T13:56:25Z</time></trkpt><trkpt lat="43.42683089467656" lon="10.763099536494291"><ele>149.8</ele><time>2026-04-20T13:56:26Z</time></trkpt><trkpt lat="43.42675568548656" lon="10.763180069675158"><ele>147.4</ele><time>2026-04-20T13:56:27Z</time></trkpt><trkpt lat="43.42669592576797" lon="10.763282818966301"><ele>145.0</ele><time>2026-04-20T13:56:28Z</time></trkpt><trkpt lat="43.42664707552715" lon="10.763410372474082"><ele>145.6</ele><time>2026-04-20T13:56:29Z</time></trkpt><trkpt lat="43.42661480825772" lon="10.763558061253676"><ele>146.2</ele><time>2026-04-20T13:56:30Z</time></trkpt><trkpt lat="43.42659648510868" lon="10.763702543716038"><ele>146.8</ele><time>2026-04-20T13:56:31Z</time></trkpt><trkpt lat="43.426586069663394" lon="10.763838931029744"><ele>147.4</ele><time>2026-04-20T13:56:32Z</time></trkpt><trkpt lat="43.42657056198604" lon="10.763955366864275"><ele>148.0</ele><time>2026-04-20T13:56:33Z</time></trkpt><trkpt lat="43.42653674425744" lon="10.76404557844987"><ele>148.0</ele><time>2026-04-20T13:56:34Z</time></trkpt><trkpt lat="43.4264815816868" lon="10.764118091566635"><ele>148.0</ele><time>2026-04-20T13:56:35Z</time></trkpt><trkpt lat="43.42640744559499" lon="10.764172374664094"><ele>148.0</ele><time>2026-04-20T13:56:36Z</time></trkpt><trkpt lat="43.42632084308864" lon="10.764210908342132"><ele>148.0</ele><time>2026-04-20T13:56:37Z</time></trkpt><trkpt lat="43.426244736102774" lon="10.764280747098733"><ele>148.0</ele><time>2026-04-20T13:56:38Z</time></trkpt><trkpt lat="43.42618627579291" lon="10.764381468322709"><ele>148.0</ele><time>2026-04-20T13:56:39Z</time></trkpt><trkpt lat="43.4261454356015" lon="10.7645012305673"><ele>145.6</ele><time>2026-04-20T13:56:40Z</time></trkpt><trkpt lat="43.42610190344527" lon="10.764631254701994"><ele>143.20000000000002</ele><time>2026-04-20T13:56:41Z</time></trkpt><trkpt lat="43.42610854959862" lon="10.764780342353685"><ele>140.8</ele><time>2026-04-20T13:56:42Z</time></trkpt><trkpt lat="43.426113838635274" lon="10.764925336198605"><ele>138.4</ele><time>2026-04-20T13:56:43Z</time></trkpt><trkpt lat="43.426125463165334" lon="10.765059891741107"><ele>136.0</ele><time>2026-04-20T13:56:44Z</time></trkpt><trkpt lat="43.426127099816256" lon="10.765185320805198"><ele>136.0</ele><time>2026-04-20T13:56:45Z</time></trkpt><trkpt lat="43.426106636892506" lon="10.765306464576442"><ele>136.0</ele><time>2026-04-20T13:56:46Z</time></trkpt><trkpt lat="43.42606634829474" lon="10.765424187843637"><ele>136.0</ele><time>2026-04-20T13:56:47Z</time></trkpt><trkpt lat="43.426008346947306" lon="10.76553828988515"><ele>136.0</ele><time>2026-04-20T13:56:48Z</time></trkpt><trkpt lat="43.42592817753281" lon="10.765632427806167"><ele>136.0</ele><time>2026-04-20T13:56:49Z</time></trkpt><trkpt lat="43.425842619414034" lon="10.765727011145"><ele>136.0</ele><time>2026-04-20T13:56:50Z</time></trkpt><trkpt lat="43.42576069065002" lon="10.765832092734305"><ele>136.0</ele><time>2026-04-20T13:56:51Z</time></trkpt><trkpt lat="43.425683155552406" lon="10.765963963259512"><ele>136.0</ele><time>2026-04-20T13:56:52Z</time></trkpt><trkpt lat="43.42561435904778" lon="10.766119656257358"><ele>136.0</ele><time>2026-04-20T13:56:53Z</time></trkpt><trkpt lat="43.425546073995385" lon="10.766290924002648"><ele>134.25</ele><time>2026-04-20T13:56:54Z</time></trkpt><trkpt lat="43.425478359402774" lon="10.766465731240334"><ele>132.5</ele><time>2026-04-20T13:56:55Z</time></trkpt><trkpt lat="43.42541342667501" lon="10.766637466859642"><ele>130.75</ele><time>2026-04-20T13:56:56Z</time></trkpt><trkpt lat="43.42534555281757" lon="10.766805079771704"><ele>129.0</ele><time>2026-04-20T13:56:57Z</time></trkpt><trkpt lat="43.42528286394037" lon="10.766972866146848"><ele>129.0</ele><time>2026-04-20T13:56:58Z</time></trkpt><trkpt lat="43.42522103699355" lon="10.767141707309582"><ele>129.0</ele><time>2026-04-20T13:56:59Z</time></trkpt><trkpt lat="43.42516030194905" lon="10.767311982814208"><ele>129.0</ele><time>2026-04-20T13:57:00Z</time></trkpt><trkpt lat="43.42509940526834" lon="10.76746777599876"><ele>129.0</ele><time>2026-04-20T13:57:01Z</time></trkpt><trkpt lat="43.42503765339783" lon="10.767606773856176"><ele>128.0</ele><time>2026-04-20T13:57:02Z</time></trkpt><trkpt lat="43.42495966660899" lon="10.767744371861067"><ele>127.0</ele><time>2026-04-20T13:57:03Z</time></trkpt><trkpt lat="43.42486394706253" lon="10.767872621253808"><ele>126.0</ele><time>2026-04-20T13:57:04Z</time></trkpt><trkpt lat="43.42476032949348" lon="10.76798447806143"><ele>125.0</ele><time>2026-04-20T13:57:05Z</time></trkpt><trkpt lat="43.42465028025278" lon="10.768094750710453"><ele>125.0</ele><time>2026-04-20T13:57:06Z</time></trkpt><trkpt lat="43.42454250066037" lon="10.768211168836386"><ele>125.0</ele><time>2026-04-20T13:57:07Z</time></trkpt><trkpt lat="43.424439874071616" lon="10.76833685616782"><ele>125.0</ele><time>2026-04-20T13:57:08Z</time></trkpt><trkpt lat="43.42434001511938" lon="10.768465267094257"><ele>125.0</ele><time>2026-04-20T13:57:09Z</time></trkpt><trkpt lat="43.42424532160031" lon="10.768599848319816"><ele>124.2</ele><time>2026-04-20T13:57:10Z</time></trkpt><trkpt lat="43.4241540415956" lon="10.76872625164849"><ele>123.4</ele><time>2026-04-20T13:57:11Z</time></trkpt><trkpt lat="43.42407061034662" lon="10.768839638812688"><ele>122.6</ele><time>2026-04-20T13:57:12Z</time></trkpt><trkpt lat="43.42400446844767" lon="10.768937223014435"><ele>121.8</ele><time>2026-04-20T13:57:13Z</time></trkpt><trkpt lat="43.423949250166665" lon="10.769012881197423"><ele>121.0</ele><time>2026-04-20T13:57:14Z</time></trkpt><trkpt lat="43.4239149777502" lon="10.769101068887064"><ele>121.0</ele><time>2026-04-20T13:57:15Z</time></trkpt><trkpt lat="43.42387752550812" lon="10.769192970062022"><ele>121.0</ele><time>2026-04-20T13:57:16Z</time></trkpt><trkpt lat="43.423881753005475" lon="10.769306655488744"><ele>121.0</ele><time>2026-04-20T13:57:17Z</time></trkpt><trkpt lat="43.42391053783245" lon="10.769434190297666"><ele>121.0</ele><time>2026-04-20T13:57:18Z</time></trkpt><trkpt lat="43.42398425910922" lon="10.769541472321748"><ele>121.0</ele><time>2026-04-20T13:57:19Z</time></trkpt><trkpt lat="43.424049364512996" lon="10.769667823463784"><ele>121.5</ele><time>2026-04-20T13:57:20Z</time></trkpt><trkpt lat="43.42411573263088" lon="10.76980231020646"><ele>122.0</ele><time>2026-04-20T13:57:21Z</time></trkpt><trkpt lat="43.42416795903364" lon="10.769946205379677"><ele>122.5</ele><time>2026-04-20T13:57:22Z</time></trkpt><trkpt lat="43.424220635730386" lon="10.77008305266585"><ele>123.0</ele><time>2026-04-20T13:57:23Z</time></trkpt><trkpt lat="43.42425988385298" lon="10.770219080133852"><ele>123.80000000000001</ele><time>2026-04-20T13:57:24Z</time></trkpt><trkpt lat="43.42428369987022" lon="10.770361812532872"><ele>124.60000000000001</ele><time>2026-04-20T13:57:25Z</time></trkpt><trkpt lat="43.42428578942597" lon="10.770506873348562"><ele>125.39999999999999</ele><time>2026-04-20T13:57:26Z</time></trkpt><trkpt lat="43.42425651612213" lon="10.770650561973211"><ele>126.19999999999999</ele><time>2026-04-20T13:57:27Z</time></trkpt><trkpt lat="43.42420056285788" lon="10.770785299755197"><ele>127.0</ele><time>2026-04-20T13:57:28Z</time></trkpt><trkpt lat="43.42413125151445" lon="10.770911523893455"><ele>126.5</ele><time>2026-04-20T13:57:29Z</time></trkpt><trkpt lat="43.42405406067833" lon="10.77103131540082"><ele>126.0</ele><time>2026-04-20T13:57:30Z</time></trkpt><trkpt lat="43.4239735147171" lon="10.771161342048883"><ele>125.5</ele><time>2026-04-20T13:57:31Z</time></trkpt><trkpt lat="43.42389591866887" lon="10.771289214293892"><ele>125.0</ele><time>2026-04-20T13:57:32Z</time></trkpt><trkpt lat="43.42382745985643" lon="10.771405008265958"><ele>126.0</ele><time>2026-04-20T13:57:33Z</time></trkpt><trkpt lat="43.42375985390259" lon="10.771506769819085"><ele>127.0</ele><time>2026-04-20T13:57:34Z</time></trkpt><trkpt lat="43.42368016637766" lon="10.771594039498147"><ele>128.0</ele><time>2026-04-20T13:57:35Z</time></trkpt><trkpt lat="43.42359304991992" lon="10.771662461432475"><ele>129.0</ele><time>2026-04-20T13:57:36Z</time></trkpt><trkpt lat="43.423512662176265" lon="10.771715064262967"><ele>130.0</ele><time>2026-04-20T13:57:37Z</time></trkpt><trkpt lat="43.423450007517744" lon="10.77175893370775"><ele>130.0</ele><time>2026-04-20T13:57:38Z</time></trkpt><trkpt lat="43.42338377832324" lon="10.771819025857214"><ele>130.0</ele><time>2026-04-20T13:57:40Z</time></trkpt><trkpt lat="43.423317854006505" lon="10.771904917111927"><ele>130.0</ele><time>2026-04-20T13:58:19Z</time></trkpt><trkpt lat="43.42327518753876" lon="10.771991506045032"><ele>130.0</ele><time>2026-04-20T13:58:20Z</time></trkpt><trkpt lat="43.42325237825633" lon="10.772080747078732"><ele>130.0</ele><time>2026-04-20T13:58:21Z</time></trkpt><trkpt lat="43.42323604025322" lon="10.772190177729433"><ele>130.0</ele><time>2026-04-20T13:58:22Z</time></trkpt><trkpt lat="43.42324214645931" lon="10.772319966283401"><ele>128.8</ele><time>2026-04-20T13:58:23Z</time></trkpt><trkpt lat="43.423273196303725" lon="10.772447816444155"><ele>127.6</ele><time>2026-04-20T13:58:24Z</time></trkpt><trkpt lat="43.42329334098835" lon="10.77258309050911"><ele>126.4</ele><time>2026-04-20T13:58:25Z</time></trkpt><trkpt lat="43.42326863309594" lon="10.772720332652645"><ele>125.2</ele><time>2026-04-20T13:58:26Z</time></trkpt><trkpt lat="43.423235551797944" lon="10.772846423668557"><ele>124.0</ele><time>2026-04-20T13:58:27Z</time></trkpt><trkpt lat="43.42317333604325" lon="10.772977350665217"><ele>124.0</ele><time>2026-04-20T13:58:28Z</time></trkpt><trkpt lat="43.42308322330361" lon="10.773093855705467"><ele>124.0</ele><time>2026-04-20T13:58:29Z</time></trkpt><trkpt lat="43.42298410833634" lon="10.77320837200135"><ele>124.0</ele><time>2026-04-20T13:58:30Z</time></trkpt><trkpt lat="43.42288242201079" lon="10.773332952335926"><ele>124.0</ele><time>2026-04-20T13:58:31Z</time></trkpt><trkpt lat="43.4227782222619" lon="10.773452757596319"><ele>124.5</ele><time>2026-04-20T13:58:32Z</time></trkpt><trkpt lat="43.42267001437892" lon="10.773573961741926"><ele>125.0</ele><time>2026-04-20T13:58:33Z</time></trkpt><trkpt lat="43.42255400765249" lon="10.773699522072867"><ele>125.5</ele><time>2026-04-20T13:58:34Z</time></trkpt><trkpt lat="43.42245748852345" lon="10.773817818380495"><ele>126.0</ele><time>2026-04-20T13:58:35Z</time></trkpt><trkpt lat="43.42235708397691" lon="10.773925193836913"><ele>126.0</ele><time>2026-04-20T13:58:36Z</time></trkpt><trkpt lat="43.42224794019097" lon="10.774007704479551"><ele>126.0</ele><time>2026-04-20T13:58:37Z</time></trkpt><trkpt lat="43.42212532137361" lon="10.774053660846757"><ele>126.0</ele><time>2026-04-20T13:58:38Z</time></trkpt><trkpt lat="43.422001658680365" lon="10.774065653464616"><ele>126.0</ele><time>2026-04-20T13:58:39Z</time></trkpt><trkpt lat="43.42187214451525" lon="10.774044813950367"><ele>126.75</ele><time>2026-04-20T13:58:40Z</time></trkpt><trkpt lat="43.421736906753935" lon="10.77401449203712"><ele>127.5</ele><time>2026-04-20T13:58:41Z</time></trkpt><trkpt lat="43.42159534694273" lon="10.773993576440072"><ele>128.25</ele><time>2026-04-20T13:58:42Z</time></trkpt><trkpt lat="43.42145068194114" lon="10.773971527671662"><ele>129.0</ele><time>2026-04-20T13:58:43Z</time></trkpt><trkpt lat="43.42130224028146" lon="10.773947061826858"><ele>129.66666666666666</ele><time>2026-04-20T13:58:44Z</time></trkpt><trkpt lat="43.42115026282969" lon="10.77392355805788"><ele>130.33333333333331</ele><time>2026-04-20T13:58:45Z</time></trkpt><trkpt lat="43.420993191382074" lon="10.773897928695556"><ele>131.0</ele><time>2026-04-20T13:58:46Z</time></trkpt><trkpt lat="43.42083230146339" lon="10.773863092417624"><ele>131.0</ele><time>2026-04-20T13:58:47Z</time></trkpt><trkpt lat="43.420666151416015" lon="10.773813673041621"><ele>131.0</ele><time>2026-04-20T13:58:48Z</time></trkpt><trkpt lat="43.4204955320592" lon="10.773762989786105"><ele>131.0</ele><time>2026-04-20T13:58:49Z</time></trkpt><trkpt lat="43.420325437466175" lon="10.773713345955283"><ele>130.33333333333331</ele><time>2026-04-20T13:58:50Z</time></trkpt><trkpt lat="43.420157173418865" lon="10.77366488306139"><ele>129.66666666666666</ele><time>2026-04-20T13:58:51Z</time></trkpt><trkpt lat="43.41998710879418" lon="10.773616048957965"><ele>129.0</ele><time>2026-04-20T13:58:52Z</time></trkpt><trkpt lat="43.41981581178447" lon="10.773561583633844"><ele>128.66666666666666</ele><time>2026-04-20T13:58:53Z</time></trkpt><trkpt lat="43.4196424121026" lon="10.773505383840673"><ele>128.33333333333331</ele><time>2026-04-20T13:58:54Z</time></trkpt><trkpt lat="43.41946820996842" lon="10.773450647586508"><ele>128.0</ele><time>2026-04-20T13:58:55Z</time></trkpt><trkpt lat="43.41929088648656" lon="10.773394333703575"><ele>128.0</ele><time>2026-04-20T13:58:56Z</time></trkpt><trkpt lat="43.419111998016824" lon="10.773339165825695"><ele>128.0</ele><time>2026-04-20T13:58:57Z</time></trkpt><trkpt lat="43.41893351851412" lon="10.773283764070891"><ele>128.0</ele><time>2026-04-20T13:58:58Z</time></trkpt><trkpt lat="43.418756411937146" lon="10.773231112316804"><ele>128.66666666666666</ele><time>2026-04-20T13:58:59Z</time></trkpt><trkpt lat="43.418578038734175" lon="10.773178096214107"><ele>129.33333333333334</ele><time>2026-04-20T13:59:00Z</time></trkpt><trkpt lat="43.418398819504105" lon="10.77312249467422"><ele>130.0</ele><time>2026-04-20T13:59:01Z</time></trkpt><trkpt lat="43.41821830881814" lon="10.773065713631919"><ele>130.0</ele><time>2026-04-20T13:59:02Z</time></trkpt><trkpt lat="43.41803868581015" lon="10.77300886779791"><ele>130.0</ele><time>2026-04-20T13:59:03Z</time></trkpt><trkpt lat="43.41785826891678" lon="10.772953477780995"><ele>130.0</ele><time>2026-04-20T13:59:04Z</time></trkpt><trkpt lat="43.41767869656874" lon="10.772895066073119"><ele>130.33333333333334</ele><time>2026-04-20T13:59:05Z</time></trkpt><trkpt lat="43.417500694921294" lon="10.772836088026036"><ele>130.66666666666666</ele><time>2026-04-20T13:59:06Z</time></trkpt><trkpt lat="43.41733748974002" lon="10.772783794208982"><ele>131.0</ele><time>2026-04-20T13:59:07Z</time></trkpt><trkpt lat="43.41719111057304" lon="10.772739243915346"><ele>131.5</ele><time>2026-04-20T13:59:08Z</time></trkpt><trkpt lat="43.417069666935475" lon="10.772714501765849"><ele>132.0</ele><time>2026-04-20T13:59:09Z</time></trkpt><trkpt lat="43.416947715995555" lon="10.772710199054455"><ele>132.5</ele><time>2026-04-20T13:59:10Z</time></trkpt><trkpt lat="43.416829901893664" lon="10.772742680781242"><ele>133.0</ele><time>2026-04-20T13:59:11Z</time></trkpt><trkpt lat="43.416719098360225" lon="10.772792855562756"><ele>133.0</ele><time>2026-04-20T13:59:12Z</time></trkpt><trkpt lat="43.41661353084319" lon="10.77287481295232"><ele>133.0</ele><time>2026-04-20T13:59:13Z</time></trkpt><trkpt lat="43.41650817747417" lon="10.772966018695545"><ele>133.0</ele><time>2026-04-20T13:59:14Z</time></trkpt><trkpt lat="43.416436626400795" lon="10.773124077891634"><ele>133.0</ele><time>2026-04-20T13:59:15Z</time></trkpt><trkpt lat="43.416359482185264" lon="10.773274180661364"><ele>132.75</ele><time>2026-04-20T13:59:16Z</time></trkpt><trkpt lat="43.41627911963038" lon="10.773417869789025"><ele>132.5</ele><time>2026-04-20T13:59:17Z</time></trkpt><trkpt lat="43.41618085803997" lon="10.773545813049457"><ele>132.25</ele><time>2026-04-20T13:59:18Z</time></trkpt><trkpt lat="43.41606420912487" lon="10.77365515209277"><ele>132.0</ele><time>2026-04-20T13:59:19Z</time></trkpt><trkpt lat="43.4159316553733" lon="10.773739858938267"><ele>132.0</ele><time>2026-04-20T13:59:20Z</time></trkpt><trkpt lat="43.415787628190756" lon="10.773805849796783"><ele>132.0</ele><time>2026-04-20T13:59:21Z</time></trkpt><trkpt lat="43.41564136107904" lon="10.77386818916242"><ele>132.0</ele><time>2026-04-20T13:59:22Z</time></trkpt><trkpt lat="43.415488414783105" lon="10.773932375815011"><ele>133.33333333333334</ele><time>2026-04-20T13:59:23Z</time></trkpt><trkpt lat="43.41533074540091" lon="10.77399730069822"><ele>134.66666666666669</ele><time>2026-04-20T13:59:24Z</time></trkpt><trkpt lat="43.415173757281714" lon="10.774064688277072"><ele>136.0</ele><time>2026-04-20T13:59:25Z</time></trkpt><trkpt lat="43.41503160602051" lon="10.774128146576226"><ele>136.0</ele><time>2026-04-20T13:59:26Z</time></trkpt><trkpt lat="43.41489815233256" lon="10.77418962757754"><ele>136.0</ele><time>2026-04-20T13:59:27Z</time></trkpt><trkpt lat="43.41477405261203" lon="10.7742357086259"><ele>136.0</ele><time>2026-04-20T13:59:28Z</time></trkpt><trkpt lat="43.41464257188741" lon="10.774253487689116"><ele>136.0</ele><time>2026-04-20T13:59:29Z</time></trkpt><trkpt lat="43.4145059523251" lon="10.774232425926524"><ele>136.25</ele><time>2026-04-20T13:59:30Z</time></trkpt><trkpt lat="43.414364570216215" lon="10.77416652454616"><ele>136.5</ele><time>2026-04-20T13:59:31Z</time></trkpt><trkpt lat="43.41423954875001" lon="10.774074279274103"><ele>136.75</ele><time>2026-04-20T13:59:32Z</time></trkpt><trkpt lat="43.41410593354286" lon="10.773975959541902"><ele>137.0</ele><time>2026-04-20T13:59:33Z</time></trkpt><trkpt lat="43.41396766207381" lon="10.773880234004451"><ele>137.0</ele><time>2026-04-20T13:59:34Z</time></trkpt><trkpt lat="43.41383106332098" lon="10.77377605538967"><ele>137.0</ele><time>2026-04-20T13:59:35Z</time></trkpt><trkpt lat="43.41369680944703" lon="10.773676968791323"><ele>137.0</ele><time>2026-04-20T13:59:36Z</time></trkpt><trkpt lat="43.413558951239516" lon="10.773581860366823"><ele>138.66666666666666</ele><time>2026-04-20T13:59:37Z</time></trkpt><trkpt lat="43.413419889714596" lon="10.773483914242812"><ele>140.33333333333334</ele><time>2026-04-20T13:59:38Z</time></trkpt><trkpt lat="43.413281267810156" lon="10.773384594175397"><ele>142.0</ele><time>2026-04-20T13:59:39Z</time></trkpt><trkpt lat="43.413151119718044" lon="10.773300898043077"><ele>142.0</ele><time>2026-04-20T13:59:40Z</time></trkpt><trkpt lat="43.413025185001445" lon="10.773243451688677"><ele>142.0</ele><time>2026-04-20T13:59:41Z</time></trkpt><trkpt lat="43.41290287687782" lon="10.773197764537029"><ele>142.0</ele><time>2026-04-20T13:59:42Z</time></trkpt><trkpt lat="43.41279205968744" lon="10.773153148882425"><ele>142.0</ele><time>2026-04-20T13:59:43Z</time></trkpt><trkpt lat="43.41269148439089" lon="10.773127207434422"><ele>141.4</ele><time>2026-04-20T13:59:44Z</time></trkpt><trkpt lat="43.41259190631841" lon="10.77313347386263"><ele>140.79999999999998</ele><time>2026-04-20T13:59:45Z</time></trkpt><trkpt lat="43.412488796007175" lon="10.773178031974007"><ele>140.2</ele><time>2026-04-20T13:59:46Z</time></trkpt><trkpt lat="43.412390269759726" lon="10.773260334660506"><ele>139.6</ele><time>2026-04-20T13:59:47Z</time></trkpt><trkpt lat="43.41229823821899" lon="10.773367350034702"><ele>139.0</ele><time>2026-04-20T13:59:48Z</time></trkpt><trkpt lat="43.41219473624982" lon="10.773471168387143"><ele>138.5</ele><time>2026-04-20T13:59:49Z</time></trkpt><trkpt lat="43.412071032004754" lon="10.77355169449308"><ele>138.0</ele><time>2026-04-20T13:59:50Z</time></trkpt><trkpt lat="43.4119425286363" lon="10.773624307002544"><ele>137.5</ele><time>2026-04-20T13:59:51Z</time></trkpt><trkpt lat="43.41182140723784" lon="10.773687114878262"><ele>137.0</ele><time>2026-04-20T13:59:52Z</time></trkpt><trkpt lat="43.41168724357326" lon="10.773730890374061"><ele>137.0</ele><time>2026-04-20T13:59:53Z</time></trkpt><trkpt lat="43.41154601955903" lon="10.77373697973392"><ele>137.0</ele><time>2026-04-20T13:59:54Z</time></trkpt><trkpt lat="43.4114032636812" lon="10.773710182317105"><ele>137.0</ele><time>2026-04-20T13:59:55Z</time></trkpt><trkpt lat="43.41126021789576" lon="10.773670078341077"><ele>137.0</ele><time>2026-04-20T13:59:56Z</time></trkpt><trkpt lat="43.41111270450792" lon="10.7736350862254"><ele>137.5</ele><time>2026-04-20T13:59:57Z</time></trkpt><trkpt lat="43.410961996923696" lon="10.773620595417041"><ele>138.0</ele><time>2026-04-20T13:59:58Z</time></trkpt><trkpt lat="43.41080817395318" lon="10.773627180727809"><ele>138.5</ele><time>2026-04-20T13:59:59Z</time></trkpt><trkpt lat="43.41066455393976" lon="10.77363627720448"><ele>139.0</ele><time>2026-04-20T14:00:00Z</time></trkpt><trkpt lat="43.41053161476459" lon="10.773627352647495"><ele>139.0</ele><time>2026-04-20T14:00:01Z</time></trkpt><trkpt lat="43.410406286535924" lon="10.773594679787616"><ele>139.0</ele><time>2026-04-20T14:00:02Z</time></trkpt><trkpt lat="43.4102950708159" lon="10.77354846013208"><ele>139.0</ele><time>2026-04-20T14:00:03Z</time></trkpt><trkpt lat="43.41020215806687" lon="10.773496448943709"><ele>139.0</ele><time>2026-04-20T14:00:04Z</time></trkpt><trkpt lat="43.410113084360354" lon="10.773461722367296"><ele>139.0</ele><time>2026-04-20T14:00:05Z</time></trkpt><trkpt lat="43.41002466100327" lon="10.773457891957143"><ele>139.0</ele><time>2026-04-20T14:00:06Z</time></trkpt><trkpt lat="43.40992967945749" lon="10.773483888562337"><ele>139.0</ele><time>2026-04-20T14:00:07Z</time></trkpt><trkpt lat="43.40984061923774" lon="10.773539317664557"><ele>139.0</ele><time>2026-04-20T14:00:08Z</time></trkpt><trkpt lat="43.40976540709504" lon="10.773614767172699"><ele>139.0</ele><time>2026-04-20T14:00:09Z</time></trkpt><trkpt lat="43.4097035614733" lon="10.773716989534217"><ele>139.0</ele><time>2026-04-20T14:00:10Z</time></trkpt><trkpt lat="43.4096599592575" lon="10.77384205151015"><ele>140.25</ele><time>2026-04-20T14:00:11Z</time></trkpt><trkpt lat="43.40963613286991" lon="10.77399321461339"><ele>141.5</ele><time>2026-04-20T14:00:12Z</time></trkpt><trkpt lat="43.409614532701454" lon="10.774150660347303"><ele>142.75</ele><time>2026-04-20T14:00:13Z</time></trkpt><trkpt lat="43.409573231636315" lon="10.774306391344455"><ele>144.0</ele><time>2026-04-20T14:00:14Z</time></trkpt><trkpt lat="43.40950314808244" lon="10.77445467568895"><ele>144.0</ele><time>2026-04-20T14:00:15Z</time></trkpt><trkpt lat="43.40942285298735" lon="10.774590801856327"><ele>144.0</ele><time>2026-04-20T14:00:16Z</time></trkpt><trkpt lat="43.40933660776869" lon="10.774694097377395"><ele>144.0</ele><time>2026-04-20T14:00:17Z</time></trkpt><trkpt lat="43.40923508875299" lon="10.77478812505441"><ele>144.0</ele><time>2026-04-20T14:00:18Z</time></trkpt><trkpt lat="43.409127677445724" lon="10.774874322051115"><ele>144.0</ele><time>2026-04-20T14:00:19Z</time></trkpt><trkpt lat="43.409011798911735" lon="10.774963863804153"><ele>144.0</ele><time>2026-04-20T14:00:20Z</time></trkpt><trkpt lat="43.40889227069982" lon="10.77504847890964"><ele>144.0</ele><time>2026-04-20T14:00:21Z</time></trkpt><trkpt lat="43.40876143331757" lon="10.775121079071374"><ele>144.0</ele><time>2026-04-20T14:00:22Z</time></trkpt><trkpt lat="43.4086226696657" lon="10.775185369440367"><ele>143.5</ele><time>2026-04-20T14:00:23Z</time></trkpt><trkpt lat="43.40848208755573" lon="10.775246157854117"><ele>143.0</ele><time>2026-04-20T14:00:24Z</time></trkpt><trkpt lat="43.40834323099642" lon="10.77529916172637"><ele>142.5</ele><time>2026-04-20T14:00:25Z</time></trkpt><trkpt lat="43.40819986308811" lon="10.775345500761762"><ele>142.0</ele><time>2026-04-20T14:00:26Z</time></trkpt><trkpt lat="43.40805027485403" lon="10.775380404041474"><ele>143.0</ele><time>2026-04-20T14:00:27Z</time></trkpt><trkpt lat="43.40789490015986" lon="10.77540691080211"><ele>144.0</ele><time>2026-04-20T14:00:28Z</time></trkpt><trkpt lat="43.40773946216413" lon="10.775417366293807"><ele>145.0</ele><time>2026-04-20T14:00:29Z</time></trkpt><trkpt lat="43.407582219321334" lon="10.775415391097411"><ele>145.0</ele><time>2026-04-20T14:00:30Z</time></trkpt><trkpt lat="43.40743271673621" lon="10.775413125562613"><ele>145.0</ele><time>2026-04-20T14:00:31Z</time></trkpt><trkpt lat="43.407287529700945" lon="10.775426269389483"><ele>145.0</ele><time>2026-04-20T14:00:32Z</time></trkpt><trkpt lat="43.4071425261398" lon="10.775465550323794"><ele>145.0</ele><time>2026-04-20T14:00:33Z</time></trkpt><trkpt lat="43.40700253760239" lon="10.775523183692625"><ele>145.25</ele><time>2026-04-20T14:00:34Z</time></trkpt><trkpt lat="43.40687338437778" lon="10.775572461638289"><ele>145.5</ele><time>2026-04-20T14:00:35Z</time></trkpt><trkpt lat="43.40673173818533" lon="10.775594191934317"><ele>145.75</ele><time>2026-04-20T14:00:36Z</time></trkpt><trkpt lat="43.40658239424781" lon="10.775588302046197"><ele>146.0</ele><time>2026-04-20T14:00:37Z</time></trkpt><trkpt lat="43.4064328226808" lon="10.77556551507502"><ele>145.66666666666666</ele><time>2026-04-20T14:00:38Z</time></trkpt><trkpt lat="43.40628036659151" lon="10.7755196754416"><ele>145.33333333333334</ele><time>2026-04-20T14:00:39Z</time></trkpt><trkpt lat="43.4061306601355" lon="10.775462254186962"><ele>145.0</ele><time>2026-04-20T14:00:40Z</time></trkpt><trkpt lat="43.4059770569695" lon="10.775389709907497"><ele>145.0</ele><time>2026-04-20T14:00:41Z</time></trkpt><trkpt lat="43.405821987477324" lon="10.775311097754006"><ele>145.0</ele><time>2026-04-20T14:00:42Z</time></trkpt><trkpt lat="43.40566869984236" lon="10.775230518363887"><ele>145.0</ele><time>2026-04-20T14:00:43Z</time></trkpt><trkpt lat="43.405523662154735" lon="10.77515366324397"><ele>146.66666666666669</ele><time>2026-04-20T14:00:44Z</time></trkpt><trkpt lat="43.40537214209665" lon="10.775075451431489"><ele>148.33333333333334</ele><time>2026-04-20T14:00:45Z</time></trkpt><trkpt lat="43.405219125234304" lon="10.77499620747558"><ele>150.0</ele><time>2026-04-20T14:00:46Z</time></trkpt><trkpt lat="43.405066371151406" lon="10.77491919650917"><ele>150.0</ele><time>2026-04-20T14:00:47Z</time></trkpt><trkpt lat="43.404914394042436" lon="10.77484056996471"><ele>150.0</ele><time>2026-04-20T14:00:48Z</time></trkpt><trkpt lat="43.40476232082763" lon="10.774760024938736"><ele>150.0</ele><time>2026-04-20T14:00:49Z</time></trkpt><trkpt lat="43.4046158980991" lon="10.774685566568671"><ele>150.0</ele><time>2026-04-20T14:00:50Z</time></trkpt><trkpt lat="43.404470718274" lon="10.774629620982541"><ele>150.0</ele><time>2026-04-20T14:00:51Z</time></trkpt><trkpt lat="43.40432074638749" lon="10.774593399595245"><ele>150.0</ele><time>2026-04-20T14:00:52Z</time></trkpt><trkpt lat="43.404175807581694" lon="10.77458706617101"><ele>150.0</ele><time>2026-04-20T14:00:53Z</time></trkpt><trkpt lat="43.40403802383847" lon="10.774606161314079"><ele>150.0</ele><time>2026-04-20T14:00:54Z</time></trkpt><trkpt lat="43.40389890187552" lon="10.774656577590667"><ele>150.0</ele><time>2026-04-20T14:00:55Z</time></trkpt><trkpt lat="43.40376399366784" lon="10.77473644114456"><ele>150.0</ele><time>2026-04-20T14:00:56Z</time></trkpt><trkpt lat="43.40363134649369" lon="10.77483385569459"><ele>150.0</ele><time>2026-04-20T14:00:57Z</time></trkpt><trkpt lat="43.40349236139579" lon="10.774925747161527"><ele>151.0</ele><time>2026-04-20T14:00:58Z</time></trkpt><trkpt lat="43.403347540695705" lon="10.775010707951935"><ele>152.0</ele><time>2026-04-20T14:00:59Z</time></trkpt><trkpt lat="43.40320123238851" lon="10.775099142958753"><ele>153.0</ele><time>2026-04-20T14:01:00Z</time></trkpt><trkpt lat="43.40305367079276" lon="10.775193322514586"><ele>154.25</ele><time>2026-04-20T14:01:01Z</time></trkpt><trkpt lat="43.4029178301862" lon="10.775276804539786"><ele>155.5</ele><time>2026-04-20T14:01:02Z</time></trkpt><trkpt lat="43.40279293255236" lon="10.775354289319745"><ele>156.75</ele><time>2026-04-20T14:01:03Z</time></trkpt><trkpt lat="43.4026768487282" lon="10.77542866879814"><ele>158.0</ele><time>2026-04-20T14:01:04Z</time></trkpt><trkpt lat="43.40258654433976" lon="10.775509566321958"><ele>158.0</ele><time>2026-04-20T14:01:05Z</time></trkpt><trkpt lat="43.402506036693154" lon="10.775610262804797"><ele>158.0</ele><time>2026-04-20T14:01:06Z</time></trkpt><trkpt lat="43.402438978419696" lon="10.775737395187194"><ele>158.0</ele><time>2026-04-20T14:01:07Z</time></trkpt><trkpt lat="43.40238661492274" lon="10.77589187087186"><ele>158.0</ele><time>2026-04-20T14:01:08Z</time></trkpt><trkpt lat="43.40235311017465" lon="10.776066758976404"><ele>158.0</ele><time>2026-04-20T14:01:09Z</time></trkpt><trkpt lat="43.402335149824424" lon="10.776256579499345"><ele>158.0</ele><time>2026-04-20T14:01:10Z</time></trkpt><trkpt lat="43.40232543654976" lon="10.776454870048218"><ele>158.0</ele><time>2026-04-20T14:01:11Z</time></trkpt><trkpt lat="43.402302831666475" lon="10.776650336480094"><ele>158.0</ele><time>2026-04-20T14:01:12Z</time></trkpt><trkpt lat="43.402265240572966" lon="10.776850047290626"><ele>157.33333333333331</ele><time>2026-04-20T14:01:13Z</time></trkpt><trkpt lat="43.402210908708916" lon="10.7770521144267"><ele>156.66666666666666</ele><time>2026-04-20T14:01:14Z</time></trkpt><trkpt lat="43.40215361107749" lon="10.77725568404503"><ele>156.0</ele><time>2026-04-20T14:01:15Z</time></trkpt><trkpt lat="43.40210443974545" lon="10.777463496676573"><ele>158.66666666666666</ele><time>2026-04-20T14:01:16Z</time></trkpt><trkpt lat="43.40206592929943" lon="10.77766428515846"><ele>161.33333333333331</ele><time>2026-04-20T14:01:17Z</time></trkpt><trkpt lat="43.40203872110875" lon="10.77788066029262"><ele>164.0</ele><time>2026-04-20T14:01:18Z</time></trkpt><trkpt lat="43.40201894386032" lon="10.778102506972168"><ele>164.66666666666666</ele><time>2026-04-20T14:01:19Z</time></trkpt><trkpt lat="43.40201011755192" lon="10.778328097351649"><ele>165.33333333333334</ele><time>2026-04-20T14:01:20Z</time></trkpt><trkpt lat="43.402011089553014" lon="10.77855477002936"><ele>166.0</ele><time>2026-04-20T14:01:21Z</time></trkpt><trkpt lat="43.40201471528343" lon="10.778783062676995"><ele>166.0</ele><time>2026-04-20T14:01:22Z</time></trkpt><trkpt lat="43.40202116080983" lon="10.779001795356944"><ele>166.0</ele><time>2026-04-20T14:01:23Z</time></trkpt><trkpt lat="43.40202850239569" lon="10.779224733612226"><ele>166.0</ele><time>2026-04-20T14:01:24Z</time></trkpt><trkpt lat="43.402039364569156" lon="10.77945010804778"><ele>166.0</ele><time>2026-04-20T14:01:25Z</time></trkpt><trkpt lat="43.40205106740814" lon="10.779676686364343"><ele>166.0</ele><time>2026-04-20T14:01:26Z</time></trkpt><trkpt lat="43.40205293074736" lon="10.77989471561328"><ele>166.0</ele><time>2026-04-20T14:01:27Z</time></trkpt><trkpt lat="43.40204607855716" lon="10.780113930374084"><ele>165.66666666666669</ele><time>2026-04-20T14:01:28Z</time></trkpt><trkpt lat="43.40201773294934" lon="10.780334103526377"><ele>165.33333333333334</ele><time>2026-04-20T14:01:29Z</time></trkpt><trkpt lat="43.40198020752102" lon="10.780556870441666"><ele>165.0</ele><time>2026-04-20T14:01:30Z</time></trkpt><trkpt lat="43.40194683382547" lon="10.78078347971617"><ele>165.0</ele><time>2026-04-20T14:01:31Z</time></trkpt><trkpt lat="43.401921184165495" lon="10.780992882688315"><ele>165.0</ele><time>2026-04-20T14:01:32Z</time></trkpt><trkpt lat="43.401897982673326" lon="10.781202358411962"><ele>165.0</ele><time>2026-04-20T14:01:33Z</time></trkpt><trkpt lat="43.401880445110834" lon="10.78140984692893"><ele>165.0</ele><time>2026-04-20T14:01:34Z</time></trkpt><trkpt lat="43.40187069724404" lon="10.781615657267944"><ele>165.0</ele><time>2026-04-20T14:01:35Z</time></trkpt><trkpt lat="43.4018720408581" lon="10.781822935944978"><ele>165.0</ele><time>2026-04-20T14:01:36Z</time></trkpt><trkpt lat="43.40188086325303" lon="10.782027833863458"><ele>164.75</ele><time>2026-04-20T14:01:37Z</time></trkpt><trkpt lat="43.40189453808465" lon="10.782230381992331"><ele>164.5</ele><time>2026-04-20T14:01:38Z</time></trkpt><trkpt lat="43.401911386053456" lon="10.78243129479846"><ele>164.25</ele><time>2026-04-20T14:01:39Z</time></trkpt><trkpt lat="43.40193054352394" lon="10.782637401871085"><ele>164.0</ele><time>2026-04-20T14:01:40Z</time></trkpt><trkpt lat="43.40194978168012" lon="10.78284951491519"><ele>163.0</ele><time>2026-04-20T14:01:41Z</time></trkpt><trkpt lat="43.401966205706486" lon="10.78306249736503"><ele>162.0</ele><time>2026-04-20T14:01:42Z</time></trkpt><trkpt lat="43.401986313259684" lon="10.783280540531642"><ele>161.0</ele><time>2026-04-20T14:01:43Z</time></trkpt><trkpt lat="43.40201002873733" lon="10.783499569670814"><ele>160.0</ele><time>2026-04-20T14:01:44Z</time></trkpt><trkpt lat="43.402029981554314" lon="10.783706190460688"><ele>159.0</ele><time>2026-04-20T14:01:45Z</time></trkpt><trkpt lat="43.402051167834976" lon="10.783916725325023"><ele>158.0</ele><time>2026-04-20T14:01:46Z</time></trkpt><trkpt lat="43.402074660695725" lon="10.784129891921726"><ele>158.0</ele><time>2026-04-20T14:01:47Z</time></trkpt><trkpt lat="43.402103470198256" lon="10.784335822455034"><ele>158.0</ele><time>2026-04-20T14:01:48Z</time></trkpt><trkpt lat="43.402147845499776" lon="10.784538309453074"><ele>158.0</ele><time>2026-04-20T14:01:49Z</time></trkpt><trkpt lat="43.40219924740093" lon="10.784737381464112"><ele>160.0</ele><time>2026-04-20T14:01:50Z</time></trkpt><trkpt lat="43.402248667490994" lon="10.78493690984985"><ele>162.0</ele><time>2026-04-20T14:01:51Z</time></trkpt><trkpt lat="43.40230066865962" lon="10.785137655242423"><ele>164.0</ele><time>2026-04-20T14:01:52Z</time></trkpt><trkpt lat="43.40235467422315" lon="10.785345258168581"><ele>164.0</ele><time>2026-04-20T14:01:53Z</time></trkpt><trkpt lat="43.40240606202648" lon="10.78555657603832"><ele>164.0</ele><time>2026-04-20T14:01:54Z</time></trkpt><trkpt lat="43.402458408723945" lon="10.78576527198711"><ele>164.0</ele><time>2026-04-20T14:01:55Z</time></trkpt><trkpt lat="43.402509456088744" lon="10.785966032407623"><ele>164.66666666666666</ele><time>2026-04-20T14:01:56Z</time></trkpt><trkpt lat="43.40256047121745" lon="10.786167438878124"><ele>165.33333333333334</ele><time>2026-04-20T14:01:57Z</time></trkpt><trkpt lat="43.402609826929336" lon="10.786365982803762"><ele>166.0</ele><time>2026-04-20T14:01:58Z</time></trkpt><trkpt lat="43.40266134799021" lon="10.786565227312682"><ele>166.0</ele><time>2026-04-20T14:01:59Z</time></trkpt><trkpt lat="43.4027149157907" lon="10.786765487478243"><ele>166.0</ele><time>2026-04-20T14:02:00Z</time></trkpt><trkpt lat="43.40276380416568" lon="10.786965815421603"><ele>166.0</ele><time>2026-04-20T14:02:01Z</time></trkpt><trkpt lat="43.40280654854909" lon="10.787151895900177"><ele>166.5</ele><time>2026-04-20T14:02:02Z</time></trkpt><trkpt lat="43.40284808208504" lon="10.787326508587794"><ele>167.0</ele><time>2026-04-20T14:02:03Z</time></trkpt><trkpt lat="43.40287481973663" lon="10.787496678147324"><ele>167.5</ele><time>2026-04-20T14:02:04Z</time></trkpt><trkpt lat="43.40289072111872" lon="10.787650344757743"><ele>168.0</ele><time>2026-04-20T14:02:05Z</time></trkpt><trkpt lat="43.4028932907862" lon="10.787787587066646"><ele>169.4</ele><time>2026-04-20T14:02:06Z</time></trkpt><trkpt lat="43.4028843721858" lon="10.78792164083562"><ele>170.8</ele><time>2026-04-20T14:02:07Z</time></trkpt><trkpt lat="43.40285558341253" lon="10.788053036351979"><ele>172.2</ele><time>2026-04-20T14:02:08Z</time></trkpt><trkpt lat="43.40280632955447" lon="10.788187665275572"><ele>173.6</ele><time>2026-04-20T14:02:09Z</time></trkpt><trkpt lat="43.40274463578611" lon="10.788319617531169"><ele>175.0</ele><time>2026-04-20T14:02:10Z</time></trkpt><trkpt lat="43.40267259651281" lon="10.788443961356153"><ele>176.5</ele><time>2026-04-20T14:02:11Z</time></trkpt><trkpt lat="43.40259097716207" lon="10.788565330994764"><ele>178.0</ele><time>2026-04-20T14:02:12Z</time></trkpt><trkpt lat="43.402507048997705" lon="10.78868696267412"><ele>179.5</ele><time>2026-04-20T14:02:13Z</time></trkpt><trkpt lat="43.40242727286252" lon="10.788800652977756"><ele>181.0</ele><time>2026-04-20T14:02:14Z</time></trkpt><trkpt lat="43.4023458696754" lon="10.788905678467408"><ele>181.0</ele><time>2026-04-20T14:02:15Z</time></trkpt><trkpt lat="43.40226090434324" lon="10.788993587303793"><ele>181.0</ele><time>2026-04-20T14:02:16Z</time></trkpt><trkpt lat="43.40216553123896" lon="10.789057238252662"><ele>181.0</ele><time>2026-04-20T14:02:17Z</time></trkpt><trkpt lat="43.402061429035776" lon="10.789106619903261"><ele>181.0</ele><time>2026-04-20T14:02:18Z</time></trkpt><trkpt lat="43.401946731586854" lon="10.789125786843595"><ele>181.0</ele><time>2026-04-20T14:02:19Z</time></trkpt><trkpt lat="43.4018285337284" lon="10.789116741738713"><ele>179.20000000000002</ele><time>2026-04-20T14:02:20Z</time></trkpt><trkpt lat="43.40170995350608" lon="10.789083997614195"><ele>177.4</ele><time>2026-04-20T14:02:21Z</time></trkpt><trkpt lat="43.40159670206002" lon="10.789043659643532"><ele>175.6</ele><time>2026-04-20T14:02:22Z</time></trkpt><trkpt lat="43.40149544968554" lon="10.789010804704922"><ele>173.8</ele><time>2026-04-20T14:02:23Z</time></trkpt><trkpt lat="43.40140635813996" lon="10.78899613757817"><ele>172.0</ele><time>2026-04-20T14:02:24Z</time></trkpt><trkpt lat="43.401322522500045" lon="10.789000681434969"><ele>169.5</ele><time>2026-04-20T14:02:25Z</time></trkpt><trkpt lat="43.40124135751073" lon="10.78902520857373"><ele>167.0</ele><time>2026-04-20T14:02:26Z</time></trkpt><trkpt lat="43.401170631865675" lon="10.789073796710701"><ele>164.5</ele><time>2026-04-20T14:02:27Z</time></trkpt><trkpt lat="43.40110657723267" lon="10.789150260162021"><ele>162.0</ele><time>2026-04-20T14:02:28Z</time></trkpt><trkpt lat="43.40105880144939" lon="10.789252380785527"><ele>159.5</ele><time>2026-04-20T14:02:29Z</time></trkpt><trkpt lat="43.401030450034945" lon="10.78937510001796"><ele>157.0</ele><time>2026-04-20T14:02:30Z</time></trkpt><trkpt lat="43.40102790795299" lon="10.789510752974474"><ele>156.0</ele><time>2026-04-20T14:02:31Z</time></trkpt><trkpt lat="43.40105147016769" lon="10.789652740378099"><ele>155.0</ele><time>2026-04-20T14:02:32Z</time></trkpt><trkpt lat="43.401096090573695" lon="10.789787957350258"><ele>154.0</ele><time>2026-04-20T14:02:33Z</time></trkpt><trkpt lat="43.401155955369845" lon="10.789922489886745"><ele>153.0</ele><time>2026-04-20T14:02:34Z</time></trkpt><trkpt lat="43.40122523214118" lon="10.790050692790086"><ele>152.0</ele><time>2026-04-20T14:02:35Z</time></trkpt><trkpt lat="43.401299523919974" lon="10.790177945559607"><ele>153.6</ele><time>2026-04-20T14:02:36Z</time></trkpt><trkpt lat="43.401363095773426" lon="10.790289415322595"><ele>155.2</ele><time>2026-04-20T14:02:37Z</time></trkpt><trkpt lat="43.40141807258302" lon="10.790383932544646"><ele>156.8</ele><time>2026-04-20T14:02:38Z</time></trkpt><trkpt lat="43.401458590422294" lon="10.790486846039906"><ele>158.4</ele><time>2026-04-20T14:02:39Z</time></trkpt><trkpt lat="43.40147823005889" lon="10.790600837117474"><ele>160.0</ele><time>2026-04-20T14:02:40Z</time></trkpt><trkpt lat="43.40148692662403" lon="10.790723415384253"><ele>160.0</ele><time>2026-04-20T14:02:41Z</time></trkpt><trkpt lat="43.40144829656398" lon="10.790836504466576"><ele>160.0</ele><time>2026-04-20T14:02:42Z</time></trkpt><trkpt lat="43.401381360863574" lon="10.790938951954084"><ele>160.0</ele><time>2026-04-20T14:02:43Z</time></trkpt><trkpt lat="43.401296471208866" lon="10.791026783947173"><ele>160.0</ele><time>2026-04-20T14:02:44Z</time></trkpt><trkpt lat="43.40119952757941" lon="10.791115940273658"><ele>160.0</ele><time>2026-04-20T14:02:45Z</time></trkpt><trkpt lat="43.401096922165316" lon="10.7911971531836"><ele>158.33333333333334</ele><time>2026-04-20T14:02:46Z</time></trkpt><trkpt lat="43.40101955837346" lon="10.791238203304264"><ele>156.66666666666669</ele><time>2026-04-20T14:02:47Z</time></trkpt><trkpt lat="43.40095481560584" lon="10.791257406492162"><ele>155.0</ele><time>2026-04-20T14:02:48Z</time></trkpt><trkpt lat="43.400858347007414" lon="10.791261549648032"><ele>153.33333333333334</ele><time>2026-04-20T14:02:50Z</time></trkpt><trkpt lat="43.40074744988829" lon="10.791330340885423"><ele>151.66666666666666</ele><time>2026-04-20T14:03:47Z</time></trkpt><trkpt lat="43.40067427310911" lon="10.791379329306933"><ele>150.0</ele><time>2026-04-20T14:03:48Z</time></trkpt><trkpt lat="43.40058333635068" lon="10.79141816810618"><ele>148.2</ele><time>2026-04-20T14:03:49Z</time></trkpt><trkpt lat="43.400484321514696" lon="10.791461551824572"><ele>146.4</ele><time>2026-04-20T14:03:50Z</time></trkpt><trkpt lat="43.40038764954425" lon="10.791516365092424"><ele>144.6</ele><time>2026-04-20T14:03:51Z</time></trkpt><trkpt lat="43.40029231106975" lon="10.791599532336377"><ele>142.8</ele><time>2026-04-20T14:03:52Z</time></trkpt><trkpt lat="43.40020021308542" lon="10.791699936085605"><ele>141.0</ele><time>2026-04-20T14:03:53Z</time></trkpt><trkpt lat="43.40012036255538" lon="10.791827728454214"><ele>141.75</ele><time>2026-04-20T14:03:54Z</time></trkpt><trkpt lat="43.40005819561769" lon="10.791982865721168"><ele>142.5</ele><time>2026-04-20T14:03:55Z</time></trkpt><trkpt lat="43.40000684615137" lon="10.792155505417794"><ele>143.25</ele><time>2026-04-20T14:03:56Z</time></trkpt><trkpt lat="43.39996431164626" lon="10.79231473957931"><ele>144.0</ele><time>2026-04-20T14:03:57Z</time></trkpt><trkpt lat="43.39991873060309" lon="10.792449535018342"><ele>144.0</ele><time>2026-04-20T14:03:58Z</time></trkpt><trkpt lat="43.39986143490521" lon="10.79257235023162"><ele>144.0</ele><time>2026-04-20T14:03:59Z</time></trkpt><trkpt lat="43.39978106188736" lon="10.792681397269224"><ele>144.0</ele><time>2026-04-20T14:04:00Z</time></trkpt><trkpt lat="43.399679071567725" lon="10.792767370697462"><ele>144.0</ele><time>2026-04-20T14:04:01Z</time></trkpt><trkpt lat="43.39955868204722" lon="10.79283284546122"><ele>142.75</ele><time>2026-04-20T14:04:02Z</time></trkpt><trkpt lat="43.39942614193211" lon="10.79287830247115"><ele>141.5</ele><time>2026-04-20T14:04:03Z</time></trkpt><trkpt lat="43.39929963118897" lon="10.792908968223198"><ele>140.25</ele><time>2026-04-20T14:04:04Z</time></trkpt><trkpt lat="43.39916228540205" lon="10.792916438954459"><ele>139.0</ele><time>2026-04-20T14:04:05Z</time></trkpt><trkpt lat="43.39902710289097" lon="10.792879705396883"><ele>139.0</ele><time>2026-04-20T14:04:06Z</time></trkpt><trkpt lat="43.39889858021717" lon="10.792821365333152"><ele>139.0</ele><time>2026-04-20T14:04:07Z</time></trkpt><trkpt lat="43.398766777557405" lon="10.792748682237002"><ele>139.0</ele><time>2026-04-20T14:04:08Z</time></trkpt><trkpt lat="43.39863560697507" lon="10.792673071602728"><ele>139.0</ele><time>2026-04-20T14:04:09Z</time></trkpt><trkpt lat="43.39849793063222" lon="10.792595314751853"><ele>138.75</ele><time>2026-04-20T14:04:10Z</time></trkpt><trkpt lat="43.39835667401872" lon="10.792521706842134"><ele>138.5</ele><time>2026-04-20T14:04:11Z</time></trkpt><trkpt lat="43.398226571926436" lon="10.79245331644905"><ele>138.25</ele><time>2026-04-20T14:04:12Z</time></trkpt><trkpt lat="43.39808928090139" lon="10.792405525724492"><ele>138.0</ele><time>2026-04-20T14:04:13Z</time></trkpt><trkpt lat="43.39794697731373" lon="10.792377550883858"><ele>138.0</ele><time>2026-04-20T14:04:14Z</time></trkpt><trkpt lat="43.397798375123344" lon="10.792368198354776"><ele>138.0</ele><time>2026-04-20T14:04:15Z</time></trkpt><trkpt lat="43.39764111190149" lon="10.792380887635462"><ele>138.0</ele><time>2026-04-20T14:04:16Z</time></trkpt><trkpt lat="43.39748075821461" lon="10.79240711627338"><ele>138.0</ele><time>2026-04-20T14:04:17Z</time></trkpt><trkpt lat="43.39731789582604" lon="10.792430110178755"><ele>138.0</ele><time>2026-04-20T14:04:18Z</time></trkpt><trkpt lat="43.397162355986" lon="10.792438363241914"><ele>138.0</ele><time>2026-04-20T14:04:19Z</time></trkpt><trkpt lat="43.39700674360677" lon="10.792422935360104"><ele>137.5</ele><time>2026-04-20T14:04:20Z</time></trkpt><trkpt lat="43.39686334342003" lon="10.792390543965134"><ele>137.0</ele><time>2026-04-20T14:04:21Z</time></trkpt><trkpt lat="43.39673805968139" lon="10.792383664020514"><ele>136.5</ele><time>2026-04-20T14:04:22Z</time></trkpt><trkpt lat="43.39659881063497" lon="10.792395752364037"><ele>136.0</ele><time>2026-04-20T14:04:23Z</time></trkpt><trkpt lat="43.39645705132644" lon="10.792431499554658"><ele>136.0</ele><time>2026-04-20T14:04:24Z</time></trkpt><trkpt lat="43.39632134024458" lon="10.792473596634023"><ele>136.0</ele><time>2026-04-20T14:04:25Z</time></trkpt><trkpt lat="43.39619831074565" lon="10.792543177027117"><ele>136.0</ele><time>2026-04-20T14:04:26Z</time></trkpt><trkpt lat="43.396079505659614" lon="10.79264487765288"><ele>136.0</ele><time>2026-04-20T14:04:27Z</time></trkpt><trkpt lat="43.39595802941305" lon="10.792775900169035"><ele>133.0</ele><time>2026-04-20T14:04:28Z</time></trkpt><trkpt lat="43.39584049631879" lon="10.792929985745626"><ele>130.0</ele><time>2026-04-20T14:04:29Z</time></trkpt><trkpt lat="43.395722680992975" lon="10.79309447831084"><ele>127.0</ele><time>2026-04-20T14:04:30Z</time></trkpt><trkpt lat="43.395608496369206" lon="10.793251699944454"><ele>128.0</ele><time>2026-04-20T14:04:31Z</time></trkpt><trkpt lat="43.39550123707685" lon="10.793404030890196"><ele>129.0</ele><time>2026-04-20T14:04:32Z</time></trkpt><trkpt lat="43.39539299496657" lon="10.79355642911891"><ele>130.0</ele><time>2026-04-20T14:04:33Z</time></trkpt><trkpt lat="43.39529289732675" lon="10.793694407311554"><ele>128.6</ele><time>2026-04-20T14:04:34Z</time></trkpt><trkpt lat="43.3952066996619" lon="10.79381091709137"><ele>127.2</ele><time>2026-04-20T14:04:35Z</time></trkpt><trkpt lat="43.39512040932491" lon="10.79390689034818"><ele>125.80000000000001</ele><time>2026-04-20T14:04:36Z</time></trkpt><trkpt lat="43.39503503972705" lon="10.79398085976974"><ele>124.4</ele><time>2026-04-20T14:04:37Z</time></trkpt><trkpt lat="43.394939856482445" lon="10.794043846753414"><ele>123.0</ele><time>2026-04-20T14:04:38Z</time></trkpt><trkpt lat="43.3948433509333" lon="10.794071822479578"><ele>123.0</ele><time>2026-04-20T14:04:39Z</time></trkpt><trkpt lat="43.39473745234813" lon="10.794064417207164"><ele>123.0</ele><time>2026-04-20T14:04:40Z</time></trkpt><trkpt lat="43.39462064102682" lon="10.794037169881557"><ele>123.0</ele><time>2026-04-20T14:04:41Z</time></trkpt><trkpt lat="43.39450210037473" lon="10.793988792973956"><ele>123.0</ele><time>2026-04-20T14:04:42Z</time></trkpt><trkpt lat="43.39438087014774" lon="10.793922687876911"><ele>121.75</ele><time>2026-04-20T14:04:43Z</time></trkpt><trkpt lat="43.394262072810875" lon="10.79385593365719"><ele>120.5</ele><time>2026-04-20T14:04:44Z</time></trkpt><trkpt lat="43.39412835639086" lon="10.793796600995963"><ele>119.25</ele><time>2026-04-20T14:04:45Z</time></trkpt><trkpt lat="43.39398767887412" lon="10.793726212353013"><ele>118.0</ele><time>2026-04-20T14:04:46Z</time></trkpt><trkpt lat="43.39383181782256" lon="10.793707804576009"><ele>116.33333333333334</ele><time>2026-04-20T14:04:47Z</time></trkpt><trkpt lat="43.3936750526015" lon="10.793690167010075"><ele>114.66666666666666</ele><time>2026-04-20T14:04:48Z</time></trkpt><trkpt lat="43.39352274682092" lon="10.79368535992995"><ele>113.0</ele><time>2026-04-20T14:04:49Z</time></trkpt><trkpt lat="43.3933745851673" lon="10.793687269558358"><ele>113.0</ele><time>2026-04-20T14:04:50Z</time></trkpt><trkpt lat="43.393221564322985" lon="10.793689011191255"><ele>113.0</ele><time>2026-04-20T14:04:51Z</time></trkpt><trkpt lat="43.39306569373774" lon="10.793682042729365"><ele>113.0</ele><time>2026-04-20T14:04:52Z</time></trkpt><trkpt lat="43.39290539212221" lon="10.793675022303429"><ele>112.33333333333333</ele><time>2026-04-20T14:04:53Z</time></trkpt><trkpt lat="43.392742991158954" lon="10.793670360795543"><ele>111.66666666666666</ele><time>2026-04-20T14:04:54Z</time></trkpt><trkpt lat="43.39257826821376" lon="10.79366864758956"><ele>111.0</ele><time>2026-04-20T14:04:55Z</time></trkpt><trkpt lat="43.39242056073835" lon="10.793661116342516"><ele>111.0</ele><time>2026-04-20T14:04:56Z</time></trkpt><trkpt lat="43.392273116863215" lon="10.793651558610884"><ele>111.0</ele><time>2026-04-20T14:04:57Z</time></trkpt><trkpt lat="43.39212735934543" lon="10.793649813616115"><ele>111.0</ele><time>2026-04-20T14:04:58Z</time></trkpt><trkpt lat="43.391986089734985" lon="10.793644381134472"><ele>111.0</ele><time>2026-04-20T14:04:59Z</time></trkpt><trkpt lat="43.39185427523911" lon="10.79363991973921"><ele>110.75</ele><time>2026-04-20T14:05:00Z</time></trkpt><trkpt lat="43.391729999651574" lon="10.793636031352895"><ele>110.5</ele><time>2026-04-20T14:05:01Z</time></trkpt><trkpt lat="43.39162063151876" lon="10.793642841117444"><ele>110.25</ele><time>2026-04-20T14:05:02Z</time></trkpt><trkpt lat="43.39151203590555" lon="10.793667692573631"><ele>110.0</ele><time>2026-04-20T14:05:03Z</time></trkpt><trkpt lat="43.39140433686397" lon="10.793725675701806"><ele>112.0</ele><time>2026-04-20T14:05:04Z</time></trkpt><trkpt lat="43.39129685669268" lon="10.793825414883411"><ele>114.0</ele><time>2026-04-20T14:05:05Z</time></trkpt><trkpt lat="43.39119889533881" lon="10.793954747572839"><ele>116.0</ele><time>2026-04-20T14:05:06Z</time></trkpt><trkpt lat="43.39111038333957" lon="10.79410909144874"><ele>118.0</ele><time>2026-04-20T14:05:07Z</time></trkpt><trkpt lat="43.39103206775891" lon="10.794291622646671"><ele>115.66666666666667</ele><time>2026-04-20T14:05:08Z</time></trkpt><trkpt lat="43.39094848034725" lon="10.794476998728445"><ele>113.33333333333334</ele><time>2026-04-20T14:05:09Z</time></trkpt><trkpt lat="43.39086808497194" lon="10.794652522986352"><ele>111.0</ele><time>2026-04-20T14:05:10Z</time></trkpt><trkpt lat="43.39077800740673" lon="10.794828056289415"><ele>111.0</ele><time>2026-04-20T14:05:11Z</time></trkpt><trkpt lat="43.3906791007617" lon="10.795006680419217"><ele>111.0</ele><time>2026-04-20T14:05:12Z</time></trkpt><trkpt lat="43.39057277541172" lon="10.795182829323355"><ele>111.0</ele><time>2026-04-20T14:05:13Z</time></trkpt><trkpt lat="43.390474661967886" lon="10.795348450908815"><ele>110.33333333333334</ele><time>2026-04-20T14:05:14Z</time></trkpt><trkpt lat="43.39037888848278" lon="10.795517169075591"><ele>109.66666666666667</ele><time>2026-04-20T14:05:15Z</time></trkpt><trkpt lat="43.39028459728607" lon="10.79568457617979"><ele>109.0</ele><time>2026-04-20T14:05:16Z</time></trkpt><trkpt lat="43.390187274840486" lon="10.795851612610932"><ele>106.5</ele><time>2026-04-20T14:05:17Z</time></trkpt><trkpt lat="43.39009553347962" lon="10.796006310206032"><ele>104.0</ele><time>2026-04-20T14:05:18Z</time></trkpt><trkpt lat="43.390005644132685" lon="10.796151155401208"><ele>101.5</ele><time>2026-04-20T14:05:19Z</time></trkpt><trkpt lat="43.38991941294382" lon="10.796274524341355"><ele>99.0</ele><time>2026-04-20T14:05:20Z</time></trkpt><trkpt lat="43.38983120429853" lon="10.796390152801498"><ele>99.0</ele><time>2026-04-20T14:05:21Z</time></trkpt><trkpt lat="43.38973401100935" lon="10.796495126721043"><ele>99.0</ele><time>2026-04-20T14:05:22Z</time></trkpt><trkpt lat="43.38962481497133" lon="10.796588900293395"><ele>99.0</ele><time>2026-04-20T14:05:23Z</time></trkpt><trkpt lat="43.38949983301302" lon="10.796658995326167"><ele>99.0</ele><time>2026-04-20T14:05:24Z</time></trkpt><trkpt lat="43.389363822115534" lon="10.796688603894479"><ele>99.66666666666666</ele><time>2026-04-20T14:05:25Z</time></trkpt><trkpt lat="43.38921571996142" lon="10.796694664691973"><ele>100.33333333333333</ele><time>2026-04-20T14:05:26Z</time></trkpt><trkpt lat="43.38906369841733" lon="10.79667652384514"><ele>101.0</ele><time>2026-04-20T14:05:27Z</time></trkpt><trkpt lat="43.388906260027795" lon="10.796650838878124"><ele>100.75</ele><time>2026-04-20T14:05:28Z</time></trkpt><trkpt lat="43.388751314197464" lon="10.79663783952253"><ele>100.5</ele><time>2026-04-20T14:05:29Z</time></trkpt><trkpt lat="43.388614054329494" lon="10.796618708181875"><ele>100.25</ele><time>2026-04-20T14:05:30Z</time></trkpt><trkpt lat="43.3884818872361" lon="10.796594503587182"><ele>100.0</ele><time>2026-04-20T14:05:31Z</time></trkpt><trkpt lat="43.38834874358224" lon="10.796540696207785"><ele>100.0</ele><time>2026-04-20T14:05:32Z</time></trkpt><trkpt lat="43.388219403875674" lon="10.796454101076865"><ele>100.0</ele><time>2026-04-20T14:05:33Z</time></trkpt><trkpt lat="43.38809808154298" lon="10.796337080928248"><ele>100.0</ele><time>2026-04-20T14:05:34Z</time></trkpt><trkpt lat="43.38798186138186" lon="10.79619879499027"><ele>100.0</ele><time>2026-04-20T14:05:35Z</time></trkpt><trkpt lat="43.387871451527964" lon="10.796051170866818"><ele>100.0</ele><time>2026-04-20T14:05:36Z</time></trkpt><trkpt lat="43.3877620693578" lon="10.79589738111002"><ele>100.0</ele><time>2026-04-20T14:05:37Z</time></trkpt><trkpt lat="43.38765087576323" lon="10.795741550522349"><ele>100.0</ele><time>2026-04-20T14:05:38Z</time></trkpt><trkpt lat="43.38753946701915" lon="10.795596608095487"><ele>100.0</ele><time>2026-04-20T14:05:39Z</time></trkpt><trkpt lat="43.38742082907993" lon="10.795463853750107"><ele>100.0</ele><time>2026-04-20T14:05:40Z</time></trkpt><trkpt lat="43.38729063820558" lon="10.795340875294555"><ele>100.0</ele><time>2026-04-20T14:05:41Z</time></trkpt><trkpt lat="43.38715482088825" lon="10.795217976335731"><ele>98.0</ele><time>2026-04-20T14:05:42Z</time></trkpt><trkpt lat="43.387018620820264" lon="10.79509877093455"><ele>96.0</ele><time>2026-04-20T14:05:43Z</time></trkpt><trkpt lat="43.38689194544942" lon="10.794994609161918"><ele>94.0</ele><time>2026-04-20T14:05:44Z</time></trkpt><trkpt lat="43.386764038377336" lon="10.794898268297231"><ele>94.0</ele><time>2026-04-20T14:05:45Z</time></trkpt><trkpt lat="43.38663653238974" lon="10.794811383812718"><ele>94.0</ele><time>2026-04-20T14:05:46Z</time></trkpt><trkpt lat="43.38651290618072" lon="10.794740556409758"><ele>94.0</ele><time>2026-04-20T14:05:47Z</time></trkpt><trkpt lat="43.386395645873016" lon="10.794688925504945"><ele>94.0</ele><time>2026-04-20T14:05:48Z</time></trkpt><trkpt lat="43.386283067208964" lon="10.79465876291995"><ele>93.25</ele><time>2026-04-20T14:05:49Z</time></trkpt><trkpt lat="43.38616645394035" lon="10.79465242666484"><ele>92.5</ele><time>2026-04-20T14:05:50Z</time></trkpt><trkpt lat="43.386048168522606" lon="10.794671054825535"><ele>91.75</ele><time>2026-04-20T14:05:51Z</time></trkpt><trkpt lat="43.3859293677206" lon="10.79471920602393"><ele>91.0</ele><time>2026-04-20T14:05:52Z</time></trkpt><trkpt lat="43.385806777727964" lon="10.794801657966797"><ele>91.0</ele><time>2026-04-20T14:05:53Z</time></trkpt><trkpt lat="43.38568313392457" lon="10.794913069406094"><ele>91.0</ele><time>2026-04-20T14:05:54Z</time></trkpt><trkpt lat="43.38556419006534" lon="10.795039635135325"><ele>91.0</ele><time>2026-04-20T14:05:55Z</time></trkpt><trkpt lat="43.385436809411594" lon="10.795178125272308"><ele>89.0</ele><time>2026-04-20T14:05:56Z</time></trkpt><trkpt lat="43.3853037211425" lon="10.795319857581552"><ele>87.0</ele><time>2026-04-20T14:05:57Z</time></trkpt><trkpt lat="43.38516574613539" lon="10.795468718125385"><ele>85.0</ele><time>2026-04-20T14:05:58Z</time></trkpt><trkpt lat="43.385025463297325" lon="10.79561661886773"><ele>85.0</ele><time>2026-04-20T14:05:59Z</time></trkpt><trkpt lat="43.38488233678712" lon="10.795771467706743"><ele>85.0</ele><time>2026-04-20T14:06:00Z</time></trkpt><trkpt lat="43.384734343521416" lon="10.795929216696818"><ele>85.0</ele><time>2026-04-20T14:06:01Z</time></trkpt><trkpt lat="43.384585638781864" lon="10.79608430809939"><ele>84.0</ele><time>2026-04-20T14:06:02Z</time></trkpt><trkpt lat="43.3844367777866" lon="10.79624144801462"><ele>83.0</ele><time>2026-04-20T14:06:03Z</time></trkpt><trkpt lat="43.38428991363943" lon="10.796397298103727"><ele>82.0</ele><time>2026-04-20T14:06:04Z</time></trkpt><trkpt lat="43.384138916756754" lon="10.79656123576531"><ele>82.0</ele><time>2026-04-20T14:06:05Z</time></trkpt><trkpt lat="43.3839925756204" lon="10.796716907031684"><ele>82.0</ele><time>2026-04-20T14:06:06Z</time></trkpt><trkpt lat="43.38384828351704" lon="10.796870623729648"><ele>82.0</ele><time>2026-04-20T14:06:07Z</time></trkpt><trkpt lat="43.38369843581157" lon="10.797028270359005"><ele>81.66666666666666</ele><time>2026-04-20T14:06:08Z</time></trkpt><trkpt lat="43.38354800512498" lon="10.797184693822999"><ele>81.33333333333333</ele><time>2026-04-20T14:06:09Z</time></trkpt><trkpt lat="43.383400019936275" lon="10.797341432271752"><ele>81.0</ele><time>2026-04-20T14:06:10Z</time></trkpt><trkpt lat="43.38324908508477" lon="10.797501155354105"><ele>81.0</ele><time>2026-04-20T14:06:11Z</time></trkpt><trkpt lat="43.383100816162276" lon="10.797653089712718"><ele>81.0</ele><time>2026-04-20T14:06:12Z</time></trkpt><trkpt lat="43.38294842378704" lon="10.797811508840564"><ele>81.0</ele><time>2026-04-20T14:06:13Z</time></trkpt><trkpt lat="43.38280070486767" lon="10.79797856059404"><ele>81.33333333333333</ele><time>2026-04-20T14:06:14Z</time></trkpt><trkpt lat="43.382648264962334" lon="10.79814857208468"><ele>81.66666666666666</ele><time>2026-04-20T14:06:15Z</time></trkpt><trkpt lat="43.38249582962324" lon="10.798313493748681"><ele>82.0</ele><time>2026-04-20T14:06:16Z</time></trkpt><trkpt lat="43.38233919357426" lon="10.798477168357941"><ele>82.0</ele><time>2026-04-20T14:06:17Z</time></trkpt><trkpt lat="43.38218347986771" lon="10.798640584636752"><ele>82.0</ele><time>2026-04-20T14:06:18Z</time></trkpt><trkpt lat="43.38202219789074" lon="10.798810976375865"><ele>82.0</ele><time>2026-04-20T14:06:19Z</time></trkpt><trkpt lat="43.38186524375803" lon="10.798981801825871"><ele>82.0</ele><time>2026-04-20T14:06:20Z</time></trkpt><trkpt lat="43.381704198317216" lon="10.799155428856066"><ele>82.0</ele><time>2026-04-20T14:06:21Z</time></trkpt><trkpt lat="43.381539350247664" lon="10.79932693237949"><ele>82.0</ele><time>2026-04-20T14:06:22Z</time></trkpt><trkpt lat="43.3813791012298" lon="10.799495415832377"><ele>81.33333333333333</ele><time>2026-04-20T14:06:23Z</time></trkpt><trkpt lat="43.38122562435709" lon="10.799665462528903"><ele>80.66666666666667</ele><time>2026-04-20T14:06:24Z</time></trkpt><trkpt lat="43.38106536358158" lon="10.79983496863994"><ele>80.0</ele><time>2026-04-20T14:06:25Z</time></trkpt><trkpt lat="43.380905062552024" lon="10.80000503116275"><ele>80.0</ele><time>2026-04-20T14:06:26Z</time></trkpt><trkpt lat="43.3807502639431" lon="10.800163904480861"><ele>80.0</ele><time>2026-04-20T14:06:27Z</time></trkpt><trkpt lat="43.38061085589673" lon="10.80031563044147"><ele>80.0</ele><time>2026-04-20T14:06:28Z</time></trkpt><trkpt lat="43.38048289045864" lon="10.800454418824001"><ele>79.75</ele><time>2026-04-20T14:06:29Z</time></trkpt><trkpt lat="43.38036853293425" lon="10.800581491962484"><ele>79.5</ele><time>2026-04-20T14:06:30Z</time></trkpt><trkpt lat="43.38026628353522" lon="10.800694805165515"><ele>79.25</ele><time>2026-04-20T14:06:31Z</time></trkpt><trkpt lat="43.380162600027155" lon="10.800799407177015"><ele>79.0</ele><time>2026-04-20T14:06:32Z</time></trkpt><trkpt lat="43.38004674842833" lon="10.800888087842477"><ele>79.0</ele><time>2026-04-20T14:06:33Z</time></trkpt><trkpt lat="43.37992054069909" lon="10.800952142275264"><ele>79.0</ele><time>2026-04-20T14:06:34Z</time></trkpt><trkpt lat="43.37978769755341" lon="10.80097421576206"><ele>79.0</ele><time>2026-04-20T14:06:35Z</time></trkpt><trkpt lat="43.37965053571519" lon="10.800965184946914"><ele>79.0</ele><time>2026-04-20T14:06:36Z</time></trkpt><trkpt lat="43.37950630250668" lon="10.800932716333845"><ele>78.33333333333333</ele><time>2026-04-20T14:06:37Z</time></trkpt><trkpt lat="43.379356931350365" lon="10.800895458151102"><ele>77.66666666666667</ele><time>2026-04-20T14:06:38Z</time></trkpt><trkpt lat="43.37920531661699" lon="10.800855124996522"><ele>77.0</ele><time>2026-04-20T14:06:39Z</time></trkpt><trkpt lat="43.37904319506433" lon="10.800819785562625"><ele>77.0</ele><time>2026-04-20T14:06:40Z</time></trkpt><trkpt lat="43.378884680468495" lon="10.800771260345462"><ele>77.0</ele><time>2026-04-20T14:06:41Z</time></trkpt><trkpt lat="43.37872162279744" lon="10.80072916560321"><ele>77.0</ele><time>2026-04-20T14:06:42Z</time></trkpt><trkpt lat="43.37856114292851" lon="10.800694167835657"><ele>77.33333333333334</ele><time>2026-04-20T14:06:43Z</time></trkpt><trkpt lat="43.3783941617395" lon="10.800656272846439"><ele>77.66666666666667</ele><time>2026-04-20T14:06:44Z</time></trkpt><trkpt lat="43.378227131302296" lon="10.800615847331617"><ele>78.0</ele><time>2026-04-20T14:06:45Z</time></trkpt><trkpt lat="43.37805332472493" lon="10.800572569907443"><ele>77.33333333333333</ele><time>2026-04-20T14:06:46Z</time></trkpt><trkpt lat="43.377879179928684" lon="10.800528567544271"><ele>76.66666666666666</ele><time>2026-04-20T14:06:47Z</time></trkpt><trkpt lat="43.37770091907176" lon="10.800485441754368"><ele>76.0</ele><time>2026-04-20T14:06:48Z</time></trkpt><trkpt lat="43.3775320383011" lon="10.80044327395454"><ele>76.0</ele><time>2026-04-20T14:06:49Z</time></trkpt><trkpt lat="43.37737277042467" lon="10.800397860951554"><ele>76.0</ele><time>2026-04-20T14:06:50Z</time></trkpt><trkpt lat="43.37722196626669" lon="10.800357947788576"><ele>76.0</ele><time>2026-04-20T14:06:51Z</time></trkpt><trkpt lat="43.37707121529618" lon="10.800333620448557"><ele>77.0</ele><time>2026-04-20T14:06:52Z</time></trkpt><trkpt lat="43.37691537576865" lon="10.80033504340991"><ele>78.0</ele><time>2026-04-20T14:06:53Z</time></trkpt><trkpt lat="43.3767569057496" lon="10.800355193742696"><ele>79.0</ele><time>2026-04-20T14:06:54Z</time></trkpt><trkpt lat="43.376596502902395" lon="10.800401069263328"><ele>79.0</ele><time>2026-04-20T14:06:55Z</time></trkpt><trkpt lat="43.37643711032395" lon="10.800474173378365"><ele>79.0</ele><time>2026-04-20T14:06:56Z</time></trkpt><trkpt lat="43.376276752037676" lon="10.800565532811584"><ele>79.0</ele><time>2026-04-20T14:06:57Z</time></trkpt><trkpt lat="43.37611913669868" lon="10.8006743837772"><ele>78.33333333333333</ele><time>2026-04-20T14:06:58Z</time></trkpt><trkpt lat="43.37596300972666" lon="10.800799206385234"><ele>77.66666666666667</ele><time>2026-04-20T14:06:59Z</time></trkpt><trkpt lat="43.37579893118532" lon="10.800922264234092"><ele>77.0</ele><time>2026-04-20T14:07:00Z</time></trkpt><trkpt lat="43.37563433104128" lon="10.801044892726928"><ele>76.33333333333334</ele><time>2026-04-20T14:07:01Z</time></trkpt><trkpt lat="43.37546645495072" lon="10.801171214677323"><ele>75.66666666666667</ele><time>2026-04-20T14:07:02Z</time></trkpt><trkpt lat="43.37529593389437" lon="10.801299715153192"><ele>75.0</ele><time>2026-04-20T14:07:03Z</time></trkpt><trkpt lat="43.37512723803473" lon="10.801426312528166"><ele>75.0</ele><time>2026-04-20T14:07:04Z</time></trkpt><trkpt lat="43.374959363540135" lon="10.801560032061252"><ele>75.0</ele><time>2026-04-20T14:07:05Z</time></trkpt><trkpt lat="43.374791921451745" lon="10.801685478962222"><ele>75.0</ele><time>2026-04-20T14:07:06Z</time></trkpt><trkpt lat="43.37462193138117" lon="10.801811530304397"><ele>74.66666666666667</ele><time>2026-04-20T14:07:07Z</time></trkpt><trkpt lat="43.374450287860554" lon="10.801937835076854"><ele>74.33333333333334</ele><time>2026-04-20T14:07:08Z</time></trkpt><trkpt lat="43.3742742488242" lon="10.802073279940002"><ele>74.0</ele><time>2026-04-20T14:07:09Z</time></trkpt><trkpt lat="43.37409957792842" lon="10.802207168288856"><ele>74.0</ele><time>2026-04-20T14:07:10Z</time></trkpt><trkpt lat="43.373922657720996" lon="10.80234064806335"><ele>74.0</ele><time>2026-04-20T14:07:11Z</time></trkpt><trkpt lat="43.37375019033925" lon="10.80247011126997"><ele>74.0</ele><time>2026-04-20T14:07:12Z</time></trkpt><trkpt lat="43.373579329443615" lon="10.802602627433597"><ele>74.0</ele><time>2026-04-20T14:07:13Z</time></trkpt><trkpt lat="43.37340838532695" lon="10.802734858155574"><ele>74.0</ele><time>2026-04-20T14:07:14Z</time></trkpt><trkpt lat="43.37323985556538" lon="10.802863841342642"><ele>74.0</ele><time>2026-04-20T14:07:15Z</time></trkpt><trkpt lat="43.373069318847975" lon="10.802990293778825"><ele>75.0</ele><time>2026-04-20T14:07:16Z</time></trkpt><trkpt lat="43.37290231985319" lon="10.803118233459761"><ele>76.0</ele><time>2026-04-20T14:07:17Z</time></trkpt><trkpt lat="43.37273289601913" lon="10.803244087845451"><ele>77.0</ele><time>2026-04-20T14:07:18Z</time></trkpt><trkpt lat="43.37256446858985" lon="10.803371841871739"><ele>76.0</ele><time>2026-04-20T14:07:19Z</time></trkpt><trkpt lat="43.372396578786805" lon="10.803498397304448"><ele>75.0</ele><time>2026-04-20T14:07:20Z</time></trkpt><trkpt lat="43.37223801958914" lon="10.803620603318686"><ele>74.0</ele><time>2026-04-20T14:07:21Z</time></trkpt><trkpt lat="43.3720737977272" lon="10.803750195264659"><ele>73.66666666666667</ele><time>2026-04-20T14:07:22Z</time></trkpt><trkpt lat="43.37191216116987" lon="10.803867724291884"><ele>73.33333333333333</ele><time>2026-04-20T14:07:23Z</time></trkpt><trkpt lat="43.371752324967524" lon="10.803991387266533"><ele>73.0</ele><time>2026-04-20T14:07:24Z</time></trkpt><trkpt lat="43.37159687215926" lon="10.80410674472797"><ele>73.0</ele><time>2026-04-20T14:07:25Z</time></trkpt><trkpt lat="43.37144179149184" lon="10.804226803610318"><ele>73.0</ele><time>2026-04-20T14:07:26Z</time></trkpt><trkpt lat="43.37128359249986" lon="10.80434889811865"><ele>73.0</ele><time>2026-04-20T14:07:27Z</time></trkpt><trkpt lat="43.3711257418038" lon="10.804469230228628"><ele>73.33333333333333</ele><time>2026-04-20T14:07:28Z</time></trkpt><trkpt lat="43.37096672346442" lon="10.804589652932878"><ele>73.66666666666667</ele><time>2026-04-20T14:07:29Z</time></trkpt><trkpt lat="43.370806200683525" lon="10.804716647764469"><ele>74.0</ele><time>2026-04-20T14:07:30Z</time></trkpt><trkpt lat="43.37064305643" lon="10.804837362134132"><ele>73.66666666666667</ele><time>2026-04-20T14:07:31Z</time></trkpt><trkpt lat="43.370492108720796" lon="10.804954914070638"><ele>73.33333333333333</ele><time>2026-04-20T14:07:32Z</time></trkpt><trkpt lat="43.370345701653584" lon="10.805067894244864"><ele>73.0</ele><time>2026-04-20T14:07:33Z</time></trkpt><trkpt lat="43.370201782494256" lon="10.805181825501029"><ele>72.33333333333333</ele><time>2026-04-20T14:07:34Z</time></trkpt><trkpt lat="43.37005923707398" lon="10.805310009316248"><ele>71.66666666666667</ele><time>2026-04-20T14:07:35Z</time></trkpt><trkpt lat="43.36992239046028" lon="10.80545871338199"><ele>71.0</ele><time>2026-04-20T14:07:36Z</time></trkpt><trkpt lat="43.36979281411454" lon="10.805623826879497"><ele>71.0</ele><time>2026-04-20T14:07:37Z</time></trkpt><trkpt lat="43.369661950536816" lon="10.805791551126372"><ele>71.0</ele><time>2026-04-20T14:07:38Z</time></trkpt><trkpt lat="43.36953133533551" lon="10.805966433990907"><ele>71.0</ele><time>2026-04-20T14:07:39Z</time></trkpt><trkpt lat="43.369398393794775" lon="10.806144158509667"><ele>71.0</ele><time>2026-04-20T14:07:40Z</time></trkpt><trkpt lat="43.3692644637748" lon="10.806322612269085"><ele>71.0</ele><time>2026-04-20T14:07:41Z</time></trkpt><trkpt lat="43.369127090658395" lon="10.80650206370516"><ele>71.0</ele><time>2026-04-20T14:07:42Z</time></trkpt><trkpt lat="43.3689877363804" lon="10.806681615676412"><ele>71.66666666666667</ele><time>2026-04-20T14:07:43Z</time></trkpt><trkpt lat="43.36884791569277" lon="10.806863143405867"><ele>72.33333333333333</ele><time>2026-04-20T14:07:44Z</time></trkpt><trkpt lat="43.368704399698714" lon="10.807039862791505"><ele>73.0</ele><time>2026-04-20T14:07:45Z</time></trkpt><trkpt lat="43.36857140301357" lon="10.807212209413583"><ele>73.0</ele><time>2026-04-20T14:07:46Z</time></trkpt><trkpt lat="43.36844684108785" lon="10.80737753490002"><ele>73.0</ele><time>2026-04-20T14:07:47Z</time></trkpt><trkpt lat="43.36833045387729" lon="10.8075357394189"><ele>73.0</ele><time>2026-04-20T14:07:48Z</time></trkpt><trkpt lat="43.3682125213193" lon="10.807692519493989"><ele>73.33333333333333</ele><time>2026-04-20T14:07:49Z</time></trkpt><trkpt lat="43.368092076740965" lon="10.807846620796617"><ele>73.66666666666667</ele><time>2026-04-20T14:07:50Z</time></trkpt><trkpt lat="43.3679631695491" lon="10.808004367334037"><ele>74.0</ele><time>2026-04-20T14:07:51Z</time></trkpt><trkpt lat="43.36782527250965" lon="10.808150048074411"><ele>74.0</ele><time>2026-04-20T14:07:52Z</time></trkpt><trkpt lat="43.367680160508925" lon="10.808283081698475"><ele>74.0</ele><time>2026-04-20T14:07:53Z</time></trkpt><trkpt lat="43.36752897352333" lon="10.808400501634775"><ele>74.0</ele><time>2026-04-20T14:07:54Z</time></trkpt><trkpt lat="43.367371864391345" lon="10.80851661987371"><ele>75.33333333333334</ele><time>2026-04-20T14:07:55Z</time></trkpt><trkpt lat="43.36722043193748" lon="10.808633699390025"><ele>76.66666666666667</ele><time>2026-04-20T14:07:56Z</time></trkpt><trkpt lat="43.367066081323586" lon="10.808753255743587"><ele>78.0</ele><time>2026-04-20T14:07:57Z</time></trkpt><trkpt lat="43.36693083655982" lon="10.80886446500077"><ele>78.0</ele><time>2026-04-20T14:07:58Z</time></trkpt><trkpt lat="43.36682712434624" lon="10.80897314288669"><ele>78.0</ele><time>2026-04-20T14:07:59Z</time></trkpt><trkpt lat="43.36672163490115" lon="10.809086937301975"><ele>78.0</ele><time>2026-04-20T14:08:00Z</time></trkpt><trkpt lat="43.36663241749542" lon="10.809230058609831"><ele>78.0</ele><time>2026-04-20T14:08:01Z</time></trkpt><trkpt lat="43.36655285406858" lon="10.809387270246207"><ele>79.75</ele><time>2026-04-20T14:08:02Z</time></trkpt><trkpt lat="43.366479764861936" lon="10.809551255780994"><ele>81.5</ele><time>2026-04-20T14:08:03Z</time></trkpt><trkpt lat="43.36640613019203" lon="10.809713333511315"><ele>83.25</ele><time>2026-04-20T14:08:04Z</time></trkpt><trkpt lat="43.36633477661425" lon="10.80987186716488"><ele>85.0</ele><time>2026-04-20T14:08:05Z</time></trkpt><trkpt lat="43.36625821463428" lon="10.81002885206561"><ele>85.25</ele><time>2026-04-20T14:08:06Z</time></trkpt><trkpt lat="43.366188506789726" lon="10.810178639489964"><ele>85.5</ele><time>2026-04-20T14:08:07Z</time></trkpt><trkpt lat="43.36612345195993" lon="10.810318321630666"><ele>85.75</ele><time>2026-04-20T14:08:08Z</time></trkpt><trkpt lat="43.366054174152396" lon="10.810465788110267"><ele>86.0</ele><time>2026-04-20T14:08:09Z</time></trkpt><trkpt lat="43.365982159222035" lon="10.810608510184816"><ele>86.0</ele><time>2026-04-20T14:08:10Z</time></trkpt><trkpt lat="43.36590944444246" lon="10.810750427036716"><ele>86.0</ele><time>2026-04-20T14:08:11Z</time></trkpt><trkpt lat="43.365832743166976" lon="10.810873873357218"><ele>86.0</ele><time>2026-04-20T14:08:12Z</time></trkpt><trkpt lat="43.36575475168014" lon="10.810984638180445"><ele>86.0</ele><time>2026-04-20T14:08:13Z</time></trkpt><trkpt lat="43.36568569194054" lon="10.811077080398391"><ele>86.19999999999999</ele><time>2026-04-20T14:08:14Z</time></trkpt><trkpt lat="43.36560379394627" lon="10.811168826017637"><ele>86.39999999999999</ele><time>2026-04-20T14:08:15Z</time></trkpt><trkpt lat="43.3655144596771" lon="10.811259364124552"><ele>86.6</ele><time>2026-04-20T14:08:16Z</time></trkpt><trkpt lat="43.365417627445794" lon="10.811361676746802"><ele>86.8</ele><time>2026-04-20T14:08:17Z</time></trkpt><trkpt lat="43.365331984160946" lon="10.811451904674408"><ele>87.0</ele><time>2026-04-20T14:08:18Z</time></trkpt><trkpt lat="43.36525105028013" lon="10.811541438537134"><ele>86.0</ele><time>2026-04-20T14:08:19Z</time></trkpt><trkpt lat="43.36516910731788" lon="10.811636112686783"><ele>85.0</ele><time>2026-04-20T14:08:20Z</time></trkpt><trkpt lat="43.36508149885385" lon="10.811735569793438"><ele>84.0</ele><time>2026-04-20T14:08:21Z</time></trkpt><trkpt lat="43.3649977475316" lon="10.811822788707115"><ele>83.0</ele><time>2026-04-20T14:08:22Z</time></trkpt><trkpt lat="43.36491634680715" lon="10.811921822324747"><ele>82.0</ele><time>2026-04-20T14:08:23Z</time></trkpt><trkpt lat="43.36483229330048" lon="10.812024113216243"><ele>81.5</ele><time>2026-04-20T14:08:24Z</time></trkpt><trkpt lat="43.36474357445746" lon="10.81212874479478"><ele>81.0</ele><time>2026-04-20T14:08:25Z</time></trkpt><trkpt lat="43.364651399058495" lon="10.812234843014254"><ele>80.5</ele><time>2026-04-20T14:08:26Z</time></trkpt><trkpt lat="43.36456519576758" lon="10.812330238189299"><ele>80.0</ele><time>2026-04-20T14:08:27Z</time></trkpt><trkpt lat="43.364481407945796" lon="10.81241868154156"><ele>79.8</ele><time>2026-04-20T14:08:28Z</time></trkpt><trkpt lat="43.36440029921899" lon="10.812494070431075"><ele>79.6</ele><time>2026-04-20T14:08:29Z</time></trkpt><trkpt lat="43.36431710160973" lon="10.812547689986665"><ele>79.4</ele><time>2026-04-20T14:08:30Z</time></trkpt><trkpt lat="43.364229894258806" lon="10.812587997745103"><ele>79.2</ele><time>2026-04-20T14:08:31Z</time></trkpt><trkpt lat="43.36414012921021" lon="10.812607414993435"><ele>79.0</ele><time>2026-04-20T14:08:32Z</time></trkpt><trkpt lat="43.364042279358294" lon="10.812618553958682"><ele>79.0</ele><time>2026-04-20T14:08:33Z</time></trkpt><trkpt lat="43.36396297596325" lon="10.812625841505835"><ele>79.0</ele><time>2026-04-20T14:08:34Z</time></trkpt><trkpt lat="43.363843039749995" lon="10.81263696999323"><ele>79.0</ele><time>2026-04-20T14:08:36Z</time></trkpt><trkpt lat="43.36377016231913" lon="10.812637916770125"><ele>79.0</ele><time>2026-04-20T14:08:37Z</time></trkpt><trkpt lat="43.363685502403605" lon="10.812648594083594"><ele>79.0</ele><time>2026-04-20T14:08:38Z</time></trkpt><trkpt lat="43.36359164231246" lon="10.812656350724438"><ele>79.0</ele><time>2026-04-20T14:08:39Z</time></trkpt><trkpt lat="43.36349439477039" lon="10.812654881002357"><ele>79.0</ele><time>2026-04-20T14:08:40Z</time></trkpt><trkpt lat="43.36338474298015" lon="10.812644826871372"><ele>79.0</ele><time>2026-04-20T14:08:41Z</time></trkpt><trkpt lat="43.363272359984066" lon="10.812635391676862"><ele>79.0</ele><time>2026-04-20T14:08:42Z</time></trkpt><trkpt lat="43.36315147711774" lon="10.812631582476248"><ele>79.0</ele><time>2026-04-20T14:08:43Z</time></trkpt><trkpt lat="43.363024628354566" lon="10.812631986287688"><ele>79.0</ele><time>2026-04-20T14:08:44Z</time></trkpt><trkpt lat="43.362900580709116" lon="10.81263409262864"><ele>79.0</ele><time>2026-04-20T14:08:45Z</time></trkpt><trkpt lat="43.362772078902005" lon="10.812636675465571"><ele>79.0</ele><time>2026-04-20T14:08:46Z</time></trkpt><trkpt lat="43.362642017738445" lon="10.812628033893972"><ele>79.0</ele><time>2026-04-20T14:08:47Z</time></trkpt><trkpt lat="43.3625161065851" lon="10.812625708611098"><ele>79.0</ele><time>2026-04-20T14:08:48Z</time></trkpt><trkpt lat="43.36238423057226" lon="10.812627625764753"><ele>79.0</ele><time>2026-04-20T14:08:49Z</time></trkpt><trkpt lat="43.36225342845465" lon="10.812620599315332"><ele>79.0</ele><time>2026-04-20T14:08:50Z</time></trkpt><trkpt lat="43.362131282918924" lon="10.812608717640963"><ele>79.0</ele><time>2026-04-20T14:08:51Z</time></trkpt><trkpt lat="43.36202056935491" lon="10.812596455670734"><ele>78.25</ele><time>2026-04-20T14:08:52Z</time></trkpt><trkpt lat="43.36191194720861" lon="10.812577168077324"><ele>77.5</ele><time>2026-04-20T14:08:53Z</time></trkpt><trkpt lat="43.361808104728524" lon="10.812540909985305"><ele>76.75</ele><time>2026-04-20T14:08:54Z</time></trkpt><trkpt lat="43.361701284718606" lon="10.812484315488616"><ele>76.0</ele><time>2026-04-20T14:08:55Z</time></trkpt><trkpt lat="43.361592194188965" lon="10.812418873551898"><ele>76.0</ele><time>2026-04-20T14:08:56Z</time></trkpt><trkpt lat="43.36148687436751" lon="10.812342314293971"><ele>76.0</ele><time>2026-04-20T14:08:57Z</time></trkpt><trkpt lat="43.361382895031525" lon="10.812258500619373"><ele>76.0</ele><time>2026-04-20T14:08:58Z</time></trkpt><trkpt lat="43.36129045263945" lon="10.812168170712885"><ele>76.0</ele><time>2026-04-20T14:08:59Z</time></trkpt><trkpt lat="43.36120170112485" lon="10.81206255099449"><ele>75.75</ele><time>2026-04-20T14:09:00Z</time></trkpt><trkpt lat="43.36111623359458" lon="10.811940365955525"><ele>75.5</ele><time>2026-04-20T14:09:01Z</time></trkpt><trkpt lat="43.36103186273891" lon="10.811804305455784"><ele>75.25</ele><time>2026-04-20T14:09:02Z</time></trkpt><trkpt lat="43.360949861052994" lon="10.811662836316652"><ele>75.0</ele><time>2026-04-20T14:09:03Z</time></trkpt><trkpt lat="43.360862614056394" lon="10.811514262588844"><ele>75.0</ele><time>2026-04-20T14:09:04Z</time></trkpt><trkpt lat="43.360778203730646" lon="10.81136521273507"><ele>75.0</ele><time>2026-04-20T14:09:05Z</time></trkpt><trkpt lat="43.360712905241385" lon="10.811181528696247"><ele>75.0</ele><time>2026-04-20T14:09:06Z</time></trkpt><trkpt lat="43.36064791707669" lon="10.811029341004797"><ele>75.0</ele><time>2026-04-20T14:09:07Z</time></trkpt><trkpt lat="43.36060558885869" lon="10.8109073084868"><ele>74.33333333333333</ele><time>2026-04-20T14:09:08Z</time></trkpt><trkpt lat="43.36057058552326" lon="10.810811687147844"><ele>73.66666666666667</ele><time>2026-04-20T14:09:09Z</time></trkpt><trkpt lat="43.360530222709436" lon="10.810687517357962"><ele>73.0</ele><time>2026-04-20T14:09:11Z</time></trkpt><trkpt lat="43.36050832016863" lon="10.810605006025465"><ele>72.33333333333334</ele><time>2026-04-20T14:09:14Z</time></trkpt><trkpt lat="43.36048104844873" lon="10.810516613677722"><ele>71.66666666666667</ele><time>2026-04-20T14:09:18Z</time></trkpt><trkpt lat="43.36044903138648" lon="10.810404764931913"><ele>71.0</ele><time>2026-04-20T14:09:24Z</time></trkpt><trkpt lat="43.36039831752826" lon="10.810279405997568"><ele>71.0</ele><time>2026-04-20T14:09:26Z</time></trkpt><trkpt lat="43.36037066205599" lon="10.81019551701716"><ele>71.0</ele><time>2026-04-20T14:09:27Z</time></trkpt><trkpt lat="43.36034460469716" lon="10.81009961802265"><ele>71.0</ele><time>2026-04-20T14:09:28Z</time></trkpt><trkpt lat="43.36031384167184" lon="10.810000111854029"><ele>71.0</ele><time>2026-04-20T14:09:29Z</time></trkpt><trkpt lat="43.36028042658847" lon="10.809882929034353"><ele>71.0</ele><time>2026-04-20T14:09:30Z</time></trkpt><trkpt lat="43.36024639946843" lon="10.809777738671567"><ele>71.0</ele><time>2026-04-20T14:09:31Z</time></trkpt><trkpt lat="43.36021529008465" lon="10.8096801981117"><ele>71.2</ele><time>2026-04-20T14:09:32Z</time></trkpt><trkpt lat="43.360189474553955" lon="10.809597362106317"><ele>71.39999999999999</ele><time>2026-04-20T14:09:33Z</time></trkpt><trkpt lat="43.360141971264625" lon="10.809457111134519"><ele>71.6</ele><time>2026-04-20T14:09:35Z</time></trkpt><trkpt lat="43.36010599026237" lon="10.809345350619598"><ele>71.8</ele><time>2026-04-20T14:09:37Z</time></trkpt><trkpt lat="43.360078586081784" lon="10.809256533412965"><ele>72.0</ele><time>2026-04-20T14:09:40Z</time></trkpt><trkpt lat="43.360026703457095" lon="10.809116335825074"><ele>72.4</ele><time>2026-04-20T14:09:49Z</time></trkpt><trkpt lat="43.359976862181966" lon="10.80894332634624"><ele>72.80000000000001</ele><time>2026-04-20T14:09:51Z</time></trkpt><trkpt lat="43.359943475844155" lon="10.808827715709494"><ele>73.2</ele><time>2026-04-20T14:09:52Z</time></trkpt><trkpt lat="43.35989803432444" lon="10.80869980435843"><ele>73.60000000000001</ele><time>2026-04-20T14:09:53Z</time></trkpt><trkpt lat="43.359858239254024" lon="10.808561674980274"><ele>74.0</ele><time>2026-04-20T14:09:54Z</time></trkpt><trkpt lat="43.35980922836398" lon="10.808414371952846"><ele>75.0</ele><time>2026-04-20T14:09:55Z</time></trkpt><trkpt lat="43.35975718568613" lon="10.808253357976387"><ele>76.0</ele><time>2026-04-20T14:09:56Z</time></trkpt><trkpt lat="43.359704027898786" lon="10.80808599040151"><ele>77.0</ele><time>2026-04-20T14:09:57Z</time></trkpt><trkpt lat="43.35965323620063" lon="10.807910354866328"><ele>78.0</ele><time>2026-04-20T14:09:58Z</time></trkpt><trkpt lat="43.3595969743911" lon="10.807730060483705"><ele>76.0</ele><time>2026-04-20T14:09:59Z</time></trkpt><trkpt lat="43.359536157876605" lon="10.807545228262619"><ele>74.0</ele><time>2026-04-20T14:10:00Z</time></trkpt><trkpt lat="43.359475698041145" lon="10.807356012053917"><ele>72.0</ele><time>2026-04-20T14:10:01Z</time></trkpt><trkpt lat="43.35942376258467" lon="10.807176108956634"><ele>70.0</ele><time>2026-04-20T14:10:02Z</time></trkpt><trkpt lat="43.359372190356005" lon="10.807001146896376"><ele>70.0</ele><time>2026-04-20T14:10:03Z</time></trkpt><trkpt lat="43.35931757188278" lon="10.806834648081706"><ele>70.0</ele><time>2026-04-20T14:10:04Z</time></trkpt><trkpt lat="43.35927018057676" lon="10.806686088560555"><ele>70.0</ele><time>2026-04-20T14:10:05Z</time></trkpt><trkpt lat="43.35923123267736" lon="10.806549473773359"><ele>70.0</ele><time>2026-04-20T14:10:06Z</time></trkpt><trkpt lat="43.35920708386227" lon="10.806406276271634"><ele>69.75</ele><time>2026-04-20T14:10:07Z</time></trkpt><trkpt lat="43.35920439720301" lon="10.806250459942717"><ele>69.5</ele><time>2026-04-20T14:10:08Z</time></trkpt><trkpt lat="43.35922177065697" lon="10.806084591577315"><ele>69.25</ele><time>2026-04-20T14:10:09Z</time></trkpt><trkpt lat="43.359254287127904" lon="10.805917184210792"><ele>69.0</ele><time>2026-04-20T14:10:10Z</time></trkpt><trkpt lat="43.35927766177424" lon="10.805733034363369"><ele>69.0</ele><time>2026-04-20T14:10:11Z</time></trkpt><trkpt lat="43.359293588723645" lon="10.805544858105549"><ele>69.0</ele><time>2026-04-20T14:10:12Z</time></trkpt><trkpt lat="43.359316972448624" lon="10.805357735802612"><ele>69.0</ele><time>2026-04-20T14:10:13Z</time></trkpt><trkpt lat="43.35933131240859" lon="10.805189768145446"><ele>69.0</ele><time>2026-04-20T14:10:14Z</time></trkpt><trkpt lat="43.35935319512478" lon="10.805008653157548"><ele>68.5</ele><time>2026-04-20T14:10:15Z</time></trkpt><trkpt lat="43.35937733383948" lon="10.804819321467082"><ele>68.0</ele><time>2026-04-20T14:10:16Z</time></trkpt><trkpt lat="43.359402050714266" lon="10.804624232532355"><ele>67.5</ele><time>2026-04-20T14:10:17Z</time></trkpt><trkpt lat="43.35942526306455" lon="10.80442409979567"><ele>67.0</ele><time>2026-04-20T14:10:18Z</time></trkpt><trkpt lat="43.359444390395" lon="10.804232519289357"><ele>66.75</ele><time>2026-04-20T14:10:19Z</time></trkpt><trkpt lat="43.35945938217536" lon="10.804047025558628"><ele>66.5</ele><time>2026-04-20T14:10:20Z</time></trkpt><trkpt lat="43.359462171689536" lon="10.803853341297785"><ele>66.25</ele><time>2026-04-20T14:10:21Z</time></trkpt><trkpt lat="43.35944629752025" lon="10.803661725364538"><ele>66.0</ele><time>2026-04-20T14:10:22Z</time></trkpt><trkpt lat="43.35942597438563" lon="10.80346341105"><ele>66.0</ele><time>2026-04-20T14:10:23Z</time></trkpt><trkpt lat="43.35939747462366" lon="10.803272847036318"><ele>66.0</ele><time>2026-04-20T14:10:24Z</time></trkpt><trkpt lat="43.35935754489067" lon="10.803089275082845"><ele>66.0</ele><time>2026-04-20T14:10:25Z</time></trkpt><trkpt lat="43.359299852751" lon="10.802909868293613"><ele>66.0</ele><time>2026-04-20T14:10:26Z</time></trkpt><trkpt lat="43.35923131018189" lon="10.802726521835478"><ele>67.0</ele><time>2026-04-20T14:10:27Z</time></trkpt><trkpt lat="43.3591487525374" lon="10.802553503609413"><ele>68.0</ele><time>2026-04-20T14:10:28Z</time></trkpt><trkpt lat="43.35905076517749" lon="10.802385859207911"><ele>69.0</ele><time>2026-04-20T14:10:29Z</time></trkpt><trkpt lat="43.35894421397691" lon="10.80223071583024"><ele>68.33333333333333</ele><time>2026-04-20T14:10:30Z</time></trkpt><trkpt lat="43.35883706622269" lon="10.802073290793219"><ele>67.66666666666666</ele><time>2026-04-20T14:10:31Z</time></trkpt><trkpt lat="43.358734172074854" lon="10.801917114851653"><ele>67.0</ele><time>2026-04-20T14:10:32Z</time></trkpt><trkpt lat="43.35863090898681" lon="10.801756838977461"><ele>67.0</ele><time>2026-04-20T14:10:33Z</time></trkpt><trkpt lat="43.35853108040743" lon="10.801593912794024"><ele>67.0</ele><time>2026-04-20T14:10:34Z</time></trkpt><trkpt lat="43.358437538597975" lon="10.801435514641419"><ele>67.0</ele><time>2026-04-20T14:10:35Z</time></trkpt><trkpt lat="43.358345826137295" lon="10.8012679193568"><ele>67.0</ele><time>2026-04-20T14:10:36Z</time></trkpt><trkpt lat="43.35826555224853" lon="10.801090638088985"><ele>67.0</ele><time>2026-04-20T14:10:37Z</time></trkpt><trkpt lat="43.35819646454559" lon="10.800904236434084"><ele>67.0</ele><time>2026-04-20T14:10:38Z</time></trkpt><trkpt lat="43.3581368462512" lon="10.800712332800883"><ele>66.33333333333333</ele><time>2026-04-20T14:10:39Z</time></trkpt><trkpt lat="43.35807342469832" lon="10.800518982297596"><ele>65.66666666666667</ele><time>2026-04-20T14:10:40Z</time></trkpt><trkpt lat="43.358010516940766" lon="10.800325247672777"><ele>65.0</ele><time>2026-04-20T14:10:41Z</time></trkpt><trkpt lat="43.357947834741466" lon="10.800127884311513"><ele>65.0</ele><time>2026-04-20T14:10:42Z</time></trkpt><trkpt lat="43.35788549307563" lon="10.79993458912684"><ele>65.0</ele><time>2026-04-20T14:10:43Z</time></trkpt><trkpt lat="43.35782487877105" lon="10.799748969598967"><ele>65.0</ele><time>2026-04-20T14:10:44Z</time></trkpt><trkpt lat="43.357758407554286" lon="10.799567233286938"><ele>65.0</ele><time>2026-04-20T14:10:45Z</time></trkpt><trkpt lat="43.3576809438074" lon="10.79939252276604"><ele>65.0</ele><time>2026-04-20T14:10:46Z</time></trkpt><trkpt lat="43.35759188336466" lon="10.799219703348136"><ele>65.0</ele><time>2026-04-20T14:10:47Z</time></trkpt><trkpt lat="43.35749442524931" lon="10.799048828752195"><ele>65.66666666666667</ele><time>2026-04-20T14:10:48Z</time></trkpt><trkpt lat="43.357388765870105" lon="10.798882033186946"><ele>66.33333333333333</ele><time>2026-04-20T14:10:49Z</time></trkpt><trkpt lat="43.357280060202136" lon="10.798718303108684"><ele>67.0</ele><time>2026-04-20T14:10:50Z</time></trkpt><trkpt lat="43.35717314447917" lon="10.798558010462353"><ele>66.33333333333333</ele><time>2026-04-20T14:10:51Z</time></trkpt><trkpt lat="43.35706952376446" lon="10.7983901317579"><ele>65.66666666666667</ele><time>2026-04-20T14:10:52Z</time></trkpt><trkpt lat="43.35697171818141" lon="10.798220723259686"><ele>65.0</ele><time>2026-04-20T14:10:53Z</time></trkpt><trkpt lat="43.356879459671994" lon="10.798046070292216"><ele>65.0</ele><time>2026-04-20T14:10:54Z</time></trkpt><trkpt lat="43.35679490779197" lon="10.797867660996078"><ele>65.0</ele><time>2026-04-20T14:10:55Z</time></trkpt><trkpt lat="43.35671773343091" lon="10.797684177699423"><ele>65.0</ele><time>2026-04-20T14:10:56Z</time></trkpt><trkpt lat="43.3566469085628" lon="10.797496447278924"><ele>66.66666666666667</ele><time>2026-04-20T14:10:57Z</time></trkpt><trkpt lat="43.35658048977629" lon="10.79730486422916"><ele>68.33333333333333</ele><time>2026-04-20T14:10:58Z</time></trkpt><trkpt lat="43.356524199082585" lon="10.797106244864418"><ele>70.0</ele><time>2026-04-20T14:10:59Z</time></trkpt><trkpt lat="43.35647455319269" lon="10.79690370457162"><ele>71.33333333333333</ele><time>2026-04-20T14:11:00Z</time></trkpt><trkpt lat="43.356430943824634" lon="10.796694976581076"><ele>72.66666666666667</ele><time>2026-04-20T14:11:01Z</time></trkpt><trkpt lat="43.35639324261227" lon="10.79648695501677"><ele>74.0</ele><time>2026-04-20T14:11:02Z</time></trkpt><trkpt lat="43.35636379449468" lon="10.796270546548199"><ele>70.0</ele><time>2026-04-20T14:11:03Z</time></trkpt><trkpt lat="43.35634380474257" lon="10.796043982786149"><ele>66.0</ele><time>2026-04-20T14:11:04Z</time></trkpt><trkpt lat="43.35633231593394" lon="10.795814634002035"><ele>62.0</ele><time>2026-04-20T14:11:05Z</time></trkpt><trkpt lat="43.356326595934696" lon="10.795576792826948"><ele>62.0</ele><time>2026-04-20T14:11:06Z</time></trkpt><trkpt lat="43.356330854187355" lon="10.79533529051291"><ele>62.0</ele><time>2026-04-20T14:11:07Z</time></trkpt><trkpt lat="43.35634748474579" lon="10.795090287884637"><ele>62.0</ele><time>2026-04-20T14:11:08Z</time></trkpt><trkpt lat="43.35637358939655" lon="10.794843534432017"><ele>62.333333333333336</ele><time>2026-04-20T14:11:09Z</time></trkpt><trkpt lat="43.35640668269209" lon="10.7945962936206"><ele>62.66666666666667</ele><time>2026-04-20T14:11:10Z</time></trkpt><trkpt lat="43.35644878158548" lon="10.794348286385654"><ele>63.0</ele><time>2026-04-20T14:11:11Z</time></trkpt><trkpt lat="43.35650081746119" lon="10.794103061779625"><ele>62.33333333333333</ele><time>2026-04-20T14:11:12Z</time></trkpt><trkpt lat="43.35655346100685" lon="10.79385934812567"><ele>61.666666666666664</ele><time>2026-04-20T14:11:13Z</time></trkpt><trkpt lat="43.3566068667777" lon="10.793613629005435"><ele>61.0</ele><time>2026-04-20T14:11:14Z</time></trkpt><trkpt lat="43.35666130434235" lon="10.793371344386328"><ele>60.666666666666664</ele><time>2026-04-20T14:11:15Z</time></trkpt><trkpt lat="43.356713398779156" lon="10.793125216601446"><ele>60.33333333333333</ele><time>2026-04-20T14:11:16Z</time></trkpt><trkpt lat="43.35676668409931" lon="10.792881510394281"><ele>60.0</ele><time>2026-04-20T14:11:17Z</time></trkpt><trkpt lat="43.356817814048064" lon="10.792635442941778"><ele>59.33333333333333</ele><time>2026-04-20T14:11:18Z</time></trkpt><trkpt lat="43.35687192094115" lon="10.79239564254345"><ele>58.666666666666664</ele><time>2026-04-20T14:11:19Z</time></trkpt><trkpt lat="43.356925228417865" lon="10.792153081411458"><ele>58.0</ele><time>2026-04-20T14:11:20Z</time></trkpt><trkpt lat="43.356974932459515" lon="10.791909608633482"><ele>58.666666666666664</ele><time>2026-04-20T14:11:21Z</time></trkpt><trkpt lat="43.357024403185164" lon="10.791664647493583"><ele>59.33333333333333</ele><time>2026-04-20T14:11:22Z</time></trkpt><trkpt lat="43.35707115527525" lon="10.791418165819"><ele>60.0</ele><time>2026-04-20T14:11:23Z</time></trkpt><trkpt lat="43.35711130237861" lon="10.791169989351244"><ele>59.66666666666667</ele><time>2026-04-20T14:11:24Z</time></trkpt><trkpt lat="43.35714715985836" lon="10.790918916432181"><ele>59.333333333333336</ele><time>2026-04-20T14:11:25Z</time></trkpt><trkpt lat="43.357180934392105" lon="10.790664004814568"><ele>59.0</ele><time>2026-04-20T14:11:26Z</time></trkpt><trkpt lat="43.35721093140111" lon="10.790406834149781"><ele>60.333333333333336</ele><time>2026-04-20T14:11:27Z</time></trkpt><trkpt lat="43.35723426472215" lon="10.790144827234629"><ele>61.66666666666667</ele><time>2026-04-20T14:11:28Z</time></trkpt><trkpt lat="43.357253384685684" lon="10.7898776729778"><ele>63.0</ele><time>2026-04-20T14:11:29Z</time></trkpt><trkpt lat="43.35726948754822" lon="10.7896111114748"><ele>65.0</ele><time>2026-04-20T14:11:30Z</time></trkpt><trkpt lat="43.35727806980899" lon="10.789338881664571"><ele>67.0</ele><time>2026-04-20T14:11:31Z</time></trkpt><trkpt lat="43.35728417191746" lon="10.789071557452763"><ele>69.0</ele><time>2026-04-20T14:11:32Z</time></trkpt><trkpt lat="43.3572847539774" lon="10.788805446040907"><ele>69.0</ele><time>2026-04-20T14:11:33Z</time></trkpt><trkpt lat="43.35728062810355" lon="10.788538165083256"><ele>69.0</ele><time>2026-04-20T14:11:34Z</time></trkpt><trkpt lat="43.35727213619693" lon="10.788273244299804"><ele>69.0</ele><time>2026-04-20T14:11:35Z</time></trkpt><trkpt lat="43.35725978559782" lon="10.788009195928554"><ele>68.0</ele><time>2026-04-20T14:11:36Z</time></trkpt><trkpt lat="43.35724182695539" lon="10.787746023442269"><ele>67.0</ele><time>2026-04-20T14:11:37Z</time></trkpt><trkpt lat="43.35722006655237" lon="10.787483609515668"><ele>66.0</ele><time>2026-04-20T14:11:38Z</time></trkpt><trkpt lat="43.35719737495924" lon="10.787222015765652"><ele>64.0</ele><time>2026-04-20T14:11:39Z</time></trkpt><trkpt lat="43.35716907138986" lon="10.786963412529634"><ele>62.0</ele><time>2026-04-20T14:11:40Z</time></trkpt><trkpt lat="43.35713571439579" lon="10.786707853496754"><ele>60.0</ele><time>2026-04-20T14:11:41Z</time></trkpt><trkpt lat="43.35709845914525" lon="10.78645242336698"><ele>60.0</ele><time>2026-04-20T14:11:42Z</time></trkpt><trkpt lat="43.3570588776133" lon="10.786191790353852"><ele>60.0</ele><time>2026-04-20T14:11:43Z</time></trkpt><trkpt lat="43.3570183374335" lon="10.785932091314418"><ele>60.0</ele><time>2026-04-20T14:11:44Z</time></trkpt><trkpt lat="43.35697903809534" lon="10.785677440494005"><ele>60.0</ele><time>2026-04-20T14:11:45Z</time></trkpt><trkpt lat="43.35693906028378" lon="10.785427700696609"><ele>60.0</ele><time>2026-04-20T14:11:46Z</time></trkpt><trkpt lat="43.35690041340877" lon="10.785178928351453"><ele>60.0</ele><time>2026-04-20T14:11:47Z</time></trkpt><trkpt lat="43.356858383377435" lon="10.784929346739151"><ele>60.0</ele><time>2026-04-20T14:11:48Z</time></trkpt><trkpt lat="43.35682010594389" lon="10.784680311298398"><ele>60.0</ele><time>2026-04-20T14:11:49Z</time></trkpt><trkpt lat="43.35678161372256" lon="10.784429864545613"><ele>60.0</ele><time>2026-04-20T14:11:50Z</time></trkpt><trkpt lat="43.356741479888704" lon="10.784180912148782"><ele>60.0</ele><time>2026-04-20T14:11:51Z</time></trkpt><trkpt lat="43.35670376647998" lon="10.78393167528188"><ele>60.0</ele><time>2026-04-20T14:11:52Z</time></trkpt><trkpt lat="43.356664447600366" lon="10.783682264757502"><ele>60.0</ele><time>2026-04-20T14:11:53Z</time></trkpt><trkpt lat="43.35662724454" lon="10.783433569477738"><ele>59.66666666666667</ele><time>2026-04-20T14:11:54Z</time></trkpt><trkpt lat="43.35658937607599" lon="10.783183128275937"><ele>59.333333333333336</ele><time>2026-04-20T14:11:55Z</time></trkpt><trkpt lat="43.35655352578786" lon="10.782934009392822"><ele>59.0</ele><time>2026-04-20T14:11:56Z</time></trkpt><trkpt lat="43.35652392280058" lon="10.78268738155277"><ele>58.66666666666667</ele><time>2026-04-20T14:11:57Z</time></trkpt><trkpt lat="43.35650259819399" lon="10.782440859150954"><ele>58.33333333333333</ele><time>2026-04-20T14:11:58Z</time></trkpt><trkpt lat="43.35648851081759" lon="10.78219048987253"><ele>58.0</ele><time>2026-04-20T14:11:59Z</time></trkpt><trkpt lat="43.35647871170554" lon="10.781938108250925"><ele>58.33333333333333</ele><time>2026-04-20T14:12:00Z</time></trkpt><trkpt lat="43.35646939449719" lon="10.781686197581577"><ele>58.66666666666667</ele><time>2026-04-20T14:12:01Z</time></trkpt><trkpt lat="43.35646224848877" lon="10.781433286353153"><ele>59.0</ele><time>2026-04-20T14:12:02Z</time></trkpt><trkpt lat="43.356454367919945" lon="10.781180164016162"><ele>59.333333333333336</ele><time>2026-04-20T14:12:03Z</time></trkpt><trkpt lat="43.3564461334591" lon="10.78092305165326"><ele>59.66666666666667</ele><time>2026-04-20T14:12:04Z</time></trkpt><trkpt lat="43.356437609000245" lon="10.780666097094159"><ele>60.0</ele><time>2026-04-20T14:12:05Z</time></trkpt><trkpt lat="43.35643040963486" lon="10.780407471625246"><ele>60.0</ele><time>2026-04-20T14:12:06Z</time></trkpt><trkpt lat="43.35642543973739" lon="10.780147427967696"><ele>60.0</ele><time>2026-04-20T14:12:07Z</time></trkpt><trkpt lat="43.35642099525059" lon="10.779889548004856"><ele>60.0</ele><time>2026-04-20T14:12:08Z</time></trkpt><trkpt lat="43.35641664917545" lon="10.77963010896424"><ele>60.0</ele><time>2026-04-20T14:12:09Z</time></trkpt><trkpt lat="43.35640713152153" lon="10.779379164761288"><ele>60.0</ele><time>2026-04-20T14:12:10Z</time></trkpt><trkpt lat="43.35639203097752" lon="10.779141517763112"><ele>60.0</ele><time>2026-04-20T14:12:11Z</time></trkpt><trkpt lat="43.356369273444436" lon="10.77889852587621"><ele>59.33333333333333</ele><time>2026-04-20T14:12:12Z</time></trkpt><trkpt lat="43.35633863387342" lon="10.778658736822804"><ele>58.666666666666664</ele><time>2026-04-20T14:12:13Z</time></trkpt><trkpt lat="43.356294271772754" lon="10.778419960285689"><ele>58.0</ele><time>2026-04-20T14:12:14Z</time></trkpt><trkpt lat="43.35623713857036" lon="10.778192802597172"><ele>58.0</ele><time>2026-04-20T14:12:15Z</time></trkpt><trkpt lat="43.35616769753701" lon="10.777984816616057"><ele>58.0</ele><time>2026-04-20T14:12:16Z</time></trkpt><trkpt lat="43.35608459919969" lon="10.777781226413108"><ele>58.0</ele><time>2026-04-20T14:12:17Z</time></trkpt><trkpt lat="43.3559931457079" lon="10.777582311621407"><ele>59.33333333333333</ele><time>2026-04-20T14:12:18Z</time></trkpt><trkpt lat="43.355897189277975" lon="10.777401083313631"><ele>60.66666666666667</ele><time>2026-04-20T14:12:19Z</time></trkpt><trkpt lat="43.35579301802171" lon="10.777228927079465"><ele>62.0</ele><time>2026-04-20T14:12:20Z</time></trkpt><trkpt lat="43.35567979978463" lon="10.777075852197216"><ele>62.0</ele><time>2026-04-20T14:12:21Z</time></trkpt><trkpt lat="43.35555635849441" lon="10.77693529543491"><ele>62.0</ele><time>2026-04-20T14:12:22Z</time></trkpt><trkpt lat="43.35542764449805" lon="10.776802114632689"><ele>62.0</ele><time>2026-04-20T14:12:23Z</time></trkpt><trkpt lat="43.35529114329104" lon="10.776683079450873"><ele>61.25</ele><time>2026-04-20T14:12:24Z</time></trkpt><trkpt lat="43.35515437736238" lon="10.776594843855031"><ele>60.5</ele><time>2026-04-20T14:12:25Z</time></trkpt><trkpt lat="43.355024009077226" lon="10.776513776719998"><ele>59.75</ele><time>2026-04-20T14:12:26Z</time></trkpt><trkpt lat="43.354904989834644" lon="10.776446553063488"><ele>59.0</ele><time>2026-04-20T14:12:27Z</time></trkpt><trkpt lat="43.354798263295905" lon="10.776383010467502"><ele>59.0</ele><time>2026-04-20T14:12:28Z</time></trkpt><trkpt lat="43.35471389497183" lon="10.776330376481798"><ele>59.00000000000001</ele><time>2026-04-20T14:12:29Z</time></trkpt><trkpt lat="43.354647251459504" lon="10.776288530675407"><ele>59.00000000000001</ele><time>2026-04-20T14:12:30Z</time></trkpt><trkpt lat="43.354586641822266" lon="10.776250551471863"><ele>59.0</ele><time>2026-04-20T14:12:31Z</time></trkpt><trkpt lat="43.35448942577504" lon="10.776191828617993"><ele>59.0</ele><time>2026-04-20T14:12:33Z</time></trkpt><trkpt lat="43.35438546150642" lon="10.776133572665021"><ele>59.2</ele><time>2026-04-20T14:12:35Z</time></trkpt><trkpt lat="43.354318631085356" lon="10.776096380138508"><ele>59.400000000000006</ele><time>2026-04-20T14:12:36Z</time></trkpt><trkpt lat="43.3542406591822" lon="10.77604230062403"><ele>59.6</ele><time>2026-04-20T14:12:37Z</time></trkpt><trkpt lat="43.35415530711596" lon="10.775984512856699"><ele>59.8</ele><time>2026-04-20T14:12:38Z</time></trkpt><trkpt lat="43.35405480485912" lon="10.775924097553371"><ele>60.0</ele><time>2026-04-20T14:12:39Z</time></trkpt><trkpt lat="43.35394719177967" lon="10.775849879918601"><ele>59.0</ele><time>2026-04-20T14:12:40Z</time></trkpt><trkpt lat="43.353839932771336" lon="10.775747802097294"><ele>58.0</ele><time>2026-04-20T14:12:41Z</time></trkpt><trkpt lat="43.353733910441306" lon="10.775640479598417"><ele>57.0</ele><time>2026-04-20T14:12:42Z</time></trkpt><trkpt lat="43.35363277152883" lon="10.775512614874792"><ele>56.0</ele><time>2026-04-20T14:12:43Z</time></trkpt><trkpt lat="43.35353090188718" lon="10.775370457197724"><ele>56.0</ele><time>2026-04-20T14:12:44Z</time></trkpt><trkpt lat="43.353435443654604" lon="10.775213602737612"><ele>56.0</ele><time>2026-04-20T14:12:45Z</time></trkpt><trkpt lat="43.35333981994574" lon="10.775043309652252"><ele>56.0</ele><time>2026-04-20T14:12:46Z</time></trkpt><trkpt lat="43.35323881840026" lon="10.774867565653205"><ele>56.333333333333336</ele><time>2026-04-20T14:12:47Z</time></trkpt><trkpt lat="43.35313618093821" lon="10.774689638102867"><ele>56.66666666666667</ele><time>2026-04-20T14:12:48Z</time></trkpt><trkpt lat="43.353036612488566" lon="10.774518956896076"><ele>57.0</ele><time>2026-04-20T14:12:49Z</time></trkpt><trkpt lat="43.3529413704469" lon="10.774354928730219"><ele>56.66666666666667</ele><time>2026-04-20T14:12:50Z</time></trkpt><trkpt lat="43.35285259075753" lon="10.774191800887468"><ele>56.333333333333336</ele><time>2026-04-20T14:12:51Z</time></trkpt><trkpt lat="43.35275386821024" lon="10.774033716531198"><ele>56.0</ele><time>2026-04-20T14:12:52Z</time></trkpt><trkpt lat="43.35265178255116" lon="10.773863870699538"><ele>56.0</ele><time>2026-04-20T14:12:53Z</time></trkpt><trkpt lat="43.352549132530754" lon="10.773689277202156"><ele>56.0</ele><time>2026-04-20T14:12:54Z</time></trkpt><trkpt lat="43.352443719616055" lon="10.773508012960255"><ele>56.0</ele><time>2026-04-20T14:12:55Z</time></trkpt><trkpt lat="43.35233548784295" lon="10.77332527469796"><ele>56.333333333333336</ele><time>2026-04-20T14:12:56Z</time></trkpt><trkpt lat="43.35223051311501" lon="10.773132384472834"><ele>56.66666666666667</ele><time>2026-04-20T14:12:57Z</time></trkpt><trkpt lat="43.35211840378901" lon="10.772940695272633"><ele>57.0</ele><time>2026-04-20T14:12:58Z</time></trkpt><trkpt lat="43.3520081799386" lon="10.772743583298045"><ele>56.33333333333333</ele><time>2026-04-20T14:12:59Z</time></trkpt><trkpt lat="43.351895460495044" lon="10.772552207923567"><ele>55.666666666666664</ele><time>2026-04-20T14:13:00Z</time></trkpt><trkpt lat="43.35178273519301" lon="10.772357111975092"><ele>55.0</ele><time>2026-04-20T14:13:01Z</time></trkpt><trkpt lat="43.351668929043704" lon="10.772160908817611"><ele>55.0</ele><time>2026-04-20T14:13:02Z</time></trkpt><trkpt lat="43.351553359874295" lon="10.771962701941035"><ele>55.0</ele><time>2026-04-20T14:13:03Z</time></trkpt><trkpt lat="43.35143775261972" lon="10.771764807881793"><ele>55.0</ele><time>2026-04-20T14:13:04Z</time></trkpt><trkpt lat="43.3513221665124" lon="10.771568026106367"><ele>54.666666666666664</ele><time>2026-04-20T14:13:05Z</time></trkpt><trkpt lat="43.35120669250962" lon="10.771365499407374"><ele>54.33333333333333</ele><time>2026-04-20T14:13:06Z</time></trkpt><trkpt lat="43.35108829997209" lon="10.771168441847532"><ele>54.0</ele><time>2026-04-20T14:13:07Z</time></trkpt><trkpt lat="43.35097030460569" lon="10.770972427534446"><ele>55.0</ele><time>2026-04-20T14:13:08Z</time></trkpt><trkpt lat="43.350857172814784" lon="10.770773185846146"><ele>56.0</ele><time>2026-04-20T14:13:09Z</time></trkpt><trkpt lat="43.350748727758166" lon="10.770571109926623"><ele>57.0</ele><time>2026-04-20T14:13:10Z</time></trkpt><trkpt lat="43.350644255238635" lon="10.770361381381903"><ele>56.66666666666667</ele><time>2026-04-20T14:13:11Z</time></trkpt><trkpt lat="43.350534019165956" lon="10.770152624185446"><ele>56.333333333333336</ele><time>2026-04-20T14:13:12Z</time></trkpt><trkpt lat="43.35042127454227" lon="10.769938786528488"><ele>56.0</ele><time>2026-04-20T14:13:13Z</time></trkpt><trkpt lat="43.350314499649414" lon="10.769727199004349"><ele>56.0</ele><time>2026-04-20T14:13:14Z</time></trkpt><trkpt lat="43.350215594549624" lon="10.76953173673571"><ele>56.0</ele><time>2026-04-20T14:13:15Z</time></trkpt><trkpt lat="43.35011698299357" lon="10.769338470477589"><ele>56.0</ele><time>2026-04-20T14:13:16Z</time></trkpt><trkpt lat="43.35001721197252" lon="10.76913992526744"><ele>56.0</ele><time>2026-04-20T14:13:17Z</time></trkpt><trkpt lat="43.34992338097891" lon="10.768949472493945"><ele>56.0</ele><time>2026-04-20T14:13:18Z</time></trkpt><trkpt lat="43.34983425572556" lon="10.768758743013192"><ele>56.0</ele><time>2026-04-20T14:13:19Z</time></trkpt><trkpt lat="43.349747946877905" lon="10.768560583431844"><ele>55.66666666666667</ele><time>2026-04-20T14:13:20Z</time></trkpt><trkpt lat="43.349669842105854" lon="10.768355829221463"><ele>55.33333333333333</ele><time>2026-04-20T14:13:21Z</time></trkpt><trkpt lat="43.34961060303703" lon="10.768140770995117"><ele>55.0</ele><time>2026-04-20T14:13:22Z</time></trkpt><trkpt lat="43.34956373609888" lon="10.7679433381478"><ele>55.0</ele><time>2026-04-20T14:13:23Z</time></trkpt><trkpt lat="43.349532115187756" lon="10.767760587673594"><ele>55.0</ele><time>2026-04-20T14:13:24Z</time></trkpt><trkpt lat="43.34950692604081" lon="10.767601404987701"><ele>55.0</ele><time>2026-04-20T14:13:25Z</time></trkpt><trkpt lat="43.349490810634876" lon="10.76745765070949"><ele>55.0</ele><time>2026-04-20T14:13:26Z</time></trkpt><trkpt lat="43.34948207921664" lon="10.767332372622942"><ele>54.99999999999999</ele><time>2026-04-20T14:13:27Z</time></trkpt><trkpt lat="43.34948127568334" lon="10.767219039672945"><ele>55.0</ele><time>2026-04-20T14:13:28Z</time></trkpt><trkpt lat="43.34948408662565" lon="10.767112957048674"><ele>55.0</ele><time>2026-04-20T14:13:29Z</time></trkpt><trkpt lat="43.3494926305179" lon="10.767008113093082"><ele>55.0</ele><time>2026-04-20T14:13:30Z</time></trkpt><trkpt lat="43.34950427747682" lon="10.766892647411465"><ele>54.99999999999999</ele><time>2026-04-20T14:13:31Z</time></trkpt><trkpt lat="43.34951252728221" lon="10.766765243514204"><ele>55.0</ele><time>2026-04-20T14:13:32Z</time></trkpt><trkpt lat="43.34950501986443" lon="10.766631113434388"><ele>55.25</ele><time>2026-04-20T14:13:33Z</time></trkpt><trkpt lat="43.349481605370165" lon="10.766489881021673"><ele>55.5</ele><time>2026-04-20T14:13:34Z</time></trkpt><trkpt lat="43.34943295572052" lon="10.76633914531779"><ele>55.75</ele><time>2026-04-20T14:13:35Z</time></trkpt><trkpt lat="43.34936227856868" lon="10.766193852598379"><ele>56.0</ele><time>2026-04-20T14:13:36Z</time></trkpt><trkpt lat="43.34927356198988" lon="10.76605275052367"><ele>57.25</ele><time>2026-04-20T14:13:37Z</time></trkpt><trkpt lat="43.349176244445864" lon="10.76591199886884"><ele>58.5</ele><time>2026-04-20T14:13:38Z</time></trkpt><trkpt lat="43.34908040312269" lon="10.765769412068023"><ele>59.75</ele><time>2026-04-20T14:13:39Z</time></trkpt><trkpt lat="43.34898036619778" lon="10.765622121788956"><ele>61.0</ele><time>2026-04-20T14:13:40Z</time></trkpt><trkpt lat="43.348881942529744" lon="10.765463235126418"><ele>60.666666666666664</ele><time>2026-04-20T14:13:41Z</time></trkpt><trkpt lat="43.348788431907344" lon="10.765298460016753"><ele>60.33333333333333</ele><time>2026-04-20T14:13:42Z</time></trkpt><trkpt lat="43.34869845459721" lon="10.765125759416373"><ele>60.0</ele><time>2026-04-20T14:13:43Z</time></trkpt><trkpt lat="43.348612631997035" lon="10.764944819603418"><ele>60.0</ele><time>2026-04-20T14:13:44Z</time></trkpt><trkpt lat="43.34853637765728" lon="10.764747922623753"><ele>60.0</ele><time>2026-04-20T14:13:45Z</time></trkpt><trkpt lat="43.34846688996803" lon="10.764546138505242"><ele>60.0</ele><time>2026-04-20T14:13:46Z</time></trkpt><trkpt lat="43.34840572923948" lon="10.764338597289575"><ele>61.66666666666667</ele><time>2026-04-20T14:13:47Z</time></trkpt><trkpt lat="43.34834174430151" lon="10.764130355165756"><ele>63.333333333333336</ele><time>2026-04-20T14:13:48Z</time></trkpt><trkpt lat="43.34827503817089" lon="10.763920381803658"><ele>65.0</ele><time>2026-04-20T14:13:49Z</time></trkpt><trkpt lat="43.34820753964409" lon="10.763707937113832"><ele>65.66666666666667</ele><time>2026-04-20T14:13:50Z</time></trkpt><trkpt lat="43.34814119547859" lon="10.76350171396652"><ele>66.33333333333333</ele><time>2026-04-20T14:13:51Z</time></trkpt><trkpt lat="43.348071493349025" lon="10.763288701135538"><ele>67.0</ele><time>2026-04-20T14:13:52Z</time></trkpt><trkpt lat="43.34800321421238" lon="10.763069884464985"><ele>64.33333333333333</ele><time>2026-04-20T14:13:53Z</time></trkpt><trkpt lat="43.347936850294474" lon="10.76285060538325"><ele>61.66666666666667</ele><time>2026-04-20T14:13:54Z</time></trkpt><trkpt lat="43.347872026704074" lon="10.762626218846217"><ele>59.0</ele><time>2026-04-20T14:13:55Z</time></trkpt><trkpt lat="43.34781244375445" lon="10.762396156598824"><ele>59.0</ele><time>2026-04-20T14:13:56Z</time></trkpt><trkpt lat="43.34775977991006" lon="10.762157236874918"><ele>59.0</ele><time>2026-04-20T14:13:57Z</time></trkpt><trkpt lat="43.34771931814386" lon="10.761911288809644"><ele>59.0</ele><time>2026-04-20T14:13:58Z</time></trkpt><trkpt lat="43.347687425788635" lon="10.76165924413842"><ele>59.0</ele><time>2026-04-20T14:13:59Z</time></trkpt><trkpt lat="43.34766030471617" lon="10.761403619027748"><ele>59.0</ele><time>2026-04-20T14:14:00Z</time></trkpt><trkpt lat="43.34763527610071" lon="10.761157125073714"><ele>59.0</ele><time>2026-04-20T14:14:01Z</time></trkpt><trkpt lat="43.347608284783846" lon="10.760913115902566"><ele>58.66666666666667</ele><time>2026-04-20T14:14:02Z</time></trkpt><trkpt lat="43.347580566996676" lon="10.760665523202304"><ele>58.33333333333333</ele><time>2026-04-20T14:14:03Z</time></trkpt><trkpt lat="43.34755107360687" lon="10.760416461732888"><ele>58.0</ele><time>2026-04-20T14:14:04Z</time></trkpt><trkpt lat="43.34751368728321" lon="10.7601726779338"><ele>57.33333333333333</ele><time>2026-04-20T14:14:05Z</time></trkpt><trkpt lat="43.34746239603667" lon="10.759929995896394"><ele>56.66666666666667</ele><time>2026-04-20T14:14:06Z</time></trkpt><trkpt lat="43.347392021126126" lon="10.759694297324323"><ele>56.0</ele><time>2026-04-20T14:14:07Z</time></trkpt><trkpt lat="43.347312263128835" lon="10.759462215761701"><ele>56.333333333333336</ele><time>2026-04-20T14:14:08Z</time></trkpt><trkpt lat="43.34721944508111" lon="10.759238855189711"><ele>56.66666666666667</ele><time>2026-04-20T14:14:09Z</time></trkpt><trkpt lat="43.34711844482805" lon="10.75902551703777"><ele>57.0</ele><time>2026-04-20T14:14:10Z</time></trkpt><trkpt lat="43.347007579008924" lon="10.758811369121576"><ele>57.0</ele><time>2026-04-20T14:14:11Z</time></trkpt><trkpt lat="43.346893485309636" lon="10.758605120382175"><ele>57.0</ele><time>2026-04-20T14:14:12Z</time></trkpt><trkpt lat="43.346780423202034" lon="10.758394693487897"><ele>57.0</ele><time>2026-04-20T14:14:13Z</time></trkpt><trkpt lat="43.346668030140606" lon="10.758179329921438"><ele>57.0</ele><time>2026-04-20T14:14:14Z</time></trkpt><trkpt lat="43.34655296117658" lon="10.75796395167366"><ele>57.0</ele><time>2026-04-20T14:14:15Z</time></trkpt><trkpt lat="43.34643710810652" lon="10.757743632592344"><ele>57.0</ele><time>2026-04-20T14:14:16Z</time></trkpt><trkpt lat="43.34631871329322" lon="10.757527875968412"><ele>57.0</ele><time>2026-04-20T14:14:17Z</time></trkpt><trkpt lat="43.346208238350584" lon="10.75732557505701"><ele>57.0</ele><time>2026-04-20T14:14:18Z</time></trkpt><trkpt lat="43.34608909043627" lon="10.757126099334505"><ele>57.0</ele><time>2026-04-20T14:14:19Z</time></trkpt><trkpt lat="43.34596522683615" lon="10.756933508179396"><ele>57.0</ele><time>2026-04-20T14:14:20Z</time></trkpt><trkpt lat="43.34583820268039" lon="10.756749923966277"><ele>57.0</ele><time>2026-04-20T14:14:21Z</time></trkpt><trkpt lat="43.34571474801481" lon="10.756585534879425"><ele>57.0</ele><time>2026-04-20T14:14:22Z</time></trkpt><trkpt lat="43.34560106928823" lon="10.756443417629264"><ele>56.75</ele><time>2026-04-20T14:14:23Z</time></trkpt><trkpt lat="43.34549769850212" lon="10.756318217362832"><ele>56.5</ele><time>2026-04-20T14:14:24Z</time></trkpt><trkpt lat="43.345407588819796" lon="10.75620779403232"><ele>56.25</ele><time>2026-04-20T14:14:25Z</time></trkpt><trkpt lat="43.34533289327461" lon="10.756111041916043"><ele>56.0</ele><time>2026-04-20T14:14:26Z</time></trkpt><trkpt lat="43.34526806284567" lon="10.756025649833875"><ele>56.00000000000001</ele><time>2026-04-20T14:14:27Z</time></trkpt><trkpt lat="43.34521682055782" lon="10.755953302558938"><ele>56.0</ele><time>2026-04-20T14:14:28Z</time></trkpt><trkpt lat="43.34517971276654" lon="10.755816366927968"><ele>56.0</ele><time>2026-04-20T14:14:30Z</time></trkpt><trkpt lat="43.34522361034398" lon="10.75566288809079"><ele>56.0</ele><time>2026-04-20T14:14:32Z</time></trkpt><trkpt lat="43.34525635129289" lon="10.755576206190913"><ele>56.00000000000001</ele><time>2026-04-20T14:14:33Z</time></trkpt><trkpt lat="43.34527824646222" lon="10.755481801622393"><ele>56.0</ele><time>2026-04-20T14:14:34Z</time></trkpt><trkpt lat="43.345279063431676" lon="10.755348644623242"><ele>56.00000000000001</ele><time>2026-04-20T14:14:36Z</time></trkpt><trkpt lat="43.3452158380863" lon="10.755247775762736"><ele>56.0</ele><time>2026-04-20T14:14:38Z</time></trkpt><trkpt lat="43.345154627039626" lon="10.755202904079614"><ele>56.0</ele><time>2026-04-20T14:14:39Z</time></trkpt><trkpt lat="43.34508420578613" lon="10.75514305799899"><ele>56.0</ele><time>2026-04-20T14:14:40Z</time></trkpt><trkpt lat="43.3450180520109" lon="10.75506952886739"><ele>56.00000000000001</ele><time>2026-04-20T14:14:41Z</time></trkpt><trkpt lat="43.34496394910485" lon="10.754979814291703"><ele>56.0</ele><time>2026-04-20T14:14:42Z</time></trkpt><trkpt lat="43.34491868062447" lon="10.754871304931557"><ele>56.0</ele><time>2026-04-20T14:14:43Z</time></trkpt><trkpt lat="43.34488634319483" lon="10.75474594699879"><ele>56.0</ele><time>2026-04-20T14:14:44Z</time></trkpt><trkpt lat="43.34485135909118" lon="10.754605621727105"><ele>56.0</ele><time>2026-04-20T14:14:45Z</time></trkpt><trkpt lat="43.34481153185541" lon="10.754452219690242"><ele>56.0</ele><time>2026-04-20T14:14:46Z</time></trkpt><trkpt lat="43.34476905372646" lon="10.754285698808228"><ele>56.25</ele><time>2026-04-20T14:14:47Z</time></trkpt><trkpt lat="43.34471715724035" lon="10.754110218567693"><ele>56.5</ele><time>2026-04-20T14:14:48Z</time></trkpt><trkpt lat="43.34464787198157" lon="10.75393071747707"><ele>56.75</ele><time>2026-04-20T14:14:49Z</time></trkpt><trkpt lat="43.34456964241422" lon="10.753755276678936"><ele>57.0</ele><time>2026-04-20T14:14:50Z</time></trkpt><trkpt lat="43.344473683214055" lon="10.75357876022879"><ele>57.0</ele><time>2026-04-20T14:14:51Z</time></trkpt><trkpt lat="43.3443687788649" lon="10.75340218204028"><ele>57.0</ele><time>2026-04-20T14:14:52Z</time></trkpt><trkpt lat="43.34425087747237" lon="10.753233420462509"><ele>57.0</ele><time>2026-04-20T14:14:53Z</time></trkpt><trkpt lat="43.34413150934505" lon="10.753061191206692"><ele>57.0</ele><time>2026-04-20T14:14:54Z</time></trkpt><trkpt lat="43.344011656958315" lon="10.752887848906767"><ele>57.0</ele><time>2026-04-20T14:14:55Z</time></trkpt><trkpt lat="43.34389340795298" lon="10.752715449840125"><ele>57.0</ele><time>2026-04-20T14:14:56Z</time></trkpt><trkpt lat="43.343776953540534" lon="10.752538636983012"><ele>56.66666666666667</ele><time>2026-04-20T14:14:57Z</time></trkpt><trkpt lat="43.343655731491424" lon="10.752359079121872"><ele>56.333333333333336</ele><time>2026-04-20T14:14:58Z</time></trkpt><trkpt lat="43.34353384782934" lon="10.752179913231432"><ele>56.0</ele><time>2026-04-20T14:14:59Z</time></trkpt><trkpt lat="43.343407654070404" lon="10.752000709142091"><ele>56.333333333333336</ele><time>2026-04-20T14:15:00Z</time></trkpt><trkpt lat="43.34328305572979" lon="10.751816116711565"><ele>56.66666666666667</ele><time>2026-04-20T14:15:01Z</time></trkpt><trkpt lat="43.343155634699585" lon="10.751632553683779"><ele>57.0</ele><time>2026-04-20T14:15:02Z</time></trkpt><trkpt lat="43.343026357172754" lon="10.751444665467433"><ele>56.66666666666667</ele><time>2026-04-20T14:15:03Z</time></trkpt><trkpt lat="43.34289855009857" lon="10.75125535905057"><ele>56.333333333333336</ele><time>2026-04-20T14:15:04Z</time></trkpt><trkpt lat="43.342769661715394" lon="10.75106555873372"><ele>56.0</ele><time>2026-04-20T14:15:05Z</time></trkpt><trkpt lat="43.342639853464576" lon="10.750876489636719"><ele>56.0</ele><time>2026-04-20T14:15:06Z</time></trkpt><trkpt lat="43.342508478679896" lon="10.750685707387287"><ele>56.0</ele><time>2026-04-20T14:15:07Z</time></trkpt><trkpt lat="43.342378409125025" lon="10.750499592350186"><ele>56.0</ele><time>2026-04-20T14:15:08Z</time></trkpt><trkpt lat="43.34225054479702" lon="10.750314071608253"><ele>55.66666666666667</ele><time>2026-04-20T14:15:09Z</time></trkpt><trkpt lat="43.34212240071734" lon="10.750128924136698"><ele>55.33333333333333</ele><time>2026-04-20T14:15:10Z</time></trkpt><trkpt lat="43.34199376584931" lon="10.74993893443141"><ele>55.0</ele><time>2026-04-20T14:15:11Z</time></trkpt><trkpt lat="43.34186755947317" lon="10.749753298423375"><ele>55.0</ele><time>2026-04-20T14:15:12Z</time></trkpt><trkpt lat="43.34174403967309" lon="10.749574635302377"><ele>55.0</ele><time>2026-04-20T14:15:13Z</time></trkpt><trkpt lat="43.34162263071816" lon="10.749407911375183"><ele>55.0</ele><time>2026-04-20T14:15:14Z</time></trkpt><trkpt lat="43.341501718586464" lon="10.749256147819947"><ele>54.666666666666664</ele><time>2026-04-20T14:15:15Z</time></trkpt><trkpt lat="43.34137277048898" lon="10.749122596029341"><ele>54.33333333333333</ele><time>2026-04-20T14:15:16Z</time></trkpt><trkpt lat="43.341233871373376" lon="10.748995848607434"><ele>54.0</ele><time>2026-04-20T14:15:17Z</time></trkpt><trkpt lat="43.34108693037928" lon="10.748871492888709"><ele>54.0</ele><time>2026-04-20T14:15:18Z</time></trkpt><trkpt lat="43.34093745357445" lon="10.74874730786137"><ele>54.0</ele><time>2026-04-20T14:15:19Z</time></trkpt><trkpt lat="43.3407862600241" lon="10.74862723187368"><ele>54.0</ele><time>2026-04-20T14:15:20Z</time></trkpt><trkpt lat="43.34062410145875" lon="10.74851477330069"><ele>54.33333333333333</ele><time>2026-04-20T14:15:21Z</time></trkpt><trkpt lat="43.34046010158991" lon="10.748415430069347"><ele>54.666666666666664</ele><time>2026-04-20T14:15:22Z</time></trkpt><trkpt lat="43.34028889466206" lon="10.748322414711724"><ele>55.0</ele><time>2026-04-20T14:15:23Z</time></trkpt><trkpt lat="43.3401133982545" lon="10.7482376906647"><ele>55.0</ele><time>2026-04-20T14:15:24Z</time></trkpt><trkpt lat="43.339945485644314" lon="10.748147891889028"><ele>55.0</ele><time>2026-04-20T14:15:25Z</time></trkpt><trkpt lat="43.3397848236931" lon="10.748069828080803"><ele>55.0</ele><time>2026-04-20T14:15:26Z</time></trkpt><trkpt lat="43.3396173080223" lon="10.748003045168879"><ele>55.0</ele><time>2026-04-20T14:15:27Z</time></trkpt><trkpt lat="43.33945512014093" lon="10.747941490664195"><ele>55.0</ele><time>2026-04-20T14:15:28Z</time></trkpt><trkpt lat="43.33930341846395" lon="10.747889135306561"><ele>55.0</ele><time>2026-04-20T14:15:29Z</time></trkpt><trkpt lat="43.33914979741822" lon="10.747834562389345"><ele>55.0</ele><time>2026-04-20T14:15:30Z</time></trkpt><trkpt lat="43.338990692940236" lon="10.747795271808119"><ele>55.0</ele><time>2026-04-20T14:15:31Z</time></trkpt><trkpt lat="43.3388242679495" lon="10.747775835557475"><ele>55.0</ele><time>2026-04-20T14:15:32Z</time></trkpt><trkpt lat="43.33865204040733" lon="10.74777261494991"><ele>54.0</ele><time>2026-04-20T14:15:33Z</time></trkpt><trkpt lat="43.33847917449895" lon="10.74778371320069"><ele>53.0</ele><time>2026-04-20T14:15:34Z</time></trkpt><trkpt lat="43.33830393546877" lon="10.747798035272899"><ele>52.0</ele><time>2026-04-20T14:15:35Z</time></trkpt><trkpt lat="43.33812665674188" lon="10.747810257036319"><ele>52.33333333333333</ele><time>2026-04-20T14:15:36Z</time></trkpt><trkpt lat="43.337965460422765" lon="10.747808299798493"><ele>52.66666666666667</ele><time>2026-04-20T14:15:37Z</time></trkpt><trkpt lat="43.337808585156004" lon="10.74780282511888"><ele>53.0</ele><time>2026-04-20T14:15:38Z</time></trkpt><trkpt lat="43.337655842145466" lon="10.747782241870855"><ele>53.0</ele><time>2026-04-20T14:15:39Z</time></trkpt><trkpt lat="43.337522485215196" lon="10.747749496051885"><ele>53.0</ele><time>2026-04-20T14:15:40Z</time></trkpt><trkpt lat="43.337402059412454" lon="10.747696307988313"><ele>53.0</ele><time>2026-04-20T14:15:41Z</time></trkpt><trkpt lat="43.337276480390855" lon="10.747634162257224"><ele>53.0</ele><time>2026-04-20T14:15:42Z</time></trkpt><trkpt lat="43.337161826876574" lon="10.747529239700702"><ele>53.75</ele><time>2026-04-20T14:15:43Z</time></trkpt><trkpt lat="43.33705217123873" lon="10.747408090766946"><ele>54.5</ele><time>2026-04-20T14:15:44Z</time></trkpt><trkpt lat="43.336942780210094" lon="10.74727549899545"><ele>55.25</ele><time>2026-04-20T14:15:45Z</time></trkpt><trkpt lat="43.33683043986209" lon="10.74713307348535"><ele>56.0</ele><time>2026-04-20T14:15:46Z</time></trkpt><trkpt lat="43.33671449554687" lon="10.746996140977625"><ele>55.5</ele><time>2026-04-20T14:15:47Z</time></trkpt><trkpt lat="43.33660390207516" lon="10.746865218436449"><ele>55.0</ele><time>2026-04-20T14:15:48Z</time></trkpt><trkpt lat="43.33650007436209" lon="10.746731578259789"><ele>54.5</ele><time>2026-04-20T14:15:49Z</time></trkpt><trkpt lat="43.33640620965837" lon="10.746585026075321"><ele>54.0</ele><time>2026-04-20T14:15:50Z</time></trkpt><trkpt lat="43.336324371442885" lon="10.746425312765348"><ele>54.0</ele><time>2026-04-20T14:15:51Z</time></trkpt><trkpt lat="43.336254683669374" lon="10.746260341619445"><ele>54.0</ele><time>2026-04-20T14:15:52Z</time></trkpt><trkpt lat="43.33619917535207" lon="10.746081862637123"><ele>54.0</ele><time>2026-04-20T14:15:53Z</time></trkpt><trkpt lat="43.33614885180537" lon="10.745893849535273"><ele>54.0</ele><time>2026-04-20T14:15:54Z</time></trkpt><trkpt lat="43.336097208241725" lon="10.745700791345545"><ele>54.33333333333333</ele><time>2026-04-20T14:15:55Z</time></trkpt><trkpt lat="43.33604049627323" lon="10.745498928569349"><ele>54.666666666666664</ele><time>2026-04-20T14:15:56Z</time></trkpt><trkpt lat="43.33597878629081" lon="10.745296331995403"><ele>55.0</ele><time>2026-04-20T14:15:57Z</time></trkpt><trkpt lat="43.335922842542246" lon="10.74510722061835"><ele>55.75</ele><time>2026-04-20T14:15:58Z</time></trkpt><trkpt lat="43.33586943024035" lon="10.744928081808457"><ele>56.5</ele><time>2026-04-20T14:15:59Z</time></trkpt><trkpt lat="43.335819504344435" lon="10.744764372767374"><ele>57.25</ele><time>2026-04-20T14:16:00Z</time></trkpt><trkpt lat="43.33577269596191" lon="10.744595152395958"><ele>58.0</ele><time>2026-04-20T14:16:01Z</time></trkpt><trkpt lat="43.33572932442601" lon="10.744442168132293"><ele>57.0</ele><time>2026-04-20T14:16:02Z</time></trkpt><trkpt lat="43.3356824272012" lon="10.744276747669153"><ele>56.0</ele><time>2026-04-20T14:16:03Z</time></trkpt><trkpt lat="43.335637893062476" lon="10.744131024822218"><ele>55.0</ele><time>2026-04-20T14:16:04Z</time></trkpt><trkpt lat="43.33559214408276" lon="10.74399207656861"><ele>54.0</ele><time>2026-04-20T14:16:05Z</time></trkpt><trkpt lat="43.33555276509155" lon="10.743848559198044"><ele>54.0</ele><time>2026-04-20T14:16:06Z</time></trkpt><trkpt lat="43.33551242302293" lon="10.743710212172603"><ele>54.00000000000001</ele><time>2026-04-20T14:16:07Z</time></trkpt><trkpt lat="43.33548022732581" lon="10.743575304771502"><ele>54.00000000000001</ele><time>2026-04-20T14:16:08Z</time></trkpt><trkpt lat="43.33544350221645" lon="10.74345572306449"><ele>54.0</ele><time>2026-04-20T14:16:09Z</time></trkpt><trkpt lat="43.33541224804341" lon="10.743334382582583"><ele>54.0</ele><time>2026-04-20T14:16:10Z</time></trkpt><trkpt lat="43.335395786658076" lon="10.743213505483059"><ele>54.0</ele><time>2026-04-20T14:16:11Z</time></trkpt><trkpt lat="43.33539183855104" lon="10.74308156774576"><ele>54.00000000000001</ele><time>2026-04-20T14:16:12Z</time></trkpt><trkpt lat="43.33539899241834" lon="10.742945477800834"><ele>54.00000000000001</ele><time>2026-04-20T14:16:13Z</time></trkpt><trkpt lat="43.33541782835598" lon="10.742804701738718"><ele>54.0</ele><time>2026-04-20T14:16:14Z</time></trkpt><trkpt lat="43.33544720302422" lon="10.742671145051332"><ele>54.0</ele><time>2026-04-20T14:16:15Z</time></trkpt><trkpt lat="43.33547772143275" lon="10.742547071972822"><ele>54.0</ele><time>2026-04-20T14:16:16Z</time></trkpt><trkpt lat="43.335505652461826" lon="10.742427238768688"><ele>54.00000000000001</ele><time>2026-04-20T14:16:17Z</time></trkpt><trkpt lat="43.33553364764986" lon="10.742297313182384"><ele>54.00000000000001</ele><time>2026-04-20T14:16:18Z</time></trkpt><trkpt lat="43.33556170928286" lon="10.742173704858619"><ele>54.0</ele><time>2026-04-20T14:16:19Z</time></trkpt><trkpt lat="43.335592375676285" lon="10.742037099414445"><ele>54.0</ele><time>2026-04-20T14:16:20Z</time></trkpt><trkpt lat="43.33562135972517" lon="10.741900914680672"><ele>55.400000000000006</ele><time>2026-04-20T14:16:21Z</time></trkpt><trkpt lat="43.33564928613329" lon="10.741764271655383"><ele>56.800000000000004</ele><time>2026-04-20T14:16:22Z</time></trkpt><trkpt lat="43.33567366324408" lon="10.74163899450488"><ele>58.199999999999996</ele><time>2026-04-20T14:16:23Z</time></trkpt><trkpt lat="43.33570032508068" lon="10.741514410767023"><ele>59.599999999999994</ele><time>2026-04-20T14:16:24Z</time></trkpt><trkpt lat="43.33572398958934" lon="10.741387063965247"><ele>61.0</ele><time>2026-04-20T14:16:25Z</time></trkpt><trkpt lat="43.33574735091015" lon="10.74125859940951"><ele>61.0</ele><time>2026-04-20T14:16:26Z</time></trkpt><trkpt lat="43.33577057810497" lon="10.741128956506532"><ele>60.99999999999999</ele><time>2026-04-20T14:16:27Z</time></trkpt><trkpt lat="43.335791178570965" lon="10.74100332438286"><ele>60.99999999999999</ele><time>2026-04-20T14:16:28Z</time></trkpt><trkpt lat="43.335817970561656" lon="10.740869401752388"><ele>61.0</ele><time>2026-04-20T14:16:29Z</time></trkpt><trkpt lat="43.3358444783386" lon="10.740740261843177"><ele>61.0</ele><time>2026-04-20T14:16:30Z</time></trkpt><trkpt lat="43.33587572200134" lon="10.740609446359697"><ele>59.8</ele><time>2026-04-20T14:16:31Z</time></trkpt><trkpt lat="43.33590325524114" lon="10.74048056313874"><ele>58.599999999999994</ele><time>2026-04-20T14:16:32Z</time></trkpt><trkpt lat="43.335927976305804" lon="10.740348092737248"><ele>57.4</ele><time>2026-04-20T14:16:33Z</time></trkpt><trkpt lat="43.3359533535104" lon="10.740221236178483"><ele>56.2</ele><time>2026-04-20T14:16:34Z</time></trkpt><trkpt lat="43.33597950611253" lon="10.740096766391899"><ele>55.0</ele><time>2026-04-20T14:16:35Z</time></trkpt><trkpt lat="43.33600536700827" lon="10.73997164544907"><ele>54.6</ele><time>2026-04-20T14:16:36Z</time></trkpt><trkpt lat="43.33603030632862" lon="10.739852428819399"><ele>54.2</ele><time>2026-04-20T14:16:37Z</time></trkpt><trkpt lat="43.33605690409743" lon="10.739727788013772"><ele>53.8</ele><time>2026-04-20T14:16:38Z</time></trkpt><trkpt lat="43.336086097109025" lon="10.739599465681225"><ele>53.4</ele><time>2026-04-20T14:16:39Z</time></trkpt><trkpt lat="43.336114932802914" lon="10.739468042694297"><ele>53.0</ele><time>2026-04-20T14:16:40Z</time></trkpt><trkpt lat="43.336146538118136" lon="10.739341764814883"><ele>52.599999999999994</ele><time>2026-04-20T14:16:41Z</time></trkpt><trkpt lat="43.336179310417926" lon="10.739215039194027"><ele>52.199999999999996</ele><time>2026-04-20T14:16:42Z</time></trkpt><trkpt lat="43.336212275852226" lon="10.739079385524366"><ele>51.8</ele><time>2026-04-20T14:16:43Z</time></trkpt><trkpt lat="43.33624502561033" lon="10.738939655015107"><ele>51.4</ele><time>2026-04-20T14:16:44Z</time></trkpt><trkpt lat="43.336280592294244" lon="10.738801215759809"><ele>51.0</ele><time>2026-04-20T14:16:45Z</time></trkpt><trkpt lat="43.336320370402426" lon="10.738655948786866"><ele>50.0</ele><time>2026-04-20T14:16:46Z</time></trkpt><trkpt lat="43.33635713264423" lon="10.73849274636725"><ele>49.0</ele><time>2026-04-20T14:16:47Z</time></trkpt><trkpt lat="43.336388978981375" lon="10.738309715056515"><ele>48.0</ele><time>2026-04-20T14:16:48Z</time></trkpt><trkpt lat="43.3364125358433" lon="10.738116198820459"><ele>47.0</ele><time>2026-04-20T14:16:49Z</time></trkpt><trkpt lat="43.336427213107115" lon="10.737915137761462"><ele>51.666666666666664</ele><time>2026-04-20T14:16:50Z</time></trkpt><trkpt lat="43.336438622512624" lon="10.737707683999671"><ele>56.33333333333333</ele><time>2026-04-20T14:16:51Z</time></trkpt><trkpt lat="43.33644284438542" lon="10.73749035929018"><ele>61.0</ele><time>2026-04-20T14:16:52Z</time></trkpt><trkpt lat="43.336441586665586" lon="10.737266172042139"><ele>61.0</ele><time>2026-04-20T14:16:53Z</time></trkpt><trkpt lat="43.33643477076293" lon="10.737040295239948"><ele>61.0</ele><time>2026-04-20T14:16:54Z</time></trkpt><trkpt lat="43.33643023022962" lon="10.73683024310214"><ele>61.0</ele><time>2026-04-20T14:16:55Z</time></trkpt><trkpt lat="43.33642533040024" lon="10.7366128402006"><ele>61.33333333333333</ele><time>2026-04-20T14:16:56Z</time></trkpt><trkpt lat="43.336415663273534" lon="10.73638273070853"><ele>61.66666666666667</ele><time>2026-04-20T14:16:57Z</time></trkpt><trkpt lat="43.3364069744309" lon="10.736161177401891"><ele>62.0</ele><time>2026-04-20T14:16:58Z</time></trkpt><trkpt lat="43.33639523745066" lon="10.735955259019049"><ele>57.333333333333336</ele><time>2026-04-20T14:16:59Z</time></trkpt><trkpt lat="43.33636355616827" lon="10.735742278260858"><ele>52.66666666666667</ele><time>2026-04-20T14:17:00Z</time></trkpt><trkpt lat="43.336309447304224" lon="10.735540244062086"><ele>48.0</ele><time>2026-04-20T14:17:01Z</time></trkpt><trkpt lat="43.33623311035626" lon="10.73534516696434"><ele>49.66666666666667</ele><time>2026-04-20T14:17:02Z</time></trkpt><trkpt lat="43.33614675730089" lon="10.735154654363493"><ele>51.333333333333336</ele><time>2026-04-20T14:17:03Z</time></trkpt><trkpt lat="43.33605736645426" lon="10.734961431617503"><ele>53.0</ele><time>2026-04-20T14:17:04Z</time></trkpt><trkpt lat="43.33596939741583" lon="10.734771481103163"><ele>53.0</ele><time>2026-04-20T14:17:05Z</time></trkpt><trkpt lat="43.335881064441296" lon="10.734585483336257"><ele>53.0</ele><time>2026-04-20T14:17:06Z</time></trkpt><trkpt lat="43.335795030369745" lon="10.734404788549936"><ele>53.0</ele><time>2026-04-20T14:17:07Z</time></trkpt><trkpt lat="43.335708546826744" lon="10.734229277666207"><ele>51.0</ele><time>2026-04-20T14:17:08Z</time></trkpt><trkpt lat="43.335623152151896" lon="10.73405234800734"><ele>49.0</ele><time>2026-04-20T14:17:09Z</time></trkpt><trkpt lat="43.33553833726058" lon="10.733875705404387"><ele>47.0</ele><time>2026-04-20T14:17:10Z</time></trkpt><trkpt lat="43.335453962825085" lon="10.733695526238293"><ele>47.75</ele><time>2026-04-20T14:17:11Z</time></trkpt><trkpt lat="43.335372986332864" lon="10.733509103393098"><ele>48.5</ele><time>2026-04-20T14:17:12Z</time></trkpt><trkpt lat="43.3353148698103" lon="10.733320511882878"><ele>49.25</ele><time>2026-04-20T14:17:13Z</time></trkpt><trkpt lat="43.33523809588058" lon="10.73315682011482"><ele>50.0</ele><time>2026-04-20T14:17:14Z</time></trkpt><trkpt lat="43.335194627587946" lon="10.732983049770814"><ele>50.0</ele><time>2026-04-20T14:17:15Z</time></trkpt><trkpt lat="43.335129658318095" lon="10.732841810557398"><ele>50.0</ele><time>2026-04-20T14:17:16Z</time></trkpt><trkpt lat="43.335083322062225" lon="10.732701256395128"><ele>50.0</ele><time>2026-04-20T14:17:17Z</time></trkpt><trkpt lat="43.33504507618626" lon="10.732545864393108"><ele>50.0</ele><time>2026-04-20T14:17:18Z</time></trkpt><trkpt lat="43.335023924698994" lon="10.732364515537412"><ele>51.25</ele><time>2026-04-20T14:17:19Z</time></trkpt><trkpt lat="43.335022783880945" lon="10.732167676660213"><ele>52.5</ele><time>2026-04-20T14:17:20Z</time></trkpt><trkpt lat="43.335051884500956" lon="10.731961215331653"><ele>53.75</ele><time>2026-04-20T14:17:21Z</time></trkpt><trkpt lat="43.335055243665245" lon="10.731750428160947"><ele>55.0</ele><time>2026-04-20T14:17:22Z</time></trkpt><trkpt lat="43.33507029363071" lon="10.731529431343105"><ele>55.0</ele><time>2026-04-20T14:17:23Z</time></trkpt><trkpt lat="43.33508667061678" lon="10.731316594143182"><ele>55.0</ele><time>2026-04-20T14:17:24Z</time></trkpt><trkpt lat="43.33510449298519" lon="10.731100706291015"><ele>55.0</ele><time>2026-04-20T14:17:25Z</time></trkpt><trkpt lat="43.3351266969483" lon="10.730889426418878"><ele>55.0</ele><time>2026-04-20T14:17:26Z</time></trkpt><trkpt lat="43.33514539437335" lon="10.73068128243977"><ele>55.0</ele><time>2026-04-20T14:17:27Z</time></trkpt><trkpt lat="43.335167852976234" lon="10.73047087663266"><ele>55.0</ele><time>2026-04-20T14:17:28Z</time></trkpt><trkpt lat="43.335193527596736" lon="10.730267801874323"><ele>55.0</ele><time>2026-04-20T14:17:29Z</time></trkpt><trkpt lat="43.33521064661309" lon="10.730061183488765"><ele>55.0</ele><time>2026-04-20T14:17:30Z</time></trkpt><trkpt lat="43.33521809579337" lon="10.729843592556511"><ele>55.0</ele><time>2026-04-20T14:17:31Z</time></trkpt><trkpt lat="43.335207691163326" lon="10.729619515017655"><ele>55.0</ele><time>2026-04-20T14:17:32Z</time></trkpt><trkpt lat="43.335184366254005" lon="10.72939677423942"><ele>55.0</ele><time>2026-04-20T14:17:33Z</time></trkpt><trkpt lat="43.33515721674829" lon="10.729181015150226"><ele>55.0</ele><time>2026-04-20T14:17:34Z</time></trkpt><trkpt lat="43.335123019275386" lon="10.728965804703808"><ele>55.33333333333333</ele><time>2026-04-20T14:17:35Z</time></trkpt><trkpt lat="43.33508919866942" lon="10.728737654587912"><ele>55.66666666666667</ele><time>2026-04-20T14:17:36Z</time></trkpt><trkpt lat="43.335055959776135" lon="10.728498934041063"><ele>56.0</ele><time>2026-04-20T14:17:37Z</time></trkpt><trkpt lat="43.33503066727931" lon="10.728282150892166"><ele>56.333333333333336</ele><time>2026-04-20T14:17:38Z</time></trkpt><trkpt lat="43.33500819646346" lon="10.728066994600397"><ele>56.66666666666667</ele><time>2026-04-20T14:17:39Z</time></trkpt><trkpt lat="43.33498271225998" lon="10.727859691260958"><ele>57.0</ele><time>2026-04-20T14:17:40Z</time></trkpt><trkpt lat="43.33495432126952" lon="10.727663937002673"><ele>57.33333333333333</ele><time>2026-04-20T14:17:41Z</time></trkpt><trkpt lat="43.33492713874779" lon="10.727459454368134"><ele>57.666666666666664</ele><time>2026-04-20T14:17:42Z</time></trkpt><trkpt lat="43.33489770217922" lon="10.727249286914935"><ele>58.0</ele><time>2026-04-20T14:17:43Z</time></trkpt><trkpt lat="43.334866330786305" lon="10.72703867064856"><ele>58.666666666666664</ele><time>2026-04-20T14:17:44Z</time></trkpt><trkpt lat="43.334835431858075" lon="10.72682323757349"><ele>59.33333333333333</ele><time>2026-04-20T14:17:45Z</time></trkpt><trkpt lat="43.334804604062754" lon="10.726606829679676"><ele>60.0</ele><time>2026-04-20T14:17:46Z</time></trkpt><trkpt lat="43.33477909027749" lon="10.726388875911857"><ele>60.0</ele><time>2026-04-20T14:17:47Z</time></trkpt><trkpt lat="43.33474565905771" lon="10.726178908486094"><ele>60.0</ele><time>2026-04-20T14:17:48Z</time></trkpt><trkpt lat="43.334724345279135" lon="10.725978707163067"><ele>60.0</ele><time>2026-04-20T14:17:49Z</time></trkpt><trkpt lat="43.33469278333488" lon="10.725763796803852"><ele>58.25</ele><time>2026-04-20T14:17:50Z</time></trkpt><trkpt lat="43.33466567773484" lon="10.725566055033628"><ele>56.5</ele><time>2026-04-20T14:17:51Z</time></trkpt><trkpt lat="43.33463626745117" lon="10.725379851352981"><ele>54.75</ele><time>2026-04-20T14:17:52Z</time></trkpt><trkpt lat="43.33460926755454" lon="10.725189785288606"><ele>53.0</ele><time>2026-04-20T14:17:53Z</time></trkpt><trkpt lat="43.33454515242967" lon="10.725011818378936"><ele>53.0</ele><time>2026-04-20T14:17:54Z</time></trkpt><trkpt lat="43.334451380938454" lon="10.724857394893554"><ele>53.0</ele><time>2026-04-20T14:17:55Z</time></trkpt><trkpt lat="43.33436544514897" lon="10.724697915011653"><ele>53.0</ele><time>2026-04-20T14:17:56Z</time></trkpt><trkpt lat="43.33427072884668" lon="10.72454049571948"><ele>53.0</ele><time>2026-04-20T14:17:57Z</time></trkpt><trkpt lat="43.33417821680892" lon="10.724386894314453"><ele>54.25</ele><time>2026-04-20T14:17:58Z</time></trkpt><trkpt lat="43.33408944548869" lon="10.724229755179852"><ele>55.5</ele><time>2026-04-20T14:17:59Z</time></trkpt><trkpt lat="43.33401158614581" lon="10.724058387409027"><ele>56.75</ele><time>2026-04-20T14:18:00Z</time></trkpt><trkpt lat="43.333948047804085" lon="10.723867179075738"><ele>58.0</ele><time>2026-04-20T14:18:01Z</time></trkpt><trkpt lat="43.3338972974756" lon="10.723669312568795"><ele>55.33333333333333</ele><time>2026-04-20T14:18:02Z</time></trkpt><trkpt lat="43.333852725707644" lon="10.723469066166036"><ele>52.66666666666667</ele><time>2026-04-20T14:18:03Z</time></trkpt><trkpt lat="43.333809044346346" lon="10.723259053082513"><ele>50.0</ele><time>2026-04-20T14:18:04Z</time></trkpt><trkpt lat="43.33375810038513" lon="10.723049115753115"><ele>50.0</ele><time>2026-04-20T14:18:05Z</time></trkpt><trkpt lat="43.33371262719944" lon="10.722840890715114"><ele>50.0</ele><time>2026-04-20T14:18:06Z</time></trkpt><trkpt lat="43.33366318282565" lon="10.72264293189679"><ele>50.0</ele><time>2026-04-20T14:18:07Z</time></trkpt><trkpt lat="43.333619099111004" lon="10.722443548072496"><ele>50.0</ele><time>2026-04-20T14:18:08Z</time></trkpt><trkpt lat="43.33357414358279" lon="10.72224845471179"><ele>50.0</ele><time>2026-04-20T14:18:09Z</time></trkpt><trkpt lat="43.33352975181347" lon="10.722054286035691"><ele>50.0</ele><time>2026-04-20T14:18:10Z</time></trkpt><trkpt lat="43.333485156382565" lon="10.721862400254176"><ele>50.0</ele><time>2026-04-20T14:18:11Z</time></trkpt><trkpt lat="43.33344383720396" lon="10.721664816252314"><ele>50.0</ele><time>2026-04-20T14:18:12Z</time></trkpt><trkpt lat="43.33340025989506" lon="10.721468430189098"><ele>50.0</ele><time>2026-04-20T14:18:13Z</time></trkpt><trkpt lat="43.3333516847463" lon="10.721264429666224"><ele>50.0</ele><time>2026-04-20T14:18:14Z</time></trkpt><trkpt lat="43.333309619452855" lon="10.721053026726032"><ele>49.66666666666667</ele><time>2026-04-20T14:18:15Z</time></trkpt><trkpt lat="43.33326254145409" lon="10.720834591684255"><ele>49.33333333333333</ele><time>2026-04-20T14:18:16Z</time></trkpt><trkpt lat="43.33321665500689" lon="10.720618582736057"><ele>49.0</ele><time>2026-04-20T14:18:17Z</time></trkpt><trkpt lat="43.33317302158623" lon="10.720405555200117"><ele>49.0</ele><time>2026-04-20T14:18:18Z</time></trkpt><trkpt lat="43.33312551575916" lon="10.720192666710638"><ele>49.0</ele><time>2026-04-20T14:18:19Z</time></trkpt><trkpt lat="43.33307770275218" lon="10.719978556819667"><ele>49.0</ele><time>2026-04-20T14:18:20Z</time></trkpt><trkpt lat="43.33302904251218" lon="10.719760567103533"><ele>48.33333333333333</ele><time>2026-04-20T14:18:21Z</time></trkpt><trkpt lat="43.33298211397282" lon="10.719548255893727"><ele>47.666666666666664</ele><time>2026-04-20T14:18:22Z</time></trkpt><trkpt lat="43.33293341365392" lon="10.719343491539341"><ele>47.0</ele><time>2026-04-20T14:18:23Z</time></trkpt><trkpt lat="43.33288928930089" lon="10.719134558803892"><ele>47.0</ele><time>2026-04-20T14:18:24Z</time></trkpt><trkpt lat="43.3328561777977" lon="10.718923445700291"><ele>47.0</ele><time>2026-04-20T14:18:25Z</time></trkpt><trkpt lat="43.33283303621033" lon="10.718708403948359"><ele>47.0</ele><time>2026-04-20T14:18:26Z</time></trkpt><trkpt lat="43.33281798475354" lon="10.718498132729387"><ele>48.666666666666664</ele><time>2026-04-20T14:18:27Z</time></trkpt><trkpt lat="43.332804241647715" lon="10.718287019532552"><ele>50.33333333333333</ele><time>2026-04-20T14:18:28Z</time></trkpt><trkpt lat="43.33279208629404" lon="10.718069153744832"><ele>52.0</ele><time>2026-04-20T14:18:29Z</time></trkpt><trkpt lat="43.33277812060119" lon="10.717846671457641"><ele>52.33333333333333</ele><time>2026-04-20T14:18:30Z</time></trkpt><trkpt lat="43.33276477045995" lon="10.717623276446593"><ele>52.66666666666667</ele><time>2026-04-20T14:18:31Z</time></trkpt><trkpt lat="43.33275602217527" lon="10.717406277590564"><ele>53.0</ele><time>2026-04-20T14:18:32Z</time></trkpt><trkpt lat="43.33274202297733" lon="10.717183598446349"><ele>53.0</ele><time>2026-04-20T14:18:33Z</time></trkpt><trkpt lat="43.332726049950274" lon="10.716957880927065"><ele>53.0</ele><time>2026-04-20T14:18:34Z</time></trkpt><trkpt lat="43.33270950409834" lon="10.716719716127281"><ele>53.0</ele><time>2026-04-20T14:18:35Z</time></trkpt><trkpt lat="43.332692828158564" lon="10.716481158561074"><ele>53.0</ele><time>2026-04-20T14:18:36Z</time></trkpt><trkpt lat="43.33267498260642" lon="10.716238964091112"><ele>53.0</ele><time>2026-04-20T14:18:37Z</time></trkpt><trkpt lat="43.332657872392105" lon="10.71599121354403"><ele>53.0</ele><time>2026-04-20T14:18:38Z</time></trkpt><trkpt lat="43.33263997202197" lon="10.715737396908626"><ele>53.0</ele><time>2026-04-20T14:18:39Z</time></trkpt><trkpt lat="43.33261900137195" lon="10.715481420083625"><ele>53.0</ele><time>2026-04-20T14:18:40Z</time></trkpt><trkpt lat="43.33259962172112" lon="10.71522372001072"><ele>53.0</ele><time>2026-04-20T14:18:41Z</time></trkpt><trkpt lat="43.332580694117084" lon="10.714961231233785"><ele>50.66666666666667</ele><time>2026-04-20T14:18:42Z</time></trkpt><trkpt lat="43.332561542508955" lon="10.714702270986791"><ele>48.333333333333336</ele><time>2026-04-20T14:18:43Z</time></trkpt><trkpt lat="43.33254080697793" lon="10.714455858355887"><ele>46.0</ele><time>2026-04-20T14:18:44Z</time></trkpt><trkpt lat="43.33252113953778" lon="10.714223753027301"><ele>45.66666666666667</ele><time>2026-04-20T14:18:45Z</time></trkpt><trkpt lat="43.332501391502205" lon="10.713992954369676"><ele>45.333333333333336</ele><time>2026-04-20T14:18:46Z</time></trkpt><trkpt lat="43.332477076296755" lon="10.713768054794441"><ele>45.0</ele><time>2026-04-20T14:18:47Z</time></trkpt><trkpt lat="43.3324622871132" lon="10.713542588071077"><ele>46.0</ele><time>2026-04-20T14:18:48Z</time></trkpt><trkpt lat="43.33241940460126" lon="10.713325357114858"><ele>47.0</ele><time>2026-04-20T14:18:49Z</time></trkpt><trkpt lat="43.33235651203228" lon="10.713111295291755"><ele>48.0</ele><time>2026-04-20T14:18:50Z</time></trkpt><trkpt lat="43.332281986675625" lon="10.712905743235213"><ele>48.0</ele><time>2026-04-20T14:18:51Z</time></trkpt><trkpt lat="43.33217898042272" lon="10.712720413603536"><ele>48.0</ele><time>2026-04-20T14:18:52Z</time></trkpt><trkpt lat="43.33208426760395" lon="10.712524768934772"><ele>48.0</ele><time>2026-04-20T14:18:53Z</time></trkpt><trkpt lat="43.3319807306278" lon="10.712335920254151"><ele>48.0</ele><time>2026-04-20T14:18:54Z</time></trkpt><trkpt lat="43.331869431513994" lon="10.712149822532881"><ele>48.0</ele><time>2026-04-20T14:18:55Z</time></trkpt><trkpt lat="43.33175574263339" lon="10.711963838922207"><ele>48.0</ele><time>2026-04-20T14:18:56Z</time></trkpt><trkpt lat="43.331650135591985" lon="10.71179335114834"><ele>47.75</ele><time>2026-04-20T14:18:57Z</time></trkpt><trkpt lat="43.33155380649076" lon="10.711641367858784"><ele>47.5</ele><time>2026-04-20T14:18:58Z</time></trkpt><trkpt lat="43.33146100023568" lon="10.711495227935647"><ele>47.25</ele><time>2026-04-20T14:18:59Z</time></trkpt><trkpt lat="43.331365686893086" lon="10.711340323112601"><ele>47.0</ele><time>2026-04-20T14:19:00Z</time></trkpt><trkpt lat="43.331272079762535" lon="10.71118734848042"><ele>47.5</ele><time>2026-04-20T14:19:01Z</time></trkpt><trkpt lat="43.331177570265176" lon="10.711039569758452"><ele>48.0</ele><time>2026-04-20T14:19:02Z</time></trkpt><trkpt lat="43.33107778621571" lon="10.7108848557737"><ele>48.5</ele><time>2026-04-20T14:19:03Z</time></trkpt><trkpt lat="43.330980404720194" lon="10.710719869734932"><ele>49.0</ele><time>2026-04-20T14:19:04Z</time></trkpt><trkpt lat="43.33087869545544" lon="10.710551940325075"><ele>49.0</ele><time>2026-04-20T14:19:05Z</time></trkpt><trkpt lat="43.33077646973937" lon="10.710380299558187"><ele>49.0</ele><time>2026-04-20T14:19:06Z</time></trkpt><trkpt lat="43.33067816469207" lon="10.710203836132209"><ele>49.0</ele><time>2026-04-20T14:19:07Z</time></trkpt><trkpt lat="43.33059254741007" lon="10.71001100531187"><ele>48.33333333333333</ele><time>2026-04-20T14:19:08Z</time></trkpt><trkpt lat="43.330515857296966" lon="10.70981051608758"><ele>47.666666666666664</ele><time>2026-04-20T14:19:09Z</time></trkpt><trkpt lat="43.330445631145224" lon="10.709609659068201"><ele>47.0</ele><time>2026-04-20T14:19:10Z</time></trkpt><trkpt lat="43.330381132470684" lon="10.709400186458215"><ele>47.0</ele><time>2026-04-20T14:19:11Z</time></trkpt><trkpt lat="43.33032746938753" lon="10.709182612150501"><ele>47.0</ele><time>2026-04-20T14:19:12Z</time></trkpt><trkpt lat="43.330272974099" lon="10.708960145677489"><ele>47.0</ele><time>2026-04-20T14:19:13Z</time></trkpt><trkpt lat="43.33021410303963" lon="10.708732322033839"><ele>47.666666666666664</ele><time>2026-04-20T14:19:14Z</time></trkpt><trkpt lat="43.33015882927768" lon="10.708509739216035"><ele>48.33333333333333</ele><time>2026-04-20T14:19:15Z</time></trkpt><trkpt lat="43.330106608626586" lon="10.708284773046477"><ele>49.0</ele><time>2026-04-20T14:19:16Z</time></trkpt><trkpt lat="43.33005706617556" lon="10.70806375623101"><ele>49.0</ele><time>2026-04-20T14:19:17Z</time></trkpt><trkpt lat="43.3300083232466" lon="10.707843978239591"><ele>49.0</ele><time>2026-04-20T14:19:18Z</time></trkpt><trkpt lat="43.32995747349847" lon="10.707624309431205"><ele>49.0</ele><time>2026-04-20T14:19:19Z</time></trkpt><trkpt lat="43.32991198739042" lon="10.70740489785553"><ele>50.0</ele><time>2026-04-20T14:19:20Z</time></trkpt><trkpt lat="43.32987681143219" lon="10.707182107739609"><ele>51.0</ele><time>2026-04-20T14:19:21Z</time></trkpt><trkpt lat="43.32985153002483" lon="10.706951068248749"><ele>52.0</ele><time>2026-04-20T14:19:22Z</time></trkpt><trkpt lat="43.32983986996779" lon="10.70672398057246"><ele>53.0</ele><time>2026-04-20T14:19:23Z</time></trkpt><trkpt lat="43.329833574749394" lon="10.7065035011752"><ele>54.0</ele><time>2026-04-20T14:19:24Z</time></trkpt><trkpt lat="43.32983112647691" lon="10.706280347668542"><ele>55.0</ele><time>2026-04-20T14:19:25Z</time></trkpt><trkpt lat="43.329832101418965" lon="10.706057353184546"><ele>55.0</ele><time>2026-04-20T14:19:26Z</time></trkpt><trkpt lat="43.32983555404268" lon="10.705839228704958"><ele>55.0</ele><time>2026-04-20T14:19:27Z</time></trkpt><trkpt lat="43.32983690529871" lon="10.70562345319185"><ele>55.0</ele><time>2026-04-20T14:19:28Z</time></trkpt><trkpt lat="43.32983959329683" lon="10.705403639067685"><ele>53.666666666666664</ele><time>2026-04-20T14:19:29Z</time></trkpt><trkpt lat="43.32983912148847" lon="10.705178346121857"><ele>52.33333333333333</ele><time>2026-04-20T14:19:30Z</time></trkpt><trkpt lat="43.32984199638384" lon="10.704956853663758"><ele>51.0</ele><time>2026-04-20T14:19:31Z</time></trkpt><trkpt lat="43.329839871031034" lon="10.704733413722668"><ele>51.0</ele><time>2026-04-20T14:19:32Z</time></trkpt><trkpt lat="43.32982966624822" lon="10.704508099159698"><ele>51.0</ele><time>2026-04-20T14:19:33Z</time></trkpt><trkpt lat="43.32980292336342" lon="10.704277991396953"><ele>51.0</ele><time>2026-04-20T14:19:34Z</time></trkpt><trkpt lat="43.32976883177029" lon="10.704054358196007"><ele>51.0</ele><time>2026-04-20T14:19:35Z</time></trkpt><trkpt lat="43.329727901565825" lon="10.703833723002226"><ele>51.0</ele><time>2026-04-20T14:19:36Z</time></trkpt><trkpt lat="43.32967577132954" lon="10.703608970071649"><ele>51.0</ele><time>2026-04-20T14:19:37Z</time></trkpt><trkpt lat="43.32961628762065" lon="10.703384839928674"><ele>49.333333333333336</ele><time>2026-04-20T14:19:38Z</time></trkpt><trkpt lat="43.3295588520443" lon="10.703158545777269"><ele>47.66666666666667</ele><time>2026-04-20T14:19:39Z</time></trkpt><trkpt lat="43.32950216882892" lon="10.702933082184796"><ele>46.0</ele><time>2026-04-20T14:19:40Z</time></trkpt><trkpt lat="43.32944413858272" lon="10.702702778003626"><ele>46.0</ele><time>2026-04-20T14:19:41Z</time></trkpt><trkpt lat="43.329391065135994" lon="10.702490953798588"><ele>46.0</ele><time>2026-04-20T14:19:42Z</time></trkpt><trkpt lat="43.329341835775836" lon="10.702294260580885"><ele>46.0</ele><time>2026-04-20T14:19:43Z</time></trkpt><trkpt lat="43.32929287894888" lon="10.702106548206133"><ele>46.0</ele><time>2026-04-20T14:19:44Z</time></trkpt><trkpt lat="43.32924673687433" lon="10.701925180367748"><ele>46.0</ele><time>2026-04-20T14:19:45Z</time></trkpt><trkpt lat="43.32920197897921" lon="10.701740206734447"><ele>46.0</ele><time>2026-04-20T14:19:46Z</time></trkpt><trkpt lat="43.32918584102502" lon="10.701541961960853"><ele>46.0</ele><time>2026-04-20T14:19:47Z</time></trkpt><trkpt lat="43.32915933271304" lon="10.701350184058281"><ele>46.75</ele><time>2026-04-20T14:19:48Z</time></trkpt><trkpt lat="43.32913702900504" lon="10.701148422724426"><ele>47.5</ele><time>2026-04-20T14:19:49Z</time></trkpt><trkpt lat="43.32912285461981" lon="10.700946990557542"><ele>48.25</ele><time>2026-04-20T14:19:50Z</time></trkpt><trkpt lat="43.32912055165277" lon="10.700750024210908"><ele>49.0</ele><time>2026-04-20T14:19:51Z</time></trkpt><trkpt lat="43.32912397383537" lon="10.700556630619364"><ele>49.75</ele><time>2026-04-20T14:19:52Z</time></trkpt><trkpt lat="43.329134095882" lon="10.700356241812893"><ele>50.5</ele><time>2026-04-20T14:19:53Z</time></trkpt><trkpt lat="43.3291524763342" lon="10.70015589719734"><ele>51.25</ele><time>2026-04-20T14:19:54Z</time></trkpt><trkpt lat="43.329179417407616" lon="10.699961859000899"><ele>52.0</ele><time>2026-04-20T14:19:55Z</time></trkpt><trkpt lat="43.329212382494894" lon="10.699773759150416"><ele>52.0</ele><time>2026-04-20T14:19:56Z</time></trkpt><trkpt lat="43.329252548917346" lon="10.699586626911332"><ele>52.0</ele><time>2026-04-20T14:19:57Z</time></trkpt><trkpt lat="43.3292962355283" lon="10.69940237876635"><ele>52.0</ele><time>2026-04-20T14:19:58Z</time></trkpt><trkpt lat="43.32933188934985" lon="10.699207916277244"><ele>52.0</ele><time>2026-04-20T14:19:59Z</time></trkpt><trkpt lat="43.329391877523854" lon="10.699021529159701"><ele>50.0</ele><time>2026-04-20T14:20:00Z</time></trkpt><trkpt lat="43.329459865195055" lon="10.698834399794244"><ele>48.0</ele><time>2026-04-20T14:20:01Z</time></trkpt><trkpt lat="43.32952863312946" lon="10.698640487100239"><ele>46.0</ele><time>2026-04-20T14:20:02Z</time></trkpt><trkpt lat="43.329598097861094" lon="10.698434715255864"><ele>46.333333333333336</ele><time>2026-04-20T14:20:03Z</time></trkpt><trkpt lat="43.32967542658195" lon="10.698228965664029"><ele>46.666666666666664</ele><time>2026-04-20T14:20:04Z</time></trkpt><trkpt lat="43.32974864525962" lon="10.69802334002561"><ele>47.0</ele><time>2026-04-20T14:20:05Z</time></trkpt><trkpt lat="43.32982198353379" lon="10.69781720011646"><ele>45.666666666666664</ele><time>2026-04-20T14:20:06Z</time></trkpt><trkpt lat="43.32989123789228" lon="10.697605749673532"><ele>44.333333333333336</ele><time>2026-04-20T14:20:07Z</time></trkpt><trkpt lat="43.329952816331904" lon="10.697386173084018"><ele>43.0</ele><time>2026-04-20T14:20:08Z</time></trkpt><trkpt lat="43.33002921302216" lon="10.697171066309576"><ele>43.0</ele><time>2026-04-20T14:20:09Z</time></trkpt><trkpt lat="43.33006652421896" lon="10.696938341174441"><ele>43.0</ele><time>2026-04-20T14:20:10Z</time></trkpt><trkpt lat="43.33011326807433" lon="10.696709572324842"><ele>43.0</ele><time>2026-04-20T14:20:11Z</time></trkpt><trkpt lat="43.3301550287699" lon="10.696476282264463"><ele>43.0</ele><time>2026-04-20T14:20:12Z</time></trkpt><trkpt lat="43.33018754187119" lon="10.696238863692077"><ele>43.0</ele><time>2026-04-20T14:20:13Z</time></trkpt><trkpt lat="43.33022080115407" lon="10.695999135720097"><ele>43.0</ele><time>2026-04-20T14:20:14Z</time></trkpt><trkpt lat="43.33024558118306" lon="10.695759580142942"><ele>43.333333333333336</ele><time>2026-04-20T14:20:15Z</time></trkpt><trkpt lat="43.33027280438473" lon="10.695514910226576"><ele>43.666666666666664</ele><time>2026-04-20T14:20:16Z</time></trkpt><trkpt lat="43.33029319869244" lon="10.69527426357407"><ele>44.0</ele><time>2026-04-20T14:20:17Z</time></trkpt><trkpt lat="43.33031037872238" lon="10.695030656345686"><ele>44.0</ele><time>2026-04-20T14:20:18Z</time></trkpt><trkpt lat="43.330314545104365" lon="10.6947872822694"><ele>44.0</ele><time>2026-04-20T14:20:19Z</time></trkpt><trkpt lat="43.330315887334535" lon="10.69455015026826"><ele>44.0</ele><time>2026-04-20T14:20:20Z</time></trkpt><trkpt lat="43.33029562700991" lon="10.694302438460909"><ele>44.666666666666664</ele><time>2026-04-20T14:20:21Z</time></trkpt><trkpt lat="43.33028123468486" lon="10.694062049579369"><ele>45.333333333333336</ele><time>2026-04-20T14:20:22Z</time></trkpt><trkpt lat="43.33025325776616" lon="10.693822399084452"><ele>46.0</ele><time>2026-04-20T14:20:23Z</time></trkpt><trkpt lat="43.330220164720174" lon="10.693587794855917"><ele>46.66666666666667</ele><time>2026-04-20T14:20:24Z</time></trkpt><trkpt lat="43.33018036560435" lon="10.693354290763908"><ele>47.333333333333336</ele><time>2026-04-20T14:20:25Z</time></trkpt><trkpt lat="43.330137154371634" lon="10.693123948955291"><ele>48.0</ele><time>2026-04-20T14:20:26Z</time></trkpt><trkpt lat="43.33009396287391" lon="10.692891326334202"><ele>47.333333333333336</ele><time>2026-04-20T14:20:27Z</time></trkpt><trkpt lat="43.33004845034472" lon="10.69265647330292"><ele>46.66666666666667</ele><time>2026-04-20T14:20:28Z</time></trkpt><trkpt lat="43.33000553872133" lon="10.692442295042527"><ele>46.0</ele><time>2026-04-20T14:20:29Z</time></trkpt><trkpt lat="43.32995790216742" lon="10.69222858113317"><ele>46.0</ele><time>2026-04-20T14:20:30Z</time></trkpt><trkpt lat="43.32990545817403" lon="10.692010065854843"><ele>46.0</ele><time>2026-04-20T14:20:31Z</time></trkpt><trkpt lat="43.32984613150468" lon="10.691786661554422"><ele>46.0</ele><time>2026-04-20T14:20:32Z</time></trkpt><trkpt lat="43.32978332926641" lon="10.691562957199935"><ele>44.333333333333336</ele><time>2026-04-20T14:20:33Z</time></trkpt><trkpt lat="43.32971903955135" lon="10.691356037062768"><ele>42.666666666666664</ele><time>2026-04-20T14:20:34Z</time></trkpt><trkpt lat="43.32964537020137" lon="10.691154619984795"><ele>41.0</ele><time>2026-04-20T14:20:35Z</time></trkpt><trkpt lat="43.329562720962834" lon="10.690948690570881"><ele>41.0</ele><time>2026-04-20T14:20:36Z</time></trkpt><trkpt lat="43.329479039668456" lon="10.690741001346753"><ele>41.0</ele><time>2026-04-20T14:20:37Z</time></trkpt><trkpt lat="43.329395567963154" lon="10.690534426004293"><ele>41.0</ele><time>2026-04-20T14:20:38Z</time></trkpt><trkpt lat="43.32931109089821" lon="10.690322586512522"><ele>41.33333333333333</ele><time>2026-04-20T14:20:39Z</time></trkpt><trkpt lat="43.32922633901614" lon="10.690111034701433"><ele>41.666666666666664</ele><time>2026-04-20T14:20:40Z</time></trkpt><trkpt lat="43.329138799844664" lon="10.6899010897583"><ele>42.0</ele><time>2026-04-20T14:20:41Z</time></trkpt><trkpt lat="43.329051637859145" lon="10.689685712400362"><ele>42.0</ele><time>2026-04-20T14:20:42Z</time></trkpt><trkpt lat="43.32896423928152" lon="10.689470544787419"><ele>42.0</ele><time>2026-04-20T14:20:43Z</time></trkpt><trkpt lat="43.32887988454264" lon="10.68925171171303"><ele>42.0</ele><time>2026-04-20T14:20:44Z</time></trkpt><trkpt lat="43.328798206688404" lon="10.68902874970969"><ele>41.666666666666664</ele><time>2026-04-20T14:20:45Z</time></trkpt><trkpt lat="43.328719503942864" lon="10.688807857093858"><ele>41.33333333333333</ele><time>2026-04-20T14:20:46Z</time></trkpt><trkpt lat="43.32864343039612" lon="10.688585866278045"><ele>41.0</ele><time>2026-04-20T14:20:47Z</time></trkpt><trkpt lat="43.3285746661264" lon="10.688355098043784"><ele>41.666666666666664</ele><time>2026-04-20T14:20:48Z</time></trkpt><trkpt lat="43.3285136604843" lon="10.688112216256265"><ele>42.333333333333336</ele><time>2026-04-20T14:20:49Z</time></trkpt><trkpt lat="43.32846261022573" lon="10.687863230026139"><ele>43.0</ele><time>2026-04-20T14:20:50Z</time></trkpt><trkpt lat="43.32842371642897" lon="10.687614599961485"><ele>43.333333333333336</ele><time>2026-04-20T14:20:51Z</time></trkpt><trkpt lat="43.32839414450577" lon="10.687366465800894"><ele>43.666666666666664</ele><time>2026-04-20T14:20:52Z</time></trkpt><trkpt lat="43.32837561516515" lon="10.68711532373084"><ele>44.0</ele><time>2026-04-20T14:20:53Z</time></trkpt><trkpt lat="43.328366755398534" lon="10.686861712065719"><ele>44.33333333333333</ele><time>2026-04-20T14:20:54Z</time></trkpt><trkpt lat="43.32836951469294" lon="10.686603045190326"><ele>44.666666666666664</ele><time>2026-04-20T14:20:55Z</time></trkpt><trkpt lat="43.32838616858735" lon="10.686349761083934"><ele>45.0</ele><time>2026-04-20T14:20:56Z</time></trkpt><trkpt lat="43.328411680615574" lon="10.686098169988606"><ele>45.0</ele><time>2026-04-20T14:20:57Z</time></trkpt><trkpt lat="43.32844442779154" lon="10.68584739886446"><ele>45.0</ele><time>2026-04-20T14:20:58Z</time></trkpt><trkpt lat="43.328485997297875" lon="10.685602257162738"><ele>45.0</ele><time>2026-04-20T14:20:59Z</time></trkpt><trkpt lat="43.3285367481279" lon="10.685357970093678"><ele>44.666666666666664</ele><time>2026-04-20T14:21:00Z</time></trkpt><trkpt lat="43.32859333841063" lon="10.685119231077287"><ele>44.33333333333333</ele><time>2026-04-20T14:21:01Z</time></trkpt><trkpt lat="43.32865144186576" lon="10.684880359821062"><ele>44.0</ele><time>2026-04-20T14:21:02Z</time></trkpt><trkpt lat="43.32871093874" lon="10.684642018558819"><ele>44.0</ele><time>2026-04-20T14:21:03Z</time></trkpt><trkpt lat="43.32877154088375" lon="10.684400031164648"><ele>44.0</ele><time>2026-04-20T14:21:04Z</time></trkpt><trkpt lat="43.32883583553281" lon="10.684159479391111"><ele>44.0</ele><time>2026-04-20T14:21:05Z</time></trkpt><trkpt lat="43.328900705032396" lon="10.683920460037614"><ele>44.0</ele><time>2026-04-20T14:21:06Z</time></trkpt><trkpt lat="43.32896633488986" lon="10.683677077980494"><ele>44.0</ele><time>2026-04-20T14:21:07Z</time></trkpt><trkpt lat="43.3290306635446" lon="10.68342667626783"><ele>44.0</ele><time>2026-04-20T14:21:08Z</time></trkpt><trkpt lat="43.3290877204605" lon="10.683173474125734"><ele>43.33333333333333</ele><time>2026-04-20T14:21:09Z</time></trkpt><trkpt lat="43.329134995553495" lon="10.682922384246977"><ele>42.666666666666664</ele><time>2026-04-20T14:21:10Z</time></trkpt><trkpt lat="43.329192571507335" lon="10.682666439805958"><ele>42.0</ele><time>2026-04-20T14:21:11Z</time></trkpt><trkpt lat="43.329242335322775" lon="10.682412565822078"><ele>41.333333333333336</ele><time>2026-04-20T14:21:12Z</time></trkpt><trkpt lat="43.32929974725408" lon="10.682153976554819"><ele>40.66666666666667</ele><time>2026-04-20T14:21:13Z</time></trkpt><trkpt lat="43.32934673339979" lon="10.681898252205242"><ele>40.0</ele><time>2026-04-20T14:21:14Z</time></trkpt><trkpt lat="43.329393953324676" lon="10.681641016275158"><ele>39.333333333333336</ele><time>2026-04-20T14:21:15Z</time></trkpt><trkpt lat="43.32943712938921" lon="10.681382808006175"><ele>38.666666666666664</ele><time>2026-04-20T14:21:16Z</time></trkpt><trkpt lat="43.32948147366539" lon="10.68112460223153"><ele>38.0</ele><time>2026-04-20T14:21:17Z</time></trkpt><trkpt lat="43.3295220564376" lon="10.680866331203502"><ele>38.0</ele><time>2026-04-20T14:21:18Z</time></trkpt><trkpt lat="43.32955811887881" lon="10.68060663406639"><ele>38.0</ele><time>2026-04-20T14:21:19Z</time></trkpt><trkpt lat="43.3295878258112" lon="10.680345412448222"><ele>38.0</ele><time>2026-04-20T14:21:20Z</time></trkpt><trkpt lat="43.329618268739395" lon="10.68008233199093"><ele>38.0</ele><time>2026-04-20T14:21:21Z</time></trkpt><trkpt lat="43.32964858373938" lon="10.67981865378817"><ele>38.0</ele><time>2026-04-20T14:21:22Z</time></trkpt><trkpt lat="43.329678370479" lon="10.679552958044141"><ele>38.0</ele><time>2026-04-20T14:21:23Z</time></trkpt><trkpt lat="43.329706373945996" lon="10.679290687673067"><ele>41.33333333333333</ele><time>2026-04-20T14:21:24Z</time></trkpt><trkpt lat="43.32972737203417" lon="10.679027022181524"><ele>44.666666666666664</ele><time>2026-04-20T14:21:25Z</time></trkpt><trkpt lat="43.329746552375724" lon="10.678759286996227"><ele>48.0</ele><time>2026-04-20T14:21:26Z</time></trkpt><trkpt lat="43.329765243744" lon="10.678492837377178"><ele>48.33333333333333</ele><time>2026-04-20T14:21:27Z</time></trkpt><trkpt lat="43.32978482314503" lon="10.678226398447524"><ele>48.666666666666664</ele><time>2026-04-20T14:21:28Z</time></trkpt><trkpt lat="43.32980247385847" lon="10.677957701742594"><ele>49.0</ele><time>2026-04-20T14:21:29Z</time></trkpt><trkpt lat="43.32981529348449" lon="10.677696139943912"><ele>46.33333333333333</ele><time>2026-04-20T14:21:30Z</time></trkpt><trkpt lat="43.32982639976891" lon="10.677430444830565"><ele>43.666666666666664</ele><time>2026-04-20T14:21:31Z</time></trkpt><trkpt lat="43.32983600056911" lon="10.677166537867103"><ele>41.0</ele><time>2026-04-20T14:21:32Z</time></trkpt><trkpt lat="43.329845686449694" lon="10.676895657062111"><ele>40.0</ele><time>2026-04-20T14:21:33Z</time></trkpt><trkpt lat="43.3298492325096" lon="10.676626177263424"><ele>39.0</ele><time>2026-04-20T14:21:34Z</time></trkpt><trkpt lat="43.329852027430356" lon="10.676359047755827"><ele>38.0</ele><time>2026-04-20T14:21:35Z</time></trkpt><trkpt lat="43.32984747516963" lon="10.676082484038835"><ele>38.0</ele><time>2026-04-20T14:21:36Z</time></trkpt><trkpt lat="43.32984347867519" lon="10.675813819210802"><ele>38.0</ele><time>2026-04-20T14:21:37Z</time></trkpt><trkpt lat="43.329832333433856" lon="10.675540739765585"><ele>38.0</ele><time>2026-04-20T14:21:38Z</time></trkpt><trkpt lat="43.32982284787496" lon="10.675273717486144"><ele>38.0</ele><time>2026-04-20T14:21:39Z</time></trkpt><trkpt lat="43.32980894545856" lon="10.67499970817751"><ele>38.0</ele><time>2026-04-20T14:21:40Z</time></trkpt><trkpt lat="43.32979665430497" lon="10.67472702030127"><ele>38.0</ele><time>2026-04-20T14:21:41Z</time></trkpt><trkpt lat="43.32978021968291" lon="10.674455582971829"><ele>38.0</ele><time>2026-04-20T14:21:42Z</time></trkpt><trkpt lat="43.32976235087956" lon="10.674202718270228"><ele>38.0</ele><time>2026-04-20T14:21:43Z</time></trkpt><trkpt lat="43.329738102750596" lon="10.673944858991327"><ele>38.0</ele><time>2026-04-20T14:21:44Z</time></trkpt><trkpt lat="43.32971275617132" lon="10.673684458206258"><ele>37.666666666666664</ele><time>2026-04-20T14:21:45Z</time></trkpt><trkpt lat="43.329685803384756" lon="10.673433399991213"><ele>37.333333333333336</ele><time>2026-04-20T14:21:46Z</time></trkpt><trkpt lat="43.32966096106404" lon="10.673180905666218"><ele>37.0</ele><time>2026-04-20T14:21:47Z</time></trkpt><trkpt lat="43.32963534618006" lon="10.672946834698546"><ele>37.333333333333336</ele><time>2026-04-20T14:21:48Z</time></trkpt><trkpt lat="43.329608250094324" lon="10.672724417646975"><ele>37.666666666666664</ele><time>2026-04-20T14:21:49Z</time></trkpt><trkpt lat="43.329579876810875" lon="10.672513074662945"><ele>38.0</ele><time>2026-04-20T14:21:50Z</time></trkpt><trkpt lat="43.329551514052994" lon="10.672311974697944"><ele>38.0</ele><time>2026-04-20T14:21:51Z</time></trkpt><trkpt lat="43.32952689419814" lon="10.672116840004149"><ele>38.0</ele><time>2026-04-20T14:21:52Z</time></trkpt><trkpt lat="43.32949804423367" lon="10.671923655784019"><ele>38.0</ele><time>2026-04-20T14:21:53Z</time></trkpt><trkpt lat="43.32946979629132" lon="10.671742548716871"><ele>38.0</ele><time>2026-04-20T14:21:54Z</time></trkpt><trkpt lat="43.32944092050753" lon="10.671568939053572"><ele>38.0</ele><time>2026-04-20T14:21:55Z</time></trkpt><trkpt lat="43.329414267538986" lon="10.67139965896801"><ele>38.0</ele><time>2026-04-20T14:21:56Z</time></trkpt><trkpt lat="43.329387715850615" lon="10.671232186774692"><ele>38.0</ele><time>2026-04-20T14:21:57Z</time></trkpt><trkpt lat="43.329364337831734" lon="10.671078622938785"><ele>38.0</ele><time>2026-04-20T14:21:58Z</time></trkpt><trkpt lat="43.32934798866992" lon="10.670941817952247"><ele>37.8</ele><time>2026-04-20T14:21:59Z</time></trkpt><trkpt lat="43.329333469428654" lon="10.67081759574665"><ele>37.599999999999994</ele><time>2026-04-20T14:22:00Z</time></trkpt><trkpt lat="43.329323962245596" lon="10.670699605583733"><ele>37.400000000000006</ele><time>2026-04-20T14:22:01Z</time></trkpt><trkpt lat="43.32933182987416" lon="10.670577835157163"><ele>37.2</ele><time>2026-04-20T14:22:02Z</time></trkpt><trkpt lat="43.32933185481591" lon="10.6704556444939"><ele>37.0</ele><time>2026-04-20T14:22:03Z</time></trkpt><trkpt lat="43.329310430415724" lon="10.670323326030593"><ele>36.5</ele><time>2026-04-20T14:22:04Z</time></trkpt><trkpt lat="43.329267021872134" lon="10.670185691913646"><ele>36.0</ele><time>2026-04-20T14:22:05Z</time></trkpt><trkpt lat="43.32922153483467" lon="10.670035589201024"><ele>35.5</ele><time>2026-04-20T14:22:06Z</time></trkpt><trkpt lat="43.32919101167765" lon="10.669874008532272"><ele>35.0</ele><time>2026-04-20T14:22:07Z</time></trkpt><trkpt lat="43.32916738592553" lon="10.669729141618689"><ele>35.0</ele><time>2026-04-20T14:22:08Z</time></trkpt><trkpt lat="43.3291416175947" lon="10.669571218235054"><ele>35.0</ele><time>2026-04-20T14:22:09Z</time></trkpt><trkpt lat="43.32911516916455" lon="10.669411507222316"><ele>35.0</ele><time>2026-04-20T14:22:10Z</time></trkpt><trkpt lat="43.3290896480196" lon="10.669263596971811"><ele>35.0</ele><time>2026-04-20T14:22:11Z</time></trkpt><trkpt lat="43.32906643981269" lon="10.669108418263624"><ele>34.8</ele><time>2026-04-20T14:22:12Z</time></trkpt><trkpt lat="43.32904680528037" lon="10.668956646814479"><ele>34.6</ele><time>2026-04-20T14:22:13Z</time></trkpt><trkpt lat="43.329023638239256" lon="10.66880509863352"><ele>34.4</ele><time>2026-04-20T14:22:14Z</time></trkpt><trkpt lat="43.32900810850195" lon="10.668690112508822"><ele>34.2</ele><time>2026-04-20T14:22:15Z</time></trkpt><trkpt lat="43.32899199217531" lon="10.668581769777566"><ele>34.0</ele><time>2026-04-20T14:22:16Z</time></trkpt><trkpt lat="43.32896920780043" lon="10.668461804536435"><ele>34.333333333333336</ele><time>2026-04-20T14:22:17Z</time></trkpt><trkpt lat="43.328949732164425" lon="10.668338415943921"><ele>34.66666666666667</ele><time>2026-04-20T14:22:18Z</time></trkpt><trkpt lat="43.328929830103405" lon="10.668206580575154"><ele>35.0</ele><time>2026-04-20T14:22:19Z</time></trkpt><trkpt lat="43.32891468868747" lon="10.668097097300798"><ele>35.333333333333336</ele><time>2026-04-20T14:22:20Z</time></trkpt><trkpt lat="43.3288974451003" lon="10.667957981027396"><ele>35.666666666666664</ele><time>2026-04-20T14:22:22Z</time></trkpt><trkpt lat="43.32890346378734" lon="10.66786977284483"><ele>36.0</ele><time>2026-04-20T14:22:24Z</time></trkpt><trkpt lat="43.328856139817674" lon="10.66781148249729"><ele>36.0</ele><time>2026-04-20T14:23:09Z</time></trkpt><trkpt lat="43.32889080776142" lon="10.66794467385346"><ele>36.0</ele><time>2026-04-20T14:23:12Z</time></trkpt><trkpt lat="43.32891479753955" lon="10.66811148057729"><ele>36.0</ele><time>2026-04-20T14:23:13Z</time></trkpt><trkpt lat="43.32889697034903" lon="10.668264628212215"><ele>36.0</ele><time>2026-04-20T14:23:14Z</time></trkpt><trkpt lat="43.32892547426241" lon="10.668410114325093"><ele>36.0</ele><time>2026-04-20T14:23:15Z</time></trkpt><trkpt lat="43.32895632502068" lon="10.6685635940676"><ele>35.5</ele><time>2026-04-20T14:23:16Z</time></trkpt><trkpt lat="43.328980216816646" lon="10.668740406459474"><ele>35.0</ele><time>2026-04-20T14:23:17Z</time></trkpt><trkpt lat="43.32900714692371" lon="10.668934206600092"><ele>34.5</ele><time>2026-04-20T14:23:18Z</time></trkpt><trkpt lat="43.32903003375075" lon="10.669112629809792"><ele>34.0</ele><time>2026-04-20T14:23:19Z</time></trkpt><trkpt lat="43.32905583876074" lon="10.669291584723334"><ele>34.25</ele><time>2026-04-20T14:23:20Z</time></trkpt><trkpt lat="43.32908980830146" lon="10.669467509960231"><ele>34.5</ele><time>2026-04-20T14:23:21Z</time></trkpt><trkpt lat="43.329117343480284" lon="10.669649133719064"><ele>34.75</ele><time>2026-04-20T14:23:22Z</time></trkpt><trkpt lat="43.329138435140976" lon="10.669795484377605"><ele>35.0</ele><time>2026-04-20T14:23:23Z</time></trkpt><trkpt lat="43.329154357174964" lon="10.669914122732706"><ele>35.0</ele><time>2026-04-20T14:23:24Z</time></trkpt><trkpt lat="43.3291559854404" lon="10.670015983159775"><ele>35.0</ele><time>2026-04-20T14:23:25Z</time></trkpt><trkpt lat="43.329133779875484" lon="10.670125777813098"><ele>35.0</ele><time>2026-04-20T14:23:26Z</time></trkpt><trkpt lat="43.32908209842645" lon="10.670233230897864"><ele>35.0</ele><time>2026-04-20T14:23:27Z</time></trkpt><trkpt lat="43.329013556004696" lon="10.670339741930878"><ele>35.0</ele><time>2026-04-20T14:23:28Z</time></trkpt><trkpt lat="43.328927821541356" lon="10.670427685367693"><ele>35.2</ele><time>2026-04-20T14:23:29Z</time></trkpt><trkpt lat="43.328841582973155" lon="10.670488775294857"><ele>35.4</ele><time>2026-04-20T14:23:30Z</time></trkpt><trkpt lat="43.328746570367166" lon="10.670543665933797"><ele>35.6</ele><time>2026-04-20T14:23:31Z</time></trkpt><trkpt lat="43.328639618309175" lon="10.670583458051052"><ele>35.8</ele><time>2026-04-20T14:23:32Z</time></trkpt><trkpt lat="43.32853129982657" lon="10.670601544397947"><ele>36.0</ele><time>2026-04-20T14:23:33Z</time></trkpt><trkpt lat="43.328420039240186" lon="10.670573799674484"><ele>36.0</ele><time>2026-04-20T14:23:34Z</time></trkpt><trkpt lat="43.32831239638482" lon="10.670554771768215"><ele>36.0</ele><time>2026-04-20T14:23:35Z</time></trkpt><trkpt lat="43.328215323130586" lon="10.670537578212324"><ele>36.0</ele><time>2026-04-20T14:23:36Z</time></trkpt><trkpt lat="43.3281245444926" lon="10.67054028468778"><ele>36.0</ele><time>2026-04-20T14:23:37Z</time></trkpt><trkpt lat="43.32804045027542" lon="10.670521040820402"><ele>36.0</ele><time>2026-04-20T14:23:38Z</time></trkpt><trkpt lat="43.3279560415143" lon="10.67050149805152"><ele>36.25</ele><time>2026-04-20T14:23:39Z</time></trkpt><trkpt lat="43.327859267453334" lon="10.670480095117885"><ele>36.5</ele><time>2026-04-20T14:23:40Z</time></trkpt><trkpt lat="43.327753198850246" lon="10.670459508794016"><ele>36.75</ele><time>2026-04-20T14:23:41Z</time></trkpt><trkpt lat="43.32763471821782" lon="10.670435274515535"><ele>37.0</ele><time>2026-04-20T14:23:42Z</time></trkpt><trkpt lat="43.32750614489101" lon="10.670413832268979"><ele>37.0</ele><time>2026-04-20T14:23:43Z</time></trkpt><trkpt lat="43.327376245484544" lon="10.670386080072365"><ele>37.0</ele><time>2026-04-20T14:23:44Z</time></trkpt><trkpt lat="43.32723492193034" lon="10.670359070670598"><ele>37.0</ele><time>2026-04-20T14:23:45Z</time></trkpt><trkpt lat="43.327086164840786" lon="10.670331200214848"><ele>37.0</ele><time>2026-04-20T14:23:46Z</time></trkpt><trkpt lat="43.326938199916995" lon="10.670302495513686"><ele>37.333333333333336</ele><time>2026-04-20T14:23:47Z</time></trkpt><trkpt lat="43.32678570044618" lon="10.670274959770165"><ele>37.666666666666664</ele><time>2026-04-20T14:23:48Z</time></trkpt><trkpt lat="43.32662547826881" lon="10.670246860331664"><ele>38.0</ele><time>2026-04-20T14:23:49Z</time></trkpt><trkpt lat="43.32646221423527" lon="10.670214623097689"><ele>37.33333333333333</ele><time>2026-04-20T14:23:50Z</time></trkpt><trkpt lat="43.3262934957974" lon="10.670183825496022"><ele>36.666666666666664</ele><time>2026-04-20T14:23:51Z</time></trkpt><trkpt lat="43.32612059238887" lon="10.670149130653536"><ele>36.0</ele><time>2026-04-20T14:23:52Z</time></trkpt><trkpt lat="43.325950977723586" lon="10.670113405409797"><ele>36.0</ele><time>2026-04-20T14:23:53Z</time></trkpt><trkpt lat="43.32577672814533" lon="10.670080493177993"><ele>36.0</ele><time>2026-04-20T14:23:54Z</time></trkpt><trkpt lat="43.325598480964096" lon="10.67004640580701"><ele>36.0</ele><time>2026-04-20T14:23:55Z</time></trkpt><trkpt lat="43.32541788441416" lon="10.670014418180626"><ele>36.0</ele><time>2026-04-20T14:23:56Z</time></trkpt><trkpt lat="43.325238262688586" lon="10.66997970937811"><ele>36.0</ele><time>2026-04-20T14:23:57Z</time></trkpt><trkpt lat="43.32505876024894" lon="10.669944006405371"><ele>36.0</ele><time>2026-04-20T14:23:58Z</time></trkpt><trkpt lat="43.32488967299535" lon="10.669911441854945"><ele>36.0</ele><time>2026-04-20T14:23:59Z</time></trkpt><trkpt lat="43.32472246781257" lon="10.669883588735166"><ele>36.0</ele><time>2026-04-20T14:24:00Z</time></trkpt><trkpt lat="43.32456432011123" lon="10.669859205912315"><ele>36.0</ele><time>2026-04-20T14:24:01Z</time></trkpt><trkpt lat="43.32441256564417" lon="10.669844112725672"><ele>36.0</ele><time>2026-04-20T14:24:02Z</time></trkpt><trkpt lat="43.32425970713395" lon="10.669833701216529"><ele>36.0</ele><time>2026-04-20T14:24:03Z</time></trkpt><trkpt lat="43.32410787613521" lon="10.6698304883858"><ele>36.0</ele><time>2026-04-20T14:24:04Z</time></trkpt><trkpt lat="43.32396729377505" lon="10.669828786178662"><ele>36.0</ele><time>2026-04-20T14:24:05Z</time></trkpt><trkpt lat="43.32383058181332" lon="10.669825240627448"><ele>35.5</ele><time>2026-04-20T14:24:06Z</time></trkpt><trkpt lat="43.32369186459612" lon="10.669830627233743"><ele>35.0</ele><time>2026-04-20T14:24:07Z</time></trkpt><trkpt lat="43.32355253570809" lon="10.669835145150392"><ele>34.5</ele><time>2026-04-20T14:24:08Z</time></trkpt><trkpt lat="43.3234131313221" lon="10.669840174989826"><ele>34.0</ele><time>2026-04-20T14:24:09Z</time></trkpt><trkpt lat="43.323274521243285" lon="10.669844558192219"><ele>34.0</ele><time>2026-04-20T14:24:10Z</time></trkpt><trkpt lat="43.323133414535356" lon="10.669845868404368"><ele>34.0</ele><time>2026-04-20T14:24:11Z</time></trkpt><trkpt lat="43.32299286359862" lon="10.669842282205854"><ele>34.0</ele><time>2026-04-20T14:24:12Z</time></trkpt><trkpt lat="43.322855203681655" lon="10.6698456401855"><ele>34.0</ele><time>2026-04-20T14:24:13Z</time></trkpt><trkpt lat="43.322714031003855" lon="10.669849013636327"><ele>35.333333333333336</ele><time>2026-04-20T14:24:14Z</time></trkpt><trkpt lat="43.322564469861106" lon="10.669851480374664"><ele>36.666666666666664</ele><time>2026-04-20T14:24:15Z</time></trkpt><trkpt lat="43.322409192897325" lon="10.669850388226475"><ele>38.0</ele><time>2026-04-20T14:24:16Z</time></trkpt><trkpt lat="43.32224921644514" lon="10.669850638548303"><ele>37.666666666666664</ele><time>2026-04-20T14:24:17Z</time></trkpt><trkpt lat="43.32208284873043" lon="10.669846849218546"><ele>37.333333333333336</ele><time>2026-04-20T14:24:18Z</time></trkpt><trkpt lat="43.321917849945955" lon="10.669850453755197"><ele>37.0</ele><time>2026-04-20T14:24:19Z</time></trkpt><trkpt lat="43.321749016995014" lon="10.66985434226569"><ele>37.0</ele><time>2026-04-20T14:24:20Z</time></trkpt><trkpt lat="43.321578547220504" lon="10.669855229913388"><ele>37.0</ele><time>2026-04-20T14:24:21Z</time></trkpt><trkpt lat="43.32140657232144" lon="10.669858339839024"><ele>37.0</ele><time>2026-04-20T14:24:22Z</time></trkpt><trkpt lat="43.32123342059571" lon="10.669858699728781"><ele>37.0</ele><time>2026-04-20T14:24:23Z</time></trkpt><trkpt lat="43.32105691442936" lon="10.669866240546975"><ele>37.0</ele><time>2026-04-20T14:24:24Z</time></trkpt><trkpt lat="43.32087918165615" lon="10.669876747001458"><ele>37.0</ele><time>2026-04-20T14:24:25Z</time></trkpt><trkpt lat="43.32069798260016" lon="10.669888328139368"><ele>37.0</ele><time>2026-04-20T14:24:26Z</time></trkpt><trkpt lat="43.320517447638764" lon="10.669913839565094"><ele>37.0</ele><time>2026-04-20T14:24:27Z</time></trkpt><trkpt lat="43.32033763308815" lon="10.669945928222472"><ele>37.0</ele><time>2026-04-20T14:24:28Z</time></trkpt><trkpt lat="43.3201536955309" lon="10.669989321554082"><ele>37.0</ele><time>2026-04-20T14:24:29Z</time></trkpt><trkpt lat="43.31997171413801" lon="10.67003135471466"><ele>37.0</ele><time>2026-04-20T14:24:30Z</time></trkpt><trkpt lat="43.3197898938999" lon="10.670076367038195"><ele>37.0</ele><time>2026-04-20T14:24:31Z</time></trkpt><trkpt lat="43.319606610771004" lon="10.670123234593662"><ele>36.66666666666667</ele><time>2026-04-20T14:24:32Z</time></trkpt><trkpt lat="43.31942439084392" lon="10.670178643382206"><ele>36.333333333333336</ele><time>2026-04-20T14:24:33Z</time></trkpt><trkpt lat="43.319246243560514" lon="10.670239037369738"><ele>36.0</ele><time>2026-04-20T14:24:34Z</time></trkpt><trkpt lat="43.319065986121835" lon="10.670305109807327"><ele>36.0</ele><time>2026-04-20T14:24:35Z</time></trkpt><trkpt lat="43.318884998507514" lon="10.670378049899057"><ele>36.0</ele><time>2026-04-20T14:24:36Z</time></trkpt><trkpt lat="43.31870239439173" lon="10.670455807314207"><ele>36.0</ele><time>2026-04-20T14:24:37Z</time></trkpt><trkpt lat="43.31852552223444" lon="10.670539085873457"><ele>36.0</ele><time>2026-04-20T14:24:38Z</time></trkpt><trkpt lat="43.31837080065654" lon="10.670617310300013"><ele>36.0</ele><time>2026-04-20T14:24:39Z</time></trkpt><trkpt lat="43.31823033830887" lon="10.670698560112054"><ele>36.0</ele><time>2026-04-20T14:24:40Z</time></trkpt><trkpt lat="43.318098485025374" lon="10.670775596792684"><ele>36.25</ele><time>2026-04-20T14:24:41Z</time></trkpt><trkpt lat="43.31796814323067" lon="10.670854963755195"><ele>36.5</ele><time>2026-04-20T14:24:42Z</time></trkpt><trkpt lat="43.31785250540175" lon="10.670935618477776"><ele>36.75</ele><time>2026-04-20T14:24:43Z</time></trkpt><trkpt lat="43.31774074171005" lon="10.671015046041665"><ele>37.0</ele><time>2026-04-20T14:24:44Z</time></trkpt><trkpt lat="43.31761900796949" lon="10.671106347755662"><ele>37.25</ele><time>2026-04-20T14:24:45Z</time></trkpt><trkpt lat="43.31751185919389" lon="10.671183875053632"><ele>37.5</ele><time>2026-04-20T14:24:46Z</time></trkpt><trkpt lat="43.31740606030561" lon="10.671264221480408"><ele>37.75</ele><time>2026-04-20T14:24:47Z</time></trkpt><trkpt lat="43.31731215331387" lon="10.671336477423004"><ele>38.0</ele><time>2026-04-20T14:24:48Z</time></trkpt><trkpt lat="43.31722143489503" lon="10.671415153499616"><ele>38.25</ele><time>2026-04-20T14:24:49Z</time></trkpt><trkpt lat="43.31713802244489" lon="10.671483144722343"><ele>38.5</ele><time>2026-04-20T14:24:50Z</time></trkpt><trkpt lat="43.31704479413523" lon="10.671565254511913"><ele>38.75</ele><time>2026-04-20T14:24:51Z</time></trkpt><trkpt lat="43.316942505167745" lon="10.671644698789011"><ele>39.0</ele><time>2026-04-20T14:24:52Z</time></trkpt><trkpt lat="43.31683323071086" lon="10.671735634357574"><ele>39.0</ele><time>2026-04-20T14:24:53Z</time></trkpt><trkpt lat="43.31671993255164" lon="10.671836266476506"><ele>39.0</ele><time>2026-04-20T14:24:54Z</time></trkpt><trkpt lat="43.31660240853407" lon="10.671938597175169"><ele>39.0</ele><time>2026-04-20T14:24:55Z</time></trkpt><trkpt lat="43.31647714443659" lon="10.672046660776571"><ele>39.0</ele><time>2026-04-20T14:24:56Z</time></trkpt><trkpt lat="43.31634151819149" lon="10.672167564466765"><ele>39.0</ele><time>2026-04-20T14:24:57Z</time></trkpt><trkpt lat="43.31620500970279" lon="10.672286877553875"><ele>39.0</ele><time>2026-04-20T14:24:58Z</time></trkpt><trkpt lat="43.316063548166824" lon="10.672415290774655"><ele>39.0</ele><time>2026-04-20T14:24:59Z</time></trkpt><trkpt lat="43.31591626115539" lon="10.672539994142674"><ele>39.0</ele><time>2026-04-20T14:25:00Z</time></trkpt><trkpt lat="43.315766043958575" lon="10.672670789424886"><ele>39.0</ele><time>2026-04-20T14:25:01Z</time></trkpt><trkpt lat="43.31562030987615" lon="10.672796002319343"><ele>39.0</ele><time>2026-04-20T14:25:02Z</time></trkpt><trkpt lat="43.3154673886396" lon="10.672935400036089"><ele>39.666666666666664</ele><time>2026-04-20T14:25:03Z</time></trkpt><trkpt lat="43.31531573751247" lon="10.673064440135724"><ele>40.33333333333333</ele><time>2026-04-20T14:25:04Z</time></trkpt><trkpt lat="43.31516349335114" lon="10.673191108482994"><ele>41.0</ele><time>2026-04-20T14:25:05Z</time></trkpt><trkpt lat="43.315004044949134" lon="10.673329390286828"><ele>41.0</ele><time>2026-04-20T14:25:06Z</time></trkpt><trkpt lat="43.31484973770514" lon="10.673464998198401"><ele>41.0</ele><time>2026-04-20T14:25:07Z</time></trkpt><trkpt lat="43.31469434746182" lon="10.673614939261"><ele>41.0</ele><time>2026-04-20T14:25:08Z</time></trkpt><trkpt lat="43.31453753488411" lon="10.673774953441612"><ele>40.0</ele><time>2026-04-20T14:25:09Z</time></trkpt><trkpt lat="43.31439098664675" lon="10.67393180058293"><ele>39.0</ele><time>2026-04-20T14:25:10Z</time></trkpt><trkpt lat="43.3142432513589" lon="10.67410039031361"><ele>38.0</ele><time>2026-04-20T14:25:11Z</time></trkpt><trkpt lat="43.31411132139179" lon="10.67425564973331"><ele>38.0</ele><time>2026-04-20T14:25:12Z</time></trkpt><trkpt lat="43.313978258976036" lon="10.674410545382386"><ele>38.0</ele><time>2026-04-20T14:25:13Z</time></trkpt><trkpt lat="43.31384016288525" lon="10.674572197974411"><ele>38.0</ele><time>2026-04-20T14:25:14Z</time></trkpt><trkpt lat="43.31371120992546" lon="10.674721258482904"><ele>39.0</ele><time>2026-04-20T14:25:15Z</time></trkpt><trkpt lat="43.31358688863014" lon="10.674860506295234"><ele>40.0</ele><time>2026-04-20T14:25:16Z</time></trkpt><trkpt lat="43.31346964753537" lon="10.6750062381318"><ele>41.0</ele><time>2026-04-20T14:25:17Z</time></trkpt><trkpt lat="43.31336184640974" lon="10.675129403663819"><ele>41.0</ele><time>2026-04-20T14:25:18Z</time></trkpt><trkpt lat="43.31325658319211" lon="10.675257335398435"><ele>41.0</ele><time>2026-04-20T14:25:19Z</time></trkpt><trkpt lat="43.313163227209294" lon="10.67536320820427"><ele>41.0</ele><time>2026-04-20T14:25:20Z</time></trkpt><trkpt lat="43.313077672034424" lon="10.675466892752288"><ele>41.0</ele><time>2026-04-20T14:25:21Z</time></trkpt><trkpt lat="43.31299589127254" lon="10.675564552213485"><ele>40.599999999999994</ele><time>2026-04-20T14:25:22Z</time></trkpt><trkpt lat="43.31293405155103" lon="10.675636586653452"><ele>40.199999999999996</ele><time>2026-04-20T14:25:23Z</time></trkpt><trkpt lat="43.31285148295845" lon="10.675732276273788"><ele>39.8</ele><time>2026-04-20T14:25:25Z</time></trkpt><trkpt lat="43.31274738625353" lon="10.675816300360449"><ele>39.4</ele><time>2026-04-20T14:25:51Z</time></trkpt><trkpt lat="43.312687916043565" lon="10.675856719029518"><ele>39.0</ele><time>2026-04-20T14:25:53Z</time></trkpt><trkpt lat="43.31259190803115" lon="10.675737947254422"><ele>39.0</ele><time>2026-04-20T14:25:54Z</time></trkpt><trkpt lat="43.31252837358615" lon="10.675675306269174"><ele>39.0</ele><time>2026-04-20T14:25:55Z</time></trkpt><trkpt lat="43.31243968417569" lon="10.675606865836304"><ele>39.0</ele><time>2026-04-20T14:25:56Z</time></trkpt><trkpt lat="43.31234323790033" lon="10.675528513294752"><ele>39.0</ele><time>2026-04-20T14:25:57Z</time></trkpt><trkpt lat="43.31225089320204" lon="10.675460946099875"><ele>39.0</ele><time>2026-04-20T14:25:58Z</time></trkpt><trkpt lat="43.31214767789568" lon="10.675372789148492"><ele>38.75</ele><time>2026-04-20T14:25:59Z</time></trkpt><trkpt lat="43.31203116765382" lon="10.675279931099784"><ele>38.5</ele><time>2026-04-20T14:26:00Z</time></trkpt><trkpt lat="43.31191128677409" lon="10.675187448297429"><ele>38.25</ele><time>2026-04-20T14:26:01Z</time></trkpt><trkpt lat="43.311788326742096" lon="10.675089595253885"><ele>38.0</ele><time>2026-04-20T14:26:02Z</time></trkpt><trkpt lat="43.31165749553735" lon="10.674987630434195"><ele>38.0</ele><time>2026-04-20T14:26:03Z</time></trkpt><trkpt lat="43.31152675626218" lon="10.674864116853367"><ele>38.0</ele><time>2026-04-20T14:26:04Z</time></trkpt><trkpt lat="43.311381909283185" lon="10.67476817047936"><ele>38.0</ele><time>2026-04-20T14:26:05Z</time></trkpt><trkpt lat="43.31123824519736" lon="10.674652115913194"><ele>38.666666666666664</ele><time>2026-04-20T14:26:06Z</time></trkpt><trkpt lat="43.31110318141784" lon="10.674544732745403"><ele>39.333333333333336</ele><time>2026-04-20T14:26:07Z</time></trkpt><trkpt lat="43.31096284362509" lon="10.674436460115059"><ele>40.0</ele><time>2026-04-20T14:26:08Z</time></trkpt><trkpt lat="43.31082165219539" lon="10.674325382605199"><ele>40.0</ele><time>2026-04-20T14:26:09Z</time></trkpt><trkpt lat="43.31068010067546" lon="10.67420846355344"><ele>40.0</ele><time>2026-04-20T14:26:10Z</time></trkpt><trkpt lat="43.31053915285297" lon="10.674095235985648"><ele>40.0</ele><time>2026-04-20T14:26:11Z</time></trkpt><trkpt lat="43.310396531321665" lon="10.67398633854405"><ele>41.0</ele><time>2026-04-20T14:26:12Z</time></trkpt><trkpt lat="43.31024904732985" lon="10.673872091519872"><ele>42.0</ele><time>2026-04-20T14:26:13Z</time></trkpt><trkpt lat="43.31010011845534" lon="10.673751579164302"><ele>43.0</ele><time>2026-04-20T14:26:14Z</time></trkpt><trkpt lat="43.30994871272639" lon="10.673624009985607"><ele>43.0</ele><time>2026-04-20T14:26:15Z</time></trkpt><trkpt lat="43.3097954092989" lon="10.673493746519702"><ele>43.0</ele><time>2026-04-20T14:26:16Z</time></trkpt><trkpt lat="43.309642829286766" lon="10.673367654223307"><ele>43.0</ele><time>2026-04-20T14:26:17Z</time></trkpt><trkpt lat="43.30948836702129" lon="10.67324426129396"><ele>43.0</ele><time>2026-04-20T14:26:18Z</time></trkpt><trkpt lat="43.309336221434535" lon="10.673119687608434"><ele>43.0</ele><time>2026-04-20T14:26:19Z</time></trkpt><trkpt lat="43.309186289577134" lon="10.673001075812534"><ele>43.0</ele><time>2026-04-20T14:26:20Z</time></trkpt><trkpt lat="43.30903882958829" lon="10.672887758194921"><ele>42.66666666666667</ele><time>2026-04-20T14:26:21Z</time></trkpt><trkpt lat="43.30888976412182" lon="10.672771994077968"><ele>42.333333333333336</ele><time>2026-04-20T14:26:22Z</time></trkpt><trkpt lat="43.308743035589764" lon="10.672655151144758"><ele>42.0</ele><time>2026-04-20T14:26:23Z</time></trkpt><trkpt lat="43.30860904614004" lon="10.672548378740279"><ele>42.0</ele><time>2026-04-20T14:26:24Z</time></trkpt><trkpt lat="43.30847983689454" lon="10.672443351798108"><ele>42.0</ele><time>2026-04-20T14:26:25Z</time></trkpt><trkpt lat="43.30835927778807" lon="10.672346850225738"><ele>42.0</ele><time>2026-04-20T14:26:26Z</time></trkpt><trkpt lat="43.30824297707571" lon="10.672255080532437"><ele>42.0</ele><time>2026-04-20T14:26:27Z</time></trkpt><trkpt lat="43.30812431617556" lon="10.672159987176634"><ele>42.0</ele><time>2026-04-20T14:26:28Z</time></trkpt><trkpt lat="43.30800195748221" lon="10.672062098118538"><ele>42.0</ele><time>2026-04-20T14:26:29Z</time></trkpt><trkpt lat="43.30787826304369" lon="10.671960797031277"><ele>42.0</ele><time>2026-04-20T14:26:30Z</time></trkpt><trkpt lat="43.30775517801549" lon="10.671861636230991"><ele>42.0</ele><time>2026-04-20T14:26:31Z</time></trkpt><trkpt lat="43.30763605709033" lon="10.671755235047288"><ele>42.0</ele><time>2026-04-20T14:26:32Z</time></trkpt><trkpt lat="43.3075148377197" lon="10.67166476644279"><ele>42.0</ele><time>2026-04-20T14:26:33Z</time></trkpt><trkpt lat="43.307396025448625" lon="10.671576392831698"><ele>42.0</ele><time>2026-04-20T14:26:34Z</time></trkpt><trkpt lat="43.307280388985916" lon="10.671483264950428"><ele>42.0</ele><time>2026-04-20T14:26:35Z</time></trkpt><trkpt lat="43.30715948714993" lon="10.671384144615239"><ele>41.25</ele><time>2026-04-20T14:26:36Z</time></trkpt><trkpt lat="43.30705596072766" lon="10.671287515847549"><ele>40.5</ele><time>2026-04-20T14:26:37Z</time></trkpt><trkpt lat="43.30693881733278" lon="10.671200815289785"><ele>39.75</ele><time>2026-04-20T14:26:38Z</time></trkpt><trkpt lat="43.3068285186532" lon="10.671108561345633"><ele>39.0</ele><time>2026-04-20T14:26:39Z</time></trkpt><trkpt lat="43.306718425016285" lon="10.671018402688901"><ele>39.0</ele><time>2026-04-20T14:26:40Z</time></trkpt><trkpt lat="43.30661028628688" lon="10.670927548733518"><ele>39.0</ele><time>2026-04-20T14:26:41Z</time></trkpt><trkpt lat="43.30650193100232" lon="10.670836105791217"><ele>39.0</ele><time>2026-04-20T14:26:42Z</time></trkpt><trkpt lat="43.306398057192446" lon="10.670743558487276"><ele>39.0</ele><time>2026-04-20T14:26:43Z</time></trkpt><trkpt lat="43.30630209990157" lon="10.67063403270662"><ele>40.5</ele><time>2026-04-20T14:26:44Z</time></trkpt><trkpt lat="43.30621202757808" lon="10.67051590852174"><ele>42.0</ele><time>2026-04-20T14:26:45Z</time></trkpt><trkpt lat="43.30612969377092" lon="10.670390947614028"><ele>43.5</ele><time>2026-04-20T14:26:46Z</time></trkpt><trkpt lat="43.30605168442022" lon="10.670263723532143"><ele>45.0</ele><time>2026-04-20T14:26:47Z</time></trkpt><trkpt lat="43.30596766653929" lon="10.6701386673136"><ele>45.0</ele><time>2026-04-20T14:26:48Z</time></trkpt><trkpt lat="43.30572769322885" lon="10.6697877603642"><ele>45.0</ele><time>2026-04-20T14:26:51Z</time></trkpt><trkpt lat="43.305643663896014" lon="10.669662026954574"><ele>45.25</ele><time>2026-04-20T14:26:52Z</time></trkpt><trkpt lat="43.30555257645667" lon="10.669538240114262"><ele>45.5</ele><time>2026-04-20T14:26:53Z</time></trkpt><trkpt lat="43.305455629767046" lon="10.669398687177738"><ele>45.75</ele><time>2026-04-20T14:26:54Z</time></trkpt><trkpt lat="43.30535936362789" lon="10.669264935282765"><ele>46.0</ele><time>2026-04-20T14:26:55Z</time></trkpt><trkpt lat="43.305264956964876" lon="10.669124650197974"><ele>46.0</ele><time>2026-04-20T14:26:56Z</time></trkpt><trkpt lat="43.305164582787015" lon="10.668974075940195"><ele>46.0</ele><time>2026-04-20T14:26:57Z</time></trkpt><trkpt lat="43.305064954012884" lon="10.66882720012626"><ele>46.0</ele><time>2026-04-20T14:26:58Z</time></trkpt><trkpt lat="43.304963935711804" lon="10.668639358985926"><ele>46.0</ele><time>2026-04-20T14:26:59Z</time></trkpt><trkpt lat="43.30484702655163" lon="10.668496796339694"><ele>46.0</ele><time>2026-04-20T14:27:00Z</time></trkpt><trkpt lat="43.30473318466829" lon="10.66833882107371"><ele>46.0</ele><time>2026-04-20T14:27:01Z</time></trkpt><trkpt lat="43.30461447324573" lon="10.668166230340029"><ele>46.66666666666667</ele><time>2026-04-20T14:27:02Z</time></trkpt><trkpt lat="43.30449735018897" lon="10.667999924996487"><ele>47.333333333333336</ele><time>2026-04-20T14:27:03Z</time></trkpt><trkpt lat="43.30438026723671" lon="10.66782780373753"><ele>48.0</ele><time>2026-04-20T14:27:04Z</time></trkpt><trkpt lat="43.30426243506305" lon="10.667657829520438"><ele>48.0</ele><time>2026-04-20T14:27:05Z</time></trkpt><trkpt lat="43.30414269396418" lon="10.667483645168023"><ele>48.0</ele><time>2026-04-20T14:27:06Z</time></trkpt><trkpt lat="43.304021296762464" lon="10.66730577453512"><ele>48.0</ele><time>2026-04-20T14:27:07Z</time></trkpt><trkpt lat="43.30389910003318" lon="10.667131567625376"><ele>48.0</ele><time>2026-04-20T14:27:08Z</time></trkpt><trkpt lat="43.30377598159127" lon="10.66695484269578"><ele>48.0</ele><time>2026-04-20T14:27:09Z</time></trkpt><trkpt lat="43.30365317320756" lon="10.666775821043116"><ele>48.0</ele><time>2026-04-20T14:27:10Z</time></trkpt><trkpt lat="43.30352925104922" lon="10.66659548947333"><ele>48.0</ele><time>2026-04-20T14:27:11Z</time></trkpt><trkpt lat="43.30340676968412" lon="10.666414915892057"><ele>48.0</ele><time>2026-04-20T14:27:12Z</time></trkpt><trkpt lat="43.303283341641844" lon="10.666235273301082"><ele>48.0</ele><time>2026-04-20T14:27:13Z</time></trkpt><trkpt lat="43.30315615997395" lon="10.666050699908508"><ele>50.66666666666667</ele><time>2026-04-20T14:27:14Z</time></trkpt><trkpt lat="43.30303457899999" lon="10.66587175172015"><ele>53.333333333333336</ele><time>2026-04-20T14:27:15Z</time></trkpt><trkpt lat="43.302917330216324" lon="10.665704360850809"><ele>56.0</ele><time>2026-04-20T14:27:16Z</time></trkpt><trkpt lat="43.30280054317356" lon="10.665539656148823"><ele>56.0</ele><time>2026-04-20T14:27:17Z</time></trkpt><trkpt lat="43.302686399694316" lon="10.665372410767077"><ele>56.0</ele><time>2026-04-20T14:27:18Z</time></trkpt><trkpt lat="43.30258437659718" lon="10.665224837592952"><ele>56.0</ele><time>2026-04-20T14:27:19Z</time></trkpt><trkpt lat="43.30249184971681" lon="10.665084447433642"><ele>56.0</ele><time>2026-04-20T14:27:20Z</time></trkpt><trkpt lat="43.30240902183085" lon="10.664945669351624"><ele>56.0</ele><time>2026-04-20T14:27:21Z</time></trkpt><trkpt lat="43.30233605809072" lon="10.664783915869751"><ele>56.0</ele><time>2026-04-20T14:27:22Z</time></trkpt><trkpt lat="43.30226407213941" lon="10.664617696473993"><ele>56.0</ele><time>2026-04-20T14:27:23Z</time></trkpt><trkpt lat="43.30219776928489" lon="10.664443270379182"><ele>58.25</ele><time>2026-04-20T14:27:24Z</time></trkpt><trkpt lat="43.30212414748159" lon="10.66427098999821"><ele>60.5</ele><time>2026-04-20T14:27:25Z</time></trkpt><trkpt lat="43.30203773261724" lon="10.664100415849312"><ele>62.75</ele><time>2026-04-20T14:27:26Z</time></trkpt><trkpt lat="43.30194786358079" lon="10.663935341101768"><ele>65.0</ele><time>2026-04-20T14:27:27Z</time></trkpt><trkpt lat="43.30186467223657" lon="10.663747683307253"><ele>60.66666666666667</ele><time>2026-04-20T14:27:28Z</time></trkpt><trkpt lat="43.30176843053567" lon="10.663576389942842"><ele>56.33333333333333</ele><time>2026-04-20T14:27:29Z</time></trkpt><trkpt lat="43.30167195834302" lon="10.663407950063723"><ele>52.0</ele><time>2026-04-20T14:27:30Z</time></trkpt><trkpt lat="43.30157496765559" lon="10.663236509341875"><ele>52.0</ele><time>2026-04-20T14:27:31Z</time></trkpt><trkpt lat="43.30147487819611" lon="10.663059651221944"><ele>52.0</ele><time>2026-04-20T14:27:32Z</time></trkpt><trkpt lat="43.301375523128705" lon="10.662884296585252"><ele>52.0</ele><time>2026-04-20T14:27:33Z</time></trkpt><trkpt lat="43.30127936478188" lon="10.662714583956006"><ele>51.75</ele><time>2026-04-20T14:27:34Z</time></trkpt><trkpt lat="43.30119154106136" lon="10.662559634828536"><ele>51.5</ele><time>2026-04-20T14:27:35Z</time></trkpt><trkpt lat="43.301103870872545" lon="10.662405168702541"><ele>51.25</ele><time>2026-04-20T14:27:36Z</time></trkpt><trkpt lat="43.30101597882665" lon="10.662250310934413"><ele>51.0</ele><time>2026-04-20T14:27:37Z</time></trkpt><trkpt lat="43.30092646531277" lon="10.662092596548092"><ele>51.66666666666667</ele><time>2026-04-20T14:27:38Z</time></trkpt><trkpt lat="43.30082211893611" lon="10.661945894729886"><ele>52.333333333333336</ele><time>2026-04-20T14:27:39Z</time></trkpt><trkpt lat="43.300750495233714" lon="10.661760865260554"><ele>53.0</ele><time>2026-04-20T14:27:40Z</time></trkpt><trkpt lat="43.300660648510714" lon="10.661589699910722"><ele>53.0</ele><time>2026-04-20T14:27:41Z</time></trkpt><trkpt lat="43.30059311931002" lon="10.661397763482706"><ele>53.0</ele><time>2026-04-20T14:27:42Z</time></trkpt><trkpt lat="43.300521212323176" lon="10.661203248955134"><ele>53.0</ele><time>2026-04-20T14:27:43Z</time></trkpt><trkpt lat="43.30044785119454" lon="10.661006947762647"><ele>53.25</ele><time>2026-04-20T14:27:44Z</time></trkpt><trkpt lat="43.300381438627184" lon="10.660806883985117"><ele>53.5</ele><time>2026-04-20T14:27:45Z</time></trkpt><trkpt lat="43.300318155232084" lon="10.660628114069455"><ele>53.75</ele><time>2026-04-20T14:27:46Z</time></trkpt><trkpt lat="43.30025708210629" lon="10.660461924865368"><ele>54.0</ele><time>2026-04-20T14:27:47Z</time></trkpt><trkpt lat="43.300205549069375" lon="10.6603035482016"><ele>55.0</ele><time>2026-04-20T14:27:48Z</time></trkpt><trkpt lat="43.300156094383915" lon="10.660132310230077"><ele>56.0</ele><time>2026-04-20T14:27:49Z</time></trkpt><trkpt lat="43.30011733522134" lon="10.659958413719846"><ele>57.0</ele><time>2026-04-20T14:27:50Z</time></trkpt><trkpt lat="43.300099591729946" lon="10.659775318046568"><ele>58.0</ele><time>2026-04-20T14:27:51Z</time></trkpt><trkpt lat="43.300104473109855" lon="10.659602252544847"><ele>58.25</ele><time>2026-04-20T14:27:52Z</time></trkpt><trkpt lat="43.30012761834607" lon="10.659440251382096"><ele>58.5</ele><time>2026-04-20T14:27:53Z</time></trkpt><trkpt lat="43.300177783353845" lon="10.659278203191564"><ele>58.75</ele><time>2026-04-20T14:27:54Z</time></trkpt><trkpt lat="43.30023490155015" lon="10.659123044661632"><ele>59.0</ele><time>2026-04-20T14:27:55Z</time></trkpt><trkpt lat="43.30027624609411" lon="10.65897415448262"><ele>59.0</ele><time>2026-04-20T14:27:56Z</time></trkpt><trkpt lat="43.30028922381404" lon="10.65880496047195"><ele>59.0</ele><time>2026-04-20T14:27:57Z</time></trkpt><trkpt lat="43.300273143558556" lon="10.658633984032415"><ele>59.0</ele><time>2026-04-20T14:27:58Z</time></trkpt><trkpt lat="43.300232299044644" lon="10.658475092587842"><ele>59.0</ele><time>2026-04-20T14:27:59Z</time></trkpt><trkpt lat="43.300178031232335" lon="10.65831825175814"><ele>60.0</ele><time>2026-04-20T14:28:00Z</time></trkpt><trkpt lat="43.30012521935915" lon="10.65815370069357"><ele>61.0</ele><time>2026-04-20T14:28:01Z</time></trkpt><trkpt lat="43.300078707546916" lon="10.657988983997353"><ele>62.0</ele><time>2026-04-20T14:28:02Z</time></trkpt><trkpt lat="43.300027578975666" lon="10.657820819788045"><ele>63.0</ele><time>2026-04-20T14:28:03Z</time></trkpt><trkpt lat="43.299973274897255" lon="10.657650852862076"><ele>64.75</ele><time>2026-04-20T14:28:04Z</time></trkpt><trkpt lat="43.299924604994935" lon="10.65748214918246"><ele>66.5</ele><time>2026-04-20T14:28:05Z</time></trkpt><trkpt lat="43.29986950864842" lon="10.657307911915657"><ele>68.25</ele><time>2026-04-20T14:28:06Z</time></trkpt><trkpt lat="43.29982394916498" lon="10.657158684415956"><ele>70.0</ele><time>2026-04-20T14:28:07Z</time></trkpt><trkpt lat="43.29979165309591" lon="10.657024677155027"><ele>70.4</ele><time>2026-04-20T14:28:08Z</time></trkpt><trkpt lat="43.29978260815909" lon="10.656896048474627"><ele>70.8</ele><time>2026-04-20T14:28:09Z</time></trkpt><trkpt lat="43.29979302769876" lon="10.656765547330247"><ele>71.2</ele><time>2026-04-20T14:28:10Z</time></trkpt><trkpt lat="43.29983872301868" lon="10.656628531581232"><ele>71.6</ele><time>2026-04-20T14:28:11Z</time></trkpt><trkpt lat="43.29990611566707" lon="10.656507875067762"><ele>72.0</ele><time>2026-04-20T14:28:12Z</time></trkpt><trkpt lat="43.299988335656046" lon="10.65639662163632"><ele>72.0</ele><time>2026-04-20T14:28:13Z</time></trkpt><trkpt lat="43.300074925190394" lon="10.656277491848629"><ele>72.0</ele><time>2026-04-20T14:28:14Z</time></trkpt><trkpt lat="43.30015041427368" lon="10.656163455335955"><ele>72.0</ele><time>2026-04-20T14:28:15Z</time></trkpt><trkpt lat="43.300225097264544" lon="10.65606150730402"><ele>72.0</ele><time>2026-04-20T14:28:16Z</time></trkpt><trkpt lat="43.300292128299866" lon="10.655947302270603"><ele>72.0</ele><time>2026-04-20T14:28:17Z</time></trkpt><trkpt lat="43.300339302461786" lon="10.655832661022325"><ele>72.0</ele><time>2026-04-20T14:28:18Z</time></trkpt><trkpt lat="43.30037720366879" lon="10.655704158061978"><ele>72.0</ele><time>2026-04-20T14:28:19Z</time></trkpt><trkpt lat="43.30039250895223" lon="10.65559583945694"><ele>72.0</ele><time>2026-04-20T14:28:20Z</time></trkpt><trkpt lat="43.30041130912679" lon="10.65547991559904"><ele>72.0</ele><time>2026-04-20T14:28:22Z</time></trkpt><trkpt lat="43.30041635306799" lon="10.655366535213322"><ele>72.0</ele><time>2026-04-20T14:29:28Z</time></trkpt><trkpt lat="43.30040519719988" lon="10.655212652016992"><ele>73.8</ele><time>2026-04-20T14:29:30Z</time></trkpt><trkpt lat="43.30040866262394" lon="10.65511649069965"><ele>75.6</ele><time>2026-04-20T14:29:31Z</time></trkpt><trkpt lat="43.300413366640946" lon="10.654993525452566"><ele>77.39999999999999</ele><time>2026-04-20T14:29:32Z</time></trkpt><trkpt lat="43.300422218447174" lon="10.65486520774851"><ele>79.2</ele><time>2026-04-20T14:29:33Z</time></trkpt><trkpt lat="43.30042692817846" lon="10.654719417308009"><ele>81.0</ele><time>2026-04-20T14:29:34Z</time></trkpt><trkpt lat="43.30043720580397" lon="10.65457337660477"><ele>82.6</ele><time>2026-04-20T14:29:35Z</time></trkpt><trkpt lat="43.300448904954415" lon="10.654413116822557"><ele>84.19999999999999</ele><time>2026-04-20T14:29:36Z</time></trkpt><trkpt lat="43.30046011301111" lon="10.654259665635692"><ele>85.80000000000001</ele><time>2026-04-20T14:29:37Z</time></trkpt><trkpt lat="43.300459126807894" lon="10.654125798435585"><ele>87.4</ele><time>2026-04-20T14:29:38Z</time></trkpt><trkpt lat="43.30046440309235" lon="10.653988922435543"><ele>89.0</ele><time>2026-04-20T14:29:39Z</time></trkpt><trkpt lat="43.300472808759004" lon="10.65384140773997"><ele>89.0</ele><time>2026-04-20T14:29:40Z</time></trkpt><trkpt lat="43.30048076937276" lon="10.653682203306627"><ele>89.0</ele><time>2026-04-20T14:29:41Z</time></trkpt><trkpt lat="43.30049962666037" lon="10.65353337206776"><ele>89.0</ele><time>2026-04-20T14:29:42Z</time></trkpt><trkpt lat="43.300513172824225" lon="10.653361479641825"><ele>89.0</ele><time>2026-04-20T14:29:43Z</time></trkpt><trkpt lat="43.300522159870084" lon="10.653188998324426"><ele>90.25</ele><time>2026-04-20T14:29:44Z</time></trkpt><trkpt lat="43.30053233332678" lon="10.653006936661777"><ele>91.5</ele><time>2026-04-20T14:29:45Z</time></trkpt><trkpt lat="43.300544655960095" lon="10.652821817146444"><ele>92.75</ele><time>2026-04-20T14:29:46Z</time></trkpt><trkpt lat="43.3005549581536" lon="10.652646647753235"><ele>94.0</ele><time>2026-04-20T14:29:47Z</time></trkpt><trkpt lat="43.300561291119095" lon="10.652478199487055"><ele>94.75</ele><time>2026-04-20T14:29:48Z</time></trkpt><trkpt lat="43.300560566481174" lon="10.65230537582925"><ele>95.5</ele><time>2026-04-20T14:29:49Z</time></trkpt><trkpt lat="43.300538394339696" lon="10.652144928987314"><ele>96.25</ele><time>2026-04-20T14:29:50Z</time></trkpt><trkpt lat="43.30048606895829" lon="10.651998656594266"><ele>97.0</ele><time>2026-04-20T14:29:51Z</time></trkpt><trkpt lat="43.30040601883257" lon="10.651871015924035"><ele>97.25</ele><time>2026-04-20T14:29:52Z</time></trkpt><trkpt lat="43.300306446747356" lon="10.65175725809429"><ele>97.5</ele><time>2026-04-20T14:29:53Z</time></trkpt><trkpt lat="43.3002045755468" lon="10.65163265638239"><ele>97.75</ele><time>2026-04-20T14:29:54Z</time></trkpt><trkpt lat="43.30012543976733" lon="10.651480330688925"><ele>98.0</ele><time>2026-04-20T14:29:55Z</time></trkpt><trkpt lat="43.300056951506555" lon="10.651306291623419"><ele>98.0</ele><time>2026-04-20T14:29:56Z</time></trkpt><trkpt lat="43.299992037616406" lon="10.65113852404529"><ele>98.0</ele><time>2026-04-20T14:29:57Z</time></trkpt><trkpt lat="43.29992629267504" lon="10.65096899803139"><ele>98.0</ele><time>2026-04-20T14:29:58Z</time></trkpt><trkpt lat="43.29985092413828" lon="10.65079167552077"><ele>98.0</ele><time>2026-04-20T14:29:59Z</time></trkpt><trkpt lat="43.29977200959493" lon="10.65061044765338"><ele>98.66666666666666</ele><time>2026-04-20T14:30:00Z</time></trkpt><trkpt lat="43.29969054447044" lon="10.650435207836354"><ele>99.33333333333334</ele><time>2026-04-20T14:30:01Z</time></trkpt><trkpt lat="43.2996116815254" lon="10.650252198717777"><ele>100.0</ele><time>2026-04-20T14:30:02Z</time></trkpt><trkpt lat="43.299545673187005" lon="10.650076285525483"><ele>100.0</ele><time>2026-04-20T14:30:03Z</time></trkpt><trkpt lat="43.29948424182193" lon="10.649897765826706"><ele>100.0</ele><time>2026-04-20T14:30:04Z</time></trkpt><trkpt lat="43.29943344013557" lon="10.649704899109562"><ele>100.0</ele><time>2026-04-20T14:30:05Z</time></trkpt><trkpt lat="43.29939964773022" lon="10.649505462956341"><ele>100.0</ele><time>2026-04-20T14:30:06Z</time></trkpt><trkpt lat="43.29937947823901" lon="10.649300208200366"><ele>100.33333333333334</ele><time>2026-04-20T14:30:07Z</time></trkpt><trkpt lat="43.299363120612966" lon="10.649092834887744"><ele>100.66666666666666</ele><time>2026-04-20T14:30:08Z</time></trkpt><trkpt lat="43.29934485385216" lon="10.648883163511693"><ele>101.0</ele><time>2026-04-20T14:30:09Z</time></trkpt><trkpt lat="43.29932674989989" lon="10.648676321363995"><ele>102.5</ele><time>2026-04-20T14:30:10Z</time></trkpt><trkpt lat="43.29930811620778" lon="10.648470816196964"><ele>104.0</ele><time>2026-04-20T14:30:11Z</time></trkpt><trkpt lat="43.299287750632566" lon="10.648262997552587"><ele>105.5</ele><time>2026-04-20T14:30:12Z</time></trkpt><trkpt lat="43.29926887201944" lon="10.648090875707918"><ele>107.0</ele><time>2026-04-20T14:30:13Z</time></trkpt><trkpt lat="43.299254337445234" lon="10.647918329307169"><ele>108.75</ele><time>2026-04-20T14:30:14Z</time></trkpt><trkpt lat="43.29924137936688" lon="10.647756823223842"><ele>110.5</ele><time>2026-04-20T14:30:15Z</time></trkpt><trkpt lat="43.29923104084654" lon="10.647605868995763"><ele>112.25</ele><time>2026-04-20T14:30:16Z</time></trkpt><trkpt lat="43.299214462690564" lon="10.647433597895697"><ele>114.0</ele><time>2026-04-20T14:30:17Z</time></trkpt><trkpt lat="43.29920281802054" lon="10.647262106900929"><ele>114.0</ele><time>2026-04-20T14:30:18Z</time></trkpt><trkpt lat="43.29919630289155" lon="10.647091284028237"><ele>114.0</ele><time>2026-04-20T14:30:19Z</time></trkpt><trkpt lat="43.29918739186285" lon="10.646917246837894"><ele>114.0</ele><time>2026-04-20T14:30:20Z</time></trkpt><trkpt lat="43.299168919432965" lon="10.6467358951671"><ele>114.0</ele><time>2026-04-20T14:30:21Z</time></trkpt><trkpt lat="43.29915943534352" lon="10.646555329461998"><ele>115.25</ele><time>2026-04-20T14:30:22Z</time></trkpt><trkpt lat="43.299150207700954" lon="10.646372520077199"><ele>116.5</ele><time>2026-04-20T14:30:23Z</time></trkpt><trkpt lat="43.29914047406919" lon="10.646183415841392"><ele>117.75</ele><time>2026-04-20T14:30:24Z</time></trkpt><trkpt lat="43.29912664028561" lon="10.646012699030422"><ele>119.0</ele><time>2026-04-20T14:30:25Z</time></trkpt><trkpt lat="43.299114935922006" lon="10.64587194724037"><ele>119.4</ele><time>2026-04-20T14:30:26Z</time></trkpt><trkpt lat="43.29909652441381" lon="10.645751683726713"><ele>119.80000000000001</ele><time>2026-04-20T14:30:27Z</time></trkpt><trkpt lat="43.29907089292075" lon="10.645660950468118"><ele>120.19999999999999</ele><time>2026-04-20T14:30:28Z</time></trkpt><trkpt lat="43.299043937292026" lon="10.645505309346007"><ele>120.6</ele><time>2026-04-20T14:30:30Z</time></trkpt><trkpt lat="43.29898015219312" lon="10.645435723430934"><ele>121.0</ele><time>2026-04-20T14:30:32Z</time></trkpt><trkpt lat="43.298807638467615" lon="10.645622444010733"><ele>123.19999999999999</ele><time>2026-04-20T14:30:33Z</time></trkpt><trkpt lat="43.298746436494056" lon="10.64571172441247"><ele>125.39999999999999</ele><time>2026-04-20T14:30:34Z</time></trkpt><trkpt lat="43.29868534000395" lon="10.645818617303867"><ele>127.6</ele><time>2026-04-20T14:30:35Z</time></trkpt><trkpt lat="43.29861319308642" lon="10.64590216214243"><ele>129.79999999999998</ele><time>2026-04-20T14:30:36Z</time></trkpt><trkpt lat="43.298519313298144" lon="10.64595741059871"><ele>132.0</ele><time>2026-04-20T14:30:37Z</time></trkpt><trkpt lat="43.298414603506004" lon="10.645977714580267"><ele>132.0</ele><time>2026-04-20T14:30:38Z</time></trkpt><trkpt lat="43.29830670097382" lon="10.645963762752986"><ele>132.0</ele><time>2026-04-20T14:30:39Z</time></trkpt><trkpt lat="43.29819619275553" lon="10.645926244016907"><ele>132.0</ele><time>2026-04-20T14:30:40Z</time></trkpt><trkpt lat="43.29808100963636" lon="10.645884796594949"><ele>132.0</ele><time>2026-04-20T14:30:41Z</time></trkpt><trkpt lat="43.297963631866935" lon="10.64582822346634"><ele>132.0</ele><time>2026-04-20T14:30:42Z</time></trkpt><trkpt lat="43.297846469006096" lon="10.645752744347716"><ele>132.0</ele><time>2026-04-20T14:30:43Z</time></trkpt><trkpt lat="43.29773010739058" lon="10.645660839955543"><ele>132.0</ele><time>2026-04-20T14:30:44Z</time></trkpt><trkpt lat="43.297612164288516" lon="10.645555005554945"><ele>132.0</ele><time>2026-04-20T14:30:45Z</time></trkpt><trkpt lat="43.29749398047705" lon="10.645454189215009"><ele>132.0</ele><time>2026-04-20T14:30:46Z</time></trkpt><trkpt lat="43.29737251069985" lon="10.645353975565122"><ele>132.0</ele><time>2026-04-20T14:30:47Z</time></trkpt><trkpt lat="43.297251364949446" lon="10.645251664700453"><ele>132.0</ele><time>2026-04-20T14:30:48Z</time></trkpt><trkpt lat="43.29713225967563" lon="10.645140921267986"><ele>132.0</ele><time>2026-04-20T14:30:49Z</time></trkpt><trkpt lat="43.297011036570815" lon="10.645027330997719"><ele>135.0</ele><time>2026-04-20T14:30:50Z</time></trkpt><trkpt lat="43.29689335042071" lon="10.644901732823328"><ele>138.0</ele><time>2026-04-20T14:30:51Z</time></trkpt><trkpt lat="43.29677587699599" lon="10.64477106561188"><ele>141.0</ele><time>2026-04-20T14:30:52Z</time></trkpt><trkpt lat="43.296646626220785" lon="10.644656359507195"><ele>141.0</ele><time>2026-04-20T14:30:53Z</time></trkpt><trkpt lat="43.29650856814225" lon="10.644552318482319"><ele>141.0</ele><time>2026-04-20T14:30:54Z</time></trkpt><trkpt lat="43.29637745829384" lon="10.644438021339713"><ele>141.0</ele><time>2026-04-20T14:30:55Z</time></trkpt><trkpt lat="43.296255431796325" lon="10.644323059300653"><ele>143.33333333333334</ele><time>2026-04-20T14:30:56Z</time></trkpt><trkpt lat="43.29613172540062" lon="10.644197836485038"><ele>145.66666666666669</ele><time>2026-04-20T14:30:57Z</time></trkpt><trkpt lat="43.296008967457986" lon="10.644068137925101"><ele>148.0</ele><time>2026-04-20T14:30:58Z</time></trkpt><trkpt lat="43.29588519568904" lon="10.643936484586892"><ele>148.0</ele><time>2026-04-20T14:30:59Z</time></trkpt><trkpt lat="43.29575919906629" lon="10.643803393391275"><ele>148.0</ele><time>2026-04-20T14:31:00Z</time></trkpt><trkpt lat="43.295640074800346" lon="10.643675439798876"><ele>148.0</ele><time>2026-04-20T14:31:01Z</time></trkpt><trkpt lat="43.295534337550734" lon="10.643561904940402"><ele>148.0</ele><time>2026-04-20T14:31:02Z</time></trkpt><trkpt lat="43.295439221191366" lon="10.643460194171315"><ele>148.75</ele><time>2026-04-20T14:31:03Z</time></trkpt><trkpt lat="43.29536261817464" lon="10.64334018591518"><ele>149.5</ele><time>2026-04-20T14:31:04Z</time></trkpt><trkpt lat="43.29526882028878" lon="10.64322649290599"><ele>150.25</ele><time>2026-04-20T14:31:05Z</time></trkpt><trkpt lat="43.29520178097184" lon="10.643070274223394"><ele>151.0</ele><time>2026-04-20T14:31:06Z</time></trkpt><trkpt lat="43.29513894091488" lon="10.64290493184078"><ele>152.5</ele><time>2026-04-20T14:31:07Z</time></trkpt><trkpt lat="43.29507254986619" lon="10.642733884937423"><ele>154.0</ele><time>2026-04-20T14:31:08Z</time></trkpt><trkpt lat="43.29499620548926" lon="10.642578375159932"><ele>155.5</ele><time>2026-04-20T14:31:09Z</time></trkpt><trkpt lat="43.29490420341264" lon="10.642425317422774"><ele>157.0</ele><time>2026-04-20T14:31:10Z</time></trkpt><trkpt lat="43.2948024656552" lon="10.642281772622585"><ele>156.25</ele><time>2026-04-20T14:31:11Z</time></trkpt><trkpt lat="43.29469217117009" lon="10.642146439602309"><ele>155.5</ele><time>2026-04-20T14:31:12Z</time></trkpt><trkpt lat="43.29458325922633" lon="10.642010759401174"><ele>154.75</ele><time>2026-04-20T14:31:13Z</time></trkpt><trkpt lat="43.29447793241406" lon="10.641871878803311"><ele>154.0</ele><time>2026-04-20T14:31:14Z</time></trkpt><trkpt lat="43.29437424106533" lon="10.641726023074847"><ele>154.0</ele><time>2026-04-20T14:31:15Z</time></trkpt><trkpt lat="43.29427746510809" lon="10.641570672433174"><ele>154.0</ele><time>2026-04-20T14:31:16Z</time></trkpt><trkpt lat="43.2941911061015" lon="10.641403385108195"><ele>154.0</ele><time>2026-04-20T14:31:17Z</time></trkpt><trkpt lat="43.294107996065044" lon="10.641232996205414"><ele>154.0</ele><time>2026-04-20T14:31:18Z</time></trkpt><trkpt lat="43.294026974997664" lon="10.641059176902733"><ele>157.5</ele><time>2026-04-20T14:31:19Z</time></trkpt><trkpt lat="43.29395696815751" lon="10.640894625657845"><ele>161.0</ele><time>2026-04-20T14:31:20Z</time></trkpt><trkpt lat="43.29390134919443" lon="10.640737415422434"><ele>164.5</ele><time>2026-04-20T14:31:21Z</time></trkpt><trkpt lat="43.29385794824737" lon="10.640562920080736"><ele>168.0</ele><time>2026-04-20T14:31:22Z</time></trkpt><trkpt lat="43.293832556426715" lon="10.640374964234159"><ele>164.6</ele><time>2026-04-20T14:31:23Z</time></trkpt><trkpt lat="43.29380440659442" lon="10.640188033079573"><ele>161.20000000000002</ele><time>2026-04-20T14:31:24Z</time></trkpt><trkpt lat="43.29376839249099" lon="10.640017619481908"><ele>157.8</ele><time>2026-04-20T14:31:25Z</time></trkpt><trkpt lat="43.29373378058979" lon="10.639897562675285"><ele>154.4</ele><time>2026-04-20T14:31:26Z</time></trkpt><trkpt lat="43.293691683564546" lon="10.63979395298914"><ele>151.0</ele><time>2026-04-20T14:31:27Z</time></trkpt><trkpt lat="43.29364385288183" lon="10.63968240524281"><ele>151.0</ele><time>2026-04-20T14:31:28Z</time></trkpt><trkpt lat="43.29358983089945" lon="10.639558312940027"><ele>151.0</ele><time>2026-04-20T14:31:29Z</time></trkpt><trkpt lat="43.293528546899374" lon="10.639434070863103"><ele>151.0</ele><time>2026-04-20T14:31:30Z</time></trkpt><trkpt lat="43.293450244772586" lon="10.639312310002959"><ele>151.0</ele><time>2026-04-20T14:31:31Z</time></trkpt><trkpt lat="43.293367690446026" lon="10.639183818101392"><ele>153.6</ele><time>2026-04-20T14:31:32Z</time></trkpt><trkpt lat="43.29330591341181" lon="10.639078586394987"><ele>156.2</ele><time>2026-04-20T14:31:33Z</time></trkpt><trkpt lat="43.293260478297206" lon="10.638987588974409"><ele>158.79999999999998</ele><time>2026-04-20T14:31:34Z</time></trkpt><trkpt lat="43.293221707186234" lon="10.63888577067924"><ele>161.39999999999998</ele><time>2026-04-20T14:31:35Z</time></trkpt><trkpt lat="43.29319383637363" lon="10.638757846740862"><ele>164.0</ele><time>2026-04-20T14:31:36Z</time></trkpt><trkpt lat="43.29318279040259" lon="10.638608783567523"><ele>165.25</ele><time>2026-04-20T14:31:37Z</time></trkpt><trkpt lat="43.29318599170765" lon="10.638449828463635"><ele>166.5</ele><time>2026-04-20T14:31:38Z</time></trkpt><trkpt lat="43.29319833822921" lon="10.638287748618517"><ele>167.75</ele><time>2026-04-20T14:31:39Z</time></trkpt><trkpt lat="43.29321791142701" lon="10.638112620614322"><ele>169.0</ele><time>2026-04-20T14:31:40Z</time></trkpt><trkpt lat="43.29323860553035" lon="10.637928409764992"><ele>168.5</ele><time>2026-04-20T14:31:41Z</time></trkpt><trkpt lat="43.29324796408222" lon="10.637751181793085"><ele>168.0</ele><time>2026-04-20T14:31:42Z</time></trkpt><trkpt lat="43.293251630083645" lon="10.637580780926669"><ele>167.5</ele><time>2026-04-20T14:31:43Z</time></trkpt><trkpt lat="43.293246794278744" lon="10.637396639988525"><ele>167.0</ele><time>2026-04-20T14:31:44Z</time></trkpt><trkpt lat="43.29324619172445" lon="10.637212406471653"><ele>167.0</ele><time>2026-04-20T14:31:45Z</time></trkpt><trkpt lat="43.293244840700126" lon="10.637036369809993"><ele>167.0</ele><time>2026-04-20T14:31:46Z</time></trkpt><trkpt lat="43.29324316528218" lon="10.63689148431006"><ele>167.0</ele><time>2026-04-20T14:31:47Z</time></trkpt><trkpt lat="43.29325567128617" lon="10.636767124026028"><ele>167.0</ele><time>2026-04-20T14:31:48Z</time></trkpt><trkpt lat="43.29327832975384" lon="10.636633383559369"><ele>167.0</ele><time>2026-04-20T14:31:49Z</time></trkpt><trkpt lat="43.29332149645045" lon="10.636499403742025"><ele>167.0</ele><time>2026-04-20T14:31:50Z</time></trkpt><trkpt lat="43.293360902562036" lon="10.636359218750178"><ele>167.0</ele><time>2026-04-20T14:31:51Z</time></trkpt><trkpt lat="43.29338657985135" lon="10.636200139397886"><ele>167.0</ele><time>2026-04-20T14:31:52Z</time></trkpt><trkpt lat="43.293400469874385" lon="10.636028691584418"><ele>167.0</ele><time>2026-04-20T14:31:53Z</time></trkpt><trkpt lat="43.29340082971805" lon="10.63585327155709"><ele>166.25</ele><time>2026-04-20T14:31:54Z</time></trkpt><trkpt lat="43.293385991121305" lon="10.635679955463631"><ele>165.5</ele><time>2026-04-20T14:31:55Z</time></trkpt><trkpt lat="43.29336432656006" lon="10.6354972722705"><ele>164.75</ele><time>2026-04-20T14:31:56Z</time></trkpt><trkpt lat="43.29333820703437" lon="10.635309092223684"><ele>164.0</ele><time>2026-04-20T14:31:57Z</time></trkpt><trkpt lat="43.29330214662648" lon="10.635139214615297"><ele>163.25</ele><time>2026-04-20T14:31:58Z</time></trkpt><trkpt lat="43.29326397974381" lon="10.634960569230621"><ele>162.5</ele><time>2026-04-20T14:31:59Z</time></trkpt><trkpt lat="43.29323735491293" lon="10.634783515311012"><ele>161.75</ele><time>2026-04-20T14:32:00Z</time></trkpt><trkpt lat="43.29322834222382" lon="10.634600001749202"><ele>161.0</ele><time>2026-04-20T14:32:01Z</time></trkpt><trkpt lat="43.29322054042463" lon="10.63441115274255"><ele>160.33333333333331</ele><time>2026-04-20T14:32:02Z</time></trkpt><trkpt lat="43.29322183788666" lon="10.634200578958124"><ele>159.66666666666666</ele><time>2026-04-20T14:32:03Z</time></trkpt><trkpt lat="43.29323091090593" lon="10.633989914845644"><ele>159.0</ele><time>2026-04-20T14:32:04Z</time></trkpt><trkpt lat="43.29325009015971" lon="10.633781427905024"><ele>157.66666666666666</ele><time>2026-04-20T14:32:05Z</time></trkpt><trkpt lat="43.29325861746023" lon="10.633574981421742"><ele>156.33333333333331</ele><time>2026-04-20T14:32:06Z</time></trkpt><trkpt lat="43.293269434941465" lon="10.633364170139515"><ele>155.0</ele><time>2026-04-20T14:32:07Z</time></trkpt><trkpt lat="43.2932857872875" lon="10.633157806174491"><ele>155.0</ele><time>2026-04-20T14:32:08Z</time></trkpt><trkpt lat="43.293293776175275" lon="10.632953520430643"><ele>155.0</ele><time>2026-04-20T14:32:09Z</time></trkpt><trkpt lat="43.29329820492" lon="10.632765962914574"><ele>155.0</ele><time>2026-04-20T14:32:10Z</time></trkpt><trkpt lat="43.2933052479316" lon="10.632578473156062"><ele>155.0</ele><time>2026-04-20T14:32:11Z</time></trkpt><trkpt lat="43.29331814100834" lon="10.632395742476888"><ele>154.0</ele><time>2026-04-20T14:32:12Z</time></trkpt><trkpt lat="43.293330691530905" lon="10.632218651760642"><ele>153.0</ele><time>2026-04-20T14:32:13Z</time></trkpt><trkpt lat="43.293344219330066" lon="10.632048316809986"><ele>152.0</ele><time>2026-04-20T14:32:14Z</time></trkpt><trkpt lat="43.29336335217654" lon="10.631887290768645"><ele>151.0</ele><time>2026-04-20T14:32:15Z</time></trkpt><trkpt lat="43.293390821409524" lon="10.631709239376976"><ele>150.25</ele><time>2026-04-20T14:32:16Z</time></trkpt><trkpt lat="43.29343477477496" lon="10.631528113169646"><ele>149.5</ele><time>2026-04-20T14:32:17Z</time></trkpt><trkpt lat="43.293487721257804" lon="10.631346204537554"><ele>148.75</ele><time>2026-04-20T14:32:18Z</time></trkpt><trkpt lat="43.293533414052256" lon="10.631184021746627"><ele>148.0</ele><time>2026-04-20T14:32:19Z</time></trkpt><trkpt lat="43.29357969729698" lon="10.631044442513648"><ele>147.20000000000002</ele><time>2026-04-20T14:32:20Z</time></trkpt><trkpt lat="43.29361514195206" lon="10.630920300768999"><ele>146.4</ele><time>2026-04-20T14:32:21Z</time></trkpt><trkpt lat="43.293653788388184" lon="10.630811754734093"><ele>145.60000000000002</ele><time>2026-04-20T14:32:22Z</time></trkpt><trkpt lat="43.29367529604645" lon="10.630701545147241"><ele>144.8</ele><time>2026-04-20T14:32:23Z</time></trkpt><trkpt lat="43.293661993048616" lon="10.630575809373768"><ele>144.0</ele><time>2026-04-20T14:32:24Z</time></trkpt><trkpt lat="43.29360698868671" lon="10.630438983075262"><ele>143.5</ele><time>2026-04-20T14:32:25Z</time></trkpt><trkpt lat="43.29355391704688" lon="10.630305701152508"><ele>143.0</ele><time>2026-04-20T14:32:26Z</time></trkpt><trkpt lat="43.293491395708855" lon="10.630163889059812"><ele>142.5</ele><time>2026-04-20T14:32:27Z</time></trkpt><trkpt lat="43.29342771219836" lon="10.630017408004976"><ele>142.0</ele><time>2026-04-20T14:32:28Z</time></trkpt><trkpt lat="43.293358441828694" lon="10.6298960027953"><ele>142.0</ele><time>2026-04-20T14:32:29Z</time></trkpt><trkpt lat="43.29327840305236" lon="10.629782412135976"><ele>142.0</ele><time>2026-04-20T14:32:30Z</time></trkpt><trkpt lat="43.29319692813233" lon="10.629656293455733"><ele>142.0</ele><time>2026-04-20T14:32:31Z</time></trkpt><trkpt lat="43.293132244176874" lon="10.629529730029558"><ele>142.0</ele><time>2026-04-20T14:32:32Z</time></trkpt><trkpt lat="43.29306804067316" lon="10.629390499659106"><ele>137.75</ele><time>2026-04-20T14:32:33Z</time></trkpt><trkpt lat="43.29301101801889" lon="10.629232442952196"><ele>133.5</ele><time>2026-04-20T14:32:34Z</time></trkpt><trkpt lat="43.29294963862249" lon="10.629057922732978"><ele>129.25</ele><time>2026-04-20T14:32:35Z</time></trkpt><trkpt lat="43.292894726913026" lon="10.628886866714018"><ele>125.0</ele><time>2026-04-20T14:32:36Z</time></trkpt><trkpt lat="43.29283766765266" lon="10.628713169320166"><ele>126.75</ele><time>2026-04-20T14:32:37Z</time></trkpt><trkpt lat="43.29277942877538" lon="10.628538638265894"><ele>128.5</ele><time>2026-04-20T14:32:38Z</time></trkpt><trkpt lat="43.29272639894708" lon="10.628362765617275"><ele>130.25</ele><time>2026-04-20T14:32:39Z</time></trkpt><trkpt lat="43.292681425502096" lon="10.628195484747751"><ele>132.0</ele><time>2026-04-20T14:32:40Z</time></trkpt><trkpt lat="43.29263434029102" lon="10.628034288588356"><ele>132.0</ele><time>2026-04-20T14:32:41Z</time></trkpt><trkpt lat="43.292595884752245" lon="10.627866111223153"><ele>132.0</ele><time>2026-04-20T14:32:42Z</time></trkpt><trkpt lat="43.29257747863992" lon="10.627688281632105"><ele>132.0</ele><time>2026-04-20T14:32:43Z</time></trkpt><trkpt lat="43.29258223278433" lon="10.627490370949618"><ele>132.0</ele><time>2026-04-20T14:32:44Z</time></trkpt><trkpt lat="43.29259823164958" lon="10.627281781906783"><ele>131.75</ele><time>2026-04-20T14:32:45Z</time></trkpt><trkpt lat="43.292604888220055" lon="10.627079248924062"><ele>131.5</ele><time>2026-04-20T14:32:46Z</time></trkpt><trkpt lat="43.2926048780148" lon="10.626879802833699"><ele>131.25</ele><time>2026-04-20T14:32:47Z</time></trkpt><trkpt lat="43.292595396930736" lon="10.626673268446057"><ele>131.0</ele><time>2026-04-20T14:32:48Z</time></trkpt><trkpt lat="43.292573161154664" lon="10.626463428258168"><ele>129.75</ele><time>2026-04-20T14:32:49Z</time></trkpt><trkpt lat="43.292546848489465" lon="10.626254549272065"><ele>128.5</ele><time>2026-04-20T14:32:50Z</time></trkpt><trkpt lat="43.292522769183584" lon="10.626058918233898"><ele>127.25</ele><time>2026-04-20T14:32:51Z</time></trkpt><trkpt lat="43.29250255645336" lon="10.62587136541983"><ele>126.0</ele><time>2026-04-20T14:32:52Z</time></trkpt><trkpt lat="43.29248360587817" lon="10.625699937100537"><ele>125.0</ele><time>2026-04-20T14:32:53Z</time></trkpt><trkpt lat="43.292469254244914" lon="10.625528773120386"><ele>124.0</ele><time>2026-04-20T14:32:54Z</time></trkpt><trkpt lat="43.292475231416816" lon="10.62534028570008"><ele>123.0</ele><time>2026-04-20T14:32:55Z</time></trkpt><trkpt lat="43.29249752718495" lon="10.625140777177544"><ele>122.0</ele><time>2026-04-20T14:32:56Z</time></trkpt><trkpt lat="43.29252889880539" lon="10.624933619713666"><ele>121.33333333333333</ele><time>2026-04-20T14:32:57Z</time></trkpt><trkpt lat="43.29255832953636" lon="10.624715573912313"><ele>120.66666666666666</ele><time>2026-04-20T14:32:58Z</time></trkpt><trkpt lat="43.29258974859091" lon="10.624492954058706"><ele>120.0</ele><time>2026-04-20T14:32:59Z</time></trkpt><trkpt lat="43.29261779756679" lon="10.624276702732635"><ele>118.33333333333334</ele><time>2026-04-20T14:33:00Z</time></trkpt><trkpt lat="43.29264560044147" lon="10.624063265544073"><ele>116.66666666666667</ele><time>2026-04-20T14:33:01Z</time></trkpt><trkpt lat="43.29267425399205" lon="10.62384167066111"><ele>115.0</ele><time>2026-04-20T14:33:02Z</time></trkpt><trkpt lat="43.29270619239879" lon="10.62363147132627"><ele>113.5</ele><time>2026-04-20T14:33:03Z</time></trkpt><trkpt lat="43.292736709224" lon="10.62343497766847"><ele>112.0</ele><time>2026-04-20T14:33:04Z</time></trkpt><trkpt lat="43.2927631484102" lon="10.623251363250398"><ele>110.5</ele><time>2026-04-20T14:33:05Z</time></trkpt><trkpt lat="43.2927823209468" lon="10.623095483336973"><ele>109.0</ele><time>2026-04-20T14:33:06Z</time></trkpt><trkpt lat="43.29280494589974" lon="10.622930915215637"><ele>108.5</ele><time>2026-04-20T14:33:07Z</time></trkpt><trkpt lat="43.292776044551374" lon="10.62277393332967"><ele>108.0</ele><time>2026-04-20T14:33:08Z</time></trkpt><trkpt lat="43.29274013476655" lon="10.622614334202996"><ele>107.5</ele><time>2026-04-20T14:33:09Z</time></trkpt><trkpt lat="43.29267440981228" lon="10.622467791086946"><ele>107.0</ele><time>2026-04-20T14:33:10Z</time></trkpt><trkpt lat="43.292580390524215" lon="10.622320492353147"><ele>107.0</ele><time>2026-04-20T14:33:11Z</time></trkpt><trkpt lat="43.292477771253175" lon="10.622178860957806"><ele>107.0</ele><time>2026-04-20T14:33:12Z</time></trkpt><trkpt lat="43.292359380310174" lon="10.622027948808231"><ele>107.0</ele><time>2026-04-20T14:33:13Z</time></trkpt><trkpt lat="43.29224664056191" lon="10.621861072688052"><ele>105.0</ele><time>2026-04-20T14:33:14Z</time></trkpt><trkpt lat="43.292141094381854" lon="10.621706091928138"><ele>103.0</ele><time>2026-04-20T14:33:15Z</time></trkpt><trkpt lat="43.29203693817547" lon="10.621551809796141"><ele>101.0</ele><time>2026-04-20T14:33:16Z</time></trkpt><trkpt lat="43.29193073369829" lon="10.621400302102593"><ele>101.0</ele><time>2026-04-20T14:33:17Z</time></trkpt><trkpt lat="43.2918191654337" lon="10.621242504780707"><ele>101.0</ele><time>2026-04-20T14:33:18Z</time></trkpt><trkpt lat="43.291713762441695" lon="10.621073521097502"><ele>101.0</ele><time>2026-04-20T14:33:19Z</time></trkpt><trkpt lat="43.291618583202364" lon="10.620888096763487"><ele>101.0</ele><time>2026-04-20T14:33:20Z</time></trkpt><trkpt lat="43.2915280618583" lon="10.620691857025125"><ele>101.0</ele><time>2026-04-20T14:33:21Z</time></trkpt><trkpt lat="43.29144410262182" lon="10.62050320525652"><ele>101.0</ele><time>2026-04-20T14:33:22Z</time></trkpt><trkpt lat="43.291364756432735" lon="10.620327584614955"><ele>100.5</ele><time>2026-04-20T14:33:23Z</time></trkpt><trkpt lat="43.29128743217098" lon="10.620158913422424"><ele>100.0</ele><time>2026-04-20T14:33:24Z</time></trkpt><trkpt lat="43.29121065174915" lon="10.619997122889407"><ele>99.5</ele><time>2026-04-20T14:33:25Z</time></trkpt><trkpt lat="43.2911271548641" lon="10.619856116224472"><ele>99.0</ele><time>2026-04-20T14:33:26Z</time></trkpt><trkpt lat="43.2910162485244" lon="10.6197203849683"><ele>99.0</ele><time>2026-04-20T14:33:27Z</time></trkpt><trkpt lat="43.2908850303678" lon="10.6196137314392"><ele>99.0</ele><time>2026-04-20T14:33:28Z</time></trkpt><trkpt lat="43.29074034005722" lon="10.619518210421576"><ele>99.0</ele><time>2026-04-20T14:33:29Z</time></trkpt><trkpt lat="43.29058924946023" lon="10.619430114253007"><ele>96.33333333333333</ele><time>2026-04-20T14:33:30Z</time></trkpt><trkpt lat="43.29044713929252" lon="10.619347562326116"><ele>93.66666666666666</ele><time>2026-04-20T14:33:31Z</time></trkpt><trkpt lat="43.29029572225903" lon="10.619260515005132"><ele>91.0</ele><time>2026-04-20T14:33:32Z</time></trkpt><trkpt lat="43.290142394316646" lon="10.619201786675493"><ele>91.0</ele><time>2026-04-20T14:33:33Z</time></trkpt><trkpt lat="43.28997773557855" lon="10.619155638927996"><ele>91.0</ele><time>2026-04-20T14:33:34Z</time></trkpt><trkpt lat="43.289827363547225" lon="10.619129121591268"><ele>91.0</ele><time>2026-04-20T14:33:35Z</time></trkpt><trkpt lat="43.28968677678608" lon="10.619102167900598"><ele>91.0</ele><time>2026-04-20T14:33:36Z</time></trkpt><trkpt lat="43.289569244595704" lon="10.619078947157892"><ele>91.0</ele><time>2026-04-20T14:33:37Z</time></trkpt><trkpt lat="43.2894708399531" lon="10.6190608726491"><ele>91.0</ele><time>2026-04-20T14:33:38Z</time></trkpt><trkpt lat="43.289391554626654" lon="10.619041198515054"><ele>91.0</ele><time>2026-04-20T14:33:39Z</time></trkpt><trkpt lat="43.289294158513876" lon="10.618993445412235"><ele>91.0</ele><time>2026-04-20T14:33:41Z</time></trkpt><trkpt lat="43.28927608097433" lon="10.618876806433985"><ele>91.0</ele><time>2026-04-20T14:33:43Z</time></trkpt><trkpt lat="43.28938457205031" lon="10.61879506890995"><ele>91.0</ele><time>2026-04-20T14:33:45Z</time></trkpt><trkpt lat="43.28947763473594" lon="10.618800738998223"><ele>91.0</ele><time>2026-04-20T14:33:46Z</time></trkpt><trkpt lat="43.289581888516494" lon="10.618785173202768"><ele>91.0</ele><time>2026-04-20T14:33:47Z</time></trkpt><trkpt lat="43.28968706567714" lon="10.618746610506449"><ele>91.0</ele><time>2026-04-20T14:33:48Z</time></trkpt><trkpt lat="43.2898013166311" lon="10.618695273574911"><ele>88.75</ele><time>2026-04-20T14:33:49Z</time></trkpt><trkpt lat="43.289921202325885" lon="10.618642335324896"><ele>86.5</ele><time>2026-04-20T14:33:50Z</time></trkpt><trkpt lat="43.29004162963568" lon="10.618583704341205"><ele>84.25</ele><time>2026-04-20T14:33:51Z</time></trkpt><trkpt lat="43.290160902344454" lon="10.618514847221586"><ele>82.0</ele><time>2026-04-20T14:33:52Z</time></trkpt><trkpt lat="43.29028702837221" lon="10.618448621688373"><ele>82.0</ele><time>2026-04-20T14:33:53Z</time></trkpt><trkpt lat="43.2904067884191" lon="10.618378386362105"><ele>82.0</ele><time>2026-04-20T14:33:54Z</time></trkpt><trkpt lat="43.290524181716215" lon="10.618305563386052"><ele>82.0</ele><time>2026-04-20T14:33:55Z</time></trkpt><trkpt lat="43.29063800441282" lon="10.618202946862263"><ele>82.0</ele><time>2026-04-20T14:33:56Z</time></trkpt><trkpt lat="43.29074688406615" lon="10.618075044219312"><ele>82.19999999999999</ele><time>2026-04-20T14:33:57Z</time></trkpt><trkpt lat="43.2908369931042" lon="10.617945432718248"><ele>82.4</ele><time>2026-04-20T14:33:58Z</time></trkpt><trkpt lat="43.290919123924674" lon="10.617818523657768"><ele>82.6</ele><time>2026-04-20T14:33:59Z</time></trkpt><trkpt lat="43.290976589806675" lon="10.617716481152074"><ele>82.80000000000001</ele><time>2026-04-20T14:34:00Z</time></trkpt><trkpt lat="43.29101836563499" lon="10.617614391503018"><ele>83.0</ele><time>2026-04-20T14:34:01Z</time></trkpt><trkpt lat="43.29102787961542" lon="10.617497755095986"><ele>82.60000000000001</ele><time>2026-04-20T14:34:02Z</time></trkpt><trkpt lat="43.291001989503556" lon="10.617371318190646"><ele>82.2</ele><time>2026-04-20T14:34:03Z</time></trkpt><trkpt lat="43.29093213499022" lon="10.617263845718494"><ele>81.8</ele><time>2026-04-20T14:34:04Z</time></trkpt><trkpt lat="43.2908497022158" lon="10.617176384145543"><ele>81.4</ele><time>2026-04-20T14:34:05Z</time></trkpt><trkpt lat="43.290756287338944" lon="10.617103847495938"><ele>81.0</ele><time>2026-04-20T14:34:06Z</time></trkpt><trkpt lat="43.29065705415135" lon="10.617031664774723"><ele>81.25</ele><time>2026-04-20T14:34:07Z</time></trkpt><trkpt lat="43.29055523619917" lon="10.616954523839727"><ele>81.5</ele><time>2026-04-20T14:34:08Z</time></trkpt><trkpt lat="43.290450552598024" lon="10.616869469004815"><ele>81.75</ele><time>2026-04-20T14:34:09Z</time></trkpt><trkpt lat="43.29036229079224" lon="10.61677044742613"><ele>82.0</ele><time>2026-04-20T14:34:10Z</time></trkpt><trkpt lat="43.29029821176749" lon="10.61665387770287"><ele>82.0</ele><time>2026-04-20T14:34:11Z</time></trkpt><trkpt lat="43.290258672284146" lon="10.616519039636648"><ele>82.0</ele><time>2026-04-20T14:34:12Z</time></trkpt><trkpt lat="43.29023836525656" lon="10.616361087883389"><ele>82.0</ele><time>2026-04-20T14:34:13Z</time></trkpt><trkpt lat="43.29023122988366" lon="10.616196806029636"><ele>82.0</ele><time>2026-04-20T14:34:14Z</time></trkpt><trkpt lat="43.29021539432803" lon="10.616019388988114"><ele>82.5</ele><time>2026-04-20T14:34:15Z</time></trkpt><trkpt lat="43.29018122392087" lon="10.615839328045237"><ele>83.0</ele><time>2026-04-20T14:34:16Z</time></trkpt><trkpt lat="43.29013075895125" lon="10.615655514966207"><ele>83.5</ele><time>2026-04-20T14:34:17Z</time></trkpt><trkpt lat="43.29007032362634" lon="10.615480103756207"><ele>84.0</ele><time>2026-04-20T14:34:18Z</time></trkpt><trkpt lat="43.29000258769789" lon="10.61530602135914"><ele>84.25</ele><time>2026-04-20T14:34:19Z</time></trkpt><trkpt lat="43.28993061264902" lon="10.615130662481725"><ele>84.5</ele><time>2026-04-20T14:34:20Z</time></trkpt><trkpt lat="43.28986359378669" lon="10.614950932682403"><ele>84.75</ele><time>2026-04-20T14:34:21Z</time></trkpt><trkpt lat="43.28979255159482" lon="10.614768974127845"><ele>85.0</ele><time>2026-04-20T14:34:22Z</time></trkpt><trkpt lat="43.28971465957071" lon="10.614586873287719"><ele>86.0</ele><time>2026-04-20T14:34:23Z</time></trkpt><trkpt lat="43.28963475438734" lon="10.614410698638414"><ele>87.0</ele><time>2026-04-20T14:34:24Z</time></trkpt><trkpt lat="43.2895439779771" lon="10.614241868050348"><ele>88.0</ele><time>2026-04-20T14:34:25Z</time></trkpt><trkpt lat="43.289444448276136" lon="10.61408283203335"><ele>88.0</ele><time>2026-04-20T14:34:26Z</time></trkpt><trkpt lat="43.28933282291463" lon="10.61392884722903"><ele>88.0</ele><time>2026-04-20T14:34:27Z</time></trkpt><trkpt lat="43.2892218010368" lon="10.613775211202507"><ele>88.0</ele><time>2026-04-20T14:34:28Z</time></trkpt><trkpt lat="43.28910943632745" lon="10.613621198835569"><ele>90.0</ele><time>2026-04-20T14:34:29Z</time></trkpt><trkpt lat="43.288999269241614" lon="10.613468402679953"><ele>92.0</ele><time>2026-04-20T14:34:30Z</time></trkpt><trkpt lat="43.28888944967749" lon="10.61331722875749"><ele>94.0</ele><time>2026-04-20T14:34:31Z</time></trkpt><trkpt lat="43.28877568014072" lon="10.613160880024896"><ele>94.0</ele><time>2026-04-20T14:34:32Z</time></trkpt><trkpt lat="43.288663969178984" lon="10.613004459646561"><ele>94.0</ele><time>2026-04-20T14:34:33Z</time></trkpt><trkpt lat="43.28855093747332" lon="10.612848642884572"><ele>94.0</ele><time>2026-04-20T14:34:34Z</time></trkpt><trkpt lat="43.288445578833546" lon="10.6127070378641"><ele>94.0</ele><time>2026-04-20T14:34:35Z</time></trkpt><trkpt lat="43.28833689230979" lon="10.612554532787637"><ele>94.0</ele><time>2026-04-20T14:34:36Z</time></trkpt><trkpt lat="43.28823082731909" lon="10.612390377572003"><ele>94.0</ele><time>2026-04-20T14:34:37Z</time></trkpt><trkpt lat="43.288135530417584" lon="10.61221443890698"><ele>94.0</ele><time>2026-04-20T14:34:38Z</time></trkpt><trkpt lat="43.288053775902654" lon="10.612020179020176"><ele>94.0</ele><time>2026-04-20T14:34:39Z</time></trkpt><trkpt lat="43.28798843899855" lon="10.61181469831334"><ele>94.0</ele><time>2026-04-20T14:34:40Z</time></trkpt><trkpt lat="43.287942145821894" lon="10.611601412769591"><ele>94.0</ele><time>2026-04-20T14:34:41Z</time></trkpt><trkpt lat="43.28790924209728" lon="10.611384855957965"><ele>94.0</ele><time>2026-04-20T14:34:42Z</time></trkpt><trkpt lat="43.287891247711684" lon="10.611165597439424"><ele>94.0</ele><time>2026-04-20T14:34:43Z</time></trkpt><trkpt lat="43.28787910123575" lon="10.610944603526379"><ele>93.0</ele><time>2026-04-20T14:34:44Z</time></trkpt><trkpt lat="43.28788027283096" lon="10.610717690744307"><ele>92.0</ele><time>2026-04-20T14:34:45Z</time></trkpt><trkpt lat="43.28789689194785" lon="10.610495954284646"><ele>91.0</ele><time>2026-04-20T14:34:46Z</time></trkpt><trkpt lat="43.287917149215446" lon="10.610287626954388"><ele>90.75</ele><time>2026-04-20T14:34:47Z</time></trkpt><trkpt lat="43.287936596829525" lon="10.610072459303996"><ele>90.5</ele><time>2026-04-20T14:34:48Z</time></trkpt><trkpt lat="43.28795307943828" lon="10.6098667340525"><ele>90.25</ele><time>2026-04-20T14:34:49Z</time></trkpt><trkpt lat="43.287966750564316" lon="10.60968200393566"><ele>90.0</ele><time>2026-04-20T14:34:50Z</time></trkpt><trkpt lat="43.287969532349855" lon="10.609504676382214"><ele>89.5</ele><time>2026-04-20T14:34:51Z</time></trkpt><trkpt lat="43.28794821306743" lon="10.609322368101177"><ele>89.0</ele><time>2026-04-20T14:34:52Z</time></trkpt><trkpt lat="43.287902463430186" lon="10.609141308335547"><ele>88.5</ele><time>2026-04-20T14:34:53Z</time></trkpt><trkpt lat="43.28783482076297" lon="10.608961251206145"><ele>88.0</ele><time>2026-04-20T14:34:54Z</time></trkpt><trkpt lat="43.28775071579432" lon="10.608786484087192"><ele>87.0</ele><time>2026-04-20T14:34:55Z</time></trkpt><trkpt lat="43.287658085165" lon="10.608606515840853"><ele>86.0</ele><time>2026-04-20T14:34:56Z</time></trkpt><trkpt lat="43.287566445872784" lon="10.608416319173228"><ele>85.0</ele><time>2026-04-20T14:34:57Z</time></trkpt><trkpt lat="43.28747482017511" lon="10.608219029150113"><ele>85.0</ele><time>2026-04-20T14:34:58Z</time></trkpt><trkpt lat="43.2873819130917" lon="10.608026236007278"><ele>85.0</ele><time>2026-04-20T14:34:59Z</time></trkpt><trkpt lat="43.28728501271448" lon="10.607827687154339"><ele>85.0</ele><time>2026-04-20T14:35:00Z</time></trkpt><trkpt lat="43.28719092585906" lon="10.607628445737268"><ele>85.33333333333333</ele><time>2026-04-20T14:35:01Z</time></trkpt><trkpt lat="43.287093769126855" lon="10.607425166890566"><ele>85.66666666666667</ele><time>2026-04-20T14:35:02Z</time></trkpt><trkpt lat="43.28699480107295" lon="10.607222498373446"><ele>86.0</ele><time>2026-04-20T14:35:03Z</time></trkpt><trkpt lat="43.286896723537474" lon="10.607017366226778"><ele>85.33333333333334</ele><time>2026-04-20T14:35:04Z</time></trkpt><trkpt lat="43.286797506716546" lon="10.606806365073814"><ele>84.66666666666667</ele><time>2026-04-20T14:35:05Z</time></trkpt><trkpt lat="43.28669492886481" lon="10.606595495467596"><ele>84.0</ele><time>2026-04-20T14:35:06Z</time></trkpt><trkpt lat="43.286589093336694" lon="10.606384693930558"><ele>84.0</ele><time>2026-04-20T14:35:07Z</time></trkpt><trkpt lat="43.28647972739206" lon="10.606167249740095"><ele>84.0</ele><time>2026-04-20T14:35:08Z</time></trkpt><trkpt lat="43.28637106528798" lon="10.605944963665827"><ele>84.0</ele><time>2026-04-20T14:35:09Z</time></trkpt><trkpt lat="43.28626062261699" lon="10.605720556003293"><ele>81.66666666666667</ele><time>2026-04-20T14:35:10Z</time></trkpt><trkpt lat="43.28615169505433" lon="10.60550118011326"><ele>79.33333333333334</ele><time>2026-04-20T14:35:11Z</time></trkpt><trkpt lat="43.28605408085188" lon="10.605297671559434"><ele>77.0</ele><time>2026-04-20T14:35:12Z</time></trkpt><trkpt lat="43.2859608921487" lon="10.605109000750641"><ele>77.0</ele><time>2026-04-20T14:35:13Z</time></trkpt><trkpt lat="43.285875561235045" lon="10.604930924123403"><ele>77.0</ele><time>2026-04-20T14:35:14Z</time></trkpt><trkpt lat="43.2857990673593" lon="10.604770288178862"><ele>77.0</ele><time>2026-04-20T14:35:15Z</time></trkpt><trkpt lat="43.2857293495192" lon="10.604616385725986"><ele>77.0</ele><time>2026-04-20T14:35:16Z</time></trkpt><trkpt lat="43.28566226828636" lon="10.604486509811666"><ele>77.2</ele><time>2026-04-20T14:35:17Z</time></trkpt><trkpt lat="43.28559369630892" lon="10.604377557970029"><ele>77.4</ele><time>2026-04-20T14:35:18Z</time></trkpt><trkpt lat="43.285522041085805" lon="10.604303855977617"><ele>77.6</ele><time>2026-04-20T14:35:19Z</time></trkpt><trkpt lat="43.285446627296544" lon="10.604257146674698"><ele>77.8</ele><time>2026-04-20T14:35:20Z</time></trkpt><trkpt lat="43.28535508493101" lon="10.604236614096836"><ele>78.0</ele><time>2026-04-20T14:35:21Z</time></trkpt><trkpt lat="43.28525088000615" lon="10.60424005568"><ele>78.0</ele><time>2026-04-20T14:35:22Z</time></trkpt><trkpt lat="43.28514207065806" lon="10.604272566143994"><ele>78.0</ele><time>2026-04-20T14:35:23Z</time></trkpt><trkpt lat="43.28502772724436" lon="10.604309862572022"><ele>78.0</ele><time>2026-04-20T14:35:24Z</time></trkpt><trkpt lat="43.28491069823354" lon="10.604356398406408"><ele>78.0</ele><time>2026-04-20T14:35:25Z</time></trkpt><trkpt lat="43.284793247022705" lon="10.604400165859891"><ele>77.25</ele><time>2026-04-20T14:35:26Z</time></trkpt><trkpt lat="43.28467950060192" lon="10.604438158889247"><ele>76.5</ele><time>2026-04-20T14:35:27Z</time></trkpt><trkpt lat="43.28455991997303" lon="10.604475245534118"><ele>75.75</ele><time>2026-04-20T14:35:28Z</time></trkpt><trkpt lat="43.2844406514827" lon="10.604521337629288"><ele>75.0</ele><time>2026-04-20T14:35:29Z</time></trkpt><trkpt lat="43.28432038860756" lon="10.604566843627902"><ele>75.0</ele><time>2026-04-20T14:35:30Z</time></trkpt><trkpt lat="43.28419764686242" lon="10.604609790732908"><ele>75.0</ele><time>2026-04-20T14:35:31Z</time></trkpt><trkpt lat="43.28407355953456" lon="10.604650869307457"><ele>75.0</ele><time>2026-04-20T14:35:32Z</time></trkpt><trkpt lat="43.28394807524355" lon="10.604699734430401"><ele>75.0</ele><time>2026-04-20T14:35:33Z</time></trkpt><trkpt lat="43.28382145555062" lon="10.604739884306355"><ele>75.0</ele><time>2026-04-20T14:35:34Z</time></trkpt><trkpt lat="43.28369571538599" lon="10.604773035529833"><ele>75.0</ele><time>2026-04-20T14:35:35Z</time></trkpt><trkpt lat="43.28357018232485" lon="10.604793432753514"><ele>75.0</ele><time>2026-04-20T14:35:36Z</time></trkpt><trkpt lat="43.28344381645371" lon="10.604797687134187"><ele>75.0</ele><time>2026-04-20T14:35:37Z</time></trkpt><trkpt lat="43.28331418210256" lon="10.604761470959021"><ele>75.0</ele><time>2026-04-20T14:35:38Z</time></trkpt><trkpt lat="43.28317794379902" lon="10.604753407203281"><ele>75.0</ele><time>2026-04-20T14:35:39Z</time></trkpt><trkpt lat="43.283040623167274" lon="10.604790409332974"><ele>75.0</ele><time>2026-04-20T14:35:40Z</time></trkpt><trkpt lat="43.28289711439232" lon="10.604823744058233"><ele>75.0</ele><time>2026-04-20T14:35:41Z</time></trkpt><trkpt lat="43.28275020330862" lon="10.60486513769015"><ele>74.25</ele><time>2026-04-20T14:35:42Z</time></trkpt><trkpt lat="43.282602702510324" lon="10.604911750669233"><ele>73.5</ele><time>2026-04-20T14:35:43Z</time></trkpt><trkpt lat="43.28245645363945" lon="10.604965133824612"><ele>72.75</ele><time>2026-04-20T14:35:44Z</time></trkpt><trkpt lat="43.28231724206459" lon="10.60501757958957"><ele>72.0</ele><time>2026-04-20T14:35:45Z</time></trkpt><trkpt lat="43.282172450149375" lon="10.605049684994102"><ele>72.0</ele><time>2026-04-20T14:35:46Z</time></trkpt><trkpt lat="43.28203314222611" lon="10.60511576921125"><ele>72.0</ele><time>2026-04-20T14:35:47Z</time></trkpt><trkpt lat="43.28188930895787" lon="10.605163958676112"><ele>72.0</ele><time>2026-04-20T14:35:48Z</time></trkpt><trkpt lat="43.281744577297346" lon="10.605212613451478"><ele>72.0</ele><time>2026-04-20T14:35:49Z</time></trkpt><trkpt lat="43.28159918095294" lon="10.605264757964056"><ele>72.0</ele><time>2026-04-20T14:35:50Z</time></trkpt><trkpt lat="43.281454584398176" lon="10.605317243259488"><ele>72.0</ele><time>2026-04-20T14:35:51Z</time></trkpt><trkpt lat="43.281323579790794" lon="10.60536041266811"><ele>72.0</ele><time>2026-04-20T14:35:52Z</time></trkpt><trkpt lat="43.28119401966942" lon="10.605405699659732"><ele>72.0</ele><time>2026-04-20T14:35:53Z</time></trkpt><trkpt lat="43.28106620873051" lon="10.605444650836807"><ele>72.5</ele><time>2026-04-20T14:35:54Z</time></trkpt><trkpt lat="43.28093718922216" lon="10.60546947997335"><ele>73.0</ele><time>2026-04-20T14:35:55Z</time></trkpt><trkpt lat="43.28080314370772" lon="10.605476495798134"><ele>73.5</ele><time>2026-04-20T14:35:56Z</time></trkpt><trkpt lat="43.28066519030431" lon="10.605464812536402"><ele>74.0</ele><time>2026-04-20T14:35:57Z</time></trkpt><trkpt lat="43.280528279480286" lon="10.605438846727766"><ele>74.5</ele><time>2026-04-20T14:35:58Z</time></trkpt><trkpt lat="43.28039058249837" lon="10.605387887795485"><ele>75.0</ele><time>2026-04-20T14:35:59Z</time></trkpt><trkpt lat="43.28024869130637" lon="10.605333051227927"><ele>75.5</ele><time>2026-04-20T14:36:00Z</time></trkpt><trkpt lat="43.28011152080375" lon="10.605261168191776"><ele>76.0</ele><time>2026-04-20T14:36:01Z</time></trkpt><trkpt lat="43.279987526845275" lon="10.605150653439646"><ele>76.0</ele><time>2026-04-20T14:36:02Z</time></trkpt><trkpt lat="43.2798652677338" lon="10.60503581301419"><ele>76.0</ele><time>2026-04-20T14:36:03Z</time></trkpt><trkpt lat="43.27975045973251" lon="10.604905267665652"><ele>76.0</ele><time>2026-04-20T14:36:04Z</time></trkpt><trkpt lat="43.27964695218731" lon="10.604785678347072"><ele>76.0</ele><time>2026-04-20T14:36:05Z</time></trkpt><trkpt lat="43.27954926837405" lon="10.60467190888678"><ele>76.0</ele><time>2026-04-20T14:36:06Z</time></trkpt><trkpt lat="43.279447723645305" lon="10.604553642640562"><ele>76.0</ele><time>2026-04-20T14:36:07Z</time></trkpt><trkpt lat="43.2793501958859" lon="10.604440055401948"><ele>76.0</ele><time>2026-04-20T14:36:08Z</time></trkpt><trkpt lat="43.279258836533955" lon="10.60433212940619"><ele>76.0</ele><time>2026-04-20T14:36:09Z</time></trkpt><trkpt lat="43.279164334437525" lon="10.604221466503228"><ele>75.5</ele><time>2026-04-20T14:36:10Z</time></trkpt><trkpt lat="43.27906663404029" lon="10.604108443996608"><ele>75.0</ele><time>2026-04-20T14:36:11Z</time></trkpt><trkpt lat="43.27896231667792" lon="10.604012891779027"><ele>74.5</ele><time>2026-04-20T14:36:12Z</time></trkpt><trkpt lat="43.27887853087177" lon="10.603898176988393"><ele>74.0</ele><time>2026-04-20T14:36:13Z</time></trkpt><trkpt lat="43.278778727792016" lon="10.603817419803342"><ele>72.5</ele><time>2026-04-20T14:36:14Z</time></trkpt><trkpt lat="43.27867018646048" lon="10.603758275607856"><ele>71.0</ele><time>2026-04-20T14:36:15Z</time></trkpt><trkpt lat="43.278543516257486" lon="10.6037318524735"><ele>69.5</ele><time>2026-04-20T14:36:16Z</time></trkpt><trkpt lat="43.27840451871646" lon="10.60375272369976"><ele>68.0</ele><time>2026-04-20T14:36:17Z</time></trkpt><trkpt lat="43.27827333644876" lon="10.603816860044558"><ele>68.0</ele><time>2026-04-20T14:36:18Z</time></trkpt><trkpt lat="43.27814616633594" lon="10.603859273217116"><ele>68.0</ele><time>2026-04-20T14:36:19Z</time></trkpt><trkpt lat="43.27802465228324" lon="10.603890578434559"><ele>68.0</ele><time>2026-04-20T14:36:20Z</time></trkpt><trkpt lat="43.277913158717986" lon="10.603926863310296"><ele>68.0</ele><time>2026-04-20T14:36:21Z</time></trkpt><trkpt lat="43.27780974645638" lon="10.60395861688814"><ele>67.4</ele><time>2026-04-20T14:36:22Z</time></trkpt><trkpt lat="43.27771522027477" lon="10.603970914073562"><ele>66.8</ele><time>2026-04-20T14:36:23Z</time></trkpt><trkpt lat="43.27761566614818" lon="10.603956990624091"><ele>66.2</ele><time>2026-04-20T14:36:24Z</time></trkpt><trkpt lat="43.277504633824094" lon="10.603905828238094"><ele>65.6</ele><time>2026-04-20T14:36:25Z</time></trkpt><trkpt lat="43.27738578195177" lon="10.603831407783941"><ele>65.0</ele><time>2026-04-20T14:36:26Z</time></trkpt><trkpt lat="43.277271593515735" lon="10.603733273617436"><ele>66.25</ele><time>2026-04-20T14:36:27Z</time></trkpt><trkpt lat="43.27715178689938" lon="10.603644933403231"><ele>67.5</ele><time>2026-04-20T14:36:28Z</time></trkpt><trkpt lat="43.27701431243741" lon="10.603575824456568"><ele>68.75</ele><time>2026-04-20T14:36:29Z</time></trkpt><trkpt lat="43.27686405047828" lon="10.603524878625803"><ele>70.0</ele><time>2026-04-20T14:36:30Z</time></trkpt><trkpt lat="43.2767124432747" lon="10.603476674123966"><ele>70.0</ele><time>2026-04-20T14:36:31Z</time></trkpt><trkpt lat="43.276575706912006" lon="10.603421682734105"><ele>70.0</ele><time>2026-04-20T14:36:32Z</time></trkpt><trkpt lat="43.27643332709535" lon="10.603351946281593"><ele>70.0</ele><time>2026-04-20T14:36:33Z</time></trkpt><trkpt lat="43.27629223389772" lon="10.603280397756777"><ele>70.0</ele><time>2026-04-20T14:36:34Z</time></trkpt><trkpt lat="43.27615394449999" lon="10.603202383757804"><ele>68.25</ele><time>2026-04-20T14:36:35Z</time></trkpt><trkpt lat="43.27602275356905" lon="10.603120722040014"><ele>66.5</ele><time>2026-04-20T14:36:36Z</time></trkpt><trkpt lat="43.275890914267606" lon="10.603039686556674"><ele>64.75</ele><time>2026-04-20T14:36:37Z</time></trkpt><trkpt lat="43.27576541672066" lon="10.602967995687381"><ele>63.0</ele><time>2026-04-20T14:36:38Z</time></trkpt><trkpt lat="43.275641776630614" lon="10.60289633690174"><ele>63.25</ele><time>2026-04-20T14:36:39Z</time></trkpt><trkpt lat="43.27551626172162" lon="10.602821896909958"><ele>63.5</ele><time>2026-04-20T14:36:40Z</time></trkpt><trkpt lat="43.27538678637071" lon="10.60274743842039"><ele>63.75</ele><time>2026-04-20T14:36:41Z</time></trkpt><trkpt lat="43.27525886973861" lon="10.602660222956672"><ele>64.0</ele><time>2026-04-20T14:36:42Z</time></trkpt><trkpt lat="43.27512580138287" lon="10.60256858564219"><ele>64.0</ele><time>2026-04-20T14:36:43Z</time></trkpt><trkpt lat="43.27499136163407" lon="10.60246750004927"><ele>64.0</ele><time>2026-04-20T14:36:44Z</time></trkpt><trkpt lat="43.274858539545434" lon="10.602359432927116"><ele>64.0</ele><time>2026-04-20T14:36:45Z</time></trkpt><trkpt lat="43.27473390310431" lon="10.602257568272671"><ele>63.25</ele><time>2026-04-20T14:36:46Z</time></trkpt><trkpt lat="43.27461354879178" lon="10.602159912063254"><ele>62.5</ele><time>2026-04-20T14:36:47Z</time></trkpt><trkpt lat="43.27449559521545" lon="10.60205926872664"><ele>61.75</ele><time>2026-04-20T14:36:48Z</time></trkpt><trkpt lat="43.27439211528511" lon="10.601972440375341"><ele>61.0</ele><time>2026-04-20T14:36:49Z</time></trkpt><trkpt lat="43.274301047742256" lon="10.601891293814981"><ele>61.0</ele><time>2026-04-20T14:36:50Z</time></trkpt><trkpt lat="43.274211677032014" lon="10.60179028875287"><ele>61.0</ele><time>2026-04-20T14:36:51Z</time></trkpt><trkpt lat="43.27412720129403" lon="10.601665805801982"><ele>61.0</ele><time>2026-04-20T14:36:52Z</time></trkpt><trkpt lat="43.27404164485416" lon="10.60152145717021"><ele>61.0</ele><time>2026-04-20T14:36:53Z</time></trkpt><trkpt lat="43.273962286430645" lon="10.601358488732613"><ele>59.25</ele><time>2026-04-20T14:36:54Z</time></trkpt><trkpt lat="43.273885224279766" lon="10.601200621584825"><ele>57.5</ele><time>2026-04-20T14:36:55Z</time></trkpt><trkpt lat="43.27381061818434" lon="10.601069667499676"><ele>55.75</ele><time>2026-04-20T14:36:56Z</time></trkpt><trkpt lat="43.27372090416655" lon="10.600945946367148"><ele>54.0</ele><time>2026-04-20T14:36:57Z</time></trkpt><trkpt lat="43.27361330122297" lon="10.600840878385487"><ele>54.0</ele><time>2026-04-20T14:36:58Z</time></trkpt><trkpt lat="43.273495272745215" lon="10.600750838053894"><ele>54.0</ele><time>2026-04-20T14:36:59Z</time></trkpt><trkpt lat="43.27338419727642" lon="10.600672227587896"><ele>54.0</ele><time>2026-04-20T14:37:00Z</time></trkpt><trkpt lat="43.27328532079167" lon="10.600580132403051"><ele>54.0</ele><time>2026-04-20T14:37:01Z</time></trkpt><trkpt lat="43.27319589904065" lon="10.600486015346597"><ele>54.0</ele><time>2026-04-20T14:37:02Z</time></trkpt><trkpt lat="43.273105817894724" lon="10.600367918644695"><ele>54.0</ele><time>2026-04-20T14:37:03Z</time></trkpt><trkpt lat="43.27302576317951" lon="10.60022094815494"><ele>54.0</ele><time>2026-04-20T14:37:04Z</time></trkpt><trkpt lat="43.272961286925884" lon="10.600066295082282"><ele>54.0</ele><time>2026-04-20T14:37:05Z</time></trkpt><trkpt lat="43.27289415923024" lon="10.59990064302828"><ele>53.25</ele><time>2026-04-20T14:37:06Z</time></trkpt><trkpt lat="43.27282885143624" lon="10.599720283510756"><ele>52.5</ele><time>2026-04-20T14:37:07Z</time></trkpt><trkpt lat="43.27275530354917" lon="10.599560568458264"><ele>51.75</ele><time>2026-04-20T14:37:08Z</time></trkpt><trkpt lat="43.27266632225165" lon="10.599402226203352"><ele>51.0</ele><time>2026-04-20T14:37:09Z</time></trkpt><trkpt lat="43.27256945645283" lon="10.59923844116488"><ele>51.0</ele><time>2026-04-20T14:37:10Z</time></trkpt><trkpt lat="43.27247719831631" lon="10.599083954747147"><ele>51.0</ele><time>2026-04-20T14:37:11Z</time></trkpt><trkpt lat="43.272387050258686" lon="10.59892720124064"><ele>51.0</ele><time>2026-04-20T14:37:12Z</time></trkpt><trkpt lat="43.27229705597654" lon="10.59877018589103"><ele>51.0</ele><time>2026-04-20T14:37:13Z</time></trkpt><trkpt lat="43.272194123859116" lon="10.598616865146845"><ele>48.0</ele><time>2026-04-20T14:37:14Z</time></trkpt><trkpt lat="43.27208255043931" lon="10.598464752212353"><ele>45.0</ele><time>2026-04-20T14:37:15Z</time></trkpt><trkpt lat="43.27199935954797" lon="10.598305871904746"><ele>42.0</ele><time>2026-04-20T14:37:16Z</time></trkpt><trkpt lat="43.27190066883717" lon="10.598150253803437"><ele>42.0</ele><time>2026-04-20T14:37:17Z</time></trkpt><trkpt lat="43.27180715863248" lon="10.59800105570243"><ele>42.0</ele><time>2026-04-20T14:37:18Z</time></trkpt><trkpt lat="43.2717146471416" lon="10.597853155129387"><ele>42.0</ele><time>2026-04-20T14:37:19Z</time></trkpt><trkpt lat="43.27162393106757" lon="10.597707554270881"><ele>42.0</ele><time>2026-04-20T14:37:20Z</time></trkpt><trkpt lat="43.27153110319232" lon="10.597557925494755"><ele>43.25</ele><time>2026-04-20T14:37:21Z</time></trkpt><trkpt lat="43.2714352183776" lon="10.597407868466522"><ele>44.5</ele><time>2026-04-20T14:37:22Z</time></trkpt><trkpt lat="43.27134321345662" lon="10.597265917636667"><ele>45.75</ele><time>2026-04-20T14:37:23Z</time></trkpt><trkpt lat="43.27125056278424" lon="10.597124120754827"><ele>47.0</ele><time>2026-04-20T14:37:24Z</time></trkpt><trkpt lat="43.271157067414045" lon="10.596981031089932"><ele>47.0</ele><time>2026-04-20T14:37:25Z</time></trkpt><trkpt lat="43.271052124893366" lon="10.596859955036791"><ele>47.0</ele><time>2026-04-20T14:37:26Z</time></trkpt><trkpt lat="43.27096172967625" lon="10.59670601971536"><ele>47.0</ele><time>2026-04-20T14:37:27Z</time></trkpt><trkpt lat="43.27086496442177" lon="10.596577616475493"><ele>47.0</ele><time>2026-04-20T14:37:28Z</time></trkpt><trkpt lat="43.27077005223297" lon="10.596453499088268"><ele>47.0</ele><time>2026-04-20T14:37:29Z</time></trkpt><trkpt lat="43.27067243588026" lon="10.596337254455698"><ele>47.0</ele><time>2026-04-20T14:37:30Z</time></trkpt><trkpt lat="43.270575024346996" lon="10.596239291164817"><ele>47.0</ele><time>2026-04-20T14:37:31Z</time></trkpt><trkpt lat="43.270453477614005" lon="10.596154313602776"><ele>47.0</ele><time>2026-04-20T14:37:32Z</time></trkpt><trkpt lat="43.27034774073837" lon="10.596052167079982"><ele>46.25</ele><time>2026-04-20T14:37:33Z</time></trkpt><trkpt lat="43.27023853161973" lon="10.595972124495301"><ele>45.5</ele><time>2026-04-20T14:37:34Z</time></trkpt><trkpt lat="43.27013348639635" lon="10.595883421277277"><ele>44.75</ele><time>2026-04-20T14:37:35Z</time></trkpt><trkpt lat="43.27004207414923" lon="10.595789964971278"><ele>44.0</ele><time>2026-04-20T14:37:36Z</time></trkpt><trkpt lat="43.26996115168226" lon="10.595706803457643"><ele>44.0</ele><time>2026-04-20T14:37:37Z</time></trkpt><trkpt lat="43.26988294331788" lon="10.595624417556591"><ele>44.0</ele><time>2026-04-20T14:37:38Z</time></trkpt><trkpt lat="43.26981766560761" lon="10.595532101068782"><ele>44.0</ele><time>2026-04-20T14:37:39Z</time></trkpt><trkpt lat="43.269745959132166" lon="10.59547392248225"><ele>44.0</ele><time>2026-04-20T14:37:40Z</time></trkpt><trkpt lat="43.26967842765781" lon="10.595416126753213"><ele>44.0</ele><time>2026-04-20T14:37:41Z</time></trkpt><trkpt lat="43.26963066284811" lon="10.595344937481503"><ele>44.0</ele><time>2026-04-20T14:37:42Z</time></trkpt><trkpt lat="43.269526162478385" lon="10.595284226223777"><ele>43.5</ele><time>2026-04-20T14:37:44Z</time></trkpt><trkpt lat="43.26941023644205" lon="10.595257600096483"><ele>43.0</ele><time>2026-04-20T14:37:46Z</time></trkpt><trkpt lat="43.26930913232605" lon="10.595205559566534"><ele>42.5</ele><time>2026-04-20T14:37:48Z</time></trkpt><trkpt lat="43.26924352781639" lon="10.59517709075604"><ele>42.0</ele><time>2026-04-20T14:37:50Z</time></trkpt><trkpt lat="43.269139864333255" lon="10.595366581803175"><ele>42.0</ele><time>2026-04-20T14:37:53Z</time></trkpt><trkpt lat="43.26910656581897" lon="10.595515201726844"><ele>42.0</ele><time>2026-04-20T14:37:55Z</time></trkpt><trkpt lat="43.26906788665057" lon="10.59559064813349"><ele>42.0</ele><time>2026-04-20T14:38:00Z</time></trkpt><trkpt lat="43.26896160305704" lon="10.595609112867283"><ele>42.0</ele><time>2026-04-20T14:38:02Z</time></trkpt><trkpt lat="43.26883427184365" lon="10.595597658260454"><ele>42.0</ele><time>2026-04-20T14:38:04Z</time></trkpt><trkpt lat="43.26875806585931" lon="10.5955835814986"><ele>43.2</ele><time>2026-04-20T14:38:05Z</time></trkpt><trkpt lat="43.26867601045382" lon="10.595572449295636"><ele>44.400000000000006</ele><time>2026-04-20T14:38:06Z</time></trkpt><trkpt lat="43.26860112919011" lon="10.595505097203436"><ele>45.599999999999994</ele><time>2026-04-20T14:38:07Z</time></trkpt><trkpt lat="43.26853804034663" lon="10.595413547483991"><ele>46.8</ele><time>2026-04-20T14:38:08Z</time></trkpt><trkpt lat="43.26847382475247" lon="10.59530750647238"><ele>48.0</ele><time>2026-04-20T14:38:09Z</time></trkpt><trkpt lat="43.268409134826044" lon="10.595193526845646"><ele>48.0</ele><time>2026-04-20T14:38:10Z</time></trkpt><trkpt lat="43.26834970558196" lon="10.59508574212793"><ele>48.0</ele><time>2026-04-20T14:38:11Z</time></trkpt><trkpt lat="43.26829902757415" lon="10.594954088867043"><ele>48.0</ele><time>2026-04-20T14:38:12Z</time></trkpt><trkpt lat="43.268231766326764" lon="10.59484696633923"><ele>48.0</ele><time>2026-04-20T14:38:13Z</time></trkpt><trkpt lat="43.268159273817666" lon="10.594737764978024"><ele>48.0</ele><time>2026-04-20T14:38:14Z</time></trkpt><trkpt lat="43.268089030194936" lon="10.594640556933427"><ele>49.599999999999994</ele><time>2026-04-20T14:38:15Z</time></trkpt><trkpt lat="43.268017041963404" lon="10.594565803451598"><ele>51.199999999999996</ele><time>2026-04-20T14:38:16Z</time></trkpt><trkpt lat="43.26793330182957" lon="10.594504704691628"><ele>52.8</ele><time>2026-04-20T14:38:17Z</time></trkpt><trkpt lat="43.267841510948564" lon="10.594460605843569"><ele>54.4</ele><time>2026-04-20T14:38:18Z</time></trkpt><trkpt lat="43.267745695063" lon="10.59441747076306"><ele>56.0</ele><time>2026-04-20T14:38:19Z</time></trkpt><trkpt lat="43.26765010449871" lon="10.594379188813695"><ele>56.0</ele><time>2026-04-20T14:38:20Z</time></trkpt><trkpt lat="43.26755072487729" lon="10.594357494425308"><ele>55.99999999999999</ele><time>2026-04-20T14:38:21Z</time></trkpt><trkpt lat="43.26745074187402" lon="10.594337293844827"><ele>55.99999999999999</ele><time>2026-04-20T14:38:22Z</time></trkpt><trkpt lat="43.26735172157948" lon="10.594320832560761"><ele>56.0</ele><time>2026-04-20T14:38:23Z</time></trkpt><trkpt lat="43.267276722065695" lon="10.594306067467963"><ele>56.0</ele><time>2026-04-20T14:38:24Z</time></trkpt><trkpt lat="43.26716429306547" lon="10.594263881804004"><ele>57.50000000000001</ele><time>2026-04-20T14:38:26Z</time></trkpt><trkpt lat="43.26709960724787" lon="10.594241382958296"><ele>59.0</ele><time>2026-04-20T14:38:27Z</time></trkpt><trkpt lat="43.26703390034871" lon="10.59421066550689"><ele>60.5</ele><time>2026-04-20T14:38:28Z</time></trkpt><trkpt lat="43.26696025830607" lon="10.594174989816382"><ele>62.0</ele><time>2026-04-20T14:38:29Z</time></trkpt><trkpt lat="43.26687893135733" lon="10.594134739669135"><ele>63.50000000000001</ele><time>2026-04-20T14:38:30Z</time></trkpt><trkpt lat="43.26680301319653" lon="10.594092023204805"><ele>65.0</ele><time>2026-04-20T14:38:31Z</time></trkpt><trkpt lat="43.26672603594046" lon="10.594049525848868"><ele>65.0</ele><time>2026-04-20T14:38:32Z</time></trkpt><trkpt lat="43.26664581648426" lon="10.594025766459882"><ele>65.0</ele><time>2026-04-20T14:38:33Z</time></trkpt><trkpt lat="43.266565919961366" lon="10.59402435704974"><ele>65.0</ele><time>2026-04-20T14:38:34Z</time></trkpt><trkpt lat="43.26648436992098" lon="10.594048747169083"><ele>65.0</ele><time>2026-04-20T14:38:35Z</time></trkpt><trkpt lat="43.266400173835564" lon="10.5940861855304"><ele>65.0</ele><time>2026-04-20T14:38:36Z</time></trkpt><trkpt lat="43.266316731281435" lon="10.594132264349781"><ele>65.0</ele><time>2026-04-20T14:38:37Z</time></trkpt><trkpt lat="43.26623811420873" lon="10.594173003056666"><ele>65.33333333333334</ele><time>2026-04-20T14:38:38Z</time></trkpt><trkpt lat="43.266160586765594" lon="10.59420119594708"><ele>65.66666666666667</ele><time>2026-04-20T14:38:39Z</time></trkpt><trkpt lat="43.26607412366069" lon="10.59422122347223"><ele>66.0</ele><time>2026-04-20T14:38:40Z</time></trkpt><trkpt lat="43.26598567110399" lon="10.594243720352045"><ele>66.33333333333333</ele><time>2026-04-20T14:38:41Z</time></trkpt><trkpt lat="43.265895989028074" lon="10.594260967325644"><ele>66.66666666666666</ele><time>2026-04-20T14:38:42Z</time></trkpt><trkpt lat="43.265800703860954" lon="10.594283311833566"><ele>67.0</ele><time>2026-04-20T14:38:43Z</time></trkpt><trkpt lat="43.26569721762843" lon="10.594291768548848"><ele>67.4</ele><time>2026-04-20T14:38:44Z</time></trkpt><trkpt lat="43.265595231306655" lon="10.59429337027114"><ele>67.80000000000001</ele><time>2026-04-20T14:38:45Z</time></trkpt><trkpt lat="43.265488507496705" lon="10.594292164937682"><ele>68.2</ele><time>2026-04-20T14:38:46Z</time></trkpt><trkpt lat="43.2653884479903" lon="10.594286774605473"><ele>68.60000000000001</ele><time>2026-04-20T14:38:47Z</time></trkpt><trkpt lat="43.265295606905404" lon="10.594275881075866"><ele>69.0</ele><time>2026-04-20T14:38:48Z</time></trkpt><trkpt lat="43.26520493110767" lon="10.594274010643472"><ele>69.0</ele><time>2026-04-20T14:38:49Z</time></trkpt><trkpt lat="43.26512429001864" lon="10.59427204733747"><ele>69.0</ele><time>2026-04-20T14:38:50Z</time></trkpt><trkpt lat="43.265057686120535" lon="10.59426757585272"><ele>69.0</ele><time>2026-04-20T14:38:51Z</time></trkpt><trkpt lat="43.26496961872919" lon="10.594276000822743"><ele>69.0</ele><time>2026-04-20T14:38:53Z</time></trkpt><trkpt lat="43.26490637442798" lon="10.594279205934974"><ele>69.0</ele><time>2026-04-20T14:38:55Z</time></trkpt><trkpt lat="43.2649034599063" lon="10.594077864652062"><ele>69.0</ele><time>2026-04-20T14:38:57Z</time></trkpt><trkpt lat="43.26486338875321" lon="10.594009115656895"><ele>69.0</ele><time>2026-04-20T14:39:01Z</time></trkpt><trkpt lat="43.264741601325504" lon="10.593978933886849"><ele>69.0</ele><time>2026-04-20T14:39:02Z</time></trkpt><trkpt lat="43.264721483166554" lon="10.59387344324292"><ele>69.0</ele><time>2026-04-20T14:39:03Z</time></trkpt><trkpt lat="43.26469310958704" lon="10.593780608257548"><ele>69.0</ele><time>2026-04-20T14:39:04Z</time></trkpt><trkpt lat="43.26464956022308" lon="10.593700546842026"><ele>69.0</ele><time>2026-04-20T14:39:05Z</time></trkpt><trkpt lat="43.26459133858012" lon="10.593642549044462"><ele>69.0</ele><time>2026-04-20T14:39:06Z</time></trkpt><trkpt lat="43.264506683759954" lon="10.593603778477958"><ele>68.60000000000001</ele><time>2026-04-20T14:39:07Z</time></trkpt><trkpt lat="43.26442394042491" lon="10.59354753264317"><ele>68.2</ele><time>2026-04-20T14:39:08Z</time></trkpt><trkpt lat="43.26432966834601" lon="10.593484182380028"><ele>67.80000000000001</ele><time>2026-04-20T14:39:09Z</time></trkpt><trkpt lat="43.264248667161496" lon="10.593368038536711"><ele>67.4</ele><time>2026-04-20T14:39:10Z</time></trkpt><trkpt lat="43.264158627062415" lon="10.593238559812415"><ele>67.0</ele><time>2026-04-20T14:39:11Z</time></trkpt><trkpt lat="43.2640460837275" lon="10.59312581327752"><ele>66.0</ele><time>2026-04-20T14:39:12Z</time></trkpt><trkpt lat="43.26393725391827" lon="10.59300282502599"><ele>65.0</ele><time>2026-04-20T14:39:13Z</time></trkpt><trkpt lat="43.263826352750435" lon="10.592882255065087"><ele>64.0</ele><time>2026-04-20T14:39:14Z</time></trkpt><trkpt lat="43.26372096622214" lon="10.592739705513823"><ele>63.0</ele><time>2026-04-20T14:39:15Z</time></trkpt><trkpt lat="43.26360034644396" lon="10.592626801406517"><ele>62.5</ele><time>2026-04-20T14:39:16Z</time></trkpt><trkpt lat="43.26349587655976" lon="10.592504795509669"><ele>62.0</ele><time>2026-04-20T14:39:17Z</time></trkpt><trkpt lat="43.26339446302115" lon="10.592389244348395"><ele>61.5</ele><time>2026-04-20T14:39:18Z</time></trkpt><trkpt lat="43.26328791488558" lon="10.592287302917482"><ele>61.0</ele><time>2026-04-20T14:39:19Z</time></trkpt><trkpt lat="43.26307854763127" lon="10.592063613912545"><ele>59.75</ele><time>2026-04-20T14:39:21Z</time></trkpt><trkpt lat="43.26298187195857" lon="10.591940723799286"><ele>58.5</ele><time>2026-04-20T14:39:22Z</time></trkpt><trkpt lat="43.26290130825206" lon="10.59181466699038"><ele>57.25</ele><time>2026-04-20T14:39:23Z</time></trkpt><trkpt lat="43.262833890030805" lon="10.591688870868794"><ele>56.0</ele><time>2026-04-20T14:39:24Z</time></trkpt><trkpt lat="43.26276102251879" lon="10.591544772267751"><ele>56.0</ele><time>2026-04-20T14:39:25Z</time></trkpt><trkpt lat="43.26266638241749" lon="10.591407567452313"><ele>56.0</ele><time>2026-04-20T14:39:26Z</time></trkpt><trkpt lat="43.26255814274452" lon="10.591265923093971"><ele>56.0</ele><time>2026-04-20T14:39:27Z</time></trkpt><trkpt lat="43.26243453373063" lon="10.591138484946875"><ele>56.0</ele><time>2026-04-20T14:39:28Z</time></trkpt><trkpt lat="43.262308581447336" lon="10.591012090227181"><ele>54.333333333333336</ele><time>2026-04-20T14:39:29Z</time></trkpt><trkpt lat="43.262189658335814" lon="10.590881870770732"><ele>52.66666666666667</ele><time>2026-04-20T14:39:30Z</time></trkpt><trkpt lat="43.26205809626646" lon="10.590739917862289"><ele>51.0</ele><time>2026-04-20T14:39:31Z</time></trkpt><trkpt lat="43.261941270120126" lon="10.590609729474922"><ele>51.0</ele><time>2026-04-20T14:39:32Z</time></trkpt><trkpt lat="43.26182761049398" lon="10.590480366874647"><ele>51.0</ele><time>2026-04-20T14:39:33Z</time></trkpt><trkpt lat="43.26171795583335" lon="10.590354303247867"><ele>51.0</ele><time>2026-04-20T14:39:34Z</time></trkpt><trkpt lat="43.261611145826414" lon="10.590243232234505"><ele>51.0</ele><time>2026-04-20T14:39:35Z</time></trkpt><trkpt lat="43.26150556986841" lon="10.59014296126323"><ele>50.4</ele><time>2026-04-20T14:39:36Z</time></trkpt><trkpt lat="43.26141310286134" lon="10.59004805189931"><ele>49.8</ele><time>2026-04-20T14:39:37Z</time></trkpt><trkpt lat="43.261342648933926" lon="10.58995307607657"><ele>49.199999999999996</ele><time>2026-04-20T14:39:38Z</time></trkpt><trkpt lat="43.261276671163465" lon="10.58986943938557"><ele>48.599999999999994</ele><time>2026-04-20T14:39:39Z</time></trkpt><trkpt lat="43.26120883729701" lon="10.589767960122034"><ele>48.0</ele><time>2026-04-20T14:39:40Z</time></trkpt><trkpt lat="43.26114141198445" lon="10.589656380562381"><ele>48.0</ele><time>2026-04-20T14:39:41Z</time></trkpt><trkpt lat="43.26110272919589" lon="10.589541674867347"><ele>48.0</ele><time>2026-04-20T14:39:42Z</time></trkpt><trkpt lat="43.26110265109919" lon="10.58937907782104"><ele>48.0</ele><time>2026-04-20T14:39:43Z</time></trkpt><trkpt lat="43.26107935743408" lon="10.58921513172815"><ele>48.0</ele><time>2026-04-20T14:39:44Z</time></trkpt><trkpt lat="43.26103403137029" lon="10.589027393175844"><ele>48.0</ele><time>2026-04-20T14:39:45Z</time></trkpt><trkpt lat="43.26098152310476" lon="10.588861543336838"><ele>48.0</ele><time>2026-04-20T14:39:46Z</time></trkpt><trkpt lat="43.26092453450094" lon="10.58871975356352"><ele>48.0</ele><time>2026-04-20T14:39:47Z</time></trkpt><trkpt lat="43.260850672839446" lon="10.588577902443276"><ele>48.0</ele><time>2026-04-20T14:39:48Z</time></trkpt><trkpt lat="43.26078749120901" lon="10.588425845805183"><ele>48.0</ele><time>2026-04-20T14:39:49Z</time></trkpt><trkpt lat="43.2607270063981" lon="10.58829475367567"><ele>48.0</ele><time>2026-04-20T14:39:50Z</time></trkpt><trkpt lat="43.260671519571524" lon="10.588155941336614"><ele>48.0</ele><time>2026-04-20T14:39:51Z</time></trkpt><trkpt lat="43.26059955920785" lon="10.588048008605881"><ele>48.0</ele><time>2026-04-20T14:39:52Z</time></trkpt><trkpt lat="43.26051426585008" lon="10.587945899345"><ele>48.0</ele><time>2026-04-20T14:39:53Z</time></trkpt><trkpt lat="43.26041063527283" lon="10.587836415417875"><ele>47.0</ele><time>2026-04-20T14:39:54Z</time></trkpt><trkpt lat="43.26029006300727" lon="10.58774849470602"><ele>46.0</ele><time>2026-04-20T14:39:55Z</time></trkpt><trkpt lat="43.26018136202937" lon="10.587659509190688"><ele>45.0</ele><time>2026-04-20T14:39:56Z</time></trkpt><trkpt lat="43.2600732762781" lon="10.587580791169401"><ele>44.0</ele><time>2026-04-20T14:39:57Z</time></trkpt><trkpt lat="43.25996784236062" lon="10.587485889057284"><ele>44.0</ele><time>2026-04-20T14:39:58Z</time></trkpt><trkpt lat="43.259879966798955" lon="10.5873755226214"><ele>44.0</ele><time>2026-04-20T14:39:59Z</time></trkpt><trkpt lat="43.25983219830667" lon="10.587226549773945"><ele>44.0</ele><time>2026-04-20T14:40:00Z</time></trkpt><trkpt lat="43.259787627194314" lon="10.587088577283984"><ele>44.0</ele><time>2026-04-20T14:40:01Z</time></trkpt><trkpt lat="43.259755078900824" lon="10.58694635208551"><ele>42.25</ele><time>2026-04-20T14:40:02Z</time></trkpt><trkpt lat="43.25972682682361" lon="10.586771586902106"><ele>40.5</ele><time>2026-04-20T14:40:03Z</time></trkpt><trkpt lat="43.25969184214966" lon="10.586619993613887"><ele>38.75</ele><time>2026-04-20T14:40:04Z</time></trkpt><trkpt lat="43.259639724643044" lon="10.58646155017692"><ele>37.0</ele><time>2026-04-20T14:40:05Z</time></trkpt><trkpt lat="43.259576410504614" lon="10.586332214696114"><ele>37.0</ele><time>2026-04-20T14:40:06Z</time></trkpt><trkpt lat="43.2594702844253" lon="10.586201157385336"><ele>37.0</ele><time>2026-04-20T14:40:07Z</time></trkpt><trkpt lat="43.25937493304135" lon="10.586052438753338"><ele>37.0</ele><time>2026-04-20T14:40:08Z</time></trkpt><trkpt lat="43.25926928266649" lon="10.58592737415755"><ele>37.0</ele><time>2026-04-20T14:40:09Z</time></trkpt><trkpt lat="43.25916101511774" lon="10.585799815583611"><ele>36.333333333333336</ele><time>2026-04-20T14:40:10Z</time></trkpt><trkpt lat="43.259048155665084" lon="10.58567101461691"><ele>35.666666666666664</ele><time>2026-04-20T14:40:11Z</time></trkpt><trkpt lat="43.258927654484175" lon="10.5855372278645"><ele>35.0</ele><time>2026-04-20T14:40:12Z</time></trkpt><trkpt lat="43.25880325780645" lon="10.585402174218519"><ele>34.33333333333333</ele><time>2026-04-20T14:40:13Z</time></trkpt><trkpt lat="43.258678395252375" lon="10.585267809934647"><ele>33.666666666666664</ele><time>2026-04-20T14:40:14Z</time></trkpt><trkpt lat="43.25855088345174" lon="10.585130594810112"><ele>33.0</ele><time>2026-04-20T14:40:15Z</time></trkpt><trkpt lat="43.25842111629531" lon="10.584990952697039"><ele>33.0</ele><time>2026-04-20T14:40:16Z</time></trkpt><trkpt lat="43.2582917924362" lon="10.58485178762259"><ele>33.0</ele><time>2026-04-20T14:40:17Z</time></trkpt><trkpt lat="43.25816275402952" lon="10.584712929726686"><ele>33.0</ele><time>2026-04-20T14:40:18Z</time></trkpt><trkpt lat="43.25803066780601" lon="10.584575200648908"><ele>32.0</ele><time>2026-04-20T14:40:19Z</time></trkpt><trkpt lat="43.25789760271029" lon="10.584436581107504"><ele>31.0</ele><time>2026-04-20T14:40:20Z</time></trkpt><trkpt lat="43.257769099631254" lon="10.584298589788858"><ele>30.0</ele><time>2026-04-20T14:40:21Z</time></trkpt><trkpt lat="43.2576398010176" lon="10.584159232445218"><ele>30.0</ele><time>2026-04-20T14:40:22Z</time></trkpt><trkpt lat="43.25750879704137" lon="10.58401803710242"><ele>30.0</ele><time>2026-04-20T14:40:23Z</time></trkpt><trkpt lat="43.25737665970787" lon="10.583876353106286"><ele>30.0</ele><time>2026-04-20T14:40:24Z</time></trkpt><trkpt lat="43.257243931009974" lon="10.58373579380969"><ele>30.333333333333336</ele><time>2026-04-20T14:40:25Z</time></trkpt><trkpt lat="43.25711165001625" lon="10.58359570862967"><ele>30.666666666666668</ele><time>2026-04-20T14:40:26Z</time></trkpt><trkpt lat="43.25697965205889" lon="10.583455923182566"><ele>31.0</ele><time>2026-04-20T14:40:27Z</time></trkpt><trkpt lat="43.25684825852712" lon="10.583316777815162"><ele>31.0</ele><time>2026-04-20T14:40:28Z</time></trkpt><trkpt lat="43.25672405484726" lon="10.583182360829545"><ele>31.0</ele><time>2026-04-20T14:40:29Z</time></trkpt><trkpt lat="43.25659760759095" lon="10.583046202653291"><ele>31.0</ele><time>2026-04-20T14:40:30Z</time></trkpt><trkpt lat="43.256459672536415" lon="10.582923345692532"><ele>30.0</ele><time>2026-04-20T14:40:31Z</time></trkpt><trkpt lat="43.25633014562866" lon="10.582788551349465"><ele>29.0</ele><time>2026-04-20T14:40:32Z</time></trkpt><trkpt lat="43.25621564582678" lon="10.582641212513257"><ele>28.0</ele><time>2026-04-20T14:40:33Z</time></trkpt><trkpt lat="43.25607702861813" lon="10.582531236737292"><ele>28.0</ele><time>2026-04-20T14:40:34Z</time></trkpt><trkpt lat="43.255930132610786" lon="10.582444100984835"><ele>28.0</ele><time>2026-04-20T14:40:35Z</time></trkpt><trkpt lat="43.255787460459615" lon="10.582373205254495"><ele>28.0</ele><time>2026-04-20T14:40:36Z</time></trkpt><trkpt lat="43.25566565904924" lon="10.582299184757204"><ele>28.0</ele><time>2026-04-20T14:40:37Z</time></trkpt><trkpt lat="43.25553726586489" lon="10.582215871476029"><ele>27.333333333333336</ele><time>2026-04-20T14:40:38Z</time></trkpt><trkpt lat="43.25542311465339" lon="10.58208383844871"><ele>26.666666666666664</ele><time>2026-04-20T14:40:39Z</time></trkpt><trkpt lat="43.255331832580644" lon="10.581916912624301"><ele>26.0</ele><time>2026-04-20T14:40:40Z</time></trkpt><trkpt lat="43.25523050441628" lon="10.581751585979312"><ele>26.0</ele><time>2026-04-20T14:40:41Z</time></trkpt><trkpt lat="43.25511341866144" lon="10.581597119757115"><ele>26.0</ele><time>2026-04-20T14:40:42Z</time></trkpt><trkpt lat="43.25501151960192" lon="10.581435856334947"><ele>26.0</ele><time>2026-04-20T14:40:43Z</time></trkpt><trkpt lat="43.25491235524482" lon="10.581280199191623"><ele>26.25</ele><time>2026-04-20T14:40:44Z</time></trkpt><trkpt lat="43.25483560470092" lon="10.58112461541852"><ele>26.5</ele><time>2026-04-20T14:40:45Z</time></trkpt><trkpt lat="43.25474406198358" lon="10.580980638744297"><ele>26.75</ele><time>2026-04-20T14:40:46Z</time></trkpt><trkpt lat="43.254637312311964" lon="10.580843402223037"><ele>27.0</ele><time>2026-04-20T14:40:47Z</time></trkpt><trkpt lat="43.25454723605553" lon="10.58067300771509"><ele>27.0</ele><time>2026-04-20T14:40:48Z</time></trkpt><trkpt lat="43.254441412317874" lon="10.580520145279145"><ele>27.0</ele><time>2026-04-20T14:40:49Z</time></trkpt><trkpt lat="43.25431849070349" lon="10.580383106956246"><ele>27.0</ele><time>2026-04-20T14:40:50Z</time></trkpt><trkpt lat="43.254202766671625" lon="10.580270417938303"><ele>27.0</ele><time>2026-04-20T14:40:51Z</time></trkpt><trkpt lat="43.2540932125715" lon="10.58015888180827"><ele>27.0</ele><time>2026-04-20T14:40:52Z</time></trkpt><trkpt lat="43.25400250152366" lon="10.580031487786659"><ele>27.0</ele><time>2026-04-20T14:40:53Z</time></trkpt><trkpt lat="43.25393148864545" lon="10.579861661320662"><ele>27.0</ele><time>2026-04-20T14:40:54Z</time></trkpt><trkpt lat="43.25386523423358" lon="10.5796723515178"><ele>25.333333333333332</ele><time>2026-04-20T14:40:55Z</time></trkpt><trkpt lat="43.25380862690088" lon="10.579464770383444"><ele>23.666666666666664</ele><time>2026-04-20T14:40:56Z</time></trkpt><trkpt lat="43.25374013180234" lon="10.579263963235714"><ele>22.0</ele><time>2026-04-20T14:40:57Z</time></trkpt><trkpt lat="43.253701387248306" lon="10.57904779480735"><ele>22.0</ele><time>2026-04-20T14:40:58Z</time></trkpt><trkpt lat="43.2536364727495" lon="10.578845045041236"><ele>22.0</ele><time>2026-04-20T14:40:59Z</time></trkpt><trkpt lat="43.253565384755454" lon="10.578646336985322"><ele>22.0</ele><time>2026-04-20T14:41:00Z</time></trkpt><trkpt lat="43.25349171713184" lon="10.578447910525304"><ele>22.0</ele><time>2026-04-20T14:41:01Z</time></trkpt><trkpt lat="43.25341669906441" lon="10.578252565428741"><ele>22.0</ele><time>2026-04-20T14:41:02Z</time></trkpt><trkpt lat="43.2533416408865" lon="10.578061560832312"><ele>22.0</ele><time>2026-04-20T14:41:03Z</time></trkpt><trkpt lat="43.253266380284344" lon="10.577870041164944"><ele>22.0</ele><time>2026-04-20T14:41:04Z</time></trkpt><trkpt lat="43.25319314557459" lon="10.577678298424747"><ele>22.0</ele><time>2026-04-20T14:41:05Z</time></trkpt><trkpt lat="43.25313067185135" lon="10.577479774474599"><ele>22.0</ele><time>2026-04-20T14:41:06Z</time></trkpt><trkpt lat="43.25308342509966" lon="10.57729303071418"><ele>21.75</ele><time>2026-04-20T14:41:07Z</time></trkpt><trkpt lat="43.25303945706455" lon="10.577114783849854"><ele>21.5</ele><time>2026-04-20T14:41:08Z</time></trkpt><trkpt lat="43.25299382410643" lon="10.57695461281446"><ele>21.25</ele><time>2026-04-20T14:41:09Z</time></trkpt><trkpt lat="43.25293144404661" lon="10.57679182046298"><ele>21.0</ele><time>2026-04-20T14:41:10Z</time></trkpt><trkpt lat="43.252842139871326" lon="10.576631071613663"><ele>21.5</ele><time>2026-04-20T14:41:11Z</time></trkpt><trkpt lat="43.25272765869263" lon="10.576510866192939"><ele>22.0</ele><time>2026-04-20T14:41:12Z</time></trkpt><trkpt lat="43.25261328147479" lon="10.576395981878282"><ele>22.5</ele><time>2026-04-20T14:41:13Z</time></trkpt><trkpt lat="43.25249202478832" lon="10.576266994165998"><ele>23.0</ele><time>2026-04-20T14:41:14Z</time></trkpt><trkpt lat="43.25235642514634" lon="10.576166953634251"><ele>22.75</ele><time>2026-04-20T14:41:15Z</time></trkpt><trkpt lat="43.25222477120224" lon="10.576074591209652"><ele>22.5</ele><time>2026-04-20T14:41:16Z</time></trkpt><trkpt lat="43.2520867812105" lon="10.57598241027055"><ele>22.25</ele><time>2026-04-20T14:41:17Z</time></trkpt><trkpt lat="43.25196092032279" lon="10.575899375311035"><ele>22.0</ele><time>2026-04-20T14:41:18Z</time></trkpt><trkpt lat="43.25184824119478" lon="10.575823558279211"><ele>22.0</ele><time>2026-04-20T14:41:19Z</time></trkpt><trkpt lat="43.251750662787394" lon="10.575757724337967"><ele>22.0</ele><time>2026-04-20T14:41:20Z</time></trkpt><trkpt lat="43.251655907274454" lon="10.575718900135197"><ele>22.0</ele><time>2026-04-20T14:41:21Z</time></trkpt><trkpt lat="43.251560051920414" lon="10.575676321495965"><ele>22.0</ele><time>2026-04-20T14:41:22Z</time></trkpt><trkpt lat="43.25144987891637" lon="10.575627712187757"><ele>22.0</ele><time>2026-04-20T14:41:23Z</time></trkpt><trkpt lat="43.25132752249506" lon="10.575607605007212"><ele>21.8</ele><time>2026-04-20T14:41:24Z</time></trkpt><trkpt lat="43.251214285273214" lon="10.575588043095335"><ele>21.6</ele><time>2026-04-20T14:41:25Z</time></trkpt><trkpt lat="43.25111545008761" lon="10.575562043016713"><ele>21.400000000000002</ele><time>2026-04-20T14:41:26Z</time></trkpt><trkpt lat="43.25102192331062" lon="10.57553666697195"><ele>21.200000000000003</ele><time>2026-04-20T14:41:27Z</time></trkpt><trkpt lat="43.25093803185514" lon="10.575447001533748"><ele>21.0</ele><time>2026-04-20T14:41:28Z</time></trkpt><trkpt lat="43.250861500751476" lon="10.5753282280511"><ele>20.75</ele><time>2026-04-20T14:41:29Z</time></trkpt><trkpt lat="43.25078891183269" lon="10.57518806040643"><ele>20.5</ele><time>2026-04-20T14:41:30Z</time></trkpt><trkpt lat="43.25071523518656" lon="10.575048984794906"><ele>20.25</ele><time>2026-04-20T14:41:31Z</time></trkpt><trkpt lat="43.250648832747096" lon="10.5749278627434"><ele>20.0</ele><time>2026-04-20T14:41:32Z</time></trkpt><trkpt lat="43.25057692865305" lon="10.574807446223373"><ele>19.5</ele><time>2026-04-20T14:41:33Z</time></trkpt><trkpt lat="43.250490426954556" lon="10.574698939661353"><ele>19.0</ele><time>2026-04-20T14:41:34Z</time></trkpt><trkpt lat="43.25040313546906" lon="10.5745779729991"><ele>18.5</ele><time>2026-04-20T14:41:35Z</time></trkpt><trkpt lat="43.25027816353698" lon="10.574500573273298"><ele>18.0</ele><time>2026-04-20T14:41:36Z</time></trkpt><trkpt lat="43.250149876944995" lon="10.57441642458756"><ele>18.0</ele><time>2026-04-20T14:41:37Z</time></trkpt><trkpt lat="43.25002979502101" lon="10.574319053215538"><ele>18.0</ele><time>2026-04-20T14:41:38Z</time></trkpt><trkpt lat="43.24989791471667" lon="10.574237389047035"><ele>18.0</ele><time>2026-04-20T14:41:39Z</time></trkpt><trkpt lat="43.249764804663265" lon="10.574160216678754"><ele>18.0</ele><time>2026-04-20T14:41:40Z</time></trkpt><trkpt lat="43.24964195547162" lon="10.574079817715797"><ele>18.25</ele><time>2026-04-20T14:41:41Z</time></trkpt><trkpt lat="43.24951603286751" lon="10.573985332513386"><ele>18.5</ele><time>2026-04-20T14:41:42Z</time></trkpt><trkpt lat="43.24939884076999" lon="10.573862691748571"><ele>18.75</ele><time>2026-04-20T14:41:43Z</time></trkpt><trkpt lat="43.24927813825731" lon="10.573726468471664"><ele>19.0</ele><time>2026-04-20T14:41:44Z</time></trkpt><trkpt lat="43.249177790260255" lon="10.573559898905435"><ele>19.0</ele><time>2026-04-20T14:41:45Z</time></trkpt><trkpt lat="43.249083799321724" lon="10.573409949577877"><ele>19.0</ele><time>2026-04-20T14:41:46Z</time></trkpt><trkpt lat="43.24901442828615" lon="10.573265240260875"><ele>19.0</ele><time>2026-04-20T14:41:47Z</time></trkpt><trkpt lat="43.24894072247104" lon="10.57317708147965"><ele>19.0</ele><time>2026-04-20T14:41:48Z</time></trkpt><trkpt lat="43.24889742618348" lon="10.57309390719477"><ele>19.0</ele><time>2026-04-20T14:41:49Z</time></trkpt><trkpt lat="43.24886128065213" lon="10.573012578663276"><ele>18.4</ele><time>2026-04-20T14:41:50Z</time></trkpt><trkpt lat="43.24883013838689" lon="10.572935089653274"><ele>17.799999999999997</ele><time>2026-04-20T14:41:51Z</time></trkpt><trkpt lat="43.24877243736808" lon="10.57279004517425"><ele>17.200000000000003</ele><time>2026-04-20T14:41:53Z</time></trkpt><trkpt lat="43.24870929125627" lon="10.572632722648311"><ele>16.6</ele><time>2026-04-20T14:41:55Z</time></trkpt><trkpt lat="43.248656166356895" lon="10.572500539943494"><ele>16.0</ele><time>2026-04-20T14:41:57Z</time></trkpt><trkpt lat="43.248621706945386" lon="10.572415412439794"><ele>16.0</ele><time>2026-04-20T14:41:59Z</time></trkpt><trkpt lat="43.248574327160966" lon="10.57232125188657"><ele>16.0</ele><time>2026-04-20T14:42:01Z</time></trkpt><trkpt lat="43.248516082964436" lon="10.572174680228168"><ele>16.0</ele><time>2026-04-20T14:42:03Z</time></trkpt><trkpt lat="43.24847738404832" lon="10.57209792330689"><ele>16.0</ele><time>2026-04-20T14:42:04Z</time></trkpt><trkpt lat="43.24840304354137" lon="10.57195147706692"><ele>16.0</ele><time>2026-04-20T14:42:06Z</time></trkpt><trkpt lat="43.24835796844402" lon="10.571862681776347"><ele>16.0</ele><time>2026-04-20T14:42:07Z</time></trkpt><trkpt lat="43.24829577467339" lon="10.571758650272626"><ele>16.0</ele><time>2026-04-20T14:42:08Z</time></trkpt><trkpt lat="43.248236668299356" lon="10.57164097558223"><ele>16.0</ele><time>2026-04-20T14:42:09Z</time></trkpt><trkpt lat="43.24817184610176" lon="10.571515708464332"><ele>16.0</ele><time>2026-04-20T14:42:10Z</time></trkpt><trkpt lat="43.24810051025926" lon="10.57137822438127"><ele>16.0</ele><time>2026-04-20T14:42:11Z</time></trkpt><trkpt lat="43.248028091255584" lon="10.571231157732313"><ele>16.0</ele><time>2026-04-20T14:42:12Z</time></trkpt><trkpt lat="43.24795489084912" lon="10.571084899815212"><ele>16.0</ele><time>2026-04-20T14:42:13Z</time></trkpt><trkpt lat="43.247878362996246" lon="10.570930555454888"><ele>16.0</ele><time>2026-04-20T14:42:14Z</time></trkpt><trkpt lat="43.24780167525662" lon="10.570775602842582"><ele>16.0</ele><time>2026-04-20T14:42:15Z</time></trkpt><trkpt lat="43.24771841424028" lon="10.570616905111432"><ele>16.0</ele><time>2026-04-20T14:42:16Z</time></trkpt><trkpt lat="43.247637769124594" lon="10.570457391485803"><ele>16.0</ele><time>2026-04-20T14:42:17Z</time></trkpt><trkpt lat="43.24755911408311" lon="10.570304938391697"><ele>16.0</ele><time>2026-04-20T14:42:18Z</time></trkpt><trkpt lat="43.247477951479055" lon="10.570148923876655"><ele>16.0</ele><time>2026-04-20T14:42:19Z</time></trkpt><trkpt lat="43.24739186037886" lon="10.56999382929049"><ele>16.25</ele><time>2026-04-20T14:42:20Z</time></trkpt><trkpt lat="43.24730150275314" lon="10.569839127749107"><ele>16.5</ele><time>2026-04-20T14:42:21Z</time></trkpt><trkpt lat="43.24722012619105" lon="10.569673795776591"><ele>16.75</ele><time>2026-04-20T14:42:22Z</time></trkpt><trkpt lat="43.247119587230955" lon="10.569530291765455"><ele>17.0</ele><time>2026-04-20T14:42:23Z</time></trkpt><trkpt lat="43.24700825413918" lon="10.569411124009191"><ele>16.25</ele><time>2026-04-20T14:42:24Z</time></trkpt><trkpt lat="43.246906357700205" lon="10.569282513170691"><ele>15.5</ele><time>2026-04-20T14:42:25Z</time></trkpt><trkpt lat="43.24680956005447" lon="10.569155398131183"><ele>14.75</ele><time>2026-04-20T14:42:26Z</time></trkpt><trkpt lat="43.24672660702497" lon="10.569022401683972"><ele>14.0</ele><time>2026-04-20T14:42:27Z</time></trkpt><trkpt lat="43.2466293819708" lon="10.568895756820355"><ele>14.0</ele><time>2026-04-20T14:42:28Z</time></trkpt><trkpt lat="43.24651979420851" lon="10.568779944055596"><ele>14.0</ele><time>2026-04-20T14:42:29Z</time></trkpt><trkpt lat="43.246431948141655" lon="10.568634139226056"><ele>14.0</ele><time>2026-04-20T14:42:30Z</time></trkpt><trkpt lat="43.246344793208955" lon="10.568481654799918"><ele>14.0</ele><time>2026-04-20T14:42:31Z</time></trkpt><trkpt lat="43.24626405967958" lon="10.568307800440248"><ele>14.0</ele><time>2026-04-20T14:42:32Z</time></trkpt><trkpt lat="43.24619241021117" lon="10.568123559047443"><ele>14.0</ele><time>2026-04-20T14:42:33Z</time></trkpt><trkpt lat="43.2461164478279" lon="10.567928711100821"><ele>14.0</ele><time>2026-04-20T14:42:34Z</time></trkpt><trkpt lat="43.24604065497007" lon="10.567727650340549"><ele>14.0</ele><time>2026-04-20T14:42:35Z</time></trkpt><trkpt lat="43.24596780021298" lon="10.567527054570142"><ele>14.0</ele><time>2026-04-20T14:42:36Z</time></trkpt><trkpt lat="43.24589421329901" lon="10.567324845096204"><ele>14.0</ele><time>2026-04-20T14:42:37Z</time></trkpt><trkpt lat="43.2458201890172" lon="10.56712026461402"><ele>14.333333333333334</ele><time>2026-04-20T14:42:38Z</time></trkpt><trkpt lat="43.24574428539059" lon="10.566916889307446"><ele>14.666666666666668</ele><time>2026-04-20T14:42:39Z</time></trkpt><trkpt lat="43.24566978290166" lon="10.566708488240312"><ele>15.0</ele><time>2026-04-20T14:42:40Z</time></trkpt><trkpt lat="43.24559357002469" lon="10.566502804369037"><ele>14.0</ele><time>2026-04-20T14:42:41Z</time></trkpt><trkpt lat="43.245517245559284" lon="10.56629144129459"><ele>13.0</ele><time>2026-04-20T14:42:42Z</time></trkpt><trkpt lat="43.24544272696151" lon="10.566078227515606"><ele>12.0</ele><time>2026-04-20T14:42:43Z</time></trkpt><trkpt lat="43.24536466376045" lon="10.565861376236905"><ele>12.0</ele><time>2026-04-20T14:42:44Z</time></trkpt><trkpt lat="43.24528654983793" lon="10.565643213913773"><ele>12.0</ele><time>2026-04-20T14:42:45Z</time></trkpt><trkpt lat="43.24520998241523" lon="10.565425999490495"><ele>12.0</ele><time>2026-04-20T14:42:46Z</time></trkpt><trkpt lat="43.245130761283335" lon="10.565208863324504"><ele>12.333333333333332</ele><time>2026-04-20T14:42:47Z</time></trkpt><trkpt lat="43.24505532117582" lon="10.564986783053634"><ele>12.666666666666666</ele><time>2026-04-20T14:42:48Z</time></trkpt><trkpt lat="43.244978929744754" lon="10.564769375619429"><ele>13.0</ele><time>2026-04-20T14:42:49Z</time></trkpt><trkpt lat="43.24490273297472" lon="10.56454979587061"><ele>13.0</ele><time>2026-04-20T14:42:50Z</time></trkpt><trkpt lat="43.24482593049937" lon="10.564327812661572"><ele>13.0</ele><time>2026-04-20T14:42:51Z</time></trkpt><trkpt lat="43.24474372633226" lon="10.564102589812586"><ele>13.0</ele><time>2026-04-20T14:42:52Z</time></trkpt><trkpt lat="43.24466774664329" lon="10.563879678252485"><ele>12.666666666666666</ele><time>2026-04-20T14:42:53Z</time></trkpt><trkpt lat="43.24458702993943" lon="10.563647978424521"><ele>12.333333333333332</ele><time>2026-04-20T14:42:54Z</time></trkpt><trkpt lat="43.244506222068175" lon="10.563422062986803"><ele>12.0</ele><time>2026-04-20T14:42:55Z</time></trkpt><trkpt lat="43.24442495785551" lon="10.563190866918822"><ele>12.0</ele><time>2026-04-20T14:42:56Z</time></trkpt><trkpt lat="43.2443440444176" lon="10.562958148013399"><ele>12.0</ele><time>2026-04-20T14:42:57Z</time></trkpt><trkpt lat="43.244261273918106" lon="10.5627233112867"><ele>12.0</ele><time>2026-04-20T14:42:58Z</time></trkpt><trkpt lat="43.24418065714973" lon="10.562494403145985"><ele>12.0</ele><time>2026-04-20T14:42:59Z</time></trkpt><trkpt lat="43.24410071170972" lon="10.562263070811523"><ele>12.0</ele><time>2026-04-20T14:43:00Z</time></trkpt><trkpt lat="43.244019274718426" lon="10.56203227425075"><ele>12.0</ele><time>2026-04-20T14:43:01Z</time></trkpt><trkpt lat="43.24394027253827" lon="10.561801234399866"><ele>12.0</ele><time>2026-04-20T14:43:02Z</time></trkpt><trkpt lat="43.24385908490924" lon="10.561571468741574"><ele>12.0</ele><time>2026-04-20T14:43:03Z</time></trkpt><trkpt lat="43.243780030363226" lon="10.561342705702199"><ele>12.0</ele><time>2026-04-20T14:43:04Z</time></trkpt><trkpt lat="43.243701272426115" lon="10.561111745190273"><ele>11.333333333333334</ele><time>2026-04-20T14:43:05Z</time></trkpt><trkpt lat="43.24361999375697" lon="10.56088313401601"><ele>10.666666666666668</ele><time>2026-04-20T14:43:06Z</time></trkpt><trkpt lat="43.243541996705886" lon="10.560655677231829"><ele>10.0</ele><time>2026-04-20T14:43:07Z</time></trkpt><trkpt lat="43.24346389540976" lon="10.560423918315744"><ele>9.666666666666668</ele><time>2026-04-20T14:43:08Z</time></trkpt><trkpt lat="43.2433843734207" lon="10.560196729794365"><ele>9.333333333333334</ele><time>2026-04-20T14:43:09Z</time></trkpt><trkpt lat="43.24330409305712" lon="10.559971370750064"><ele>9.0</ele><time>2026-04-20T14:43:10Z</time></trkpt><trkpt lat="43.243225871979995" lon="10.559746702510001"><ele>9.0</ele><time>2026-04-20T14:43:11Z</time></trkpt><trkpt lat="43.24314552345338" lon="10.559531577822584"><ele>9.0</ele><time>2026-04-20T14:43:12Z</time></trkpt><trkpt lat="43.24306510951891" lon="10.559314928526932"><ele>9.0</ele><time>2026-04-20T14:43:13Z</time></trkpt><trkpt lat="43.24297955958148" lon="10.559101391587566"><ele>9.0</ele><time>2026-04-20T14:43:14Z</time></trkpt><trkpt lat="43.24289473163167" lon="10.558886358168415"><ele>9.0</ele><time>2026-04-20T14:43:15Z</time></trkpt><trkpt lat="43.242809456919176" lon="10.558676241926156"><ele>9.0</ele><time>2026-04-20T14:43:16Z</time></trkpt><trkpt lat="43.24272473407574" lon="10.558471461548606"><ele>9.0</ele><time>2026-04-20T14:43:17Z</time></trkpt><trkpt lat="43.242637179471785" lon="10.558268664200233"><ele>9.0</ele><time>2026-04-20T14:43:18Z</time></trkpt><trkpt lat="43.24254652146113" lon="10.55806732705259"><ele>9.0</ele><time>2026-04-20T14:43:19Z</time></trkpt><trkpt lat="43.24245713526281" lon="10.557862797798908"><ele>9.0</ele><time>2026-04-20T14:43:20Z</time></trkpt><trkpt lat="43.24236721451706" lon="10.557658977362614"><ele>9.0</ele><time>2026-04-20T14:43:21Z</time></trkpt><trkpt lat="43.24227709532045" lon="10.557451605793226"><ele>9.0</ele><time>2026-04-20T14:43:22Z</time></trkpt><trkpt lat="43.24218815993269" lon="10.5572392589616"><ele>9.333333333333334</ele><time>2026-04-20T14:43:23Z</time></trkpt><trkpt lat="43.24210036259371" lon="10.557023917562963"><ele>9.666666666666668</ele><time>2026-04-20T14:43:24Z</time></trkpt><trkpt lat="43.242010855836135" lon="10.55681105552635"><ele>10.0</ele><time>2026-04-20T14:43:25Z</time></trkpt><trkpt lat="43.24192145682232" lon="10.55659965371787"><ele>10.0</ele><time>2026-04-20T14:43:26Z</time></trkpt><trkpt lat="43.24183161947995" lon="10.55637803472002"><ele>10.0</ele><time>2026-04-20T14:43:27Z</time></trkpt><trkpt lat="43.241748668975376" lon="10.556163524789486"><ele>10.0</ele><time>2026-04-20T14:43:28Z</time></trkpt><trkpt lat="43.24166865365104" lon="10.555947855064085"><ele>10.333333333333334</ele><time>2026-04-20T14:43:29Z</time></trkpt><trkpt lat="43.24159022470722" lon="10.555746388486273"><ele>10.666666666666666</ele><time>2026-04-20T14:43:30Z</time></trkpt><trkpt lat="43.24151225962975" lon="10.555544676270934"><ele>11.0</ele><time>2026-04-20T14:43:31Z</time></trkpt><trkpt lat="43.24143684025834" lon="10.55534607859774"><ele>10.0</ele><time>2026-04-20T14:43:32Z</time></trkpt><trkpt lat="43.24136649719553" lon="10.55515692843633"><ele>9.0</ele><time>2026-04-20T14:43:33Z</time></trkpt><trkpt lat="43.24129151790699" lon="10.554954415882868"><ele>8.0</ele><time>2026-04-20T14:43:34Z</time></trkpt><trkpt lat="43.24122257953051" lon="10.55478022017597"><ele>8.0</ele><time>2026-04-20T14:43:35Z</time></trkpt><trkpt lat="43.241164954189514" lon="10.554608303714165"><ele>8.0</ele><time>2026-04-20T14:43:36Z</time></trkpt><trkpt lat="43.2411275139184" lon="10.554436621553183"><ele>8.0</ele><time>2026-04-20T14:43:37Z</time></trkpt><trkpt lat="43.24109269156842" lon="10.554299607664193"><ele>8.0</ele><time>2026-04-20T14:43:38Z</time></trkpt><trkpt lat="43.24104627149218" lon="10.554150832596651"><ele>8.200000000000001</ele><time>2026-04-20T14:43:39Z</time></trkpt><trkpt lat="43.24100293499909" lon="10.554015986129782"><ele>8.4</ele><time>2026-04-20T14:43:40Z</time></trkpt><trkpt lat="43.2409663983323" lon="10.553890215834194"><ele>8.600000000000001</ele><time>2026-04-20T14:43:41Z</time></trkpt><trkpt lat="43.24093216841094" lon="10.553767718398632"><ele>8.8</ele><time>2026-04-20T14:43:42Z</time></trkpt><trkpt lat="43.24090455751868" lon="10.553662610067063"><ele>9.0</ele><time>2026-04-20T14:43:43Z</time></trkpt><trkpt lat="43.24087013363522" lon="10.553549831589995"><ele>8.666666666666666</ele><time>2026-04-20T14:43:45Z</time></trkpt><trkpt lat="43.24082895136547" lon="10.553444807613337"><ele>8.333333333333334</ele><time>2026-04-20T14:43:47Z</time></trkpt><trkpt lat="43.24074034784413" lon="10.553365330039782"><ele>8.0</ele><time>2026-04-20T14:43:49Z</time></trkpt><trkpt lat="43.240708417240995" lon="10.553287676693044"><ele>7.666666666666667</ele><time>2026-04-20T14:43:51Z</time></trkpt><trkpt lat="43.24067489713977" lon="10.553185878158327"><ele>7.333333333333334</ele><time>2026-04-20T14:43:54Z</time></trkpt><trkpt lat="43.24064927718932" lon="10.553087488091732"><ele>7.0</ele><time>2026-04-20T14:43:57Z</time></trkpt><trkpt lat="43.24067267657626" lon="10.55297525545548"><ele>7.0</ele><time>2026-04-20T14:44:54Z</time></trkpt><trkpt lat="43.240691064567436" lon="10.552862502258632"><ele>6.999999999999999</ele><time>2026-04-20T14:45:00Z</time></trkpt><trkpt lat="43.24054941065007" lon="10.55287151092911"><ele>6.999999999999999</ele><time>2026-04-20T14:45:02Z</time></trkpt><trkpt lat="43.24048618956831" lon="10.55288846379263"><ele>7.0</ele><time>2026-04-20T14:45:03Z</time></trkpt><trkpt lat="43.24041819193566" lon="10.552913112360132"><ele>7.0</ele><time>2026-04-20T14:45:04Z</time></trkpt><trkpt lat="43.240325860334806" lon="10.552946581751248"><ele>6.5</ele><time>2026-04-20T14:45:05Z</time></trkpt><trkpt lat="43.240227764800096" lon="10.553004299516424"><ele>6.0</ele><time>2026-04-20T14:45:06Z</time></trkpt><trkpt lat="43.24011760353557" lon="10.553030341423772"><ele>5.5</ele><time>2026-04-20T14:45:07Z</time></trkpt><trkpt lat="43.24000025119116" lon="10.553075207861932"><ele>5.0</ele><time>2026-04-20T14:45:08Z</time></trkpt><trkpt lat="43.239872391120464" lon="10.553123857365227"><ele>4.75</ele><time>2026-04-20T14:45:09Z</time></trkpt><trkpt lat="43.23973613936568" lon="10.553168355544264"><ele>4.5</ele><time>2026-04-20T14:45:10Z</time></trkpt><trkpt lat="43.23959967386692" lon="10.55322088143168"><ele>4.25</ele><time>2026-04-20T14:45:11Z</time></trkpt><trkpt lat="43.239457146699294" lon="10.55327251821534"><ele>4.0</ele><time>2026-04-20T14:45:12Z</time></trkpt><trkpt lat="43.23931329455789" lon="10.553310424394713"><ele>4.0</ele><time>2026-04-20T14:45:13Z</time></trkpt><trkpt lat="43.23917098190674" lon="10.553410940461543"><ele>4.0</ele><time>2026-04-20T14:45:14Z</time></trkpt><trkpt lat="43.23902788878424" lon="10.553510993104053"><ele>4.0</ele><time>2026-04-20T14:45:15Z</time></trkpt><trkpt lat="43.23888536560666" lon="10.553628801557895"><ele>4.666666666666666</ele><time>2026-04-20T14:45:16Z</time></trkpt><trkpt lat="43.238740723471274" lon="10.553749288390879"><ele>5.333333333333333</ele><time>2026-04-20T14:45:17Z</time></trkpt><trkpt lat="43.238592278598865" lon="10.553870919221206"><ele>6.0</ele><time>2026-04-20T14:45:18Z</time></trkpt><trkpt lat="43.238443515254374" lon="10.553994695951275"><ele>6.0</ele><time>2026-04-20T14:45:19Z</time></trkpt><trkpt lat="43.238297138577124" lon="10.554118884525087"><ele>6.0</ele><time>2026-04-20T14:45:20Z</time></trkpt><trkpt lat="43.238157343071634" lon="10.554237783463774"><ele>6.0</ele><time>2026-04-20T14:45:21Z</time></trkpt><trkpt lat="43.23801267705451" lon="10.554350335502487"><ele>6.333333333333334</ele><time>2026-04-20T14:45:22Z</time></trkpt><trkpt lat="43.23786523939447" lon="10.554461628966711"><ele>6.666666666666667</ele><time>2026-04-20T14:45:23Z</time></trkpt><trkpt lat="43.23773346543175" lon="10.554569434320506"><ele>7.0</ele><time>2026-04-20T14:45:24Z</time></trkpt><trkpt lat="43.23760560212026" lon="10.55467262050062"><ele>7.0</ele><time>2026-04-20T14:45:25Z</time></trkpt><trkpt lat="43.23746932089392" lon="10.55477246126657"><ele>7.0</ele><time>2026-04-20T14:45:26Z</time></trkpt><trkpt lat="43.2373193772036" lon="10.554863981351673"><ele>7.0</ele><time>2026-04-20T14:45:27Z</time></trkpt><trkpt lat="43.237156810586434" lon="10.554943467491405"><ele>7.0</ele><time>2026-04-20T14:45:28Z</time></trkpt><trkpt lat="43.23699039794228" lon="10.55499145829706"><ele>7.0</ele><time>2026-04-20T14:45:29Z</time></trkpt><trkpt lat="43.2368311730925" lon="10.555056298576302"><ele>7.0</ele><time>2026-04-20T14:45:30Z</time></trkpt><trkpt lat="43.23668078944429" lon="10.555140812848938"><ele>7.0</ele><time>2026-04-20T14:45:31Z</time></trkpt><trkpt lat="43.236531013356384" lon="10.555197081116074"><ele>7.0</ele><time>2026-04-20T14:45:32Z</time></trkpt><trkpt lat="43.23637942156961" lon="10.555259588076108"><ele>7.0</ele><time>2026-04-20T14:45:33Z</time></trkpt><trkpt lat="43.236226044262" lon="10.55532311604732"><ele>7.666666666666667</ele><time>2026-04-20T14:45:34Z</time></trkpt><trkpt lat="43.236073715153616" lon="10.555383763183343"><ele>8.333333333333334</ele><time>2026-04-20T14:45:35Z</time></trkpt><trkpt lat="43.23592931994273" lon="10.555438132884808"><ele>9.0</ele><time>2026-04-20T14:45:36Z</time></trkpt><trkpt lat="43.23578285026987" lon="10.55549020719733"><ele>9.0</ele><time>2026-04-20T14:45:37Z</time></trkpt><trkpt lat="43.23564204654276" lon="10.555539539818122"><ele>9.0</ele><time>2026-04-20T14:45:38Z</time></trkpt><trkpt lat="43.23550269416581" lon="10.555563744639823"><ele>9.0</ele><time>2026-04-20T14:45:39Z</time></trkpt><trkpt lat="43.23535352825889" lon="10.555564938624707"><ele>9.0</ele><time>2026-04-20T14:45:40Z</time></trkpt><trkpt lat="43.23519896163028" lon="10.555548842846026"><ele>8.666666666666666</ele><time>2026-04-20T14:45:41Z</time></trkpt><trkpt lat="43.23503905921782" lon="10.555526812673266"><ele>8.333333333333332</ele><time>2026-04-20T14:45:42Z</time></trkpt><trkpt lat="43.23487457935276" lon="10.55551272166696"><ele>8.0</ele><time>2026-04-20T14:45:43Z</time></trkpt><trkpt lat="43.234706292268" lon="10.555504237610569"><ele>8.0</ele><time>2026-04-20T14:45:44Z</time></trkpt><trkpt lat="43.23453756625315" lon="10.555492485844953"><ele>8.0</ele><time>2026-04-20T14:45:45Z</time></trkpt><trkpt lat="43.23438637229003" lon="10.55549726260391"><ele>8.0</ele><time>2026-04-20T14:45:46Z</time></trkpt><trkpt lat="43.23423840004771" lon="10.555504619574023"><ele>8.0</ele><time>2026-04-20T14:45:47Z</time></trkpt><trkpt lat="43.23410224415046" lon="10.555517354003664"><ele>8.0</ele><time>2026-04-20T14:45:48Z</time></trkpt><trkpt lat="43.233975621196066" lon="10.555541727972976"><ele>8.0</ele><time>2026-04-20T14:45:49Z</time></trkpt><trkpt lat="43.23385204412409" lon="10.555583144962975"><ele>8.0</ele><time>2026-04-20T14:45:50Z</time></trkpt><trkpt lat="43.233724621801265" lon="10.555651329442814"><ele>8.666666666666666</ele><time>2026-04-20T14:45:51Z</time></trkpt><trkpt lat="43.23359869322196" lon="10.555750358089705"><ele>9.333333333333334</ele><time>2026-04-20T14:45:52Z</time></trkpt><trkpt lat="43.233476794060856" lon="10.5558709836205"><ele>10.0</ele><time>2026-04-20T14:45:53Z</time></trkpt><trkpt lat="43.23335744837529" lon="10.5560057994493"><ele>10.0</ele><time>2026-04-20T14:45:54Z</time></trkpt><trkpt lat="43.2332355284248" lon="10.556150881099178"><ele>10.0</ele><time>2026-04-20T14:45:55Z</time></trkpt><trkpt lat="43.23311202545972" lon="10.5563050391002"><ele>10.0</ele><time>2026-04-20T14:45:56.02Z</time></trkpt><trkpt lat="43.23300088975924" lon="10.556443355831554"><ele>9.5</ele><time>2026-04-20T14:45:57.016Z</time></trkpt><trkpt lat="43.23288995417895" lon="10.556571939917017"><ele>9.0</ele><time>2026-04-20T14:45:58.024Z</time></trkpt><trkpt lat="43.23277118456384" lon="10.556683294215533"><ele>8.5</ele><time>2026-04-20T14:45:59Z</time></trkpt><trkpt lat="43.23263979194349" lon="10.556763162106485"><ele>8.0</ele><time>2026-04-20T14:46:00Z</time></trkpt><trkpt lat="43.23249901424024" lon="10.55682959079237"><ele>8.0</ele><time>2026-04-20T14:46:01Z</time></trkpt><trkpt lat="43.232346443036015" lon="10.556889521632717"><ele>8.0</ele><time>2026-04-20T14:46:02Z</time></trkpt><trkpt lat="43.232194116024985" lon="10.556943516849671"><ele>8.0</ele><time>2026-04-20T14:46:03Z</time></trkpt><trkpt lat="43.23203830091637" lon="10.557012522248131"><ele>8.666666666666666</ele><time>2026-04-20T14:46:04Z</time></trkpt><trkpt lat="43.23187828155746" lon="10.557077862935138"><ele>9.333333333333334</ele><time>2026-04-20T14:46:05Z</time></trkpt><trkpt lat="43.231718862029524" lon="10.557146986742561"><ele>10.0</ele><time>2026-04-20T14:46:06Z</time></trkpt><trkpt lat="43.23155919257099" lon="10.557211577235972"><ele>9.333333333333334</ele><time>2026-04-20T14:46:07Z</time></trkpt><trkpt lat="43.23139314095428" lon="10.557281568710293"><ele>8.666666666666666</ele><time>2026-04-20T14:46:08Z</time></trkpt><trkpt lat="43.231223587034016" lon="10.557356603366218"><ele>8.0</ele><time>2026-04-20T14:46:09Z</time></trkpt><trkpt lat="43.231052908750335" lon="10.557420858179817"><ele>8.0</ele><time>2026-04-20T14:46:10Z</time></trkpt><trkpt lat="43.230880737375095" lon="10.55749611808323"><ele>8.0</ele><time>2026-04-20T14:46:11Z</time></trkpt><trkpt lat="43.23072078505648" lon="10.557562468892968"><ele>8.0</ele><time>2026-04-20T14:46:12Z</time></trkpt><trkpt lat="43.23055853307175" lon="10.557621841006961"><ele>7.666666666666666</ele><time>2026-04-20T14:46:13Z</time></trkpt><trkpt lat="43.230388492011784" lon="10.55769091142262"><ele>7.333333333333334</ele><time>2026-04-20T14:46:14Z</time></trkpt><trkpt lat="43.230219365360156" lon="10.557755791149635"><ele>7.0</ele><time>2026-04-20T14:46:15Z</time></trkpt><trkpt lat="43.230047502444165" lon="10.557823219879971"><ele>6.666666666666667</ele><time>2026-04-20T14:46:16Z</time></trkpt><trkpt lat="43.22987672516075" lon="10.557891347959929"><ele>6.333333333333334</ele><time>2026-04-20T14:46:17Z</time></trkpt><trkpt lat="43.229708376330386" lon="10.557959330738859"><ele>6.0</ele><time>2026-04-20T14:46:18Z</time></trkpt><trkpt lat="43.22953599875657" lon="10.55802911997912"><ele>6.666666666666666</ele><time>2026-04-20T14:46:19Z</time></trkpt><trkpt lat="43.22936022367321" lon="10.558101888477816"><ele>7.333333333333333</ele><time>2026-04-20T14:46:20Z</time></trkpt><trkpt lat="43.229185927895855" lon="10.558172751100411"><ele>8.0</ele><time>2026-04-20T14:46:21Z</time></trkpt><trkpt lat="43.22900550409994" lon="10.558251571533889"><ele>7.333333333333333</ele><time>2026-04-20T14:46:22Z</time></trkpt><trkpt lat="43.2288289210409" lon="10.558331483335031"><ele>6.666666666666666</ele><time>2026-04-20T14:46:23Z</time></trkpt><trkpt lat="43.22865473964811" lon="10.558406181698285"><ele>6.0</ele><time>2026-04-20T14:46:24Z</time></trkpt><trkpt lat="43.22848519545015" lon="10.55850472968117"><ele>6.0</ele><time>2026-04-20T14:46:25Z</time></trkpt><trkpt lat="43.22831314199111" lon="10.558606953640354"><ele>6.0</ele><time>2026-04-20T14:46:26Z</time></trkpt><trkpt lat="43.22814289910055" lon="10.558710598414475"><ele>6.0</ele><time>2026-04-20T14:46:27Z</time></trkpt><trkpt lat="43.22796934142093" lon="10.558815749703673"><ele>6.0</ele><time>2026-04-20T14:46:28Z</time></trkpt><trkpt lat="43.227795164717776" lon="10.558918985751902"><ele>6.0</ele><time>2026-04-20T14:46:29Z</time></trkpt><trkpt lat="43.2276203759662" lon="10.55902409090204"><ele>6.0</ele><time>2026-04-20T14:46:30Z</time></trkpt><trkpt lat="43.227445980471536" lon="10.559129239241438"><ele>6.666666666666666</ele><time>2026-04-20T14:46:31Z</time></trkpt><trkpt lat="43.22726977148537" lon="10.559231304281024"><ele>7.333333333333333</ele><time>2026-04-20T14:46:32Z</time></trkpt><trkpt lat="43.227099099913964" lon="10.559339350449157"><ele>8.0</ele><time>2026-04-20T14:46:33Z</time></trkpt><trkpt lat="43.22692330956774" lon="10.55944517122503"><ele>7.666666666666666</ele><time>2026-04-20T14:46:34Z</time></trkpt><trkpt lat="43.2267508625617" lon="10.559543475174882"><ele>7.333333333333334</ele><time>2026-04-20T14:46:35Z</time></trkpt><trkpt lat="43.22658764154239" lon="10.559637463073718"><ele>7.0</ele><time>2026-04-20T14:46:36Z</time></trkpt><trkpt lat="43.22642894873392" lon="10.559734391810041"><ele>7.0</ele><time>2026-04-20T14:46:37Z</time></trkpt><trkpt lat="43.226269954750485" lon="10.559834543998907"><ele>7.0</ele><time>2026-04-20T14:46:38Z</time></trkpt><trkpt lat="43.226112987418574" lon="10.559930534799316"><ele>7.0</ele><time>2026-04-20T14:46:39Z</time></trkpt><trkpt lat="43.22595781032757" lon="10.560020245046552"><ele>7.0</ele><time>2026-04-20T14:46:40Z</time></trkpt><trkpt lat="43.22580440227935" lon="10.560112106372344"><ele>7.0</ele><time>2026-04-20T14:46:41Z</time></trkpt><trkpt lat="43.22564735531544" lon="10.560204235637547"><ele>7.0</ele><time>2026-04-20T14:46:42Z</time></trkpt><trkpt lat="43.225484658461454" lon="10.56029659075899"><ele>7.333333333333334</ele><time>2026-04-20T14:46:43Z</time></trkpt><trkpt lat="43.225319774339965" lon="10.560386622752826"><ele>7.666666666666666</ele><time>2026-04-20T14:46:44Z</time></trkpt><trkpt lat="43.22515277329206" lon="10.560469921314246"><ele>8.0</ele><time>2026-04-20T14:46:45Z</time></trkpt><trkpt lat="43.225001137527784" lon="10.560540555377111"><ele>8.0</ele><time>2026-04-20T14:46:46Z</time></trkpt><trkpt lat="43.22485345328119" lon="10.56060638256652"><ele>8.0</ele><time>2026-04-20T14:46:47Z</time></trkpt><trkpt lat="43.22470253143001" lon="10.560671085193187"><ele>8.0</ele><time>2026-04-20T14:46:48Z</time></trkpt><trkpt lat="43.22455259797808" lon="10.560728358316645"><ele>8.0</ele><time>2026-04-20T14:46:49Z</time></trkpt><trkpt lat="43.22440491408402" lon="10.560779219926472"><ele>8.0</ele><time>2026-04-20T14:46:50Z</time></trkpt><trkpt lat="43.224259380425714" lon="10.560833774116416"><ele>8.0</ele><time>2026-04-20T14:46:51Z</time></trkpt><trkpt lat="43.22411340045521" lon="10.56088745539834"><ele>8.333333333333332</ele><time>2026-04-20T14:46:52Z</time></trkpt><trkpt lat="43.22396702381277" lon="10.56093953875002"><ele>8.666666666666666</ele><time>2026-04-20T14:46:53Z</time></trkpt><trkpt lat="43.223818326574154" lon="10.560993405350683"><ele>9.0</ele><time>2026-04-20T14:46:54Z</time></trkpt><trkpt lat="43.22367160264721" lon="10.561040773294234"><ele>9.0</ele><time>2026-04-20T14:46:55Z</time></trkpt><trkpt lat="43.22352221682367" lon="10.561091514773937"><ele>9.0</ele><time>2026-04-20T14:46:56Z</time></trkpt><trkpt lat="43.22337057189955" lon="10.561143554785565"><ele>9.0</ele><time>2026-04-20T14:46:57Z</time></trkpt><trkpt lat="43.223218574487035" lon="10.561195412766653"><ele>8.666666666666666</ele><time>2026-04-20T14:46:58Z</time></trkpt><trkpt lat="43.22306516922019" lon="10.561249733687767"><ele>8.333333333333332</ele><time>2026-04-20T14:46:59Z</time></trkpt><trkpt lat="43.22291594018554" lon="10.561298747301933"><ele>8.0</ele><time>2026-04-20T14:47:00Z</time></trkpt><trkpt lat="43.222766609530076" lon="10.561346905736146"><ele>8.0</ele><time>2026-04-20T14:47:01Z</time></trkpt><trkpt lat="43.22262084239441" lon="10.561394633229613"><ele>8.0</ele><time>2026-04-20T14:47:02Z</time></trkpt><trkpt lat="43.22247899197562" lon="10.561434231483254"><ele>8.0</ele><time>2026-04-20T14:47:03Z</time></trkpt><trkpt lat="43.22233410006411" lon="10.561474269043405"><ele>8.0</ele><time>2026-04-20T14:47:04Z</time></trkpt><trkpt lat="43.222193675819284" lon="10.561504496264439"><ele>8.25</ele><time>2026-04-20T14:47:05Z</time></trkpt><trkpt lat="43.22205061039279" lon="10.561536203044959"><ele>8.5</ele><time>2026-04-20T14:47:06Z</time></trkpt><trkpt lat="43.22190640775712" lon="10.561561773148332"><ele>8.75</ele><time>2026-04-20T14:47:07Z</time></trkpt><trkpt lat="43.22176134912458" lon="10.56158457832685"><ele>9.0</ele><time>2026-04-20T14:47:08Z</time></trkpt><trkpt lat="43.22161708285856" lon="10.561608366449146"><ele>8.5</ele><time>2026-04-20T14:47:09Z</time></trkpt><trkpt lat="43.221470303603375" lon="10.561630751190036"><ele>8.0</ele><time>2026-04-20T14:47:10Z</time></trkpt><trkpt lat="43.2213211680887" lon="10.561631216155273"><ele>7.5</ele><time>2026-04-20T14:47:11Z</time></trkpt><trkpt lat="43.221172971396065" lon="10.561651486999605"><ele>7.0</ele><time>2026-04-20T14:47:12Z</time></trkpt><trkpt lat="43.22102499093553" lon="10.56167354064712"><ele>7.0</ele><time>2026-04-20T14:47:13Z</time></trkpt><trkpt lat="43.220878417999195" lon="10.561715140996064"><ele>7.0</ele><time>2026-04-20T14:47:14Z</time></trkpt><trkpt lat="43.2207299354285" lon="10.561715831617148"><ele>7.0</ele><time>2026-04-20T14:47:15Z</time></trkpt><trkpt lat="43.2205803104906" lon="10.561736373306884"><ele>7.0</ele><time>2026-04-20T14:47:16Z</time></trkpt><trkpt lat="43.220430254168534" lon="10.561756974225302"><ele>7.333333333333334</ele><time>2026-04-20T14:47:17Z</time></trkpt><trkpt lat="43.220281921088365" lon="10.561777338571684"><ele>7.666666666666666</ele><time>2026-04-20T14:47:18Z</time></trkpt><trkpt lat="43.22013074574837" lon="10.561798093112696"><ele>8.0</ele><time>2026-04-20T14:47:19Z</time></trkpt><trkpt lat="43.219978595770925" lon="10.561819090680036"><ele>8.0</ele><time>2026-04-20T14:47:20Z</time></trkpt><trkpt lat="43.219829561255985" lon="10.56185916748955"><ele>8.0</ele><time>2026-04-20T14:47:21Z</time></trkpt><trkpt lat="43.2196777111601" lon="10.56187531791926"><ele>8.0</ele><time>2026-04-20T14:47:22Z</time></trkpt><trkpt lat="43.21952574053163" lon="10.561897825967346"><ele>8.0</ele><time>2026-04-20T14:47:23Z</time></trkpt><trkpt lat="43.219375136485326" lon="10.561916068301798"><ele>8.0</ele><time>2026-04-20T14:47:24Z</time></trkpt><trkpt lat="43.21922455883403" lon="10.561934579308037"><ele>8.0</ele><time>2026-04-20T14:47:25Z</time></trkpt><trkpt lat="43.21907262821669" lon="10.561957499375024"><ele>7.666666666666666</ele><time>2026-04-20T14:47:26Z</time></trkpt><trkpt lat="43.21891971715374" lon="10.561960457211942"><ele>7.333333333333334</ele><time>2026-04-20T14:47:27Z</time></trkpt><trkpt lat="43.21876802291328" lon="10.561980555502686"><ele>7.0</ele><time>2026-04-20T14:47:28Z</time></trkpt><trkpt lat="43.21861058935946" lon="10.562001414203637"><ele>7.0</ele><time>2026-04-20T14:47:29Z</time></trkpt><trkpt lat="43.21845899909662" lon="10.562021498723528"><ele>7.0</ele><time>2026-04-20T14:47:30Z</time></trkpt><trkpt lat="43.21830715811152" lon="10.562039718940667"><ele>7.0</ele><time>2026-04-20T14:47:31Z</time></trkpt><trkpt lat="43.21815484276658" lon="10.56205907760834"><ele>8.333333333333334</ele><time>2026-04-20T14:47:32Z</time></trkpt><trkpt lat="43.21800019288071" lon="10.562078732983393"><ele>9.666666666666666</ele><time>2026-04-20T14:47:33Z</time></trkpt><trkpt lat="43.21784542577921" lon="10.56209868739376"><ele>11.0</ele><time>2026-04-20T14:47:34Z</time></trkpt><trkpt lat="43.21769303811121" lon="10.56211889271437"><ele>11.0</ele><time>2026-04-20T14:47:35Z</time></trkpt><trkpt lat="43.21754172420908" lon="10.562138955655643"><ele>11.0</ele><time>2026-04-20T14:47:36Z</time></trkpt><trkpt lat="43.21738606965895" lon="10.562159594144434"><ele>11.0</ele><time>2026-04-20T14:47:37Z</time></trkpt><trkpt lat="43.21723043119813" lon="10.562202921836441"><ele>10.333333333333332</ele><time>2026-04-20T14:47:38Z</time></trkpt><trkpt lat="43.21706949915261" lon="10.5622248477436"><ele>9.666666666666666</ele><time>2026-04-20T14:47:39Z</time></trkpt><trkpt lat="43.21690543015756" lon="10.562237705110538"><ele>9.0</ele><time>2026-04-20T14:47:40Z</time></trkpt><trkpt lat="43.21673998730948" lon="10.562261789594872"><ele>9.0</ele><time>2026-04-20T14:47:41Z</time></trkpt><trkpt lat="43.21657434417746" lon="10.562284553100676"><ele>9.0</ele><time>2026-04-20T14:47:42Z</time></trkpt><trkpt lat="43.21641007487443" lon="10.562308960187956"><ele>9.0</ele><time>2026-04-20T14:47:43Z</time></trkpt><trkpt lat="43.21624607795693" lon="10.562337153009274"><ele>8.666666666666666</ele><time>2026-04-20T14:47:44Z</time></trkpt><trkpt lat="43.216081702857814" lon="10.562362779335574"><ele>8.333333333333332</ele><time>2026-04-20T14:47:45Z</time></trkpt><trkpt lat="43.21592670248974" lon="10.562384841478233"><ele>8.0</ele><time>2026-04-20T14:47:46Z</time></trkpt><trkpt lat="43.21578052112541" lon="10.562398909902242"><ele>7.75</ele><time>2026-04-20T14:47:47Z</time></trkpt><trkpt lat="43.21562972962458" lon="10.562421805695353"><ele>7.5</ele><time>2026-04-20T14:47:48Z</time></trkpt><trkpt lat="43.21548360456552" lon="10.562441356154906"><ele>7.25</ele><time>2026-04-20T14:47:49Z</time></trkpt><trkpt lat="43.215336327216136" lon="10.562455543419405"><ele>7.0</ele><time>2026-04-20T14:47:50Z</time></trkpt><trkpt lat="43.21518815706668" lon="10.562473129875734"><ele>7.0</ele><time>2026-04-20T14:47:51Z</time></trkpt><trkpt lat="43.21504294346219" lon="10.5624894315655"><ele>7.0</ele><time>2026-04-20T14:47:52Z</time></trkpt><trkpt lat="43.214893627038705" lon="10.562512410886171"><ele>7.0</ele><time>2026-04-20T14:47:53Z</time></trkpt><trkpt lat="43.214740943964834" lon="10.56253620670422"><ele>7.333333333333334</ele><time>2026-04-20T14:47:54Z</time></trkpt><trkpt lat="43.214580746301394" lon="10.562557327974996"><ele>7.666666666666666</ele><time>2026-04-20T14:47:55Z</time></trkpt><trkpt lat="43.21442492514388" lon="10.562573462422328"><ele>8.0</ele><time>2026-04-20T14:47:56Z</time></trkpt><trkpt lat="43.21427279096489" lon="10.562597975754759"><ele>8.0</ele><time>2026-04-20T14:47:57Z</time></trkpt><trkpt lat="43.21411819190716" lon="10.562618075936955"><ele>8.0</ele><time>2026-04-20T14:47:58Z</time></trkpt><trkpt lat="43.21396451685456" lon="10.562638558075891"><ele>8.0</ele><time>2026-04-20T14:47:59Z</time></trkpt><trkpt lat="43.21380468715719" lon="10.562661537527797"><ele>7.666666666666666</ele><time>2026-04-20T14:48:00Z</time></trkpt><trkpt lat="43.21364760431224" lon="10.562682841727648"><ele>7.333333333333334</ele><time>2026-04-20T14:48:01Z</time></trkpt><trkpt lat="43.213490099393546" lon="10.562709492923549"><ele>7.0</ele><time>2026-04-20T14:48:02Z</time></trkpt><trkpt lat="43.21333417241296" lon="10.562711967659595"><ele>7.0</ele><time>2026-04-20T14:48:03Z</time></trkpt><trkpt lat="43.21318063266861" lon="10.562768062791084"><ele>7.0</ele><time>2026-04-20T14:48:04Z</time></trkpt><trkpt lat="43.21302619148016" lon="10.562794123902808"><ele>7.0</ele><time>2026-04-20T14:48:05Z</time></trkpt><trkpt lat="43.21287086902586" lon="10.562811448854655"><ele>7.0</ele><time>2026-04-20T14:48:06Z</time></trkpt><trkpt lat="43.21271479702302" lon="10.562836052148024"><ele>7.0</ele><time>2026-04-20T14:48:07Z</time></trkpt><trkpt lat="43.21255122026055" lon="10.562814411451477"><ele>7.0</ele><time>2026-04-20T14:48:08Z</time></trkpt><trkpt lat="43.21238949230601" lon="10.562835046373566"><ele>7.333333333333334</ele><time>2026-04-20T14:48:09Z</time></trkpt><trkpt lat="43.21222500843236" lon="10.562858691877626"><ele>7.666666666666666</ele><time>2026-04-20T14:48:10Z</time></trkpt><trkpt lat="43.212064574511636" lon="10.562881755191432"><ele>8.0</ele><time>2026-04-20T14:48:11Z</time></trkpt><trkpt lat="43.21190397935109" lon="10.562903253978773"><ele>8.0</ele><time>2026-04-20T14:48:12Z</time></trkpt><trkpt lat="43.211741925540885" lon="10.562924280533759"><ele>8.0</ele><time>2026-04-20T14:48:13Z</time></trkpt><trkpt lat="43.21158396925231" lon="10.562944775411506"><ele>8.0</ele><time>2026-04-20T14:48:14Z</time></trkpt><trkpt lat="43.21142443598706" lon="10.562966422996178"><ele>8.0</ele><time>2026-04-20T14:48:15Z</time></trkpt><trkpt lat="43.211269332809856" lon="10.562987539563522"><ele>8.0</ele><time>2026-04-20T14:48:16Z</time></trkpt><trkpt lat="43.211114490773845" lon="10.56300862059706"><ele>8.0</ele><time>2026-04-20T14:48:17Z</time></trkpt><trkpt lat="43.2109612811995" lon="10.563029481172675"><ele>8.0</ele><time>2026-04-20T14:48:18Z</time></trkpt><trkpt lat="43.21080851079588" lon="10.563050280156316"><ele>8.0</ele><time>2026-04-20T14:48:19Z</time></trkpt><trkpt lat="43.21065735662972" lon="10.563070859085794"><ele>8.0</ele><time>2026-04-20T14:48:20Z</time></trkpt><trkpt lat="43.21050382227239" lon="10.56309176209625"><ele>9.0</ele><time>2026-04-20T14:48:21Z</time></trkpt><trkpt lat="43.21035357144596" lon="10.563112218053853"><ele>10.0</ele><time>2026-04-20T14:48:22Z</time></trkpt><trkpt lat="43.21020439855419" lon="10.563132527257398"><ele>11.0</ele><time>2026-04-20T14:48:23Z</time></trkpt><trkpt lat="43.21005301041261" lon="10.563153138049525"><ele>11.0</ele><time>2026-04-20T14:48:24Z</time></trkpt><trkpt lat="43.20989989408282" lon="10.563173984035302"><ele>11.0</ele><time>2026-04-20T14:48:25Z</time></trkpt><trkpt lat="43.2097471025727" lon="10.563193943611301"><ele>11.0</ele><time>2026-04-20T14:48:26Z</time></trkpt><trkpt lat="43.20959776851333" lon="10.56321357697466"><ele>10.333333333333332</ele><time>2026-04-20T14:48:27Z</time></trkpt><trkpt lat="43.20944703803612" lon="10.563233393930028"><ele>9.666666666666666</ele><time>2026-04-20T14:48:28Z</time></trkpt><trkpt lat="43.20929779117943" lon="10.563253015817383"><ele>9.0</ele><time>2026-04-20T14:48:29Z</time></trkpt><trkpt lat="43.209141997231235" lon="10.563273498471666"><ele>8.666666666666666</ele><time>2026-04-20T14:48:30Z</time></trkpt><trkpt lat="43.20898830564534" lon="10.563294072679284"><ele>8.333333333333332</ele><time>2026-04-20T14:48:31Z</time></trkpt><trkpt lat="43.20883219686306" lon="10.56331539485718"><ele>8.0</ele><time>2026-04-20T14:48:32Z</time></trkpt><trkpt lat="43.2086796626559" lon="10.56333622880097"><ele>8.0</ele><time>2026-04-20T14:48:33Z</time></trkpt><trkpt lat="43.20852249866979" lon="10.563357695100958"><ele>8.0</ele><time>2026-04-20T14:48:34Z</time></trkpt><trkpt lat="43.20836891342764" lon="10.563401163307633"><ele>8.0</ele><time>2026-04-20T14:48:35Z</time></trkpt><trkpt lat="43.208207557693264" lon="10.563399981634483"><ele>8.666666666666666</ele><time>2026-04-20T14:48:36Z</time></trkpt><trkpt lat="43.20804905837017" lon="10.563420887478788"><ele>9.333333333333334</ele><time>2026-04-20T14:48:37Z</time></trkpt><trkpt lat="43.20788930787874" lon="10.563441958352449"><ele>10.0</ele><time>2026-04-20T14:48:38Z</time></trkpt><trkpt lat="43.20772923191014" lon="10.563463072155608"><ele>10.0</ele><time>2026-04-20T14:48:39Z</time></trkpt><trkpt lat="43.20757041735962" lon="10.563484019573554"><ele>10.0</ele><time>2026-04-20T14:48:40Z</time></trkpt><trkpt lat="43.207413078334575" lon="10.563525633592874"><ele>10.0</ele><time>2026-04-20T14:48:41Z</time></trkpt><trkpt lat="43.20725618297041" lon="10.56353144454118"><ele>9.333333333333334</ele><time>2026-04-20T14:48:42Z</time></trkpt><trkpt lat="43.20709997871131" lon="10.563548609748116"><ele>8.666666666666666</ele><time>2026-04-20T14:48:43Z</time></trkpt><trkpt lat="43.20694178437535" lon="10.563568760209266"><ele>8.0</ele><time>2026-04-20T14:48:44Z</time></trkpt><trkpt lat="43.20678310211348" lon="10.563588651567441"><ele>8.0</ele><time>2026-04-20T14:48:45Z</time></trkpt><trkpt lat="43.2066234338667" lon="10.563612286543396"><ele>8.0</ele><time>2026-04-20T14:48:46Z</time></trkpt><trkpt lat="43.2064662939187" lon="10.563634903658034"><ele>8.0</ele><time>2026-04-20T14:48:47Z</time></trkpt><trkpt lat="43.206309936053465" lon="10.563662327664147"><ele>8.0</ele><time>2026-04-20T14:48:48Z</time></trkpt><trkpt lat="43.2061484940407" lon="10.563685655496906"><ele>8.0</ele><time>2026-04-20T14:48:49Z</time></trkpt><trkpt lat="43.20598875738294" lon="10.563705725647411"><ele>8.0</ele><time>2026-04-20T14:48:50Z</time></trkpt><trkpt lat="43.205829020029284" lon="10.563730457931038"><ele>8.0</ele><time>2026-04-20T14:48:51Z</time></trkpt><trkpt lat="43.20566593469567" lon="10.56375222619731"><ele>8.0</ele><time>2026-04-20T14:48:52Z</time></trkpt><trkpt lat="43.20550179898997" lon="10.563775104453343"><ele>8.0</ele><time>2026-04-20T14:48:53Z</time></trkpt><trkpt lat="43.205339335860614" lon="10.563775973666356"><ele>8.0</ele><time>2026-04-20T14:48:54Z</time></trkpt><trkpt lat="43.20517526727105" lon="10.56379779919409"><ele>8.0</ele><time>2026-04-20T14:48:55Z</time></trkpt><trkpt lat="43.205014722364425" lon="10.56381920604759"><ele>8.0</ele><time>2026-04-20T14:48:56Z</time></trkpt><trkpt lat="43.20485180499026" lon="10.563840734209052"><ele>8.0</ele><time>2026-04-20T14:48:57Z</time></trkpt><trkpt lat="43.20469084536894" lon="10.563883896858517"><ele>8.0</ele><time>2026-04-20T14:48:58Z</time></trkpt><trkpt lat="43.204525881880706" lon="10.563883975766997"><ele>8.0</ele><time>2026-04-20T14:48:59Z</time></trkpt><trkpt lat="43.20436308814559" lon="10.563905574279298"><ele>8.0</ele><time>2026-04-20T14:49:00Z</time></trkpt><trkpt lat="43.2041998337019" lon="10.563927233917505"><ele>8.0</ele><time>2026-04-20T14:49:01Z</time></trkpt><trkpt lat="43.20403725219072" lon="10.56394880427346"><ele>8.0</ele><time>2026-04-20T14:49:02Z</time></trkpt><trkpt lat="43.20387347567763" lon="10.563970533178098"><ele>8.0</ele><time>2026-04-20T14:49:03Z</time></trkpt><trkpt lat="43.20370681453533" lon="10.563992644790677"><ele>8.0</ele><time>2026-04-20T14:49:04Z</time></trkpt><trkpt lat="43.20354232484099" lon="10.564014468321849"><ele>8.0</ele><time>2026-04-20T14:49:05Z</time></trkpt><trkpt lat="43.20338455313719" lon="10.564035400538854"><ele>8.0</ele><time>2026-04-20T14:49:06Z</time></trkpt><trkpt lat="43.203222924615446" lon="10.564056891713577"><ele>8.0</ele><time>2026-04-20T14:49:07Z</time></trkpt><trkpt lat="43.20306004631673" lon="10.564078879631348"><ele>8.0</ele><time>2026-04-20T14:49:08Z</time></trkpt><trkpt lat="43.20289682604599" lon="10.564116652160124"><ele>7.666666666666666</ele><time>2026-04-20T14:49:09Z</time></trkpt><trkpt lat="43.20272838487436" lon="10.564123652598635"><ele>7.333333333333334</ele><time>2026-04-20T14:49:10Z</time></trkpt><trkpt lat="43.20256325392931" lon="10.564145944615"><ele>7.0</ele><time>2026-04-20T14:49:11Z</time></trkpt><trkpt lat="43.202397640126044" lon="10.564168301810106"><ele>6.333333333333334</ele><time>2026-04-20T14:49:12Z</time></trkpt><trkpt lat="43.202232211732046" lon="10.564190228629682"><ele>5.666666666666667</ele><time>2026-04-20T14:49:13Z</time></trkpt><trkpt lat="43.20206715500247" lon="10.564212022181946"><ele>5.0</ele><time>2026-04-20T14:49:14Z</time></trkpt><trkpt lat="43.201908395270124" lon="10.564252849976068"><ele>5.0</ele><time>2026-04-20T14:49:15Z</time></trkpt><trkpt lat="43.201747353081835" lon="10.56427302369731"><ele>5.0</ele><time>2026-04-20T14:49:16Z</time></trkpt><trkpt lat="43.20158933968618" lon="10.564294061694595"><ele>5.0</ele><time>2026-04-20T14:49:17Z</time></trkpt><trkpt lat="43.20142357226179" lon="10.56430918261422"><ele>5.0</ele><time>2026-04-20T14:49:18Z</time></trkpt><trkpt lat="43.201261956969674" lon="10.564326462043244"><ele>5.0</ele><time>2026-04-20T14:49:19Z</time></trkpt><trkpt lat="43.20109962025773" lon="10.564348602766927"><ele>5.0</ele><time>2026-04-20T14:49:20Z</time></trkpt><trkpt lat="43.200936045452416" lon="10.564363761214455"><ele>5.0</ele><time>2026-04-20T14:49:21Z</time></trkpt><trkpt lat="43.200772330515804" lon="10.56437482115691"><ele>5.0</ele><time>2026-04-20T14:49:22Z</time></trkpt><trkpt lat="43.20060735932793" lon="10.564400521448103"><ele>5.0</ele><time>2026-04-20T14:49:23Z</time></trkpt><trkpt lat="43.20044301670979" lon="10.564422026338537"><ele>5.0</ele><time>2026-04-20T14:49:24Z</time></trkpt><trkpt lat="43.20028572819911" lon="10.564450193931751"><ele>5.0</ele><time>2026-04-20T14:49:25Z</time></trkpt><trkpt lat="43.20012539794221" lon="10.564468479585981"><ele>5.0</ele><time>2026-04-20T14:49:26Z</time></trkpt><trkpt lat="43.1999613890784" lon="10.564492233402612"><ele>4.666666666666667</ele><time>2026-04-20T14:49:27Z</time></trkpt><trkpt lat="43.199797321639075" lon="10.564518953295257"><ele>4.333333333333333</ele><time>2026-04-20T14:49:28Z</time></trkpt><trkpt lat="43.199631936892594" lon="10.564541791241389"><ele>4.0</ele><time>2026-04-20T14:49:29Z</time></trkpt><trkpt lat="43.199465166671956" lon="10.564558944663517"><ele>4.0</ele><time>2026-04-20T14:49:30Z</time></trkpt><trkpt lat="43.19929969301096" lon="10.564579325402471"><ele>4.0</ele><time>2026-04-20T14:49:31Z</time></trkpt><trkpt lat="43.19913014432294" lon="10.56460317190289"><ele>4.0</ele><time>2026-04-20T14:49:32Z</time></trkpt><trkpt lat="43.198963441436284" lon="10.564625098556776"><ele>4.0</ele><time>2026-04-20T14:49:33Z</time></trkpt><trkpt lat="43.19880167880879" lon="10.564645006505549"><ele>4.0</ele><time>2026-04-20T14:49:34Z</time></trkpt><trkpt lat="43.19863609732288" lon="10.564662973919667"><ele>4.0</ele><time>2026-04-20T14:49:35Z</time></trkpt><trkpt lat="43.198468097101404" lon="10.564686462319797"><ele>4.0</ele><time>2026-04-20T14:49:36Z</time></trkpt><trkpt lat="43.198304840980775" lon="10.564711361164267"><ele>4.0</ele><time>2026-04-20T14:49:37Z</time></trkpt><trkpt lat="43.1981313197892" lon="10.564737081068522"><ele>4.0</ele><time>2026-04-20T14:49:38Z</time></trkpt><trkpt lat="43.19796827232475" lon="10.56475587653389"><ele>4.666666666666666</ele><time>2026-04-20T14:49:39Z</time></trkpt><trkpt lat="43.197803995195855" lon="10.564782663691242"><ele>5.333333333333333</ele><time>2026-04-20T14:49:40Z</time></trkpt><trkpt lat="43.19764216618432" lon="10.564806863313876"><ele>6.0</ele><time>2026-04-20T14:49:41Z</time></trkpt><trkpt lat="43.197477827011056" lon="10.564825906966922"><ele>6.0</ele><time>2026-04-20T14:49:42Z</time></trkpt><trkpt lat="43.19730862335951" lon="10.56484807644962"><ele>6.0</ele><time>2026-04-20T14:49:43Z</time></trkpt><trkpt lat="43.197137479000524" lon="10.564873736156137"><ele>6.0</ele><time>2026-04-20T14:49:44Z</time></trkpt><trkpt lat="43.19696820190393" lon="10.564897494189026"><ele>6.0</ele><time>2026-04-20T14:49:45Z</time></trkpt><trkpt lat="43.196803499684805" lon="10.564923947342136"><ele>6.0</ele><time>2026-04-20T14:49:46Z</time></trkpt><trkpt lat="43.196641939425966" lon="10.56494757187279"><ele>6.0</ele><time>2026-04-20T14:49:47Z</time></trkpt><trkpt lat="43.1964811963499" lon="10.564967330787862"><ele>5.666666666666667</ele><time>2026-04-20T14:49:48Z</time></trkpt><trkpt lat="43.19631953778213" lon="10.564991545539025"><ele>5.333333333333334</ele><time>2026-04-20T14:49:49Z</time></trkpt><trkpt lat="43.19616079370484" lon="10.5650128034678"><ele>5.0</ele><time>2026-04-20T14:49:50Z</time></trkpt><trkpt lat="43.19600042855233" lon="10.565033263213412"><ele>5.0</ele><time>2026-04-20T14:49:51Z</time></trkpt><trkpt lat="43.19584322465934" lon="10.565050139443679"><ele>5.0</ele><time>2026-04-20T14:49:52Z</time></trkpt><trkpt lat="43.19569507175927" lon="10.565078247509424"><ele>5.0</ele><time>2026-04-20T14:49:53Z</time></trkpt><trkpt lat="43.19553941398109" lon="10.565095959542088"><ele>5.333333333333334</ele><time>2026-04-20T14:49:54Z</time></trkpt><trkpt lat="43.19538205227561" lon="10.565115464077222"><ele>5.666666666666667</ele><time>2026-04-20T14:49:55Z</time></trkpt><trkpt lat="43.19522893592073" lon="10.565134381802388"><ele>6.0</ele><time>2026-04-20T14:49:56Z</time></trkpt><trkpt lat="43.19507528486194" lon="10.565153939227367"><ele>6.0</ele><time>2026-04-20T14:49:57Z</time></trkpt><trkpt lat="43.19491891159261" lon="10.565172964484445"><ele>6.0</ele><time>2026-04-20T14:49:58Z</time></trkpt><trkpt lat="43.19476239043809" lon="10.56519375826125"><ele>6.0</ele><time>2026-04-20T14:49:59Z</time></trkpt><trkpt lat="43.1946058753425" lon="10.56522237294271"><ele>6.333333333333334</ele><time>2026-04-20T14:50:00Z</time></trkpt><trkpt lat="43.19444446076622" lon="10.565231218216754"><ele>6.666666666666667</ele><time>2026-04-20T14:50:01Z</time></trkpt><trkpt lat="43.19428633111978" lon="10.565256699384577"><ele>7.0</ele><time>2026-04-20T14:50:02Z</time></trkpt><trkpt lat="43.19412190586591" lon="10.565278667273232"><ele>6.666666666666667</ele><time>2026-04-20T14:50:03Z</time></trkpt><trkpt lat="43.19395905731846" lon="10.565296686444265"><ele>6.333333333333334</ele><time>2026-04-20T14:50:04Z</time></trkpt><trkpt lat="43.1937992258472" lon="10.565316318982692"><ele>6.0</ele><time>2026-04-20T14:50:05Z</time></trkpt><trkpt lat="43.19363865790463" lon="10.565341122675122"><ele>6.0</ele><time>2026-04-20T14:50:06Z</time></trkpt><trkpt lat="43.19347904854493" lon="10.565361240443677"><ele>6.0</ele><time>2026-04-20T14:50:07Z</time></trkpt><trkpt lat="43.19331754923182" lon="10.565385520035381"><ele>6.0</ele><time>2026-04-20T14:50:08Z</time></trkpt><trkpt lat="43.19315611347462" lon="10.565399117704198"><ele>5.666666666666667</ele><time>2026-04-20T14:50:09Z</time></trkpt><trkpt lat="43.1929936421754" lon="10.565416354672484"><ele>5.333333333333334</ele><time>2026-04-20T14:50:10Z</time></trkpt><trkpt lat="43.192834833529204" lon="10.565428196727158"><ele>5.0</ele><time>2026-04-20T14:50:11Z</time></trkpt><trkpt lat="43.19268400222478" lon="10.565456584825903"><ele>5.0</ele><time>2026-04-20T14:50:12Z</time></trkpt><trkpt lat="43.192528757708374" lon="10.565485597109006"><ele>5.0</ele><time>2026-04-20T14:50:13Z</time></trkpt><trkpt lat="43.192372864381454" lon="10.565501569800748"><ele>5.0</ele><time>2026-04-20T14:50:14Z</time></trkpt><trkpt lat="43.19221327214452" lon="10.565536614096844"><ele>5.666666666666667</ele><time>2026-04-20T14:50:15Z</time></trkpt><trkpt lat="43.19205209870709" lon="10.565539331673184"><ele>6.333333333333334</ele><time>2026-04-20T14:50:16Z</time></trkpt><trkpt lat="43.19189461777491" lon="10.565560066485558"><ele>7.0</ele><time>2026-04-20T14:50:17Z</time></trkpt><trkpt lat="43.19173294687081" lon="10.565581352959388"><ele>7.0</ele><time>2026-04-20T14:50:18Z</time></trkpt><trkpt lat="43.19157135398576" lon="10.565602629170842"><ele>7.0</ele><time>2026-04-20T14:50:19Z</time></trkpt><trkpt lat="43.19140677460615" lon="10.565624298593244"><ele>7.0</ele><time>2026-04-20T14:50:20Z</time></trkpt><trkpt lat="43.19124584120899" lon="10.565645488279097"><ele>7.0</ele><time>2026-04-20T14:50:21Z</time></trkpt><trkpt lat="43.19108566271548" lon="10.565666753697244"><ele>7.0</ele><time>2026-04-20T14:50:22Z</time></trkpt><trkpt lat="43.19092955138945" lon="10.565687448521425"><ele>7.0</ele><time>2026-04-20T14:50:23Z</time></trkpt><trkpt lat="43.190771684602225" lon="10.56570837610464"><ele>7.0</ele><time>2026-04-20T14:50:24Z</time></trkpt><trkpt lat="43.190615499809475" lon="10.565729080693423"><ele>7.0</ele><time>2026-04-20T14:50:25Z</time></trkpt><trkpt lat="43.19045820256099" lon="10.565772496024588"><ele>7.0</ele><time>2026-04-20T14:50:26Z</time></trkpt><trkpt lat="43.19030389684752" lon="10.565792136953263"><ele>7.0</ele><time>2026-04-20T14:50:27Z</time></trkpt><trkpt lat="43.19014617488432" lon="10.565811277557396"><ele>7.0</ele><time>2026-04-20T14:50:28Z</time></trkpt><trkpt lat="43.18998514892593" lon="10.565812642991682"><ele>7.0</ele><time>2026-04-20T14:50:29Z</time></trkpt><trkpt lat="43.189826476435464" lon="10.565833677352872"><ele>6.333333333333334</ele><time>2026-04-20T14:50:30Z</time></trkpt><trkpt lat="43.18966532410344" lon="10.565855042196805"><ele>5.666666666666667</ele><time>2026-04-20T14:50:31Z</time></trkpt><trkpt lat="43.18951145556585" lon="10.565875439732336"><ele>5.0</ele><time>2026-04-20T14:50:32Z</time></trkpt><trkpt lat="43.189357448969034" lon="10.565917858174108"><ele>5.0</ele><time>2026-04-20T14:50:33Z</time></trkpt><trkpt lat="43.18920707584697" lon="10.565937869292524"><ele>5.0</ele><time>2026-04-20T14:50:34Z</time></trkpt><trkpt lat="43.189055674920795" lon="10.565956550439083"><ele>5.0</ele><time>2026-04-20T14:50:35Z</time></trkpt><trkpt lat="43.18890594612544" lon="10.56597676186388"><ele>5.333333333333334</ele><time>2026-04-20T14:50:36Z</time></trkpt><trkpt lat="43.188756186026424" lon="10.565997655365571"><ele>5.666666666666667</ele><time>2026-04-20T14:50:37Z</time></trkpt><trkpt lat="43.188605098068095" lon="10.566017051755196"><ele>6.0</ele><time>2026-04-20T14:50:38Z</time></trkpt><trkpt lat="43.188451249454985" lon="10.566007183662817"><ele>6.0</ele><time>2026-04-20T14:50:39Z</time></trkpt><trkpt lat="43.188295297571365" lon="10.566027619862215"><ele>6.0</ele><time>2026-04-20T14:50:40Z</time></trkpt><trkpt lat="43.18813780551165" lon="10.566044295200822"><ele>6.0</ele><time>2026-04-20T14:50:41Z</time></trkpt><trkpt lat="43.18797842044249" lon="10.566069688818907"><ele>6.0</ele><time>2026-04-20T14:50:42Z</time></trkpt><trkpt lat="43.18782129125882" lon="10.566095629354937"><ele>6.0</ele><time>2026-04-20T14:50:43Z</time></trkpt><trkpt lat="43.18766275134149" lon="10.56612229753373"><ele>6.0</ele><time>2026-04-20T14:50:44Z</time></trkpt><trkpt lat="43.18749498101037" lon="10.56614552687771"><ele>6.333333333333334</ele><time>2026-04-20T14:50:45Z</time></trkpt><trkpt lat="43.18732974127361" lon="10.566164328420017"><ele>6.666666666666667</ele><time>2026-04-20T14:50:46Z</time></trkpt><trkpt lat="43.187161336715036" lon="10.566192012697757"><ele>7.0</ele><time>2026-04-20T14:50:47Z</time></trkpt><trkpt lat="43.18698843867655" lon="10.566223286852924"><ele>7.0</ele><time>2026-04-20T14:50:48Z</time></trkpt><trkpt lat="43.186815700173405" lon="10.566241348770927"><ele>7.0</ele><time>2026-04-20T14:50:49Z</time></trkpt><trkpt lat="43.18664373705898" lon="10.566270977796224"><ele>7.0</ele><time>2026-04-20T14:50:50Z</time></trkpt><trkpt lat="43.18646931404211" lon="10.566295006425442"><ele>6.666666666666667</ele><time>2026-04-20T14:50:51Z</time></trkpt><trkpt lat="43.186299489709164" lon="10.566319989366848"><ele>6.333333333333334</ele><time>2026-04-20T14:50:52Z</time></trkpt><trkpt lat="43.18613508850606" lon="10.566346145405673"><ele>6.0</ele><time>2026-04-20T14:50:53Z</time></trkpt><trkpt lat="43.185972272713414" lon="10.566367280123508"><ele>6.0</ele><time>2026-04-20T14:50:54Z</time></trkpt><trkpt lat="43.18581106944609" lon="10.566382333396714"><ele>6.0</ele><time>2026-04-20T14:50:55Z</time></trkpt><trkpt lat="43.1856491182008" lon="10.566409009892972"><ele>6.0</ele><time>2026-04-20T14:50:56Z</time></trkpt><trkpt lat="43.18548952617698" lon="10.566421509000588"><ele>6.666666666666666</ele><time>2026-04-20T14:50:57Z</time></trkpt><trkpt lat="43.18533313528899" lon="10.56644492224776"><ele>7.333333333333333</ele><time>2026-04-20T14:50:58Z</time></trkpt><trkpt lat="43.18517452754416" lon="10.566465039598278"><ele>8.0</ele><time>2026-04-20T14:50:59Z</time></trkpt><trkpt lat="43.18501563472923" lon="10.566488333177276"><ele>8.0</ele><time>2026-04-20T14:51:00Z</time></trkpt><trkpt lat="43.184848475522074" lon="10.56647531583052"><ele>8.0</ele><time>2026-04-20T14:51:01Z</time></trkpt><trkpt lat="43.18468273734802" lon="10.566493446439068"><ele>8.0</ele><time>2026-04-20T14:51:02Z</time></trkpt><trkpt lat="43.184516709793876" lon="10.566510600809359"><ele>8.666666666666666</ele><time>2026-04-20T14:51:03Z</time></trkpt><trkpt lat="43.18435188646905" lon="10.566547825372849"><ele>9.333333333333334</ele><time>2026-04-20T14:51:04Z</time></trkpt><trkpt lat="43.1841870826451" lon="10.56657273801859"><ele>10.0</ele><time>2026-04-20T14:51:05Z</time></trkpt><trkpt lat="43.18401796582474" lon="10.566603453821266"><ele>9.666666666666668</ele><time>2026-04-20T14:51:06Z</time></trkpt><trkpt lat="43.1838558969444" lon="10.566626440024077"><ele>9.333333333333334</ele><time>2026-04-20T14:51:07Z</time></trkpt><trkpt lat="43.183684084177116" lon="10.56665384530251"><ele>9.0</ele><time>2026-04-20T14:51:08Z</time></trkpt><trkpt lat="43.18351794194211" lon="10.566680677445275"><ele>9.0</ele><time>2026-04-20T14:51:09Z</time></trkpt><trkpt lat="43.1833525930725" lon="10.566706675753823"><ele>9.0</ele><time>2026-04-20T14:51:10Z</time></trkpt><trkpt lat="43.1831893381055" lon="10.566734192191769"><ele>9.0</ele><time>2026-04-20T14:51:11Z</time></trkpt><trkpt lat="43.18303092625367" lon="10.566758915593265"><ele>9.75</ele><time>2026-04-20T14:51:12Z</time></trkpt><trkpt lat="43.18288360940975" lon="10.566757124101196"><ele>10.5</ele><time>2026-04-20T14:51:13Z</time></trkpt><trkpt lat="43.18274019327522" lon="10.566795617903729"><ele>11.25</ele><time>2026-04-20T14:51:14Z</time></trkpt><trkpt lat="43.18259739838786" lon="10.566796366643002"><ele>12.0</ele><time>2026-04-20T14:51:15Z</time></trkpt><trkpt lat="43.182453407199695" lon="10.566816749267042"><ele>12.25</ele><time>2026-04-20T14:51:16Z</time></trkpt><trkpt lat="43.18230815397202" lon="10.566838238099892"><ele>12.5</ele><time>2026-04-20T14:51:17Z</time></trkpt><trkpt lat="43.18217217867985" lon="10.566859127758752"><ele>12.75</ele><time>2026-04-20T14:51:18Z</time></trkpt><trkpt lat="43.182041949582775" lon="10.566876695083648"><ele>13.0</ele><time>2026-04-20T14:51:19Z</time></trkpt><trkpt lat="43.18190890943852" lon="10.566892129222216"><ele>13.0</ele><time>2026-04-20T14:51:20Z</time></trkpt><trkpt lat="43.18177353546565" lon="10.56691484400232"><ele>13.0</ele><time>2026-04-20T14:51:21Z</time></trkpt><trkpt lat="43.18163625585681" lon="10.566936120625428"><ele>13.0</ele><time>2026-04-20T14:51:22Z</time></trkpt><trkpt lat="43.1814956595623" lon="10.56695725241302"><ele>13.0</ele><time>2026-04-20T14:51:23Z</time></trkpt><trkpt lat="43.18135111226861" lon="10.566981128785294"><ele>12.75</ele><time>2026-04-20T14:51:24Z</time></trkpt><trkpt lat="43.18120434672608" lon="10.567001617509808"><ele>12.5</ele><time>2026-04-20T14:51:25Z</time></trkpt><trkpt lat="43.18107116257812" lon="10.567003968386276"><ele>12.25</ele><time>2026-04-20T14:51:26Z</time></trkpt><trkpt lat="43.180930993889724" lon="10.567019328762331"><ele>12.0</ele><time>2026-04-20T14:51:27Z</time></trkpt><trkpt lat="43.18078774700171" lon="10.567049107619345"><ele>12.25</ele><time>2026-04-20T14:51:28Z</time></trkpt><trkpt lat="43.180645381685835" lon="10.567067351745267"><ele>12.5</ele><time>2026-04-20T14:51:29Z</time></trkpt><trkpt lat="43.18050210126011" lon="10.567082568011784"><ele>12.75</ele><time>2026-04-20T14:51:30Z</time></trkpt><trkpt lat="43.18035813170877" lon="10.567113991843561"><ele>13.0</ele><time>2026-04-20T14:51:31Z</time></trkpt><trkpt lat="43.18021618033253" lon="10.567135697705739"><ele>13.0</ele><time>2026-04-20T14:51:32Z</time></trkpt><trkpt lat="43.18008118933044" lon="10.567131369248123"><ele>13.0</ele><time>2026-04-20T14:51:33Z</time></trkpt><trkpt lat="43.179958123035405" lon="10.567147995421216"><ele>13.0</ele><time>2026-04-20T14:51:34Z</time></trkpt><trkpt lat="43.17984164866352" lon="10.567163732815038"><ele>13.0</ele><time>2026-04-20T14:51:35Z</time></trkpt><trkpt lat="43.17971153544432" lon="10.567181509951029"><ele>14.25</ele><time>2026-04-20T14:51:36Z</time></trkpt><trkpt lat="43.17958038354147" lon="10.567220112860078"><ele>15.5</ele><time>2026-04-20T14:51:37Z</time></trkpt><trkpt lat="43.179441037993136" lon="10.567217494507936"><ele>16.75</ele><time>2026-04-20T14:51:38Z</time></trkpt><trkpt lat="43.17929667427947" lon="10.567234874782148"><ele>18.0</ele><time>2026-04-20T14:51:39Z</time></trkpt><trkpt lat="43.17917000700792" lon="10.567253139568754"><ele>18.0</ele><time>2026-04-20T14:51:40Z</time></trkpt><trkpt lat="43.17905136775647" lon="10.56726747769472"><ele>18.0</ele><time>2026-04-20T14:51:41Z</time></trkpt><trkpt lat="43.17893741386669" lon="10.567285367952016"><ele>18.0</ele><time>2026-04-20T14:51:42Z</time></trkpt><trkpt lat="43.17881718836483" lon="10.56731230618245"><ele>18.0</ele><time>2026-04-20T14:51:43Z</time></trkpt><trkpt lat="43.17869170123777" lon="10.567328236131479"><ele>17.5</ele><time>2026-04-20T14:51:44Z</time></trkpt><trkpt lat="43.178566681007666" lon="10.567341407607643"><ele>17.0</ele><time>2026-04-20T14:51:45Z</time></trkpt><trkpt lat="43.17844803554992" lon="10.567355573120663"><ele>16.5</ele><time>2026-04-20T14:51:46Z</time></trkpt><trkpt lat="43.178334351677606" lon="10.567371716561905"><ele>16.0</ele><time>2026-04-20T14:51:47Z</time></trkpt><trkpt lat="43.17822444335082" lon="10.567385112697274"><ele>16.400000000000002</ele><time>2026-04-20T14:51:48Z</time></trkpt><trkpt lat="43.17812581297438" lon="10.567390025722977"><ele>16.8</ele><time>2026-04-20T14:51:49Z</time></trkpt><trkpt lat="43.1780219197226" lon="10.56738743471111"><ele>17.200000000000003</ele><time>2026-04-20T14:51:50Z</time></trkpt><trkpt lat="43.17790849163632" lon="10.567392690958817"><ele>17.6</ele><time>2026-04-20T14:51:51Z</time></trkpt><trkpt lat="43.17779727721883" lon="10.56740651844672"><ele>18.0</ele><time>2026-04-20T14:51:52Z</time></trkpt><trkpt lat="43.177675542172324" lon="10.567412074057074"><ele>18.0</ele><time>2026-04-20T14:51:53Z</time></trkpt><trkpt lat="43.1775600116444" lon="10.567415349056509"><ele>18.0</ele><time>2026-04-20T14:51:54Z</time></trkpt><trkpt lat="43.17745101416289" lon="10.567423978882251"><ele>18.0</ele><time>2026-04-20T14:51:55Z</time></trkpt><trkpt lat="43.17733606453054" lon="10.567414652644223"><ele>18.0</ele><time>2026-04-20T14:51:56Z</time></trkpt><trkpt lat="43.177220389505706" lon="10.567399489061403"><ele>18.5</ele><time>2026-04-20T14:51:57Z</time></trkpt><trkpt lat="43.17709844382674" lon="10.567377268541494"><ele>19.0</ele><time>2026-04-20T14:51:58Z</time></trkpt><trkpt lat="43.17697791227526" lon="10.567347904995938"><ele>19.5</ele><time>2026-04-20T14:51:59Z</time></trkpt><trkpt lat="43.17685101834457" lon="10.567319734994877"><ele>20.0</ele><time>2026-04-20T14:52:00Z</time></trkpt><trkpt lat="43.176734116772025" lon="10.567285806188584"><ele>20.0</ele><time>2026-04-20T14:52:01Z</time></trkpt><trkpt lat="43.17661982786842" lon="10.567241031965203"><ele>20.0</ele><time>2026-04-20T14:52:02Z</time></trkpt><trkpt lat="43.17650875059835" lon="10.56719639466496"><ele>20.0</ele><time>2026-04-20T14:52:03Z</time></trkpt><trkpt lat="43.17640125230918" lon="10.56715541886595"><ele>20.0</ele><time>2026-04-20T14:52:04Z</time></trkpt><trkpt lat="43.17628832745754" lon="10.56710966102332"><ele>19.75</ele><time>2026-04-20T14:52:05Z</time></trkpt><trkpt lat="43.17617575300187" lon="10.567065448034858"><ele>19.5</ele><time>2026-04-20T14:52:06Z</time></trkpt><trkpt lat="43.17606395987496" lon="10.567028917713484"><ele>19.25</ele><time>2026-04-20T14:52:07Z</time></trkpt><trkpt lat="43.175953855889794" lon="10.5669890060143"><ele>19.0</ele><time>2026-04-20T14:52:08Z</time></trkpt><trkpt lat="43.17584489922486" lon="10.566949213130039"><ele>19.0</ele><time>2026-04-20T14:52:09Z</time></trkpt><trkpt lat="43.17573976744361" lon="10.566916732045504"><ele>19.0</ele><time>2026-04-20T14:52:10Z</time></trkpt><trkpt lat="43.17564287186959" lon="10.56688267478281"><ele>19.0</ele><time>2026-04-20T14:52:11Z</time></trkpt><trkpt lat="43.17556068733182" lon="10.566851728122824"><ele>19.0</ele><time>2026-04-20T14:52:12Z</time></trkpt><trkpt lat="43.175493202749664" lon="10.566826961827756"><ele>19.0</ele><time>2026-04-20T14:52:13Z</time></trkpt><trkpt lat="43.17538707569829" lon="10.566790814484001"><ele>19.0</ele><time>2026-04-20T14:52:15Z</time></trkpt><trkpt lat="43.17532061568015" lon="10.566767828777659"><ele>19.0</ele><time>2026-04-20T14:52:17Z</time></trkpt><trkpt lat="43.17523401767742" lon="10.566716825107962"><ele>19.0</ele><time>2026-04-20T14:52:19Z</time></trkpt><trkpt lat="43.175109501465926" lon="10.56668706759575"><ele>19.0</ele><time>2026-04-20T14:52:21Z</time></trkpt><trkpt lat="43.17504170630863" lon="10.566672233690406"><ele>19.0</ele><time>2026-04-20T14:52:22Z</time></trkpt><trkpt lat="43.17496810549027" lon="10.566649099915272"><ele>19.0</ele><time>2026-04-20T14:52:23Z</time></trkpt><trkpt lat="43.17489153744905" lon="10.566625660808704"><ele>18.833333333333332</ele><time>2026-04-20T14:52:24Z</time></trkpt><trkpt lat="43.17481795433905" lon="10.566596727487685"><ele>18.666666666666664</ele><time>2026-04-20T14:52:25Z</time></trkpt><trkpt lat="43.17473971315662" lon="10.566569390318689"><ele>18.5</ele><time>2026-04-20T14:52:26Z</time></trkpt><trkpt lat="43.17465788970244" lon="10.566533620768086"><ele>18.333333333333332</ele><time>2026-04-20T14:52:27Z</time></trkpt><trkpt lat="43.17457018141422" lon="10.56649697118765"><ele>18.166666666666668</ele><time>2026-04-20T14:52:28Z</time></trkpt><trkpt lat="43.17446889824385" lon="10.566463690348987"><ele>18.0</ele><time>2026-04-20T14:52:29Z</time></trkpt><trkpt lat="43.174359582192274" lon="10.566428712665962"><ele>18.0</ele><time>2026-04-20T14:52:30Z</time></trkpt><trkpt lat="43.174245578760406" lon="10.566392770489097"><ele>18.0</ele><time>2026-04-20T14:52:31Z</time></trkpt><trkpt lat="43.17413017635381" lon="10.566352457554704"><ele>18.0</ele><time>2026-04-20T14:52:32Z</time></trkpt><trkpt lat="43.17401188116403" lon="10.566308098167033"><ele>18.0</ele><time>2026-04-20T14:52:33Z</time></trkpt><trkpt lat="43.173889657010704" lon="10.566262990694547"><ele>18.25</ele><time>2026-04-20T14:52:34Z</time></trkpt><trkpt lat="43.1737677650054" lon="10.56621874161467"><ele>18.5</ele><time>2026-04-20T14:52:35Z</time></trkpt><trkpt lat="43.1736530999814" lon="10.566175955050273"><ele>18.75</ele><time>2026-04-20T14:52:36Z</time></trkpt><trkpt lat="43.17354233376778" lon="10.566138595739709"><ele>19.0</ele><time>2026-04-20T14:52:37Z</time></trkpt><trkpt lat="43.17343486239552" lon="10.566103739131293"><ele>19.0</ele><time>2026-04-20T14:52:38Z</time></trkpt><trkpt lat="43.17332859595154" lon="10.56606443305803"><ele>19.0</ele><time>2026-04-20T14:52:39Z</time></trkpt><trkpt lat="43.173240276123" lon="10.566030907927903"><ele>19.0</ele><time>2026-04-20T14:52:40Z</time></trkpt><trkpt lat="43.17315759134513" lon="10.566004760116913"><ele>19.0</ele><time>2026-04-20T14:52:41Z</time></trkpt><trkpt lat="43.173073010043105" lon="10.565976486144235"><ele>19.0</ele><time>2026-04-20T14:52:42Z</time></trkpt><trkpt lat="43.172983329316764" lon="10.565942148975536"><ele>19.2</ele><time>2026-04-20T14:52:43Z</time></trkpt><trkpt lat="43.172886715130446" lon="10.565906873220994"><ele>19.4</ele><time>2026-04-20T14:52:44Z</time></trkpt><trkpt lat="43.172784010216816" lon="10.565841330997893"><ele>19.6</ele><time>2026-04-20T14:52:45Z</time></trkpt><trkpt lat="43.172676220682995" lon="10.56580619385308"><ele>19.8</ele><time>2026-04-20T14:52:46Z</time></trkpt><trkpt lat="43.1725665813712" lon="10.565767661402088"><ele>20.0</ele><time>2026-04-20T14:52:47Z</time></trkpt><trkpt lat="43.172468375609526" lon="10.565732599680112"><ele>20.0</ele><time>2026-04-20T14:52:48Z</time></trkpt><trkpt lat="43.172374987176774" lon="10.56570597571741"><ele>20.0</ele><time>2026-04-20T14:52:49Z</time></trkpt><trkpt lat="43.17227939056228" lon="10.56567917781344"><ele>20.0</ele><time>2026-04-20T14:52:50Z</time></trkpt><trkpt lat="43.17217759144161" lon="10.565648037192922"><ele>20.0</ele><time>2026-04-20T14:52:51Z</time></trkpt><trkpt lat="43.17208244457444" lon="10.565593431948157"><ele>20.0</ele><time>2026-04-20T14:52:52Z</time></trkpt><trkpt lat="43.171993090115336" lon="10.565560295598543"><ele>19.8</ele><time>2026-04-20T14:52:53Z</time></trkpt><trkpt lat="43.17190195258384" lon="10.565526081016165"><ele>19.6</ele><time>2026-04-20T14:52:54Z</time></trkpt><trkpt lat="43.17180607850658" lon="10.565505212493493"><ele>19.4</ele><time>2026-04-20T14:52:55Z</time></trkpt><trkpt lat="43.171720957906075" lon="10.565473842944664"><ele>19.2</ele><time>2026-04-20T14:52:56Z</time></trkpt><trkpt lat="43.17163027682771" lon="10.56543845836677"><ele>19.0</ele><time>2026-04-20T14:52:57Z</time></trkpt><trkpt lat="43.17153757201644" lon="10.565408885375845"><ele>19.2</ele><time>2026-04-20T14:52:58Z</time></trkpt><trkpt lat="43.17144068793043" lon="10.565377497074126"><ele>19.4</ele><time>2026-04-20T14:52:59Z</time></trkpt><trkpt lat="43.17134397884679" lon="10.565345556098425"><ele>19.6</ele><time>2026-04-20T14:53:00Z</time></trkpt><trkpt lat="43.17123983344853" lon="10.565310037140785"><ele>19.8</ele><time>2026-04-20T14:53:01Z</time></trkpt><trkpt lat="43.17113852886463" lon="10.565276106375242"><ele>20.0</ele><time>2026-04-20T14:53:02Z</time></trkpt><trkpt lat="43.17104581854527" lon="10.565245472604479"><ele>20.0</ele><time>2026-04-20T14:53:03Z</time></trkpt><trkpt lat="43.170953103176174" lon="10.565216033212115"><ele>20.0</ele><time>2026-04-20T14:53:04Z</time></trkpt><trkpt lat="43.170860546884334" lon="10.56515972183411"><ele>20.0</ele><time>2026-04-20T14:53:05Z</time></trkpt><trkpt lat="43.170761836825086" lon="10.5651265626929"><ele>20.0</ele><time>2026-04-20T14:53:06Z</time></trkpt><trkpt lat="43.17067027168666" lon="10.565096085572275"><ele>20.0</ele><time>2026-04-20T14:53:07Z</time></trkpt><trkpt lat="43.17058576221901" lon="10.565069385092439"><ele>20.666666666666668</ele><time>2026-04-20T14:53:08Z</time></trkpt><trkpt lat="43.17050382364101" lon="10.565043132948515"><ele>21.333333333333336</ele><time>2026-04-20T14:53:09Z</time></trkpt><trkpt lat="43.17041526075899" lon="10.565015976343856"><ele>22.0</ele><time>2026-04-20T14:53:10Z</time></trkpt><trkpt lat="43.17032875698772" lon="10.564992077185872"><ele>22.666666666666668</ele><time>2026-04-20T14:53:11Z</time></trkpt><trkpt lat="43.17024893213683" lon="10.564971854886492"><ele>23.333333333333332</ele><time>2026-04-20T14:53:12Z</time></trkpt><trkpt lat="43.1701671160849" lon="10.564952969133882"><ele>24.0</ele><time>2026-04-20T14:53:13Z</time></trkpt><trkpt lat="43.17007163623808" lon="10.56494904606937"><ele>24.0</ele><time>2026-04-20T14:53:14Z</time></trkpt><trkpt lat="43.16998049034665" lon="10.564915629756948"><ele>24.0</ele><time>2026-04-20T14:53:15Z</time></trkpt><trkpt lat="43.16989870708489" lon="10.564895530459774"><ele>24.0</ele><time>2026-04-20T14:53:16Z</time></trkpt><trkpt lat="43.16981472608318" lon="10.564880301211423"><ele>24.0</ele><time>2026-04-20T14:53:17Z</time></trkpt><trkpt lat="43.16972683845586" lon="10.564866560234048"><ele>24.0</ele><time>2026-04-20T14:53:18Z</time></trkpt><trkpt lat="43.16963455711954" lon="10.564846275779908"><ele>24.0</ele><time>2026-04-20T14:53:19Z</time></trkpt><trkpt lat="43.16954184745701" lon="10.564823689792297"><ele>23.6</ele><time>2026-04-20T14:53:20Z</time></trkpt><trkpt lat="43.16944707150558" lon="10.56480178519581"><ele>23.2</ele><time>2026-04-20T14:53:21Z</time></trkpt><trkpt lat="43.16935841481947" lon="10.564781658640673"><ele>22.8</ele><time>2026-04-20T14:53:22Z</time></trkpt><trkpt lat="43.169268595722265" lon="10.564740209670182"><ele>22.400000000000002</ele><time>2026-04-20T14:53:23Z</time></trkpt><trkpt lat="43.16917459234608" lon="10.564724935797248"><ele>22.0</ele><time>2026-04-20T14:53:24Z</time></trkpt><trkpt lat="43.16908611579246" lon="10.56470434327945"><ele>21.8</ele><time>2026-04-20T14:53:25Z</time></trkpt><trkpt lat="43.1690112802036" lon="10.564689340645865"><ele>21.6</ele><time>2026-04-20T14:53:26Z</time></trkpt><trkpt lat="43.1688975715669" lon="10.564664803952146"><ele>21.400000000000002</ele><time>2026-04-20T14:53:28Z</time></trkpt><trkpt lat="43.16877822968392" lon="10.564636204535464"><ele>21.200000000000003</ele><time>2026-04-20T14:53:30Z</time></trkpt><trkpt lat="43.16866838140526" lon="10.564605597230406"><ele>21.0</ele><time>2026-04-20T14:53:32Z</time></trkpt><trkpt lat="43.16857359168723" lon="10.564573445633526"><ele>21.0</ele><time>2026-04-20T14:53:34Z</time></trkpt><trkpt lat="43.16845163685419" lon="10.564543576751754"><ele>21.0</ele><time>2026-04-20T14:53:36Z</time></trkpt><trkpt lat="43.16838099778079" lon="10.564529064346617"><ele>21.0</ele><time>2026-04-20T14:53:37Z</time></trkpt><trkpt lat="43.16830141619813" lon="10.564515322268887"><ele>21.0</ele><time>2026-04-20T14:53:38Z</time></trkpt><trkpt lat="43.1682282006961" lon="10.564503914612688"><ele>21.0</ele><time>2026-04-20T14:53:39Z</time></trkpt><trkpt lat="43.16815503546833" lon="10.5644906238324"><ele>21.0</ele><time>2026-04-20T14:53:40Z</time></trkpt><trkpt lat="43.16807481338308" lon="10.564473212052654"><ele>21.0</ele><time>2026-04-20T14:53:41Z</time></trkpt><trkpt lat="43.167992275028595" lon="10.564456841424862"><ele>21.0</ele><time>2026-04-20T14:53:42Z</time></trkpt><trkpt lat="43.16790724635738" lon="10.564438460308414"><ele>21.0</ele><time>2026-04-20T14:53:43Z</time></trkpt><trkpt lat="43.16782032377785" lon="10.564419066828622"><ele>21.0</ele><time>2026-04-20T14:53:44Z</time></trkpt><trkpt lat="43.167728369300974" lon="10.56439512363951"><ele>21.0</ele><time>2026-04-20T14:53:45Z</time></trkpt><trkpt lat="43.16763787796226" lon="10.56437850906931"><ele>21.0</ele><time>2026-04-20T14:53:46Z</time></trkpt><trkpt lat="43.16755555927618" lon="10.564353993036017"><ele>21.0</ele><time>2026-04-20T14:53:47Z</time></trkpt><trkpt lat="43.167472245018324" lon="10.5643344223152"><ele>21.0</ele><time>2026-04-20T14:53:48Z</time></trkpt><trkpt lat="43.167385699933185" lon="10.564317532858023"><ele>21.0</ele><time>2026-04-20T14:53:49Z</time></trkpt><trkpt lat="43.167294691768184" lon="10.56429851128297"><ele>21.0</ele><time>2026-04-20T14:53:50Z</time></trkpt><trkpt lat="43.16720243642828" lon="10.564277497914357"><ele>21.0</ele><time>2026-04-20T14:53:51Z</time></trkpt><trkpt lat="43.16710990978992" lon="10.564252951833673"><ele>21.166666666666668</ele><time>2026-04-20T14:53:52Z</time></trkpt><trkpt lat="43.167015859324486" lon="10.564231052061768"><ele>21.333333333333332</ele><time>2026-04-20T14:53:53Z</time></trkpt><trkpt lat="43.16692782982662" lon="10.564207636371197"><ele>21.5</ele><time>2026-04-20T14:53:54Z</time></trkpt><trkpt lat="43.16684465911702" lon="10.564193979610245"><ele>21.666666666666664</ele><time>2026-04-20T14:53:55Z</time></trkpt><trkpt lat="43.166759675303894" lon="10.564171164890423"><ele>21.833333333333332</ele><time>2026-04-20T14:53:56Z</time></trkpt><trkpt lat="43.1666763542915" lon="10.564151225277392"><ele>22.0</ele><time>2026-04-20T14:53:57Z</time></trkpt><trkpt lat="43.16659126240143" lon="10.564132989405069"><ele>22.200000000000003</ele><time>2026-04-20T14:53:58Z</time></trkpt><trkpt lat="43.16650280155287" lon="10.564110756159776"><ele>22.4</ele><time>2026-04-20T14:53:59Z</time></trkpt><trkpt lat="43.16641438627487" lon="10.564092513429278"><ele>22.6</ele><time>2026-04-20T14:54:00Z</time></trkpt><trkpt lat="43.166318643285784" lon="10.564080665999958"><ele>22.799999999999997</ele><time>2026-04-20T14:54:01Z</time></trkpt><trkpt lat="43.16622518290329" lon="10.564057465566293"><ele>23.0</ele><time>2026-04-20T14:54:02Z</time></trkpt><trkpt lat="43.166132824061144" lon="10.56403392061208"><ele>23.0</ele><time>2026-04-20T14:54:03Z</time></trkpt><trkpt lat="43.16603675337352" lon="10.564013394973982"><ele>23.0</ele><time>2026-04-20T14:54:04Z</time></trkpt><trkpt lat="43.16593646691798" lon="10.563989607666452"><ele>23.0</ele><time>2026-04-20T14:54:05Z</time></trkpt><trkpt lat="43.16583396088084" lon="10.563965961107323"><ele>23.0</ele><time>2026-04-20T14:54:06Z</time></trkpt><trkpt lat="43.16573349917169" lon="10.563948890525602"><ele>23.0</ele><time>2026-04-20T14:54:07Z</time></trkpt><trkpt lat="43.165639946803566" lon="10.563927815492296"><ele>23.0</ele><time>2026-04-20T14:54:08Z</time></trkpt><trkpt lat="43.16554592391932" lon="10.563907230913001"><ele>23.0</ele><time>2026-04-20T14:54:09Z</time></trkpt><trkpt lat="43.16544700251306" lon="10.563878214977954"><ele>23.0</ele><time>2026-04-20T14:54:10Z</time></trkpt><trkpt lat="43.165345046758894" lon="10.563856830068072"><ele>23.0</ele><time>2026-04-20T14:54:11Z</time></trkpt><trkpt lat="43.16523747203032" lon="10.56384082067927"><ele>23.0</ele><time>2026-04-20T14:54:12Z</time></trkpt><trkpt lat="43.16513167136642" lon="10.563817363072785"><ele>23.0</ele><time>2026-04-20T14:54:13Z</time></trkpt><trkpt lat="43.16502978389504" lon="10.563797346722197"><ele>23.0</ele><time>2026-04-20T14:54:14Z</time></trkpt><trkpt lat="43.1649193319009" lon="10.563782171717737"><ele>23.0</ele><time>2026-04-20T14:54:15Z</time></trkpt><trkpt lat="43.1648026113448" lon="10.56376208441033"><ele>23.0</ele><time>2026-04-20T14:54:16Z</time></trkpt><trkpt lat="43.164682343890206" lon="10.563733280203204"><ele>22.5</ele><time>2026-04-20T14:54:17Z</time></trkpt><trkpt lat="43.16455318244374" lon="10.563700608094576"><ele>22.0</ele><time>2026-04-20T14:54:18Z</time></trkpt><trkpt lat="43.164427279790694" lon="10.563670230651066"><ele>21.5</ele><time>2026-04-20T14:54:19Z</time></trkpt><trkpt lat="43.16430535632777" lon="10.56363304468887"><ele>21.0</ele><time>2026-04-20T14:54:20Z</time></trkpt><trkpt lat="43.16418285110756" lon="10.563603734520806"><ele>22.0</ele><time>2026-04-20T14:54:21Z</time></trkpt><trkpt lat="43.1640491483466" lon="10.56356930279399"><ele>23.0</ele><time>2026-04-20T14:54:22Z</time></trkpt><trkpt lat="43.16392279616714" lon="10.56354227317932"><ele>24.0</ele><time>2026-04-20T14:54:23Z</time></trkpt><trkpt lat="43.163810347748424" lon="10.56351096279836"><ele>25.0</ele><time>2026-04-20T14:54:24Z</time></trkpt><trkpt lat="43.16370695386671" lon="10.56349815019821"><ele>25.0</ele><time>2026-04-20T14:54:25Z</time></trkpt><trkpt lat="43.163597249691314" lon="10.563475471597858"><ele>25.0</ele><time>2026-04-20T14:54:26Z</time></trkpt><trkpt lat="43.1634823245076" lon="10.563453090138681"><ele>25.0</ele><time>2026-04-20T14:54:27Z</time></trkpt><trkpt lat="43.16336572023784" lon="10.563423312299225"><ele>25.0</ele><time>2026-04-20T14:54:28Z</time></trkpt><trkpt lat="43.16324967349228" lon="10.563396997164773"><ele>24.25</ele><time>2026-04-20T14:54:29Z</time></trkpt><trkpt lat="43.16313110143558" lon="10.563364485211794"><ele>23.5</ele><time>2026-04-20T14:54:30Z</time></trkpt><trkpt lat="43.16301023850789" lon="10.563336558939573"><ele>22.75</ele><time>2026-04-20T14:54:31Z</time></trkpt><trkpt lat="43.16288293711854" lon="10.56330301392554"><ele>22.0</ele><time>2026-04-20T14:54:32Z</time></trkpt><trkpt lat="43.162765442615196" lon="10.563281065491532"><ele>22.0</ele><time>2026-04-20T14:54:33Z</time></trkpt><trkpt lat="43.162648284960575" lon="10.563255880740833"><ele>22.0</ele><time>2026-04-20T14:54:34Z</time></trkpt><trkpt lat="43.16252922774103" lon="10.56323419192871"><ele>22.0</ele><time>2026-04-20T14:54:35Z</time></trkpt><trkpt lat="43.16241515724949" lon="10.563207284382726"><ele>22.0</ele><time>2026-04-20T14:54:36Z</time></trkpt><trkpt lat="43.162298975705504" lon="10.563184365278916"><ele>21.6</ele><time>2026-04-20T14:54:37Z</time></trkpt><trkpt lat="43.16218449159092" lon="10.563167293783561"><ele>21.200000000000003</ele><time>2026-04-20T14:54:38Z</time></trkpt><trkpt lat="43.162081376996476" lon="10.56313091561926"><ele>20.8</ele><time>2026-04-20T14:54:39Z</time></trkpt><trkpt lat="43.161976451262426" lon="10.563110719293046"><ele>20.4</ele><time>2026-04-20T14:54:40Z</time></trkpt><trkpt lat="43.16187749837995" lon="10.563085005911562"><ele>20.0</ele><time>2026-04-20T14:54:41Z</time></trkpt><trkpt lat="43.16180125778541" lon="10.56306467292364"><ele>20.0</ele><time>2026-04-20T14:54:42Z</time></trkpt><trkpt lat="43.16173750600429" lon="10.563046833886595"><ele>20.0</ele><time>2026-04-20T14:54:43Z</time></trkpt><trkpt lat="43.161665197196896" lon="10.563034916652162"><ele>20.0</ele><time>2026-04-20T14:54:45Z</time></trkpt><trkpt lat="43.16155815953859" lon="10.563016550972227"><ele>20.0</ele><time>2026-04-20T14:54:52Z</time></trkpt><trkpt lat="43.16148760253503" lon="10.563001813693834"><ele>20.0</ele><time>2026-04-20T14:54:53Z</time></trkpt><trkpt lat="43.16139543279723" lon="10.563008618777399"><ele>20.0</ele><time>2026-04-20T14:54:54Z</time></trkpt><trkpt lat="43.16129130789317" lon="10.562987748914946"><ele>19.25</ele><time>2026-04-20T14:54:55Z</time></trkpt><trkpt lat="43.16118178559847" lon="10.562966628302386"><ele>18.5</ele><time>2026-04-20T14:54:56Z</time></trkpt><trkpt lat="43.16106132754273" lon="10.562943361364688"><ele>17.75</ele><time>2026-04-20T14:54:57Z</time></trkpt><trkpt lat="43.160938939826345" lon="10.562878168759628"><ele>17.0</ele><time>2026-04-20T14:54:58Z</time></trkpt><trkpt lat="43.16080260441348" lon="10.562846959426789"><ele>16.666666666666668</ele><time>2026-04-20T14:54:59Z</time></trkpt><trkpt lat="43.16066215204197" lon="10.562814636696062"><ele>16.333333333333332</ele><time>2026-04-20T14:55:00Z</time></trkpt><trkpt lat="43.16051224494023" lon="10.562778946420368"><ele>16.0</ele><time>2026-04-20T14:55:01Z</time></trkpt><trkpt lat="43.16035681700023" lon="10.56274194169208"><ele>16.0</ele><time>2026-04-20T14:55:02Z</time></trkpt><trkpt lat="43.16020221799577" lon="10.562703586189222"><ele>16.0</ele><time>2026-04-20T14:55:03Z</time></trkpt><trkpt lat="43.160047614429224" lon="10.562664411796998"><ele>16.0</ele><time>2026-04-20T14:55:04Z</time></trkpt><trkpt lat="43.1598874094823" lon="10.562629238356031"><ele>16.333333333333332</ele><time>2026-04-20T14:55:05Z</time></trkpt><trkpt lat="43.1597277815606" lon="10.562576604774277"><ele>16.666666666666668</ele><time>2026-04-20T14:55:06Z</time></trkpt><trkpt lat="43.15956968621459" lon="10.562517652030005"><ele>17.0</ele><time>2026-04-20T14:55:07Z</time></trkpt><trkpt lat="43.15941566537132" lon="10.562452054538088"><ele>17.0</ele><time>2026-04-20T14:55:08Z</time></trkpt><trkpt lat="43.15925920540637" lon="10.562377596134146"><ele>17.0</ele><time>2026-04-20T14:55:09Z</time></trkpt><trkpt lat="43.15910808171174" lon="10.56230170672416"><ele>17.0</ele><time>2026-04-20T14:55:10Z</time></trkpt><trkpt lat="43.15895733581305" lon="10.562220210230901"><ele>17.0</ele><time>2026-04-20T14:55:11Z</time></trkpt><trkpt lat="43.15880810624381" lon="10.562139512239241"><ele>17.0</ele><time>2026-04-20T14:55:12Z</time></trkpt><trkpt lat="43.15865401767821" lon="10.562057763862587"><ele>17.0</ele><time>2026-04-20T14:55:13Z</time></trkpt><trkpt lat="43.15850255846472" lon="10.561976159948422"><ele>17.0</ele><time>2026-04-20T14:55:14Z</time></trkpt><trkpt lat="43.158348668029625" lon="10.56189475168569"><ele>17.0</ele><time>2026-04-20T14:55:15Z</time></trkpt><trkpt lat="43.158195475106524" lon="10.561813282984126"><ele>17.0</ele><time>2026-04-20T14:55:16Z</time></trkpt><trkpt lat="43.15804374225961" lon="10.561734621184067"><ele>17.0</ele><time>2026-04-20T14:55:17Z</time></trkpt><trkpt lat="43.15789083228566" lon="10.561651130440984"><ele>17.0</ele><time>2026-04-20T14:55:18Z</time></trkpt><trkpt lat="43.15773879496119" lon="10.561565267494524"><ele>17.0</ele><time>2026-04-20T14:55:19Z</time></trkpt><trkpt lat="43.15758361882149" lon="10.56148496915085"><ele>17.0</ele><time>2026-04-20T14:55:20Z</time></trkpt><trkpt lat="43.15742960457784" lon="10.561397855770489"><ele>17.0</ele><time>2026-04-20T14:55:21Z</time></trkpt><trkpt lat="43.157272607082675" lon="10.561315256729038"><ele>17.0</ele><time>2026-04-20T14:55:22Z</time></trkpt><trkpt lat="43.15711531081669" lon="10.561233150181184"><ele>17.666666666666668</ele><time>2026-04-20T14:55:23Z</time></trkpt><trkpt lat="43.156958117329474" lon="10.561146833855352"><ele>18.333333333333332</ele><time>2026-04-20T14:55:24Z</time></trkpt><trkpt lat="43.15680314324811" lon="10.56106016680327"><ele>19.0</ele><time>2026-04-20T14:55:25Z</time></trkpt><trkpt lat="43.156648059501435" lon="10.560975164485825"><ele>18.666666666666664</ele><time>2026-04-20T14:55:26Z</time></trkpt><trkpt lat="43.15648489210453" lon="10.560886290303051"><ele>18.333333333333332</ele><time>2026-04-20T14:55:27Z</time></trkpt><trkpt lat="43.15632403962751" lon="10.560800142268043"><ele>18.0</ele><time>2026-04-20T14:55:28Z</time></trkpt><trkpt lat="43.15616245889203" lon="10.560713660007993"><ele>18.0</ele><time>2026-04-20T14:55:29Z</time></trkpt><trkpt lat="43.15600293926059" lon="10.56062346198455"><ele>18.0</ele><time>2026-04-20T14:55:30Z</time></trkpt><trkpt lat="43.155845424637796" lon="10.560533975683486"><ele>18.0</ele><time>2026-04-20T14:55:31Z</time></trkpt><trkpt lat="43.15568100614889" lon="10.560454680755958"><ele>18.0</ele><time>2026-04-20T14:55:32Z</time></trkpt><trkpt lat="43.15551709832167" lon="10.56037089773505"><ele>18.0</ele><time>2026-04-20T14:55:33Z</time></trkpt><trkpt lat="43.15535305687259" lon="10.560278076839786"><ele>18.0</ele><time>2026-04-20T14:55:34Z</time></trkpt><trkpt lat="43.15519420469668" lon="10.560194129587673"><ele>18.0</ele><time>2026-04-20T14:55:35Z</time></trkpt><trkpt lat="43.155030661013264" lon="10.560105352853558"><ele>18.0</ele><time>2026-04-20T14:55:36Z</time></trkpt><trkpt lat="43.15487087490251" lon="10.560016272678306"><ele>18.0</ele><time>2026-04-20T14:55:37Z</time></trkpt><trkpt lat="43.154715598538054" lon="10.559933030669821"><ele>17.0</ele><time>2026-04-20T14:55:38Z</time></trkpt><trkpt lat="43.1545593714081" lon="10.559845822418854"><ele>16.0</ele><time>2026-04-20T14:55:39Z</time></trkpt><trkpt lat="43.15441543885402" lon="10.559772636353028"><ele>15.0</ele><time>2026-04-20T14:55:40Z</time></trkpt><trkpt lat="43.1542762984952" lon="10.559700090744823"><ele>15.0</ele><time>2026-04-20T14:55:41Z</time></trkpt><trkpt lat="43.15413638769497" lon="10.559621947435774"><ele>15.0</ele><time>2026-04-20T14:55:42Z</time></trkpt><trkpt lat="43.153995759069204" lon="10.559542476157024"><ele>15.0</ele><time>2026-04-20T14:55:43Z</time></trkpt><trkpt lat="43.15384981001359" lon="10.559469162807192"><ele>15.0</ele><time>2026-04-20T14:55:44Z</time></trkpt><trkpt lat="43.15370094714086" lon="10.559391998003695"><ele>15.0</ele><time>2026-04-20T14:55:45Z</time></trkpt><trkpt lat="43.153554673478624" lon="10.559287612250694"><ele>15.0</ele><time>2026-04-20T14:55:46Z</time></trkpt><trkpt lat="43.15341666371694" lon="10.55921457458872"><ele>15.0</ele><time>2026-04-20T14:55:47Z</time></trkpt><trkpt lat="43.15328576290086" lon="10.559144364093905"><ele>15.0</ele><time>2026-04-20T14:55:48Z</time></trkpt><trkpt lat="43.15316139304605" lon="10.55907572910536"><ele>15.0</ele><time>2026-04-20T14:55:49Z</time></trkpt><trkpt lat="43.1530438399458" lon="10.55901389800095"><ele>15.0</ele><time>2026-04-20T14:55:50Z</time></trkpt><trkpt lat="43.15292435601893" lon="10.558952508902298"><ele>15.5</ele><time>2026-04-20T14:55:51Z</time></trkpt><trkpt lat="43.15281649927697" lon="10.55889943458464"><ele>16.0</ele><time>2026-04-20T14:55:52Z</time></trkpt><trkpt lat="43.152710469553604" lon="10.558839742182196"><ele>16.5</ele><time>2026-04-20T14:55:53Z</time></trkpt><trkpt lat="43.15260228223792" lon="10.558780515441471"><ele>17.0</ele><time>2026-04-20T14:55:54Z</time></trkpt><trkpt lat="43.152488162010286" lon="10.558714850480076"><ele>17.25</ele><time>2026-04-20T14:55:55Z</time></trkpt><trkpt lat="43.15237288270457" lon="10.5586576007521"><ele>17.5</ele><time>2026-04-20T14:55:56Z</time></trkpt><trkpt lat="43.15225532819892" lon="10.558596915261846"><ele>17.75</ele><time>2026-04-20T14:55:57Z</time></trkpt><trkpt lat="43.15213832110215" lon="10.558534755346384"><ele>18.0</ele><time>2026-04-20T14:55:58Z</time></trkpt><trkpt lat="43.15203005040545" lon="10.558478399939702"><ele>18.0</ele><time>2026-04-20T14:55:59Z</time></trkpt><trkpt lat="43.15192346755634" lon="10.558416030417275"><ele>18.0</ele><time>2026-04-20T14:56:00Z</time></trkpt><trkpt lat="43.151813441163576" lon="10.55835727021412"><ele>18.0</ele><time>2026-04-20T14:56:01Z</time></trkpt><trkpt lat="43.151700775183706" lon="10.558301846757722"><ele>18.0</ele><time>2026-04-20T14:56:02Z</time></trkpt><trkpt lat="43.15158651245412" lon="10.558241067094992"><ele>18.25</ele><time>2026-04-20T14:56:03Z</time></trkpt><trkpt lat="43.151464944339544" lon="10.558174724116302"><ele>18.5</ele><time>2026-04-20T14:56:04Z</time></trkpt><trkpt lat="43.151338603809585" lon="10.558107741633293"><ele>18.75</ele><time>2026-04-20T14:56:05Z</time></trkpt><trkpt lat="43.15120878235298" lon="10.558035824571279"><ele>19.0</ele><time>2026-04-20T14:56:06Z</time></trkpt><trkpt lat="43.15106966597967" lon="10.55796049610272"><ele>19.0</ele><time>2026-04-20T14:56:07Z</time></trkpt><trkpt lat="43.1509257668408" lon="10.557880772785065"><ele>19.0</ele><time>2026-04-20T14:56:08Z</time></trkpt><trkpt lat="43.15077612498808" lon="10.557800743022627"><ele>19.0</ele><time>2026-04-20T14:56:09Z</time></trkpt><trkpt lat="43.15062299723457" lon="10.557718506845685"><ele>17.333333333333332</ele><time>2026-04-20T14:56:10Z</time></trkpt><trkpt lat="43.15046877195882" lon="10.557637991642878"><ele>15.666666666666668</ele><time>2026-04-20T14:56:11Z</time></trkpt><trkpt lat="43.15030896834693" lon="10.557558474240306"><ele>14.0</ele><time>2026-04-20T14:56:12Z</time></trkpt><trkpt lat="43.15014727668187" lon="10.557474949152645"><ele>14.0</ele><time>2026-04-20T14:56:13Z</time></trkpt><trkpt lat="43.14998336558903" lon="10.557387785440119"><ele>14.0</ele><time>2026-04-20T14:56:14Z</time></trkpt><trkpt lat="43.149817293198794" lon="10.557301912998462"><ele>14.0</ele><time>2026-04-20T14:56:15Z</time></trkpt><trkpt lat="43.14965150461594" lon="10.557212447835374"><ele>14.0</ele><time>2026-04-20T14:56:16Z</time></trkpt><trkpt lat="43.14949525631436" lon="10.557105750530413"><ele>14.0</ele><time>2026-04-20T14:56:17Z</time></trkpt><trkpt lat="43.14933562258964" lon="10.557020425391693"><ele>14.0</ele><time>2026-04-20T14:56:18Z</time></trkpt><trkpt lat="43.1491712739071" lon="10.556932580039073"><ele>14.0</ele><time>2026-04-20T14:56:19Z</time></trkpt><trkpt lat="43.14900038293248" lon="10.55686351996499"><ele>14.0</ele><time>2026-04-20T14:56:20Z</time></trkpt><trkpt lat="43.14883431550246" lon="10.556772541867067"><ele>14.0</ele><time>2026-04-20T14:56:21Z</time></trkpt><trkpt lat="43.14866357441695" lon="10.55668058499109"><ele>14.0</ele><time>2026-04-20T14:56:22Z</time></trkpt><trkpt lat="43.14849424470034" lon="10.5565903233341"><ele>14.0</ele><time>2026-04-20T14:56:23Z</time></trkpt><trkpt lat="43.14832822396667" lon="10.556494140980636"><ele>14.0</ele><time>2026-04-20T14:56:24Z</time></trkpt><trkpt lat="43.1481659563739" lon="10.556410139970502"><ele>13.666666666666668</ele><time>2026-04-20T14:56:25Z</time></trkpt><trkpt lat="43.14800726054266" lon="10.556304035789339"><ele>13.333333333333332</ele><time>2026-04-20T14:56:26Z</time></trkpt><trkpt lat="43.14784550271254" lon="10.55621697601416"><ele>13.0</ele><time>2026-04-20T14:56:27Z</time></trkpt><trkpt lat="43.14768534840665" lon="10.556130779274696"><ele>13.0</ele><time>2026-04-20T14:56:28Z</time></trkpt><trkpt lat="43.14751978499371" lon="10.556041621837508"><ele>13.0</ele><time>2026-04-20T14:56:29Z</time></trkpt><trkpt lat="43.147354224578365" lon="10.555951956180012"><ele>13.0</ele><time>2026-04-20T14:56:30Z</time></trkpt><trkpt lat="43.1471862795989" lon="10.555860999046875"><ele>13.0</ele><time>2026-04-20T14:56:31Z</time></trkpt><trkpt lat="43.14701569876249" lon="10.555768614356756"><ele>13.0</ele><time>2026-04-20T14:56:32Z</time></trkpt><trkpt lat="43.146846517189836" lon="10.555676987516152"><ele>13.0</ele><time>2026-04-20T14:56:33Z</time></trkpt><trkpt lat="43.14667489875798" lon="10.555584040881884"><ele>13.0</ele><time>2026-04-20T14:56:34Z</time></trkpt><trkpt lat="43.14650809685597" lon="10.555493704302183"><ele>13.0</ele><time>2026-04-20T14:56:35Z</time></trkpt><trkpt lat="43.14634108659066" lon="10.555403253504716"><ele>13.0</ele><time>2026-04-20T14:56:36Z</time></trkpt><trkpt lat="43.14617443766297" lon="10.555312998308123"><ele>13.333333333333332</ele><time>2026-04-20T14:56:37Z</time></trkpt><trkpt lat="43.14601128185171" lon="10.55522463508912"><ele>13.666666666666668</ele><time>2026-04-20T14:56:38Z</time></trkpt><trkpt lat="43.14584523919046" lon="10.55513470820498"><ele>14.0</ele><time>2026-04-20T14:56:39Z</time></trkpt><trkpt lat="43.1456824792011" lon="10.555046560078932"><ele>14.333333333333334</ele><time>2026-04-20T14:56:40Z</time></trkpt><trkpt lat="43.14551954016129" lon="10.55495954747941"><ele>14.666666666666668</ele><time>2026-04-20T14:56:41Z</time></trkpt><trkpt lat="43.145358213964734" lon="10.554872725016272"><ele>15.0</ele><time>2026-04-20T14:56:42Z</time></trkpt><trkpt lat="43.1451987831776" lon="10.554786531950038"><ele>15.0</ele><time>2026-04-20T14:56:43Z</time></trkpt><trkpt lat="43.14503801912831" lon="10.55469961813445"><ele>15.0</ele><time>2026-04-20T14:56:44Z</time></trkpt><trkpt lat="43.14487865092695" lon="10.55461419625272"><ele>15.0</ele><time>2026-04-20T14:56:45Z</time></trkpt><trkpt lat="43.1447181472042" lon="10.554528881593578"><ele>14.333333333333332</ele><time>2026-04-20T14:56:46Z</time></trkpt><trkpt lat="43.14455584759745" lon="10.554444186431454"><ele>13.666666666666666</ele><time>2026-04-20T14:56:47Z</time></trkpt><trkpt lat="43.14439069649472" lon="10.554361586754517"><ele>13.0</ele><time>2026-04-20T14:56:48Z</time></trkpt><trkpt lat="43.144223577421904" lon="10.554280470777806"><ele>13.0</ele><time>2026-04-20T14:56:49Z</time></trkpt><trkpt lat="43.144056221470706" lon="10.554199558644804"><ele>13.0</ele><time>2026-04-20T14:56:50Z</time></trkpt><trkpt lat="43.14388757745446" lon="10.554120620695029"><ele>13.0</ele><time>2026-04-20T14:56:51Z</time></trkpt><trkpt lat="43.143720144117275" lon="10.554044931677403"><ele>13.666666666666666</ele><time>2026-04-20T14:56:52Z</time></trkpt><trkpt lat="43.14354994031936" lon="10.553969789422936"><ele>14.333333333333332</ele><time>2026-04-20T14:56:53Z</time></trkpt><trkpt lat="43.14337969916712" lon="10.553896576633617"><ele>15.0</ele><time>2026-04-20T14:56:54Z</time></trkpt><trkpt lat="43.143212312651805" lon="10.553824454249998"><ele>15.0</ele><time>2026-04-20T14:56:55Z</time></trkpt><trkpt lat="43.14304264810225" lon="10.55375125931812"><ele>15.0</ele><time>2026-04-20T14:56:56Z</time></trkpt><trkpt lat="43.1428622050695" lon="10.553697196765734"><ele>15.0</ele><time>2026-04-20T14:56:57Z</time></trkpt><trkpt lat="43.142691695376826" lon="10.553631152181609"><ele>15.333333333333332</ele><time>2026-04-20T14:56:58Z</time></trkpt><trkpt lat="43.14252184774927" lon="10.553562899322813"><ele>15.666666666666666</ele><time>2026-04-20T14:56:59Z</time></trkpt><trkpt lat="43.14235044687004" lon="10.553496744149149"><ele>16.0</ele><time>2026-04-20T14:57:00Z</time></trkpt><trkpt lat="43.14218003041981" lon="10.553430519567062"><ele>16.333333333333332</ele><time>2026-04-20T14:57:01Z</time></trkpt><trkpt lat="43.14200610150623" lon="10.553364689806005"><ele>16.666666666666668</ele><time>2026-04-20T14:57:02Z</time></trkpt><trkpt lat="43.14183053341903" lon="10.553290346124426"><ele>17.0</ele><time>2026-04-20T14:57:03Z</time></trkpt><trkpt lat="43.141653601837405" lon="10.553227198373415"><ele>17.333333333333336</ele><time>2026-04-20T14:57:04Z</time></trkpt><trkpt lat="43.14147599811129" lon="10.553167393048495"><ele>17.666666666666668</ele><time>2026-04-20T14:57:05Z</time></trkpt><trkpt lat="43.14130000072354" lon="10.55310705169206"><ele>18.0</ele><time>2026-04-20T14:57:06Z</time></trkpt><trkpt lat="43.14112229733672" lon="10.553044300119057"><ele>18.0</ele><time>2026-04-20T14:57:07Z</time></trkpt><trkpt lat="43.14094627507865" lon="10.55297844079299"><ele>18.0</ele><time>2026-04-20T14:57:08Z</time></trkpt><trkpt lat="43.140770952672035" lon="10.552915925077981"><ele>18.0</ele><time>2026-04-20T14:57:09Z</time></trkpt><trkpt lat="43.140594032231014" lon="10.55285475138868"><ele>17.0</ele><time>2026-04-20T14:57:10Z</time></trkpt><trkpt lat="43.14041759877581" lon="10.552793823594914"><ele>16.0</ele><time>2026-04-20T14:57:11Z</time></trkpt><trkpt lat="43.14024074289388" lon="10.552735073845898"><ele>15.0</ele><time>2026-04-20T14:57:12Z</time></trkpt><trkpt lat="43.14006398671889" lon="10.552672089302675"><ele>15.0</ele><time>2026-04-20T14:57:13Z</time></trkpt><trkpt lat="43.139886362295755" lon="10.552605217388853"><ele>15.0</ele><time>2026-04-20T14:57:14Z</time></trkpt><trkpt lat="43.139707177183" lon="10.552540294178224"><ele>15.0</ele><time>2026-04-20T14:57:15Z</time></trkpt><trkpt lat="43.13952719307501" lon="10.552475878191784"><ele>15.666666666666668</ele><time>2026-04-20T14:57:16Z</time></trkpt><trkpt lat="43.13934129148945" lon="10.552406008419178"><ele>16.333333333333336</ele><time>2026-04-20T14:57:17Z</time></trkpt><trkpt lat="43.13915664286814" lon="10.552341657749482"><ele>17.0</ele><time>2026-04-20T14:57:18Z</time></trkpt><trkpt lat="43.13897052103296" lon="10.552276575083342"><ele>17.0</ele><time>2026-04-20T14:57:19Z</time></trkpt><trkpt lat="43.13878381390815" lon="10.552210757603751"><ele>17.0</ele><time>2026-04-20T14:57:20Z</time></trkpt><trkpt lat="43.13859405818718" lon="10.552142764896706"><ele>17.0</ele><time>2026-04-20T14:57:21Z</time></trkpt><trkpt lat="43.13840256807254" lon="10.552069389201725"><ele>16.0</ele><time>2026-04-20T14:57:22Z</time></trkpt><trkpt lat="43.138213815519514" lon="10.552008495420559"><ele>15.0</ele><time>2026-04-20T14:57:23Z</time></trkpt><trkpt lat="43.13802700354945" lon="10.551940707674461"><ele>14.0</ele><time>2026-04-20T14:57:24Z</time></trkpt><trkpt lat="43.13783974223212" lon="10.551873554399268"><ele>14.0</ele><time>2026-04-20T14:57:25Z</time></trkpt><trkpt lat="43.13765198053039" lon="10.551807835399064"><ele>14.0</ele><time>2026-04-20T14:57:26Z</time></trkpt><trkpt lat="43.13746097141131" lon="10.55173524090061"><ele>14.0</ele><time>2026-04-20T14:57:27Z</time></trkpt><trkpt lat="43.137268238083415" lon="10.55167230175047"><ele>14.666666666666668</ele><time>2026-04-20T14:57:28Z</time></trkpt><trkpt lat="43.13707400205402" lon="10.55160249484662"><ele>15.333333333333332</ele><time>2026-04-20T14:57:29Z</time></trkpt><trkpt lat="43.136877005778665" lon="10.55153072344122"><ele>16.0</ele><time>2026-04-20T14:57:30Z</time></trkpt><trkpt lat="43.13668072722615" lon="10.551469369726268"><ele>15.666666666666666</ele><time>2026-04-20T14:57:31Z</time></trkpt><trkpt lat="43.1364887074857" lon="10.5513978911107"><ele>15.333333333333332</ele><time>2026-04-20T14:57:32Z</time></trkpt><trkpt lat="43.136300561267184" lon="10.551328053391483"><ele>15.0</ele><time>2026-04-20T14:57:33Z</time></trkpt><trkpt lat="43.13611013453072" lon="10.55125666726903"><ele>14.333333333333332</ele><time>2026-04-20T14:57:34Z</time></trkpt><trkpt lat="43.135918997879074" lon="10.551189237962769"><ele>13.666666666666666</ele><time>2026-04-20T14:57:35Z</time></trkpt><trkpt lat="43.13572571065893" lon="10.551126005077064"><ele>13.0</ele><time>2026-04-20T14:57:36Z</time></trkpt><trkpt lat="43.135538740899726" lon="10.551060975574314"><ele>13.0</ele><time>2026-04-20T14:57:37Z</time></trkpt><trkpt lat="43.135350139610765" lon="10.550994731601937"><ele>13.0</ele><time>2026-04-20T14:57:38Z</time></trkpt><trkpt lat="43.13516384701826" lon="10.550928861420305"><ele>13.0</ele><time>2026-04-20T14:57:39Z</time></trkpt><trkpt lat="43.13497405522933" lon="10.55086289220592"><ele>14.666666666666666</ele><time>2026-04-20T14:57:40Z</time></trkpt><trkpt lat="43.13478286870904" lon="10.550798289010467"><ele>16.333333333333332</ele><time>2026-04-20T14:57:41Z</time></trkpt><trkpt lat="43.13459397618919" lon="10.55070875400556"><ele>18.0</ele><time>2026-04-20T14:57:42Z</time></trkpt><trkpt lat="43.13439930303465" lon="10.550639333273349"><ele>18.0</ele><time>2026-04-20T14:57:43Z</time></trkpt><trkpt lat="43.13420465805084" lon="10.550569922604753"><ele>18.0</ele><time>2026-04-20T14:57:44Z</time></trkpt><trkpt lat="43.13401327092871" lon="10.55050167370216"><ele>18.0</ele><time>2026-04-20T14:57:45Z</time></trkpt><trkpt lat="43.13382527459449" lon="10.55043463393728"><ele>16.333333333333332</ele><time>2026-04-20T14:57:46Z</time></trkpt><trkpt lat="43.13363662517504" lon="10.55036754784563"><ele>14.666666666666666</ele><time>2026-04-20T14:57:47Z</time></trkpt><trkpt lat="43.133440753690934" lon="10.550327828964626"><ele>13.0</ele><time>2026-04-20T14:57:48Z</time></trkpt><trkpt lat="43.13325208350486" lon="10.550261950664316"><ele>13.666666666666666</ele><time>2026-04-20T14:57:49Z</time></trkpt><trkpt lat="43.133060741052226" lon="10.550192408378265"><ele>14.333333333333332</ele><time>2026-04-20T14:57:50Z</time></trkpt><trkpt lat="43.13286740460164" lon="10.550124225390592"><ele>15.0</ele><time>2026-04-20T14:57:51Z</time></trkpt><trkpt lat="43.13268038240124" lon="10.550027354975725"><ele>15.0</ele><time>2026-04-20T14:57:52Z</time></trkpt><trkpt lat="43.13248630389178" lon="10.549981524114004"><ele>15.0</ele><time>2026-04-20T14:57:53Z</time></trkpt><trkpt lat="43.13229738643314" lon="10.549890835609382"><ele>15.0</ele><time>2026-04-20T14:57:54Z</time></trkpt><trkpt lat="43.132103545927144" lon="10.549821740067257"><ele>15.0</ele><time>2026-04-20T14:57:55Z</time></trkpt><trkpt lat="43.13192447523538" lon="10.549757909324104"><ele>15.0</ele><time>2026-04-20T14:57:56Z</time></trkpt><trkpt lat="43.13173142615087" lon="10.54968909585406"><ele>15.0</ele><time>2026-04-20T14:57:57Z</time></trkpt><trkpt lat="43.13153902802955" lon="10.54962051448233"><ele>15.0</ele><time>2026-04-20T14:57:58Z</time></trkpt><trkpt lat="43.13134994706568" lon="10.549553115503603"><ele>15.0</ele><time>2026-04-20T14:57:59Z</time></trkpt><trkpt lat="43.131165849178416" lon="10.549487436162186"><ele>15.0</ele><time>2026-04-20T14:58:00Z</time></trkpt><trkpt lat="43.13097645755015" lon="10.549419339804645"><ele>14.666666666666668</ele><time>2026-04-20T14:58:01Z</time></trkpt><trkpt lat="43.13079786044553" lon="10.549355124727573"><ele>14.333333333333334</ele><time>2026-04-20T14:58:02Z</time></trkpt><trkpt lat="43.13061588329088" lon="10.54928969435329"><ele>14.0</ele><time>2026-04-20T14:58:03Z</time></trkpt><trkpt lat="43.13043418565655" lon="10.549224364446317"><ele>14.0</ele><time>2026-04-20T14:58:04Z</time></trkpt><trkpt lat="43.1302491820226" lon="10.549157845822755"><ele>14.0</ele><time>2026-04-20T14:58:05Z</time></trkpt><trkpt lat="43.130066503037845" lon="10.5490929044952"><ele>14.0</ele><time>2026-04-20T14:58:06Z</time></trkpt><trkpt lat="43.129886771316414" lon="10.549029161512193"><ele>14.0</ele><time>2026-04-20T14:58:07Z</time></trkpt><trkpt lat="43.12970594355054" lon="10.548965029798135"><ele>14.0</ele><time>2026-04-20T14:58:08Z</time></trkpt><trkpt lat="43.129525808281144" lon="10.548924205167765"><ele>14.0</ele><time>2026-04-20T14:58:09Z</time></trkpt><trkpt lat="43.1293468225631" lon="10.548837665252822"><ele>14.0</ele><time>2026-04-20T14:58:10Z</time></trkpt><trkpt lat="43.129158616503766" lon="10.548794057396615"><ele>14.0</ele><time>2026-04-20T14:58:11Z</time></trkpt><trkpt lat="43.12897755100942" lon="10.548706700841365"><ele>14.0</ele><time>2026-04-20T14:58:12Z</time></trkpt><trkpt lat="43.12879214495455" lon="10.54864114115445"><ele>14.0</ele><time>2026-04-20T14:58:13Z</time></trkpt><trkpt lat="43.12860281298848" lon="10.548597492941337"><ele>14.0</ele><time>2026-04-20T14:58:14Z</time></trkpt><trkpt lat="43.1284151841216" lon="10.548530972913587"><ele>14.0</ele><time>2026-04-20T14:58:15Z</time></trkpt><trkpt lat="43.12822864741541" lon="10.548458772520965"><ele>14.0</ele><time>2026-04-20T14:58:16Z</time></trkpt><trkpt lat="43.12804212793357" lon="10.548390905954552"><ele>14.0</ele><time>2026-04-20T14:58:17Z</time></trkpt><trkpt lat="43.12785659104907" lon="10.548324819580092"><ele>14.0</ele><time>2026-04-20T14:58:18Z</time></trkpt><trkpt lat="43.12766922899774" lon="10.548261322403208"><ele>14.0</ele><time>2026-04-20T14:58:19Z</time></trkpt><trkpt lat="43.12748321852052" lon="10.548194206047581"><ele>14.0</ele><time>2026-04-20T14:58:20Z</time></trkpt><trkpt lat="43.12729666298808" lon="10.548131698575407"><ele>14.0</ele><time>2026-04-20T14:58:21Z</time></trkpt><trkpt lat="43.12710878785382" lon="10.54806839723477"><ele>15.0</ele><time>2026-04-20T14:58:22Z</time></trkpt><trkpt lat="43.12692296899501" lon="10.548005021764505"><ele>16.0</ele><time>2026-04-20T14:58:23Z</time></trkpt><trkpt lat="43.12673979868839" lon="10.547919529648324"><ele>17.0</ele><time>2026-04-20T14:58:24Z</time></trkpt><trkpt lat="43.126543149596976" lon="10.547879489313711"><ele>15.333333333333334</ele><time>2026-04-20T14:58:25Z</time></trkpt><trkpt lat="43.126353099971126" lon="10.547810400135699"><ele>13.666666666666668</ele><time>2026-04-20T14:58:26Z</time></trkpt><trkpt lat="43.12616576967152" lon="10.547744277974827"><ele>12.0</ele><time>2026-04-20T14:58:27Z</time></trkpt><trkpt lat="43.12597689559927" lon="10.547675921285927"><ele>12.0</ele><time>2026-04-20T14:58:28Z</time></trkpt><trkpt lat="43.125785809343576" lon="10.547611630722646"><ele>12.0</ele><time>2026-04-20T14:58:29Z</time></trkpt><trkpt lat="43.12559229340263" lon="10.547542279637083"><ele>12.0</ele><time>2026-04-20T14:58:30Z</time></trkpt><trkpt lat="43.125400550872705" lon="10.547473532748038"><ele>12.333333333333332</ele><time>2026-04-20T14:58:31Z</time></trkpt><trkpt lat="43.125208118050836" lon="10.547401838093565"><ele>12.666666666666666</ele><time>2026-04-20T14:58:32Z</time></trkpt><trkpt lat="43.12501478883551" lon="10.547326363765906"><ele>13.0</ele><time>2026-04-20T14:58:33Z</time></trkpt><trkpt lat="43.12482432021045" lon="10.547252608067733"><ele>13.0</ele><time>2026-04-20T14:58:34Z</time></trkpt><trkpt lat="43.12463214394573" lon="10.547189028328093"><ele>13.0</ele><time>2026-04-20T14:58:35Z</time></trkpt><trkpt lat="43.12444172891916" lon="10.54712054839366"><ele>13.0</ele><time>2026-04-20T14:58:36Z</time></trkpt><trkpt lat="43.12425609921023" lon="10.547053325850193"><ele>12.666666666666666</ele><time>2026-04-20T14:58:37Z</time></trkpt><trkpt lat="43.12406898761228" lon="10.546986264205827"><ele>12.333333333333332</ele><time>2026-04-20T14:58:38Z</time></trkpt><trkpt lat="43.12388239335456" lon="10.546918491347176"><ele>12.0</ele><time>2026-04-20T14:58:39Z</time></trkpt><trkpt lat="43.12369377844777" lon="10.546854045417687"><ele>12.0</ele><time>2026-04-20T14:58:40Z</time></trkpt><trkpt lat="43.12350890231361" lon="10.546790170020154"><ele>12.0</ele><time>2026-04-20T14:58:41Z</time></trkpt><trkpt lat="43.12332727576624" lon="10.546704495206761"><ele>12.0</ele><time>2026-04-20T14:58:42Z</time></trkpt><trkpt lat="43.12314241882437" lon="10.546637999273969"><ele>12.333333333333332</ele><time>2026-04-20T14:58:43Z</time></trkpt><trkpt lat="43.1229563957006" lon="10.546570750105078"><ele>12.666666666666666</ele><time>2026-04-20T14:58:44Z</time></trkpt><trkpt lat="43.122769945417296" lon="10.546503348183343"><ele>13.0</ele><time>2026-04-20T14:58:45Z</time></trkpt><trkpt lat="43.12258332049857" lon="10.546435881457848"><ele>13.666666666666666</ele><time>2026-04-20T14:58:46Z</time></trkpt><trkpt lat="43.12239618900898" lon="10.54636823160276"><ele>14.333333333333332</ele><time>2026-04-20T14:58:47Z</time></trkpt><trkpt lat="43.12220786399633" lon="10.546300150276567"><ele>15.0</ele><time>2026-04-20T14:58:48Z</time></trkpt><trkpt lat="43.12201981193214" lon="10.546232167624437"><ele>14.0</ele><time>2026-04-20T14:58:49Z</time></trkpt><trkpt lat="43.12183025502678" lon="10.546163640956935"><ele>13.0</ele><time>2026-04-20T14:58:50Z</time></trkpt><trkpt lat="43.1216408877494" lon="10.546095182842246"><ele>12.0</ele><time>2026-04-20T14:58:51Z</time></trkpt><trkpt lat="43.12145241497991" lon="10.546027050526384"><ele>12.0</ele><time>2026-04-20T14:58:52Z</time></trkpt><trkpt lat="43.12127693780824" lon="10.545963625503932"><ele>12.0</ele><time>2026-04-20T14:58:53Z</time></trkpt><trkpt lat="43.121100255604595" lon="10.545899764928066"><ele>12.0</ele><time>2026-04-20T14:58:54Z</time></trkpt><trkpt lat="43.120927728659645" lon="10.545838790881167"><ele>12.0</ele><time>2026-04-20T14:58:55Z</time></trkpt><trkpt lat="43.12075800448215" lon="10.54577977300348"><ele>12.0</ele><time>2026-04-20T14:58:56Z</time></trkpt><trkpt lat="43.12058402536234" lon="10.545746515317475"><ele>12.0</ele><time>2026-04-20T14:58:57Z</time></trkpt><trkpt lat="43.12041390561011" lon="10.5456972449894"><ele>12.0</ele><time>2026-04-20T14:58:58Z</time></trkpt><trkpt lat="43.12023899724083" lon="10.545655105106448"><ele>12.0</ele><time>2026-04-20T14:58:59Z</time></trkpt><trkpt lat="43.12006516812283" lon="10.545620287022862"><ele>12.0</ele><time>2026-04-20T14:59:00Z</time></trkpt><trkpt lat="43.11989412503998" lon="10.545582985490544"><ele>12.25</ele><time>2026-04-20T14:59:01Z</time></trkpt><trkpt lat="43.11974002701332" lon="10.545543131732694"><ele>12.5</ele><time>2026-04-20T14:59:02Z</time></trkpt><trkpt lat="43.11960322516652" lon="10.5455101205261"><ele>12.75</ele><time>2026-04-20T14:59:03Z</time></trkpt><trkpt lat="43.119479379882385" lon="10.545477914965018"><ele>13.0</ele><time>2026-04-20T14:59:04Z</time></trkpt><trkpt lat="43.11936198997842" lon="10.545421139441645"><ele>13.0</ele><time>2026-04-20T14:59:05Z</time></trkpt><trkpt lat="43.11926148800975" lon="10.545338403499176"><ele>13.0</ele><time>2026-04-20T14:59:06Z</time></trkpt><trkpt lat="43.11917959379282" lon="10.545244205023746"><ele>13.0</ele><time>2026-04-20T14:59:07Z</time></trkpt><trkpt lat="43.11910839971634" lon="10.54512907512485"><ele>13.0</ele><time>2026-04-20T14:59:08Z</time></trkpt><trkpt lat="43.119053369289375" lon="10.544996643860946"><ele>13.0</ele><time>2026-04-20T14:59:09Z</time></trkpt><trkpt lat="43.119012411057376" lon="10.54485018104271"><ele>12.75</ele><time>2026-04-20T14:59:10Z</time></trkpt><trkpt lat="43.11898558512216" lon="10.544685787544008"><ele>12.5</ele><time>2026-04-20T14:59:11Z</time></trkpt><trkpt lat="43.11895409847629" lon="10.544517439171601"><ele>12.25</ele><time>2026-04-20T14:59:12Z</time></trkpt><trkpt lat="43.1189220880545" lon="10.544336350702011"><ele>12.0</ele><time>2026-04-20T14:59:13Z</time></trkpt><trkpt lat="43.11888507772564" lon="10.544168355213593"><ele>11.6</ele><time>2026-04-20T14:59:14Z</time></trkpt><trkpt lat="43.118841742589886" lon="10.544019348591554"><ele>11.2</ele><time>2026-04-20T14:59:15Z</time></trkpt><trkpt lat="43.11878308489418" lon="10.543887427438268"><ele>10.8</ele><time>2026-04-20T14:59:16Z</time></trkpt><trkpt lat="43.11871454059627" lon="10.543775725201751"><ele>10.4</ele><time>2026-04-20T14:59:17Z</time></trkpt><trkpt lat="43.11863741916316" lon="10.54368703588195"><ele>10.0</ele><time>2026-04-20T14:59:18Z</time></trkpt><trkpt lat="43.11854514638126" lon="10.5436118305195"><ele>9.5</ele><time>2026-04-20T14:59:19Z</time></trkpt><trkpt lat="43.11844311002761" lon="10.543561483720897"><ele>9.0</ele><time>2026-04-20T14:59:20Z</time></trkpt><trkpt lat="43.11833150923941" lon="10.543511078722005"><ele>8.5</ele><time>2026-04-20T14:59:21Z</time></trkpt><trkpt lat="43.11820234030539" lon="10.543526496362551"><ele>8.0</ele><time>2026-04-20T14:59:22Z</time></trkpt><trkpt lat="43.11806823551941" lon="10.543552281266804"><ele>7.75</ele><time>2026-04-20T14:59:23Z</time></trkpt><trkpt lat="43.11793141923221" lon="10.54358423121908"><ele>7.5</ele><time>2026-04-20T14:59:24Z</time></trkpt><trkpt lat="43.11780668162192" lon="10.543630878305466"><ele>7.25</ele><time>2026-04-20T14:59:25Z</time></trkpt><trkpt lat="43.11768191020046" lon="10.543678909502992"><ele>7.0</ele><time>2026-04-20T14:59:26Z</time></trkpt><trkpt lat="43.117548056581256" lon="10.543736430912762"><ele>7.5</ele><time>2026-04-20T14:59:27Z</time></trkpt><trkpt lat="43.11741028234149" lon="10.543790439658942"><ele>8.0</ele><time>2026-04-20T14:59:28Z</time></trkpt><trkpt lat="43.11728102384563" lon="10.543834676682831"><ele>8.5</ele><time>2026-04-20T14:59:29Z</time></trkpt><trkpt lat="43.117154281594026" lon="10.543881726589618"><ele>9.0</ele><time>2026-04-20T14:59:30Z</time></trkpt><trkpt lat="43.117037155991135" lon="10.543929945630218"><ele>9.0</ele><time>2026-04-20T14:59:31Z</time></trkpt><trkpt lat="43.1169139636853" lon="10.543965411585836"><ele>9.0</ele><time>2026-04-20T14:59:32Z</time></trkpt><trkpt lat="43.11679112549979" lon="10.544002615670214"><ele>9.0</ele><time>2026-04-20T14:59:33Z</time></trkpt><trkpt lat="43.11666689081854" lon="10.544046564079506"><ele>9.0</ele><time>2026-04-20T14:59:34Z</time></trkpt><trkpt lat="43.116536951196714" lon="10.54408617112751"><ele>9.25</ele><time>2026-04-20T14:59:35Z</time></trkpt><trkpt lat="43.11640622997262" lon="10.544111807733062"><ele>9.5</ele><time>2026-04-20T14:59:36Z</time></trkpt><trkpt lat="43.116267759869025" lon="10.54412659003494"><ele>9.75</ele><time>2026-04-20T14:59:37Z</time></trkpt><trkpt lat="43.116124090245094" lon="10.54412240551996"><ele>10.0</ele><time>2026-04-20T14:59:38Z</time></trkpt><trkpt lat="43.11597663404881" lon="10.544092531851454"><ele>10.0</ele><time>2026-04-20T14:59:39Z</time></trkpt><trkpt lat="43.115825444460086" lon="10.54404648263642"><ele>10.0</ele><time>2026-04-20T14:59:40Z</time></trkpt><trkpt lat="43.11567050084309" lon="10.543988739912896"><ele>10.0</ele><time>2026-04-20T14:59:41Z</time></trkpt><trkpt lat="43.115517566951794" lon="10.543933775972873"><ele>10.0</ele><time>2026-04-20T14:59:42Z</time></trkpt><trkpt lat="43.11536158642757" lon="10.543863440358702"><ele>10.0</ele><time>2026-04-20T14:59:43Z</time></trkpt><trkpt lat="43.1152001085427" lon="10.543801584863987"><ele>10.0</ele><time>2026-04-20T14:59:44Z</time></trkpt><trkpt lat="43.115036225610275" lon="10.543744906578876"><ele>9.0</ele><time>2026-04-20T14:59:45Z</time></trkpt><trkpt lat="43.11487100056057" lon="10.543685034739703"><ele>8.0</ele><time>2026-04-20T14:59:46Z</time></trkpt><trkpt lat="43.11470728379516" lon="10.543625074450404"><ele>7.0</ele><time>2026-04-20T14:59:47Z</time></trkpt><trkpt lat="43.11454221437021" lon="10.54356763083935"><ele>7.0</ele><time>2026-04-20T14:59:48Z</time></trkpt><trkpt lat="43.114378570656534" lon="10.543511411514343"><ele>7.0</ele><time>2026-04-20T14:59:49Z</time></trkpt><trkpt lat="43.11421493074285" lon="10.543454472022841"><ele>7.0</ele><time>2026-04-20T14:59:50Z</time></trkpt><trkpt lat="43.11404812242331" lon="10.5433930941767"><ele>6.333333333333334</ele><time>2026-04-20T14:59:51Z</time></trkpt><trkpt lat="43.11387654561868" lon="10.543338979156905"><ele>5.666666666666667</ele><time>2026-04-20T14:59:52Z</time></trkpt><trkpt lat="43.113706024010796" lon="10.543279518977904"><ele>5.0</ele><time>2026-04-20T14:59:53Z</time></trkpt><trkpt lat="43.11353382219037" lon="10.543221926055372"><ele>5.0</ele><time>2026-04-20T14:59:54Z</time></trkpt><trkpt lat="43.11336980470174" lon="10.543159698763908"><ele>5.0</ele><time>2026-04-20T14:59:55Z</time></trkpt><trkpt lat="43.1132133341483" lon="10.543101828618784"><ele>5.0</ele><time>2026-04-20T14:59:56Z</time></trkpt><trkpt lat="43.11305587465973" lon="10.543040416323192"><ele>5.333333333333334</ele><time>2026-04-20T14:59:57Z</time></trkpt><trkpt lat="43.11290355503898" lon="10.542986855383925"><ele>5.666666666666667</ele><time>2026-04-20T14:59:58Z</time></trkpt><trkpt lat="43.1127532151053" lon="10.542931002863613"><ele>6.0</ele><time>2026-04-20T14:59:59Z</time></trkpt><trkpt lat="43.11260320155373" lon="10.542876698279589"><ele>5.333333333333333</ele><time>2026-04-20T15:00:00Z</time></trkpt><trkpt lat="43.11244910961379" lon="10.542823243410572"><ele>4.666666666666666</ele><time>2026-04-20T15:00:01Z</time></trkpt><trkpt lat="43.11229191874634" lon="10.542770740098938"><ele>4.0</ele><time>2026-04-20T15:00:02Z</time></trkpt><trkpt lat="43.112135003818665" lon="10.542716262699438"><ele>4.0</ele><time>2026-04-20T15:00:03Z</time></trkpt><trkpt lat="43.11197467585655" lon="10.54266032455497"><ele>4.0</ele><time>2026-04-20T15:00:04Z</time></trkpt><trkpt lat="43.11181585397934" lon="10.542606891050125"><ele>4.0</ele><time>2026-04-20T15:00:05Z</time></trkpt><trkpt lat="43.11165548375456" lon="10.542549811654782"><ele>5.0</ele><time>2026-04-20T15:00:06Z</time></trkpt><trkpt lat="43.111493775125396" lon="10.542496917802493"><ele>6.0</ele><time>2026-04-20T15:00:07Z</time></trkpt><trkpt lat="43.11132944955418" lon="10.542438883657887"><ele>7.0</ele><time>2026-04-20T15:00:08Z</time></trkpt><trkpt lat="43.11117322761189" lon="10.542385233733118"><ele>7.0</ele><time>2026-04-20T15:00:09Z</time></trkpt><trkpt lat="43.1110365456617" lon="10.54233334120168"><ele>7.0</ele><time>2026-04-20T15:00:10Z</time></trkpt><trkpt lat="43.11091834208359" lon="10.542288065314697"><ele>7.0</ele><time>2026-04-20T15:00:11Z</time></trkpt><trkpt lat="43.11080115523445" lon="10.542250246165894"><ele>7.0</ele><time>2026-04-20T15:00:12Z</time></trkpt><trkpt lat="43.11068928475834" lon="10.54220821605574"><ele>7.0</ele><time>2026-04-20T15:00:13Z</time></trkpt><trkpt lat="43.110575062900516" lon="10.542171349877323"><ele>7.0</ele><time>2026-04-20T15:00:14Z</time></trkpt><trkpt lat="43.110458273543074" lon="10.542131632088159"><ele>7.0</ele><time>2026-04-20T15:00:15Z</time></trkpt><trkpt lat="43.110342382872254" lon="10.542092860693565"><ele>7.0</ele><time>2026-04-20T15:00:16Z</time></trkpt><trkpt lat="43.11022487593115" lon="10.542036777347823"><ele>6.75</ele><time>2026-04-20T15:00:17Z</time></trkpt><trkpt lat="43.11010249113056" lon="10.541999714373729"><ele>6.5</ele><time>2026-04-20T15:00:18Z</time></trkpt><trkpt lat="43.10998773255349" lon="10.54196841309274"><ele>6.25</ele><time>2026-04-20T15:00:19Z</time></trkpt><trkpt lat="43.109873847102804" lon="10.541919191145235"><ele>6.0</ele><time>2026-04-20T15:00:20Z</time></trkpt><trkpt lat="43.10975692044388" lon="10.541880446896943"><ele>6.0</ele><time>2026-04-20T15:00:21Z</time></trkpt><trkpt lat="43.109640740190194" lon="10.54183912480706"><ele>6.0</ele><time>2026-04-20T15:00:22Z</time></trkpt><trkpt lat="43.10952659535139" lon="10.541792256473594"><ele>6.0</ele><time>2026-04-20T15:00:23Z</time></trkpt><trkpt lat="43.10940970993455" lon="10.541745754097505"><ele>6.0</ele><time>2026-04-20T15:00:24Z</time></trkpt><trkpt lat="43.1092954418595" lon="10.54170728801703"><ele>6.0</ele><time>2026-04-20T15:00:25Z</time></trkpt><trkpt lat="43.10918502011003" lon="10.541664221063106"><ele>6.0</ele><time>2026-04-20T15:00:26Z</time></trkpt><trkpt lat="43.109073905435636" lon="10.541623808330181"><ele>6.0</ele><time>2026-04-20T15:00:27Z</time></trkpt><trkpt lat="43.108961943706284" lon="10.541584716046689"><ele>6.0</ele><time>2026-04-20T15:00:28Z</time></trkpt><trkpt lat="43.1088505086096" lon="10.541535124848881"><ele>6.5</ele><time>2026-04-20T15:00:29Z</time></trkpt><trkpt lat="43.108735642293524" lon="10.541498385228033"><ele>7.0</ele><time>2026-04-20T15:00:30Z</time></trkpt><trkpt lat="43.10862163346384" lon="10.541458030287677"><ele>7.5</ele><time>2026-04-20T15:00:31Z</time></trkpt><trkpt lat="43.10851197301042" lon="10.541425075203755"><ele>8.0</ele><time>2026-04-20T15:00:32Z</time></trkpt><trkpt lat="43.10840347400871" lon="10.541393345744822"><ele>8.0</ele><time>2026-04-20T15:00:33Z</time></trkpt><trkpt lat="43.10829895770875" lon="10.541362266989353"><ele>8.0</ele><time>2026-04-20T15:00:34Z</time></trkpt><trkpt lat="43.10820465142245" lon="10.541329635169022"><ele>8.0</ele><time>2026-04-20T15:00:35Z</time></trkpt><trkpt lat="43.10811792405627" lon="10.541298253801363"><ele>8.0</ele><time>2026-04-20T15:00:36Z</time></trkpt><trkpt lat="43.10802216977387" lon="10.54126924880203"><ele>8.0</ele><time>2026-04-20T15:00:37Z</time></trkpt><trkpt lat="43.10791654260939" lon="10.541238266430355"><ele>7.5</ele><time>2026-04-20T15:00:38Z</time></trkpt><trkpt lat="43.10780552595878" lon="10.541181363315083"><ele>7.0</ele><time>2026-04-20T15:00:39Z</time></trkpt><trkpt lat="43.107691220543686" lon="10.541141899577124"><ele>6.5</ele><time>2026-04-20T15:00:40Z</time></trkpt><trkpt lat="43.10757559759887" lon="10.541106592544452"><ele>6.0</ele><time>2026-04-20T15:00:41Z</time></trkpt><trkpt lat="43.107454540126966" lon="10.541068460615296"><ele>5.75</ele><time>2026-04-20T15:00:42Z</time></trkpt><trkpt lat="43.107330550080455" lon="10.541022146072358"><ele>5.5</ele><time>2026-04-20T15:00:43Z</time></trkpt><trkpt lat="43.10720745512707" lon="10.54097754522698"><ele>5.25</ele><time>2026-04-20T15:00:44Z</time></trkpt><trkpt lat="43.10708183700437" lon="10.540937313106534"><ele>5.0</ele><time>2026-04-20T15:00:45Z</time></trkpt><trkpt lat="43.10694974777219" lon="10.540896591832363"><ele>5.0</ele><time>2026-04-20T15:00:46Z</time></trkpt><trkpt lat="43.10682064818367" lon="10.540859058530213"><ele>5.0</ele><time>2026-04-20T15:00:47Z</time></trkpt><trkpt lat="43.10669161587118" lon="10.540825168553614"><ele>5.0</ele><time>2026-04-20T15:00:48Z</time></trkpt><trkpt lat="43.106573425361354" lon="10.540803140117825"><ele>5.0</ele><time>2026-04-20T15:00:49Z</time></trkpt><trkpt lat="43.10645515626618" lon="10.540781012126585"><ele>5.25</ele><time>2026-04-20T15:00:50Z</time></trkpt><trkpt lat="43.106338721807134" lon="10.540762780574358"><ele>5.5</ele><time>2026-04-20T15:00:51Z</time></trkpt><trkpt lat="43.10622072753925" lon="10.540757852526564"><ele>5.75</ele><time>2026-04-20T15:00:52Z</time></trkpt><trkpt lat="43.106103751729236" lon="10.540758021866974"><ele>6.0</ele><time>2026-04-20T15:00:53Z</time></trkpt><trkpt lat="43.1059854353587" lon="10.540763501562541"><ele>6.0</ele><time>2026-04-20T15:00:54Z</time></trkpt><trkpt lat="43.105875293727316" lon="10.540776726076453"><ele>6.0</ele><time>2026-04-20T15:00:55Z</time></trkpt><trkpt lat="43.105763245649754" lon="10.540790122566086"><ele>6.0</ele><time>2026-04-20T15:00:56Z</time></trkpt><trkpt lat="43.105650285641154" lon="10.54080822188636"><ele>6.0</ele><time>2026-04-20T15:00:57Z</time></trkpt><trkpt lat="43.10553847405618" lon="10.540832748647675"><ele>6.199999999999999</ele><time>2026-04-20T15:00:58Z</time></trkpt><trkpt lat="43.105429781552104" lon="10.540869702338613"><ele>6.3999999999999995</ele><time>2026-04-20T15:00:59Z</time></trkpt><trkpt lat="43.10533492556427" lon="10.540913524774723"><ele>6.6</ele><time>2026-04-20T15:01:00Z</time></trkpt><trkpt lat="43.105250889268575" lon="10.54095833190915"><ele>6.8</ele><time>2026-04-20T15:01:01Z</time></trkpt><trkpt lat="43.10518436703934" lon="10.540994194213905"><ele>7.0</ele><time>2026-04-20T15:01:02Z</time></trkpt><trkpt lat="43.10508626704086" lon="10.541000044633481"><ele>7.000000000000001</ele><time>2026-04-20T15:01:04Z</time></trkpt><trkpt lat="43.10498733273593" lon="10.540941263034654"><ele>7.0</ele><time>2026-04-20T15:01:06Z</time></trkpt><trkpt lat="43.104922003622114" lon="10.540943074957948"><ele>7.0</ele><time>2026-04-20T15:01:07Z</time></trkpt><trkpt lat="43.10485433004415" lon="10.540975612282683"><ele>7.0</ele><time>2026-04-20T15:01:08Z</time></trkpt><trkpt lat="43.104786476417985" lon="10.541029822315865"><ele>7.000000000000001</ele><time>2026-04-20T15:01:09Z</time></trkpt><trkpt lat="43.10471820916645" lon="10.541092906648752"><ele>7.0</ele><time>2026-04-20T15:01:10Z</time></trkpt><trkpt lat="43.10464160524856" lon="10.541153004038902"><ele>7.6</ele><time>2026-04-20T15:01:11Z</time></trkpt><trkpt lat="43.10455436293627" lon="10.541199880592574"><ele>8.2</ele><time>2026-04-20T15:01:12Z</time></trkpt><trkpt lat="43.10448057161508" lon="10.541275606316873"><ele>8.8</ele><time>2026-04-20T15:01:13Z</time></trkpt><trkpt lat="43.10438459703442" lon="10.54126674111148"><ele>9.4</ele><time>2026-04-20T15:01:14Z</time></trkpt><trkpt lat="43.10427541556709" lon="10.541283745007071"><ele>10.0</ele><time>2026-04-20T15:01:16Z</time></trkpt><trkpt lat="43.1042173369127" lon="10.541317710015088"><ele>10.333333333333334</ele><time>2026-04-20T15:01:19Z</time></trkpt><trkpt lat="43.10417014911728" lon="10.541392242751966"><ele>10.666666666666668</ele><time>2026-04-20T15:02:11Z</time></trkpt><trkpt lat="43.104097241440975" lon="10.54141269388731"><ele>11.0</ele><time>2026-04-20T15:02:12Z</time></trkpt><trkpt lat="43.10402431133043" lon="10.541462720600911"><ele>11.333333333333334</ele><time>2026-04-20T15:02:13Z</time></trkpt><trkpt lat="43.10392575520322" lon="10.541479186106566"><ele>11.666666666666666</ele><time>2026-04-20T15:02:14Z</time></trkpt><trkpt lat="43.10382330972948" lon="10.541487162550387"><ele>12.0</ele><time>2026-04-20T15:02:15Z</time></trkpt><trkpt lat="43.103714432198565" lon="10.541498653766917"><ele>13.0</ele><time>2026-04-20T15:02:16Z</time></trkpt><trkpt lat="43.10359523030536" lon="10.541515319146209"><ele>14.0</ele><time>2026-04-20T15:02:17Z</time></trkpt><trkpt lat="43.10347246593074" lon="10.54153937800087"><ele>15.0</ele><time>2026-04-20T15:02:18Z</time></trkpt><trkpt lat="43.10334157450651" lon="10.54154764814552"><ele>16.0</ele><time>2026-04-20T15:02:19Z</time></trkpt><trkpt lat="43.10320651791596" lon="10.541542657881658"><ele>17.25</ele><time>2026-04-20T15:02:20Z</time></trkpt><trkpt lat="43.10307373813319" lon="10.541535960802175"><ele>18.5</ele><time>2026-04-20T15:02:21Z</time></trkpt><trkpt lat="43.10293508369342" lon="10.541512201103"><ele>19.75</ele><time>2026-04-20T15:02:22Z</time></trkpt><trkpt lat="43.10279275127806" lon="10.541486161652852"><ele>21.0</ele><time>2026-04-20T15:02:23Z</time></trkpt><trkpt lat="43.10264744688088" lon="10.541451418132638"><ele>21.0</ele><time>2026-04-20T15:02:24Z</time></trkpt><trkpt lat="43.10250459746388" lon="10.541405799585528"><ele>21.0</ele><time>2026-04-20T15:02:25Z</time></trkpt><trkpt lat="43.102358812646436" lon="10.541346943012114"><ele>21.0</ele><time>2026-04-20T15:02:26Z</time></trkpt><trkpt lat="43.102216293675994" lon="10.541282210523226"><ele>21.0</ele><time>2026-04-20T15:02:27Z</time></trkpt><trkpt lat="43.10206918886534" lon="10.54121705942522"><ele>20.333333333333332</ele><time>2026-04-20T15:02:28Z</time></trkpt><trkpt lat="43.101918488826335" lon="10.541145276744944"><ele>19.666666666666664</ele><time>2026-04-20T15:02:29Z</time></trkpt><trkpt lat="43.10176708065907" lon="10.541079212468269"><ele>19.0</ele><time>2026-04-20T15:02:30Z</time></trkpt><trkpt lat="43.10161501857935" lon="10.541006756267269"><ele>20.666666666666664</ele><time>2026-04-20T15:02:31Z</time></trkpt><trkpt lat="43.10145844305081" lon="10.54093856430797"><ele>22.333333333333332</ele><time>2026-04-20T15:02:32Z</time></trkpt><trkpt lat="43.101303862642744" lon="10.540872782574493"><ele>24.0</ele><time>2026-04-20T15:02:33Z</time></trkpt><trkpt lat="43.10116031583281" lon="10.540816754979419"><ele>24.0</ele><time>2026-04-20T15:02:34Z</time></trkpt><trkpt lat="43.10101662335111" lon="10.540770338565771"><ele>24.0</ele><time>2026-04-20T15:02:35Z</time></trkpt><trkpt lat="43.10087664861175" lon="10.540732194802462"><ele>24.0</ele><time>2026-04-20T15:02:36Z</time></trkpt><trkpt lat="43.10074443104777" lon="10.540702358533617"><ele>24.0</ele><time>2026-04-20T15:02:37Z</time></trkpt><trkpt lat="43.10062074057677" lon="10.5406782131794"><ele>24.0</ele><time>2026-04-20T15:02:38Z</time></trkpt><trkpt lat="43.10050829603206" lon="10.540658822161825"><ele>24.0</ele><time>2026-04-20T15:02:39Z</time></trkpt><trkpt lat="43.10041117906256" lon="10.540646118902592"><ele>24.0</ele><time>2026-04-20T15:02:40Z</time></trkpt><trkpt lat="43.10032706735067" lon="10.540639285520436"><ele>24.0</ele><time>2026-04-20T15:02:41Z</time></trkpt><trkpt lat="43.10025517482691" lon="10.540623064367301"><ele>24.0</ele><time>2026-04-20T15:02:42Z</time></trkpt><trkpt lat="43.10019004387732" lon="10.5405850998573"><ele>24.0</ele><time>2026-04-20T15:02:43Z</time></trkpt><trkpt lat="43.10012899746547" lon="10.54053091833501"><ele>24.0</ele><time>2026-04-20T15:02:44Z</time></trkpt><trkpt lat="43.10005397582814" lon="10.540487641803145"><ele>24.0</ele><time>2026-04-20T15:02:45Z</time></trkpt><trkpt lat="43.099964048754074" lon="10.540459261150174"><ele>24.0</ele><time>2026-04-20T15:02:46Z</time></trkpt><trkpt lat="43.09986192519308" lon="10.540456308021396"><ele>24.0</ele><time>2026-04-20T15:02:47Z</time></trkpt><trkpt lat="43.09975855822765" lon="10.540456231440967"><ele>24.0</ele><time>2026-04-20T15:02:48Z</time></trkpt><trkpt lat="43.09966703392508" lon="10.540452959605648"><ele>23.75</ele><time>2026-04-20T15:02:49Z</time></trkpt><trkpt lat="43.09956398879738" lon="10.540448820334126"><ele>23.5</ele><time>2026-04-20T15:02:50Z</time></trkpt><trkpt lat="43.09945215406668" lon="10.540440523063126"><ele>23.25</ele><time>2026-04-20T15:02:51Z</time></trkpt><trkpt lat="43.099326682598175" lon="10.540415995732534"><ele>23.0</ele><time>2026-04-20T15:02:52Z</time></trkpt><trkpt lat="43.09919107195861" lon="10.54039699512054"><ele>21.75</ele><time>2026-04-20T15:02:53Z</time></trkpt><trkpt lat="43.09906094840236" lon="10.540388605691097"><ele>20.5</ele><time>2026-04-20T15:02:54Z</time></trkpt><trkpt lat="43.09893444568724" lon="10.540377063922158"><ele>19.25</ele><time>2026-04-20T15:02:55Z</time></trkpt><trkpt lat="43.09879947463808" lon="10.54036607145561"><ele>18.0</ele><time>2026-04-20T15:02:56Z</time></trkpt><trkpt lat="43.0986578843188" lon="10.540354579251574"><ele>16.0</ele><time>2026-04-20T15:02:57Z</time></trkpt><trkpt lat="43.09851381796356" lon="10.540341609346198"><ele>14.0</ele><time>2026-04-20T15:02:58Z</time></trkpt><trkpt lat="43.098371679485346" lon="10.540330383144259"><ele>12.0</ele><time>2026-04-20T15:02:59Z</time></trkpt><trkpt lat="43.09823776907674" lon="10.540321652545822"><ele>10.0</ele><time>2026-04-20T15:03:00Z</time></trkpt><trkpt lat="43.09810763337602" lon="10.540315748047977"><ele>9.8</ele><time>2026-04-20T15:03:01Z</time></trkpt><trkpt lat="43.09797975041162" lon="10.540305285345664"><ele>9.6</ele><time>2026-04-20T15:03:02Z</time></trkpt><trkpt lat="43.097861096474546" lon="10.540292139671436"><ele>9.4</ele><time>2026-04-20T15:03:03Z</time></trkpt><trkpt lat="43.09775838568854" lon="10.540280622884467"><ele>9.2</ele><time>2026-04-20T15:03:04Z</time></trkpt><trkpt lat="43.09767144590722" lon="10.540267928165903"><ele>9.0</ele><time>2026-04-20T15:03:05Z</time></trkpt><trkpt lat="43.097603445152444" lon="10.540256838456013"><ele>9.0</ele><time>2026-04-20T15:03:06Z</time></trkpt><trkpt lat="43.097497970207584" lon="10.540262501824937"><ele>9.0</ele><time>2026-04-20T15:03:08Z</time></trkpt><trkpt lat="43.097433616355964" lon="10.540289035198535"><ele>9.0</ele><time>2026-04-20T15:03:09Z</time></trkpt><trkpt lat="43.09735099473457" lon="10.540326388860661"><ele>9.0</ele><time>2026-04-20T15:03:10Z</time></trkpt><trkpt lat="43.0972432142689" lon="10.540257859026687"><ele>9.0</ele><time>2026-04-20T15:03:11Z</time></trkpt><trkpt lat="43.097135751653255" lon="10.540266630569802"><ele>9.0</ele><time>2026-04-20T15:03:12Z</time></trkpt><trkpt lat="43.09701775999114" lon="10.540367121081205"><ele>9.0</ele><time>2026-04-20T15:03:13Z</time></trkpt><trkpt lat="43.09689061284728" lon="10.54039769156585"><ele>9.0</ele><time>2026-04-20T15:03:14Z</time></trkpt><trkpt lat="43.09676446074952" lon="10.540435457757797"><ele>9.0</ele><time>2026-04-20T15:03:15Z</time></trkpt><trkpt lat="43.09664386749417" lon="10.540476907831316"><ele>8.75</ele><time>2026-04-20T15:03:16Z</time></trkpt><trkpt lat="43.09651655842338" lon="10.54052920844111"><ele>8.5</ele><time>2026-04-20T15:03:17Z</time></trkpt><trkpt lat="43.096384944883994" lon="10.5405963121468"><ele>8.25</ele><time>2026-04-20T15:03:18Z</time></trkpt><trkpt lat="43.09625516933893" lon="10.540677097183325"><ele>8.0</ele><time>2026-04-20T15:03:19Z</time></trkpt><trkpt lat="43.09613175105551" lon="10.540760426568042"><ele>8.0</ele><time>2026-04-20T15:03:20Z</time></trkpt><trkpt lat="43.09601214020614" lon="10.540840028805203"><ele>8.0</ele><time>2026-04-20T15:03:21Z</time></trkpt><trkpt lat="43.09589655444705" lon="10.540918223944312"><ele>8.0</ele><time>2026-04-20T15:03:22Z</time></trkpt><trkpt lat="43.09577346721405" lon="10.541002272436595"><ele>8.0</ele><time>2026-04-20T15:03:23Z</time></trkpt><trkpt lat="43.09564539117226" lon="10.541085120531704"><ele>8.0</ele><time>2026-04-20T15:03:24Z</time></trkpt><trkpt lat="43.095516635130515" lon="10.541170063667975"><ele>8.0</ele><time>2026-04-20T15:03:25Z</time></trkpt><trkpt lat="43.09538851048533" lon="10.541252305788788"><ele>8.0</ele><time>2026-04-20T15:03:26Z</time></trkpt><trkpt lat="43.0952650767094" lon="10.541330290763812"><ele>8.0</ele><time>2026-04-20T15:03:27Z</time></trkpt><trkpt lat="43.09513760792623" lon="10.54141882625062"><ele>8.0</ele><time>2026-04-20T15:03:28Z</time></trkpt><trkpt lat="43.095005540449414" lon="10.541504681831885"><ele>8.0</ele><time>2026-04-20T15:03:29Z</time></trkpt><trkpt lat="43.0948734766113" lon="10.541591659368523"><ele>8.0</ele><time>2026-04-20T15:03:30Z</time></trkpt><trkpt lat="43.09474221008364" lon="10.541676730515293"><ele>8.0</ele><time>2026-04-20T15:03:31Z</time></trkpt><trkpt lat="43.09461375294507" lon="10.541771519513233"><ele>8.0</ele><time>2026-04-20T15:03:32Z</time></trkpt><trkpt lat="43.094483657543634" lon="10.541864418851318"><ele>8.0</ele><time>2026-04-20T15:03:33Z</time></trkpt><trkpt lat="43.09436293826095" lon="10.541957405284604"><ele>8.0</ele><time>2026-04-20T15:03:34Z</time></trkpt><trkpt lat="43.09424109992471" lon="10.542042481481728"><ele>8.0</ele><time>2026-04-20T15:03:35Z</time></trkpt><trkpt lat="43.09412071620896" lon="10.542127937991268"><ele>8.4</ele><time>2026-04-20T15:03:36Z</time></trkpt><trkpt lat="43.09401127730458" lon="10.54219259840342"><ele>8.8</ele><time>2026-04-20T15:03:37Z</time></trkpt><trkpt lat="43.093922743850214" lon="10.542255745356588"><ele>9.2</ele><time>2026-04-20T15:03:38Z</time></trkpt><trkpt lat="43.09385434557278" lon="10.542302997547472"><ele>9.6</ele><time>2026-04-20T15:03:39Z</time></trkpt><trkpt lat="43.093792971523335" lon="10.542336298429017"><ele>10.0</ele><time>2026-04-20T15:03:40Z</time></trkpt><trkpt lat="43.09371126854344" lon="10.542278983598155"><ele>10.0</ele><time>2026-04-20T15:03:42Z</time></trkpt><trkpt lat="43.09366118304525" lon="10.542105908900815"><ele>10.0</ele><time>2026-04-20T15:03:44Z</time></trkpt><trkpt lat="43.09365256675498" lon="10.541974740341827"><ele>10.0</ele><time>2026-04-20T15:03:45Z</time></trkpt><trkpt lat="43.09365065183918" lon="10.541840215028238"><ele>10.0</ele><time>2026-04-20T15:03:46Z</time></trkpt><trkpt lat="43.09364576871868" lon="10.54167798495529"><ele>10.0</ele><time>2026-04-20T15:03:47Z</time></trkpt><trkpt lat="43.09363850006267" lon="10.54150240112903"><ele>9.75</ele><time>2026-04-20T15:03:48Z</time></trkpt><trkpt lat="43.093634452204974" lon="10.541332892639149"><ele>9.5</ele><time>2026-04-20T15:03:49Z</time></trkpt><trkpt lat="43.09363014180889" lon="10.541163567201773"><ele>9.25</ele><time>2026-04-20T15:03:50Z</time></trkpt><trkpt lat="43.09362278862427" lon="10.540988102431147"><ele>9.0</ele><time>2026-04-20T15:03:51Z</time></trkpt><trkpt lat="43.0936192402" lon="10.540811738937055"><ele>8.5</ele><time>2026-04-20T15:03:52Z</time></trkpt><trkpt lat="43.09361125160875" lon="10.540641138869534"><ele>8.0</ele><time>2026-04-20T15:03:53Z</time></trkpt><trkpt lat="43.093617920067075" lon="10.540477944167565"><ele>7.5</ele><time>2026-04-20T15:03:54Z</time></trkpt><trkpt lat="43.09361146194924" lon="10.54031169590832"><ele>7.0</ele><time>2026-04-20T15:03:55Z</time></trkpt><trkpt lat="43.09360564228295" lon="10.540144960196432"><ele>6.833333333333334</ele><time>2026-04-20T15:03:56Z</time></trkpt><trkpt lat="43.09360416324173" lon="10.540001770018284"><ele>6.666666666666667</ele><time>2026-04-20T15:03:57Z</time></trkpt><trkpt lat="43.0936099300311" lon="10.53988394611089"><ele>6.5</ele><time>2026-04-20T15:03:58Z</time></trkpt><trkpt lat="43.09360097751953" lon="10.539789046326003"><ele>6.333333333333334</ele><time>2026-04-20T15:03:59Z</time></trkpt><trkpt lat="43.09362721199352" lon="10.539699403579935"><ele>6.166666666666667</ele><time>2026-04-20T15:04:00Z</time></trkpt><trkpt lat="43.09365435169202" lon="10.539616788033067"><ele>6.0</ele><time>2026-04-20T15:04:01Z</time></trkpt><trkpt lat="43.09370189146114" lon="10.539535921625998"><ele>6.0</ele><time>2026-04-20T15:04:03Z</time></trkpt><trkpt lat="43.09361214149514" lon="10.539445119203767"><ele>6.0</ele><time>2026-04-20T15:04:04Z</time></trkpt><trkpt lat="43.09354872329824" lon="10.539420708402194"><ele>6.0</ele><time>2026-04-20T15:04:05Z</time></trkpt><trkpt lat="43.09347412719287" lon="10.539430716816598"><ele>6.0</ele><time>2026-04-20T15:04:06Z</time></trkpt><trkpt lat="43.093394549469764" lon="10.539440144879377"><ele>6.0</ele><time>2026-04-20T15:04:07Z</time></trkpt><trkpt lat="43.09331702933292" lon="10.539451709318508"><ele>6.0</ele><time>2026-04-20T15:04:08Z</time></trkpt><trkpt lat="43.09324267206874" lon="10.539502329798237"><ele>5.8</ele><time>2026-04-20T15:04:09Z</time></trkpt><trkpt lat="43.09313612183746" lon="10.539476196325692"><ele>5.6</ele><time>2026-04-20T15:04:10Z</time></trkpt><trkpt lat="43.0930353781942" lon="10.539488051677742"><ele>5.4</ele><time>2026-04-20T15:04:11Z</time></trkpt><trkpt lat="43.09294238553964" lon="10.539496869656045"><ele>5.2</ele><time>2026-04-20T15:04:12Z</time></trkpt><trkpt lat="43.09285774443423" lon="10.53950595798784"><ele>5.0</ele><time>2026-04-20T15:04:13Z</time></trkpt><trkpt lat="43.09277651396693" lon="10.53951412708658"><ele>5.0</ele><time>2026-04-20T15:04:14Z</time></trkpt><trkpt lat="43.0926954015222" lon="10.539519714394398"><ele>5.0</ele><time>2026-04-20T15:04:15Z</time></trkpt><trkpt lat="43.0926063462389" lon="10.539531662348846"><ele>5.0</ele><time>2026-04-20T15:04:16Z</time></trkpt><trkpt lat="43.09252648600315" lon="10.53954477082391"><ele>5.0</ele><time>2026-04-20T15:04:17Z</time></trkpt><trkpt lat="43.09245291535008" lon="10.539544554000928"><ele>5.0</ele><time>2026-04-20T15:04:18Z</time></trkpt><trkpt lat="43.092381510717715" lon="10.53954957608398"><ele>5.0</ele><time>2026-04-20T15:04:19Z</time></trkpt><trkpt lat="43.092304712703886" lon="10.539562822820919"><ele>5.2</ele><time>2026-04-20T15:04:20Z</time></trkpt><trkpt lat="43.09220864019846" lon="10.539583770474879"><ele>5.4</ele><time>2026-04-20T15:04:22Z</time></trkpt><trkpt lat="43.092117711870884" lon="10.53957450466507"><ele>5.6</ele><time>2026-04-20T15:04:25Z</time></trkpt><trkpt lat="43.092038126473476" lon="10.539576166255669"><ele>5.8</ele><time>2026-04-20T15:04:28Z</time></trkpt><trkpt lat="43.0919629815405" lon="10.539593952970336"><ele>6.0</ele><time>2026-04-20T15:04:36Z</time></trkpt><trkpt lat="43.09185039452477" lon="10.539607047007703"><ele>6.0</ele><time>2026-04-20T15:04:38Z</time></trkpt><trkpt lat="43.09174834845286" lon="10.539628267050444"><ele>6.0</ele><time>2026-04-20T15:04:40Z</time></trkpt><trkpt lat="43.091665878777334" lon="10.539634198130452"><ele>6.0</ele><time>2026-04-20T15:04:42Z</time></trkpt><trkpt lat="43.09156451518045" lon="10.53964187829455"><ele>6.0</ele><time>2026-04-20T15:04:44Z</time></trkpt><trkpt lat="43.09149969253382" lon="10.539649199910397"><ele>6.0</ele><time>2026-04-20T15:04:45Z</time></trkpt><trkpt lat="43.091426191985434" lon="10.539658130837608"><ele>6.0</ele><time>2026-04-20T15:04:46Z</time></trkpt><trkpt lat="43.09134599063769" lon="10.539662850545131"><ele>6.199999999999999</ele><time>2026-04-20T15:04:47Z</time></trkpt><trkpt lat="43.09125913651714" lon="10.539669257554646"><ele>6.3999999999999995</ele><time>2026-04-20T15:04:48Z</time></trkpt><trkpt lat="43.091164316610985" lon="10.539681607680556"><ele>6.6</ele><time>2026-04-20T15:04:49Z</time></trkpt><trkpt lat="43.091072905087984" lon="10.539692523508851"><ele>6.8</ele><time>2026-04-20T15:04:50Z</time></trkpt><trkpt lat="43.09098698771067" lon="10.539704631845256"><ele>7.0</ele><time>2026-04-20T15:04:51Z</time></trkpt><trkpt lat="43.090896252016144" lon="10.539719442954992"><ele>7.0</ele><time>2026-04-20T15:04:52Z</time></trkpt><trkpt lat="43.09080067881807" lon="10.539732353182803"><ele>6.999999999999999</ele><time>2026-04-20T15:04:53Z</time></trkpt><trkpt lat="43.09072458908806" lon="10.539739985594686"><ele>6.999999999999999</ele><time>2026-04-20T15:04:54Z</time></trkpt><trkpt lat="43.09061899602556" lon="10.539748091372326"><ele>7.0</ele><time>2026-04-20T15:04:56Z</time></trkpt><trkpt lat="43.09050299595202" lon="10.539762850835809"><ele>7.0</ele><time>2026-04-20T15:04:58Z</time></trkpt><trkpt lat="43.09042512051863" lon="10.53977120471611"><ele>7.3999999999999995</ele><time>2026-04-20T15:04:59Z</time></trkpt><trkpt lat="43.09034198848725" lon="10.539779249647111"><ele>7.799999999999999</ele><time>2026-04-20T15:05:00Z</time></trkpt><trkpt lat="43.090249811669494" lon="10.539790332436311"><ele>8.2</ele><time>2026-04-20T15:05:01Z</time></trkpt><trkpt lat="43.090145001828304" lon="10.539802539665754"><ele>8.6</ele><time>2026-04-20T15:05:02Z</time></trkpt><trkpt lat="43.09003798402493" lon="10.539817973340853"><ele>9.0</ele><time>2026-04-20T15:05:03Z</time></trkpt><trkpt lat="43.08994204759638" lon="10.5398309839958"><ele>9.0</ele><time>2026-04-20T15:05:04Z</time></trkpt><trkpt lat="43.089847537563216" lon="10.53984669841518"><ele>9.0</ele><time>2026-04-20T15:05:05Z</time></trkpt><trkpt lat="43.08974196947815" lon="10.53985707482846"><ele>9.0</ele><time>2026-04-20T15:05:06Z</time></trkpt><trkpt lat="43.089649459718245" lon="10.539865679843702"><ele>9.0</ele><time>2026-04-20T15:05:07Z</time></trkpt><trkpt lat="43.089574895227955" lon="10.53987453250143"><ele>9.0</ele><time>2026-04-20T15:05:08Z</time></trkpt><trkpt lat="43.08946844385338" lon="10.539877300531264"><ele>9.0</ele><time>2026-04-20T15:05:10Z</time></trkpt><trkpt lat="43.089351829192864" lon="10.53988865810503"><ele>9.0</ele><time>2026-04-20T15:05:12Z</time></trkpt><trkpt lat="43.08927147414939" lon="10.539901278956501"><ele>9.0</ele><time>2026-04-20T15:05:13Z</time></trkpt><trkpt lat="43.08918240023734" lon="10.53991507643651"><ele>9.0</ele><time>2026-04-20T15:05:14Z</time></trkpt><trkpt lat="43.08909648943692" lon="10.539925780194057"><ele>9.0</ele><time>2026-04-20T15:05:15Z</time></trkpt><trkpt lat="43.08899404828952" lon="10.53993449527277"><ele>8.5</ele><time>2026-04-20T15:05:16Z</time></trkpt><trkpt lat="43.08887827226344" lon="10.539939474082137"><ele>8.0</ele><time>2026-04-20T15:05:17Z</time></trkpt><trkpt lat="43.08876236538869" lon="10.539946717516548"><ele>7.5</ele><time>2026-04-20T15:05:18Z</time></trkpt><trkpt lat="43.08864671721073" lon="10.539951120655594"><ele>7.0</ele><time>2026-04-20T15:05:19Z</time></trkpt><trkpt lat="43.08853121954889" lon="10.539954787531236"><ele>7.0</ele><time>2026-04-20T15:05:20Z</time></trkpt><trkpt lat="43.088419966583146" lon="10.539953235021994"><ele>6.999999999999999</ele><time>2026-04-20T15:05:21Z</time></trkpt><trkpt lat="43.088314283909384" lon="10.539950209697963"><ele>6.999999999999999</ele><time>2026-04-20T15:05:22Z</time></trkpt><trkpt lat="43.08820856249705" lon="10.53994374770974"><ele>7.0</ele><time>2026-04-20T15:05:23Z</time></trkpt><trkpt lat="43.08810713920057" lon="10.539939396956896"><ele>7.0</ele><time>2026-04-20T15:05:24Z</time></trkpt><trkpt lat="43.08800231105182" lon="10.539934194853148"><ele>7.3999999999999995</ele><time>2026-04-20T15:05:25Z</time></trkpt><trkpt lat="43.08788823504344" lon="10.539930194565775"><ele>7.799999999999999</ele><time>2026-04-20T15:05:26Z</time></trkpt><trkpt lat="43.087782943206875" lon="10.539921040354828"><ele>8.2</ele><time>2026-04-20T15:05:27Z</time></trkpt><trkpt lat="43.0877062170596" lon="10.53990883204391"><ele>8.6</ele><time>2026-04-20T15:05:28Z</time></trkpt><trkpt lat="43.08759065775146" lon="10.539892379080161"><ele>9.0</ele><time>2026-04-20T15:05:30Z</time></trkpt><trkpt lat="43.08751803601024" lon="10.539888062807554"><ele>9.0</ele><time>2026-04-20T15:05:31Z</time></trkpt><trkpt lat="43.08743596378569" lon="10.539883309990836"><ele>9.0</ele><time>2026-04-20T15:05:32Z</time></trkpt><trkpt lat="43.087340363755054" lon="10.539875395395399"><ele>9.0</ele><time>2026-04-20T15:05:33Z</time></trkpt><trkpt lat="43.0872406624162" lon="10.539861597319492"><ele>9.0</ele><time>2026-04-20T15:05:34Z</time></trkpt><trkpt lat="43.08714033661075" lon="10.539847137591558"><ele>9.0</ele><time>2026-04-20T15:05:35Z</time></trkpt><trkpt lat="43.087050977604136" lon="10.539832771181272"><ele>9.0</ele><time>2026-04-20T15:05:36Z</time></trkpt><trkpt lat="43.086959353550455" lon="10.53982030727963"><ele>9.0</ele><time>2026-04-20T15:05:37Z</time></trkpt><trkpt lat="43.086862908222564" lon="10.539806249752617"><ele>9.0</ele><time>2026-04-20T15:05:38Z</time></trkpt><trkpt lat="43.08675755889558" lon="10.539780858873375"><ele>9.0</ele><time>2026-04-20T15:05:39Z</time></trkpt><trkpt lat="43.08666031533053" lon="10.539768686508516"><ele>9.0</ele><time>2026-04-20T15:05:40Z</time></trkpt><trkpt lat="43.086559027818666" lon="10.539755618237349"><ele>8.8</ele><time>2026-04-20T15:05:41Z</time></trkpt><trkpt lat="43.08645462826295" lon="10.53973800600337"><ele>8.600000000000001</ele><time>2026-04-20T15:05:42Z</time></trkpt><trkpt lat="43.08634793304001" lon="10.539725063832146"><ele>8.4</ele><time>2026-04-20T15:05:43Z</time></trkpt><trkpt lat="43.086241405683985" lon="10.539713044949556"><ele>8.200000000000001</ele><time>2026-04-20T15:05:44Z</time></trkpt><trkpt lat="43.086140479213924" lon="10.539701649678106"><ele>8.0</ele><time>2026-04-20T15:05:45Z</time></trkpt><trkpt lat="43.0860400886349" lon="10.539689874425946"><ele>8.0</ele><time>2026-04-20T15:05:46Z</time></trkpt><trkpt lat="43.08593200831165" lon="10.539675936444233"><ele>8.0</ele><time>2026-04-20T15:05:47Z</time></trkpt><trkpt lat="43.08582161849085" lon="10.539660382195063"><ele>8.0</ele><time>2026-04-20T15:05:48Z</time></trkpt><trkpt lat="43.08570638893554" lon="10.53964205861044"><ele>8.0</ele><time>2026-04-20T15:05:49Z</time></trkpt><trkpt lat="43.085598388504046" lon="10.539627200764883"><ele>8.0</ele><time>2026-04-20T15:05:50Z</time></trkpt><trkpt lat="43.08549787574507" lon="10.539612409665919"><ele>8.0</ele><time>2026-04-20T15:05:51Z</time></trkpt><trkpt lat="43.08540080560202" lon="10.539597727065157"><ele>8.0</ele><time>2026-04-20T15:05:52Z</time></trkpt><trkpt lat="43.08530195158331" lon="10.539587773281614"><ele>8.0</ele><time>2026-04-20T15:05:53Z</time></trkpt><trkpt lat="43.08519989707088" lon="10.539576184747077"><ele>8.0</ele><time>2026-04-20T15:05:54Z</time></trkpt><trkpt lat="43.08509619571386" lon="10.539567247194528"><ele>8.0</ele><time>2026-04-20T15:05:55Z</time></trkpt><trkpt lat="43.08498588236903" lon="10.539552946326133"><ele>7.75</ele><time>2026-04-20T15:05:56Z</time></trkpt><trkpt lat="43.08487318446761" lon="10.539539518899746"><ele>7.5</ele><time>2026-04-20T15:05:57Z</time></trkpt><trkpt lat="43.08475317272542" lon="10.539518390705664"><ele>7.25</ele><time>2026-04-20T15:05:58Z</time></trkpt><trkpt lat="43.08463724457785" lon="10.539499237010986"><ele>7.0</ele><time>2026-04-20T15:05:59Z</time></trkpt><trkpt lat="43.08452707593281" lon="10.539484164459788"><ele>7.0</ele><time>2026-04-20T15:06:00Z</time></trkpt><trkpt lat="43.08441889533498" lon="10.53947510067648"><ele>6.999999999999999</ele><time>2026-04-20T15:06:01Z</time></trkpt><trkpt lat="43.08430570609589" lon="10.539456080659825"><ele>6.999999999999999</ele><time>2026-04-20T15:06:02Z</time></trkpt><trkpt lat="43.08420436405122" lon="10.5394425508282"><ele>7.0</ele><time>2026-04-20T15:06:03Z</time></trkpt><trkpt lat="43.08409509366557" lon="10.539423876021235"><ele>7.0</ele><time>2026-04-20T15:06:04Z</time></trkpt><trkpt lat="43.08398401611221" lon="10.539407776796269"><ele>7.25</ele><time>2026-04-20T15:06:05Z</time></trkpt><trkpt lat="43.08387205953014" lon="10.539395222464034"><ele>7.5</ele><time>2026-04-20T15:06:06Z</time></trkpt><trkpt lat="43.08375344275796" lon="10.539379674603856"><ele>7.75</ele><time>2026-04-20T15:06:07Z</time></trkpt><trkpt lat="43.08363326268313" lon="10.539362834446905"><ele>8.0</ele><time>2026-04-20T15:06:08Z</time></trkpt><trkpt lat="43.083517062504924" lon="10.539346536362512"><ele>8.0</ele><time>2026-04-20T15:06:09Z</time></trkpt><trkpt lat="43.083405644382225" lon="10.5393294257606"><ele>8.0</ele><time>2026-04-20T15:06:10Z</time></trkpt><trkpt lat="43.083295541596286" lon="10.539316203320311"><ele>8.0</ele><time>2026-04-20T15:06:11Z</time></trkpt><trkpt lat="43.083184240329366" lon="10.539299241199194"><ele>8.0</ele><time>2026-04-20T15:06:12Z</time></trkpt><trkpt lat="43.08307271977094" lon="10.539284834740949"><ele>8.0</ele><time>2026-04-20T15:06:13Z</time></trkpt><trkpt lat="43.08295677190876" lon="10.539267438908954"><ele>8.200000000000001</ele><time>2026-04-20T15:06:14Z</time></trkpt><trkpt lat="43.0828441915307" lon="10.539250463862826"><ele>8.4</ele><time>2026-04-20T15:06:15Z</time></trkpt><trkpt lat="43.08273488352911" lon="10.53923613219543"><ele>8.600000000000001</ele><time>2026-04-20T15:06:16Z</time></trkpt><trkpt lat="43.08262951273316" lon="10.53921955187245"><ele>8.8</ele><time>2026-04-20T15:06:17Z</time></trkpt><trkpt lat="43.0825284043654" lon="10.539204322292914"><ele>9.0</ele><time>2026-04-20T15:06:18Z</time></trkpt><trkpt lat="43.082429659592606" lon="10.539188817224428"><ele>9.2</ele><time>2026-04-20T15:06:19Z</time></trkpt><trkpt lat="43.082326245087195" lon="10.539177807757058"><ele>9.4</ele><time>2026-04-20T15:06:20Z</time></trkpt><trkpt lat="43.08221743639975" lon="10.539163909981731"><ele>9.6</ele><time>2026-04-20T15:06:21Z</time></trkpt><trkpt lat="43.08210558616116" lon="10.539154170310509"><ele>9.8</ele><time>2026-04-20T15:06:22Z</time></trkpt><trkpt lat="43.08199661122454" lon="10.539139729372494"><ele>10.0</ele><time>2026-04-20T15:06:23Z</time></trkpt><trkpt lat="43.08188744346337" lon="10.539122422218059"><ele>10.0</ele><time>2026-04-20T15:06:24Z</time></trkpt><trkpt lat="43.081770579674604" lon="10.539107018582076"><ele>10.0</ele><time>2026-04-20T15:06:25Z</time></trkpt><trkpt lat="43.08166613131321" lon="10.539088588642906"><ele>10.0</ele><time>2026-04-20T15:06:26Z</time></trkpt><trkpt lat="43.08156741766887" lon="10.53907524616718"><ele>10.0</ele><time>2026-04-20T15:06:27Z</time></trkpt><trkpt lat="43.08146654878581" lon="10.539060169011305"><ele>10.0</ele><time>2026-04-20T15:06:28Z</time></trkpt><trkpt lat="43.0813620183927" lon="10.53904672758872"><ele>10.0</ele><time>2026-04-20T15:06:29Z</time></trkpt><trkpt lat="43.08125378702354" lon="10.539043229292988"><ele>10.0</ele><time>2026-04-20T15:06:30Z</time></trkpt><trkpt lat="43.081150844191676" lon="10.539029414397255"><ele>10.0</ele><time>2026-04-20T15:06:31Z</time></trkpt><trkpt lat="43.08104373013575" lon="10.539012434795852"><ele>10.0</ele><time>2026-04-20T15:06:32Z</time></trkpt><trkpt lat="43.080929428188256" lon="10.53899142370434"><ele>10.0</ele><time>2026-04-20T15:06:33Z</time></trkpt><trkpt lat="43.08081484880627" lon="10.538976223912913"><ele>9.75</ele><time>2026-04-20T15:06:34Z</time></trkpt><trkpt lat="43.080707874620494" lon="10.538963629887355"><ele>9.5</ele><time>2026-04-20T15:06:35Z</time></trkpt><trkpt lat="43.08059517613547" lon="10.538950193078806"><ele>9.25</ele><time>2026-04-20T15:06:36Z</time></trkpt><trkpt lat="43.08047831876102" lon="10.538930359271221"><ele>9.0</ele><time>2026-04-20T15:06:37Z</time></trkpt><trkpt lat="43.0803513646701" lon="10.538911174937713"><ele>9.0</ele><time>2026-04-20T15:06:38Z</time></trkpt><trkpt lat="43.08022752816597" lon="10.538891879319465"><ele>9.0</ele><time>2026-04-20T15:06:39Z</time></trkpt><trkpt lat="43.0801082537638" lon="10.53887876406355"><ele>9.0</ele><time>2026-04-20T15:06:40Z</time></trkpt><trkpt lat="43.07998567152253" lon="10.538864855343494"><ele>9.0</ele><time>2026-04-20T15:06:41Z</time></trkpt><trkpt lat="43.07987055059313" lon="10.538852359260629"><ele>9.25</ele><time>2026-04-20T15:06:42Z</time></trkpt><trkpt lat="43.079752808201725" lon="10.538836886499142"><ele>9.5</ele><time>2026-04-20T15:06:43Z</time></trkpt><trkpt lat="43.079623875108375" lon="10.53880122752281"><ele>9.75</ele><time>2026-04-20T15:06:44Z</time></trkpt><trkpt lat="43.07948379457396" lon="10.538781901850463"><ele>10.0</ele><time>2026-04-20T15:06:45Z</time></trkpt><trkpt lat="43.07933665976342" lon="10.538761601187321"><ele>10.0</ele><time>2026-04-20T15:06:46Z</time></trkpt><trkpt lat="43.079184547014755" lon="10.538740613686372"><ele>10.0</ele><time>2026-04-20T15:06:47Z</time></trkpt><trkpt lat="43.07902528346832" lon="10.538718639586827"><ele>10.0</ele><time>2026-04-20T15:06:48Z</time></trkpt><trkpt lat="43.07885850677871" lon="10.538712234418526"><ele>11.0</ele><time>2026-04-20T15:06:49Z</time></trkpt><trkpt lat="43.078689489951756" lon="10.5386746357453"><ele>12.0</ele><time>2026-04-20T15:06:50Z</time></trkpt><trkpt lat="43.078517868511895" lon="10.538656103510831"><ele>13.0</ele><time>2026-04-20T15:06:51Z</time></trkpt><trkpt lat="43.0783443646621" lon="10.538630105372846"><ele>13.0</ele><time>2026-04-20T15:06:52Z</time></trkpt><trkpt lat="43.07817140328115" lon="10.538598617847914"><ele>13.0</ele><time>2026-04-20T15:06:53Z</time></trkpt><trkpt lat="43.077998592005805" lon="10.538570372341228"><ele>13.0</ele><time>2026-04-20T15:06:54Z</time></trkpt><trkpt lat="43.07782264590497" lon="10.538548252241798"><ele>13.0</ele><time>2026-04-20T15:06:55Z</time></trkpt><trkpt lat="43.07764661318369" lon="10.53852808757211"><ele>13.0</ele><time>2026-04-20T15:06:56Z</time></trkpt><trkpt lat="43.07746812773306" lon="10.538503908056557"><ele>13.0</ele><time>2026-04-20T15:06:57Z</time></trkpt><trkpt lat="43.077288262331614" lon="10.53847966835583"><ele>12.0</ele><time>2026-04-20T15:06:58Z</time></trkpt><trkpt lat="43.07710610357447" lon="10.538453913466679"><ele>11.0</ele><time>2026-04-20T15:06:59Z</time></trkpt><trkpt lat="43.07692236987099" lon="10.53842464635215"><ele>10.0</ele><time>2026-04-20T15:07:00Z</time></trkpt><trkpt lat="43.07673870073438" lon="10.538401104645734"><ele>9.666666666666668</ele><time>2026-04-20T15:07:01Z</time></trkpt><trkpt lat="43.076554464449096" lon="10.538380522968996"><ele>9.333333333333334</ele><time>2026-04-20T15:07:02Z</time></trkpt><trkpt lat="43.07637243992239" lon="10.538358272706942"><ele>9.0</ele><time>2026-04-20T15:07:03Z</time></trkpt><trkpt lat="43.076193466232205" lon="10.538332882929517"><ele>9.0</ele><time>2026-04-20T15:07:04Z</time></trkpt><trkpt lat="43.07601307970145" lon="10.538306145329157"><ele>9.0</ele><time>2026-04-20T15:07:05Z</time></trkpt><trkpt lat="43.07583135841226" lon="10.538285085783608"><ele>9.0</ele><time>2026-04-20T15:07:06Z</time></trkpt><trkpt lat="43.07565606887658" lon="10.538263413750018"><ele>8.666666666666666</ele><time>2026-04-20T15:07:07Z</time></trkpt><trkpt lat="43.07547804598471" lon="10.53823587525316"><ele>8.333333333333332</ele><time>2026-04-20T15:07:08Z</time></trkpt><trkpt lat="43.075296726764236" lon="10.538209825223495"><ele>8.0</ele><time>2026-04-20T15:07:09Z</time></trkpt><trkpt lat="43.075114523753314" lon="10.538185621516075"><ele>7.666666666666666</ele><time>2026-04-20T15:07:10Z</time></trkpt><trkpt lat="43.07492975010645" lon="10.538165441502825"><ele>7.333333333333334</ele><time>2026-04-20T15:07:11Z</time></trkpt><trkpt lat="43.07474579962405" lon="10.538138845766683"><ele>7.0</ele><time>2026-04-20T15:07:12Z</time></trkpt><trkpt lat="43.07456127267718" lon="10.53811196013184"><ele>7.0</ele><time>2026-04-20T15:07:13Z</time></trkpt><trkpt lat="43.07437447246463" lon="10.538084677290621"><ele>7.0</ele><time>2026-04-20T15:07:14Z</time></trkpt><trkpt lat="43.0741921712588" lon="10.538058692352603"><ele>7.0</ele><time>2026-04-20T15:07:15Z</time></trkpt><trkpt lat="43.0740162035254" lon="10.53803289210524"><ele>7.333333333333334</ele><time>2026-04-20T15:07:16Z</time></trkpt><trkpt lat="43.07383578133795" lon="10.538007140687903"><ele>7.666666666666666</ele><time>2026-04-20T15:07:17Z</time></trkpt><trkpt lat="43.07365074579035" lon="10.537978241927451"><ele>8.0</ele><time>2026-04-20T15:07:18Z</time></trkpt><trkpt lat="43.0734657932673" lon="10.537951248977395"><ele>8.0</ele><time>2026-04-20T15:07:19Z</time></trkpt><trkpt lat="43.073277431669375" lon="10.537927047959684"><ele>8.0</ele><time>2026-04-20T15:07:20Z</time></trkpt><trkpt lat="43.07309048570843" lon="10.53789848252679"><ele>8.0</ele><time>2026-04-20T15:07:21Z</time></trkpt><trkpt lat="43.0729017198626" lon="10.537874428012467"><ele>8.666666666666666</ele><time>2026-04-20T15:07:22Z</time></trkpt><trkpt lat="43.07270977094917" lon="10.537850286775434"><ele>9.333333333333334</ele><time>2026-04-20T15:07:23Z</time></trkpt><trkpt lat="43.072518253575915" lon="10.53782228833308"><ele>10.0</ele><time>2026-04-20T15:07:24Z</time></trkpt><trkpt lat="43.07232851361737" lon="10.537797264087473"><ele>10.333333333333334</ele><time>2026-04-20T15:07:25Z</time></trkpt><trkpt lat="43.07213148680535" lon="10.537771065630103"><ele>10.666666666666666</ele><time>2026-04-20T15:07:26Z</time></trkpt><trkpt lat="43.07193625017758" lon="10.537741842379718"><ele>11.0</ele><time>2026-04-20T15:07:27Z</time></trkpt><trkpt lat="43.07174230281426" lon="10.53771232228324"><ele>10.666666666666666</ele><time>2026-04-20T15:07:28Z</time></trkpt><trkpt lat="43.07154551554284" lon="10.537686034654111"><ele>10.333333333333334</ele><time>2026-04-20T15:07:29Z</time></trkpt><trkpt lat="43.071346595887405" lon="10.537660855662386"><ele>10.0</ele><time>2026-04-20T15:07:30Z</time></trkpt><trkpt lat="43.07114744272626" lon="10.537630896582883"><ele>10.0</ele><time>2026-04-20T15:07:31Z</time></trkpt><trkpt lat="43.07094827826828" lon="10.537604725947356"><ele>10.0</ele><time>2026-04-20T15:07:32Z</time></trkpt><trkpt lat="43.070746361040875" lon="10.53757922972626"><ele>10.0</ele><time>2026-04-20T15:07:33Z</time></trkpt><trkpt lat="43.070548198770226" lon="10.537547609969813"><ele>10.333333333333334</ele><time>2026-04-20T15:07:34Z</time></trkpt><trkpt lat="43.07034916317263" lon="10.537521817785242"><ele>10.666666666666666</ele><time>2026-04-20T15:07:35Z</time></trkpt><trkpt lat="43.070149174972414" lon="10.537496116842302"><ele>11.0</ele><time>2026-04-20T15:07:36Z</time></trkpt><trkpt lat="43.06994539152054" lon="10.537470792081379"><ele>11.333333333333332</ele><time>2026-04-20T15:07:37Z</time></trkpt><trkpt lat="43.06974255987477" lon="10.537443907735732"><ele>11.666666666666666</ele><time>2026-04-20T15:07:38Z</time></trkpt><trkpt lat="43.06954216169465" lon="10.537414685097918"><ele>12.0</ele><time>2026-04-20T15:07:39Z</time></trkpt><trkpt lat="43.06934415212224" lon="10.537383901139355"><ele>12.0</ele><time>2026-04-20T15:07:40Z</time></trkpt><trkpt lat="43.06914407283769" lon="10.537356103637338"><ele>12.0</ele><time>2026-04-20T15:07:41Z</time></trkpt><trkpt lat="43.068946323925466" lon="10.53732619455886"><ele>12.0</ele><time>2026-04-20T15:07:42Z</time></trkpt><trkpt lat="43.06874466423752" lon="10.537302869413038"><ele>12.0</ele><time>2026-04-20T15:07:43Z</time></trkpt><trkpt lat="43.068540578447795" lon="10.537271491474652"><ele>12.0</ele><time>2026-04-20T15:07:44Z</time></trkpt><trkpt lat="43.06833176215237" lon="10.53724808796954"><ele>12.0</ele><time>2026-04-20T15:07:45Z</time></trkpt><trkpt lat="43.06812478187934" lon="10.537219941087322"><ele>12.0</ele><time>2026-04-20T15:07:46Z</time></trkpt><trkpt lat="43.067917866124105" lon="10.53719261278499"><ele>12.0</ele><time>2026-04-20T15:07:47Z</time></trkpt><trkpt lat="43.06771103144736" lon="10.537162825924355"><ele>12.0</ele><time>2026-04-20T15:07:48Z</time></trkpt><trkpt lat="43.06750528637613" lon="10.537134837648425"><ele>12.0</ele><time>2026-04-20T15:07:49Z</time></trkpt><trkpt lat="43.06730286744101" lon="10.537107786758142"><ele>12.0</ele><time>2026-04-20T15:07:50Z</time></trkpt><trkpt lat="43.06709843057764" lon="10.537080429090175"><ele>12.0</ele><time>2026-04-20T15:07:51Z</time></trkpt><trkpt lat="43.06689372493701" lon="10.537051995752014"><ele>12.0</ele><time>2026-04-20T15:07:52Z</time></trkpt><trkpt lat="43.06668811917544" lon="10.537024596739416"><ele>12.0</ele><time>2026-04-20T15:07:53Z</time></trkpt><trkpt lat="43.06648939565256" lon="10.537001046348747"><ele>12.0</ele><time>2026-04-20T15:07:54Z</time></trkpt><trkpt lat="43.06629644562817" lon="10.536977580036249"><ele>12.0</ele><time>2026-04-20T15:07:55Z</time></trkpt><trkpt lat="43.06610157430864" lon="10.53694692231385"><ele>12.0</ele><time>2026-04-20T15:07:56Z</time></trkpt><trkpt lat="43.06590810833266" lon="10.536921740878164"><ele>12.0</ele><time>2026-04-20T15:07:57Z</time></trkpt><trkpt lat="43.06571193398056" lon="10.536896975012004"><ele>11.666666666666666</ele><time>2026-04-20T15:07:58Z</time></trkpt><trkpt lat="43.06551825151732" lon="10.536866261294028"><ele>11.333333333333332</ele><time>2026-04-20T15:07:59Z</time></trkpt><trkpt lat="43.065320574349975" lon="10.53683800245351"><ele>11.0</ele><time>2026-04-20T15:08:00Z</time></trkpt><trkpt lat="43.06512860028436" lon="10.536812027720366"><ele>11.0</ele><time>2026-04-20T15:08:01Z</time></trkpt><trkpt lat="43.06494298477754" lon="10.536789262361017"><ele>11.0</ele><time>2026-04-20T15:08:02Z</time></trkpt><trkpt lat="43.064752960457646" lon="10.536764601037842"><ele>11.0</ele><time>2026-04-20T15:08:03Z</time></trkpt><trkpt lat="43.064569308569084" lon="10.536742891713773"><ele>11.0</ele><time>2026-04-20T15:08:04Z</time></trkpt><trkpt lat="43.064388697987425" lon="10.536699087341168"><ele>11.0</ele><time>2026-04-20T15:08:05Z</time></trkpt><trkpt lat="43.06420342718612" lon="10.536673088390398"><ele>11.0</ele><time>2026-04-20T15:08:06Z</time></trkpt><trkpt lat="43.06401503961401" lon="10.536646652072719"><ele>11.333333333333332</ele><time>2026-04-20T15:08:07Z</time></trkpt><trkpt lat="43.06383958208996" lon="10.536622030196325"><ele>11.666666666666666</ele><time>2026-04-20T15:08:08Z</time></trkpt><trkpt lat="43.06365542875889" lon="10.536596188090813"><ele>12.0</ele><time>2026-04-20T15:08:09Z</time></trkpt><trkpt lat="43.0634728422274" lon="10.536570423321711"><ele>12.0</ele><time>2026-04-20T15:08:10Z</time></trkpt><trkpt lat="43.06329072472235" lon="10.536544222619865"><ele>12.0</ele><time>2026-04-20T15:08:11Z</time></trkpt><trkpt lat="43.06310403471216" lon="10.536514443476353"><ele>12.0</ele><time>2026-04-20T15:08:12Z</time></trkpt><trkpt lat="43.06291623580823" lon="10.536486952287406"><ele>12.0</ele><time>2026-04-20T15:08:13Z</time></trkpt><trkpt lat="43.06272744895133" lon="10.536465583745704"><ele>12.0</ele><time>2026-04-20T15:08:14Z</time></trkpt><trkpt lat="43.06253789689971" lon="10.53644002146567"><ele>12.0</ele><time>2026-04-20T15:08:15Z</time></trkpt><trkpt lat="43.062350235668085" lon="10.53641328466418"><ele>12.0</ele><time>2026-04-20T15:08:16Z</time></trkpt><trkpt lat="43.0621665978883" lon="10.536387121126875"><ele>12.0</ele><time>2026-04-20T15:08:17Z</time></trkpt><trkpt lat="43.06197948874357" lon="10.536360462974352"><ele>12.0</ele><time>2026-04-20T15:08:18Z</time></trkpt><trkpt lat="43.06179411329299" lon="10.536334051844484"><ele>12.0</ele><time>2026-04-20T15:08:19Z</time></trkpt><trkpt lat="43.06160949009572" lon="10.53630774787956"><ele>12.0</ele><time>2026-04-20T15:08:20Z</time></trkpt><trkpt lat="43.061418935442596" lon="10.536280598852999"><ele>12.0</ele><time>2026-04-20T15:08:21Z</time></trkpt><trkpt lat="43.06122727504268" lon="10.536253292274344"><ele>12.0</ele><time>2026-04-20T15:08:22Z</time></trkpt><trkpt lat="43.061031706078275" lon="10.536225428836579"><ele>12.0</ele><time>2026-04-20T15:08:23Z</time></trkpt><trkpt lat="43.06083291101691" lon="10.536197373835154"><ele>12.0</ele><time>2026-04-20T15:08:24Z</time></trkpt><trkpt lat="43.06063731624587" lon="10.536169389728261"><ele>11.666666666666666</ele><time>2026-04-20T15:08:25Z</time></trkpt><trkpt lat="43.0604364112335" lon="10.536161430121435"><ele>11.333333333333332</ele><time>2026-04-20T15:08:26Z</time></trkpt><trkpt lat="43.06023596095798" lon="10.536133619784612"><ele>11.0</ele><time>2026-04-20T15:08:27Z</time></trkpt><trkpt lat="43.06004286904392" lon="10.536082408743923"><ele>11.0</ele><time>2026-04-20T15:08:28Z</time></trkpt><trkpt lat="43.05984894837026" lon="10.536054025495492"><ele>11.0</ele><time>2026-04-20T15:08:29Z</time></trkpt><trkpt lat="43.05965187692223" lon="10.536026055789362"><ele>11.0</ele><time>2026-04-20T15:08:30Z</time></trkpt><trkpt lat="43.05945196181837" lon="10.536018817153684"><ele>11.0</ele><time>2026-04-20T15:08:31Z</time></trkpt><trkpt lat="43.05925068514988" lon="10.535989329241911"><ele>11.0</ele><time>2026-04-20T15:08:32Z</time></trkpt><trkpt lat="43.05904764712186" lon="10.535958761426599"><ele>11.0</ele><time>2026-04-20T15:08:33Z</time></trkpt><trkpt lat="43.05885022800336" lon="10.535929790975779"><ele>10.0</ele><time>2026-04-20T15:08:34Z</time></trkpt><trkpt lat="43.05864652022369" lon="10.535898862416628"><ele>9.0</ele><time>2026-04-20T15:08:35Z</time></trkpt><trkpt lat="43.058442890401956" lon="10.535872519924482"><ele>8.0</ele><time>2026-04-20T15:08:36Z</time></trkpt><trkpt lat="43.05824141259687" lon="10.535843105916072"><ele>7.666666666666666</ele><time>2026-04-20T15:08:37Z</time></trkpt><trkpt lat="43.0580388469467" lon="10.535810534389517"><ele>7.333333333333334</ele><time>2026-04-20T15:08:38Z</time></trkpt><trkpt lat="43.05784222152486" lon="10.535763887963459"><ele>7.0</ele><time>2026-04-20T15:08:39Z</time></trkpt><trkpt lat="43.05763895796944" lon="10.535733773191103"><ele>7.333333333333334</ele><time>2026-04-20T15:08:40Z</time></trkpt><trkpt lat="43.05743810589698" lon="10.53570401561683"><ele>7.666666666666666</ele><time>2026-04-20T15:08:41Z</time></trkpt><trkpt lat="43.05724058287865" lon="10.535674751314987"><ele>8.0</ele><time>2026-04-20T15:08:42Z</time></trkpt><trkpt lat="43.05704391588189" lon="10.535645806267542"><ele>8.0</ele><time>2026-04-20T15:08:43Z</time></trkpt><trkpt lat="43.056843784017204" lon="10.535616731416749"><ele>8.0</ele><time>2026-04-20T15:08:44Z</time></trkpt><trkpt lat="43.056648334761654" lon="10.535588336879316"><ele>8.0</ele><time>2026-04-20T15:08:45Z</time></trkpt><trkpt lat="43.05644526955993" lon="10.535558835949086"><ele>9.0</ele><time>2026-04-20T15:08:46Z</time></trkpt><trkpt lat="43.05624792801095" lon="10.535530166456908"><ele>10.0</ele><time>2026-04-20T15:08:47Z</time></trkpt><trkpt lat="43.05605081544927" lon="10.535522705982169"><ele>11.0</ele><time>2026-04-20T15:08:48Z</time></trkpt><trkpt lat="43.055855148934235" lon="10.535495332511843"><ele>11.0</ele><time>2026-04-20T15:08:49Z</time></trkpt><trkpt lat="43.05565877399046" lon="10.535444575178584"><ele>11.0</ele><time>2026-04-20T15:08:50Z</time></trkpt><trkpt lat="43.05546316137488" lon="10.535416156997382"><ele>11.0</ele><time>2026-04-20T15:08:51Z</time></trkpt><trkpt lat="43.05526684143551" lon="10.535387635882394"><ele>11.333333333333332</ele><time>2026-04-20T15:08:52Z</time></trkpt><trkpt lat="43.055067868342555" lon="10.5353587311805"><ele>11.666666666666666</ele><time>2026-04-20T15:08:53Z</time></trkpt><trkpt lat="43.05486849451595" lon="10.535347230794873"><ele>12.0</ele><time>2026-04-20T15:08:54Z</time></trkpt><trkpt lat="43.05466976169842" lon="10.535319361233995"><ele>12.333333333333332</ele><time>2026-04-20T15:08:55Z</time></trkpt><trkpt lat="43.054467648664804" lon="10.535286934806331"><ele>12.666666666666666</ele><time>2026-04-20T15:08:56Z</time></trkpt><trkpt lat="43.0542697043344" lon="10.53525915847945"><ele>13.0</ele><time>2026-04-20T15:08:57Z</time></trkpt><trkpt lat="43.05407781580154" lon="10.535227392934523"><ele>13.0</ele><time>2026-04-20T15:08:58Z</time></trkpt><trkpt lat="43.05387998258594" lon="10.535198929776255"><ele>13.0</ele><time>2026-04-20T15:08:59Z</time></trkpt><trkpt lat="43.05368416376952" lon="10.535179331956183"><ele>13.0</ele><time>2026-04-20T15:09:00Z</time></trkpt><trkpt lat="43.05348663523722" lon="10.53515121387752"><ele>13.0</ele><time>2026-04-20T15:09:01Z</time></trkpt><trkpt lat="43.05329441977462" lon="10.535101175985016"><ele>13.0</ele><time>2026-04-20T15:09:02Z</time></trkpt><trkpt lat="43.053102092780165" lon="10.535073266204737"><ele>13.0</ele><time>2026-04-20T15:09:03Z</time></trkpt><trkpt lat="43.05290345965746" lon="10.535044379113593"><ele>13.0</ele><time>2026-04-20T15:09:04Z</time></trkpt><trkpt lat="43.05270425799209" lon="10.535015239679716"><ele>13.0</ele><time>2026-04-20T15:09:05Z</time></trkpt><trkpt lat="43.05250814455089" lon="10.534986465845586"><ele>13.0</ele><time>2026-04-20T15:09:06Z</time></trkpt><trkpt lat="43.052315715646316" lon="10.534958234545728"><ele>13.333333333333332</ele><time>2026-04-20T15:09:07Z</time></trkpt><trkpt lat="43.052120730539365" lon="10.534929360304185"><ele>13.666666666666668</ele><time>2026-04-20T15:09:08Z</time></trkpt><trkpt lat="43.05192428630558" lon="10.534922040630429"><ele>14.0</ele><time>2026-04-20T15:09:09Z</time></trkpt><trkpt lat="43.05173289224129" lon="10.53489063555067"><ele>14.333333333333334</ele><time>2026-04-20T15:09:10Z</time></trkpt><trkpt lat="43.05153837535014" lon="10.534860532790097"><ele>14.666666666666668</ele><time>2026-04-20T15:09:11Z</time></trkpt><trkpt lat="43.05135289845295" lon="10.534831931505927"><ele>15.0</ele><time>2026-04-20T15:09:12Z</time></trkpt><trkpt lat="43.0511681874155" lon="10.534797371767723"><ele>15.0</ele><time>2026-04-20T15:09:13Z</time></trkpt><trkpt lat="43.0509850018293" lon="10.534757328488464"><ele>15.0</ele><time>2026-04-20T15:09:14Z</time></trkpt><trkpt lat="43.05081096622036" lon="10.534702456335358"><ele>15.0</ele><time>2026-04-20T15:09:15Z</time></trkpt><trkpt lat="43.05065729082841" lon="10.534659852451865"><ele>14.333333333333332</ele><time>2026-04-20T15:09:16Z</time></trkpt><trkpt lat="43.05050399528925" lon="10.53462096133513"><ele>13.666666666666666</ele><time>2026-04-20T15:09:17Z</time></trkpt><trkpt lat="43.05035113193797" lon="10.534582496247898"><ele>13.0</ele><time>2026-04-20T15:09:18Z</time></trkpt><trkpt lat="43.05020408586193" lon="10.534516696432998"><ele>13.0</ele><time>2026-04-20T15:09:19Z</time></trkpt><trkpt lat="43.05005570936295" lon="10.534470554960619"><ele>13.0</ele><time>2026-04-20T15:09:20Z</time></trkpt><trkpt lat="43.04991008329488" lon="10.534425897036321"><ele>13.0</ele><time>2026-04-20T15:09:21Z</time></trkpt><trkpt lat="43.049766553734656" lon="10.534380702761695"><ele>13.0</ele><time>2026-04-20T15:09:22Z</time></trkpt><trkpt lat="43.049624844814815" lon="10.534358316892003"><ele>13.0</ele><time>2026-04-20T15:09:23Z</time></trkpt><trkpt lat="43.049487594427795" lon="10.534307085831157"><ele>13.0</ele><time>2026-04-20T15:09:24Z</time></trkpt><trkpt lat="43.04934052444964" lon="10.53425803531359"><ele>13.0</ele><time>2026-04-20T15:09:25Z</time></trkpt><trkpt lat="43.049190190138134" lon="10.53421108145558"><ele>13.0</ele><time>2026-04-20T15:09:26Z</time></trkpt><trkpt lat="43.049034827195534" lon="10.534162425033502"><ele>13.25</ele><time>2026-04-20T15:09:27Z</time></trkpt><trkpt lat="43.04888094670399" lon="10.5341052810838"><ele>13.5</ele><time>2026-04-20T15:09:28Z</time></trkpt><trkpt lat="43.04874506163962" lon="10.534077598822511"><ele>13.75</ele><time>2026-04-20T15:09:29Z</time></trkpt><trkpt lat="43.04861881797823" lon="10.534031445564297"><ele>14.0</ele><time>2026-04-20T15:09:30Z</time></trkpt><trkpt lat="43.048499851853244" lon="10.533999492385"><ele>14.0</ele><time>2026-04-20T15:09:31Z</time></trkpt><trkpt lat="43.04838481824486" lon="10.533963836713491"><ele>14.0</ele><time>2026-04-20T15:09:32Z</time></trkpt><trkpt lat="43.04825645234233" lon="10.533918405655655"><ele>14.0</ele><time>2026-04-20T15:09:33Z</time></trkpt><trkpt lat="43.0481411717033" lon="10.533886142161602"><ele>14.0</ele><time>2026-04-20T15:09:34Z</time></trkpt><trkpt lat="43.048011704415075" lon="10.5338484158713"><ele>14.25</ele><time>2026-04-20T15:09:35Z</time></trkpt><trkpt lat="43.04787481301402" lon="10.533800302932443"><ele>14.5</ele><time>2026-04-20T15:09:36Z</time></trkpt><trkpt lat="43.047736113402" lon="10.53376504889486"><ele>14.75</ele><time>2026-04-20T15:09:37Z</time></trkpt><trkpt lat="43.04759824173057" lon="10.533721477428147"><ele>15.0</ele><time>2026-04-20T15:09:38Z</time></trkpt><trkpt lat="43.04745513501915" lon="10.533682484432651"><ele>15.0</ele><time>2026-04-20T15:09:39Z</time></trkpt><trkpt lat="43.047319010855304" lon="10.53361170964467"><ele>15.0</ele><time>2026-04-20T15:09:40Z</time></trkpt><trkpt lat="43.04717738464189" lon="10.533568296346306"><ele>15.0</ele><time>2026-04-20T15:09:41Z</time></trkpt><trkpt lat="43.04703856295771" lon="10.533509723315023"><ele>15.0</ele><time>2026-04-20T15:09:42Z</time></trkpt><trkpt lat="43.0468944012443" lon="10.533463321677148"><ele>15.0</ele><time>2026-04-20T15:09:43Z</time></trkpt><trkpt lat="43.04674491817023" lon="10.533424962034804"><ele>15.0</ele><time>2026-04-20T15:09:44Z</time></trkpt><trkpt lat="43.046605953026884" lon="10.533382148605499"><ele>15.0</ele><time>2026-04-20T15:09:45Z</time></trkpt><trkpt lat="43.04645713178232" lon="10.533344471068336"><ele>15.0</ele><time>2026-04-20T15:09:46Z</time></trkpt><trkpt lat="43.046313586689735" lon="10.533290060447431"><ele>14.333333333333332</ele><time>2026-04-20T15:09:47Z</time></trkpt><trkpt lat="43.046168191642444" lon="10.533243533284267"><ele>13.666666666666666</ele><time>2026-04-20T15:09:48Z</time></trkpt><trkpt lat="43.046011280450294" lon="10.533206348634302"><ele>13.0</ele><time>2026-04-20T15:09:49Z</time></trkpt><trkpt lat="43.04586339754207" lon="10.533147017107655"><ele>11.0</ele><time>2026-04-20T15:09:50Z</time></trkpt><trkpt lat="43.045715702388" lon="10.533095726908048"><ele>9.0</ele><time>2026-04-20T15:09:51Z</time></trkpt><trkpt lat="43.04556926359265" lon="10.533059764426959"><ele>7.0</ele><time>2026-04-20T15:09:52Z</time></trkpt><trkpt lat="43.04542206365719" lon="10.533019082985499"><ele>7.0</ele><time>2026-04-20T15:09:53Z</time></trkpt><trkpt lat="43.045277861312016" lon="10.532988358437647"><ele>7.0</ele><time>2026-04-20T15:09:54Z</time></trkpt><trkpt lat="43.04513693804044" lon="10.532954033000038"><ele>7.0</ele><time>2026-04-20T15:09:55Z</time></trkpt><trkpt lat="43.04498229226812" lon="10.532898284583583"><ele>7.0</ele><time>2026-04-20T15:09:56Z</time></trkpt><trkpt lat="43.04482594601261" lon="10.532848804790211"><ele>8.333333333333334</ele><time>2026-04-20T15:09:57Z</time></trkpt><trkpt lat="43.04467193521463" lon="10.532796399856247"><ele>9.666666666666666</ele><time>2026-04-20T15:09:58Z</time></trkpt><trkpt lat="43.044507081345586" lon="10.532746685301362"><ele>11.0</ele><time>2026-04-20T15:09:59Z</time></trkpt><trkpt lat="43.04434090044874" lon="10.532700387926475"><ele>11.0</ele><time>2026-04-20T15:10:00Z</time></trkpt><trkpt lat="43.04416997989889" lon="10.532644361531776"><ele>11.0</ele><time>2026-04-20T15:10:01Z</time></trkpt><trkpt lat="43.04399133912468" lon="10.532587477223128"><ele>11.0</ele><time>2026-04-20T15:10:02Z</time></trkpt><trkpt lat="43.04381891352845" lon="10.5325326281987"><ele>10.666666666666666</ele><time>2026-04-20T15:10:03Z</time></trkpt><trkpt lat="43.043623327019816" lon="10.532481010260708"><ele>10.333333333333334</ele><time>2026-04-20T15:10:04Z</time></trkpt><trkpt lat="43.043435456738536" lon="10.532419320414101"><ele>10.0</ele><time>2026-04-20T15:10:05Z</time></trkpt><trkpt lat="43.04325094096502" lon="10.53236039017418"><ele>9.666666666666668</ele><time>2026-04-20T15:10:06Z</time></trkpt><trkpt lat="43.043054348590644" lon="10.532304154424075"><ele>9.333333333333334</ele><time>2026-04-20T15:10:07Z</time></trkpt><trkpt lat="43.0428619078958" lon="10.532242624388328"><ele>9.0</ele><time>2026-04-20T15:10:08Z</time></trkpt><trkpt lat="43.042666339741956" lon="10.532177766885999"><ele>9.0</ele><time>2026-04-20T15:10:09Z</time></trkpt><trkpt lat="43.04246819511998" lon="10.53210989623988"><ele>9.0</ele><time>2026-04-20T15:10:10Z</time></trkpt><trkpt lat="43.042261602044825" lon="10.532048144811963"><ele>9.0</ele><time>2026-04-20T15:10:11Z</time></trkpt><trkpt lat="43.04206272057017" lon="10.531987936971111"><ele>9.333333333333334</ele><time>2026-04-20T15:10:12Z</time></trkpt><trkpt lat="43.04187642232557" lon="10.531938450987058"><ele>9.666666666666668</ele><time>2026-04-20T15:10:13Z</time></trkpt><trkpt lat="43.04167156227547" lon="10.531871450086554"><ele>10.0</ele><time>2026-04-20T15:10:14Z</time></trkpt><trkpt lat="43.041478220000066" lon="10.531806956973856"><ele>10.0</ele><time>2026-04-20T15:10:15Z</time></trkpt><trkpt lat="43.04130302031374" lon="10.531746469174378"><ele>10.0</ele><time>2026-04-20T15:10:16Z</time></trkpt><trkpt lat="43.04111555303886" lon="10.531689239988554"><ele>10.0</ele><time>2026-04-20T15:10:17Z</time></trkpt><trkpt lat="43.04092461672923" lon="10.53162965819375"><ele>9.333333333333334</ele><time>2026-04-20T15:10:18Z</time></trkpt><trkpt lat="43.04073380364398" lon="10.531576515076818"><ele>8.666666666666666</ele><time>2026-04-20T15:10:19Z</time></trkpt><trkpt lat="43.04053604123335" lon="10.531517699743407"><ele>8.0</ele><time>2026-04-20T15:10:20Z</time></trkpt><trkpt lat="43.04033954553206" lon="10.531451393523884"><ele>8.0</ele><time>2026-04-20T15:10:21Z</time></trkpt><trkpt lat="43.040152193365" lon="10.531400022614061"><ele>8.0</ele><time>2026-04-20T15:10:22Z</time></trkpt><trkpt lat="43.03996566122312" lon="10.531343660957058"><ele>8.0</ele><time>2026-04-20T15:10:23Z</time></trkpt><trkpt lat="43.039775945176025" lon="10.531281596737"><ele>9.0</ele><time>2026-04-20T15:10:24Z</time></trkpt><trkpt lat="43.0395871969921" lon="10.531212815689925"><ele>10.0</ele><time>2026-04-20T15:10:25Z</time></trkpt><trkpt lat="43.03939502599571" lon="10.531150984228718"><ele>11.0</ele><time>2026-04-20T15:10:26Z</time></trkpt><trkpt lat="43.039200686516104" lon="10.53108898058698"><ele>11.333333333333332</ele><time>2026-04-20T15:10:27Z</time></trkpt><trkpt lat="43.038996355360894" lon="10.53102384562165"><ele>11.666666666666666</ele><time>2026-04-20T15:10:28Z</time></trkpt><trkpt lat="43.03879559161972" lon="10.530966989413963"><ele>12.0</ele><time>2026-04-20T15:10:29Z</time></trkpt><trkpt lat="43.03860145460204" lon="10.530918430112816"><ele>12.0</ele><time>2026-04-20T15:10:30Z</time></trkpt><trkpt lat="43.03840150393492" lon="10.530856481493522"><ele>12.0</ele><time>2026-04-20T15:10:31Z</time></trkpt><trkpt lat="43.038204919979194" lon="10.530801521566984"><ele>12.0</ele><time>2026-04-20T15:10:32Z</time></trkpt><trkpt lat="43.03800945180542" lon="10.530746405987582"><ele>11.0</ele><time>2026-04-20T15:10:33Z</time></trkpt><trkpt lat="43.03783062465935" lon="10.530680128680334"><ele>10.0</ele><time>2026-04-20T15:10:34Z</time></trkpt><trkpt lat="43.037655725707324" lon="10.530629648517408"><ele>9.0</ele><time>2026-04-20T15:10:35Z</time></trkpt><trkpt lat="43.03747114148222" lon="10.530576976531377"><ele>7.666666666666667</ele><time>2026-04-20T15:10:36Z</time></trkpt><trkpt lat="43.037291318396036" lon="10.530511402557948"><ele>6.333333333333334</ele><time>2026-04-20T15:10:37Z</time></trkpt><trkpt lat="43.037110837167134" lon="10.530456279893087"><ele>5.0</ele><time>2026-04-20T15:10:38Z</time></trkpt><trkpt lat="43.03692804744713" lon="10.530395662001258"><ele>5.333333333333334</ele><time>2026-04-20T15:10:39Z</time></trkpt><trkpt lat="43.03673917442846" lon="10.530340325378853"><ele>5.666666666666667</ele><time>2026-04-20T15:10:40Z</time></trkpt><trkpt lat="43.036551002400266" lon="10.53028183477719"><ele>6.0</ele><time>2026-04-20T15:10:41Z</time></trkpt><trkpt lat="43.03635998834235" lon="10.530227887103571"><ele>6.0</ele><time>2026-04-20T15:10:42Z</time></trkpt><trkpt lat="43.03617134049637" lon="10.530166431643767"><ele>6.0</ele><time>2026-04-20T15:10:43Z</time></trkpt><trkpt lat="43.03598550920927" lon="10.530107956886582"><ele>6.0</ele><time>2026-04-20T15:10:44Z</time></trkpt><trkpt lat="43.035800760737644" lon="10.530047430048912"><ele>6.0</ele><time>2026-04-20T15:10:45Z</time></trkpt><trkpt lat="43.03561486284712" lon="10.52998926954099"><ele>6.0</ele><time>2026-04-20T15:10:46Z</time></trkpt><trkpt lat="43.03543272782085" lon="10.529926148814166"><ele>6.0</ele><time>2026-04-20T15:10:47Z</time></trkpt><trkpt lat="43.03525197192121" lon="10.529869298860234"><ele>6.0</ele><time>2026-04-20T15:10:48Z</time></trkpt><trkpt lat="43.0350724554032" lon="10.529820260657546"><ele>6.0</ele><time>2026-04-20T15:10:49Z</time></trkpt><trkpt lat="43.03488999356864" lon="10.529764346755304"><ele>6.0</ele><time>2026-04-20T15:10:50Z</time></trkpt><trkpt lat="43.03470502713489" lon="10.529707625460853"><ele>6.0</ele><time>2026-04-20T15:10:51Z</time></trkpt><trkpt lat="43.03452263913391" lon="10.529651517172855"><ele>6.0</ele><time>2026-04-20T15:10:52Z</time></trkpt><trkpt lat="43.03433759904187" lon="10.529594729989231"><ele>6.0</ele><time>2026-04-20T15:10:53Z</time></trkpt><trkpt lat="43.03415271937439" lon="10.529535310497838"><ele>5.0</ele><time>2026-04-20T15:10:54Z</time></trkpt><trkpt lat="43.03396889430126" lon="10.529472130570316"><ele>4.0</ele><time>2026-04-20T15:10:55Z</time></trkpt><trkpt lat="43.03378011547933" lon="10.5294208051218"><ele>3.0</ele><time>2026-04-20T15:10:56Z</time></trkpt><trkpt lat="43.033589308837705" lon="10.529364498793871"><ele>3.0</ele><time>2026-04-20T15:10:57Z</time></trkpt><trkpt lat="43.03339992754641" lon="10.529304548509494"><ele>3.0</ele><time>2026-04-20T15:10:58Z</time></trkpt><trkpt lat="43.03320558810846" lon="10.529245627078986"><ele>3.0</ele><time>2026-04-20T15:10:59Z</time></trkpt><trkpt lat="43.03300985020302" lon="10.529182280073575"><ele>3.333333333333333</ele><time>2026-04-20T15:11:00Z</time></trkpt><trkpt lat="43.03281455213159" lon="10.529116000204398"><ele>3.6666666666666665</ele><time>2026-04-20T15:11:01Z</time></trkpt><trkpt lat="43.032614627880456" lon="10.529057763612068"><ele>4.0</ele><time>2026-04-20T15:11:02Z</time></trkpt><trkpt lat="43.03242503396092" lon="10.529000774508189"><ele>4.0</ele><time>2026-04-20T15:11:03Z</time></trkpt><trkpt lat="43.03223457673413" lon="10.528936402509357"><ele>4.0</ele><time>2026-04-20T15:11:04Z</time></trkpt><trkpt lat="43.032039352293964" lon="10.528867737126543"><ele>4.0</ele><time>2026-04-20T15:11:05Z</time></trkpt><trkpt lat="43.03184677585819" lon="10.528800859747712"><ele>4.0</ele><time>2026-04-20T15:11:06Z</time></trkpt><trkpt lat="43.031652600708874" lon="10.52873892970581"><ele>4.0</ele><time>2026-04-20T15:11:07Z</time></trkpt><trkpt lat="43.03145588680231" lon="10.528673477566725"><ele>4.0</ele><time>2026-04-20T15:11:08Z</time></trkpt><trkpt lat="43.03125964940127" lon="10.528614386117894"><ele>4.333333333333333</ele><time>2026-04-20T15:11:09Z</time></trkpt><trkpt lat="43.03106103113739" lon="10.528553075015155"><ele>4.666666666666667</ele><time>2026-04-20T15:11:10Z</time></trkpt><trkpt lat="43.030873832913706" lon="10.528494583095306"><ele>5.0</ele><time>2026-04-20T15:11:11Z</time></trkpt><trkpt lat="43.03069056727976" lon="10.528441038007529"><ele>5.0</ele><time>2026-04-20T15:11:12Z</time></trkpt><trkpt lat="43.03050532885493" lon="10.528386377793773"><ele>5.0</ele><time>2026-04-20T15:11:13Z</time></trkpt><trkpt lat="43.030318212936876" lon="10.528326547856008"><ele>5.0</ele><time>2026-04-20T15:11:14Z</time></trkpt><trkpt lat="43.03013572404256" lon="10.528267819327189"><ele>4.333333333333334</ele><time>2026-04-20T15:11:15Z</time></trkpt><trkpt lat="43.02996883029137" lon="10.528216596814586"><ele>3.666666666666667</ele><time>2026-04-20T15:11:16Z</time></trkpt><trkpt lat="43.02980830429278" lon="10.528163757893081"><ele>3.0</ele><time>2026-04-20T15:11:17Z</time></trkpt><trkpt lat="43.02964196158448" lon="10.528110001381563"><ele>3.0</ele><time>2026-04-20T15:11:18Z</time></trkpt><trkpt lat="43.02948072454868" lon="10.528058571624992"><ele>3.0</ele><time>2026-04-20T15:11:19Z</time></trkpt><trkpt lat="43.029331642769655" lon="10.52801273077344"><ele>3.0</ele><time>2026-04-20T15:11:20Z</time></trkpt><trkpt lat="43.029194757244575" lon="10.527964269663265"><ele>2.8</ele><time>2026-04-20T15:11:21Z</time></trkpt><trkpt lat="43.0290697985919" lon="10.527920620079309"><ele>2.5999999999999996</ele><time>2026-04-20T15:11:22Z</time></trkpt><trkpt lat="43.028962069532774" lon="10.527883880779898"><ele>2.4000000000000004</ele><time>2026-04-20T15:11:23Z</time></trkpt><trkpt lat="43.02887383232562" lon="10.527849639147778"><ele>2.2</ele><time>2026-04-20T15:11:24Z</time></trkpt><trkpt lat="43.02879862817117" lon="10.527819077352127"><ele>2.0</ele><time>2026-04-20T15:11:25Z</time></trkpt><trkpt lat="43.02873730743216" lon="10.527775436515196"><ele>3.2</ele><time>2026-04-20T15:11:26Z</time></trkpt><trkpt lat="43.028672947353556" lon="10.527742491544204"><ele>4.4</ele><time>2026-04-20T15:11:27Z</time></trkpt><trkpt lat="43.028588892603395" lon="10.527722300045115"><ele>5.6000000000000005</ele><time>2026-04-20T15:11:28Z</time></trkpt><trkpt lat="43.02850105716534" lon="10.52771334179544"><ele>6.800000000000001</ele><time>2026-04-20T15:11:29Z</time></trkpt><trkpt lat="43.028409102271546" lon="10.527670291392653"><ele>8.0</ele><time>2026-04-20T15:11:30Z</time></trkpt><trkpt lat="43.02830705373529" lon="10.527603659380425"><ele>8.0</ele><time>2026-04-20T15:11:31Z</time></trkpt><trkpt lat="43.028197743444935" lon="10.527538809752441"><ele>8.0</ele><time>2026-04-20T15:11:32Z</time></trkpt><trkpt lat="43.0280711955402" lon="10.527480720605089"><ele>8.0</ele><time>2026-04-20T15:11:33Z</time></trkpt><trkpt lat="43.027942100328964" lon="10.527420322993988"><ele>8.0</ele><time>2026-04-20T15:11:34Z</time></trkpt><trkpt lat="43.02780912497135" lon="10.527348427626157"><ele>8.0</ele><time>2026-04-20T15:11:35Z</time></trkpt><trkpt lat="43.02766575732081" lon="10.527274833894106"><ele>8.0</ele><time>2026-04-20T15:11:36Z</time></trkpt><trkpt lat="43.027523791008356" lon="10.527199611700263"><ele>8.0</ele><time>2026-04-20T15:11:37Z</time></trkpt><trkpt lat="43.02738672102677" lon="10.527094574932168"><ele>9.666666666666666</ele><time>2026-04-20T15:11:38Z</time></trkpt><trkpt lat="43.02724428995537" lon="10.527017512390898"><ele>11.333333333333332</ele><time>2026-04-20T15:11:39Z</time></trkpt><trkpt lat="43.027102756801604" lon="10.526941612113692"><ele>13.0</ele><time>2026-04-20T15:11:40Z</time></trkpt><trkpt lat="43.026961995688126" lon="10.526868814723906"><ele>13.0</ele><time>2026-04-20T15:11:41Z</time></trkpt><trkpt lat="43.02682125383875" lon="10.526790579150425"><ele>13.0</ele><time>2026-04-20T15:11:42Z</time></trkpt><trkpt lat="43.026681398838996" lon="10.526714495153538"><ele>13.0</ele><time>2026-04-20T15:11:43Z</time></trkpt><trkpt lat="43.02653918824739" lon="10.52664054452981"><ele>12.5</ele><time>2026-04-20T15:11:44Z</time></trkpt><trkpt lat="43.02639955197585" lon="10.5265658805634"><ele>12.0</ele><time>2026-04-20T15:11:45Z</time></trkpt><trkpt lat="43.0262570951669" lon="10.526497089407643"><ele>11.5</ele><time>2026-04-20T15:11:46Z</time></trkpt><trkpt lat="43.026123975125635" lon="10.526418244401267"><ele>11.0</ele><time>2026-04-20T15:11:47Z</time></trkpt><trkpt lat="43.025988811359696" lon="10.526349382368151"><ele>11.0</ele><time>2026-04-20T15:11:48Z</time></trkpt><trkpt lat="43.02585346474676" lon="10.526281717764132"><ele>11.0</ele><time>2026-04-20T15:11:49Z</time></trkpt><trkpt lat="43.02571928750679" lon="10.526212416735511"><ele>11.0</ele><time>2026-04-20T15:11:50Z</time></trkpt><trkpt lat="43.02557714342281" lon="10.526149546358653"><ele>11.0</ele><time>2026-04-20T15:11:51Z</time></trkpt><trkpt lat="43.025437124263796" lon="10.526078915720763"><ele>10.333333333333332</ele><time>2026-04-20T15:11:52Z</time></trkpt><trkpt lat="43.025304913790414" lon="10.52598560721643"><ele>9.666666666666666</ele><time>2026-04-20T15:11:53Z</time></trkpt><trkpt lat="43.025156424892366" lon="10.525926537775765"><ele>9.0</ele><time>2026-04-20T15:11:54Z</time></trkpt><trkpt lat="43.02501604995155" lon="10.525850404120144"><ele>8.666666666666666</ele><time>2026-04-20T15:11:55Z</time></trkpt><trkpt lat="43.024876682753174" lon="10.525761712414164"><ele>8.333333333333332</ele><time>2026-04-20T15:11:56Z</time></trkpt><trkpt lat="43.02473394404329" lon="10.525675516857739"><ele>8.0</ele><time>2026-04-20T15:11:57Z</time></trkpt><trkpt lat="43.024570973556216" lon="10.525593872670063"><ele>8.0</ele><time>2026-04-20T15:11:58Z</time></trkpt><trkpt lat="43.02441301526012" lon="10.525509285590182"><ele>8.0</ele><time>2026-04-20T15:11:59Z</time></trkpt><trkpt lat="43.02425572512372" lon="10.52542064920338"><ele>8.0</ele><time>2026-04-20T15:12:00Z</time></trkpt><trkpt lat="43.02409594402941" lon="10.52532789497138"><ele>6.333333333333333</ele><time>2026-04-20T15:12:01Z</time></trkpt><trkpt lat="43.02393038341617" lon="10.5252378773751"><ele>4.666666666666666</ele><time>2026-04-20T15:12:02Z</time></trkpt><trkpt lat="43.02376166309281" lon="10.525144812989822"><ele>3.0</ele><time>2026-04-20T15:12:03Z</time></trkpt><trkpt lat="43.02359262183655" lon="10.525048703549036"><ele>3.0</ele><time>2026-04-20T15:12:04Z</time></trkpt><trkpt lat="43.023423671246974" lon="10.524955682383005"><ele>3.0</ele><time>2026-04-20T15:12:05Z</time></trkpt><trkpt lat="43.023247318497084" lon="10.524860248562598"><ele>3.0</ele><time>2026-04-20T15:12:06Z</time></trkpt><trkpt lat="43.02307115824829" lon="10.524761247690337"><ele>3.0</ele><time>2026-04-20T15:12:07Z</time></trkpt><trkpt lat="43.02289263027441" lon="10.524657089829685"><ele>3.0</ele><time>2026-04-20T15:12:08Z</time></trkpt><trkpt lat="43.022715548618" lon="10.524555354276396"><ele>3.0</ele><time>2026-04-20T15:12:09Z</time></trkpt><trkpt lat="43.02253494565149" lon="10.524457918384595"><ele>4.0</ele><time>2026-04-20T15:12:10Z</time></trkpt><trkpt lat="43.02235450575866" lon="10.524354768162492"><ele>5.0</ele><time>2026-04-20T15:12:11Z</time></trkpt><trkpt lat="43.022170913152635" lon="10.524249848903212"><ele>6.0</ele><time>2026-04-20T15:12:12Z</time></trkpt><trkpt lat="43.02198840903245" lon="10.524146663021344"><ele>6.0</ele><time>2026-04-20T15:12:13Z</time></trkpt><trkpt lat="43.02181083591954" lon="10.524045457728823"><ele>6.0</ele><time>2026-04-20T15:12:14Z</time></trkpt><trkpt lat="43.02163745605423" lon="10.523946681737742"><ele>6.0</ele><time>2026-04-20T15:12:15Z</time></trkpt><trkpt lat="43.0214627348966" lon="10.523850856962211"><ele>5.333333333333333</ele><time>2026-04-20T15:12:16Z</time></trkpt><trkpt lat="43.02129020406387" lon="10.523750005819169"><ele>4.666666666666666</ele><time>2026-04-20T15:12:17Z</time></trkpt><trkpt lat="43.02111957771288" lon="10.523651155127567"><ele>4.0</ele><time>2026-04-20T15:12:18Z</time></trkpt><trkpt lat="43.02096008287628" lon="10.523560320581215"><ele>4.0</ele><time>2026-04-20T15:12:19Z</time></trkpt><trkpt lat="43.02080004544186" lon="10.523471789717012"><ele>4.0</ele><time>2026-04-20T15:12:20Z</time></trkpt><trkpt lat="43.02063955707124" lon="10.523380246522962"><ele>4.0</ele><time>2026-04-20T15:12:21Z</time></trkpt><trkpt lat="43.02048442666354" lon="10.523291624694885"><ele>4.0</ele><time>2026-04-20T15:12:22Z</time></trkpt><trkpt lat="43.020334420923994" lon="10.523207566616"><ele>4.0</ele><time>2026-04-20T15:12:23Z</time></trkpt><trkpt lat="43.020179290426285" lon="10.523128902242867"><ele>4.0</ele><time>2026-04-20T15:12:24Z</time></trkpt><trkpt lat="43.02001945442814" lon="10.523047937547311"><ele>4.0</ele><time>2026-04-20T15:12:25Z</time></trkpt><trkpt lat="43.01985856049305" lon="10.522986115607198"><ele>4.0</ele><time>2026-04-20T15:12:26Z</time></trkpt><trkpt lat="43.01968962844986" lon="10.522930186797009"><ele>4.0</ele><time>2026-04-20T15:12:27Z</time></trkpt><trkpt lat="43.0195176674018" lon="10.522880645265774"><ele>3.6666666666666665</ele><time>2026-04-20T15:12:28Z</time></trkpt><trkpt lat="43.01934281228735" lon="10.522841212171521"><ele>3.333333333333333</ele><time>2026-04-20T15:12:29Z</time></trkpt><trkpt lat="43.0191636083773" lon="10.522811083909406"><ele>3.0</ele><time>2026-04-20T15:12:30Z</time></trkpt><trkpt lat="43.01898565050914" lon="10.522787494824351"><ele>3.0</ele><time>2026-04-20T15:12:31Z</time></trkpt><trkpt lat="43.018806751188286" lon="10.522766621008566"><ele>3.0</ele><time>2026-04-20T15:12:32Z</time></trkpt><trkpt lat="43.01862656516127" lon="10.522742734173807"><ele>3.0</ele><time>2026-04-20T15:12:33Z</time></trkpt><trkpt lat="43.01844555566509" lon="10.522718992998623"><ele>3.333333333333333</ele><time>2026-04-20T15:12:34Z</time></trkpt><trkpt lat="43.018266240589206" lon="10.522694826381578"><ele>3.6666666666666665</ele><time>2026-04-20T15:12:35Z</time></trkpt><trkpt lat="43.01808331907871" lon="10.522671824806803"><ele>4.0</ele><time>2026-04-20T15:12:36Z</time></trkpt><trkpt lat="43.01789872751103" lon="10.522644453904062"><ele>4.0</ele><time>2026-04-20T15:12:37Z</time></trkpt><trkpt lat="43.017715877455714" lon="10.522616339422491"><ele>4.0</ele><time>2026-04-20T15:12:38Z</time></trkpt><trkpt lat="43.01753172161082" lon="10.522589312479148"><ele>4.0</ele><time>2026-04-20T15:12:39Z</time></trkpt><trkpt lat="43.01734712639068" lon="10.522563643366212"><ele>3.6666666666666665</ele><time>2026-04-20T15:12:40Z</time></trkpt><trkpt lat="43.01716360266518" lon="10.522537629854416"><ele>3.333333333333333</ele><time>2026-04-20T15:12:41Z</time></trkpt><trkpt lat="43.016984506589985" lon="10.52251269464496"><ele>3.0</ele><time>2026-04-20T15:12:42Z</time></trkpt><trkpt lat="43.01680576779041" lon="10.522489645190044"><ele>2.6666666666666665</ele><time>2026-04-20T15:12:43Z</time></trkpt><trkpt lat="43.016625308254824" lon="10.522470958753237"><ele>2.333333333333333</ele><time>2026-04-20T15:12:44Z</time></trkpt><trkpt lat="43.01644518010053" lon="10.522452168943541"><ele>2.0</ele><time>2026-04-20T15:12:45Z</time></trkpt><trkpt lat="43.016262127272874" lon="10.522438864504302"><ele>2.0</ele><time>2026-04-20T15:12:46Z</time></trkpt><trkpt lat="43.016084994069615" lon="10.52243002591165"><ele>2.0</ele><time>2026-04-20T15:12:47Z</time></trkpt><trkpt lat="43.015902979804004" lon="10.52242896056121"><ele>2.0</ele><time>2026-04-20T15:12:48Z</time></trkpt><trkpt lat="43.015724831911896" lon="10.522433937785314"><ele>2.333333333333333</ele><time>2026-04-20T15:12:49Z</time></trkpt><trkpt lat="43.01554768801074" lon="10.522440778273538"><ele>2.6666666666666665</ele><time>2026-04-20T15:12:50Z</time></trkpt><trkpt lat="43.01536867498649" lon="10.522447097057027"><ele>3.0</ele><time>2026-04-20T15:12:51Z</time></trkpt><trkpt lat="43.015183536975584" lon="10.522454029599098"><ele>3.0</ele><time>2026-04-20T15:12:52Z</time></trkpt><trkpt lat="43.014996000076515" lon="10.52245934035936"><ele>3.0</ele><time>2026-04-20T15:12:53Z</time></trkpt><trkpt lat="43.01480655876855" lon="10.522465820029092"><ele>3.0</ele><time>2026-04-20T15:12:54Z</time></trkpt><trkpt lat="43.01461226896001" lon="10.522474475292375"><ele>3.333333333333333</ele><time>2026-04-20T15:12:55Z</time></trkpt><trkpt lat="43.01442313201428" lon="10.522483335829433"><ele>3.6666666666666665</ele><time>2026-04-20T15:12:56Z</time></trkpt><trkpt lat="43.01424030567276" lon="10.52249298842772"><ele>4.0</ele><time>2026-04-20T15:12:57Z</time></trkpt><trkpt lat="43.014060243614225" lon="10.522500987453451"><ele>4.0</ele><time>2026-04-20T15:12:58Z</time></trkpt><trkpt lat="43.013889040221684" lon="10.522509010505985"><ele>4.0</ele><time>2026-04-20T15:12:59Z</time></trkpt><trkpt lat="43.01371457676275" lon="10.522520170566265"><ele>4.0</ele><time>2026-04-20T15:13:00Z</time></trkpt><trkpt lat="43.01354362726612" lon="10.522529016084663"><ele>4.0</ele><time>2026-04-20T15:13:01Z</time></trkpt><trkpt lat="43.01337085467287" lon="10.522535963039012"><ele>4.0</ele><time>2026-04-20T15:13:02Z</time></trkpt><trkpt lat="43.01319868927523" lon="10.522546404019655"><ele>4.0</ele><time>2026-04-20T15:13:03Z</time></trkpt><trkpt lat="43.01302922474491" lon="10.522553357717047"><ele>4.333333333333333</ele><time>2026-04-20T15:13:04Z</time></trkpt><trkpt lat="43.01286628559038" lon="10.5225561278845"><ele>4.666666666666667</ele><time>2026-04-20T15:13:05Z</time></trkpt><trkpt lat="43.0127112583509" lon="10.522563737727673"><ele>5.0</ele><time>2026-04-20T15:13:06Z</time></trkpt><trkpt lat="43.01255173057801" lon="10.522572352188782"><ele>5.666666666666667</ele><time>2026-04-20T15:13:07Z</time></trkpt><trkpt lat="43.01239118413421" lon="10.522583070992608"><ele>6.333333333333334</ele><time>2026-04-20T15:13:08Z</time></trkpt><trkpt lat="43.01223876208592" lon="10.522588327265378"><ele>7.0</ele><time>2026-04-20T15:13:09Z</time></trkpt><trkpt lat="43.01209268545831" lon="10.522602569718648"><ele>7.0</ele><time>2026-04-20T15:13:10Z</time></trkpt><trkpt lat="43.01195082152978" lon="10.522610500453714"><ele>7.0</ele><time>2026-04-20T15:13:11Z</time></trkpt><trkpt lat="43.01182083076735" lon="10.522619371648275"><ele>7.0</ele><time>2026-04-20T15:13:12Z</time></trkpt><trkpt lat="43.01168634953995" lon="10.522629309141818"><ele>7.0</ele><time>2026-04-20T15:13:13Z</time></trkpt><trkpt lat="43.011556469223116" lon="10.522628749419306"><ele>7.0</ele><time>2026-04-20T15:13:14Z</time></trkpt><trkpt lat="43.01141705010564" lon="10.522634472672541"><ele>7.0</ele><time>2026-04-20T15:13:15Z</time></trkpt><trkpt lat="43.01127035716203" lon="10.52263987775738"><ele>7.0</ele><time>2026-04-20T15:13:16Z</time></trkpt><trkpt lat="43.01112196791562" lon="10.522645102203379"><ele>7.0</ele><time>2026-04-20T15:13:17Z</time></trkpt><trkpt lat="43.01096568517289" lon="10.522651769182005"><ele>7.0</ele><time>2026-04-20T15:13:18Z</time></trkpt><trkpt lat="43.010806164269496" lon="10.522661367402243"><ele>7.0</ele><time>2026-04-20T15:13:19Z</time></trkpt><trkpt lat="43.01064037573565" lon="10.522670380211542"><ele>7.0</ele><time>2026-04-20T15:13:20Z</time></trkpt><trkpt lat="43.01047091264546" lon="10.522683161996893"><ele>7.0</ele><time>2026-04-20T15:13:21Z</time></trkpt><trkpt lat="43.01030215382211" lon="10.522684609347758"><ele>7.0</ele><time>2026-04-20T15:13:22Z</time></trkpt><trkpt lat="43.010130199316485" lon="10.52269240792689"><ele>7.0</ele><time>2026-04-20T15:13:23Z</time></trkpt><trkpt lat="43.00995815119506" lon="10.522696594968387"><ele>7.333333333333334</ele><time>2026-04-20T15:13:24Z</time></trkpt><trkpt lat="43.00977985479631" lon="10.522706716555193"><ele>7.666666666666666</ele><time>2026-04-20T15:13:25Z</time></trkpt><trkpt lat="43.009608218977775" lon="10.52271551949049"><ele>8.0</ele><time>2026-04-20T15:13:26Z</time></trkpt><trkpt lat="43.009442294097305" lon="10.522726385272284"><ele>8.0</ele><time>2026-04-20T15:13:27Z</time></trkpt><trkpt lat="43.00927893256467" lon="10.522733463194959"><ele>8.0</ele><time>2026-04-20T15:13:28Z</time></trkpt><trkpt lat="43.009116837521894" lon="10.522738454415805"><ele>8.0</ele><time>2026-04-20T15:13:29Z</time></trkpt><trkpt lat="43.00895357076763" lon="10.522747951225277"><ele>9.0</ele><time>2026-04-20T15:13:30Z</time></trkpt><trkpt lat="43.00878913734961" lon="10.52276116326991"><ele>10.0</ele><time>2026-04-20T15:13:31Z</time></trkpt><trkpt lat="43.00862315510831" lon="10.522769946616219"><ele>11.0</ele><time>2026-04-20T15:13:32Z</time></trkpt><trkpt lat="43.008455357459624" lon="10.522780464277595"><ele>12.0</ele><time>2026-04-20T15:13:33Z</time></trkpt><trkpt lat="43.00828777834867" lon="10.522766046736951"><ele>13.0</ele><time>2026-04-20T15:13:34Z</time></trkpt><trkpt lat="43.008119673479264" lon="10.522795469243883"><ele>14.0</ele><time>2026-04-20T15:13:35Z</time></trkpt><trkpt lat="43.00795397055155" lon="10.522803006958322"><ele>14.0</ele><time>2026-04-20T15:13:36Z</time></trkpt><trkpt lat="43.007800001020165" lon="10.522806074904867"><ele>14.0</ele><time>2026-04-20T15:13:37Z</time></trkpt><trkpt lat="43.00764844005981" lon="10.522811069485153"><ele>14.0</ele><time>2026-04-20T15:13:38Z</time></trkpt><trkpt lat="43.00749391583642" lon="10.522816813546523"><ele>13.5</ele><time>2026-04-20T15:13:39Z</time></trkpt><trkpt lat="43.00734318966687" lon="10.522819790619497"><ele>13.0</ele><time>2026-04-20T15:13:40Z</time></trkpt><trkpt lat="43.00719346196642" lon="10.52282394931454"><ele>12.5</ele><time>2026-04-20T15:13:41Z</time></trkpt><trkpt lat="43.00705250384235" lon="10.522830065789105"><ele>12.0</ele><time>2026-04-20T15:13:42Z</time></trkpt><trkpt lat="43.006917936951055" lon="10.52283401454921"><ele>12.0</ele><time>2026-04-20T15:13:43Z</time></trkpt><trkpt lat="43.00677833678386" lon="10.522839358749804"><ele>12.0</ele><time>2026-04-20T15:13:44Z</time></trkpt><trkpt lat="43.00663581300674" lon="10.522842790231508"><ele>12.0</ele><time>2026-04-20T15:13:45Z</time></trkpt><trkpt lat="43.00649164418041" lon="10.522846600829277"><ele>12.0</ele><time>2026-04-20T15:13:46Z</time></trkpt><trkpt lat="43.00634539429891" lon="10.522848616502554"><ele>12.333333333333332</ele><time>2026-04-20T15:13:47Z</time></trkpt><trkpt lat="43.00619623959404" lon="10.522861966277787"><ele>12.666666666666666</ele><time>2026-04-20T15:13:48Z</time></trkpt><trkpt lat="43.00604258190537" lon="10.52288342957685"><ele>13.0</ele><time>2026-04-20T15:13:49Z</time></trkpt><trkpt lat="43.00588588279344" lon="10.522917826595055"><ele>13.666666666666666</ele><time>2026-04-20T15:13:50Z</time></trkpt><trkpt lat="43.00573273833728" lon="10.522973580540425"><ele>14.333333333333332</ele><time>2026-04-20T15:13:51Z</time></trkpt><trkpt lat="43.00558022840056" lon="10.52303609989022"><ele>15.0</ele><time>2026-04-20T15:13:52Z</time></trkpt><trkpt lat="43.00542921524269" lon="10.52311248398298"><ele>15.0</ele><time>2026-04-20T15:13:53Z</time></trkpt><trkpt lat="43.0052773423225" lon="10.523204512059989"><ele>15.0</ele><time>2026-04-20T15:13:54Z</time></trkpt><trkpt lat="43.00513048642372" lon="10.52330915327607"><ele>15.0</ele><time>2026-04-20T15:13:55Z</time></trkpt><trkpt lat="43.004984901505495" lon="10.523424571232395"><ele>15.333333333333332</ele><time>2026-04-20T15:13:56Z</time></trkpt><trkpt lat="43.00484742483871" lon="10.523554116508317"><ele>15.666666666666666</ele><time>2026-04-20T15:13:57Z</time></trkpt><trkpt lat="43.00471252239336" lon="10.523688589359613"><ele>16.0</ele><time>2026-04-20T15:13:58Z</time></trkpt><trkpt lat="43.00458154755586" lon="10.523828471784544"><ele>16.0</ele><time>2026-04-20T15:13:59Z</time></trkpt><trkpt lat="43.00445287010097" lon="10.523974913430001"><ele>16.0</ele><time>2026-04-20T15:14:00Z</time></trkpt><trkpt lat="43.00432816796601" lon="10.52412046280006"><ele>16.0</ele><time>2026-04-20T15:14:01Z</time></trkpt><trkpt lat="43.00420173654269" lon="10.52426417191799"><ele>16.0</ele><time>2026-04-20T15:14:02Z</time></trkpt><trkpt lat="43.00407633062168" lon="10.524407411554186"><ele>16.0</ele><time>2026-04-20T15:14:03Z</time></trkpt><trkpt lat="43.00395377257788" lon="10.524549092538647"><ele>16.0</ele><time>2026-04-20T15:14:04Z</time></trkpt><trkpt lat="43.0038290427165" lon="10.524693133073564"><ele>15.666666666666666</ele><time>2026-04-20T15:14:05Z</time></trkpt><trkpt lat="43.00370627012918" lon="10.524843322638631"><ele>15.333333333333332</ele><time>2026-04-20T15:14:06Z</time></trkpt><trkpt lat="43.00358211996528" lon="10.52499122079203"><ele>15.0</ele><time>2026-04-20T15:14:07Z</time></trkpt><trkpt lat="43.0034557324991" lon="10.525136587409635"><ele>15.333333333333332</ele><time>2026-04-20T15:14:08Z</time></trkpt><trkpt lat="43.003326307063546" lon="10.52528374394623"><ele>15.666666666666666</ele><time>2026-04-20T15:14:09Z</time></trkpt><trkpt lat="43.00319802757351" lon="10.525433931105072"><ele>16.0</ele><time>2026-04-20T15:14:10Z</time></trkpt><trkpt lat="43.00306487410493" lon="10.525585237033427"><ele>16.0</ele><time>2026-04-20T15:14:11Z</time></trkpt><trkpt lat="43.002939149935706" lon="10.525733030886343"><ele>16.0</ele><time>2026-04-20T15:14:12Z</time></trkpt><trkpt lat="43.00281243046164" lon="10.525880607649635"><ele>16.0</ele><time>2026-04-20T15:14:13Z</time></trkpt><trkpt lat="43.002684874146475" lon="10.526022669895712"><ele>16.0</ele><time>2026-04-20T15:14:14Z</time></trkpt><trkpt lat="43.002563221032254" lon="10.526155608087402"><ele>16.0</ele><time>2026-04-20T15:14:15Z</time></trkpt><trkpt lat="43.00245058519112" lon="10.52629260787957"><ele>16.0</ele><time>2026-04-20T15:14:16Z</time></trkpt><trkpt lat="43.00234424077179" lon="10.526415331160743"><ele>16.0</ele><time>2026-04-20T15:14:17Z</time></trkpt><trkpt lat="43.002242052362725" lon="10.526536560150111"><ele>17.25</ele><time>2026-04-20T15:14:18Z</time></trkpt><trkpt lat="43.00213345009905" lon="10.526663676937662"><ele>18.5</ele><time>2026-04-20T15:14:19Z</time></trkpt><trkpt lat="43.002027252554875" lon="10.526784849689037"><ele>19.75</ele><time>2026-04-20T15:14:20Z</time></trkpt><trkpt lat="43.001911609398164" lon="10.526915696605036"><ele>21.0</ele><time>2026-04-20T15:14:21Z</time></trkpt><trkpt lat="43.00179378580726" lon="10.527047633963642"><ele>21.0</ele><time>2026-04-20T15:14:22Z</time></trkpt><trkpt lat="43.001677526737275" lon="10.527184447149658"><ele>21.0</ele><time>2026-04-20T15:14:23Z</time></trkpt><trkpt lat="43.00155735654262" lon="10.527323326646815"><ele>21.0</ele><time>2026-04-20T15:14:24Z</time></trkpt><trkpt lat="43.00144337454531" lon="10.527458304410608"><ele>21.0</ele><time>2026-04-20T15:14:25Z</time></trkpt><trkpt lat="43.00133664533657" lon="10.52758229925409"><ele>21.0</ele><time>2026-04-20T15:14:26Z</time></trkpt><trkpt lat="43.00122862182816" lon="10.52770549697526"><ele>21.0</ele><time>2026-04-20T15:14:27Z</time></trkpt><trkpt lat="43.00111815604282" lon="10.527833800444034"><ele>21.0</ele><time>2026-04-20T15:14:28Z</time></trkpt><trkpt lat="43.00100669836256" lon="10.527964837992906"><ele>20.666666666666668</ele><time>2026-04-20T15:14:29Z</time></trkpt><trkpt lat="43.000893774627315" lon="10.528093421364815"><ele>20.333333333333336</ele><time>2026-04-20T15:14:30Z</time></trkpt><trkpt lat="43.00077680895044" lon="10.528227114113212"><ele>20.0</ele><time>2026-04-20T15:14:31Z</time></trkpt><trkpt lat="43.00066052894754" lon="10.52836243045505"><ele>20.25</ele><time>2026-04-20T15:14:32Z</time></trkpt><trkpt lat="43.00054299697211" lon="10.528490734356366"><ele>20.5</ele><time>2026-04-20T15:14:33Z</time></trkpt><trkpt lat="43.00044099382879" lon="10.52861151228237"><ele>20.75</ele><time>2026-04-20T15:14:34Z</time></trkpt><trkpt lat="43.00035108989244" lon="10.528714155619586"><ele>21.0</ele><time>2026-04-20T15:14:35Z</time></trkpt><trkpt lat="43.000268593074225" lon="10.528808051661546"><ele>21.0</ele><time>2026-04-20T15:14:36Z</time></trkpt><trkpt lat="43.000197328556325" lon="10.52889638829002"><ele>21.0</ele><time>2026-04-20T15:14:37Z</time></trkpt><trkpt lat="43.00013199737415" lon="10.52897463911938"><ele>21.0</ele><time>2026-04-20T15:14:38Z</time></trkpt><trkpt lat="43.00007747792601" lon="10.529041916579823"><ele>21.0</ele><time>2026-04-20T15:14:39Z</time></trkpt><trkpt lat="43.00001968952064" lon="10.52909362201996"><ele>21.0</ele><time>2026-04-20T15:14:40Z</time></trkpt><trkpt lat="42.9999624781412" lon="10.52913498633111"><ele>21.0</ele><time>2026-04-20T15:14:41Z</time></trkpt><trkpt lat="42.99989570285648" lon="10.529164608878279"><ele>21.0</ele><time>2026-04-20T15:14:42Z</time></trkpt><trkpt lat="42.99983130371558" lon="10.529191039795363"><ele>21.0</ele><time>2026-04-20T15:14:43Z</time></trkpt><trkpt lat="42.999770612359015" lon="10.52923292725402"><ele>21.0</ele><time>2026-04-20T15:14:44Z</time></trkpt><trkpt lat="42.999721943778525" lon="10.529305178770244"><ele>21.0</ele><time>2026-04-20T15:14:45Z</time></trkpt><trkpt lat="42.99968024388154" lon="10.529408126747468"><ele>21.0</ele><time>2026-04-20T15:14:46Z</time></trkpt><trkpt lat="42.99963995002941" lon="10.529516975049527"><ele>21.0</ele><time>2026-04-20T15:14:47Z</time></trkpt><trkpt lat="42.999572769594764" lon="10.529643717667101"><ele>21.200000000000003</ele><time>2026-04-20T15:14:48Z</time></trkpt><trkpt lat="42.99950519700339" lon="10.52973304287861"><ele>21.400000000000002</ele><time>2026-04-20T15:14:49Z</time></trkpt><trkpt lat="42.99942159312813" lon="10.529823380767779"><ele>21.6</ele><time>2026-04-20T15:14:50Z</time></trkpt><trkpt lat="42.999332390279626" lon="10.529921369124617"><ele>21.8</ele><time>2026-04-20T15:14:51Z</time></trkpt><trkpt lat="42.999232961723095" lon="10.530040246125344"><ele>22.0</ele><time>2026-04-20T15:14:52Z</time></trkpt><trkpt lat="42.99913840583689" lon="10.53014854176332"><ele>22.0</ele><time>2026-04-20T15:14:53Z</time></trkpt><trkpt lat="42.999037703993345" lon="10.530272039294795"><ele>22.0</ele><time>2026-04-20T15:14:54Z</time></trkpt><trkpt lat="42.998930393131545" lon="10.53039903443022"><ele>22.0</ele><time>2026-04-20T15:14:55Z</time></trkpt><trkpt lat="42.99881631923376" lon="10.530540179180703"><ele>22.0</ele><time>2026-04-20T15:14:56Z</time></trkpt><trkpt lat="42.9987058798711" lon="10.530675593605565"><ele>22.0</ele><time>2026-04-20T15:14:57Z</time></trkpt><trkpt lat="42.998586000118415" lon="10.530819415322533"><ele>22.0</ele><time>2026-04-20T15:14:58Z</time></trkpt><trkpt lat="42.998466760923655" lon="10.530962397628901"><ele>22.0</ele><time>2026-04-20T15:14:59Z</time></trkpt><trkpt lat="42.998332344184284" lon="10.531098869524586"><ele>21.333333333333332</ele><time>2026-04-20T15:15:00Z</time></trkpt><trkpt lat="42.99820010346966" lon="10.531247812223812"><ele>20.666666666666668</ele><time>2026-04-20T15:15:01Z</time></trkpt><trkpt lat="42.99807168783428" lon="10.531395672515869"><ele>20.0</ele><time>2026-04-20T15:15:02Z</time></trkpt><trkpt lat="42.99793719930533" lon="10.531546276454536"><ele>20.0</ele><time>2026-04-20T15:15:03Z</time></trkpt><trkpt lat="42.99780586792696" lon="10.531697957690788"><ele>20.0</ele><time>2026-04-20T15:15:04Z</time></trkpt><trkpt lat="42.99767216481098" lon="10.531852196062784"><ele>20.0</ele><time>2026-04-20T15:15:05Z</time></trkpt><trkpt lat="42.99754010288508" lon="10.532000345127496"><ele>19.333333333333336</ele><time>2026-04-20T15:15:06Z</time></trkpt><trkpt lat="42.9974140261726" lon="10.532149229522153"><ele>18.666666666666668</ele><time>2026-04-20T15:15:07Z</time></trkpt><trkpt lat="42.99728810312113" lon="10.53229594601709"><ele>18.0</ele><time>2026-04-20T15:15:08Z</time></trkpt><trkpt lat="42.9971708106895" lon="10.532436903187207"><ele>18.0</ele><time>2026-04-20T15:15:09Z</time></trkpt><trkpt lat="42.99705377078035" lon="10.532573285043128"><ele>18.0</ele><time>2026-04-20T15:15:10Z</time></trkpt><trkpt lat="42.99694397092662" lon="10.53269875658481"><ele>18.0</ele><time>2026-04-20T15:15:11Z</time></trkpt><trkpt lat="42.99683764259538" lon="10.532812054816763"><ele>18.0</ele><time>2026-04-20T15:15:12Z</time></trkpt><trkpt lat="42.9967321899598" lon="10.532920168444026"><ele>18.75</ele><time>2026-04-20T15:15:13Z</time></trkpt><trkpt lat="42.99662091408453" lon="10.5330343297067"><ele>19.5</ele><time>2026-04-20T15:15:14Z</time></trkpt><trkpt lat="42.996509629891044" lon="10.533146747641444"><ele>20.25</ele><time>2026-04-20T15:15:15Z</time></trkpt><trkpt lat="42.99639535863322" lon="10.533256089722897"><ele>21.0</ele><time>2026-04-20T15:15:16Z</time></trkpt><trkpt lat="42.996280694047094" lon="10.533358694241317"><ele>21.0</ele><time>2026-04-20T15:15:17Z</time></trkpt><trkpt lat="42.99617163650691" lon="10.53345275893131"><ele>21.0</ele><time>2026-04-20T15:15:18Z</time></trkpt><trkpt lat="42.99604744152179" lon="10.533544335946333"><ele>21.0</ele><time>2026-04-20T15:15:19Z</time></trkpt><trkpt lat="42.99591607910789" lon="10.533631264673536"><ele>21.0</ele><time>2026-04-20T15:15:20Z</time></trkpt><trkpt lat="42.99577895711195" lon="10.533718154268417"><ele>21.75</ele><time>2026-04-20T15:15:21Z</time></trkpt><trkpt lat="42.99565142975298" lon="10.533793273755185"><ele>22.5</ele><time>2026-04-20T15:15:22Z</time></trkpt><trkpt lat="42.9955225028205" lon="10.533861746702767"><ele>23.25</ele><time>2026-04-20T15:15:23Z</time></trkpt><trkpt lat="42.99538606177024" lon="10.533925053654523"><ele>24.0</ele><time>2026-04-20T15:15:24Z</time></trkpt><trkpt lat="42.9952480385796" lon="10.533980757170326"><ele>24.0</ele><time>2026-04-20T15:15:25Z</time></trkpt><trkpt lat="42.995110912415164" lon="10.534033838602436"><ele>24.0</ele><time>2026-04-20T15:15:26Z</time></trkpt><trkpt lat="42.994967288999966" lon="10.534085076614213"><ele>24.0</ele><time>2026-04-20T15:15:27Z</time></trkpt><trkpt lat="42.99482390284955" lon="10.534136208060978"><ele>24.0</ele><time>2026-04-20T15:15:28Z</time></trkpt><trkpt lat="42.99468041255338" lon="10.53415507471816"><ele>25.0</ele><time>2026-04-20T15:15:29Z</time></trkpt><trkpt lat="42.99453462837825" lon="10.534186970938991"><ele>26.0</ele><time>2026-04-20T15:15:30Z</time></trkpt><trkpt lat="42.99440007288646" lon="10.534210833325139"><ele>27.0</ele><time>2026-04-20T15:15:31Z</time></trkpt><trkpt lat="42.99427866474419" lon="10.534201747694757"><ele>28.0</ele><time>2026-04-20T15:15:32Z</time></trkpt><trkpt lat="42.99414536231681" lon="10.53420773788995"><ele>28.25</ele><time>2026-04-20T15:15:33Z</time></trkpt><trkpt lat="42.99400039976803" lon="10.534200905045868"><ele>28.5</ele><time>2026-04-20T15:15:34Z</time></trkpt><trkpt lat="42.993857518308815" lon="10.5341883803949"><ele>28.75</ele><time>2026-04-20T15:15:35Z</time></trkpt><trkpt lat="42.99371031871293" lon="10.534157706663006"><ele>29.0</ele><time>2026-04-20T15:15:36Z</time></trkpt><trkpt lat="42.99355950109258" lon="10.534146191205133"><ele>29.0</ele><time>2026-04-20T15:15:37Z</time></trkpt><trkpt lat="42.99340083139897" lon="10.534122348505214"><ele>29.0</ele><time>2026-04-20T15:15:38Z</time></trkpt><trkpt lat="42.99324384109675" lon="10.534091390665152"><ele>29.0</ele><time>2026-04-20T15:15:39Z</time></trkpt><trkpt lat="42.99309464242489" lon="10.534063358710256"><ele>29.0</ele><time>2026-04-20T15:15:40Z</time></trkpt><trkpt lat="42.992940468055814" lon="10.534031898328504"><ele>29.0</ele><time>2026-04-20T15:15:41Z</time></trkpt><trkpt lat="42.99278137774872" lon="10.534009571818258"><ele>29.0</ele><time>2026-04-20T15:15:42Z</time></trkpt><trkpt lat="42.992621175702375" lon="10.5339832350882"><ele>28.333333333333332</ele><time>2026-04-20T15:15:43Z</time></trkpt><trkpt lat="42.99246336305766" lon="10.533958553428338"><ele>27.666666666666664</ele><time>2026-04-20T15:15:44Z</time></trkpt><trkpt lat="42.99230083847165" lon="10.533926979768214"><ele>27.0</ele><time>2026-04-20T15:15:45Z</time></trkpt><trkpt lat="42.992134369969705" lon="10.533897068158833"><ele>27.0</ele><time>2026-04-20T15:15:46Z</time></trkpt><trkpt lat="42.99196277576403" lon="10.533878630818093"><ele>27.0</ele><time>2026-04-20T15:15:47Z</time></trkpt><trkpt lat="42.991784453506654" lon="10.533838951190424"><ele>27.0</ele><time>2026-04-20T15:15:48Z</time></trkpt><trkpt lat="42.991602071834954" lon="10.533808198820024"><ele>25.666666666666668</ele><time>2026-04-20T15:15:49Z</time></trkpt><trkpt lat="42.99141363825018" lon="10.533774112769429"><ele>24.333333333333336</ele><time>2026-04-20T15:15:50Z</time></trkpt><trkpt lat="42.99122847563171" lon="10.533749054167115"><ele>23.0</ele><time>2026-04-20T15:15:51Z</time></trkpt><trkpt lat="42.99103407882875" lon="10.533720430195936"><ele>20.666666666666668</ele><time>2026-04-20T15:15:52Z</time></trkpt><trkpt lat="42.990838427602654" lon="10.533695262529184"><ele>18.333333333333332</ele><time>2026-04-20T15:15:53Z</time></trkpt><trkpt lat="42.990641391234746" lon="10.533643376966813"><ele>16.0</ele><time>2026-04-20T15:15:54Z</time></trkpt><trkpt lat="42.99044081753386" lon="10.533609338419781"><ele>16.0</ele><time>2026-04-20T15:15:55Z</time></trkpt><trkpt lat="42.99023773005082" lon="10.533594604581095"><ele>16.0</ele><time>2026-04-20T15:15:56Z</time></trkpt><trkpt lat="42.99003565274707" lon="10.533553233136281"><ele>16.0</ele><time>2026-04-20T15:15:57Z</time></trkpt><trkpt lat="42.98983698121624" lon="10.53350997819732"><ele>15.0</ele><time>2026-04-20T15:15:58Z</time></trkpt><trkpt lat="42.98963177406655" lon="10.533462438050895"><ele>14.0</ele><time>2026-04-20T15:15:59Z</time></trkpt><trkpt lat="42.98942832930718" lon="10.533427686859074"><ele>13.0</ele><time>2026-04-20T15:16:00Z</time></trkpt><trkpt lat="42.98922806897667" lon="10.533392174148053"><ele>12.0</ele><time>2026-04-20T15:16:01Z</time></trkpt><trkpt lat="42.989028417612715" lon="10.533352805733456"><ele>11.0</ele><time>2026-04-20T15:16:02Z</time></trkpt><trkpt lat="42.988832082856504" lon="10.53332116799161"><ele>10.0</ele><time>2026-04-20T15:16:03Z</time></trkpt><trkpt lat="42.98863386751696" lon="10.533289554650484"><ele>10.0</ele><time>2026-04-20T15:16:04Z</time></trkpt><trkpt lat="42.988442023838644" lon="10.53325464806486"><ele>10.0</ele><time>2026-04-20T15:16:05Z</time></trkpt><trkpt lat="42.988247591939114" lon="10.533223210572242"><ele>10.0</ele><time>2026-04-20T15:16:06Z</time></trkpt><trkpt lat="42.98805425034006" lon="10.533191968981924"><ele>10.333333333333334</ele><time>2026-04-20T15:16:07Z</time></trkpt><trkpt lat="42.987863196804355" lon="10.533155465460625"><ele>10.666666666666666</ele><time>2026-04-20T15:16:08Z</time></trkpt><trkpt lat="42.987670248513695" lon="10.533123489589482"><ele>11.0</ele><time>2026-04-20T15:16:09Z</time></trkpt><trkpt lat="42.987478686758685" lon="10.533091556600306"><ele>10.0</ele><time>2026-04-20T15:16:10Z</time></trkpt><trkpt lat="42.9872866479139" lon="10.533055601144545"><ele>9.0</ele><time>2026-04-20T15:16:11Z</time></trkpt><trkpt lat="42.98709363090401" lon="10.533023463791364"><ele>8.0</ele><time>2026-04-20T15:16:12Z</time></trkpt><trkpt lat="42.986898054194185" lon="10.532989751436334"><ele>8.0</ele><time>2026-04-20T15:16:13Z</time></trkpt><trkpt lat="42.98670200302182" lon="10.532957844511406"><ele>8.0</ele><time>2026-04-20T15:16:14Z</time></trkpt><trkpt lat="42.98650611851856" lon="10.53292400724983"><ele>8.0</ele><time>2026-04-20T15:16:15Z</time></trkpt><trkpt lat="42.986309280048445" lon="10.532887321446559"><ele>7.333333333333333</ele><time>2026-04-20T15:16:16Z</time></trkpt><trkpt lat="42.98611079984361" lon="10.532850010247973"><ele>6.666666666666666</ele><time>2026-04-20T15:16:17Z</time></trkpt><trkpt lat="42.985912395824016" lon="10.532811891892226"><ele>6.0</ele><time>2026-04-20T15:16:18Z</time></trkpt><trkpt lat="42.985713257638686" lon="10.532775496348293"><ele>5.333333333333333</ele><time>2026-04-20T15:16:19Z</time></trkpt><trkpt lat="42.98551516714014" lon="10.532739270282264"><ele>4.666666666666666</ele><time>2026-04-20T15:16:20Z</time></trkpt><trkpt lat="42.985316702138675" lon="10.532705297688574"><ele>4.0</ele><time>2026-04-20T15:16:21Z</time></trkpt><trkpt lat="42.985118551385185" lon="10.532671298498732"><ele>4.0</ele><time>2026-04-20T15:16:22Z</time></trkpt><trkpt lat="42.984919051876915" lon="10.532638695744108"><ele>4.0</ele><time>2026-04-20T15:16:23Z</time></trkpt><trkpt lat="42.9847180975081" lon="10.532600721478232"><ele>4.0</ele><time>2026-04-20T15:16:24Z</time></trkpt><trkpt lat="42.98451923823108" lon="10.532566946908169"><ele>4.0</ele><time>2026-04-20T15:16:25Z</time></trkpt><trkpt lat="42.984323462962415" lon="10.53252959835375"><ele>4.0</ele><time>2026-04-20T15:16:26Z</time></trkpt><trkpt lat="42.9841279755234" lon="10.532493200867433"><ele>4.0</ele><time>2026-04-20T15:16:27Z</time></trkpt><trkpt lat="42.983933849318106" lon="10.53245738027372"><ele>4.666666666666666</ele><time>2026-04-20T15:16:28Z</time></trkpt><trkpt lat="42.9837417047718" lon="10.532422211313461"><ele>5.333333333333333</ele><time>2026-04-20T15:16:29Z</time></trkpt><trkpt lat="42.983548699069736" lon="10.532387988684938"><ele>6.0</ele><time>2026-04-20T15:16:30Z</time></trkpt><trkpt lat="42.98335477727297" lon="10.53235543556133"><ele>6.666666666666666</ele><time>2026-04-20T15:16:31Z</time></trkpt><trkpt lat="42.983159674713086" lon="10.532318984392328"><ele>7.333333333333333</ele><time>2026-04-20T15:16:32Z</time></trkpt><trkpt lat="42.98296565046225" lon="10.532283233437408"><ele>8.0</ele><time>2026-04-20T15:16:33Z</time></trkpt><trkpt lat="42.98277163292601" lon="10.532242693240892"><ele>8.0</ele><time>2026-04-20T15:16:34Z</time></trkpt><trkpt lat="42.98257948101851" lon="10.532206682362022"><ele>8.0</ele><time>2026-04-20T15:16:35Z</time></trkpt><trkpt lat="42.98238694703394" lon="10.532171063383661"><ele>8.0</ele><time>2026-04-20T15:16:36Z</time></trkpt><trkpt lat="42.98219577271675" lon="10.532132937893174"><ele>7.666666666666666</ele><time>2026-04-20T15:16:37Z</time></trkpt><trkpt lat="42.98200300976914" lon="10.532098187896061"><ele>7.333333333333334</ele><time>2026-04-20T15:16:38Z</time></trkpt><trkpt lat="42.981810049039" lon="10.532065206803132"><ele>7.0</ele><time>2026-04-20T15:16:39Z</time></trkpt><trkpt lat="42.981618332443674" lon="10.532029361353912"><ele>7.666666666666667</ele><time>2026-04-20T15:16:40Z</time></trkpt><trkpt lat="42.98142678383089" lon="10.531996540374383"><ele>8.333333333333334</ele><time>2026-04-20T15:16:41Z</time></trkpt><trkpt lat="42.98123429256838" lon="10.531964674032391"><ele>9.0</ele><time>2026-04-20T15:16:42Z</time></trkpt><trkpt lat="42.98104128661199" lon="10.531930286051026"><ele>9.0</ele><time>2026-04-20T15:16:43Z</time></trkpt><trkpt lat="42.98084713721482" lon="10.531896861273593"><ele>9.0</ele><time>2026-04-20T15:16:44Z</time></trkpt><trkpt lat="42.98065221400043" lon="10.531861895991817"><ele>9.0</ele><time>2026-04-20T15:16:45Z</time></trkpt><trkpt lat="42.98045981867755" lon="10.53182348449155"><ele>9.0</ele><time>2026-04-20T15:16:46Z</time></trkpt><trkpt lat="42.98026535581962" lon="10.53179213147008"><ele>9.0</ele><time>2026-04-20T15:16:47Z</time></trkpt><trkpt lat="42.98006870051981" lon="10.531758531344531"><ele>9.0</ele><time>2026-04-20T15:16:48Z</time></trkpt><trkpt lat="42.97987403573216" lon="10.531722113305346"><ele>9.0</ele><time>2026-04-20T15:16:49Z</time></trkpt><trkpt lat="42.97968001936135" lon="10.531687589292467"><ele>9.0</ele><time>2026-04-20T15:16:50Z</time></trkpt><trkpt lat="42.97948816219442" lon="10.531654010297933"><ele>9.0</ele><time>2026-04-20T15:16:51Z</time></trkpt><trkpt lat="42.9792954039998" lon="10.531617788381649"><ele>11.0</ele><time>2026-04-20T15:16:52Z</time></trkpt><trkpt lat="42.97910313838922" lon="10.531585904230626"><ele>13.0</ele><time>2026-04-20T15:16:53Z</time></trkpt><trkpt lat="42.97891252223202" lon="10.53155502340855"><ele>15.0</ele><time>2026-04-20T15:16:54Z</time></trkpt><trkpt lat="42.97872397629484" lon="10.531518189281869"><ele>15.0</ele><time>2026-04-20T15:16:55Z</time></trkpt><trkpt lat="42.97853925198679" lon="10.53148289825672"><ele>15.0</ele><time>2026-04-20T15:16:56Z</time></trkpt><trkpt lat="42.97835646330511" lon="10.531448301161756"><ele>15.0</ele><time>2026-04-20T15:16:57Z</time></trkpt><trkpt lat="42.97817262491187" lon="10.531414824123374"><ele>16.333333333333332</ele><time>2026-04-20T15:16:58Z</time></trkpt><trkpt lat="42.977994297472925" lon="10.531381752885745"><ele>17.666666666666664</ele><time>2026-04-20T15:16:59Z</time></trkpt><trkpt lat="42.97781183212944" lon="10.531348526771392"><ele>19.0</ele><time>2026-04-20T15:17:00Z</time></trkpt><trkpt lat="42.97763281818978" lon="10.531321977371094"><ele>19.666666666666664</ele><time>2026-04-20T15:17:01Z</time></trkpt><trkpt lat="42.9774524853334" lon="10.531288664900023"><ele>20.333333333333332</ele><time>2026-04-20T15:17:02Z</time></trkpt><trkpt lat="42.977275673394615" lon="10.531256254580066"><ele>21.0</ele><time>2026-04-20T15:17:03Z</time></trkpt><trkpt lat="42.9770981759409" lon="10.531223170657238"><ele>21.666666666666668</ele><time>2026-04-20T15:17:04Z</time></trkpt><trkpt lat="42.97692284045897" lon="10.531189781111918"><ele>22.333333333333336</ele><time>2026-04-20T15:17:05Z</time></trkpt><trkpt lat="42.976747265394714" lon="10.531157126833483"><ele>23.0</ele><time>2026-04-20T15:17:06Z</time></trkpt><trkpt lat="42.97657512838918" lon="10.531126170422697"><ele>23.0</ele><time>2026-04-20T15:17:07Z</time></trkpt><trkpt lat="42.97640121462193" lon="10.531101515194344"><ele>23.0</ele><time>2026-04-20T15:17:08Z</time></trkpt><trkpt lat="42.97622799335925" lon="10.531067858157737"><ele>23.0</ele><time>2026-04-20T15:17:09Z</time></trkpt><trkpt lat="42.97605461442557" lon="10.531038076383425"><ele>23.0</ele><time>2026-04-20T15:17:10Z</time></trkpt><trkpt lat="42.9758828988709" lon="10.531006254481087"><ele>23.0</ele><time>2026-04-20T15:17:11Z</time></trkpt><trkpt lat="42.975713066711386" lon="10.530973609308166"><ele>23.0</ele><time>2026-04-20T15:17:12Z</time></trkpt><trkpt lat="42.97554494266394" lon="10.530944345272937"><ele>23.0</ele><time>2026-04-20T15:17:13Z</time></trkpt><trkpt lat="42.97537944830997" lon="10.53091249141341"><ele>23.0</ele><time>2026-04-20T15:17:14Z</time></trkpt><trkpt lat="42.97521574547772" lon="10.530882778615622"><ele>23.0</ele><time>2026-04-20T15:17:15Z</time></trkpt><trkpt lat="42.97505225761023" lon="10.53085080195441"><ele>25.0</ele><time>2026-04-20T15:17:16Z</time></trkpt><trkpt lat="42.974888032914414" lon="10.530820808325986"><ele>27.0</ele><time>2026-04-20T15:17:17Z</time></trkpt><trkpt lat="42.974728186722444" lon="10.530788875048481"><ele>29.0</ele><time>2026-04-20T15:17:18Z</time></trkpt><trkpt lat="42.974568371668646" lon="10.53075619956772"><ele>29.0</ele><time>2026-04-20T15:17:19Z</time></trkpt><trkpt lat="42.97441346510895" lon="10.530726238273388"><ele>29.0</ele><time>2026-04-20T15:17:20Z</time></trkpt><trkpt lat="42.9742588981742" lon="10.530698734975227"><ele>29.0</ele><time>2026-04-20T15:17:21Z</time></trkpt><trkpt lat="42.97411339918408" lon="10.530675951493498"><ele>31.666666666666664</ele><time>2026-04-20T15:17:22Z</time></trkpt><trkpt lat="42.97395891453216" lon="10.530649833902254"><ele>34.333333333333336</ele><time>2026-04-20T15:17:23Z</time></trkpt><trkpt lat="42.97380637366978" lon="10.530619665631848"><ele>37.0</ele><time>2026-04-20T15:17:24Z</time></trkpt><trkpt lat="42.973656605426456" lon="10.5305981667538"><ele>37.0</ele><time>2026-04-20T15:17:25Z</time></trkpt><trkpt lat="42.97350633852828" lon="10.530577549609399"><ele>37.0</ele><time>2026-04-20T15:17:26Z</time></trkpt><trkpt lat="42.973359254146125" lon="10.530550281992465"><ele>37.0</ele><time>2026-04-20T15:17:27Z</time></trkpt><trkpt lat="42.9732162639144" lon="10.530538414006454"><ele>37.0</ele><time>2026-04-20T15:17:28Z</time></trkpt><trkpt lat="42.973072348776356" lon="10.530538443862216"><ele>40.0</ele><time>2026-04-20T15:17:29Z</time></trkpt><trkpt lat="42.97292942213743" lon="10.530577308842402"><ele>43.0</ele><time>2026-04-20T15:17:30Z</time></trkpt><trkpt lat="42.972781869014206" lon="10.530642755761544"><ele>46.0</ele><time>2026-04-20T15:17:31Z</time></trkpt><trkpt lat="42.97263821234971" lon="10.530718829277275"><ele>44.333333333333336</ele><time>2026-04-20T15:17:32Z</time></trkpt><trkpt lat="42.97249534361594" lon="10.530813986328564"><ele>42.666666666666664</ele><time>2026-04-20T15:17:33Z</time></trkpt><trkpt lat="42.97235056366672" lon="10.530911168583334"><ele>41.0</ele><time>2026-04-20T15:17:34Z</time></trkpt><trkpt lat="42.97220827357081" lon="10.531014455679983"><ele>41.0</ele><time>2026-04-20T15:17:35Z</time></trkpt><trkpt lat="42.97206587391201" lon="10.531122374123646"><ele>41.0</ele><time>2026-04-20T15:17:36Z</time></trkpt><trkpt lat="42.97192120147547" lon="10.531230188234348"><ele>41.0</ele><time>2026-04-20T15:17:37Z</time></trkpt><trkpt lat="42.97177805971858" lon="10.531336207318105"><ele>39.5</ele><time>2026-04-20T15:17:38Z</time></trkpt><trkpt lat="42.97164056195605" lon="10.531435644875506"><ele>38.0</ele><time>2026-04-20T15:17:39Z</time></trkpt><trkpt lat="42.97150993766809" lon="10.531533964306506"><ele>36.5</ele><time>2026-04-20T15:17:40Z</time></trkpt><trkpt lat="42.971386779450356" lon="10.531629498496551"><ele>35.0</ele><time>2026-04-20T15:17:41Z</time></trkpt><trkpt lat="42.97125572654943" lon="10.531721196605963"><ele>35.0</ele><time>2026-04-20T15:17:42Z</time></trkpt><trkpt lat="42.97112476615594" lon="10.531817976651892"><ele>35.0</ele><time>2026-04-20T15:17:43Z</time></trkpt><trkpt lat="42.970993373840535" lon="10.531914979105744"><ele>35.0</ele><time>2026-04-20T15:17:44Z</time></trkpt><trkpt lat="42.97086302510764" lon="10.53201640512791"><ele>35.0</ele><time>2026-04-20T15:17:45Z</time></trkpt><trkpt lat="42.970702462510324" lon="10.532121797087228"><ele>33.0</ele><time>2026-04-20T15:17:46Z</time></trkpt><trkpt lat="42.97056642215636" lon="10.532223880868639"><ele>31.0</ele><time>2026-04-20T15:17:47Z</time></trkpt><trkpt lat="42.97043556798006" lon="10.532322430882665"><ele>29.0</ele><time>2026-04-20T15:17:48Z</time></trkpt><trkpt lat="42.970306420809145" lon="10.532426717411386"><ele>29.0</ele><time>2026-04-20T15:17:49Z</time></trkpt><trkpt lat="42.970175298385776" lon="10.532524872034902"><ele>29.0</ele><time>2026-04-20T15:17:50Z</time></trkpt><trkpt lat="42.970051568623575" lon="10.532623690735292"><ele>29.0</ele><time>2026-04-20T15:17:51Z</time></trkpt><trkpt lat="42.96993292806634" lon="10.532713885005148"><ele>29.0</ele><time>2026-04-20T15:17:52Z</time></trkpt><trkpt lat="42.969818795431884" lon="10.532803343812285"><ele>27.25</ele><time>2026-04-20T15:17:53Z</time></trkpt><trkpt lat="42.96970453521189" lon="10.53289416974309"><ele>25.5</ele><time>2026-04-20T15:17:54Z</time></trkpt><trkpt lat="42.96958932880315" lon="10.532982696285188"><ele>23.75</ele><time>2026-04-20T15:17:55Z</time></trkpt><trkpt lat="42.9694789711355" lon="10.533062423377178"><ele>22.0</ele><time>2026-04-20T15:17:56Z</time></trkpt><trkpt lat="42.96937215386819" lon="10.533139636524593"><ele>22.0</ele><time>2026-04-20T15:17:57Z</time></trkpt><trkpt lat="42.96926234605284" lon="10.53322016446877"><ele>22.0</ele><time>2026-04-20T15:17:58Z</time></trkpt><trkpt lat="42.9691534588579" lon="10.53329920566504"><ele>22.0</ele><time>2026-04-20T15:17:59Z</time></trkpt><trkpt lat="42.969044394864156" lon="10.533383055501501"><ele>22.0</ele><time>2026-04-20T15:18:00Z</time></trkpt><trkpt lat="42.96893185705286" lon="10.533468647116758"><ele>20.75</ele><time>2026-04-20T15:18:01Z</time></trkpt><trkpt lat="42.96881902358954" lon="10.533554589378687"><ele>19.5</ele><time>2026-04-20T15:18:02Z</time></trkpt><trkpt lat="42.96870888744845" lon="10.533635459846098"><ele>18.25</ele><time>2026-04-20T15:18:03Z</time></trkpt><trkpt lat="42.96859604464359" lon="10.533720644577409"><ele>17.0</ele><time>2026-04-20T15:18:04Z</time></trkpt><trkpt lat="42.968482170401664" lon="10.533804047588474"><ele>16.5</ele><time>2026-04-20T15:18:05Z</time></trkpt><trkpt lat="42.96836513528291" lon="10.533889374599193"><ele>16.0</ele><time>2026-04-20T15:18:06Z</time></trkpt><trkpt lat="42.96825885419353" lon="10.533966547780906"><ele>15.5</ele><time>2026-04-20T15:18:07Z</time></trkpt><trkpt lat="42.96815074721878" lon="10.534044679786032"><ele>15.0</ele><time>2026-04-20T15:18:08Z</time></trkpt><trkpt lat="42.96804028247721" lon="10.534122868193373"><ele>14.75</ele><time>2026-04-20T15:18:09Z</time></trkpt><trkpt lat="42.967930411751915" lon="10.534207253119831"><ele>14.5</ele><time>2026-04-20T15:18:10Z</time></trkpt><trkpt lat="42.9678231830922" lon="10.534291498020593"><ele>14.25</ele><time>2026-04-20T15:18:11Z</time></trkpt><trkpt lat="42.96771885557471" lon="10.53436635998652"><ele>14.0</ele><time>2026-04-20T15:18:12Z</time></trkpt><trkpt lat="42.967612779861355" lon="10.534442400694957"><ele>14.5</ele><time>2026-04-20T15:18:13Z</time></trkpt><trkpt lat="42.9675025606071" lon="10.534517669511924"><ele>15.0</ele><time>2026-04-20T15:18:14Z</time></trkpt><trkpt lat="42.96738756236447" lon="10.534595016251963"><ele>15.5</ele><time>2026-04-20T15:18:15Z</time></trkpt><trkpt lat="42.9672757955471" lon="10.53467566745518"><ele>16.0</ele><time>2026-04-20T15:18:16Z</time></trkpt><trkpt lat="42.96716542092235" lon="10.534756748003305"><ele>16.0</ele><time>2026-04-20T15:18:17Z</time></trkpt><trkpt lat="42.96706249042351" lon="10.534837681804145"><ele>16.0</ele><time>2026-04-20T15:18:18Z</time></trkpt><trkpt lat="42.966958914267295" lon="10.534916996653909"><ele>16.0</ele><time>2026-04-20T15:18:19Z</time></trkpt><trkpt lat="42.966856435848015" lon="10.53499631775851"><ele>16.0</ele><time>2026-04-20T15:18:20Z</time></trkpt><trkpt lat="42.9667543566147" lon="10.535068133921577"><ele>15.8</ele><time>2026-04-20T15:18:21Z</time></trkpt><trkpt lat="42.96665712149295" lon="10.535133054078843"><ele>15.600000000000001</ele><time>2026-04-20T15:18:22Z</time></trkpt><trkpt lat="42.966557612871966" lon="10.535207371877274"><ele>15.4</ele><time>2026-04-20T15:18:23Z</time></trkpt><trkpt lat="42.96646031153451" lon="10.535275649412943"><ele>15.2</ele><time>2026-04-20T15:18:24Z</time></trkpt><trkpt lat="42.966350786442085" lon="10.53533533204689"><ele>15.0</ele><time>2026-04-20T15:18:25Z</time></trkpt><trkpt lat="42.96623979988739" lon="10.535427630863405"><ele>15.0</ele><time>2026-04-20T15:18:26Z</time></trkpt><trkpt lat="42.96612773197638" lon="10.535496020761062"><ele>15.0</ele><time>2026-04-20T15:18:27Z</time></trkpt><trkpt lat="42.96602447875072" lon="10.535568790361435"><ele>15.0</ele><time>2026-04-20T15:18:28Z</time></trkpt><trkpt lat="42.965918651006035" lon="10.535642295983564"><ele>15.0</ele><time>2026-04-20T15:18:29Z</time></trkpt><trkpt lat="42.965810887352" lon="10.535713666975129"><ele>16.5</ele><time>2026-04-20T15:18:30Z</time></trkpt><trkpt lat="42.9657037183378" lon="10.535787367649698"><ele>18.0</ele><time>2026-04-20T15:18:31Z</time></trkpt><trkpt lat="42.965599732212745" lon="10.535860057098178"><ele>19.5</ele><time>2026-04-20T15:18:32Z</time></trkpt><trkpt lat="42.96549910443487" lon="10.535931837150626"><ele>21.0</ele><time>2026-04-20T15:18:33Z</time></trkpt><trkpt lat="42.96539177031788" lon="10.53600316101082"><ele>21.0</ele><time>2026-04-20T15:18:34Z</time></trkpt><trkpt lat="42.96528583324298" lon="10.536075191348651"><ele>21.0</ele><time>2026-04-20T15:18:35Z</time></trkpt><trkpt lat="42.96518018360471" lon="10.536143089962207"><ele>21.0</ele><time>2026-04-20T15:18:36Z</time></trkpt><trkpt lat="42.96507096163209" lon="10.536193667523358"><ele>21.0</ele><time>2026-04-20T15:18:37Z</time></trkpt><trkpt lat="42.96495505069266" lon="10.536241438621808"><ele>19.75</ele><time>2026-04-20T15:18:38Z</time></trkpt><trkpt lat="42.9648278099345" lon="10.536281130869385"><ele>18.5</ele><time>2026-04-20T15:18:39Z</time></trkpt><trkpt lat="42.96471086178623" lon="10.53630864750427"><ele>17.25</ele><time>2026-04-20T15:18:40Z</time></trkpt><trkpt lat="42.964596620400016" lon="10.53633526872125"><ele>16.0</ele><time>2026-04-20T15:18:41Z</time></trkpt><trkpt lat="42.9644841907585" lon="10.536356640873123"><ele>16.0</ele><time>2026-04-20T15:18:42Z</time></trkpt><trkpt lat="42.96437103360535" lon="10.536372920165833"><ele>16.0</ele><time>2026-04-20T15:18:43Z</time></trkpt><trkpt lat="42.96425616365658" lon="10.536388557870016"><ele>16.0</ele><time>2026-04-20T15:18:44Z</time></trkpt><trkpt lat="42.96415272480183" lon="10.536401327698941"><ele>16.0</ele><time>2026-04-20T15:18:45Z</time></trkpt><trkpt lat="42.964076401394664" lon="10.536412125850187"><ele>16.0</ele><time>2026-04-20T15:18:46Z</time></trkpt><trkpt lat="42.96400334810608" lon="10.536418597627687"><ele>15.8</ele><time>2026-04-20T15:18:47Z</time></trkpt><trkpt lat="42.96393020287943" lon="10.536427137704237"><ele>15.600000000000001</ele><time>2026-04-20T15:18:48Z</time></trkpt><trkpt lat="42.96384830045442" lon="10.536439410899371"><ele>15.4</ele><time>2026-04-20T15:18:49Z</time></trkpt><trkpt lat="42.96375295299958" lon="10.536455677173734"><ele>15.2</ele><time>2026-04-20T15:18:50Z</time></trkpt><trkpt lat="42.963647017135635" lon="10.536471137466721"><ele>15.0</ele><time>2026-04-20T15:18:51Z</time></trkpt><trkpt lat="42.963545881528425" lon="10.536485685864367"><ele>15.0</ele><time>2026-04-20T15:18:52Z</time></trkpt><trkpt lat="42.96347023178735" lon="10.53649828838087"><ele>15.0</ele><time>2026-04-20T15:18:53Z</time></trkpt><trkpt lat="42.96340077081479" lon="10.536510101263307"><ele>15.0</ele><time>2026-04-20T15:18:54Z</time></trkpt><trkpt lat="42.96331688969165" lon="10.536528507704709"><ele>15.0</ele><time>2026-04-20T15:18:55Z</time></trkpt><trkpt lat="42.963221069200095" lon="10.536547900529703"><ele>15.0</ele><time>2026-04-20T15:18:56Z</time></trkpt><trkpt lat="42.963110304941175" lon="10.536569569674338"><ele>15.0</ele><time>2026-04-20T15:18:57Z</time></trkpt><trkpt lat="42.96299580095234" lon="10.536593863505802"><ele>14.25</ele><time>2026-04-20T15:18:58Z</time></trkpt><trkpt lat="42.96287754133341" lon="10.536642276218481"><ele>13.5</ele><time>2026-04-20T15:18:59Z</time></trkpt><trkpt lat="42.96275045782311" lon="10.536669477012016"><ele>12.75</ele><time>2026-04-20T15:19:00Z</time></trkpt><trkpt lat="42.96261894978591" lon="10.536672468241232"><ele>12.0</ele><time>2026-04-20T15:19:01Z</time></trkpt><trkpt lat="42.96249815741403" lon="10.536705705320788"><ele>11.25</ele><time>2026-04-20T15:19:02Z</time></trkpt><trkpt lat="42.96237887572076" lon="10.536737570295267"><ele>10.5</ele><time>2026-04-20T15:19:03Z</time></trkpt><trkpt lat="42.9622536806299" lon="10.536769763628461"><ele>9.75</ele><time>2026-04-20T15:19:04Z</time></trkpt><trkpt lat="42.962123862136615" lon="10.53679508946518"><ele>9.0</ele><time>2026-04-20T15:19:05Z</time></trkpt><trkpt lat="42.96199579485046" lon="10.53682172295284"><ele>9.0</ele><time>2026-04-20T15:19:06Z</time></trkpt><trkpt lat="42.96186849487067" lon="10.53684724257164"><ele>9.0</ele><time>2026-04-20T15:19:07Z</time></trkpt><trkpt lat="42.96174733785346" lon="10.536871775901407"><ele>9.0</ele><time>2026-04-20T15:19:08Z</time></trkpt><trkpt lat="42.961634317951265" lon="10.536897132379186"><ele>9.0</ele><time>2026-04-20T15:19:09Z</time></trkpt><trkpt lat="42.96150867413975" lon="10.53692309587731"><ele>9.0</ele><time>2026-04-20T15:19:10Z</time></trkpt><trkpt lat="42.961379122405894" lon="10.536951860604013"><ele>9.0</ele><time>2026-04-20T15:19:11Z</time></trkpt><trkpt lat="42.961244196181156" lon="10.536980312697262"><ele>9.0</ele><time>2026-04-20T15:19:12Z</time></trkpt><trkpt lat="42.96110641135369" lon="10.537009730665485"><ele>9.0</ele><time>2026-04-20T15:19:13Z</time></trkpt><trkpt lat="42.960966738656786" lon="10.537040475160232"><ele>8.5</ele><time>2026-04-20T15:19:14Z</time></trkpt><trkpt lat="42.96082324504276" lon="10.537068696257409"><ele>8.0</ele><time>2026-04-20T15:19:15Z</time></trkpt><trkpt lat="42.96068070841658" lon="10.537097988318195"><ele>7.5</ele><time>2026-04-20T15:19:16Z</time></trkpt><trkpt lat="42.9605371425678" lon="10.537131062884855"><ele>7.0</ele><time>2026-04-20T15:19:17Z</time></trkpt><trkpt lat="42.960385734710336" lon="10.537162281292305"><ele>7.0</ele><time>2026-04-20T15:19:18Z</time></trkpt><trkpt lat="42.960235920324955" lon="10.537194791437607"><ele>7.0</ele><time>2026-04-20T15:19:19Z</time></trkpt><trkpt lat="42.96009352579619" lon="10.53722354332587"><ele>7.0</ele><time>2026-04-20T15:19:20Z</time></trkpt><trkpt lat="42.959950920176205" lon="10.537257688498467"><ele>7.0</ele><time>2026-04-20T15:19:21Z</time></trkpt><trkpt lat="42.95980451735377" lon="10.53729114374798"><ele>7.25</ele><time>2026-04-20T15:19:22Z</time></trkpt><trkpt lat="42.95965606405521" lon="10.537322785924838"><ele>7.5</ele><time>2026-04-20T15:19:23Z</time></trkpt><trkpt lat="42.95951701027858" lon="10.537354620329724"><ele>7.75</ele><time>2026-04-20T15:19:24Z</time></trkpt><trkpt lat="42.95937593224355" lon="10.53738360072421"><ele>8.0</ele><time>2026-04-20T15:19:25Z</time></trkpt><trkpt lat="42.959232290786574" lon="10.53741037386815"><ele>7.75</ele><time>2026-04-20T15:19:26Z</time></trkpt><trkpt lat="42.95908573396999" lon="10.537440306323152"><ele>7.5</ele><time>2026-04-20T15:19:27Z</time></trkpt><trkpt lat="42.95894273838813" lon="10.537468054383837"><ele>7.25</ele><time>2026-04-20T15:19:28Z</time></trkpt><trkpt lat="42.958798094528746" lon="10.537503933259833"><ele>7.0</ele><time>2026-04-20T15:19:29Z</time></trkpt><trkpt lat="42.958654838427236" lon="10.537542350066095"><ele>7.0</ele><time>2026-04-20T15:19:30Z</time></trkpt><trkpt lat="42.95851611972433" lon="10.5375728312663"><ele>7.0</ele><time>2026-04-20T15:19:31Z</time></trkpt><trkpt lat="42.95839066897245" lon="10.537617873505555"><ele>7.0</ele><time>2026-04-20T15:19:32Z</time></trkpt><trkpt lat="42.9582767869036" lon="10.537663674382912"><ele>7.0</ele><time>2026-04-20T15:19:33Z</time></trkpt><trkpt lat="42.95817962922417" lon="10.537705774667959"><ele>7.199999999999999</ele><time>2026-04-20T15:19:34Z</time></trkpt><trkpt lat="42.95809282700076" lon="10.537747113993403"><ele>7.3999999999999995</ele><time>2026-04-20T15:19:35Z</time></trkpt><trkpt lat="42.958001178561666" lon="10.537773650422157"><ele>7.6000000000000005</ele><time>2026-04-20T15:19:36Z</time></trkpt><trkpt lat="42.957897528484516" lon="10.537800718439376"><ele>7.800000000000001</ele><time>2026-04-20T15:19:37Z</time></trkpt><trkpt lat="42.95779785850305" lon="10.537827487507059"><ele>8.0</ele><time>2026-04-20T15:19:38Z</time></trkpt><trkpt lat="42.957703271503775" lon="10.537843951015173"><ele>8.0</ele><time>2026-04-20T15:19:39Z</time></trkpt><trkpt lat="42.95760628327588" lon="10.537860220295713"><ele>8.0</ele><time>2026-04-20T15:19:40Z</time></trkpt><trkpt lat="42.95750612038448" lon="10.537874426516042"><ele>8.0</ele><time>2026-04-20T15:19:41Z</time></trkpt><trkpt lat="42.95740722947574" lon="10.537895482610498"><ele>8.0</ele><time>2026-04-20T15:19:42Z</time></trkpt><trkpt lat="42.957319046794574" lon="10.537913679121981"><ele>8.0</ele><time>2026-04-20T15:19:43Z</time></trkpt><trkpt lat="42.95723816749374" lon="10.537925563543437"><ele>8.4</ele><time>2026-04-20T15:19:44Z</time></trkpt><trkpt lat="42.957149723512316" lon="10.537941826636388"><ele>8.8</ele><time>2026-04-20T15:19:45Z</time></trkpt><trkpt lat="42.95705436003605" lon="10.537968132534294"><ele>9.2</ele><time>2026-04-20T15:19:46Z</time></trkpt><trkpt lat="42.95696333441503" lon="10.537998022413843"><ele>9.6</ele><time>2026-04-20T15:19:47Z</time></trkpt><trkpt lat="42.956871465822665" lon="10.53802295013998"><ele>10.0</ele><time>2026-04-20T15:19:48Z</time></trkpt><trkpt lat="42.956776023143036" lon="10.538044545723839"><ele>11.0</ele><time>2026-04-20T15:19:49Z</time></trkpt><trkpt lat="42.956682587186556" lon="10.538072881282448"><ele>12.0</ele><time>2026-04-20T15:19:50Z</time></trkpt><trkpt lat="42.956582865994825" lon="10.538105959010228"><ele>13.0</ele><time>2026-04-20T15:19:51Z</time></trkpt><trkpt lat="42.956476464246464" lon="10.538146837995615"><ele>14.0</ele><time>2026-04-20T15:19:52Z</time></trkpt><trkpt lat="42.95636170304504" lon="10.538185265460314"><ele>15.0</ele><time>2026-04-20T15:19:53Z</time></trkpt><trkpt lat="42.95624394591985" lon="10.538226570976974"><ele>15.0</ele><time>2026-04-20T15:19:54Z</time></trkpt><trkpt lat="42.95612001247749" lon="10.538261376106384"><ele>15.0</ele><time>2026-04-20T15:19:55Z</time></trkpt><trkpt lat="42.95598670275139" lon="10.538302327689292"><ele>15.0</ele><time>2026-04-20T15:19:56Z</time></trkpt><trkpt lat="42.95584742986752" lon="10.538344054892558"><ele>15.0</ele><time>2026-04-20T15:19:57Z</time></trkpt><trkpt lat="42.955707215932456" lon="10.53838812099029"><ele>17.333333333333332</ele><time>2026-04-20T15:19:58Z</time></trkpt><trkpt lat="42.95556369682145" lon="10.538428285983898"><ele>19.666666666666664</ele><time>2026-04-20T15:19:59Z</time></trkpt><trkpt lat="42.95541513385468" lon="10.538471452919552"><ele>22.0</ele><time>2026-04-20T15:20:00Z</time></trkpt><trkpt lat="42.95526554591981" lon="10.538513003743047"><ele>22.0</ele><time>2026-04-20T15:20:01Z</time></trkpt><trkpt lat="42.95511109899568" lon="10.538555619159977"><ele>22.0</ele><time>2026-04-20T15:20:02Z</time></trkpt><trkpt lat="42.954950546366916" lon="10.538602311263821"><ele>22.0</ele><time>2026-04-20T15:20:03Z</time></trkpt><trkpt lat="42.95478960687445" lon="10.53863990114319"><ele>23.666666666666664</ele><time>2026-04-20T15:20:04Z</time></trkpt><trkpt lat="42.95462695822209" lon="10.538674413061154"><ele>25.333333333333332</ele><time>2026-04-20T15:20:05Z</time></trkpt><trkpt lat="42.95446562229133" lon="10.538713202892271"><ele>27.0</ele><time>2026-04-20T15:20:06Z</time></trkpt><trkpt lat="42.954310561310194" lon="10.538760240210093"><ele>24.666666666666668</ele><time>2026-04-20T15:20:07Z</time></trkpt><trkpt lat="42.95416160371655" lon="10.53880490767219"><ele>22.333333333333336</ele><time>2026-04-20T15:20:08Z</time></trkpt><trkpt lat="42.95401421127166" lon="10.53884666957129"><ele>20.0</ele><time>2026-04-20T15:20:09Z</time></trkpt><trkpt lat="42.953859661649545" lon="10.538880421329019"><ele>20.0</ele><time>2026-04-20T15:20:10Z</time></trkpt><trkpt lat="42.95371492046262" lon="10.538912152101698"><ele>20.0</ele><time>2026-04-20T15:20:11Z</time></trkpt><trkpt lat="42.95358471874619" lon="10.538944570524457"><ele>20.0</ele><time>2026-04-20T15:20:12Z</time></trkpt><trkpt lat="42.95345931529574" lon="10.538963392972555"><ele>20.0</ele><time>2026-04-20T15:20:13Z</time></trkpt><trkpt lat="42.95334414482789" lon="10.538976221579123"><ele>18.666666666666668</ele><time>2026-04-20T15:20:14Z</time></trkpt><trkpt lat="42.95323572698052" lon="10.538978233218147"><ele>17.333333333333336</ele><time>2026-04-20T15:20:15Z</time></trkpt><trkpt lat="42.95314799313709" lon="10.538975441125851"><ele>16.0</ele><time>2026-04-20T15:20:16Z</time></trkpt><trkpt lat="42.95307861528194" lon="10.53893251756772"><ele>14.666666666666668</ele><time>2026-04-20T15:20:17Z</time></trkpt><trkpt lat="42.95300741207163" lon="10.53889923404099"><ele>13.333333333333334</ele><time>2026-04-20T15:20:18Z</time></trkpt><trkpt lat="42.95292654097368" lon="10.538863228895634"><ele>12.0</ele><time>2026-04-20T15:20:19Z</time></trkpt><trkpt lat="42.95285950027573" lon="10.538796361866686"><ele>12.0</ele><time>2026-04-20T15:20:20Z</time></trkpt><trkpt lat="42.952793165446195" lon="10.538769392148778"><ele>12.0</ele><time>2026-04-20T15:20:21Z</time></trkpt><trkpt lat="42.95272072914795" lon="10.53878090321394"><ele>12.0</ele><time>2026-04-20T15:20:22Z</time></trkpt><trkpt lat="42.95265384247616" lon="10.538822444304817"><ele>12.0</ele><time>2026-04-20T15:20:23Z</time></trkpt><trkpt lat="42.95259093764022" lon="10.538904970020115"><ele>12.0</ele><time>2026-04-20T15:20:24Z</time></trkpt><trkpt lat="42.95251772056809" lon="10.53901271976766"><ele>12.0</ele><time>2026-04-20T15:20:25Z</time></trkpt><trkpt lat="42.95244573395445" lon="10.539094045585374"><ele>11.0</ele><time>2026-04-20T15:20:26Z</time></trkpt><trkpt lat="42.952327924042166" lon="10.539145146217686"><ele>10.0</ele><time>2026-04-20T15:20:27Z</time></trkpt><trkpt lat="42.952215138981295" lon="10.539206276652013"><ele>9.0</ele><time>2026-04-20T15:20:28Z</time></trkpt><trkpt lat="42.95208297840689" lon="10.539253885151677"><ele>8.0</ele><time>2026-04-20T15:20:29Z</time></trkpt><trkpt lat="42.951939360701864" lon="10.539292657024157"><ele>8.0</ele><time>2026-04-20T15:20:30Z</time></trkpt><trkpt lat="42.951803312344914" lon="10.539327306623939"><ele>8.0</ele><time>2026-04-20T15:20:31Z</time></trkpt><trkpt lat="42.95165229272449" lon="10.53935215927403"><ele>8.0</ele><time>2026-04-20T15:20:32Z</time></trkpt><trkpt lat="42.95149890489675" lon="10.53937929644417"><ele>8.0</ele><time>2026-04-20T15:20:33Z</time></trkpt><trkpt lat="42.95134221272074" lon="10.539408762302287"><ele>8.666666666666666</ele><time>2026-04-20T15:20:34Z</time></trkpt><trkpt lat="42.951178147348806" lon="10.53944251058588"><ele>9.333333333333334</ele><time>2026-04-20T15:20:35Z</time></trkpt><trkpt lat="42.95100906665947" lon="10.539474780579209"><ele>10.0</ele><time>2026-04-20T15:20:36Z</time></trkpt><trkpt lat="42.95084594269973" lon="10.539506495225055"><ele>11.0</ele><time>2026-04-20T15:20:37Z</time></trkpt><trkpt lat="42.950680672643074" lon="10.539535263105293"><ele>12.0</ele><time>2026-04-20T15:20:38Z</time></trkpt><trkpt lat="42.950518583283284" lon="10.539567699494269"><ele>13.0</ele><time>2026-04-20T15:20:39Z</time></trkpt><trkpt lat="42.95035818750696" lon="10.53959908368608"><ele>11.0</ele><time>2026-04-20T15:20:40Z</time></trkpt><trkpt lat="42.95019536343579" lon="10.539635376900156"><ele>9.0</ele><time>2026-04-20T15:20:41Z</time></trkpt><trkpt lat="42.95003488134291" lon="10.539666672492801"><ele>7.0</ele><time>2026-04-20T15:20:42Z</time></trkpt><trkpt lat="42.949872903995406" lon="10.539691490649377"><ele>7.0</ele><time>2026-04-20T15:20:43Z</time></trkpt><trkpt lat="42.94970794768347" lon="10.539723491211435"><ele>7.0</ele><time>2026-04-20T15:20:44Z</time></trkpt><trkpt lat="42.949546333409145" lon="10.539748860868293"><ele>7.0</ele><time>2026-04-20T15:20:45Z</time></trkpt><trkpt lat="42.94938529122332" lon="10.539785958049505"><ele>7.0</ele><time>2026-04-20T15:20:46Z</time></trkpt><trkpt lat="42.949214577956624" lon="10.539817617225717"><ele>7.0</ele><time>2026-04-20T15:20:47Z</time></trkpt><trkpt lat="42.94905112617682" lon="10.539849431044784"><ele>7.0</ele><time>2026-04-20T15:20:48Z</time></trkpt><trkpt lat="42.94888750392323" lon="10.539891687023562"><ele>8.333333333333334</ele><time>2026-04-20T15:20:49Z</time></trkpt><trkpt lat="42.94872557839223" lon="10.539931260363227"><ele>9.666666666666666</ele><time>2026-04-20T15:20:50Z</time></trkpt><trkpt lat="42.94857046575146" lon="10.539982623097462"><ele>11.0</ele><time>2026-04-20T15:20:51Z</time></trkpt><trkpt lat="42.948421268724495" lon="10.540049195034282"><ele>12.25</ele><time>2026-04-20T15:20:52Z</time></trkpt><trkpt lat="42.94828921875238" lon="10.540120036884668"><ele>13.5</ele><time>2026-04-20T15:20:53Z</time></trkpt><trkpt lat="42.948159920443445" lon="10.540192830564992"><ele>14.75</ele><time>2026-04-20T15:20:54Z</time></trkpt><trkpt lat="42.948030791367884" lon="10.540258756073776"><ele>16.0</ele><time>2026-04-20T15:20:55Z</time></trkpt><trkpt lat="42.94792577504105" lon="10.540316412738113"><ele>16.0</ele><time>2026-04-20T15:20:56Z</time></trkpt><trkpt lat="42.94783352150473" lon="10.540370417862505"><ele>16.0</ele><time>2026-04-20T15:20:57Z</time></trkpt><trkpt lat="42.94774451896243" lon="10.540414447311207"><ele>16.0</ele><time>2026-04-20T15:20:58Z</time></trkpt><trkpt lat="42.94765378262385" lon="10.540459183906615"><ele>16.0</ele><time>2026-04-20T15:20:59Z</time></trkpt><trkpt lat="42.94755338889817" lon="10.540507641065172"><ele>16.0</ele><time>2026-04-20T15:21:00Z</time></trkpt><trkpt lat="42.947449773019486" lon="10.540561080764052"><ele>17.25</ele><time>2026-04-20T15:21:01Z</time></trkpt><trkpt lat="42.94734218507221" lon="10.540617812699326"><ele>18.5</ele><time>2026-04-20T15:21:02Z</time></trkpt><trkpt lat="42.947230585362476" lon="10.540676515577118"><ele>19.75</ele><time>2026-04-20T15:21:03Z</time></trkpt><trkpt lat="42.94711593257724" lon="10.540738641219505"><ele>21.0</ele><time>2026-04-20T15:21:04Z</time></trkpt><trkpt lat="42.9469959930884" lon="10.540794293149435"><ele>21.0</ele><time>2026-04-20T15:21:05Z</time></trkpt><trkpt lat="42.94686654365528" lon="10.540829225935664"><ele>21.0</ele><time>2026-04-20T15:21:06Z</time></trkpt><trkpt lat="42.946731469852004" lon="10.540843238224548"><ele>21.0</ele><time>2026-04-20T15:21:07Z</time></trkpt><trkpt lat="42.946606569937714" lon="10.540836216359793"><ele>21.0</ele><time>2026-04-20T15:21:08Z</time></trkpt><trkpt lat="42.94648843386475" lon="10.54082238292965"><ele>22.25</ele><time>2026-04-20T15:21:09Z</time></trkpt><trkpt lat="42.94637551510517" lon="10.540812008894463"><ele>23.5</ele><time>2026-04-20T15:21:10Z</time></trkpt><trkpt lat="42.94626723178158" lon="10.54080415373452"><ele>24.75</ele><time>2026-04-20T15:21:11Z</time></trkpt><trkpt lat="42.946154549177244" lon="10.540799270725756"><ele>26.0</ele><time>2026-04-20T15:21:12Z</time></trkpt><trkpt lat="42.94603494768019" lon="10.54079145383344"><ele>26.0</ele><time>2026-04-20T15:21:13Z</time></trkpt><trkpt lat="42.945910109638454" lon="10.54077965871663"><ele>26.0</ele><time>2026-04-20T15:21:14Z</time></trkpt><trkpt lat="42.94577886349457" lon="10.540748487625287"><ele>26.0</ele><time>2026-04-20T15:21:15Z</time></trkpt><trkpt lat="42.94565078229609" lon="10.540712621911165"><ele>26.0</ele><time>2026-04-20T15:21:16Z</time></trkpt><trkpt lat="42.945517687558606" lon="10.540662262636085"><ele>27.5</ele><time>2026-04-20T15:21:17Z</time></trkpt><trkpt lat="42.945388567663386" lon="10.540601131159953"><ele>29.0</ele><time>2026-04-20T15:21:18Z</time></trkpt><trkpt lat="42.94526651517772" lon="10.540509842098057"><ele>30.5</ele><time>2026-04-20T15:21:19Z</time></trkpt><trkpt lat="42.945153537144385" lon="10.540394229868152"><ele>32.0</ele><time>2026-04-20T15:21:20Z</time></trkpt><trkpt lat="42.94505087848466" lon="10.540260179994794"><ele>31.25</ele><time>2026-04-20T15:21:21Z</time></trkpt><trkpt lat="42.944962370939834" lon="10.540109850435847"><ele>30.5</ele><time>2026-04-20T15:21:22Z</time></trkpt><trkpt lat="42.94488840954085" lon="10.539940946033383"><ele>29.75</ele><time>2026-04-20T15:21:23Z</time></trkpt><trkpt lat="42.944828358483115" lon="10.53975936326497"><ele>29.0</ele><time>2026-04-20T15:21:24Z</time></trkpt><trkpt lat="42.94477639226762" lon="10.539567313242934"><ele>30.75</ele><time>2026-04-20T15:21:25Z</time></trkpt><trkpt lat="42.94472366037011" lon="10.539374660187008"><ele>32.5</ele><time>2026-04-20T15:21:26Z</time></trkpt><trkpt lat="42.94466787694049" lon="10.539194474209653"><ele>34.25</ele><time>2026-04-20T15:21:27Z</time></trkpt><trkpt lat="42.94460013511208" lon="10.539016280998133"><ele>36.0</ele><time>2026-04-20T15:21:28Z</time></trkpt><trkpt lat="42.94452731435759" lon="10.538836890229833"><ele>39.333333333333336</ele><time>2026-04-20T15:21:29Z</time></trkpt><trkpt lat="42.944449050005645" lon="10.538662775875913"><ele>42.66666666666667</ele><time>2026-04-20T15:21:30Z</time></trkpt><trkpt lat="42.94435253308949" lon="10.53849287833985"><ele>46.0</ele><time>2026-04-20T15:21:31Z</time></trkpt><trkpt lat="42.94424558422354" lon="10.538335217646294"><ele>40.66666666666667</ele><time>2026-04-20T15:21:32Z</time></trkpt><trkpt lat="42.944136709867315" lon="10.538186510918159"><ele>35.333333333333336</ele><time>2026-04-20T15:21:33Z</time></trkpt><trkpt lat="42.94402007913432" lon="10.53804412236172"><ele>30.0</ele><time>2026-04-20T15:21:34Z</time></trkpt><trkpt lat="42.94389803779492" lon="10.537905246293699"><ele>30.666666666666664</ele><time>2026-04-20T15:21:35Z</time></trkpt><trkpt lat="42.94377148743578" lon="10.537760151482969"><ele>31.333333333333332</ele><time>2026-04-20T15:21:36Z</time></trkpt><trkpt lat="42.94364349831042" lon="10.537612130286929"><ele>32.0</ele><time>2026-04-20T15:21:37Z</time></trkpt><trkpt lat="42.943523826874156" lon="10.537468572530194"><ele>32.0</ele><time>2026-04-20T15:21:38Z</time></trkpt><trkpt lat="42.943402314985" lon="10.537325293549742"><ele>32.0</ele><time>2026-04-20T15:21:39Z</time></trkpt><trkpt lat="42.94328175020626" lon="10.53718413910505"><ele>32.0</ele><time>2026-04-20T15:21:40Z</time></trkpt><trkpt lat="42.943156979689846" lon="10.537038474764342"><ele>31.5</ele><time>2026-04-20T15:21:41Z</time></trkpt><trkpt lat="42.943045456042164" lon="10.53690412646124"><ele>31.0</ele><time>2026-04-20T15:21:42Z</time></trkpt><trkpt lat="42.94293690674011" lon="10.536780515325223"><ele>30.5</ele><time>2026-04-20T15:21:43Z</time></trkpt><trkpt lat="42.94284186287616" lon="10.536667709806776"><ele>30.0</ele><time>2026-04-20T15:21:44Z</time></trkpt><trkpt lat="42.94276617584016" lon="10.536569394314702"><ele>30.0</ele><time>2026-04-20T15:21:45Z</time></trkpt><trkpt lat="42.9427249482858" lon="10.536450279511765"><ele>30.0</ele><time>2026-04-20T15:21:46Z</time></trkpt><trkpt lat="42.942690410579026" lon="10.53632955261564"><ele>30.0</ele><time>2026-04-20T15:21:47Z</time></trkpt><trkpt lat="42.94265498370019" lon="10.53617602036047"><ele>30.0</ele><time>2026-04-20T15:21:48Z</time></trkpt><trkpt lat="42.94250151510657" lon="10.536159043666395"><ele>30.25</ele><time>2026-04-20T15:21:49Z</time></trkpt><trkpt lat="42.94239337908745" lon="10.53608008192611"><ele>30.5</ele><time>2026-04-20T15:21:50Z</time></trkpt><trkpt lat="42.94227408685616" lon="10.536002789349588"><ele>30.75</ele><time>2026-04-20T15:21:51Z</time></trkpt><trkpt lat="42.94216206429207" lon="10.535890909283244"><ele>31.0</ele><time>2026-04-20T15:21:52Z</time></trkpt><trkpt lat="42.942053452825355" lon="10.535762722243442"><ele>31.0</ele><time>2026-04-20T15:21:53Z</time></trkpt><trkpt lat="42.94194411810344" lon="10.535637385971397"><ele>31.0</ele><time>2026-04-20T15:21:54Z</time></trkpt><trkpt lat="42.94182867078776" lon="10.535506390678046"><ele>31.0</ele><time>2026-04-20T15:21:55Z</time></trkpt><trkpt lat="42.94170993868358" lon="10.53536451294402"><ele>33.0</ele><time>2026-04-20T15:21:56Z</time></trkpt><trkpt lat="42.94159151955724" lon="10.535240799316943"><ele>35.0</ele><time>2026-04-20T15:21:57Z</time></trkpt><trkpt lat="42.94146995259669" lon="10.535096405680989"><ele>37.0</ele><time>2026-04-20T15:21:58Z</time></trkpt><trkpt lat="42.94134689493779" lon="10.534952700111592"><ele>37.0</ele><time>2026-04-20T15:21:59Z</time></trkpt><trkpt lat="42.94121900343378" lon="10.534811544511774"><ele>37.0</ele><time>2026-04-20T15:22:00Z</time></trkpt><trkpt lat="42.94109225456715" lon="10.534669004066318"><ele>37.0</ele><time>2026-04-20T15:22:01Z</time></trkpt><trkpt lat="42.94096504327201" lon="10.534520383905486"><ele>37.66666666666667</ele><time>2026-04-20T15:22:02Z</time></trkpt><trkpt lat="42.94083483131664" lon="10.534369866341995"><ele>38.333333333333336</ele><time>2026-04-20T15:22:03Z</time></trkpt><trkpt lat="42.94070714086036" lon="10.53421965162383"><ele>39.0</ele><time>2026-04-20T15:22:04Z</time></trkpt><trkpt lat="42.940575544763284" lon="10.534064718476492"><ele>39.0</ele><time>2026-04-20T15:22:05Z</time></trkpt><trkpt lat="42.9404465304831" lon="10.533912915960084"><ele>39.0</ele><time>2026-04-20T15:22:06Z</time></trkpt><trkpt lat="42.940311549292865" lon="10.533758374391889"><ele>39.0</ele><time>2026-04-20T15:22:07Z</time></trkpt><trkpt lat="42.94017916279355" lon="10.533608102829795"><ele>40.333333333333336</ele><time>2026-04-20T15:22:08Z</time></trkpt><trkpt lat="42.94005090525204" lon="10.533449070117223"><ele>41.66666666666667</ele><time>2026-04-20T15:22:09Z</time></trkpt><trkpt lat="42.93991943228154" lon="10.53329680033229"><ele>43.0</ele><time>2026-04-20T15:22:10Z</time></trkpt><trkpt lat="42.939794019120086" lon="10.533148802826448"><ele>43.0</ele><time>2026-04-20T15:22:11Z</time></trkpt><trkpt lat="42.93967033497396" lon="10.53299518495484"><ele>43.0</ele><time>2026-04-20T15:22:12Z</time></trkpt><trkpt lat="42.93954943448037" lon="10.53282837406182"><ele>43.0</ele><time>2026-04-20T15:22:13Z</time></trkpt><trkpt lat="42.939428545466676" lon="10.532659850935733"><ele>43.0</ele><time>2026-04-20T15:22:14Z</time></trkpt><trkpt lat="42.93930317391976" lon="10.53248462103454"><ele>43.0</ele><time>2026-04-20T15:22:15Z</time></trkpt><trkpt lat="42.93917820285417" lon="10.532304049880295"><ele>43.0</ele><time>2026-04-20T15:22:16Z</time></trkpt><trkpt lat="42.93904714725469" lon="10.532122998588305"><ele>45.66666666666667</ele><time>2026-04-20T15:22:17Z</time></trkpt><trkpt lat="42.9389154309142" lon="10.531933740796042"><ele>48.333333333333336</ele><time>2026-04-20T15:22:18Z</time></trkpt><trkpt lat="42.938781522778555" lon="10.531742338547184"><ele>51.0</ele><time>2026-04-20T15:22:19Z</time></trkpt><trkpt lat="42.93864660070439" lon="10.531549697784857"><ele>51.0</ele><time>2026-04-20T15:22:20Z</time></trkpt><trkpt lat="42.93852005656153" lon="10.531372560997545"><ele>51.0</ele><time>2026-04-20T15:22:21Z</time></trkpt><trkpt lat="42.9383943654487" lon="10.531197213352485"><ele>51.0</ele><time>2026-04-20T15:22:22Z</time></trkpt><trkpt lat="42.93826252434979" lon="10.531019526796994"><ele>48.0</ele><time>2026-04-20T15:22:23Z</time></trkpt><trkpt lat="42.938130494620566" lon="10.530838005743432"><ele>45.0</ele><time>2026-04-20T15:22:24Z</time></trkpt><trkpt lat="42.9379937029596" lon="10.530668503536512"><ele>42.0</ele><time>2026-04-20T15:22:25Z</time></trkpt><trkpt lat="42.93786031809996" lon="10.530507717276754"><ele>43.333333333333336</ele><time>2026-04-20T15:22:26Z</time></trkpt><trkpt lat="42.93773416227034" lon="10.53036007468318"><ele>44.66666666666667</ele><time>2026-04-20T15:22:27Z</time></trkpt><trkpt lat="42.93761898294177" lon="10.530219767896934"><ele>46.0</ele><time>2026-04-20T15:22:28Z</time></trkpt><trkpt lat="42.93751890780123" lon="10.530092943780113"><ele>45.8</ele><time>2026-04-20T15:22:29Z</time></trkpt><trkpt lat="42.937434134189715" lon="10.529982409034288"><ele>45.599999999999994</ele><time>2026-04-20T15:22:30Z</time></trkpt><trkpt lat="42.937362575769505" lon="10.529880411222358"><ele>45.4</ele><time>2026-04-20T15:22:31Z</time></trkpt><trkpt lat="42.937309576597485" lon="10.529785448121611"><ele>45.2</ele><time>2026-04-20T15:22:32Z</time></trkpt><trkpt lat="42.937259491262424" lon="10.529621251174522"><ele>45.0</ele><time>2026-04-20T15:22:34Z</time></trkpt><trkpt lat="42.93723698592029" lon="10.529520895427373"><ele>45.0</ele><time>2026-04-20T15:22:35Z</time></trkpt><trkpt lat="42.93721388112676" lon="10.529422903359416"><ele>45.0</ele><time>2026-04-20T15:22:36Z</time></trkpt><trkpt lat="42.937184870523765" lon="10.529331625778678"><ele>45.0</ele><time>2026-04-20T15:22:37Z</time></trkpt><trkpt lat="42.93709688095319" lon="10.529275959655866"><ele>45.0</ele><time>2026-04-20T15:22:38Z</time></trkpt><trkpt lat="42.93698563678094" lon="10.529274846171894"><ele>45.0</ele><time>2026-04-20T15:22:39Z</time></trkpt><trkpt lat="42.93687712869393" lon="10.52930252282277"><ele>45.0</ele><time>2026-04-20T15:22:40Z</time></trkpt><trkpt lat="42.936751762670546" lon="10.529294790788564"><ele>45.0</ele><time>2026-04-20T15:22:41Z</time></trkpt><trkpt lat="42.936621619615224" lon="10.529252853201374"><ele>45.0</ele><time>2026-04-20T15:22:42Z</time></trkpt><trkpt lat="42.93648359854479" lon="10.529274207444129"><ele>45.0</ele><time>2026-04-20T15:22:43Z</time></trkpt><trkpt lat="42.93634554802439" lon="10.529247009075343"><ele>43.0</ele><time>2026-04-20T15:22:44Z</time></trkpt><trkpt lat="42.93620258147076" lon="10.529197886405925"><ele>41.0</ele><time>2026-04-20T15:22:45Z</time></trkpt><trkpt lat="42.93605865644527" lon="10.529126349569179"><ele>39.0</ele><time>2026-04-20T15:22:46Z</time></trkpt><trkpt lat="42.9359147518928" lon="10.529038143708414"><ele>38.0</ele><time>2026-04-20T15:22:47Z</time></trkpt><trkpt lat="42.93576586145004" lon="10.528945827978362"><ele>37.0</ele><time>2026-04-20T15:22:48Z</time></trkpt><trkpt lat="42.93561074221657" lon="10.52885434948065"><ele>36.0</ele><time>2026-04-20T15:22:49Z</time></trkpt><trkpt lat="42.935452379588696" lon="10.528760028108387"><ele>37.666666666666664</ele><time>2026-04-20T15:22:50Z</time></trkpt><trkpt lat="42.935296788097894" lon="10.528665365409609"><ele>39.33333333333333</ele><time>2026-04-20T15:22:51Z</time></trkpt><trkpt lat="42.93513561440549" lon="10.528568530028796"><ele>41.0</ele><time>2026-04-20T15:22:52Z</time></trkpt><trkpt lat="42.93497278198022" lon="10.528469701198826"><ele>41.0</ele><time>2026-04-20T15:22:53Z</time></trkpt><trkpt lat="42.9348046995015" lon="10.528372176353818"><ele>41.0</ele><time>2026-04-20T15:22:54Z</time></trkpt><trkpt lat="42.93464092222696" lon="10.528270947601113"><ele>41.0</ele><time>2026-04-20T15:22:55Z</time></trkpt><trkpt lat="42.93448186887634" lon="10.528175832240088"><ele>41.0</ele><time>2026-04-20T15:22:56Z</time></trkpt><trkpt lat="42.93433222963807" lon="10.528086061997453"><ele>41.0</ele><time>2026-04-20T15:22:57Z</time></trkpt><trkpt lat="42.93418795544013" lon="10.527995444682608"><ele>41.0</ele><time>2026-04-20T15:22:58Z</time></trkpt><trkpt lat="42.9340502862334" lon="10.527916274530993"><ele>42.0</ele><time>2026-04-20T15:22:59Z</time></trkpt><trkpt lat="42.933913784167125" lon="10.527837000470662"><ele>43.0</ele><time>2026-04-20T15:23:00Z</time></trkpt><trkpt lat="42.933782538519516" lon="10.527764986537738"><ele>44.0</ele><time>2026-04-20T15:23:01Z</time></trkpt><trkpt lat="42.93365617115554" lon="10.527686060159313"><ele>45.0</ele><time>2026-04-20T15:23:02Z</time></trkpt><trkpt lat="42.93352866565669" lon="10.527612180231312"><ele>45.0</ele><time>2026-04-20T15:23:03Z</time></trkpt><trkpt lat="42.93340306790903" lon="10.527541090685132"><ele>45.0</ele><time>2026-04-20T15:23:04Z</time></trkpt><trkpt lat="42.933279534662944" lon="10.527466261393874"><ele>45.0</ele><time>2026-04-20T15:23:05Z</time></trkpt><trkpt lat="42.933157830474734" lon="10.527394450388506"><ele>45.0</ele><time>2026-04-20T15:23:06Z</time></trkpt><trkpt lat="42.93303860726694" lon="10.527326026691401"><ele>44.0</ele><time>2026-04-20T15:23:07Z</time></trkpt><trkpt lat="42.93291851179994" lon="10.527255120935575"><ele>43.0</ele><time>2026-04-20T15:23:08Z</time></trkpt><trkpt lat="42.93280107860933" lon="10.52718410349841"><ele>42.0</ele><time>2026-04-20T15:23:09Z</time></trkpt><trkpt lat="42.93268558908991" lon="10.527114915622432"><ele>41.0</ele><time>2026-04-20T15:23:10Z</time></trkpt><trkpt lat="42.93257767234756" lon="10.527047769041644"><ele>41.8</ele><time>2026-04-20T15:23:11Z</time></trkpt><trkpt lat="42.93247061686335" lon="10.526990096642558"><ele>42.599999999999994</ele><time>2026-04-20T15:23:12Z</time></trkpt><trkpt lat="42.93236101340305" lon="10.526923827700392"><ele>43.4</ele><time>2026-04-20T15:23:13Z</time></trkpt><trkpt lat="42.93226347390186" lon="10.52687238094024"><ele>44.2</ele><time>2026-04-20T15:23:14Z</time></trkpt><trkpt lat="42.93216964575738" lon="10.526815207393803"><ele>45.0</ele><time>2026-04-20T15:23:15Z</time></trkpt><trkpt lat="42.932076393891315" lon="10.5267566862244"><ele>45.0</ele><time>2026-04-20T15:23:16Z</time></trkpt><trkpt lat="42.931983883495256" lon="10.526701844847523"><ele>45.0</ele><time>2026-04-20T15:23:17Z</time></trkpt><trkpt lat="42.93189192599085" lon="10.526653257455967"><ele>45.0</ele><time>2026-04-20T15:23:18Z</time></trkpt><trkpt lat="42.9318024573759" lon="10.526604822703419"><ele>45.0</ele><time>2026-04-20T15:23:19Z</time></trkpt><trkpt lat="42.93171305022743" lon="10.526549211243637"><ele>45.0</ele><time>2026-04-20T15:23:20Z</time></trkpt><trkpt lat="42.93161561715595" lon="10.526490603852908"><ele>42.5</ele><time>2026-04-20T15:23:21Z</time></trkpt><trkpt lat="42.93150942596349" lon="10.526419072838257"><ele>40.0</ele><time>2026-04-20T15:23:22Z</time></trkpt><trkpt lat="42.931408048076506" lon="10.526350020752833"><ele>37.5</ele><time>2026-04-20T15:23:23Z</time></trkpt><trkpt lat="42.93130201016722" lon="10.526289466396687"><ele>35.0</ele><time>2026-04-20T15:23:24Z</time></trkpt><trkpt lat="42.931204360718205" lon="10.52623142780791"><ele>35.0</ele><time>2026-04-20T15:23:25Z</time></trkpt><trkpt lat="42.93110558808763" lon="10.526171363156765"><ele>35.0</ele><time>2026-04-20T15:23:26Z</time></trkpt><trkpt lat="42.93101994485582" lon="10.526116822934489"><ele>35.0</ele><time>2026-04-20T15:23:27Z</time></trkpt><trkpt lat="42.9309305375926" lon="10.526063344780864"><ele>35.0</ele><time>2026-04-20T15:23:28Z</time></trkpt><trkpt lat="42.930836414492504" lon="10.526005517778545"><ele>35.0</ele><time>2026-04-20T15:23:29Z</time></trkpt><trkpt lat="42.930742673482456" lon="10.525938321033282"><ele>34.2</ele><time>2026-04-20T15:23:30Z</time></trkpt><trkpt lat="42.93063161430928" lon="10.525871528121545"><ele>33.4</ele><time>2026-04-20T15:23:31Z</time></trkpt><trkpt lat="42.9305292180141" lon="10.525813818662684"><ele>32.6</ele><time>2026-04-20T15:23:32Z</time></trkpt><trkpt lat="42.930433971930945" lon="10.525755634701687"><ele>31.8</ele><time>2026-04-20T15:23:33Z</time></trkpt><trkpt lat="42.93033833777845" lon="10.525700555466225"><ele>31.0</ele><time>2026-04-20T15:23:34Z</time></trkpt><trkpt lat="42.930251656690125" lon="10.525643238781951"><ele>31.0</ele><time>2026-04-20T15:23:35Z</time></trkpt><trkpt lat="42.93016843155926" lon="10.525589549966833"><ele>31.0</ele><time>2026-04-20T15:23:36Z</time></trkpt><trkpt lat="42.93008434102725" lon="10.525529298734721"><ele>31.0</ele><time>2026-04-20T15:23:37Z</time></trkpt><trkpt lat="42.93000171446713" lon="10.525462198197841"><ele>31.0</ele><time>2026-04-20T15:23:38Z</time></trkpt><trkpt lat="42.92991532279026" lon="10.525396627557434"><ele>31.0</ele><time>2026-04-20T15:23:39Z</time></trkpt><trkpt lat="42.92982481511709" lon="10.525333403351041"><ele>31.333333333333336</ele><time>2026-04-20T15:23:40Z</time></trkpt><trkpt lat="42.92972869610305" lon="10.525292708071023"><ele>31.666666666666668</ele><time>2026-04-20T15:23:41Z</time></trkpt><trkpt lat="42.92963867678718" lon="10.525267632646614"><ele>32.0</ele><time>2026-04-20T15:23:42Z</time></trkpt><trkpt lat="42.9295538981202" lon="10.525259326996357"><ele>32.333333333333336</ele><time>2026-04-20T15:23:43Z</time></trkpt><trkpt lat="42.929469602873226" lon="10.52526240861969"><ele>32.666666666666664</ele><time>2026-04-20T15:23:44Z</time></trkpt><trkpt lat="42.92938875385468" lon="10.525270198586682"><ele>33.0</ele><time>2026-04-20T15:23:45Z</time></trkpt><trkpt lat="42.92932012044415" lon="10.525276820284795"><ele>33.0</ele><time>2026-04-20T15:23:46Z</time></trkpt><trkpt lat="42.92922644521836" lon="10.525288004901624"><ele>33.0</ele><time>2026-04-20T15:23:48Z</time></trkpt><trkpt lat="42.929149954375106" lon="10.525315522471844"><ele>33.0</ele><time>2026-04-20T15:25:07Z</time></trkpt><trkpt lat="42.92908359081237" lon="10.525305316868153"><ele>33.0</ele><time>2026-04-20T15:25:09Z</time></trkpt><trkpt lat="42.92918280704774" lon="10.525532745304742"><ele>33.0</ele><time>2026-04-20T15:25:13Z</time></trkpt><trkpt lat="42.92927910904644" lon="10.525654972117747"><ele>32.5</ele><time>2026-04-20T15:25:15Z</time></trkpt><trkpt lat="42.92933011990111" lon="10.525713216167796"><ele>32.0</ele><time>2026-04-20T15:25:16Z</time></trkpt><trkpt lat="42.929344912071414" lon="10.52579742639044"><ele>31.5</ele><time>2026-04-20T15:25:17Z</time></trkpt><trkpt lat="42.9293577480917" lon="10.525903397498947"><ele>31.0</ele><time>2026-04-20T15:25:18Z</time></trkpt><trkpt lat="42.929347978334214" lon="10.526037101997456"><ele>30.5</ele><time>2026-04-20T15:25:19Z</time></trkpt><trkpt lat="42.929337535267244" lon="10.526157302891919"><ele>30.0</ele><time>2026-04-20T15:25:20Z</time></trkpt><trkpt lat="42.929244720497714" lon="10.526283220812184"><ele>28.5</ele><time>2026-04-20T15:25:21Z</time></trkpt><trkpt lat="42.92920084178694" lon="10.52642823393508"><ele>27.0</ele><time>2026-04-20T15:25:22Z</time></trkpt><trkpt lat="42.929152037385435" lon="10.526576977534754"><ele>25.5</ele><time>2026-04-20T15:25:23Z</time></trkpt><trkpt lat="42.92911099364676" lon="10.526712371313797"><ele>24.0</ele><time>2026-04-20T15:25:24Z</time></trkpt><trkpt lat="42.9290660499115" lon="10.526856185847201"><ele>24.0</ele><time>2026-04-20T15:25:25Z</time></trkpt><trkpt lat="42.92902278770472" lon="10.526998393656548"><ele>24.0</ele><time>2026-04-20T15:25:26Z</time></trkpt><trkpt lat="42.92898181105235" lon="10.527126777348803"><ele>24.0</ele><time>2026-04-20T15:25:27Z</time></trkpt><trkpt lat="42.92893754737918" lon="10.527260599642743"><ele>24.0</ele><time>2026-04-20T15:25:28Z</time></trkpt><trkpt lat="42.92889591497866" lon="10.527383573312711"><ele>24.0</ele><time>2026-04-20T15:25:29Z</time></trkpt><trkpt lat="42.92886615795267" lon="10.527507484166946"><ele>23.0</ele><time>2026-04-20T15:25:30Z</time></trkpt><trkpt lat="42.92883332033388" lon="10.527621786008426"><ele>22.0</ele><time>2026-04-20T15:25:31Z</time></trkpt><trkpt lat="42.92880044487215" lon="10.52771827392258"><ele>21.0</ele><time>2026-04-20T15:25:32Z</time></trkpt><trkpt lat="42.92876133628887" lon="10.527831316801555"><ele>20.0</ele><time>2026-04-20T15:25:33Z</time></trkpt><trkpt lat="42.92872628511803" lon="10.527963608923187"><ele>19.0</ele><time>2026-04-20T15:25:34Z</time></trkpt><trkpt lat="42.92868427481537" lon="10.528114781407373"><ele>19.5</ele><time>2026-04-20T15:25:35Z</time></trkpt><trkpt lat="42.92864057264263" lon="10.528263280895068"><ele>20.0</ele><time>2026-04-20T15:25:36Z</time></trkpt><trkpt lat="42.92859188017372" lon="10.528429868896897"><ele>20.5</ele><time>2026-04-20T15:25:37Z</time></trkpt><trkpt lat="42.92854467174948" lon="10.528600465207285"><ele>21.0</ele><time>2026-04-20T15:25:38Z</time></trkpt><trkpt lat="42.92849194800425" lon="10.528771325684135"><ele>21.0</ele><time>2026-04-20T15:25:39Z</time></trkpt><trkpt lat="42.92844212023337" lon="10.528911663028484"><ele>21.0</ele><time>2026-04-20T15:25:40Z</time></trkpt><trkpt lat="42.92840514082547" lon="10.529020119185244"><ele>21.0</ele><time>2026-04-20T15:25:41Z</time></trkpt><trkpt lat="42.92837336587975" lon="10.529117104876116"><ele>21.0</ele><time>2026-04-20T15:25:42Z</time></trkpt><trkpt lat="42.92834087304711" lon="10.529217991152603"><ele>21.0</ele><time>2026-04-20T15:25:43Z</time></trkpt><trkpt lat="42.92830384100938" lon="10.529325330305918"><ele>21.0</ele><time>2026-04-20T15:25:44Z</time></trkpt><trkpt lat="42.92827097950689" lon="10.52940970463428"><ele>21.166666666666668</ele><time>2026-04-20T15:25:45Z</time></trkpt><trkpt lat="42.928216369870185" lon="10.529527785755311"><ele>21.333333333333332</ele><time>2026-04-20T15:25:47Z</time></trkpt><trkpt lat="42.928182331844404" lon="10.529629195579506"><ele>21.5</ele><time>2026-04-20T15:26:11Z</time></trkpt><trkpt lat="42.9281724520605" lon="10.52976999508349"><ele>21.666666666666664</ele><time>2026-04-20T15:26:13Z</time></trkpt><trkpt lat="42.92815768104537" lon="10.529864835070763"><ele>21.833333333333332</ele><time>2026-04-20T15:26:14Z</time></trkpt><trkpt lat="42.92813311875693" lon="10.52995999740745"><ele>22.0</ele><time>2026-04-20T15:26:15Z</time></trkpt><trkpt lat="42.9280985087462" lon="10.530064041780351"><ele>21.6</ele><time>2026-04-20T15:26:16Z</time></trkpt><trkpt lat="42.928054297253944" lon="10.530182417937953"><ele>21.200000000000003</ele><time>2026-04-20T15:26:17Z</time></trkpt><trkpt lat="42.92800623283087" lon="10.530297331038682"><ele>20.8</ele><time>2026-04-20T15:26:18Z</time></trkpt><trkpt lat="42.92796963706099" lon="10.53039583258604"><ele>20.4</ele><time>2026-04-20T15:26:19Z</time></trkpt><trkpt lat="42.92792612326394" lon="10.530498234509647"><ele>20.0</ele><time>2026-04-20T15:26:20Z</time></trkpt><trkpt lat="42.92788769595247" lon="10.530612344607949"><ele>19.2</ele><time>2026-04-20T15:26:21Z</time></trkpt><trkpt lat="42.92784136166173" lon="10.53073806165781"><ele>18.4</ele><time>2026-04-20T15:26:22Z</time></trkpt><trkpt lat="42.92779136979783" lon="10.530842311903365"><ele>17.6</ele><time>2026-04-20T15:26:23Z</time></trkpt><trkpt lat="42.927752911574295" lon="10.530941118556669"><ele>16.8</ele><time>2026-04-20T15:26:24Z</time></trkpt><trkpt lat="42.92771102986464" lon="10.531064176345662"><ele>16.0</ele><time>2026-04-20T15:26:25Z</time></trkpt><trkpt lat="42.92766581151593" lon="10.531172644806068"><ele>15.833333333333332</ele><time>2026-04-20T15:26:26Z</time></trkpt><trkpt lat="42.92762674519075" lon="10.531276435200656"><ele>15.666666666666666</ele><time>2026-04-20T15:26:27Z</time></trkpt><trkpt lat="42.92759265010065" lon="10.531371534920979"><ele>15.5</ele><time>2026-04-20T15:26:28Z</time></trkpt><trkpt lat="42.92755720494906" lon="10.531462619791924"><ele>15.333333333333332</ele><time>2026-04-20T15:26:29Z</time></trkpt><trkpt lat="42.927547523920715" lon="10.531559739660713"><ele>15.166666666666666</ele><time>2026-04-20T15:26:30Z</time></trkpt><trkpt lat="42.92755925444352" lon="10.531659055710097"><ele>15.0</ele><time>2026-04-20T15:26:31Z</time></trkpt><trkpt lat="42.92758691449789" lon="10.531774056882579"><ele>15.0</ele><time>2026-04-20T15:26:32Z</time></trkpt><trkpt lat="42.9276290600261" lon="10.531877954957771"><ele>15.0</ele><time>2026-04-20T15:26:33Z</time></trkpt><trkpt lat="42.92766541148021" lon="10.531964737307845"><ele>15.0</ele><time>2026-04-20T15:26:34Z</time></trkpt><trkpt lat="42.92770139096468" lon="10.532069520114478"><ele>15.0</ele><time>2026-04-20T15:26:35Z</time></trkpt><trkpt lat="42.92774076847738" lon="10.532146796685026"><ele>15.0</ele><time>2026-04-20T15:26:36Z</time></trkpt><trkpt lat="42.92778407182633" lon="10.532235586697508"><ele>15.0</ele><time>2026-04-20T15:26:37Z</time></trkpt><trkpt lat="42.92782651758674" lon="10.532317380937336"><ele>15.333333333333334</ele><time>2026-04-20T15:26:38Z</time></trkpt><trkpt lat="42.92787258035799" lon="10.53240619114672"><ele>15.666666666666668</ele><time>2026-04-20T15:26:39Z</time></trkpt><trkpt lat="42.927921739018046" lon="10.532500689405277"><ele>16.0</ele><time>2026-04-20T15:26:40Z</time></trkpt><trkpt lat="42.92796719450577" lon="10.532588607396004"><ele>16.333333333333336</ele><time>2026-04-20T15:26:41Z</time></trkpt><trkpt lat="42.927998698938076" lon="10.532673569121142"><ele>16.666666666666668</ele><time>2026-04-20T15:26:42Z</time></trkpt><trkpt lat="42.92799742398302" lon="10.532844190496998"><ele>17.0</ele><time>2026-04-20T15:26:44Z</time></trkpt><trkpt lat="42.92796604591478" lon="10.532934560327993"><ele>17.2</ele><time>2026-04-20T15:26:45Z</time></trkpt><trkpt lat="42.927912898860264" lon="10.5330148213091"><ele>17.4</ele><time>2026-04-20T15:26:46Z</time></trkpt><trkpt lat="42.927857740287926" lon="10.533099940242554"><ele>17.6</ele><time>2026-04-20T15:26:47Z</time></trkpt><trkpt lat="42.9277879282188" lon="10.533194804666756"><ele>17.8</ele><time>2026-04-20T15:26:48Z</time></trkpt><trkpt lat="42.92770369274264" lon="10.533284743584739"><ele>18.0</ele><time>2026-04-20T15:26:49Z</time></trkpt><trkpt lat="42.92761937964226" lon="10.533385724988124"><ele>17.25</ele><time>2026-04-20T15:26:50Z</time></trkpt><trkpt lat="42.92753630376815" lon="10.533487561926442"><ele>16.5</ele><time>2026-04-20T15:26:51Z</time></trkpt><trkpt lat="42.92744284264178" lon="10.533596633047804"><ele>15.75</ele><time>2026-04-20T15:26:52Z</time></trkpt><trkpt lat="42.92734831665077" lon="10.533709375134313"><ele>15.0</ele><time>2026-04-20T15:26:53Z</time></trkpt><trkpt lat="42.927255429290675" lon="10.5338206114016"><ele>14.2</ele><time>2026-04-20T15:26:54Z</time></trkpt><trkpt lat="42.927163789346956" lon="10.53393134175461"><ele>13.4</ele><time>2026-04-20T15:26:55Z</time></trkpt><trkpt lat="42.927075957674184" lon="10.534029422194925"><ele>12.600000000000001</ele><time>2026-04-20T15:26:56Z</time></trkpt><trkpt lat="42.92699733826302" lon="10.534116665578416"><ele>11.8</ele><time>2026-04-20T15:26:57Z</time></trkpt><trkpt lat="42.92693081069366" lon="10.534192397202606"><ele>11.0</ele><time>2026-04-20T15:26:58Z</time></trkpt><trkpt lat="42.926860487028655" lon="10.534248309680772"><ele>11.0</ele><time>2026-04-20T15:26:59Z</time></trkpt><trkpt lat="42.926779451964286" lon="10.534283664869811"><ele>11.0</ele><time>2026-04-20T15:27:00Z</time></trkpt><trkpt lat="42.926693747629194" lon="10.53429622239626"><ele>11.0</ele><time>2026-04-20T15:27:01Z</time></trkpt><trkpt lat="42.92661850414332" lon="10.534322301594317"><ele>11.0</ele><time>2026-04-20T15:27:02Z</time></trkpt><trkpt lat="42.92657160861502" lon="10.534386970359954"><ele>11.0</ele><time>2026-04-20T15:27:03Z</time></trkpt><trkpt lat="42.92652986206679" lon="10.534451669047959"><ele>11.0</ele><time>2026-04-20T15:27:04Z</time></trkpt><trkpt lat="42.92648267892951" lon="10.534519983024989"><ele>11.0</ele><time>2026-04-20T15:27:05Z</time></trkpt><trkpt lat="42.92639371426126" lon="10.534560043291702"><ele>11.4</ele><time>2026-04-20T15:27:06Z</time></trkpt><trkpt lat="42.92633644212412" lon="10.534652763274028"><ele>11.8</ele><time>2026-04-20T15:27:07Z</time></trkpt><trkpt lat="42.9262771830759" lon="10.534759704605442"><ele>12.200000000000001</ele><time>2026-04-20T15:27:08Z</time></trkpt><trkpt lat="42.92621897371476" lon="10.534889133132758"><ele>12.600000000000001</ele><time>2026-04-20T15:27:09Z</time></trkpt><trkpt lat="42.926165432519014" lon="10.535036455889253"><ele>13.0</ele><time>2026-04-20T15:27:10Z</time></trkpt><trkpt lat="42.926108200414625" lon="10.535187759786295"><ele>13.0</ele><time>2026-04-20T15:27:11Z</time></trkpt><trkpt lat="42.926055286444786" lon="10.535344483790734"><ele>13.0</ele><time>2026-04-20T15:27:12Z</time></trkpt><trkpt lat="42.92600404550282" lon="10.535508619916701"><ele>13.0</ele><time>2026-04-20T15:27:13Z</time></trkpt><trkpt lat="42.92595451063939" lon="10.535672723031832"><ele>13.0</ele><time>2026-04-20T15:27:14Z</time></trkpt><trkpt lat="42.9259124980229" lon="10.53584294726939"><ele>13.25</ele><time>2026-04-20T15:27:15Z</time></trkpt><trkpt lat="42.92588040769416" lon="10.536013540884026"><ele>13.5</ele><time>2026-04-20T15:27:16Z</time></trkpt><trkpt lat="42.92585725113849" lon="10.536189937479786"><ele>13.75</ele><time>2026-04-20T15:27:17Z</time></trkpt><trkpt lat="42.92584582792861" lon="10.53636789382702"><ele>14.0</ele><time>2026-04-20T15:27:18Z</time></trkpt><trkpt lat="42.92582689685051" lon="10.536553287897398"><ele>14.0</ele><time>2026-04-20T15:27:19Z</time></trkpt><trkpt lat="42.92580823729926" lon="10.536742021068465"><ele>14.0</ele><time>2026-04-20T15:27:20Z</time></trkpt><trkpt lat="42.92579190704192" lon="10.536939012912029"><ele>14.0</ele><time>2026-04-20T15:27:21Z</time></trkpt><trkpt lat="42.925774164674614" lon="10.537092410939195"><ele>14.0</ele><time>2026-04-20T15:27:22Z</time></trkpt><trkpt lat="42.92576067824445" lon="10.537241088611443"><ele>14.0</ele><time>2026-04-20T15:27:23Z</time></trkpt><trkpt lat="42.925742884674655" lon="10.537393462204344"><ele>13.999999999999998</ele><time>2026-04-20T15:27:24Z</time></trkpt><trkpt lat="42.925723839512195" lon="10.537537384374426"><ele>13.999999999999998</ele><time>2026-04-20T15:27:25Z</time></trkpt><trkpt lat="42.925708910239116" lon="10.537683039050066"><ele>14.0</ele><time>2026-04-20T15:27:26Z</time></trkpt><trkpt lat="42.92569789724806" lon="10.537838194269385"><ele>14.0</ele><time>2026-04-20T15:27:27Z</time></trkpt><trkpt lat="42.92568980480478" lon="10.537970588379988"><ele>14.6</ele><time>2026-04-20T15:27:28Z</time></trkpt><trkpt lat="42.92567979863327" lon="10.538070498558927"><ele>15.2</ele><time>2026-04-20T15:27:29Z</time></trkpt><trkpt lat="42.9256486911" lon="10.538201897581612"><ele>15.799999999999999</ele><time>2026-04-20T15:27:31Z</time></trkpt><trkpt lat="42.92559312442021" lon="10.538349998485476"><ele>16.4</ele><time>2026-04-20T15:27:33Z</time></trkpt><trkpt lat="42.92554442700081" lon="10.53840830044753"><ele>17.0</ele><time>2026-04-20T15:27:34Z</time></trkpt><trkpt lat="42.92555156216275" lon="10.538544960522879"><ele>17.0</ele><time>2026-04-20T15:27:35Z</time></trkpt><trkpt lat="42.92555673457106" lon="10.538657009498735"><ele>17.0</ele><time>2026-04-20T15:27:36Z</time></trkpt><trkpt lat="42.92558007198328" lon="10.538772933342383"><ele>17.0</ele><time>2026-04-20T15:27:37Z</time></trkpt><trkpt lat="42.92561886337541" lon="10.53889413837092"><ele>17.0</ele><time>2026-04-20T15:27:38Z</time></trkpt><trkpt lat="42.925664126938" lon="10.539022282112843"><ele>17.0</ele><time>2026-04-20T15:27:39Z</time></trkpt><trkpt lat="42.9257169720622" lon="10.539154383828675"><ele>17.0</ele><time>2026-04-20T15:27:40Z</time></trkpt><trkpt lat="42.92575666769127" lon="10.539322371540052"><ele>17.0</ele><time>2026-04-20T15:27:41Z</time></trkpt><trkpt lat="42.92578422208265" lon="10.539495617883174"><ele>17.0</ele><time>2026-04-20T15:27:42Z</time></trkpt><trkpt lat="42.92581287338757" lon="10.539655546549632"><ele>17.0</ele><time>2026-04-20T15:27:43Z</time></trkpt><trkpt lat="42.92583176606702" lon="10.539808355187951"><ele>17.0</ele><time>2026-04-20T15:27:44Z</time></trkpt><trkpt lat="42.9258657307724" lon="10.539959727147417"><ele>17.0</ele><time>2026-04-20T15:27:45Z</time></trkpt><trkpt lat="42.9258994461906" lon="10.540107054062803"><ele>17.0</ele><time>2026-04-20T15:27:46Z</time></trkpt><trkpt lat="42.92593867988483" lon="10.540247097863832"><ele>17.0</ele><time>2026-04-20T15:27:47Z</time></trkpt><trkpt lat="42.9259827100201" lon="10.540388775210785"><ele>15.6</ele><time>2026-04-20T15:27:48Z</time></trkpt><trkpt lat="42.926020811165245" lon="10.54052380077003"><ele>14.2</ele><time>2026-04-20T15:27:49Z</time></trkpt><trkpt lat="42.926073997081" lon="10.5406607489054"><ele>12.8</ele><time>2026-04-20T15:27:50Z</time></trkpt><trkpt lat="42.92611673008031" lon="10.540788641426067"><ele>11.4</ele><time>2026-04-20T15:27:51Z</time></trkpt><trkpt lat="42.9261578605496" lon="10.540915681068821"><ele>10.0</ele><time>2026-04-20T15:27:52Z</time></trkpt><trkpt lat="42.926183319715044" lon="10.541029280151884"><ele>10.0</ele><time>2026-04-20T15:27:53Z</time></trkpt><trkpt lat="42.92621487426738" lon="10.541136595563728"><ele>10.0</ele><time>2026-04-20T15:27:54Z</time></trkpt><trkpt lat="42.92624624835452" lon="10.541237919811563"><ele>10.0</ele><time>2026-04-20T15:27:55Z</time></trkpt><trkpt lat="42.92627047933532" lon="10.541337391665964"><ele>10.0</ele><time>2026-04-20T15:27:56Z</time></trkpt><trkpt lat="42.9262830981225" lon="10.54150543076996"><ele>10.0</ele><time>2026-04-20T15:27:58Z</time></trkpt><trkpt lat="42.926272051535115" lon="10.541603603695151"><ele>10.0</ele><time>2026-04-20T15:27:59Z</time></trkpt><trkpt lat="42.92622053500946" lon="10.541729095274823"><ele>10.5</ele><time>2026-04-20T15:28:01Z</time></trkpt><trkpt lat="42.92625312490318" lon="10.541823033226231"><ele>11.0</ele><time>2026-04-20T15:28:23Z</time></trkpt><trkpt lat="42.92628997370456" lon="10.54192067357622"><ele>11.5</ele><time>2026-04-20T15:28:25Z</time></trkpt><trkpt lat="42.92632823330807" lon="10.542054269697246"><ele>12.0</ele><time>2026-04-20T15:28:26Z</time></trkpt><trkpt lat="42.92636729007623" lon="10.542159636633832"><ele>12.499999999999998</ele><time>2026-04-20T15:28:27Z</time></trkpt><trkpt lat="42.92640594066715" lon="10.542239726585521"><ele>13.0</ele><time>2026-04-20T15:28:28Z</time></trkpt><trkpt lat="42.926411439554535" lon="10.542344386073307"><ele>13.166666666666666</ele><time>2026-04-20T15:28:29Z</time></trkpt><trkpt lat="42.92644762688163" lon="10.542439172022767"><ele>13.333333333333332</ele><time>2026-04-20T15:28:31Z</time></trkpt><trkpt lat="42.92649564200108" lon="10.54255899199602"><ele>13.5</ele><time>2026-04-20T15:28:33Z</time></trkpt><trkpt lat="42.92651837212349" lon="10.542658272007275"><ele>13.666666666666668</ele><time>2026-04-20T15:28:36Z</time></trkpt><trkpt lat="42.926523358203326" lon="10.5425464464468"><ele>13.833333333333334</ele><time>2026-04-20T15:28:42Z</time></trkpt><trkpt lat="42.92648040529947" lon="10.542409218972532"><ele>14.0</ele><time>2026-04-20T15:28:44Z</time></trkpt><trkpt lat="42.92644040793751" lon="10.542331231641944"><ele>14.0</ele><time>2026-04-20T15:28:45Z</time></trkpt><trkpt lat="42.92639694997949" lon="10.542197046305342"><ele>14.0</ele><time>2026-04-20T15:28:47Z</time></trkpt><trkpt lat="42.92636432418146" lon="10.542105477788551"><ele>14.0</ele><time>2026-04-20T15:28:50Z</time></trkpt><trkpt lat="42.92640916131089" lon="10.542178101647764"><ele>14.0</ele><time>2026-04-20T15:28:51Z</time></trkpt><trkpt lat="42.92658705647416" lon="10.542010453002401"><ele>14.0</ele><time>2026-04-20T15:28:53Z</time></trkpt><trkpt lat="42.92665407491623" lon="10.54211107091365"><ele>13.999999999999998</ele><time>2026-04-20T15:28:55Z</time></trkpt><trkpt lat="42.92670271840361" lon="10.542188762235734"><ele>13.999999999999998</ele><time>2026-04-20T15:28:56Z</time></trkpt><trkpt lat="42.92676954027093" lon="10.542277685170228"><ele>14.0</ele><time>2026-04-20T15:28:57Z</time></trkpt><trkpt lat="42.92683571020782" lon="10.542363076468067"><ele>14.0</ele><time>2026-04-20T15:28:58Z</time></trkpt><trkpt lat="42.92690998524945" lon="10.542467838755925"><ele>13.25</ele><time>2026-04-20T15:28:59Z</time></trkpt><trkpt lat="42.926996188042146" lon="10.542589286206859"><ele>12.5</ele><time>2026-04-20T15:29:00Z</time></trkpt><trkpt lat="42.927081966316926" lon="10.54271848989918"><ele>11.75</ele><time>2026-04-20T15:29:01Z</time></trkpt><trkpt lat="42.92716742645954" lon="10.542843804501036"><ele>11.0</ele><time>2026-04-20T15:29:02Z</time></trkpt><trkpt lat="42.92726002708663" lon="10.542968860391367"><ele>11.0</ele><time>2026-04-20T15:29:03Z</time></trkpt><trkpt lat="42.92735411034832" lon="10.543099834146162"><ele>11.0</ele><time>2026-04-20T15:29:04Z</time></trkpt><trkpt lat="42.92744692559858" lon="10.543221075879787"><ele>11.0</ele><time>2026-04-20T15:29:05Z</time></trkpt><trkpt lat="42.92752360282461" lon="10.543334326134737"><ele>11.0</ele><time>2026-04-20T15:29:06Z</time></trkpt><trkpt lat="42.927604683693495" lon="10.543465355323288"><ele>10.200000000000001</ele><time>2026-04-20T15:29:07Z</time></trkpt><trkpt lat="42.927690618934676" lon="10.543576619344982"><ele>9.4</ele><time>2026-04-20T15:29:08Z</time></trkpt><trkpt lat="42.92774270352448" lon="10.543715203623057"><ele>8.6</ele><time>2026-04-20T15:29:09Z</time></trkpt><trkpt lat="42.9278014047268" lon="10.543836981956805"><ele>7.8</ele><time>2026-04-20T15:29:10Z</time></trkpt><trkpt lat="42.92784417017701" lon="10.543944459078729"><ele>7.0</ele><time>2026-04-20T15:29:11Z</time></trkpt><trkpt lat="42.927880609146925" lon="10.54401889931124"><ele>7.000000000000001</ele><time>2026-04-20T15:29:13Z</time></trkpt><trkpt lat="42.92792778979931" lon="10.544090753940097"><ele>7.0</ele><time>2026-04-20T15:29:26Z</time></trkpt><trkpt lat="42.92792528575042" lon="10.544180194376825"><ele>7.0</ele><time>2026-04-20T15:29:27Z</time></trkpt><trkpt lat="42.92797906495796" lon="10.544332768784423"><ele>7.0</ele><time>2026-04-20T15:29:29Z</time></trkpt><trkpt lat="42.928002022961294" lon="10.544432265860115"><ele>7.000000000000001</ele><time>2026-04-20T15:29:30Z</time></trkpt><trkpt lat="42.928006071024235" lon="10.544524698200231"><ele>7.0</ele><time>2026-04-20T15:29:31Z</time></trkpt><trkpt lat="42.92803434191663" lon="10.54468305240292"><ele>6.500000000000001</ele><time>2026-04-20T15:29:33Z</time></trkpt><trkpt lat="42.928053025192284" lon="10.544823081049893"><ele>6.0</ele><time>2026-04-20T15:29:35Z</time></trkpt><trkpt lat="42.92807366809286" lon="10.544939308659671"><ele>5.5</ele><time>2026-04-20T15:29:37Z</time></trkpt><trkpt lat="42.92809906746147" lon="10.545020831692133"><ele>5.0</ele><time>2026-04-20T15:29:40Z</time></trkpt><trkpt lat="42.92809563196352" lon="10.545119683892654"><ele>4.5</ele><time>2026-04-20T15:29:57Z</time></trkpt><trkpt lat="42.92812635669164" lon="10.545243132306819"><ele>4.0</ele><time>2026-04-20T15:29:59Z</time></trkpt><trkpt lat="42.9281598891839" lon="10.545383682732854"><ele>3.4999999999999996</ele><time>2026-04-20T15:30:02Z</time></trkpt><trkpt lat="42.928197815528954" lon="10.545493946896283"><ele>3.0</ele><time>2026-04-20T15:30:04Z</time></trkpt><trkpt lat="42.92830862781986" lon="10.545568141811728"><ele>2.5</ele><time>2026-04-20T15:30:07Z</time></trkpt><trkpt lat="42.92836093488175" lon="10.545489243519896"><ele>2.0</ele><time>2026-04-20T15:30:08Z</time></trkpt><trkpt lat="42.92841538749286" lon="10.545439060520225"><ele>1.5</ele><time>2026-04-20T15:30:09Z</time></trkpt><trkpt lat="42.928470432370425" lon="10.54538295933078"><ele>1.0</ele><time>2026-04-20T15:30:10Z</time></trkpt><trkpt lat="42.92854704212888" lon="10.545256815109816"><ele>1.0</ele><time>2026-04-20T15:30:12Z</time></trkpt><trkpt lat="42.92861165892283" lon="10.545217405553974"><ele>1.0</ele><time>2026-04-20T15:30:13Z</time></trkpt><trkpt lat="42.928694907184315" lon="10.545114928076655"><ele>1.0</ele><time>2026-04-20T15:30:15Z</time></trkpt><trkpt lat="42.92877377257684" lon="10.545060432785348"><ele>1.0</ele><time>2026-04-20T15:30:17Z</time></trkpt><trkpt lat="42.92892630167931" lon="10.545293744866854"><ele>0.8</ele><time>2026-04-20T15:31:30Z</time></trkpt><trkpt lat="42.92898977850364" lon="10.54541517636545"><ele>0.6000000000000001</ele><time>2026-04-20T15:31:32Z</time></trkpt><trkpt lat="42.929054353128485" lon="10.54555080587491"><ele>0.4</ele><time>2026-04-20T15:31:34Z</time></trkpt><trkpt lat="42.92910340251633" lon="10.545653245515226"><ele>0.2</ele><time>2026-04-20T15:31:36Z</time></trkpt><trkpt lat="42.929168192598155" lon="10.545637567646727"><ele>0.0</ele><time>2026-04-20T15:33:25Z</time></trkpt><trkpt lat="42.92925708710974" lon="10.545617900271171"><ele>0.0</ele><time>2026-04-20T15:33:37Z</time></trkpt><trkpt lat="42.92935092952011" lon="10.545648071016288"><ele>0.0</ele><time>2026-04-20T15:33:43Z</time></trkpt><trkpt lat="42.92940845003247" lon="10.545732368985648"><ele>0.0</ele><time>2026-04-20T15:33:47Z</time></trkpt><trkpt lat="42.929392294450395" lon="10.545639471978594"><ele>0.0</ele><time>2026-04-20T15:33:54Z</time></trkpt><trkpt lat="42.92932206824467" lon="10.545518045328064"><ele>0.0</ele><time>2026-04-20T15:33:56Z</time></trkpt><trkpt lat="42.929265167783285" lon="10.54542041826743"><ele>0.0</ele><time>2026-04-20T15:33:57Z</time></trkpt><trkpt lat="42.92921335810328" lon="10.545294968947008"><ele>0.0</ele><time>2026-04-20T15:33:58Z</time></trkpt><trkpt lat="42.92916897232058" lon="10.545211488458728"><ele>0.0</ele><time>2026-04-20T15:33:59Z</time></trkpt><trkpt lat="42.929328815717646" lon="10.545656022424593"><ele>0.0</ele><time>2026-04-20T15:34:00Z</time></trkpt><trkpt lat="42.929281625362655" lon="10.545543350103728"><ele>0.0</ele><time>2026-04-20T15:34:03Z</time></trkpt><trkpt lat="42.92919680260314" lon="10.545394805365376"><ele>0.0</ele><time>2026-04-20T15:34:06Z</time></trkpt><trkpt lat="42.92916582946095" lon="10.545159198619334"><ele>0.0</ele><time>2026-04-20T15:34:08Z</time></trkpt><trkpt lat="42.92913489025925" lon="10.544987421071019"><ele>0.3333333333333333</ele><time>2026-04-20T15:34:10Z</time></trkpt><trkpt lat="42.92908920875476" lon="10.544837428032151"><ele>0.6666666666666666</ele><time>2026-04-20T15:34:11Z</time></trkpt><trkpt lat="42.92917169498604" lon="10.544996167821246"><ele>1.0</ele><time>2026-04-20T15:34:13Z</time></trkpt><trkpt lat="42.92887360366084" lon="10.54525704632752"><ele>0.0</ele><time>2026-04-20T15:34:29Z</time></trkpt><trkpt lat="42.929095630574196" lon="10.546021386990832"><ele>0.0</ele><time>2026-04-20T15:36:10Z</time></trkpt><trkpt lat="42.92910382210567" lon="10.546131345575857"><ele>0.0</ele><time>2026-04-20T15:36:11Z</time></trkpt><trkpt lat="42.929125064575395" lon="10.546226121947695"><ele>0.0</ele><time>2026-04-20T15:36:13Z</time></trkpt><trkpt lat="42.92900501678617" lon="10.545859511787862"><ele>0.0</ele><time>2026-04-20T15:36:26Z</time></trkpt><trkpt lat="42.92886604060566" lon="10.545538589034283"><ele>0.0</ele><time>2026-04-20T15:36:28Z</time></trkpt><trkpt lat="42.92915455535327" lon="10.54567387328534"><ele>0.0</ele><time>2026-04-20T15:36:51Z</time></trkpt><trkpt lat="42.92891161225666" lon="10.54645029008642"><ele>-3.0</ele><time>2026-04-20T15:36:57Z</time></trkpt><trkpt lat="42.929032067309116" lon="10.547077197828305"><ele>-3.0</ele><time>2026-04-20T15:36:59Z</time></trkpt><trkpt lat="42.9290449886202" lon="10.547200703322275"><ele>-3.0</ele><time>2026-04-20T15:37:02Z</time></trkpt><trkpt lat="42.9290845903933" lon="10.54730849685176"><ele>-3.0</ele><time>2026-04-20T15:37:04Z</time></trkpt><trkpt lat="42.929135092953715" lon="10.547419072665063"><ele>-3.0</ele><time>2026-04-20T15:37:06Z</time></trkpt><trkpt lat="42.92919238714636" lon="10.547456112447781"><ele>-3.0</ele><time>2026-04-20T15:37:08Z</time></trkpt><trkpt lat="42.9292374818684" lon="10.54689233836935"><ele>-3.0</ele><time>2026-04-20T15:37:10Z</time></trkpt><trkpt lat="42.92922995057251" lon="10.546547351414844"><ele>-3.0</ele><time>2026-04-20T15:37:18Z</time></trkpt><trkpt lat="42.929181098962545" lon="10.546492167394186"><ele>-3.0</ele><time>2026-04-20T15:37:19Z</time></trkpt><trkpt lat="42.92919089090375" lon="10.54638088681786"><ele>-3.0</ele><time>2026-04-20T15:37:23.027Z</time></trkpt><trkpt lat="42.92985646418819" lon="10.545957416456039"><ele>0.0</ele><time>2026-04-20T15:37:46Z</time></trkpt><trkpt lat="42.92903549645941" lon="10.545441017076245"><ele>0.0</ele><time>2026-04-20T15:37:49Z</time></trkpt><trkpt lat="42.9300341103628" lon="10.54586187937348"><ele>0.0</ele><time>2026-04-20T15:37:58Z</time></trkpt><trkpt lat="42.92997715533075" lon="10.54599305615811"><ele>0.0</ele><time>2026-04-20T15:38:02Z</time></trkpt><trkpt lat="42.92981597133276" lon="10.546216601515697"><ele>0.0</ele><time>2026-04-20T15:38:03Z</time></trkpt><trkpt lat="42.929631234186864" lon="10.546039240444589"><ele>0.0</ele><time>2026-04-20T15:38:05Z</time></trkpt><trkpt lat="42.92923781136627" lon="10.545388849923253"><ele>0.0</ele><time>2026-04-20T15:38:07Z</time></trkpt><trkpt lat="42.92921752771116" lon="10.545534396398073"><ele>0.0</ele><time>2026-04-20T15:38:09Z</time></trkpt><trkpt lat="42.92927249670323" lon="10.545582514286412"><ele>0.0</ele><time>2026-04-20T15:38:12Z</time></trkpt><trkpt lat="42.92970868297216" lon="10.546245267624544"><ele>0.0</ele><time>2026-04-20T15:38:18Z</time></trkpt><trkpt lat="42.92949884573922" lon="10.545908085633828"><ele>0.0</ele><time>2026-04-20T15:38:24Z</time></trkpt><trkpt lat="42.92942834171857" lon="10.545770636667816"><ele>0.0</ele><time>2026-04-20T15:38:27Z</time></trkpt><trkpt lat="42.92939258369292" lon="10.545691528015587"><ele>-0.3333333333333333</ele><time>2026-04-20T15:38:29Z</time></trkpt><trkpt lat="42.92931522631734" lon="10.54525593769619"><ele>-0.6666666666666666</ele><time>2026-04-20T15:38:31Z</time></trkpt><trkpt lat="42.929361706293086" lon="10.545144085126617"><ele>-1.0</ele><time>2026-04-20T15:38:33Z</time></trkpt><trkpt lat="42.92921384543792" lon="10.545019617679852"><ele>-1.0</ele><time>2026-04-20T15:38:34Z</time></trkpt><trkpt lat="42.929266508467485" lon="10.545073733968643"><ele>-1.0</ele><time>2026-04-20T15:38:36Z</time></trkpt><trkpt lat="42.92935249195193" lon="10.54548487745337"><ele>-1.0</ele><time>2026-04-20T15:38:37Z</time></trkpt><trkpt lat="42.92907053285241" lon="10.545034570010397"><ele>-0.3333333333333333</ele><time>2026-04-20T15:38:38Z</time></trkpt><trkpt lat="42.92908820290157" lon="10.544951098308255"><ele>0.3333333333333333</ele><time>2026-04-20T15:38:48Z</time></trkpt><trkpt lat="42.92909705012035" lon="10.544856109852297"><ele>1.0</ele><time>2026-04-20T15:38:58Z</time></trkpt><trkpt lat="42.929790734525014" lon="10.546424302622585"><ele>1.0</ele><time>2026-04-20T15:39:19Z</time></trkpt></trkseg><trkseg><trkpt lat="42.91593579050471" lon="10.550190879446122"><ele>0.0</ele><time>2026-04-20T16:04:14Z</time></trkpt><trkpt lat="42.91583641176718" lon="10.55012624730413"><ele>0.0</ele><time>2026-04-20T16:04:15Z</time></trkpt><trkpt lat="42.9157494008017" lon="10.550086874178888"><ele>0.0</ele><time>2026-04-20T16:04:16Z</time></trkpt><trkpt lat="42.91567040530448" lon="10.550061709880998"><ele>0.0</ele><time>2026-04-20T16:04:17Z</time></trkpt><trkpt lat="42.915594775051524" lon="10.550028346345036"><ele>0.0</ele><time>2026-04-20T16:04:18Z</time></trkpt><trkpt lat="42.91552529121498" lon="10.549983615704235"><ele>0.0</ele><time>2026-04-20T16:04:19Z</time></trkpt><trkpt lat="42.915462830622396" lon="10.549942794244668"><ele>0.0</ele><time>2026-04-20T16:04:20Z</time></trkpt><trkpt lat="42.91539475230043" lon="10.54989884876681"><ele>0.0</ele><time>2026-04-20T16:04:21Z</time></trkpt><trkpt lat="42.91532846820203" lon="10.549854252184057"><ele>0.0</ele><time>2026-04-20T16:04:22Z</time></trkpt><trkpt lat="42.9152654205748" lon="10.549809685029935"><ele>0.0</ele><time>2026-04-20T16:04:23Z</time></trkpt><trkpt lat="42.91518491553798" lon="10.54977655101951"><ele>0.0</ele><time>2026-04-20T16:04:24Z</time></trkpt><trkpt lat="42.91510010297879" lon="10.549733420870975"><ele>0.0</ele><time>2026-04-20T16:04:25Z</time></trkpt><trkpt lat="42.91504278616033" lon="10.549685300628187"><ele>0.0</ele><time>2026-04-20T16:04:26Z</time></trkpt><trkpt lat="42.91496315989341" lon="10.549641090514806"><ele>0.0</ele><time>2026-04-20T16:04:27Z</time></trkpt><trkpt lat="42.9148064144232" lon="10.549619802127024"><ele>0.0</ele><time>2026-04-20T16:04:28Z</time></trkpt><trkpt lat="42.91470176529174" lon="10.549468685154613"><ele>0.0</ele><time>2026-04-20T16:04:31Z</time></trkpt><trkpt lat="42.91465959804131" lon="10.549390444035165"><ele>0.0</ele><time>2026-04-20T16:04:32Z</time></trkpt><trkpt lat="42.914599277568236" lon="10.54933406908171"><ele>0.0</ele><time>2026-04-20T16:04:33Z</time></trkpt><trkpt lat="42.91453775392423" lon="10.549285471253443"><ele>0.0</ele><time>2026-04-20T16:04:34Z</time></trkpt><trkpt lat="42.914475451061826" lon="10.549212601530368"><ele>0.0</ele><time>2026-04-20T16:04:35Z</time></trkpt><trkpt lat="42.91440640708022" lon="10.549184781750801"><ele>0.0</ele><time>2026-04-20T16:04:36Z</time></trkpt><trkpt lat="42.914334366956865" lon="10.549075593138765"><ele>0.0</ele><time>2026-04-20T16:04:37Z</time></trkpt><trkpt lat="42.914254583379034" lon="10.548965653170477"><ele>0.0</ele><time>2026-04-20T16:04:38Z</time></trkpt><trkpt lat="42.91418186014411" lon="10.548894758526034"><ele>0.0</ele><time>2026-04-20T16:04:39.014Z</time></trkpt><trkpt lat="42.91359124709192" lon="10.548295648778367"><ele>0.0</ele><time>2026-04-20T16:04:51Z</time></trkpt><trkpt lat="42.91353175195138" lon="10.548253020585463"><ele>0.0</ele><time>2026-04-20T16:04:52Z</time></trkpt><trkpt lat="42.913286071084364" lon="10.548080327851602"><ele>0.0</ele><time>2026-04-20T16:04:54Z</time></trkpt><trkpt lat="42.91241857648963" lon="10.54718927941489"><ele>0.0</ele><time>2026-04-20T16:05:08Z</time></trkpt><trkpt lat="42.91234722515195" lon="10.547252396347846"><ele>0.0</ele><time>2026-04-20T16:05:09Z</time></trkpt><trkpt lat="42.912347175099455" lon="10.547137148487268"><ele>0.0</ele><time>2026-04-20T16:05:12Z</time></trkpt><trkpt lat="42.9122373851747" lon="10.547074233350694"><ele>0.0</ele><time>2026-04-20T16:05:13Z</time></trkpt><trkpt lat="42.91218662370471" lon="10.546845563778236"><ele>0.0</ele><time>2026-04-20T16:05:14Z</time></trkpt><trkpt lat="42.911962302603726" lon="10.546674836771423"><ele>0.0</ele><time>2026-04-20T16:05:15Z</time></trkpt><trkpt lat="42.9118850499139" lon="10.546635038756838"><ele>0.0</ele><time>2026-04-20T16:05:16Z</time></trkpt><trkpt lat="42.911813967373696" lon="10.546602369879052"><ele>0.0</ele><time>2026-04-20T16:05:17Z</time></trkpt><trkpt lat="42.9113202445267" lon="10.546029855554925"><ele>0.0</ele><time>2026-04-20T16:05:29Z</time></trkpt><trkpt lat="42.91128094524036" lon="10.545936303439852"><ele>0.0</ele><time>2026-04-20T16:05:30Z</time></trkpt><trkpt lat="42.91115865871726" lon="10.545913410460365"><ele>0.0</ele><time>2026-04-20T16:05:32Z</time></trkpt><trkpt lat="42.91096004266443" lon="10.545723555021656"><ele>0.0</ele><time>2026-04-20T16:05:34Z</time></trkpt><trkpt lat="42.910886733709894" lon="10.545704917504775"><ele>0.0</ele><time>2026-04-20T16:05:35Z</time></trkpt><trkpt lat="42.910780248312605" lon="10.545650845066067"><ele>0.0</ele><time>2026-04-20T16:05:39Z</time></trkpt><trkpt lat="42.910740703845896" lon="10.545567273501282"><ele>0.0</ele><time>2026-04-20T16:05:40Z</time></trkpt><trkpt lat="42.91066935104633" lon="10.545453896017083"><ele>0.0</ele><time>2026-04-20T16:05:41Z</time></trkpt><trkpt lat="42.91061917266644" lon="10.545379458940321"><ele>0.0</ele><time>2026-04-20T16:05:42Z</time></trkpt><trkpt lat="42.910511564669285" lon="10.545312524315293"><ele>0.0</ele><time>2026-04-20T16:05:43Z</time></trkpt><trkpt lat="42.910445100961226" lon="10.54527511956423"><ele>0.0</ele><time>2026-04-20T16:05:44Z</time></trkpt><trkpt lat="42.91038826509475" lon="10.545228830677956"><ele>0.0</ele><time>2026-04-20T16:05:45Z</time></trkpt><trkpt lat="42.91022090721378" lon="10.545089551056655"><ele>0.0</ele><time>2026-04-20T16:05:46Z</time></trkpt><trkpt lat="42.91016210818944" lon="10.54502635159619"><ele>0.0</ele><time>2026-04-20T16:05:47Z</time></trkpt><trkpt lat="42.91028259205363" lon="10.544987285720309"><ele>0.0</ele><time>2026-04-20T16:05:48Z</time></trkpt><trkpt lat="42.91025649312504" lon="10.54489248070454"><ele>0.0</ele><time>2026-04-20T16:05:49Z</time></trkpt><trkpt lat="42.9102535977822" lon="10.5451022642066"><ele>0.0</ele><time>2026-04-20T16:05:50Z</time></trkpt><trkpt lat="42.91008005480156" lon="10.544845443657854"><ele>0.0</ele><time>2026-04-20T16:05:51Z</time></trkpt><trkpt lat="42.91001633223126" lon="10.544778998430262"><ele>0.0</ele><time>2026-04-20T16:05:52Z</time></trkpt><trkpt lat="42.9099396836148" lon="10.544690059578556"><ele>0.0</ele><time>2026-04-20T16:05:53Z</time></trkpt><trkpt lat="42.90976694461713" lon="10.544754396376018"><ele>0.0</ele><time>2026-04-20T16:05:54Z</time></trkpt><trkpt lat="42.90971128056176" lon="10.54468877583575"><ele>0.0</ele><time>2026-04-20T16:05:56Z</time></trkpt><trkpt lat="42.90967497032208" lon="10.544610303369943"><ele>0.0</ele><time>2026-04-20T16:05:57Z</time></trkpt><trkpt lat="42.90964914700071" lon="10.544507091880144"><ele>0.0</ele><time>2026-04-20T16:05:58Z</time></trkpt><trkpt lat="42.90954117602507" lon="10.544383656132235"><ele>0.0</ele><time>2026-04-20T16:06:00Z</time></trkpt><trkpt lat="42.9094336239747" lon="10.544338834058653"><ele>0.0</ele><time>2026-04-20T16:06:02Z</time></trkpt><trkpt lat="42.909353761248134" lon="10.544253120809403"><ele>0.0</ele><time>2026-04-20T16:06:03Z</time></trkpt><trkpt lat="42.90930074536129" lon="10.544175626554674"><ele>0.0</ele><time>2026-04-20T16:06:04Z</time></trkpt><trkpt lat="42.90919975375858" lon="10.544123804228974"><ele>0.0</ele><time>2026-04-20T16:06:05Z</time></trkpt><trkpt lat="42.909117451776815" lon="10.543993779070691"><ele>0.0</ele><time>2026-04-20T16:06:06Z</time></trkpt><trkpt lat="42.90904170721147" lon="10.543870578900549"><ele>0.0</ele><time>2026-04-20T16:06:08Z</time></trkpt><trkpt lat="42.90848807023025" lon="10.543318326797285"><ele>0.0</ele><time>2026-04-20T16:06:17Z</time></trkpt><trkpt lat="42.908359021659095" lon="10.543224433145562"><ele>0.0</ele><time>2026-04-20T16:06:19Z</time></trkpt><trkpt lat="42.908302043392" lon="10.543144339498273"><ele>0.0</ele><time>2026-04-20T16:06:20Z</time></trkpt><trkpt lat="42.90823623885483" lon="10.543070159592705"><ele>0.0</ele><time>2026-04-20T16:06:21Z</time></trkpt><trkpt lat="42.90819263074312" lon="10.54300464483872"><ele>0.0</ele><time>2026-04-20T16:06:22Z</time></trkpt><trkpt lat="42.908120260584354" lon="10.542917685948828"><ele>0.0</ele><time>2026-04-20T16:06:23Z</time></trkpt><trkpt lat="42.90803925356559" lon="10.54291939619246"><ele>0.0</ele><time>2026-04-20T16:06:25Z</time></trkpt><trkpt lat="42.907980659012395" lon="10.542857445118814"><ele>0.0</ele><time>2026-04-20T16:06:26Z</time></trkpt><trkpt lat="42.90791847993737" lon="10.542788174214525"><ele>0.0</ele><time>2026-04-20T16:06:27Z</time></trkpt><trkpt lat="42.907861714986694" lon="10.542732570497655"><ele>0.0</ele><time>2026-04-20T16:06:28Z</time></trkpt><trkpt lat="42.90775854578395" lon="10.542640759870237"><ele>0.0</ele><time>2026-04-20T16:06:30Z</time></trkpt><trkpt lat="42.90764974314264" lon="10.542549179117273"><ele>0.0</ele><time>2026-04-20T16:06:32Z</time></trkpt><trkpt lat="42.906494187470685" lon="10.541466996938336"><ele>0.0</ele><time>2026-04-20T16:06:51Z</time></trkpt><trkpt lat="42.906431798300154" lon="10.541368928938645"><ele>0.0</ele><time>2026-04-20T16:06:52Z</time></trkpt><trkpt lat="42.9062361655908" lon="10.541135026076514"><ele>0.0</ele><time>2026-04-20T16:06:53Z</time></trkpt><trkpt lat="42.90404223968053" lon="10.53905930769919"><ele>0.0</ele><time>2026-04-20T16:07:27Z</time></trkpt><trkpt lat="42.903892373794996" lon="10.539111324003864"><ele>0.0</ele><time>2026-04-20T16:08:16.01Z</time></trkpt><trkpt lat="42.903818104937066" lon="10.539089756356203"><ele>0.0</ele><time>2026-04-20T16:08:17.011Z</time></trkpt><trkpt lat="42.90373382365194" lon="10.539062262135397"><ele>0.0</ele><time>2026-04-20T16:08:21.011Z</time></trkpt><trkpt lat="42.90101573825216" lon="10.536003901281026"><ele>0.0</ele><time>2026-04-20T16:08:26Z</time></trkpt><trkpt lat="42.90096792510308" lon="10.53594479907073"><ele>0.0</ele><time>2026-04-20T16:08:27Z</time></trkpt><trkpt lat="42.90091145396493" lon="10.535876930538"><ele>0.0</ele><time>2026-04-20T16:08:28Z</time></trkpt><trkpt lat="42.90085629562394" lon="10.535812335550105"><ele>0.0</ele><time>2026-04-20T16:08:29Z</time></trkpt><trkpt lat="42.9007792981724" lon="10.535738260343814"><ele>0.0</ele><time>2026-04-20T16:08:30Z</time></trkpt><trkpt lat="42.900749563830644" lon="10.535611847059187"><ele>0.0</ele><time>2026-04-20T16:08:32Z</time></trkpt><trkpt lat="42.90069202967471" lon="10.535542892660356"><ele>0.0</ele><time>2026-04-20T16:08:33Z</time></trkpt><trkpt lat="42.90060045128078" lon="10.535458939687562"><ele>0.0</ele><time>2026-04-20T16:08:35Z</time></trkpt><trkpt lat="42.90052350466183" lon="10.535400332659725"><ele>0.0</ele><time>2026-04-20T16:08:37Z</time></trkpt><trkpt lat="42.9004264476303" lon="10.535290288243928"><ele>0.0</ele><time>2026-04-20T16:08:39Z</time></trkpt><trkpt lat="42.90038407975706" lon="10.535203934468196"><ele>0.0</ele><time>2026-04-20T16:08:40Z</time></trkpt><trkpt lat="42.90033672349967" lon="10.535111001899482"><ele>0.0</ele><time>2026-04-20T16:08:41Z</time></trkpt><trkpt lat="42.90028272937158" lon="10.535003750609341"><ele>0.0</ele><time>2026-04-20T16:08:42Z</time></trkpt><trkpt lat="42.90022924376253" lon="10.534896871560443"><ele>0.0</ele><time>2026-04-20T16:08:43Z</time></trkpt><trkpt lat="42.90017277261968" lon="10.534791878812685"><ele>0.0</ele><time>2026-04-20T16:08:44Z</time></trkpt><trkpt lat="42.90011593082256" lon="10.534678198961844"><ele>0.0</ele><time>2026-04-20T16:08:45Z</time></trkpt><trkpt lat="42.89953605736235" lon="10.534349713047716"><ele>0.0</ele><time>2026-04-20T16:08:56Z</time></trkpt><trkpt lat="42.89914702647443" lon="10.533898856002079"><ele>0.0</ele><time>2026-04-20T16:09:01Z</time></trkpt><trkpt lat="42.89771883348468" lon="10.53243328363405"><ele>0.0</ele><time>2026-04-20T16:09:25Z</time></trkpt><trkpt lat="42.89767043925596" lon="10.532335373959134"><ele>0.0</ele><time>2026-04-20T16:09:26Z</time></trkpt><trkpt lat="42.897608393427255" lon="10.53228710045579"><ele>0.0</ele><time>2026-04-20T16:09:27Z</time></trkpt><trkpt lat="42.897528518648635" lon="10.532187990163393"><ele>0.0</ele><time>2026-04-20T16:09:29Z</time></trkpt><trkpt lat="42.89743358354188" lon="10.532112302256786"><ele>0.0</ele><time>2026-04-20T16:09:31Z</time></trkpt><trkpt lat="42.89732241130191" lon="10.531984404478296"><ele>0.0</ele><time>2026-04-20T16:09:33Z</time></trkpt><trkpt lat="42.89727022232471" lon="10.531889477091129"><ele>0.0</ele><time>2026-04-20T16:09:34Z</time></trkpt><trkpt lat="42.897218573265604" lon="10.53183365527623"><ele>0.0</ele><time>2026-04-20T16:09:35Z</time></trkpt><trkpt lat="42.897164263832806" lon="10.531775212020472"><ele>0.0</ele><time>2026-04-20T16:09:36Z</time></trkpt><trkpt lat="42.89710438216976" lon="10.531722529876438"><ele>0.0</ele><time>2026-04-20T16:09:37Z</time></trkpt><trkpt lat="42.89701773169192" lon="10.531678091675056"><ele>0.0</ele><time>2026-04-20T16:09:38Z</time></trkpt><trkpt lat="42.89694301989367" lon="10.531653444545471"><ele>0.0</ele><time>2026-04-20T16:09:39Z</time></trkpt><trkpt lat="42.89687412717474" lon="10.531584834995117"><ele>0.0</ele><time>2026-04-20T16:09:40Z</time></trkpt><trkpt lat="42.89679526623633" lon="10.531461111449804"><ele>0.0</ele><time>2026-04-20T16:09:42Z</time></trkpt><trkpt lat="42.89673415558688" lon="10.53141131743258"><ele>0.0</ele><time>2026-04-20T16:09:43Z</time></trkpt><trkpt lat="42.89665729382328" lon="10.531245798358635"><ele>0.0</ele><time>2026-04-20T16:09:45Z</time></trkpt><trkpt lat="42.896613279733955" lon="10.53116739106567"><ele>0.0</ele><time>2026-04-20T16:09:46Z</time></trkpt><trkpt lat="42.89652694196967" lon="10.531093938118614"><ele>0.0</ele><time>2026-04-20T16:09:47Z</time></trkpt><trkpt lat="42.8964791338033" lon="10.531028272216568"><ele>0.0</ele><time>2026-04-20T16:09:48Z</time></trkpt><trkpt lat="42.89637176010157" lon="10.531017118299454"><ele>0.0</ele><time>2026-04-20T16:09:49Z</time></trkpt><trkpt lat="42.89626481327484" lon="10.530915913044442"><ele>0.0</ele><time>2026-04-20T16:09:51Z</time></trkpt><trkpt lat="42.89621345706974" lon="10.53078500875053"><ele>0.0</ele><time>2026-04-20T16:09:53Z</time></trkpt><trkpt lat="42.896164589015314" lon="10.530714803280125"><ele>0.0</ele><time>2026-04-20T16:09:54Z</time></trkpt><trkpt lat="42.89612346519519" lon="10.530645292600006"><ele>0.0</ele><time>2026-04-20T16:09:55Z</time></trkpt><trkpt lat="42.89608429746285" lon="10.530573537832405"><ele>0.0</ele><time>2026-04-20T16:09:56Z</time></trkpt><trkpt lat="42.895980072928445" lon="10.530526961401254"><ele>0.0</ele><time>2026-04-20T16:09:57Z</time></trkpt><trkpt lat="42.89593028831256" lon="10.530462287565552"><ele>0.0</ele><time>2026-04-20T16:09:58Z</time></trkpt><trkpt lat="42.89587131147863" lon="10.530403159264313"><ele>0.0</ele><time>2026-04-20T16:09:59Z</time></trkpt><trkpt lat="42.895736601464726" lon="10.53021301565596"><ele>0.0</ele><time>2026-04-20T16:10:01Z</time></trkpt><trkpt lat="42.89569670076199" lon="10.530114407366653"><ele>0.0</ele><time>2026-04-20T16:10:02Z</time></trkpt><trkpt lat="42.89562719643885" lon="10.530091665138642"><ele>0.0</ele><time>2026-04-20T16:10:03Z</time></trkpt><trkpt lat="42.8955236554214" lon="10.530047699392767"><ele>0.0</ele><time>2026-04-20T16:10:05Z</time></trkpt><trkpt lat="42.89547252221967" lon="10.529978117474482"><ele>0.0</ele><time>2026-04-20T16:10:06Z</time></trkpt><trkpt lat="42.89537861186364" lon="10.52986940724415"><ele>0.0</ele><time>2026-04-20T16:10:08Z</time></trkpt><trkpt lat="42.89531791326025" lon="10.529801620114258"><ele>0.0</ele><time>2026-04-20T16:10:09Z</time></trkpt><trkpt lat="42.89528767282209" lon="10.529700958808444"><ele>0.0</ele><time>2026-04-20T16:10:10Z</time></trkpt><trkpt lat="42.895237785919676" lon="10.529641383125842"><ele>0.0</ele><time>2026-04-20T16:10:11Z</time></trkpt><trkpt lat="42.89519706948909" lon="10.529553000233497"><ele>0.0</ele><time>2026-04-20T16:10:12Z</time></trkpt><trkpt lat="42.89517137061189" lon="10.529455252356223"><ele>0.0</ele><time>2026-04-20T16:10:13Z</time></trkpt><trkpt lat="42.895118273404094" lon="10.529401119978607"><ele>0.0</ele><time>2026-04-20T16:10:14Z</time></trkpt><trkpt lat="42.895045917045195" lon="10.529268327787623"><ele>0.0</ele><time>2026-04-20T16:10:16Z</time></trkpt><trkpt lat="42.89499745431138" lon="10.529199054361728"><ele>0.0</ele><time>2026-04-20T16:10:17Z</time></trkpt><trkpt lat="42.89494309859181" lon="10.529135758789883"><ele>0.0</ele><time>2026-04-20T16:10:18Z</time></trkpt><trkpt lat="42.89487919269254" lon="10.529066482664408"><ele>0.0</ele><time>2026-04-20T16:10:19Z</time></trkpt><trkpt lat="42.89479729044217" lon="10.528986287720812"><ele>0.0</ele><time>2026-04-20T16:10:20Z</time></trkpt><trkpt lat="42.894690744968926" lon="10.52893561485327"><ele>0.0</ele><time>2026-04-20T16:10:22Z</time></trkpt><trkpt lat="42.894559828385255" lon="10.528786564848184"><ele>0.0</ele><time>2026-04-20T16:10:24Z</time></trkpt><trkpt lat="42.89449196161324" lon="10.528711752564979"><ele>0.0</ele><time>2026-04-20T16:10:25Z</time></trkpt><trkpt lat="42.894397460938066" lon="10.528621408768647"><ele>0.0</ele><time>2026-04-20T16:10:27Z</time></trkpt><trkpt lat="42.8943328314212" lon="10.528567404872792"><ele>0.0</ele><time>2026-04-20T16:10:28Z</time></trkpt><trkpt lat="42.89427585034938" lon="10.528501323479773"><ele>0.0</ele><time>2026-04-20T16:10:29Z</time></trkpt><trkpt lat="42.89422212827685" lon="10.528436589729194"><ele>0.0</ele><time>2026-04-20T16:10:30Z</time></trkpt><trkpt lat="42.894169911252206" lon="10.528368650223252"><ele>0.0</ele><time>2026-04-20T16:10:31Z</time></trkpt><trkpt lat="42.89410907727114" lon="10.528301235199036"><ele>0.0</ele><time>2026-04-20T16:10:32Z</time></trkpt><trkpt lat="42.8940420497348" lon="10.528218780370295"><ele>0.0</ele><time>2026-04-20T16:10:33Z</time></trkpt><trkpt lat="42.89396617713215" lon="10.528136459438812"><ele>0.0</ele><time>2026-04-20T16:10:34Z</time></trkpt><trkpt lat="42.89387563223369" lon="10.528033260396832"><ele>0.0</ele><time>2026-04-20T16:10:36Z</time></trkpt><trkpt lat="42.89377839186688" lon="10.527978570388614"><ele>0.0</ele><time>2026-04-20T16:10:37Z</time></trkpt><trkpt lat="42.893721237046265" lon="10.527922239985562"><ele>0.0</ele><time>2026-04-20T16:10:38Z</time></trkpt><trkpt lat="42.89365801338913" lon="10.52784943195788"><ele>0.0</ele><time>2026-04-20T16:10:40Z</time></trkpt><trkpt lat="42.8935957824247" lon="10.527777805765478"><ele>0.0</ele><time>2026-04-20T16:10:41Z</time></trkpt><trkpt lat="42.893477125989" lon="10.52772366289758"><ele>0.0</ele><time>2026-04-20T16:10:43Z</time></trkpt><trkpt lat="42.89344292568289" lon="10.527621170834966"><ele>0.0</ele><time>2026-04-20T16:10:44Z</time></trkpt><trkpt lat="42.89335327540465" lon="10.527540643904882"><ele>0.0</ele><time>2026-04-20T16:10:45Z</time></trkpt><trkpt lat="42.89328946687754" lon="10.527486886285667"><ele>0.0</ele><time>2026-04-20T16:10:46Z</time></trkpt><trkpt lat="42.89321887858873" lon="10.5274284983396"><ele>0.0</ele><time>2026-04-20T16:10:47Z</time></trkpt><trkpt lat="42.893181460621726" lon="10.527355389680793"><ele>0.0</ele><time>2026-04-20T16:10:48Z</time></trkpt><trkpt lat="42.89307848238242" lon="10.527264783994443"><ele>0.0</ele><time>2026-04-20T16:10:50Z</time></trkpt><trkpt lat="42.892998356577074" lon="10.527152069538458"><ele>0.0</ele><time>2026-04-20T16:10:51Z</time></trkpt><trkpt lat="42.892944245061365" lon="10.526986596805612"><ele>0.0</ele><time>2026-04-20T16:10:52Z</time></trkpt><trkpt lat="42.89289962073666" lon="10.526919680603468"><ele>0.0</ele><time>2026-04-20T16:10:53Z</time></trkpt><trkpt lat="42.89282594344019" lon="10.526773333372812"><ele>0.0</ele><time>2026-04-20T16:10:55Z</time></trkpt><trkpt lat="42.892738635142386" lon="10.526627899815546"><ele>0.0</ele><time>2026-04-20T16:10:57Z</time></trkpt><trkpt lat="42.89268678735434" lon="10.526558929067912"><ele>0.0</ele><time>2026-04-20T16:10:58Z</time></trkpt><trkpt lat="42.892639353426006" lon="10.526478662751593"><ele>0.0</ele><time>2026-04-20T16:10:59Z</time></trkpt><trkpt lat="42.892535343918595" lon="10.526382383673722"><ele>0.0</ele><time>2026-04-20T16:11:01Z</time></trkpt><trkpt lat="42.892488785270636" lon="10.526310372470965"><ele>0.0</ele><time>2026-04-20T16:11:02Z</time></trkpt><trkpt lat="42.8924869582265" lon="10.526205838804717"><ele>0.0</ele><time>2026-04-20T16:11:03Z</time></trkpt><trkpt lat="42.89240700590771" lon="10.525912667450733"><ele>0.0</ele><time>2026-04-20T16:11:04Z</time></trkpt><trkpt lat="42.89232216926249" lon="10.525947221461315"><ele>0.0</ele><time>2026-04-20T16:11:05Z</time></trkpt><trkpt lat="42.89218978720587" lon="10.525852567959568"><ele>0.0</ele><time>2026-04-20T16:11:07Z</time></trkpt><trkpt lat="42.892107224859984" lon="10.52582151730705"><ele>0.0</ele><time>2026-04-20T16:11:08Z</time></trkpt><trkpt lat="42.892067182118254" lon="10.525702812428666"><ele>0.0</ele><time>2026-04-20T16:11:13Z</time></trkpt><trkpt lat="42.89201777130415" lon="10.525625412059597"><ele>0.0</ele><time>2026-04-20T16:11:14Z</time></trkpt><trkpt lat="42.891942269334336" lon="10.525608221734197"><ele>0.0</ele><time>2026-04-20T16:11:15Z</time></trkpt><trkpt lat="42.891875698813855" lon="10.525537998281521"><ele>0.0</ele><time>2026-04-20T16:11:16Z</time></trkpt><trkpt lat="42.89179548474105" lon="10.525488641081887"><ele>0.0</ele><time>2026-04-20T16:11:17Z</time></trkpt><trkpt lat="42.89169153981433" lon="10.525313344148648"><ele>0.0</ele><time>2026-04-20T16:11:19Z</time></trkpt><trkpt lat="42.89164097217926" lon="10.525261468740753"><ele>0.0</ele><time>2026-04-20T16:11:20Z</time></trkpt><trkpt lat="42.89157070825385" lon="10.525193624130216"><ele>0.0</ele><time>2026-04-20T16:11:21Z</time></trkpt><trkpt lat="42.89150076748901" lon="10.52509901988658"><ele>0.0</ele><time>2026-04-20T16:11:22Z</time></trkpt><trkpt lat="42.891393433713326" lon="10.524992074805603"><ele>0.0</ele><time>2026-04-20T16:11:23Z</time></trkpt><trkpt lat="42.89132164828488" lon="10.524899788508144"><ele>0.0</ele><time>2026-04-20T16:11:24Z</time></trkpt><trkpt lat="42.891272629207684" lon="10.524844954465236"><ele>0.0</ele><time>2026-04-20T16:11:25Z</time></trkpt><trkpt lat="42.891259604818345" lon="10.524690411414644"><ele>0.0</ele><time>2026-04-20T16:11:26Z</time></trkpt><trkpt lat="42.8911755709848" lon="10.524538453497103"><ele>0.0</ele><time>2026-04-20T16:11:27Z</time></trkpt><trkpt lat="42.89115936700295" lon="10.524428331639488"><ele>0.0</ele><time>2026-04-20T16:11:28Z</time></trkpt><trkpt lat="42.891122393688185" lon="10.524304027972594"><ele>0.0</ele><time>2026-04-20T16:11:29Z</time></trkpt><trkpt lat="42.891088614204726" lon="10.52422092023466"><ele>0.0</ele><time>2026-04-20T16:11:30Z</time></trkpt><trkpt lat="42.89104164686477" lon="10.524138982344606"><ele>0.0</ele><time>2026-04-20T16:11:31Z</time></trkpt><trkpt lat="42.890950795817105" lon="10.524007591614286"><ele>0.0</ele><time>2026-04-20T16:11:33Z</time></trkpt><trkpt lat="42.89089996273264" lon="10.523953794666628"><ele>0.0</ele><time>2026-04-20T16:11:34Z</time></trkpt><trkpt lat="42.89080225371644" lon="10.52386135310509"><ele>0.0</ele><time>2026-04-20T16:11:36Z</time></trkpt><trkpt lat="42.8907284538427" lon="10.523846613166615"><ele>0.0</ele><time>2026-04-20T16:11:37Z</time></trkpt><trkpt lat="42.89067744632393" lon="10.523777156503492"><ele>0.0</ele><time>2026-04-20T16:11:38Z</time></trkpt><trkpt lat="42.89049933117013" lon="10.524377574450451"><ele>0.0</ele><time>2026-04-20T16:11:39Z</time></trkpt><trkpt lat="42.89037993861018" lon="10.524474284123842"><ele>0.0</ele><time>2026-04-20T16:11:40Z</time></trkpt><trkpt lat="42.890353685847224" lon="10.523756034100469"><ele>0.0</ele><time>2026-04-20T16:11:42Z</time></trkpt><trkpt lat="42.89029397357445" lon="10.523703501056115"><ele>0.0</ele><time>2026-04-20T16:11:43Z</time></trkpt><trkpt lat="42.89027948854291" lon="10.523596466582147"><ele>0.0</ele><time>2026-04-20T16:11:44Z</time></trkpt><trkpt lat="42.89020723237036" lon="10.523503346700961"><ele>0.0</ele><time>2026-04-20T16:11:45Z</time></trkpt><trkpt lat="42.89012582275683" lon="10.523492685009463"><ele>0.0</ele><time>2026-04-20T16:11:47Z</time></trkpt><trkpt lat="42.89006043301407" lon="10.523493209612221"><ele>0.0</ele><time>2026-04-20T16:11:48Z</time></trkpt><trkpt lat="42.88997742864076" lon="10.523402332483878"><ele>0.0</ele><time>2026-04-20T16:11:49Z</time></trkpt><trkpt lat="42.88989722374066" lon="10.523322201536969"><ele>0.0</ele><time>2026-04-20T16:11:50Z</time></trkpt><trkpt lat="42.889851883189266" lon="10.523226632121258"><ele>0.0</ele><time>2026-04-20T16:11:51Z</time></trkpt><trkpt lat="42.88974681527788" lon="10.523217542496242"><ele>0.0</ele><time>2026-04-20T16:11:52Z</time></trkpt><trkpt lat="42.88970101928731" lon="10.523116815260648"><ele>0.0</ele><time>2026-04-20T16:11:53Z</time></trkpt><trkpt lat="42.88965850708384" lon="10.522996775451844"><ele>0.0</ele><time>2026-04-20T16:11:55Z</time></trkpt><trkpt lat="42.88950595704655" lon="10.52289008118911"><ele>0.0</ele><time>2026-04-20T16:11:57Z</time></trkpt><trkpt lat="42.889400311322014" lon="10.522967870062386"><ele>0.0</ele><time>2026-04-20T16:11:59Z</time></trkpt><trkpt lat="42.889365384871724" lon="10.522848099732705"><ele>0.0</ele><time>2026-04-20T16:12:00Z</time></trkpt><trkpt lat="42.889275558305656" lon="10.522716434195166"><ele>0.0</ele><time>2026-04-20T16:12:02Z</time></trkpt><trkpt lat="42.889212373716646" lon="10.522576937639213"><ele>0.0</ele><time>2026-04-20T16:12:03Z</time></trkpt><trkpt lat="42.889177073322514" lon="10.522494633192837"><ele>0.0</ele><time>2026-04-20T16:12:04Z</time></trkpt><trkpt lat="42.88913592729982" lon="10.522379945346652"><ele>0.0</ele><time>2026-04-20T16:12:05Z</time></trkpt><trkpt lat="42.88908237345249" lon="10.522272108467748"><ele>0.0</ele><time>2026-04-20T16:12:06Z</time></trkpt><trkpt lat="42.88902715533885" lon="10.52216863740632"><ele>0.0</ele><time>2026-04-20T16:12:07Z</time></trkpt><trkpt lat="42.88892625768215" lon="10.522053929754229"><ele>0.0</ele><time>2026-04-20T16:12:09Z</time></trkpt><trkpt lat="42.88887938801252" lon="10.521990344050954"><ele>0.0</ele><time>2026-04-20T16:12:10Z</time></trkpt><trkpt lat="42.888808672171145" lon="10.52202381186819"><ele>0.0</ele><time>2026-04-20T16:12:11Z</time></trkpt><trkpt lat="42.88874743071221" lon="10.52196093103594"><ele>0.0</ele><time>2026-04-20T16:12:12Z</time></trkpt><trkpt lat="42.88869384528663" lon="10.521899164516741"><ele>0.0</ele><time>2026-04-20T16:12:13Z</time></trkpt><trkpt lat="42.888588440616175" lon="10.521821692018225"><ele>0.0</ele><time>2026-04-20T16:12:15Z</time></trkpt><trkpt lat="42.888488032494045" lon="10.521688580148837"><ele>0.0</ele><time>2026-04-20T16:12:17Z</time></trkpt><trkpt lat="42.88841267126253" lon="10.521663279932136"><ele>0.0</ele><time>2026-04-20T16:12:19Z</time></trkpt><trkpt lat="42.88835265429045" lon="10.52161612724759"><ele>0.0</ele><time>2026-04-20T16:12:20Z</time></trkpt><trkpt lat="42.888269910146136" lon="10.521537853052555"><ele>0.0</ele><time>2026-04-20T16:12:21Z</time></trkpt><trkpt lat="42.888210785363576" lon="10.521438477667008"><ele>0.0</ele><time>2026-04-20T16:12:22Z</time></trkpt><trkpt lat="42.88814836987128" lon="10.521371996639692"><ele>0.0</ele><time>2026-04-20T16:12:23Z</time></trkpt><trkpt lat="42.88807869717508" lon="10.521283268370246"><ele>0.0</ele><time>2026-04-20T16:12:24Z</time></trkpt><trkpt lat="42.88795960410444" lon="10.521173382563656"><ele>0.0</ele><time>2026-04-20T16:12:25Z</time></trkpt><trkpt lat="42.887896265730895" lon="10.52110426515463"><ele>0.0</ele><time>2026-04-20T16:12:26Z</time></trkpt><trkpt lat="42.88782626510768" lon="10.52102720968249"><ele>0.0</ele><time>2026-04-20T16:12:27.017Z</time></trkpt><trkpt lat="42.88776238904624" lon="10.520960562776157"><ele>0.0</ele><time>2026-04-20T16:12:28.018Z</time></trkpt><trkpt lat="42.8880685128028" lon="10.521234873169616"><ele>0.0</ele><time>2026-04-20T16:12:29Z</time></trkpt><trkpt lat="42.88755055122919" lon="10.520739588352683"><ele>0.0</ele><time>2026-04-20T16:12:34Z</time></trkpt><trkpt lat="42.88763253008528" lon="10.520623195071675"><ele>0.0</ele><time>2026-04-20T16:12:35Z</time></trkpt><trkpt lat="42.887457757231225" lon="10.520687289052322"><ele>0.0</ele><time>2026-04-20T16:12:37Z</time></trkpt><trkpt lat="42.887063697020416" lon="10.520029859627149"><ele>0.0</ele><time>2026-04-20T16:12:38Z</time></trkpt><trkpt lat="42.88699155154927" lon="10.519968571931187"><ele>0.0</ele><time>2026-04-20T16:12:39Z</time></trkpt><trkpt lat="42.88757535171513" lon="10.520864706297678"><ele>0.0</ele><time>2026-04-20T16:12:44Z</time></trkpt><trkpt lat="42.88721054968647" lon="10.52065555699209"><ele>0.0</ele><time>2026-04-20T16:12:46Z</time></trkpt><trkpt lat="42.8871576881602" lon="10.52059548932052"><ele>0.0</ele><time>2026-04-20T16:12:47Z</time></trkpt><trkpt lat="42.887054507428175" lon="10.520491613021896"><ele>0.0</ele><time>2026-04-20T16:12:49Z</time></trkpt><trkpt lat="42.88693858843895" lon="10.520333432761829"><ele>0.0</ele><time>2026-04-20T16:12:50Z</time></trkpt><trkpt lat="42.886846178493116" lon="10.520260606034414"><ele>0.0</ele><time>2026-04-20T16:12:51Z</time></trkpt><trkpt lat="42.88678678123867" lon="10.520203602283528"><ele>0.0</ele><time>2026-04-20T16:12:52Z</time></trkpt><trkpt lat="42.88670979967573" lon="10.520106728194834"><ele>0.0</ele><time>2026-04-20T16:12:53Z</time></trkpt><trkpt lat="42.88664771575814" lon="10.52004190708605"><ele>0.0</ele><time>2026-04-20T16:12:54Z</time></trkpt><trkpt lat="42.88655705630066" lon="10.519962382769911"><ele>0.0</ele><time>2026-04-20T16:12:55Z</time></trkpt><trkpt lat="42.88649878731213" lon="10.519890548657667"><ele>0.0</ele><time>2026-04-20T16:12:56Z</time></trkpt><trkpt lat="42.88643593164439" lon="10.519820475005455"><ele>0.0</ele><time>2026-04-20T16:12:57Z</time></trkpt><trkpt lat="42.886378826938056" lon="10.519746641412748"><ele>0.0</ele><time>2026-04-20T16:12:58Z</time></trkpt><trkpt lat="42.88632180149334" lon="10.51965432302045"><ele>0.0</ele><time>2026-04-20T16:12:59Z</time></trkpt><trkpt lat="42.886262981339705" lon="10.519563490161266"><ele>0.0</ele><time>2026-04-20T16:13:00Z</time></trkpt><trkpt lat="42.88623667523265" lon="10.519295258910242"><ele>0.0</ele><time>2026-04-20T16:13:01Z</time></trkpt><trkpt lat="42.886117771784136" lon="10.519208443252216"><ele>0.0</ele><time>2026-04-20T16:13:03Z</time></trkpt><trkpt lat="42.886038980910975" lon="10.519129928049932"><ele>0.0</ele><time>2026-04-20T16:13:04Z</time></trkpt><trkpt lat="42.88597449935343" lon="10.519070630704297"><ele>0.0</ele><time>2026-04-20T16:13:05Z</time></trkpt><trkpt lat="42.885882520060726" lon="10.518969092050812"><ele>0.0</ele><time>2026-04-20T16:13:06Z</time></trkpt><trkpt lat="42.885838581729026" lon="10.51883784359523"><ele>0.0</ele><time>2026-04-20T16:13:07Z</time></trkpt><trkpt lat="42.885779459082805" lon="10.518769398185006"><ele>0.0</ele><time>2026-04-20T16:13:08Z</time></trkpt><trkpt lat="42.88570611989028" lon="10.518668871479045"><ele>0.0</ele><time>2026-04-20T16:13:09Z</time></trkpt><trkpt lat="42.88565557116664" lon="10.518568599510413"><ele>0.0</ele><time>2026-04-20T16:13:10Z</time></trkpt><trkpt lat="42.88562132737594" lon="10.518485854247876"><ele>0.0</ele><time>2026-04-20T16:13:11Z</time></trkpt><trkpt lat="42.8855658533211" lon="10.518407807323925"><ele>0.0</ele><time>2026-04-20T16:13:12Z</time></trkpt><trkpt lat="42.88547439045458" lon="10.518309538192891"><ele>0.0</ele><time>2026-04-20T16:13:13Z</time></trkpt><trkpt lat="42.885412395687275" lon="10.51819492022709"><ele>0.0</ele><time>2026-04-20T16:13:14Z</time></trkpt><trkpt lat="42.8853568301131" lon="10.518113359256567"><ele>0.0</ele><time>2026-04-20T16:13:15Z</time></trkpt><trkpt lat="42.885320604291955" lon="10.518028659059762"><ele>0.0</ele><time>2026-04-20T16:13:16Z</time></trkpt><trkpt lat="42.88526010629313" lon="10.51792990384496"><ele>0.0</ele><time>2026-04-20T16:13:17Z</time></trkpt><trkpt lat="42.88518691483995" lon="10.517912886280767"><ele>0.0</ele><time>2026-04-20T16:13:18Z</time></trkpt><trkpt lat="42.88515145107383" lon="10.517815045861948"><ele>0.0</ele><time>2026-04-20T16:13:19Z</time></trkpt><trkpt lat="42.885125622516085" lon="10.517719539011827"><ele>0.0</ele><time>2026-04-20T16:13:20Z</time></trkpt><trkpt lat="42.885039004221106" lon="10.517663664942786"><ele>0.0</ele><time>2026-04-20T16:13:22Z</time></trkpt><trkpt lat="42.885004532362885" lon="10.517563647559514"><ele>0.0</ele><time>2026-04-20T16:13:23Z</time></trkpt><trkpt lat="42.88494799945795" lon="10.517466090523971"><ele>0.0</ele><time>2026-04-20T16:13:24Z</time></trkpt><trkpt lat="42.88489617678639" lon="10.517376753031272"><ele>0.0</ele><time>2026-04-20T16:13:25Z</time></trkpt><trkpt lat="42.88482998797722" lon="10.517365284115701"><ele>0.0</ele><time>2026-04-20T16:13:26Z</time></trkpt><trkpt lat="42.88473425865619" lon="10.517259494830975"><ele>0.0</ele><time>2026-04-20T16:13:28Z</time></trkpt><trkpt lat="42.88468500913302" lon="10.517192598075335"><ele>0.0</ele><time>2026-04-20T16:13:29Z</time></trkpt><trkpt lat="42.884615405481924" lon="10.517140424118377"><ele>0.0</ele><time>2026-04-20T16:13:30Z</time></trkpt><trkpt lat="42.88451840793013" lon="10.517204559670306"><ele>0.0</ele><time>2026-04-20T16:13:31Z</time></trkpt><trkpt lat="42.88443369108569" lon="10.517084779173148"><ele>0.0</ele><time>2026-04-20T16:13:32Z</time></trkpt><trkpt lat="42.88436292065885" lon="10.517064163562369"><ele>0.0</ele><time>2026-04-20T16:13:33Z</time></trkpt><trkpt lat="42.88430278072825" lon="10.516963459555205"><ele>0.0</ele><time>2026-04-20T16:13:35Z</time></trkpt><trkpt lat="42.88423828042961" lon="10.516881056721765"><ele>0.0</ele><time>2026-04-20T16:13:36Z</time></trkpt><trkpt lat="42.88418281825025" lon="10.51681665929479"><ele>0.0</ele><time>2026-04-20T16:13:37Z</time></trkpt><trkpt lat="42.88412596940098" lon="10.516756237138605"><ele>0.0</ele><time>2026-04-20T16:13:38Z</time></trkpt><trkpt lat="42.88406336441813" lon="10.516739102538043"><ele>0.0</ele><time>2026-04-20T16:13:39Z</time></trkpt><trkpt lat="42.88402386240614" lon="10.516632796018538"><ele>0.0</ele><time>2026-04-20T16:13:40Z</time></trkpt><trkpt lat="42.88396620948139" lon="10.516554682335357"><ele>0.0</ele><time>2026-04-20T16:13:41Z</time></trkpt><trkpt lat="42.88389500099932" lon="10.516553427151631"><ele>0.0</ele><time>2026-04-20T16:13:42Z</time></trkpt><trkpt lat="42.88383976683874" lon="10.51648753733451"><ele>0.0</ele><time>2026-04-20T16:13:43Z</time></trkpt><trkpt lat="42.88375233532393" lon="10.516405032956852"><ele>0.0</ele><time>2026-04-20T16:13:45Z</time></trkpt><trkpt lat="42.883697672625466" lon="10.516339437708432"><ele>0.0</ele><time>2026-04-20T16:13:46Z</time></trkpt><trkpt lat="42.883615483168796" lon="10.516264872533847"><ele>0.0</ele><time>2026-04-20T16:13:48Z</time></trkpt><trkpt lat="42.88352930322483" lon="10.516170533723264"><ele>0.0</ele><time>2026-04-20T16:13:50Z</time></trkpt><trkpt lat="42.88351408266387" lon="10.516013855235832"><ele>0.0</ele><time>2026-04-20T16:13:51Z</time></trkpt><trkpt lat="42.88345748412547" lon="10.515943752785759"><ele>0.0</ele><time>2026-04-20T16:13:52Z</time></trkpt><trkpt lat="42.88340376762267" lon="10.515869299174303"><ele>0.0</ele><time>2026-04-20T16:13:53Z</time></trkpt><trkpt lat="42.88331437784373" lon="10.51572518249966"><ele>0.0</ele><time>2026-04-20T16:13:54Z</time></trkpt><trkpt lat="42.88326419929443" lon="10.51566006455244"><ele>0.0</ele><time>2026-04-20T16:13:55Z</time></trkpt><trkpt lat="42.88316393879514" lon="10.515527768029392"><ele>0.0</ele><time>2026-04-20T16:13:57Z</time></trkpt><trkpt lat="42.88308287744593" lon="10.515423470027871"><ele>0.0</ele><time>2026-04-20T16:13:59Z</time></trkpt><trkpt lat="42.88300602202842" lon="10.515349941040247"><ele>0.0</ele><time>2026-04-20T16:14:01Z</time></trkpt><trkpt lat="42.88294024931853" lon="10.51528735197556"><ele>0.0</ele><time>2026-04-20T16:14:02Z</time></trkpt><trkpt lat="42.88288383913241" lon="10.51519585688364"><ele>0.0</ele><time>2026-04-20T16:14:03Z</time></trkpt><trkpt lat="42.88284979933026" lon="10.515089674206383"><ele>0.0</ele><time>2026-04-20T16:14:04Z</time></trkpt><trkpt lat="42.88280167176334" lon="10.515026235247653"><ele>0.0</ele><time>2026-04-20T16:14:05Z</time></trkpt><trkpt lat="42.8827157201919" lon="10.514929622217778"><ele>0.0</ele><time>2026-04-20T16:14:07Z</time></trkpt><trkpt lat="42.88266526610158" lon="10.514858222898072"><ele>0.0</ele><time>2026-04-20T16:14:08Z</time></trkpt><trkpt lat="42.88260489503049" lon="10.514765249109807"><ele>0.0</ele><time>2026-04-20T16:14:09Z</time></trkpt><trkpt lat="42.88247215829961" lon="10.514638510489565"><ele>0.0</ele><time>2026-04-20T16:14:10Z</time></trkpt><trkpt lat="42.88241692989863" lon="10.514556384844639"><ele>0.0</ele><time>2026-04-20T16:14:11Z</time></trkpt><trkpt lat="42.88233378604184" lon="10.514515128039262"><ele>0.0</ele><time>2026-04-20T16:14:13Z</time></trkpt><trkpt lat="42.88222165670326" lon="10.514390246577374"><ele>0.0</ele><time>2026-04-20T16:14:15Z</time></trkpt><trkpt lat="42.882190612754265" lon="10.514266512571714"><ele>0.0</ele><time>2026-04-20T16:14:16Z</time></trkpt><trkpt lat="42.88213256316121" lon="10.514185622723327"><ele>0.0</ele><time>2026-04-20T16:14:17Z</time></trkpt><trkpt lat="42.88205723436797" lon="10.51413549801185"><ele>0.0</ele><time>2026-04-20T16:14:18Z</time></trkpt><trkpt lat="42.88199776736517" lon="10.514086026627174"><ele>0.0</ele><time>2026-04-20T16:14:19Z</time></trkpt><trkpt lat="42.88193119237981" lon="10.514100627965087"><ele>0.0</ele><time>2026-04-20T16:14:20Z</time></trkpt><trkpt lat="42.88185535920254" lon="10.513979451276526"><ele>0.0</ele><time>2026-04-20T16:14:21Z</time></trkpt><trkpt lat="42.88174891212016" lon="10.514120365336082"><ele>0.0</ele><time>2026-04-20T16:14:22Z</time></trkpt><trkpt lat="42.88168881072003" lon="10.514075722268934"><ele>0.0</ele><time>2026-04-20T16:14:23Z</time></trkpt><trkpt lat="42.881621794798406" lon="10.513880594442591"><ele>0.0</ele><time>2026-04-20T16:14:24Z</time></trkpt><trkpt lat="42.88159139310886" lon="10.513713177737499"><ele>0.0</ele><time>2026-04-20T16:14:25Z</time></trkpt><trkpt lat="42.88151475917974" lon="10.513607003950568"><ele>0.0</ele><time>2026-04-20T16:14:27Z</time></trkpt><trkpt lat="42.88142556430308" lon="10.51352825591556"><ele>0.0</ele><time>2026-04-20T16:14:29Z</time></trkpt><trkpt lat="42.881380743350036" lon="10.513459377182961"><ele>0.0</ele><time>2026-04-20T16:14:30Z</time></trkpt><trkpt lat="42.881311825562385" lon="10.513395778723126"><ele>0.0</ele><time>2026-04-20T16:14:31Z</time></trkpt><trkpt lat="42.88124690428405" lon="10.51335887213202"><ele>0.0</ele><time>2026-04-20T16:14:32Z</time></trkpt><trkpt lat="42.881174351838354" lon="10.513300413599818"><ele>0.0</ele><time>2026-04-20T16:14:33Z</time></trkpt><trkpt lat="42.881123150121006" lon="10.513224199831694"><ele>0.0</ele><time>2026-04-20T16:14:34Z</time></trkpt><trkpt lat="42.88103608822357" lon="10.513149015050237"><ele>0.0</ele><time>2026-04-20T16:14:35Z</time></trkpt><trkpt lat="42.880981857076385" lon="10.513098046469606"><ele>0.0</ele><time>2026-04-20T16:14:36Z</time></trkpt><trkpt lat="42.88093185185682" lon="10.513043815097266"><ele>0.0</ele><time>2026-04-20T16:14:37Z</time></trkpt><trkpt lat="42.880846649634286" lon="10.512939548036146"><ele>0.0</ele><time>2026-04-20T16:14:39Z</time></trkpt><trkpt lat="42.880770218161096" lon="10.512881127259083"><ele>0.0</ele><time>2026-04-20T16:14:40Z</time></trkpt><trkpt lat="42.88068773353827" lon="10.512778598267632"><ele>0.0</ele><time>2026-04-20T16:14:42Z</time></trkpt><trkpt lat="42.88061779677683" lon="10.512699465101413"><ele>0.0</ele><time>2026-04-20T16:14:43Z</time></trkpt><trkpt lat="42.88050538134129" lon="10.512605800463966"><ele>0.0</ele><time>2026-04-20T16:14:45Z</time></trkpt><trkpt lat="42.8804532583944" lon="10.512535491875877"><ele>0.0</ele><time>2026-04-20T16:14:46Z</time></trkpt><trkpt lat="42.88036988273722" lon="10.512459739189495"><ele>0.0</ele><time>2026-04-20T16:14:47Z</time></trkpt><trkpt lat="42.88025551747985" lon="10.512378577487498"><ele>0.0</ele><time>2026-04-20T16:14:49Z</time></trkpt><trkpt lat="42.880138078545656" lon="10.5122459664808"><ele>0.0</ele><time>2026-04-20T16:14:51Z</time></trkpt><trkpt lat="42.880087001155864" lon="10.512172716493732"><ele>0.0</ele><time>2026-04-20T16:14:52Z</time></trkpt><trkpt lat="42.88003097066405" lon="10.512078431960079"><ele>0.0</ele><time>2026-04-20T16:14:53Z</time></trkpt><trkpt lat="42.87993007481947" lon="10.511990297776036"><ele>0.0</ele><time>2026-04-20T16:14:55Z</time></trkpt><trkpt lat="42.87985778460463" lon="10.511883866734722"><ele>0.0</ele><time>2026-04-20T16:14:57Z</time></trkpt><trkpt lat="42.879768353050736" lon="10.511804251503115"><ele>0.0</ele><time>2026-04-20T16:14:59Z</time></trkpt><trkpt lat="42.87969898040355" lon="10.511686609028835"><ele>0.0</ele><time>2026-04-20T16:15:01Z</time></trkpt><trkpt lat="42.87957923735529" lon="10.511586885303801"><ele>0.0</ele><time>2026-04-20T16:15:03Z</time></trkpt><trkpt lat="42.879510774553026" lon="10.511464386939002"><ele>0.0</ele><time>2026-04-20T16:15:04Z</time></trkpt><trkpt lat="42.87944021496984" lon="10.511371686448467"><ele>0.0</ele><time>2026-04-20T16:15:05Z</time></trkpt><trkpt lat="42.87938548489872" lon="10.511291284168433"><ele>0.0</ele><time>2026-04-20T16:15:06Z</time></trkpt><trkpt lat="42.8793116983961" lon="10.511287951112104"><ele>0.0</ele><time>2026-04-20T16:15:07Z</time></trkpt><trkpt lat="42.87926273175247" lon="10.51122769625316"><ele>0.0</ele><time>2026-04-20T16:15:08Z</time></trkpt><trkpt lat="42.879199074488504" lon="10.511191483304724"><ele>0.0</ele><time>2026-04-20T16:15:09Z</time></trkpt><trkpt lat="42.87911722965181" lon="10.51111812980893"><ele>0.0</ele><time>2026-04-20T16:15:10Z</time></trkpt><trkpt lat="42.87905390057285" lon="10.511094852226094"><ele>0.0</ele><time>2026-04-20T16:15:11Z</time></trkpt><trkpt lat="42.87898503571039" lon="10.511080725558989"><ele>0.0</ele><time>2026-04-20T16:15:12Z</time></trkpt><trkpt lat="42.87889326034818" lon="10.510975679143288"><ele>0.0</ele><time>2026-04-20T16:15:14Z</time></trkpt><trkpt lat="42.8788304410577" lon="10.51089893215929"><ele>0.0</ele><time>2026-04-20T16:15:15Z</time></trkpt><trkpt lat="42.878731555571626" lon="10.5107609655055"><ele>0.0</ele><time>2026-04-20T16:15:17Z</time></trkpt><trkpt lat="42.87867831736788" lon="10.510698737795455"><ele>0.0</ele><time>2026-04-20T16:15:18Z</time></trkpt><trkpt lat="42.87865005113338" lon="10.510620708423879"><ele>0.0</ele><time>2026-04-20T16:15:19Z</time></trkpt><trkpt lat="42.87858545582761" lon="10.510504257567073"><ele>0.0</ele><time>2026-04-20T16:15:20Z</time></trkpt><trkpt lat="42.87852062683047" lon="10.510422122449107"><ele>0.0</ele><time>2026-04-20T16:15:21Z</time></trkpt><trkpt lat="42.87857016015061" lon="10.51027543024317"><ele>0.0</ele><time>2026-04-20T16:15:22Z</time></trkpt><trkpt lat="42.8785048778938" lon="10.510275663979236"><ele>0.0</ele><time>2026-04-20T16:15:23Z</time></trkpt><trkpt lat="42.878466594414405" lon="10.510196647758269"><ele>0.0</ele><time>2026-04-20T16:15:24Z</time></trkpt><trkpt lat="42.87840181019942" lon="10.510129479234568"><ele>0.0</ele><time>2026-04-20T16:15:25Z</time></trkpt><trkpt lat="42.87831464363877" lon="10.509998684388329"><ele>0.0</ele><time>2026-04-20T16:15:27Z</time></trkpt><trkpt lat="42.87826555857441" lon="10.5099379908465"><ele>0.0</ele><time>2026-04-20T16:15:28Z</time></trkpt><trkpt lat="42.878204725363254" lon="10.509871894982469"><ele>0.0</ele><time>2026-04-20T16:15:29Z</time></trkpt><trkpt lat="42.8781438727369" lon="10.50975755966931"><ele>0.0</ele><time>2026-04-20T16:15:30Z</time></trkpt><trkpt lat="42.87808345890158" lon="10.509688323199834"><ele>0.0</ele><time>2026-04-20T16:15:31Z</time></trkpt><trkpt lat="42.87803000944497" lon="10.509642912360645"><ele>0.0</ele><time>2026-04-20T16:15:32Z</time></trkpt><trkpt lat="42.877967354615336" lon="10.509582451578728"><ele>0.0</ele><time>2026-04-20T16:15:33Z</time></trkpt><trkpt lat="42.877866961162944" lon="10.509420164300886"><ele>0.0</ele><time>2026-04-20T16:15:35Z</time></trkpt><trkpt lat="42.87776423843134" lon="10.509362893294355"><ele>0.0</ele><time>2026-04-20T16:15:36Z</time></trkpt><trkpt lat="42.87771774855749" lon="10.509288574521532"><ele>0.0</ele><time>2026-04-20T16:15:37Z</time></trkpt><trkpt lat="42.87764933806949" lon="10.509283067931818"><ele>0.0</ele><time>2026-04-20T16:15:38Z</time></trkpt><trkpt lat="42.877591642208365" lon="10.509207203366623"><ele>0.0</ele><time>2026-04-20T16:15:39Z</time></trkpt><trkpt lat="42.877520470638316" lon="10.509100624302164"><ele>0.0</ele><time>2026-04-20T16:15:41Z</time></trkpt><trkpt lat="42.87746404242458" lon="10.508996182592947"><ele>0.0</ele><time>2026-04-20T16:15:42Z</time></trkpt><trkpt lat="42.87738782940691" lon="10.509067278333205"><ele>0.0</ele><time>2026-04-20T16:15:43Z</time></trkpt><trkpt lat="42.87733644792676" lon="10.508989044772965"><ele>0.0</ele><time>2026-04-20T16:15:44Z</time></trkpt><trkpt lat="42.87727747780183" lon="10.50890075874922"><ele>0.0</ele><time>2026-04-20T16:15:45Z</time></trkpt><trkpt lat="42.877226817429765" lon="10.508838150817274"><ele>0.0</ele><time>2026-04-20T16:15:46Z</time></trkpt><trkpt lat="42.87712631262311" lon="10.508734791911317"><ele>0.0</ele><time>2026-04-20T16:15:48Z</time></trkpt><trkpt lat="42.87705467755776" lon="10.508685057812656"><ele>0.0</ele><time>2026-04-20T16:15:50Z</time></trkpt><trkpt lat="42.877010536189594" lon="10.508595822683587"><ele>0.0</ele><time>2026-04-20T16:15:51Z</time></trkpt><trkpt lat="42.87694345966928" lon="10.508555021911624"><ele>0.0</ele><time>2026-04-20T16:15:52Z</time></trkpt><trkpt lat="42.876891057304974" lon="10.508488217515923"><ele>0.0</ele><time>2026-04-20T16:15:53Z</time></trkpt><trkpt lat="42.87683595866205" lon="10.508414693915084"><ele>0.0</ele><time>2026-04-20T16:15:54Z</time></trkpt><trkpt lat="42.87678615913492" lon="10.50830076739142"><ele>0.0</ele><time>2026-04-20T16:15:55Z</time></trkpt><trkpt lat="42.8767201838843" lon="10.508261762110877"><ele>0.0</ele><time>2026-04-20T16:15:56Z</time></trkpt><trkpt lat="42.87667307584331" lon="10.5080407664356"><ele>0.0</ele><time>2026-04-20T16:15:57Z</time></trkpt><trkpt lat="42.87666319180583" lon="10.507862642888416"><ele>0.0</ele><time>2026-04-20T16:15:58Z</time></trkpt><trkpt lat="42.876620096996064" lon="10.50770856634167"><ele>0.0</ele><time>2026-04-20T16:15:59Z</time></trkpt><trkpt lat="42.87644618808666" lon="10.507808017789497"><ele>0.0</ele><time>2026-04-20T16:16:00Z</time></trkpt><trkpt lat="42.87638259845206" lon="10.507782933381915"><ele>0.0</ele><time>2026-04-20T16:16:01Z</time></trkpt><trkpt lat="42.87632407440918" lon="10.50769667803065"><ele>0.0</ele><time>2026-04-20T16:16:02Z</time></trkpt><trkpt lat="42.876256850096695" lon="10.507633571626718"><ele>0.0</ele><time>2026-04-20T16:16:03Z</time></trkpt><trkpt lat="42.876172431281454" lon="10.507538323406676"><ele>0.0</ele><time>2026-04-20T16:16:06Z</time></trkpt><trkpt lat="42.87612144923429" lon="10.507487736225906"><ele>0.0</ele><time>2026-04-20T16:16:07Z</time></trkpt><trkpt lat="42.87600962874067" lon="10.507359382325175"><ele>0.0</ele><time>2026-04-20T16:16:09Z</time></trkpt><trkpt lat="42.87593498966141" lon="10.507281742897202"><ele>0.0</ele><time>2026-04-20T16:16:10Z</time></trkpt><trkpt lat="42.875870068713176" lon="10.507238214315828"><ele>0.0</ele><time>2026-04-20T16:16:11Z</time></trkpt><trkpt lat="42.87581525010983" lon="10.507168716325364"><ele>0.0</ele><time>2026-04-20T16:16:12Z</time></trkpt><trkpt lat="42.875754798218075" lon="10.507097286258647"><ele>0.0</ele><time>2026-04-20T16:16:13Z</time></trkpt><trkpt lat="42.875654004762325" lon="10.50699997834481"><ele>0.0</ele><time>2026-04-20T16:16:15Z</time></trkpt><trkpt lat="42.875528951362995" lon="10.506872310329358"><ele>0.0</ele><time>2026-04-20T16:16:17Z</time></trkpt><trkpt lat="42.875476840884694" lon="10.506812998897185"><ele>0.0</ele><time>2026-04-20T16:16:18Z</time></trkpt><trkpt lat="42.87541652433125" lon="10.506695169491197"><ele>0.0</ele><time>2026-04-20T16:16:19Z</time></trkpt><trkpt lat="42.87532068592395" lon="10.506665250242328"><ele>0.0</ele><time>2026-04-20T16:16:21Z</time></trkpt><trkpt lat="42.87526630246582" lon="10.50657176084857"><ele>0.0</ele><time>2026-04-20T16:16:22Z</time></trkpt><trkpt lat="42.87518600209564" lon="10.506487437065221"><ele>0.0</ele><time>2026-04-20T16:16:24Z</time></trkpt><trkpt lat="42.87512509460941" lon="10.506369643291952"><ele>0.0</ele><time>2026-04-20T16:16:25Z</time></trkpt><trkpt lat="42.875073851009105" lon="10.506266140147265"><ele>0.0</ele><time>2026-04-20T16:16:26Z</time></trkpt><trkpt lat="42.87502341927034" lon="10.50619381435286"><ele>0.0</ele><time>2026-04-20T16:16:27Z</time></trkpt><trkpt lat="42.874973635538275" lon="10.506093888153922"><ele>0.0</ele><time>2026-04-20T16:16:28Z</time></trkpt><trkpt lat="42.87488638203978" lon="10.506082145355297"><ele>0.0</ele><time>2026-04-20T16:16:30Z</time></trkpt><trkpt lat="42.87482693211546" lon="10.506034500133941"><ele>0.0</ele><time>2026-04-20T16:16:31Z</time></trkpt><trkpt lat="42.87477670234306" lon="10.505964115194605"><ele>0.0</ele><time>2026-04-20T16:16:32Z</time></trkpt><trkpt lat="42.8746971030987" lon="10.505871182046679"><ele>0.0</ele><time>2026-04-20T16:16:33Z</time></trkpt><trkpt lat="42.87460412420062" lon="10.505840787640384"><ele>0.0</ele><time>2026-04-20T16:16:34Z</time></trkpt><trkpt lat="42.87453744982775" lon="10.505745513949694"><ele>0.0</ele><time>2026-04-20T16:16:35Z</time></trkpt><trkpt lat="42.87448120822103" lon="10.50569524482901"><ele>0.0</ele><time>2026-04-20T16:16:36Z</time></trkpt><trkpt lat="42.874367557008725" lon="10.505539064894668"><ele>0.0</ele><time>2026-04-20T16:16:38Z</time></trkpt><trkpt lat="42.87432559380226" lon="10.505445016215813"><ele>0.0</ele><time>2026-04-20T16:16:39Z</time></trkpt><trkpt lat="42.874205328662164" lon="10.505285191247722"><ele>0.0</ele><time>2026-04-20T16:16:41Z</time></trkpt><trkpt lat="42.874159812081054" lon="10.50518849843738"><ele>0.0</ele><time>2026-04-20T16:16:43Z</time></trkpt><trkpt lat="42.87411127892709" lon="10.5051332714322"><ele>0.0</ele><time>2026-04-20T16:16:44Z</time></trkpt><trkpt lat="42.87400683845175" lon="10.505040163088402"><ele>0.0</ele><time>2026-04-20T16:16:46Z</time></trkpt><trkpt lat="42.87395500531853" lon="10.504972533441945"><ele>0.0</ele><time>2026-04-20T16:16:47Z</time></trkpt><trkpt lat="42.873859211382836" lon="10.504925576508287"><ele>0.0</ele><time>2026-04-20T16:16:48Z</time></trkpt><trkpt lat="42.873783680648934" lon="10.504818424913266"><ele>0.0</ele><time>2026-04-20T16:16:50Z</time></trkpt><trkpt lat="42.87373279192478" lon="10.504758264239822"><ele>0.0</ele><time>2026-04-20T16:16:51Z</time></trkpt><trkpt lat="42.87367667635833" lon="10.504663582909773"><ele>0.0</ele><time>2026-04-20T16:16:52Z</time></trkpt><trkpt lat="42.8735845296136" lon="10.50453692485229"><ele>0.0</ele><time>2026-04-20T16:16:54Z</time></trkpt><trkpt lat="42.87349056741828" lon="10.504435111458095"><ele>0.0</ele><time>2026-04-20T16:16:56Z</time></trkpt><trkpt lat="42.87341798742635" lon="10.504346131923246"><ele>0.0</ele><time>2026-04-20T16:16:57Z</time></trkpt><trkpt lat="42.87334948918253" lon="10.504246337052694"><ele>0.0</ele><time>2026-04-20T16:16:58Z</time></trkpt><trkpt lat="42.873317185131654" lon="10.504171348875074"><ele>0.0</ele><time>2026-04-20T16:16:59Z</time></trkpt><trkpt lat="42.87324534531652" lon="10.504080512287496"><ele>0.0</ele><time>2026-04-20T16:17:01Z</time></trkpt><trkpt lat="42.87320409022319" lon="10.504010496445515"><ele>0.0</ele><time>2026-04-20T16:17:02Z</time></trkpt><trkpt lat="42.87316117892853" lon="10.503944710171417"><ele>0.0</ele><time>2026-04-20T16:17:03Z</time></trkpt><trkpt lat="42.873110171454414" lon="10.503860291339569"><ele>0.0</ele><time>2026-04-20T16:17:04Z</time></trkpt><trkpt lat="42.873026625056845" lon="10.503797882339889"><ele>0.0</ele><time>2026-04-20T16:17:06Z</time></trkpt><trkpt lat="42.87293376276735" lon="10.503690494658954"><ele>0.0</ele><time>2026-04-20T16:17:08Z</time></trkpt><trkpt lat="42.8728784961724" lon="10.503615713507925"><ele>0.0</ele><time>2026-04-20T16:17:09Z</time></trkpt><trkpt lat="42.87281675592792" lon="10.50355331116386"><ele>0.0</ele><time>2026-04-20T16:17:10Z</time></trkpt><trkpt lat="42.872758405363854" lon="10.503488200545544"><ele>0.0</ele><time>2026-04-20T16:17:11Z</time></trkpt><trkpt lat="42.872639854419596" lon="10.503440269039434"><ele>0.0</ele><time>2026-04-20T16:17:13Z</time></trkpt><trkpt lat="42.87255228220425" lon="10.503423398983116"><ele>0.0</ele><time>2026-04-20T16:17:15Z</time></trkpt><trkpt lat="42.87246251912027" lon="10.503316167976774"><ele>0.0</ele><time>2026-04-20T16:17:17Z</time></trkpt><trkpt lat="42.87239921095454" lon="10.503201725095439"><ele>0.0</ele><time>2026-04-20T16:17:18Z</time></trkpt><trkpt lat="42.87229970033643" lon="10.503142972987344"><ele>0.0</ele><time>2026-04-20T16:17:19Z</time></trkpt><trkpt lat="42.872226538680486" lon="10.503096331428114"><ele>0.0</ele><time>2026-04-20T16:17:20Z</time></trkpt><trkpt lat="42.87217149923233" lon="10.502973931890397"><ele>0.0</ele><time>2026-04-20T16:17:21Z</time></trkpt><trkpt lat="42.87211630634991" lon="10.502894500033042"><ele>0.0</ele><time>2026-04-20T16:17:22Z</time></trkpt><trkpt lat="42.872062919331434" lon="10.502832083297008"><ele>0.0</ele><time>2026-04-20T16:17:23Z</time></trkpt><trkpt lat="42.87201613741309" lon="10.502748280341386"><ele>0.0</ele><time>2026-04-20T16:17:24Z</time></trkpt><trkpt lat="42.871958125707714" lon="10.502644282532454"><ele>0.0</ele><time>2026-04-20T16:17:25Z</time></trkpt><trkpt lat="42.871899644261696" lon="10.502554046171271"><ele>0.0</ele><time>2026-04-20T16:17:26Z</time></trkpt><trkpt lat="42.87184689589808" lon="10.502486457536692"><ele>0.0</ele><time>2026-04-20T16:17:27Z</time></trkpt><trkpt lat="42.87178186970137" lon="10.502398798858767"><ele>0.0</ele><time>2026-04-20T16:17:28Z</time></trkpt><trkpt lat="42.87167348679436" lon="10.50230058750685"><ele>0.0</ele><time>2026-04-20T16:17:30Z</time></trkpt><trkpt lat="42.87161389858516" lon="10.502256790709588"><ele>0.0</ele><time>2026-04-20T16:17:31Z</time></trkpt><trkpt lat="42.87156188614939" lon="10.502206811096473"><ele>0.0</ele><time>2026-04-20T16:17:33Z</time></trkpt><trkpt lat="42.8715197565737" lon="10.502121753392904"><ele>0.0</ele><time>2026-04-20T16:17:34Z</time></trkpt><trkpt lat="42.871463585453476" lon="10.50204517258324"><ele>0.0</ele><time>2026-04-20T16:17:35Z</time></trkpt><trkpt lat="42.87134247698264" lon="10.50195886904128"><ele>0.0</ele><time>2026-04-20T16:17:37Z</time></trkpt><trkpt lat="42.87125721883668" lon="10.501866055121882"><ele>0.0</ele><time>2026-04-20T16:17:38Z</time></trkpt><trkpt lat="42.8712173876948" lon="10.50179576357108"><ele>0.0</ele><time>2026-04-20T16:17:39Z</time></trkpt><trkpt lat="42.871145951372604" lon="10.50168705515882"><ele>0.0</ele><time>2026-04-20T16:17:41Z</time></trkpt><trkpt lat="42.87109547972388" lon="10.50162691963715"><ele>0.0</ele><time>2026-04-20T16:17:42Z</time></trkpt><trkpt lat="42.87100022601671" lon="10.501530784886576"><ele>0.0</ele><time>2026-04-20T16:17:44Z</time></trkpt><trkpt lat="42.87093191409591" lon="10.501471549070402"><ele>0.0</ele><time>2026-04-20T16:17:45Z</time></trkpt><trkpt lat="42.870838313784475" lon="10.501354966181148"><ele>0.0</ele><time>2026-04-20T16:17:47Z</time></trkpt><trkpt lat="42.87075819882503" lon="10.501271917653542"><ele>0.0</ele><time>2026-04-20T16:17:48Z</time></trkpt><trkpt lat="42.870713092136846" lon="10.501198609389235"><ele>0.0</ele><time>2026-04-20T16:17:49Z</time></trkpt><trkpt lat="42.87065841200275" lon="10.501149532307346"><ele>0.0</ele><time>2026-04-20T16:17:50Z</time></trkpt><trkpt lat="42.87060436764531" lon="10.501074208511612"><ele>0.0</ele><time>2026-04-20T16:17:51Z</time></trkpt><trkpt lat="42.87054089219831" lon="10.50097185883742"><ele>0.0</ele><time>2026-04-20T16:17:52Z</time></trkpt><trkpt lat="42.87049429781981" lon="10.500893590422226"><ele>0.0</ele><time>2026-04-20T16:17:53Z</time></trkpt><trkpt lat="42.87043818297988" lon="10.500821727180671"><ele>0.0</ele><time>2026-04-20T16:17:54Z</time></trkpt><trkpt lat="42.87034760248708" lon="10.500744638588758"><ele>0.0</ele><time>2026-04-20T16:17:56Z</time></trkpt><trkpt lat="42.87029505256866" lon="10.500687188465042"><ele>0.0</ele><time>2026-04-20T16:17:57Z</time></trkpt><trkpt lat="42.87023748320993" lon="10.500637411981772"><ele>0.0</ele><time>2026-04-20T16:17:58Z</time></trkpt><trkpt lat="42.87018682961399" lon="10.500575301525837"><ele>0.0</ele><time>2026-04-20T16:17:59Z</time></trkpt><trkpt lat="42.87010788633687" lon="10.500509294360935"><ele>0.0</ele><time>2026-04-20T16:18:00Z</time></trkpt><trkpt lat="42.87005242552389" lon="10.500459729807675"><ele>0.0</ele><time>2026-04-20T16:18:01Z</time></trkpt><trkpt lat="42.86999972191259" lon="10.500408594334226"><ele>0.0</ele><time>2026-04-20T16:18:02Z</time></trkpt><trkpt lat="42.86986795726822" lon="10.500307982023713"><ele>0.0</ele><time>2026-04-20T16:18:04Z</time></trkpt><trkpt lat="42.86978199477245" lon="10.500189224803455"><ele>0.0</ele><time>2026-04-20T16:18:06Z</time></trkpt><trkpt lat="42.869703973840195" lon="10.500112867171692"><ele>0.0</ele><time>2026-04-20T16:18:07Z</time></trkpt><trkpt lat="42.86959577799416" lon="10.499980283976077"><ele>0.0</ele><time>2026-04-20T16:18:09Z</time></trkpt><trkpt lat="42.8695270391186" lon="10.499920359224479"><ele>0.0</ele><time>2026-04-20T16:18:10Z</time></trkpt><trkpt lat="42.86946883927869" lon="10.499784667300641"><ele>0.0</ele><time>2026-04-20T16:18:12Z</time></trkpt><trkpt lat="42.86941380300163" lon="10.49972548818275"><ele>0.0</ele><time>2026-04-20T16:18:13Z</time></trkpt><trkpt lat="42.86935630520755" lon="10.49965608279461"><ele>0.0</ele><time>2026-04-20T16:18:14Z</time></trkpt><trkpt lat="42.8693105902714" lon="10.499585205010174"><ele>0.0</ele><time>2026-04-20T16:18:15Z</time></trkpt><trkpt lat="42.86926007514652" lon="10.499495481109259"><ele>0.0</ele><time>2026-04-20T16:18:16Z</time></trkpt><trkpt lat="42.86919259097293" lon="10.499435394260649"><ele>0.0</ele><time>2026-04-20T16:18:17Z</time></trkpt><trkpt lat="42.869119928306574" lon="10.499300502883111"><ele>0.0</ele><time>2026-04-20T16:18:19Z</time></trkpt><trkpt lat="42.86905774747249" lon="10.499252844082934"><ele>0.0</ele><time>2026-04-20T16:18:20Z</time></trkpt><trkpt lat="42.869038471153985" lon="10.499167107065636"><ele>0.0</ele><time>2026-04-20T16:18:21Z</time></trkpt><trkpt lat="42.868978909216544" lon="10.499117528410808"><ele>0.0</ele><time>2026-04-20T16:18:22Z</time></trkpt><trkpt lat="42.86892068029694" lon="10.499077621330034"><ele>0.0</ele><time>2026-04-20T16:18:23Z</time></trkpt><trkpt lat="42.86885571781261" lon="10.499047937190968"><ele>0.0</ele><time>2026-04-20T16:18:24Z</time></trkpt><trkpt lat="42.86875734700074" lon="10.498939090130351"><ele>0.0</ele><time>2026-04-20T16:18:26Z</time></trkpt><trkpt lat="42.86866619729003" lon="10.498831507047845"><ele>0.0</ele><time>2026-04-20T16:18:28Z</time></trkpt><trkpt lat="42.86861424223023" lon="10.498774282609286"><ele>0.0</ele><time>2026-04-20T16:18:29Z</time></trkpt><trkpt lat="42.86852851657125" lon="10.49870556394864"><ele>0.0</ele><time>2026-04-20T16:18:30Z</time></trkpt><trkpt lat="42.86845846488103" lon="10.4986445578402"><ele>0.0</ele><time>2026-04-20T16:18:31Z</time></trkpt><trkpt lat="42.86841219107143" lon="10.498554751103496"><ele>0.0</ele><time>2026-04-20T16:18:32Z</time></trkpt><trkpt lat="42.86834963262909" lon="10.49848914410801"><ele>0.0</ele><time>2026-04-20T16:18:33Z</time></trkpt><trkpt lat="42.86829089830227" lon="10.498386555009217"><ele>0.0</ele><time>2026-04-20T16:18:34Z</time></trkpt><trkpt lat="42.86823983132411" lon="10.498268978650447"><ele>0.0</ele><time>2026-04-20T16:18:35Z</time></trkpt><trkpt lat="42.86822367090268" lon="10.498148093362905"><ele>0.0</ele><time>2026-04-20T16:18:36Z</time></trkpt><trkpt lat="42.86815342229926" lon="10.498144526566765"><ele>0.0</ele><time>2026-04-20T16:18:37Z</time></trkpt><trkpt lat="42.868101891947425" lon="10.498075764004817"><ele>0.0</ele><time>2026-04-20T16:18:38Z</time></trkpt><trkpt lat="42.86806605379832" lon="10.497995297686874"><ele>0.0</ele><time>2026-04-20T16:18:39Z</time></trkpt><trkpt lat="42.867995645455814" lon="10.49795517684397"><ele>0.0</ele><time>2026-04-20T16:18:40Z</time></trkpt><trkpt lat="42.86792823220751" lon="10.49793964308618"><ele>0.0</ele><time>2026-04-20T16:18:41Z</time></trkpt><trkpt lat="42.86785880657699" lon="10.497866748238616"><ele>0.0</ele><time>2026-04-20T16:18:42Z</time></trkpt><trkpt lat="42.86778712512835" lon="10.497859633957967"><ele>0.0</ele><time>2026-04-20T16:18:43Z</time></trkpt><trkpt lat="42.867732997175395" lon="10.497774916166682"><ele>0.0</ele><time>2026-04-20T16:18:44Z</time></trkpt><trkpt lat="42.86766896571948" lon="10.497701952604531"><ele>0.0</ele><time>2026-04-20T16:18:45Z</time></trkpt><trkpt lat="42.86755827761073" lon="10.497601527023408"><ele>0.0</ele><time>2026-04-20T16:18:47Z</time></trkpt><trkpt lat="42.86749277640198" lon="10.497544593820146"><ele>0.0</ele><time>2026-04-20T16:18:48Z</time></trkpt><trkpt lat="42.867451009632596" lon="10.497471054059716"><ele>0.0</ele><time>2026-04-20T16:18:49Z</time></trkpt><trkpt lat="42.867412660123364" lon="10.497389623257899"><ele>0.0</ele><time>2026-04-20T16:18:50Z</time></trkpt><trkpt lat="42.86734951514488" lon="10.497317501113837"><ele>0.0</ele><time>2026-04-20T16:18:51Z</time></trkpt><trkpt lat="42.86728863354907" lon="10.497267214281734"><ele>0.0</ele><time>2026-04-20T16:18:52Z</time></trkpt><trkpt lat="42.86723670737424" lon="10.497147474069878"><ele>0.0</ele><time>2026-04-20T16:18:53Z</time></trkpt><trkpt lat="42.867186738394466" lon="10.497065446558558"><ele>0.0</ele><time>2026-04-20T16:18:54Z</time></trkpt><trkpt lat="42.86708405766028" lon="10.496934834241273"><ele>0.0</ele><time>2026-04-20T16:18:56Z</time></trkpt><trkpt lat="42.867028151410736" lon="10.496867583730841"><ele>0.0</ele><time>2026-04-20T16:18:57Z</time></trkpt><trkpt lat="42.86691407611565" lon="10.496774460238312"><ele>0.0</ele><time>2026-04-20T16:18:59Z</time></trkpt><trkpt lat="42.866852247603006" lon="10.496705531488438"><ele>0.0</ele><time>2026-04-20T16:19:00Z</time></trkpt><trkpt lat="42.86681574217978" lon="10.496633807784827"><ele>0.0</ele><time>2026-04-20T16:19:01Z</time></trkpt><trkpt lat="42.86676234524133" lon="10.49656019607937"><ele>0.0</ele><time>2026-04-20T16:19:02Z</time></trkpt><trkpt lat="42.86671491878448" lon="10.49648500328976"><ele>0.0</ele><time>2026-04-20T16:19:03Z</time></trkpt><trkpt lat="42.86669416550459" lon="10.496206046354098"><ele>0.0</ele><time>2026-04-20T16:19:04Z</time></trkpt><trkpt lat="42.86658429394231" lon="10.496190810595786"><ele>0.0</ele><time>2026-04-20T16:19:06Z</time></trkpt><trkpt lat="42.86651500809785" lon="10.496185812590877"><ele>0.0</ele><time>2026-04-20T16:19:07Z</time></trkpt><trkpt lat="42.86648401822056" lon="10.496088736319164"><ele>0.0</ele><time>2026-04-20T16:19:08Z</time></trkpt><trkpt lat="42.86636114544155" lon="10.496161478390437"><ele>0.0</ele><time>2026-04-20T16:19:09Z</time></trkpt><trkpt lat="42.86630008382228" lon="10.496115109423883"><ele>0.0</ele><time>2026-04-20T16:19:10Z</time></trkpt><trkpt lat="42.86623701930051" lon="10.496036567002514"><ele>0.0</ele><time>2026-04-20T16:19:12Z</time></trkpt><trkpt lat="42.86616398565768" lon="10.495982362080984"><ele>0.0</ele><time>2026-04-20T16:19:14Z</time></trkpt><trkpt lat="42.86605595283253" lon="10.495931347768773"><ele>0.0</ele><time>2026-04-20T16:19:16Z</time></trkpt><trkpt lat="42.86601056065472" lon="10.495854467917605"><ele>0.0</ele><time>2026-04-20T16:19:17Z</time></trkpt><trkpt lat="42.86595987464605" lon="10.495790817300449"><ele>0.0</ele><time>2026-04-20T16:19:18Z</time></trkpt><trkpt lat="42.865918367418494" lon="10.49565138115967"><ele>0.0</ele><time>2026-04-20T16:19:19Z</time></trkpt><trkpt lat="42.865854724003114" lon="10.495582278237755"><ele>0.0</ele><time>2026-04-20T16:19:20Z</time></trkpt><trkpt lat="42.865769959773715" lon="10.49551226107047"><ele>0.0</ele><time>2026-04-20T16:19:21Z</time></trkpt><trkpt lat="42.86572222206267" lon="10.495443236235571"><ele>0.0</ele><time>2026-04-20T16:19:22Z</time></trkpt><trkpt lat="42.865674500779285" lon="10.495372902256493"><ele>0.0</ele><time>2026-04-20T16:19:23Z</time></trkpt><trkpt lat="42.86561120457833" lon="10.495320701117754"><ele>0.0</ele><time>2026-04-20T16:19:24Z</time></trkpt><trkpt lat="42.86554437461124" lon="10.495283957711925"><ele>0.0</ele><time>2026-04-20T16:19:25Z</time></trkpt><trkpt lat="42.86547423936514" lon="10.495259607393484"><ele>0.0</ele><time>2026-04-20T16:19:26Z</time></trkpt><trkpt lat="42.865399756211225" lon="10.495251095731666"><ele>0.0</ele><time>2026-04-20T16:19:27Z</time></trkpt><trkpt lat="42.865346633589574" lon="10.49517018292249"><ele>0.0</ele><time>2026-04-20T16:19:28Z</time></trkpt><trkpt lat="42.865306752857094" lon="10.495095527243969"><ele>0.0</ele><time>2026-04-20T16:19:29Z</time></trkpt><trkpt lat="42.865235972388334" lon="10.495024471811156"><ele>0.0</ele><time>2026-04-20T16:19:31Z</time></trkpt><trkpt lat="42.86516530766707" lon="10.494924697497106"><ele>0.0</ele><time>2026-04-20T16:19:32Z</time></trkpt><trkpt lat="42.86510922981799" lon="10.494878488095562"><ele>0.0</ele><time>2026-04-20T16:19:33Z</time></trkpt><trkpt lat="42.86504632174899" lon="10.494813911070816"><ele>0.0</ele><time>2026-04-20T16:19:34Z</time></trkpt><trkpt lat="42.86497829308097" lon="10.494742559603196"><ele>0.0</ele><time>2026-04-20T16:19:35Z</time></trkpt><trkpt lat="42.86487906018214" lon="10.494656192186964"><ele>0.0</ele><time>2026-04-20T16:19:37Z</time></trkpt><trkpt lat="42.864829849838706" lon="10.49460002700277"><ele>0.0</ele><time>2026-04-20T16:19:38Z</time></trkpt><trkpt lat="42.86477206111057" lon="10.4945477070553"><ele>0.0</ele><time>2026-04-20T16:19:39Z</time></trkpt><trkpt lat="42.86472795872146" lon="10.494476389586664"><ele>0.0</ele><time>2026-04-20T16:19:40Z</time></trkpt><trkpt lat="42.8646739437333" lon="10.49441926216977"><ele>0.0</ele><time>2026-04-20T16:19:41Z</time></trkpt><trkpt lat="42.86459892071775" lon="10.49436500540821"><ele>0.0</ele><time>2026-04-20T16:19:42Z</time></trkpt><trkpt lat="42.86458459256623" lon="10.494270136143703"><ele>0.0</ele><time>2026-04-20T16:19:43Z</time></trkpt><trkpt lat="42.86451053220854" lon="10.494226445015995"><ele>0.0</ele><time>2026-04-20T16:19:44Z</time></trkpt><trkpt lat="42.864389711218706" lon="10.494139710188303"><ele>0.0</ele><time>2026-04-20T16:19:46Z</time></trkpt><trkpt lat="42.86429948362869" lon="10.494035063468472"><ele>0.0</ele><time>2026-04-20T16:19:48Z</time></trkpt><trkpt lat="42.86420502225823" lon="10.493982096999272"><ele>0.0</ele><time>2026-04-20T16:19:49Z</time></trkpt><trkpt lat="42.86413535609033" lon="10.49394953133573"><ele>0.0</ele><time>2026-04-20T16:19:50Z</time></trkpt><trkpt lat="42.86410140403398" lon="10.493820801202327"><ele>0.0</ele><time>2026-04-20T16:19:51Z</time></trkpt><trkpt lat="42.86405777584254" lon="10.493682551513311"><ele>0.0</ele><time>2026-04-20T16:19:52Z</time></trkpt><trkpt lat="42.86401480873546" lon="10.49360040039437"><ele>0.0</ele><time>2026-04-20T16:19:53Z</time></trkpt><trkpt lat="42.86395528454998" lon="10.49346947396153"><ele>0.0</ele><time>2026-04-20T16:19:54Z</time></trkpt><trkpt lat="42.8638982866988" lon="10.493428705614248"><ele>0.0</ele><time>2026-04-20T16:19:55Z</time></trkpt><trkpt lat="42.863795751560474" lon="10.493297650413774"><ele>0.0</ele><time>2026-04-20T16:19:57Z</time></trkpt><trkpt lat="42.86373415282934" lon="10.49321669343682"><ele>0.0</ele><time>2026-04-20T16:19:59Z</time></trkpt><trkpt lat="42.86365585917496" lon="10.49309721671362"><ele>0.0</ele><time>2026-04-20T16:20:00Z</time></trkpt><trkpt lat="42.86361441030701" lon="10.493009282556365"><ele>0.0</ele><time>2026-04-20T16:20:01Z</time></trkpt><trkpt lat="42.86354714179546" lon="10.492978975804451"><ele>0.0</ele><time>2026-04-20T16:20:02Z</time></trkpt><trkpt lat="42.86345903486793" lon="10.492815892005064"><ele>0.0</ele><time>2026-04-20T16:20:04Z</time></trkpt><trkpt lat="42.86338587900335" lon="10.492775713833678"><ele>0.0</ele><time>2026-04-20T16:20:05Z</time></trkpt><trkpt lat="42.863352039439874" lon="10.49268229169127"><ele>0.0</ele><time>2026-04-20T16:20:06Z</time></trkpt><trkpt lat="42.86331378730328" lon="10.49255171627775"><ele>0.0</ele><time>2026-04-20T16:20:07Z</time></trkpt><trkpt lat="42.863267103500746" lon="10.492449915926551"><ele>0.0</ele><time>2026-04-20T16:20:08Z</time></trkpt><trkpt lat="42.86321234545282" lon="10.492370227522947"><ele>0.0</ele><time>2026-04-20T16:20:09Z</time></trkpt><trkpt lat="42.863154298481334" lon="10.492332565888173"><ele>0.0</ele><time>2026-04-20T16:20:10Z</time></trkpt><trkpt lat="42.8631033310805" lon="10.492251865076192"><ele>0.0</ele><time>2026-04-20T16:20:11Z</time></trkpt><trkpt lat="42.86301431514538" lon="10.492247798359381"><ele>0.0</ele><time>2026-04-20T16:20:12Z</time></trkpt><trkpt lat="42.86296491029736" lon="10.492132839276886"><ele>0.0</ele><time>2026-04-20T16:20:13Z</time></trkpt><trkpt lat="42.86290962852485" lon="10.492038825545066"><ele>0.0</ele><time>2026-04-20T16:20:14Z</time></trkpt><trkpt lat="42.862844563215205" lon="10.491975723752915"><ele>0.0</ele><time>2026-04-20T16:20:15Z</time></trkpt><trkpt lat="42.86274435846947" lon="10.491867260660216"><ele>0.0</ele><time>2026-04-20T16:20:17Z</time></trkpt><trkpt lat="42.862680458865015" lon="10.491816182815146"><ele>0.0</ele><time>2026-04-20T16:20:18Z</time></trkpt><trkpt lat="42.86262445791965" lon="10.491739213193826"><ele>0.0</ele><time>2026-04-20T16:20:19Z</time></trkpt><trkpt lat="42.86251465724448" lon="10.491625188733172"><ele>0.0</ele><time>2026-04-20T16:20:21Z</time></trkpt><trkpt lat="42.86236729218338" lon="10.49164336397879"><ele>0.0</ele><time>2026-04-20T16:20:23Z</time></trkpt><trkpt lat="42.8623268824062" lon="10.49156886033906"><ele>0.0</ele><time>2026-04-20T16:20:24Z</time></trkpt><trkpt lat="42.862224764759766" lon="10.491538589016132"><ele>0.0</ele><time>2026-04-20T16:20:26Z</time></trkpt><trkpt lat="42.86215171134497" lon="10.491412596035726"><ele>0.0</ele><time>2026-04-20T16:20:28Z</time></trkpt><trkpt lat="42.86207115641064" lon="10.491402674166444"><ele>0.0</ele><time>2026-04-20T16:20:29Z</time></trkpt><trkpt lat="42.86201464801141" lon="10.491329671014565"><ele>0.0</ele><time>2026-04-20T16:20:30Z</time></trkpt><trkpt lat="42.86194605778066" lon="10.491289904665377"><ele>0.0</ele><time>2026-04-20T16:20:31Z</time></trkpt><trkpt lat="42.86182852501558" lon="10.491166754946457"><ele>0.0</ele><time>2026-04-20T16:20:33Z</time></trkpt><trkpt lat="42.86177757328742" lon="10.49109271662081"><ele>0.0</ele><time>2026-04-20T16:20:34Z</time></trkpt><trkpt lat="42.86172272427197" lon="10.491036127785863"><ele>0.0</ele><time>2026-04-20T16:20:35Z</time></trkpt><trkpt lat="42.861665292608166" lon="10.490988885628713"><ele>0.0</ele><time>2026-04-20T16:20:36Z</time></trkpt><trkpt lat="42.861621197229994" lon="10.490885655977726"><ele>0.0</ele><time>2026-04-20T16:20:37Z</time></trkpt><trkpt lat="42.86154099175342" lon="10.490792854227529"><ele>0.0</ele><time>2026-04-20T16:20:38Z</time></trkpt><trkpt lat="42.861491183917494" lon="10.49072951867038"><ele>0.0</ele><time>2026-04-20T16:20:39Z</time></trkpt><trkpt lat="42.861435206805425" lon="10.490658277559161"><ele>0.0</ele><time>2026-04-20T16:20:40Z</time></trkpt><trkpt lat="42.86138439803297" lon="10.490602343883296"><ele>0.0</ele><time>2026-04-20T16:20:41Z</time></trkpt><trkpt lat="42.86133457061114" lon="10.490543439071065"><ele>0.0</ele><time>2026-04-20T16:20:42Z</time></trkpt><trkpt lat="42.86129176438132" lon="10.490477916672814"><ele>0.0</ele><time>2026-04-20T16:20:43Z</time></trkpt><trkpt lat="42.861237893422214" lon="10.490415848717204"><ele>0.0</ele><time>2026-04-20T16:20:44Z</time></trkpt><trkpt lat="42.86119219862723" lon="10.490355703308142"><ele>0.0</ele><time>2026-04-20T16:20:45Z</time></trkpt><trkpt lat="42.86113863452022" lon="10.490301947258637"><ele>0.0</ele><time>2026-04-20T16:20:46Z</time></trkpt><trkpt lat="42.86102515439298" lon="10.49015299812695"><ele>0.0</ele><time>2026-04-20T16:20:48Z</time></trkpt><trkpt lat="42.860929247119444" lon="10.490113563664757"><ele>0.0</ele><time>2026-04-20T16:20:49Z</time></trkpt><trkpt lat="42.86087697540415" lon="10.490037695940254"><ele>0.0</ele><time>2026-04-20T16:20:50Z</time></trkpt><trkpt lat="42.86078763599347" lon="10.489962077348677"><ele>0.0</ele><time>2026-04-20T16:20:52Z</time></trkpt><trkpt lat="42.860736663320736" lon="10.489880009415819"><ele>0.0</ele><time>2026-04-20T16:20:53Z</time></trkpt><trkpt lat="42.860688711900124" lon="10.48981553623617"><ele>0.0</ele><time>2026-04-20T16:20:54Z</time></trkpt><trkpt lat="42.860633174275534" lon="10.489748909483126"><ele>0.0</ele><time>2026-04-20T16:20:55Z</time></trkpt><trkpt lat="42.860571403691175" lon="10.489671647525856"><ele>0.0</ele><time>2026-04-20T16:20:56Z</time></trkpt><trkpt lat="42.86050127092206" lon="10.489527126202859"><ele>0.0</ele><time>2026-04-20T16:20:58Z</time></trkpt><trkpt lat="42.86043582425457" lon="10.489467576406799"><ele>0.0</ele><time>2026-04-20T16:20:59Z</time></trkpt><trkpt lat="42.860357194827436" lon="10.489360027555854"><ele>0.0</ele><time>2026-04-20T16:21:02Z</time></trkpt><trkpt lat="42.86031206486972" lon="10.4892691240672"><ele>0.0</ele><time>2026-04-20T16:21:03Z</time></trkpt><trkpt lat="42.86019711227531" lon="10.489127457224079"><ele>0.0</ele><time>2026-04-20T16:21:05Z</time></trkpt><trkpt lat="42.8601362351598" lon="10.48907254715712"><ele>0.0</ele><time>2026-04-20T16:21:06Z</time></trkpt><trkpt lat="42.860048483936566" lon="10.48898161042481"><ele>0.0</ele><time>2026-04-20T16:21:07Z</time></trkpt><trkpt lat="42.85999411994839" lon="10.488929270560819"><ele>0.0</ele><time>2026-04-20T16:21:08Z</time></trkpt><trkpt lat="42.8599316961201" lon="10.488856584681145"><ele>0.0</ele><time>2026-04-20T16:21:09Z</time></trkpt><trkpt lat="42.85985611068077" lon="10.488802636725053"><ele>0.0</ele><time>2026-04-20T16:21:10Z</time></trkpt><trkpt lat="42.85981076062939" lon="10.488736217462693"><ele>0.0</ele><time>2026-04-20T16:21:11Z</time></trkpt><trkpt lat="42.859714484213974" lon="10.488621154742564"><ele>0.0</ele><time>2026-04-20T16:21:13Z</time></trkpt><trkpt lat="42.85962710576133" lon="10.488537337794376"><ele>0.0</ele><time>2026-04-20T16:21:14Z</time></trkpt><trkpt lat="42.85952270571172" lon="10.488423794071021"><ele>0.0</ele><time>2026-04-20T16:21:16Z</time></trkpt><trkpt lat="42.85943728508114" lon="10.48824196921838"><ele>0.0</ele><time>2026-04-20T16:21:17Z</time></trkpt><trkpt lat="42.85938018562379" lon="10.488067868278536"><ele>0.0</ele><time>2026-04-20T16:21:19Z</time></trkpt><trkpt lat="42.859286388200076" lon="10.487928795875664"><ele>0.0</ele><time>2026-04-20T16:21:21Z</time></trkpt><trkpt lat="42.85917339663853" lon="10.487890099382982"><ele>0.0</ele><time>2026-04-20T16:21:23Z</time></trkpt><trkpt lat="42.859125730891385" lon="10.487807292193615"><ele>0.0</ele><time>2026-04-20T16:21:24Z</time></trkpt><trkpt lat="42.85907616481998" lon="10.487726583659065"><ele>0.0</ele><time>2026-04-20T16:21:25Z</time></trkpt><trkpt lat="42.859010983311556" lon="10.48764797298654"><ele>0.0</ele><time>2026-04-20T16:21:26Z</time></trkpt><trkpt lat="42.85900336651096" lon="10.487525364411825"><ele>0.0</ele><time>2026-04-20T16:21:27Z</time></trkpt><trkpt lat="42.85892213204119" lon="10.48746014640125"><ele>0.0</ele><time>2026-04-20T16:21:28Z</time></trkpt><trkpt lat="42.8588426501896" lon="10.487295821186702"><ele>0.0</ele><time>2026-04-20T16:21:30Z</time></trkpt><trkpt lat="42.858742318817875" lon="10.487211700763291"><ele>0.0</ele><time>2026-04-20T16:21:32Z</time></trkpt><trkpt lat="42.85869969186959" lon="10.487109222434428"><ele>0.0</ele><time>2026-04-20T16:21:33Z</time></trkpt><trkpt lat="42.8586500219674" lon="10.487014060522702"><ele>0.0</ele><time>2026-04-20T16:21:34Z</time></trkpt><trkpt lat="42.85855128495847" lon="10.486866489895272"><ele>0.0</ele><time>2026-04-20T16:21:36Z</time></trkpt><trkpt lat="42.858481770158285" lon="10.486821582686002"><ele>0.0</ele><time>2026-04-20T16:21:37Z</time></trkpt><trkpt lat="42.85840384040265" lon="10.486823315555545"><ele>0.0</ele><time>2026-04-20T16:21:38Z</time></trkpt><trkpt lat="42.85833216478007" lon="10.486802523596038"><ele>0.0</ele><time>2026-04-20T16:21:39Z</time></trkpt><trkpt lat="42.858290180383406" lon="10.48670452278661"><ele>0.0</ele><time>2026-04-20T16:21:40Z</time></trkpt><trkpt lat="42.858226202457345" lon="10.486670497058709"><ele>0.0</ele><time>2026-04-20T16:21:41Z</time></trkpt><trkpt lat="42.858172892789014" lon="10.486604709836481"><ele>0.0</ele><time>2026-04-20T16:21:42Z</time></trkpt><trkpt lat="42.85805284527771" lon="10.486511220232982"><ele>0.0</ele><time>2026-04-20T16:21:44Z</time></trkpt><trkpt lat="42.85797921143813" lon="10.486548612993454"><ele>0.0</ele><time>2026-04-20T16:21:45Z</time></trkpt><trkpt lat="42.85793067114364" lon="10.486482186979904"><ele>0.0</ele><time>2026-04-20T16:21:46Z</time></trkpt><trkpt lat="42.857824689051746" lon="10.486429399587994"><ele>0.0</ele><time>2026-04-20T16:21:48Z</time></trkpt><trkpt lat="42.85776246714076" lon="10.486376775120533"><ele>0.0</ele><time>2026-04-20T16:21:49Z</time></trkpt><trkpt lat="42.85770804224324" lon="10.486284872298926"><ele>0.0</ele><time>2026-04-20T16:21:51Z</time></trkpt><trkpt lat="42.85760808651091" lon="10.486193477907857"><ele>0.0</ele><time>2026-04-20T16:21:53Z</time></trkpt><trkpt lat="42.85750743741249" lon="10.4860932885176"><ele>0.0</ele><time>2026-04-20T16:21:55Z</time></trkpt><trkpt lat="42.85744104699087" lon="10.486048338162817"><ele>0.0</ele><time>2026-04-20T16:21:56Z</time></trkpt><trkpt lat="42.85737225260514" lon="10.485986234491785"><ele>0.0</ele><time>2026-04-20T16:21:57Z</time></trkpt><trkpt lat="42.85726357592173" lon="10.485894014965284"><ele>0.0</ele><time>2026-04-20T16:22:00Z</time></trkpt><trkpt lat="42.857212465028624" lon="10.485813403963533"><ele>0.0</ele><time>2026-04-20T16:22:01Z</time></trkpt><trkpt lat="42.85715528983423" lon="10.485718637125073"><ele>0.0</ele><time>2026-04-20T16:22:02Z</time></trkpt><trkpt lat="42.85710198641744" lon="10.48562418665699"><ele>0.0</ele><time>2026-04-20T16:22:03Z</time></trkpt><trkpt lat="42.857046693162" lon="10.485543513557012"><ele>0.0</ele><time>2026-04-20T16:22:04Z</time></trkpt><trkpt lat="42.85697886089154" lon="10.485459681382206"><ele>0.0</ele><time>2026-04-20T16:22:05Z</time></trkpt><trkpt lat="42.85690024552296" lon="10.485409909681835"><ele>0.0</ele><time>2026-04-20T16:22:06Z</time></trkpt><trkpt lat="42.856833656474215" lon="10.48534203345532"><ele>0.0</ele><time>2026-04-20T16:22:07Z</time></trkpt><trkpt lat="42.85678077993789" lon="10.485278661321164"><ele>0.0</ele><time>2026-04-20T16:22:08Z</time></trkpt><trkpt lat="42.85671626985739" lon="10.485196027583383"><ele>0.0</ele><time>2026-04-20T16:22:09Z</time></trkpt><trkpt lat="42.85665912985713" lon="10.48513039260163"><ele>0.0</ele><time>2026-04-20T16:22:10Z</time></trkpt><trkpt lat="42.856597656706" lon="10.485052457779627"><ele>0.0</ele><time>2026-04-20T16:22:11Z</time></trkpt><trkpt lat="42.856534676153395" lon="10.485007401584182"><ele>0.0</ele><time>2026-04-20T16:22:12Z</time></trkpt><trkpt lat="42.85647709235423" lon="10.4849348795618"><ele>0.0</ele><time>2026-04-20T16:22:13Z</time></trkpt><trkpt lat="42.856423864569166" lon="10.484865173061403"><ele>0.0</ele><time>2026-04-20T16:22:14Z</time></trkpt><trkpt lat="42.85635296408024" lon="10.484793238152484"><ele>0.0</ele><time>2026-04-20T16:22:15Z</time></trkpt><trkpt lat="42.8562977993598" lon="10.484726561300501"><ele>0.0</ele><time>2026-04-20T16:22:16Z</time></trkpt><trkpt lat="42.856258211380094" lon="10.484589815765625"><ele>0.0</ele><time>2026-04-20T16:22:17Z</time></trkpt><trkpt lat="42.85619511868271" lon="10.48452411625185"><ele>0.0</ele><time>2026-04-20T16:22:18Z</time></trkpt><trkpt lat="42.856145517208205" lon="10.484410343855453"><ele>0.0</ele><time>2026-04-20T16:22:21Z</time></trkpt><trkpt lat="42.85607193096341" lon="10.484295388680087"><ele>0.0</ele><time>2026-04-20T16:22:23Z</time></trkpt><trkpt lat="42.85597523242443" lon="10.48418229330185"><ele>0.0</ele><time>2026-04-20T16:22:25Z</time></trkpt><trkpt lat="42.85588530567297" lon="10.484062153417499"><ele>0.0</ele><time>2026-04-20T16:22:26Z</time></trkpt><trkpt lat="42.85583747960964" lon="10.483996156126741"><ele>0.0</ele><time>2026-04-20T16:22:27Z</time></trkpt><trkpt lat="42.85579597282821" lon="10.483855411210122"><ele>0.0</ele><time>2026-04-20T16:22:28Z</time></trkpt><trkpt lat="42.85573746806663" lon="10.483812426561773"><ele>0.0</ele><time>2026-04-20T16:22:29Z</time></trkpt><trkpt lat="42.8556760337083" lon="10.483764327878568"><ele>0.0</ele><time>2026-04-20T16:22:30Z</time></trkpt><trkpt lat="42.855602987678836" lon="10.483748016963897"><ele>0.0</ele><time>2026-04-20T16:22:31Z</time></trkpt><trkpt lat="42.85555057589004" lon="10.483670640649311"><ele>0.0</ele><time>2026-04-20T16:22:32Z</time></trkpt><trkpt lat="42.855486606415724" lon="10.483530971891327"><ele>0.0</ele><time>2026-04-20T16:22:33Z</time></trkpt><trkpt lat="42.85542144486163" lon="10.483386513280568"><ele>0.0</ele><time>2026-04-20T16:22:34Z</time></trkpt><trkpt lat="42.855360694060614" lon="10.48330308163062"><ele>0.0</ele><time>2026-04-20T16:22:35Z</time></trkpt><trkpt lat="42.855291801067864" lon="10.483217461875286"><ele>0.0</ele><time>2026-04-20T16:22:36Z</time></trkpt><trkpt lat="42.85522741915958" lon="10.483114824451407"><ele>0.0</ele><time>2026-04-20T16:22:37Z</time></trkpt><trkpt lat="42.85517597904787" lon="10.483053907173403"><ele>0.0</ele><time>2026-04-20T16:22:38Z</time></trkpt><trkpt lat="42.85506139821954" lon="10.483082537971292"><ele>0.0</ele><time>2026-04-20T16:22:39Z</time></trkpt><trkpt lat="42.855022257104906" lon="10.48301322615939"><ele>0.0</ele><time>2026-04-20T16:22:40Z</time></trkpt><trkpt lat="42.854935296929575" lon="10.482899810559669"><ele>0.0</ele><time>2026-04-20T16:22:42Z</time></trkpt><trkpt lat="42.8548168945623" lon="10.48281189947521"><ele>0.0</ele><time>2026-04-20T16:22:44Z</time></trkpt><trkpt lat="42.854719568657295" lon="10.482804807528002"><ele>0.0</ele><time>2026-04-20T16:22:45Z</time></trkpt><trkpt lat="42.85466181230025" lon="10.482753487235891"><ele>0.0</ele><time>2026-04-20T16:22:46Z</time></trkpt><trkpt lat="42.854596397225315" lon="10.482703474092892"><ele>0.0</ele><time>2026-04-20T16:22:47Z</time></trkpt><trkpt lat="42.85454433074804" lon="10.48264520931567"><ele>0.0</ele><time>2026-04-20T16:22:48Z</time></trkpt><trkpt lat="42.854478012543375" lon="10.482500538798165"><ele>0.0</ele><time>2026-04-20T16:22:50Z</time></trkpt><trkpt lat="42.85442565205749" lon="10.482426594438042"><ele>0.0</ele><time>2026-04-20T16:22:51Z</time></trkpt><trkpt lat="42.85437698020707" lon="10.48234878112133"><ele>0.0</ele><time>2026-04-20T16:22:52Z</time></trkpt><trkpt lat="42.85432922713001" lon="10.482271675468978"><ele>0.0</ele><time>2026-04-20T16:22:53Z</time></trkpt><trkpt lat="42.85438463632496" lon="10.482169766402292"><ele>0.0</ele><time>2026-04-20T16:22:55Z</time></trkpt><trkpt lat="42.85432123150482" lon="10.481986568724034"><ele>0.0</ele><time>2026-04-20T16:22:57Z</time></trkpt><trkpt lat="42.85420318823366" lon="10.482064069265775"><ele>0.0</ele><time>2026-04-20T16:22:58Z</time></trkpt><trkpt lat="42.854169635269365" lon="10.48195211054463"><ele>0.0</ele><time>2026-04-20T16:22:59Z</time></trkpt><trkpt lat="42.854072937310995" lon="10.481960158400877"><ele>0.0</ele><time>2026-04-20T16:23:00Z</time></trkpt><trkpt lat="42.8540244048183" lon="10.481902431059968"><ele>0.0</ele><time>2026-04-20T16:23:01Z</time></trkpt><trkpt lat="42.8539709792393" lon="10.481828458087746"><ele>0.0</ele><time>2026-04-20T16:23:02Z</time></trkpt><trkpt lat="42.85391546108103" lon="10.481767367204004"><ele>0.0</ele><time>2026-04-20T16:23:03Z</time></trkpt><trkpt lat="42.85385703259828" lon="10.481714337564203"><ele>0.0</ele><time>2026-04-20T16:23:04Z</time></trkpt><trkpt lat="42.85379996334735" lon="10.481653386683723"><ele>0.0</ele><time>2026-04-20T16:23:05Z</time></trkpt><trkpt lat="42.853752628703106" lon="10.48155800849141"><ele>0.0</ele><time>2026-04-20T16:23:06Z</time></trkpt><trkpt lat="42.853698113341736" lon="10.48148919080382"><ele>0.0</ele><time>2026-04-20T16:23:07Z</time></trkpt><trkpt lat="42.85363584002796" lon="10.481424095494186"><ele>0.0</ele><time>2026-04-20T16:23:08Z</time></trkpt><trkpt lat="42.85356959286686" lon="10.48137702156423"><ele>0.0</ele><time>2026-04-20T16:23:09Z</time></trkpt><trkpt lat="42.85350949798524" lon="10.481332557025443"><ele>0.0</ele><time>2026-04-20T16:23:10Z</time></trkpt><trkpt lat="42.85346374301512" lon="10.481259828822921"><ele>0.0</ele><time>2026-04-20T16:23:11Z</time></trkpt><trkpt lat="42.853372951655665" lon="10.481174707785462"><ele>0.0</ele><time>2026-04-20T16:23:13Z</time></trkpt><trkpt lat="42.85328950364055" lon="10.48114211625216"><ele>0.0</ele><time>2026-04-20T16:23:14Z</time></trkpt><trkpt lat="42.853196374327" lon="10.481045925213428"><ele>0.0</ele><time>2026-04-20T16:23:16Z</time></trkpt><trkpt lat="42.853144936445275" lon="10.480982009031557"><ele>0.0</ele><time>2026-04-20T16:23:17Z</time></trkpt><trkpt lat="42.85309364018777" lon="10.480914123278962"><ele>0.0</ele><time>2026-04-20T16:23:18Z</time></trkpt><trkpt lat="42.853039641516936" lon="10.480851115481988"><ele>0.0</ele><time>2026-04-20T16:23:19Z</time></trkpt><trkpt lat="42.85296861275955" lon="10.480784271566609"><ele>0.0</ele><time>2026-04-20T16:23:20Z</time></trkpt><trkpt lat="42.85291298751155" lon="10.480708498066168"><ele>0.0</ele><time>2026-04-20T16:23:21Z</time></trkpt><trkpt lat="42.85287537789923" lon="10.480592926419593"><ele>0.0</ele><time>2026-04-20T16:23:22Z</time></trkpt><trkpt lat="42.85276249955289" lon="10.480455691464746"><ele>0.0</ele><time>2026-04-20T16:23:24Z</time></trkpt><trkpt lat="42.85267612419978" lon="10.480352538258122"><ele>0.0</ele><time>2026-04-20T16:23:25Z</time></trkpt><trkpt lat="42.852615605280434" lon="10.480279333003914"><ele>0.0</ele><time>2026-04-20T16:23:26Z</time></trkpt><trkpt lat="42.85256718638381" lon="10.480198970642606"><ele>0.0</ele><time>2026-04-20T16:23:27Z</time></trkpt><trkpt lat="42.852505129340294" lon="10.480122580085665"><ele>0.0</ele><time>2026-04-20T16:23:28Z</time></trkpt><trkpt lat="42.852434044672925" lon="10.480084272242726"><ele>0.0</ele><time>2026-04-20T16:23:29Z</time></trkpt><trkpt lat="42.852371164716565" lon="10.480013012014027"><ele>0.0</ele><time>2026-04-20T16:23:30Z</time></trkpt><trkpt lat="42.85232658342577" lon="10.479929221892293"><ele>0.0</ele><time>2026-04-20T16:23:32Z</time></trkpt><trkpt lat="42.852270908107215" lon="10.47987055156197"><ele>0.0</ele><time>2026-04-20T16:23:33Z</time></trkpt><trkpt lat="42.85221716246535" lon="10.479825335072782"><ele>0.0</ele><time>2026-04-20T16:23:34Z</time></trkpt><trkpt lat="42.85212399318532" lon="10.479774177335663"><ele>0.0</ele><time>2026-04-20T16:23:36Z</time></trkpt><trkpt lat="42.852053146956564" lon="10.479739604619967"><ele>0.0</ele><time>2026-04-20T16:23:37Z</time></trkpt><trkpt lat="42.85200073825316" lon="10.479688774759818"><ele>0.0</ele><time>2026-04-20T16:23:38Z</time></trkpt><trkpt lat="42.85192157537102" lon="10.479551862737905"><ele>0.0</ele><time>2026-04-20T16:23:40Z</time></trkpt><trkpt lat="42.85190057142666" lon="10.479423685537887"><ele>0.0</ele><time>2026-04-20T16:23:41Z</time></trkpt><trkpt lat="42.85178757359983" lon="10.479279270414274"><ele>0.0</ele><time>2026-04-20T16:23:43Z</time></trkpt><trkpt lat="42.85172232150563" lon="10.479218191529592"><ele>0.0</ele><time>2026-04-20T16:23:44Z</time></trkpt><trkpt lat="42.85164905797654" lon="10.47912439758465"><ele>0.0</ele><time>2026-04-20T16:23:46Z</time></trkpt><trkpt lat="42.85160191173892" lon="10.479062085572206"><ele>0.0</ele><time>2026-04-20T16:23:47Z</time></trkpt><trkpt lat="42.85154288334715" lon="10.47898497346904"><ele>0.0</ele><time>2026-04-20T16:23:48Z</time></trkpt><trkpt lat="42.851484699395456" lon="10.478915812094076"><ele>0.0</ele><time>2026-04-20T16:23:49Z</time></trkpt><trkpt lat="42.85143251908159" lon="10.478851739286736"><ele>0.0</ele><time>2026-04-20T16:23:50Z</time></trkpt><trkpt lat="42.85136168765943" lon="10.478789264984231"><ele>0.0</ele><time>2026-04-20T16:23:51Z</time></trkpt><trkpt lat="42.85131562452299" lon="10.478728563643195"><ele>0.0</ele><time>2026-04-20T16:23:52Z</time></trkpt><trkpt lat="42.85126408711437" lon="10.478662937318967"><ele>0.0</ele><time>2026-04-20T16:23:53Z</time></trkpt><trkpt lat="42.8511816823571" lon="10.47860935014399"><ele>0.0</ele><time>2026-04-20T16:23:54Z</time></trkpt><trkpt lat="42.85107892436836" lon="10.478494059468712"><ele>0.0</ele><time>2026-04-20T16:23:55Z</time></trkpt><trkpt lat="42.85102812413123" lon="10.478392205533822"><ele>0.0</ele><time>2026-04-20T16:23:57Z</time></trkpt><trkpt lat="42.85097870844207" lon="10.478330424515963"><ele>0.0</ele><time>2026-04-20T16:23:58Z</time></trkpt><trkpt lat="42.850937460658486" lon="10.478225744703039"><ele>0.0</ele><time>2026-04-20T16:24:00Z</time></trkpt><trkpt lat="42.85088854627204" lon="10.478169047418035"><ele>0.0</ele><time>2026-04-20T16:24:01Z</time></trkpt><trkpt lat="42.85083028053227" lon="10.478015337542484"><ele>0.0</ele><time>2026-04-20T16:24:02Z</time></trkpt><trkpt lat="42.85077007758046" lon="10.477943830568583"><ele>0.0</ele><time>2026-04-20T16:24:03Z</time></trkpt><trkpt lat="42.85070279573674" lon="10.477867966467269"><ele>0.0</ele><time>2026-04-20T16:24:04Z</time></trkpt><trkpt lat="42.850644131352546" lon="10.477807418034713"><ele>0.0</ele><time>2026-04-20T16:24:05Z</time></trkpt><trkpt lat="42.85051895342139" lon="10.477799691023153"><ele>0.0</ele><time>2026-04-20T16:24:06Z</time></trkpt><trkpt lat="42.85046735837155" lon="10.477743352805502"><ele>0.0</ele><time>2026-04-20T16:24:07Z</time></trkpt><trkpt lat="42.85041857072449" lon="10.477681528761378"><ele>0.0</ele><time>2026-04-20T16:24:08Z</time></trkpt><trkpt lat="42.8503523797669" lon="10.477643498271199"><ele>0.0</ele><time>2026-04-20T16:24:09Z</time></trkpt><trkpt lat="42.85028720855709" lon="10.477582645417638"><ele>0.0</ele><time>2026-04-20T16:24:10Z</time></trkpt><trkpt lat="42.850253392949355" lon="10.477480590421964"><ele>0.0</ele><time>2026-04-20T16:24:11Z</time></trkpt><trkpt lat="42.850158620267116" lon="10.477401259145232"><ele>0.0</ele><time>2026-04-20T16:24:13Z</time></trkpt><trkpt lat="42.850098956861764" lon="10.477321752998645"><ele>0.0</ele><time>2026-04-20T16:24:14Z</time></trkpt><trkpt lat="42.84997222564561" lon="10.477198502498196"><ele>0.0</ele><time>2026-04-20T16:24:16Z</time></trkpt><trkpt lat="42.84991829081041" lon="10.477134754043949"><ele>0.0</ele><time>2026-04-20T16:24:17Z</time></trkpt><trkpt lat="42.849852497802296" lon="10.477072688085272"><ele>0.0</ele><time>2026-04-20T16:24:18Z</time></trkpt><trkpt lat="42.849756134239875" lon="10.476960647524617"><ele>0.0</ele><time>2026-04-20T16:24:20Z</time></trkpt><trkpt lat="42.84969114638614" lon="10.47688372124244"><ele>0.0</ele><time>2026-04-20T16:24:21Z</time></trkpt><trkpt lat="42.8496285703201" lon="10.476814043997537"><ele>0.0</ele><time>2026-04-20T16:24:22Z</time></trkpt><trkpt lat="42.849574536375215" lon="10.476756747110082"><ele>0.0</ele><time>2026-04-20T16:24:23Z</time></trkpt><trkpt lat="42.84951414874411" lon="10.47670113320659"><ele>0.0</ele><time>2026-04-20T16:24:24Z</time></trkpt><trkpt lat="42.849453254804025" lon="10.476625566532135"><ele>0.0</ele><time>2026-04-20T16:24:26Z</time></trkpt><trkpt lat="42.849344848128624" lon="10.476515379250737"><ele>0.0</ele><time>2026-04-20T16:24:28Z</time></trkpt><trkpt lat="42.84927026335283" lon="10.476446878589279"><ele>0.0</ele><time>2026-04-20T16:24:30Z</time></trkpt><trkpt lat="42.849219486148606" lon="10.476392233039123"><ele>0.0</ele><time>2026-04-20T16:24:31Z</time></trkpt><trkpt lat="42.84911117186263" lon="10.476297450786783"><ele>0.0</ele><time>2026-04-20T16:24:33Z</time></trkpt><trkpt lat="42.849055754266395" lon="10.476245680937593"><ele>0.0</ele><time>2026-04-20T16:24:34Z</time></trkpt><trkpt lat="42.84900210397538" lon="10.476178218506464"><ele>0.0</ele><time>2026-04-20T16:24:35Z</time></trkpt><trkpt lat="42.84893967216197" lon="10.476090140326042"><ele>0.0</ele><time>2026-04-20T16:24:36Z</time></trkpt><trkpt lat="42.84885716021272" lon="10.475985181261361"><ele>0.0</ele><time>2026-04-20T16:24:37Z</time></trkpt><trkpt lat="42.84879692908203" lon="10.475913208011445"><ele>0.0</ele><time>2026-04-20T16:24:38Z</time></trkpt><trkpt lat="42.8487479843426" lon="10.475827614448821"><ele>0.0</ele><time>2026-04-20T16:24:40Z</time></trkpt><trkpt lat="42.84867404386351" lon="10.475762988918987"><ele>0.0</ele><time>2026-04-20T16:24:41Z</time></trkpt><trkpt lat="42.84862567370204" lon="10.475699331901497"><ele>0.0</ele><time>2026-04-20T16:24:42Z</time></trkpt><trkpt lat="42.84852868471877" lon="10.475569700671931"><ele>0.0</ele><time>2026-04-20T16:24:44Z</time></trkpt><trkpt lat="42.84847019771252" lon="10.475480635198917"><ele>0.0</ele><time>2026-04-20T16:24:45Z</time></trkpt><trkpt lat="42.84838868598312" lon="10.475374001029794"><ele>0.0</ele><time>2026-04-20T16:24:47Z</time></trkpt><trkpt lat="42.84828429753517" lon="10.47527328488863"><ele>0.0</ele><time>2026-04-20T16:24:50Z</time></trkpt><trkpt lat="42.84821140806989" lon="10.475164103193308"><ele>0.0</ele><time>2026-04-20T16:24:52Z</time></trkpt><trkpt lat="42.8481480922048" lon="10.475086383030058"><ele>0.0</ele><time>2026-04-20T16:24:53Z</time></trkpt><trkpt lat="42.84808151478459" lon="10.475002524570234"><ele>0.0</ele><time>2026-04-20T16:24:54Z</time></trkpt><trkpt lat="42.84795160438899" lon="10.474860911358222"><ele>0.0</ele><time>2026-04-20T16:24:55Z</time></trkpt><trkpt lat="42.84789312318563" lon="10.474814398259754"><ele>0.0</ele><time>2026-04-20T16:24:56Z</time></trkpt><trkpt lat="42.84782912257812" lon="10.47475471883207"><ele>0.0</ele><time>2026-04-20T16:24:57Z</time></trkpt><trkpt lat="42.847771421790014" lon="10.47468609044324"><ele>0.0</ele><time>2026-04-20T16:24:58Z</time></trkpt><trkpt lat="42.84771455158498" lon="10.4746396128622"><ele>0.0</ele><time>2026-04-20T16:24:59Z</time></trkpt><trkpt lat="42.84764833140009" lon="10.474574700427501"><ele>0.0</ele><time>2026-04-20T16:25:00Z</time></trkpt><trkpt lat="42.84758794464029" lon="10.474509805706733"><ele>0.0</ele><time>2026-04-20T16:25:01Z</time></trkpt><trkpt lat="42.847533108008406" lon="10.47444295911625"><ele>0.0</ele><time>2026-04-20T16:25:02Z</time></trkpt><trkpt lat="42.84748965363924" lon="10.47437764646998"><ele>0.0</ele><time>2026-04-20T16:25:03Z</time></trkpt><trkpt lat="42.84744535798951" lon="10.474292820088989"><ele>0.0</ele><time>2026-04-20T16:25:04Z</time></trkpt><trkpt lat="42.847347337120816" lon="10.474219622573898"><ele>0.0</ele><time>2026-04-20T16:25:06Z</time></trkpt><trkpt lat="42.84729225400805" lon="10.474132795816427"><ele>0.0</ele><time>2026-04-20T16:25:07Z</time></trkpt><trkpt lat="42.84722340176743" lon="10.474063064105737"><ele>0.0</ele><time>2026-04-20T16:25:08Z</time></trkpt><trkpt lat="42.84713749716353" lon="10.47397970936188"><ele>0.0</ele><time>2026-04-20T16:25:09Z</time></trkpt><trkpt lat="42.84706664530802" lon="10.473908709475753"><ele>0.0</ele><time>2026-04-20T16:25:10Z</time></trkpt><trkpt lat="42.84699819491067" lon="10.473818625122426"><ele>0.0</ele><time>2026-04-20T16:25:11Z</time></trkpt><trkpt lat="42.84693472636657" lon="10.47372463742679"><ele>0.0</ele><time>2026-04-20T16:25:12Z</time></trkpt><trkpt lat="42.84682727555774" lon="10.473642790344385"><ele>0.0</ele><time>2026-04-20T16:25:13Z</time></trkpt><trkpt lat="42.84675653704797" lon="10.47355793696098"><ele>0.0</ele><time>2026-04-20T16:25:15Z</time></trkpt><trkpt lat="42.846691310008026" lon="10.47347545232746"><ele>0.0</ele><time>2026-04-20T16:25:16Z</time></trkpt><trkpt lat="42.84661974702582" lon="10.473422151130553"><ele>0.0</ele><time>2026-04-20T16:25:17Z</time></trkpt><trkpt lat="42.84653566851688" lon="10.473313737796783"><ele>0.0</ele><time>2026-04-20T16:25:19Z</time></trkpt><trkpt lat="42.84660307617508" lon="10.47338002892671"><ele>0.0</ele><time>2026-04-20T16:25:20Z</time></trkpt><trkpt lat="42.846561892019885" lon="10.473305919645535"><ele>0.0</ele><time>2026-04-20T16:25:21Z</time></trkpt><trkpt lat="42.84647355107856" lon="10.473194234245625"><ele>0.0</ele><time>2026-04-20T16:25:23Z</time></trkpt><trkpt lat="42.84641131467874" lon="10.473174292553594"><ele>0.0</ele><time>2026-04-20T16:25:24Z</time></trkpt><trkpt lat="42.84633271397919" lon="10.47307160209745"><ele>0.0</ele><time>2026-04-20T16:25:25Z</time></trkpt><trkpt lat="42.84628484328316" lon="10.47299020501871"><ele>0.0</ele><time>2026-04-20T16:25:26Z</time></trkpt><trkpt lat="42.84623131270478" lon="10.472916266264788"><ele>0.0</ele><time>2026-04-20T16:25:27Z</time></trkpt><trkpt lat="42.846159074001704" lon="10.472855763796582"><ele>0.0</ele><time>2026-04-20T16:25:29Z</time></trkpt><trkpt lat="42.8459892763097" lon="10.472668063572788"><ele>0.0</ele><time>2026-04-20T16:25:31Z</time></trkpt><trkpt lat="42.84595057143508" lon="10.47256272734045"><ele>0.0</ele><time>2026-04-20T16:25:32Z</time></trkpt><trkpt lat="42.84591148997392" lon="10.472473374341845"><ele>0.0</ele><time>2026-04-20T16:25:33Z</time></trkpt><trkpt lat="42.845840721565935" lon="10.472383891395433"><ele>0.0</ele><time>2026-04-20T16:25:34Z</time></trkpt><trkpt lat="42.845812920375906" lon="10.472277510374758"><ele>0.0</ele><time>2026-04-20T16:25:35Z</time></trkpt><trkpt lat="42.845743736301664" lon="10.472211848301933"><ele>0.0</ele><time>2026-04-20T16:25:36Z</time></trkpt><trkpt lat="42.8457205408789" lon="10.47212203381889"><ele>0.0</ele><time>2026-04-20T16:25:37Z</time></trkpt><trkpt lat="42.84566295907049" lon="10.47207035198974"><ele>0.0</ele><time>2026-04-20T16:25:38Z</time></trkpt><trkpt lat="42.84560694131028" lon="10.472012672474188"><ele>0.0</ele><time>2026-04-20T16:25:39Z</time></trkpt><trkpt lat="42.84555498809774" lon="10.471948023823293"><ele>0.0</ele><time>2026-04-20T16:25:40Z</time></trkpt><trkpt lat="42.8455026535821" lon="10.471866947881125"><ele>0.0</ele><time>2026-04-20T16:25:41Z</time></trkpt><trkpt lat="42.845449479346726" lon="10.471801329896572"><ele>0.0</ele><time>2026-04-20T16:25:42Z</time></trkpt><trkpt lat="42.84537060959255" lon="10.47175592701405"><ele>0.0</ele><time>2026-04-20T16:25:43Z</time></trkpt><trkpt lat="42.845292956432914" lon="10.47176671676161"><ele>0.0</ele><time>2026-04-20T16:25:44Z</time></trkpt><trkpt lat="42.845213420074685" lon="10.471642812368522"><ele>0.0</ele><time>2026-04-20T16:25:46Z</time></trkpt><trkpt lat="42.84517384258671" lon="10.47155646016361"><ele>0.0</ele><time>2026-04-20T16:25:47Z</time></trkpt><trkpt lat="42.84509098694292" lon="10.47141301613983"><ele>0.0</ele><time>2026-04-20T16:25:49Z</time></trkpt><trkpt lat="42.84502921276192" lon="10.471322059734344"><ele>0.0</ele><time>2026-04-20T16:25:50Z</time></trkpt><trkpt lat="42.844941276576485" lon="10.471247829131418"><ele>0.0</ele><time>2026-04-20T16:25:53Z</time></trkpt><trkpt lat="42.844830212806585" lon="10.471152517778705"><ele>0.0</ele><time>2026-04-20T16:25:56Z</time></trkpt><trkpt lat="42.844747760736006" lon="10.471076362324228"><ele>0.0</ele><time>2026-04-20T16:25:57Z</time></trkpt><trkpt lat="42.844700746278534" lon="10.470994818677633"><ele>0.0</ele><time>2026-04-20T16:25:58Z</time></trkpt><trkpt lat="42.844633728527114" lon="10.470915540774191"><ele>0.0</ele><time>2026-04-20T16:25:59Z</time></trkpt><trkpt lat="42.844568950186876" lon="10.470835001432475"><ele>0.0</ele><time>2026-04-20T16:26:00Z</time></trkpt><trkpt lat="42.84445962960212" lon="10.470713542221551"><ele>0.0</ele><time>2026-04-20T16:26:01Z</time></trkpt><trkpt lat="42.84436505133288" lon="10.470630560060751"><ele>0.0</ele><time>2026-04-20T16:26:02Z</time></trkpt><trkpt lat="42.84428488119669" lon="10.470520178452114"><ele>0.0</ele><time>2026-04-20T16:26:03Z</time></trkpt><trkpt lat="42.84420253811999" lon="10.47043671801298"><ele>0.0</ele><time>2026-04-20T16:26:04Z</time></trkpt><trkpt lat="42.84414374095145" lon="10.470367984303966"><ele>0.0</ele><time>2026-04-20T16:26:05Z</time></trkpt><trkpt lat="42.844059311509746" lon="10.470279616003701"><ele>0.0</ele><time>2026-04-20T16:26:06Z</time></trkpt><trkpt lat="42.84397368155678" lon="10.470198668898602"><ele>0.0</ele><time>2026-04-20T16:26:07Z</time></trkpt><trkpt lat="42.84390922949159" lon="10.47010845894815"><ele>0.0</ele><time>2026-04-20T16:26:08Z</time></trkpt><trkpt lat="42.84384794264055" lon="10.47004496566902"><ele>0.0</ele><time>2026-04-20T16:26:09Z</time></trkpt><trkpt lat="42.843782122728896" lon="10.469998013277916"><ele>0.0</ele><time>2026-04-20T16:26:10Z</time></trkpt><trkpt lat="42.8437367769118" lon="10.469922385385146"><ele>0.0</ele><time>2026-04-20T16:26:11Z</time></trkpt><trkpt lat="42.84365375476231" lon="10.469845756003947"><ele>0.0</ele><time>2026-04-20T16:26:12Z</time></trkpt><trkpt lat="42.84359011508169" lon="10.46975478975514"><ele>0.0</ele><time>2026-04-20T16:26:14Z</time></trkpt><trkpt lat="42.843516900377104" lon="10.46966499720613"><ele>0.0</ele><time>2026-04-20T16:26:15Z</time></trkpt><trkpt lat="42.843448122318904" lon="10.46959949984845"><ele>0.0</ele><time>2026-04-20T16:26:16Z</time></trkpt><trkpt lat="42.84337391218463" lon="10.469519682354148"><ele>0.0</ele><time>2026-04-20T16:26:17Z</time></trkpt><trkpt lat="42.84327030080734" lon="10.469433521824591"><ele>0.0</ele><time>2026-04-20T16:26:19Z</time></trkpt><trkpt lat="42.84317532506641" lon="10.469314811688335"><ele>0.0</ele><time>2026-04-20T16:26:21Z</time></trkpt><trkpt lat="42.8431003945628" lon="10.46919986526264"><ele>0.0</ele><time>2026-04-20T16:26:22Z</time></trkpt><trkpt lat="42.8430365171748" lon="10.469121742280063"><ele>0.0</ele><time>2026-04-20T16:26:23Z</time></trkpt><trkpt lat="42.84297657773951" lon="10.469052977777583"><ele>0.0</ele><time>2026-04-20T16:26:24Z</time></trkpt><trkpt lat="42.842918130856425" lon="10.468997026377"><ele>0.0</ele><time>2026-04-20T16:26:25Z</time></trkpt><trkpt lat="42.842818536798816" lon="10.46887825635276"><ele>0.0</ele><time>2026-04-20T16:26:27Z</time></trkpt><trkpt lat="42.842761542958264" lon="10.468813426529302"><ele>0.0</ele><time>2026-04-20T16:26:28Z</time></trkpt><trkpt lat="42.842663822488994" lon="10.468698069583837"><ele>0.0</ele><time>2026-04-20T16:26:30Z</time></trkpt><trkpt lat="42.84254278741686" lon="10.468585979711435"><ele>0.0</ele><time>2026-04-20T16:26:32Z</time></trkpt><trkpt lat="42.84246748358632" lon="10.468522642870541"><ele>0.0</ele><time>2026-04-20T16:26:33Z</time></trkpt><trkpt lat="42.842394597028175" lon="10.468444000083863"><ele>0.0</ele><time>2026-04-20T16:26:34Z</time></trkpt><trkpt lat="42.84234896406234" lon="10.46837526285905"><ele>0.0</ele><time>2026-04-20T16:26:35Z</time></trkpt><trkpt lat="42.84225675129292" lon="10.468235459020303"><ele>0.0</ele><time>2026-04-20T16:26:37Z</time></trkpt><trkpt lat="42.842190534591914" lon="10.468203311769658"><ele>0.0</ele><time>2026-04-20T16:26:38Z</time></trkpt><trkpt lat="42.842086715163624" lon="10.468121941974006"><ele>0.0</ele><time>2026-04-20T16:26:40Z</time></trkpt><trkpt lat="42.8420458841434" lon="10.468028839104681"><ele>0.0</ele><time>2026-04-20T16:26:41Z</time></trkpt><trkpt lat="42.8419540583282" lon="10.467899836141399"><ele>0.0</ele><time>2026-04-20T16:26:43Z</time></trkpt><trkpt lat="42.841869048997566" lon="10.467816145564992"><ele>0.0</ele><time>2026-04-20T16:26:45Z</time></trkpt><trkpt lat="42.84183252787661" lon="10.467730985469593"><ele>0.0</ele><time>2026-04-20T16:26:46Z</time></trkpt><trkpt lat="42.84175998925468" lon="10.467665095891098"><ele>0.0</ele><time>2026-04-20T16:26:47Z</time></trkpt><trkpt lat="42.84168406592132" lon="10.467547888299945"><ele>0.0</ele><time>2026-04-20T16:26:49Z</time></trkpt><trkpt lat="42.84161505215007" lon="10.467447652695695"><ele>0.0</ele><time>2026-04-20T16:26:51Z</time></trkpt><trkpt lat="42.84152231720686" lon="10.467376875728405"><ele>0.0</ele><time>2026-04-20T16:26:53Z</time></trkpt><trkpt lat="42.84140941188669" lon="10.467317796693392"><ele>0.0</ele><time>2026-04-20T16:26:55Z</time></trkpt><trkpt lat="42.84131189244418" lon="10.467215536189668"><ele>0.0</ele><time>2026-04-20T16:26:57Z</time></trkpt><trkpt lat="42.841248752035625" lon="10.467130532578876"><ele>0.0</ele><time>2026-04-20T16:26:58Z</time></trkpt><trkpt lat="42.84116254473622" lon="10.467055652501687"><ele>0.0</ele><time>2026-04-20T16:26:59Z</time></trkpt><trkpt lat="42.84110176063881" lon="10.466974923635814"><ele>0.0</ele><time>2026-04-20T16:27:00Z</time></trkpt><trkpt lat="42.84103613659353" lon="10.466877147027411"><ele>0.0</ele><time>2026-04-20T16:27:01Z</time></trkpt><trkpt lat="42.84097192945865" lon="10.466800130020049"><ele>0.0</ele><time>2026-04-20T16:27:02Z</time></trkpt><trkpt lat="42.84091717552784" lon="10.466739269864213"><ele>0.0</ele><time>2026-04-20T16:27:03Z</time></trkpt><trkpt lat="42.84081832302706" lon="10.46659087560272"><ele>0.0</ele><time>2026-04-20T16:27:05Z</time></trkpt><trkpt lat="42.84077179776641" lon="10.4665261328011"><ele>0.0</ele><time>2026-04-20T16:27:06Z</time></trkpt><trkpt lat="42.8406958402592" lon="10.466479450314266"><ele>0.0</ele><time>2026-04-20T16:27:07Z</time></trkpt><trkpt lat="42.840604245490454" lon="10.466360557773701"><ele>0.0</ele><time>2026-04-20T16:27:09Z</time></trkpt><trkpt lat="42.8405372340656" lon="10.466310233849512"><ele>0.0</ele><time>2026-04-20T16:27:10Z</time></trkpt><trkpt lat="42.840483675322965" lon="10.466249827834714"><ele>0.0</ele><time>2026-04-20T16:27:11Z</time></trkpt><trkpt lat="42.84041264360788" lon="10.46623673179966"><ele>0.0</ele><time>2026-04-20T16:27:12Z</time></trkpt><trkpt lat="42.840339584308396" lon="10.466174994626806"><ele>0.0</ele><time>2026-04-20T16:27:13Z</time></trkpt><trkpt lat="42.84022710024557" lon="10.46608855751474"><ele>0.0</ele><time>2026-04-20T16:27:15Z</time></trkpt><trkpt lat="42.840174314636904" lon="10.466036205524812"><ele>0.0</ele><time>2026-04-20T16:27:16Z</time></trkpt><trkpt lat="42.840108562278715" lon="10.46598284130837"><ele>0.0</ele><time>2026-04-20T16:27:17Z</time></trkpt><trkpt lat="42.84003683362257" lon="10.465862892267294"><ele>0.0</ele><time>2026-04-20T16:27:19Z</time></trkpt><trkpt lat="42.84011780931487" lon="10.465580690298399"><ele>0.0</ele><time>2026-04-20T16:27:21Z</time></trkpt><trkpt lat="42.84006433515839" lon="10.46550760645166"><ele>0.0</ele><time>2026-04-20T16:27:22Z</time></trkpt><trkpt lat="42.84002659242833" lon="10.465429100589347"><ele>0.0</ele><time>2026-04-20T16:27:23Z</time></trkpt><trkpt lat="42.83995281744872" lon="10.465339343909191"><ele>0.0</ele><time>2026-04-20T16:27:24Z</time></trkpt><trkpt lat="42.839852478753954" lon="10.46525455946676"><ele>0.0</ele><time>2026-04-20T16:27:28Z</time></trkpt><trkpt lat="42.8397758765188" lon="10.465170545341037"><ele>0.0</ele><time>2026-04-20T16:27:29Z</time></trkpt><trkpt lat="42.839697323395846" lon="10.46511425870055"><ele>0.0</ele><time>2026-04-20T16:27:30Z</time></trkpt><trkpt lat="42.83963184519144" lon="10.465055260383098"><ele>0.0</ele><time>2026-04-20T16:27:31Z</time></trkpt><trkpt lat="42.83957139701069" lon="10.465002238555785"><ele>0.0</ele><time>2026-04-20T16:27:32Z</time></trkpt><trkpt lat="42.839495730431594" lon="10.464927883154429"><ele>0.0</ele><time>2026-04-20T16:27:33Z</time></trkpt><trkpt lat="42.83943067293923" lon="10.46489901446261"><ele>0.0</ele><time>2026-04-20T16:27:34Z</time></trkpt><trkpt lat="42.83936969135937" lon="10.464837939783706"><ele>0.0</ele><time>2026-04-20T16:27:35Z</time></trkpt><trkpt lat="42.83929519161916" lon="10.46478262580144"><ele>0.0</ele><time>2026-04-20T16:27:36Z</time></trkpt><trkpt lat="42.839217150949864" lon="10.464703857079675"><ele>0.0</ele><time>2026-04-20T16:27:39Z</time></trkpt><trkpt lat="42.83915906895823" lon="10.464642579723822"><ele>0.0</ele><time>2026-04-20T16:27:40Z</time></trkpt><trkpt lat="42.83908571747259" lon="10.464579815969094"><ele>0.0</ele><time>2026-04-20T16:27:41Z</time></trkpt><trkpt lat="42.838955912178236" lon="10.464468875137955"><ele>0.0</ele><time>2026-04-20T16:27:43Z</time></trkpt><trkpt lat="42.83884041991315" lon="10.464325378599778"><ele>0.0</ele><time>2026-04-20T16:27:45Z</time></trkpt><trkpt lat="42.83879083474402" lon="10.46426471131065"><ele>0.0</ele><time>2026-04-20T16:27:46Z</time></trkpt><trkpt lat="42.83872040333709" lon="10.464214109270275"><ele>0.0</ele><time>2026-04-20T16:27:47Z</time></trkpt><trkpt lat="42.838630686623524" lon="10.464139410177154"><ele>0.0</ele><time>2026-04-20T16:27:49Z</time></trkpt><trkpt lat="42.83856453272562" lon="10.464062108608962"><ele>0.0</ele><time>2026-04-20T16:27:50Z</time></trkpt><trkpt lat="42.838510522259504" lon="10.464010821504568"><ele>0.0</ele><time>2026-04-20T16:27:51Z</time></trkpt><trkpt lat="42.83844278232101" lon="10.463950458698147"><ele>0.0</ele><time>2026-04-20T16:27:52Z</time></trkpt><trkpt lat="42.83835855238616" lon="10.463870990102766"><ele>0.0</ele><time>2026-04-20T16:27:53Z</time></trkpt><trkpt lat="42.83828756655999" lon="10.46381269813883"><ele>0.0</ele><time>2026-04-20T16:27:54Z</time></trkpt><trkpt lat="42.83823599871468" lon="10.4637529532351"><ele>0.0</ele><time>2026-04-20T16:27:55Z</time></trkpt><trkpt lat="42.838174949390506" lon="10.463719362440317"><ele>0.0</ele><time>2026-04-20T16:27:56Z</time></trkpt><trkpt lat="42.83809357430308" lon="10.463607340144664"><ele>0.0</ele><time>2026-04-20T16:27:58Z</time></trkpt><trkpt lat="42.83803155349853" lon="10.46355623061252"><ele>0.0</ele><time>2026-04-20T16:27:59Z</time></trkpt><trkpt lat="42.83797257692691" lon="10.463492810936991"><ele>0.0</ele><time>2026-04-20T16:28:00Z</time></trkpt><trkpt lat="42.83787434009843" lon="10.463367169086995"><ele>0.0</ele><time>2026-04-20T16:28:02Z</time></trkpt><trkpt lat="42.83782177302844" lon="10.46330287740543"><ele>0.0</ele><time>2026-04-20T16:28:03Z</time></trkpt><trkpt lat="42.837712621865144" lon="10.463199057613307"><ele>0.0</ele><time>2026-04-20T16:28:05Z</time></trkpt><trkpt lat="42.83765020949822" lon="10.463132152664981"><ele>0.0</ele><time>2026-04-20T16:28:06Z</time></trkpt><trkpt lat="42.83759604399848" lon="10.463081768263901"><ele>0.0</ele><time>2026-04-20T16:28:07Z</time></trkpt><trkpt lat="42.83753555398975" lon="10.463031182312685"><ele>0.0</ele><time>2026-04-20T16:28:08Z</time></trkpt><trkpt lat="42.837458356093315" lon="10.462960483863741"><ele>0.0</ele><time>2026-04-20T16:28:09Z</time></trkpt><trkpt lat="42.837325273894436" lon="10.46290321448482"><ele>0.0</ele><time>2026-04-20T16:28:11Z</time></trkpt><trkpt lat="42.83727485947816" lon="10.462816792672369"><ele>0.0</ele><time>2026-04-20T16:28:12Z</time></trkpt><trkpt lat="42.83721434407578" lon="10.462757285059691"><ele>0.0</ele><time>2026-04-20T16:28:13Z</time></trkpt><trkpt lat="42.83715644692806" lon="10.46269357890405"><ele>0.0</ele><time>2026-04-20T16:28:14Z</time></trkpt><trkpt lat="42.837086852424235" lon="10.462623552902713"><ele>0.0</ele><time>2026-04-20T16:28:15Z</time></trkpt><trkpt lat="42.837014066639576" lon="10.462544193392816"><ele>0.0</ele><time>2026-04-20T16:28:16Z</time></trkpt><trkpt lat="42.836967534148684" lon="10.462485442846402"><ele>0.0</ele><time>2026-04-20T16:28:17Z</time></trkpt><trkpt lat="42.83690853130091" lon="10.462430477093307"><ele>0.0</ele><time>2026-04-20T16:28:18Z</time></trkpt><trkpt lat="42.836792957162345" lon="10.462360037625555"><ele>0.0</ele><time>2026-04-20T16:28:20Z</time></trkpt><trkpt lat="42.83673106762717" lon="10.462312507847836"><ele>0.0</ele><time>2026-04-20T16:28:21Z</time></trkpt><trkpt lat="42.83667065975876" lon="10.462254991528788"><ele>0.0</ele><time>2026-04-20T16:28:22Z</time></trkpt><trkpt lat="42.83661548316389" lon="10.462197291641468"><ele>0.0</ele><time>2026-04-20T16:28:23Z</time></trkpt><trkpt lat="42.83655631253025" lon="10.462144841503518"><ele>0.0</ele><time>2026-04-20T16:28:24Z</time></trkpt><trkpt lat="42.836497987212155" lon="10.46209252751904"><ele>0.0</ele><time>2026-04-20T16:28:25Z</time></trkpt><trkpt lat="42.83643662635344" lon="10.462029599338774"><ele>0.0</ele><time>2026-04-20T16:28:26Z</time></trkpt><trkpt lat="42.8363763039666" lon="10.461965142322084"><ele>0.0</ele><time>2026-04-20T16:28:27Z</time></trkpt><trkpt lat="42.836271270265286" lon="10.461876637582732"><ele>0.0</ele><time>2026-04-20T16:28:29Z</time></trkpt><trkpt lat="42.836195365695225" lon="10.461705049990657"><ele>0.0</ele><time>2026-04-20T16:28:31Z</time></trkpt><trkpt lat="42.836115060216116" lon="10.461615360182858"><ele>0.0</ele><time>2026-04-20T16:28:32Z</time></trkpt><trkpt lat="42.83606189477272" lon="10.461565604574856"><ele>0.0</ele><time>2026-04-20T16:28:33Z</time></trkpt><trkpt lat="42.83600622970908" lon="10.461520847757203"><ele>0.0</ele><time>2026-04-20T16:28:34Z</time></trkpt><trkpt lat="42.83592496943504" lon="10.46151264200109"><ele>0.0</ele><time>2026-04-20T16:28:35Z</time></trkpt><trkpt lat="42.8358371534145" lon="10.46143839062898"><ele>0.0</ele><time>2026-04-20T16:28:36Z</time></trkpt><trkpt lat="42.83574663885355" lon="10.461351623366063"><ele>0.0</ele><time>2026-04-20T16:28:37Z</time></trkpt><trkpt lat="42.8357309996683" lon="10.461219243242232"><ele>0.0</ele><time>2026-04-20T16:28:38Z</time></trkpt><trkpt lat="42.83569053468141" lon="10.46113435815848"><ele>0.0</ele><time>2026-04-20T16:28:39Z</time></trkpt><trkpt lat="42.83562780243384" lon="10.461070603217134"><ele>0.0</ele><time>2026-04-20T16:28:40Z</time></trkpt><trkpt lat="42.83552519485354" lon="10.460982025544284"><ele>0.0</ele><time>2026-04-20T16:28:41Z</time></trkpt><trkpt lat="42.83543609511211" lon="10.460862196630735"><ele>0.0</ele><time>2026-04-20T16:28:43Z</time></trkpt><trkpt lat="42.83534191577901" lon="10.460745411743067"><ele>0.0</ele><time>2026-04-20T16:28:44Z</time></trkpt><trkpt lat="42.83526765194143" lon="10.46066877152964"><ele>0.0</ele><time>2026-04-20T16:28:45Z</time></trkpt><trkpt lat="42.83521807725119" lon="10.46061338846359"><ele>0.0</ele><time>2026-04-20T16:28:46Z</time></trkpt><trkpt lat="42.835160942642595" lon="10.460549361713538"><ele>0.0</ele><time>2026-04-20T16:28:47Z</time></trkpt><trkpt lat="42.835104240358255" lon="10.460488907864292"><ele>0.0</ele><time>2026-04-20T16:28:48Z</time></trkpt><trkpt lat="42.8350447475023" lon="10.460424161329925"><ele>0.0</ele><time>2026-04-20T16:28:49Z</time></trkpt><trkpt lat="42.83498486162542" lon="10.460360748117258"><ele>0.0</ele><time>2026-04-20T16:28:50Z</time></trkpt><trkpt lat="42.83486887925214" lon="10.460342722481876"><ele>0.0</ele><time>2026-04-20T16:28:53Z</time></trkpt><trkpt lat="42.83475227730781" lon="10.460259165811204"><ele>0.0</ele><time>2026-04-20T16:28:56Z</time></trkpt><trkpt lat="42.834685935321914" lon="10.46015841290994"><ele>0.0</ele><time>2026-04-20T16:28:57Z</time></trkpt><trkpt lat="42.83462107053771" lon="10.460088628679598"><ele>0.0</ele><time>2026-04-20T16:28:58Z</time></trkpt><trkpt lat="42.83454841934562" lon="10.460047535113514"><ele>0.0</ele><time>2026-04-20T16:28:59Z</time></trkpt><trkpt lat="42.83449400015525" lon="10.459958418734834"><ele>0.0</ele><time>2026-04-20T16:29:00Z</time></trkpt><trkpt lat="42.83444789195677" lon="10.459861829264502"><ele>0.0</ele><time>2026-04-20T16:29:01Z</time></trkpt><trkpt lat="42.834392680078594" lon="10.459801662206736"><ele>0.0</ele><time>2026-04-20T16:29:02Z</time></trkpt><trkpt lat="42.83433942934252" lon="10.459724216693168"><ele>0.0</ele><time>2026-04-20T16:29:03Z</time></trkpt><trkpt lat="42.83430448825449" lon="10.459629185136503"><ele>0.0</ele><time>2026-04-20T16:29:04Z</time></trkpt><trkpt lat="42.83425134457923" lon="10.459568264829194"><ele>0.0</ele><time>2026-04-20T16:29:05Z</time></trkpt><trkpt lat="42.83409000419538" lon="10.459428113737612"><ele>0.0</ele><time>2026-04-20T16:29:07Z</time></trkpt><trkpt lat="42.83399969043547" lon="10.459358338023613"><ele>0.0</ele><time>2026-04-20T16:29:09Z</time></trkpt><trkpt lat="42.83391530121638" lon="10.459236502163561"><ele>0.0</ele><time>2026-04-20T16:29:11Z</time></trkpt><trkpt lat="42.833886203754204" lon="10.459121320936575"><ele>0.0</ele><time>2026-04-20T16:29:12Z</time></trkpt><trkpt lat="42.83384493930452" lon="10.458979276325044"><ele>0.0</ele><time>2026-04-20T16:29:13Z</time></trkpt><trkpt lat="42.83377804515542" lon="10.458855306483654"><ele>0.0</ele><time>2026-04-20T16:29:15Z</time></trkpt><trkpt lat="42.83368771755679" lon="10.458775603390784"><ele>0.0</ele><time>2026-04-20T16:29:16Z</time></trkpt><trkpt lat="42.83357030624209" lon="10.458635690939131"><ele>0.0</ele><time>2026-04-20T16:29:18Z</time></trkpt><trkpt lat="42.83351372080617" lon="10.458552814896784"><ele>0.0</ele><time>2026-04-20T16:29:19Z</time></trkpt><trkpt lat="42.833420201623774" lon="10.458485473633765"><ele>0.0</ele><time>2026-04-20T16:29:21Z</time></trkpt><trkpt lat="42.83335076506604" lon="10.45841327909972"><ele>0.0</ele><time>2026-04-20T16:29:22Z</time></trkpt><trkpt lat="42.83329324862991" lon="10.458342350702114"><ele>0.0</ele><time>2026-04-20T16:29:23Z</time></trkpt><trkpt lat="42.833202846141376" lon="10.458274078587598"><ele>0.0</ele><time>2026-04-20T16:29:25Z</time></trkpt><trkpt lat="42.83308659972752" lon="10.458168849609148"><ele>0.0</ele><time>2026-04-20T16:29:27Z</time></trkpt><trkpt lat="42.833020600341044" lon="10.458153473776111"><ele>0.0</ele><time>2026-04-20T16:29:28Z</time></trkpt><trkpt lat="42.83295925722488" lon="10.458087982359228"><ele>0.0</ele><time>2026-04-20T16:29:29Z</time></trkpt><trkpt lat="42.832868775502114" lon="10.45797448901477"><ele>0.0</ele><time>2026-04-20T16:29:31Z</time></trkpt><trkpt lat="42.832800974465876" lon="10.457914197715798"><ele>0.0</ele><time>2026-04-20T16:29:32Z</time></trkpt><trkpt lat="42.83272632687123" lon="10.457812602709753"><ele>0.0</ele><time>2026-04-20T16:29:34Z</time></trkpt><trkpt lat="42.83265398028295" lon="10.457746366966187"><ele>0.0</ele><time>2026-04-20T16:29:35Z</time></trkpt><trkpt lat="42.832601259427015" lon="10.45769080615905"><ele>0.0</ele><time>2026-04-20T16:29:36Z</time></trkpt><trkpt lat="42.83255205905846" lon="10.457636706315606"><ele>0.0</ele><time>2026-04-20T16:29:37Z</time></trkpt><trkpt lat="42.832496289497605" lon="10.457571945700437"><ele>0.0</ele><time>2026-04-20T16:29:38Z</time></trkpt><trkpt lat="42.83244396016984" lon="10.457512792568446"><ele>0.0</ele><time>2026-04-20T16:29:39Z</time></trkpt><trkpt lat="42.83239152482193" lon="10.457449579535774"><ele>0.0</ele><time>2026-04-20T16:29:40Z</time></trkpt><trkpt lat="42.83231931848257" lon="10.45736729538167"><ele>0.0</ele><time>2026-04-20T16:29:41Z</time></trkpt><trkpt lat="42.832221727387285" lon="10.457279668269958"><ele>0.0</ele><time>2026-04-20T16:29:42Z</time></trkpt><trkpt lat="42.832174880716025" lon="10.457120320565231"><ele>0.0</ele><time>2026-04-20T16:29:44Z</time></trkpt><trkpt lat="42.832067266798454" lon="10.457017318849022"><ele>0.0</ele><time>2026-04-20T16:29:46Z</time></trkpt><trkpt lat="42.83200660038667" lon="10.456921354357613"><ele>0.0</ele><time>2026-04-20T16:29:48Z</time></trkpt><trkpt lat="42.83194199240616" lon="10.45684862847779"><ele>0.0</ele><time>2026-04-20T16:29:49Z</time></trkpt><trkpt lat="42.831875648904735" lon="10.456777053096111"><ele>0.0</ele><time>2026-04-20T16:29:50Z</time></trkpt><trkpt lat="42.83181492180985" lon="10.456711530628542"><ele>0.0</ele><time>2026-04-20T16:29:51Z</time></trkpt><trkpt lat="42.83176236827586" lon="10.456649421317932"><ele>0.0</ele><time>2026-04-20T16:29:52Z</time></trkpt><trkpt lat="42.83166658532383" lon="10.45652410052782"><ele>0.0</ele><time>2026-04-20T16:29:54Z</time></trkpt><trkpt lat="42.83158656505284" lon="10.456435249645272"><ele>0.0</ele><time>2026-04-20T16:29:56Z</time></trkpt><trkpt lat="42.831517013585625" lon="10.456355093774677"><ele>0.0</ele><time>2026-04-20T16:29:57Z</time></trkpt><trkpt lat="42.83144813057088" lon="10.456278816670993"><ele>0.0</ele><time>2026-04-20T16:29:58Z</time></trkpt><trkpt lat="42.83138895935583" lon="10.456168606798203"><ele>0.0</ele><time>2026-04-20T16:30:00Z</time></trkpt><trkpt lat="42.831281101158226" lon="10.456046479456178"><ele>0.0</ele><time>2026-04-20T16:30:01Z</time></trkpt><trkpt lat="42.83115108426504" lon="10.455892456443276"><ele>0.0</ele><time>2026-04-20T16:30:03Z</time></trkpt><trkpt lat="42.83107591176602" lon="10.45582392096838"><ele>0.0</ele><time>2026-04-20T16:30:04Z</time></trkpt><trkpt lat="42.83102631162733" lon="10.455770750727615"><ele>0.0</ele><time>2026-04-20T16:30:05Z</time></trkpt><trkpt lat="42.830915023605" lon="10.45565401570712"><ele>0.0</ele><time>2026-04-20T16:30:07Z</time></trkpt><trkpt lat="42.83082343425826" lon="10.455575349307185"><ele>0.0</ele><time>2026-04-20T16:30:09Z</time></trkpt><trkpt lat="42.83072656909184" lon="10.455505854606683"><ele>0.0</ele><time>2026-04-20T16:30:11Z</time></trkpt><trkpt lat="42.830667856400545" lon="10.45545287239836"><ele>0.0</ele><time>2026-04-20T16:30:12Z</time></trkpt><trkpt lat="42.830597422989435" lon="10.455382234947702"><ele>0.0</ele><time>2026-04-20T16:30:13Z</time></trkpt><trkpt lat="42.83045677387717" lon="10.455270976920652"><ele>0.0</ele><time>2026-04-20T16:30:15Z</time></trkpt><trkpt lat="42.83039391205157" lon="10.455187374726354"><ele>0.0</ele><time>2026-04-20T16:30:16Z</time></trkpt><trkpt lat="42.830374921833695" lon="10.455071990471142"><ele>0.0</ele><time>2026-04-20T16:30:19Z</time></trkpt><trkpt lat="42.8302814790792" lon="10.454994762905889"><ele>0.0</ele><time>2026-04-20T16:30:20Z</time></trkpt><trkpt lat="42.83020411558823" lon="10.454942576604816"><ele>0.0</ele><time>2026-04-20T16:30:22Z</time></trkpt><trkpt lat="42.83005999025595" lon="10.454795460626523"><ele>0.0</ele><time>2026-04-20T16:30:24Z</time></trkpt><trkpt lat="42.83000407045132" lon="10.45474071660917"><ele>0.0</ele><time>2026-04-20T16:30:25Z</time></trkpt><trkpt lat="42.829952261503756" lon="10.454684729086402"><ele>0.0</ele><time>2026-04-20T16:30:26Z</time></trkpt><trkpt lat="42.82988790082074" lon="10.454617814099388"><ele>0.0</ele><time>2026-04-20T16:30:27Z</time></trkpt><trkpt lat="42.82982566598101" lon="10.454552089830619"><ele>0.0</ele><time>2026-04-20T16:30:28Z</time></trkpt><trkpt lat="42.82977045417118" lon="10.454503814299315"><ele>0.0</ele><time>2026-04-20T16:30:29Z</time></trkpt><trkpt lat="42.82969374858573" lon="10.454447001714051"><ele>0.0</ele><time>2026-04-20T16:30:30Z</time></trkpt><trkpt lat="42.82960270303131" lon="10.45436043952173"><ele>0.0</ele><time>2026-04-20T16:30:32Z</time></trkpt><trkpt lat="42.82947196647706" lon="10.454225551367312"><ele>0.0</ele><time>2026-04-20T16:30:34Z</time></trkpt><trkpt lat="42.82937350214868" lon="10.454114876059863"><ele>0.0</ele><time>2026-04-20T16:30:35Z</time></trkpt><trkpt lat="42.82927607270844" lon="10.454027044657655"><ele>0.0</ele><time>2026-04-20T16:30:37Z</time></trkpt><trkpt lat="42.8292250329274" lon="10.453953407759343"><ele>0.0</ele><time>2026-04-20T16:30:38Z</time></trkpt><trkpt lat="42.829055084563116" lon="10.453747707566238"><ele>0.0</ele><time>2026-04-20T16:30:40Z</time></trkpt><trkpt lat="42.82899910136397" lon="10.453696325730057"><ele>0.0</ele><time>2026-04-20T16:30:41Z</time></trkpt><trkpt lat="42.82894417982503" lon="10.453553423411423"><ele>0.0</ele><time>2026-04-20T16:30:43Z</time></trkpt><trkpt lat="42.828854766395274" lon="10.453434471858056"><ele>0.0</ele><time>2026-04-20T16:30:45Z</time></trkpt><trkpt lat="42.828796210259" lon="10.453368783166965"><ele>0.0</ele><time>2026-04-20T16:30:46Z</time></trkpt><trkpt lat="42.82872914741007" lon="10.453309675922203"><ele>0.0</ele><time>2026-04-20T16:30:47Z</time></trkpt><trkpt lat="42.82866703002251" lon="10.45322808729417"><ele>0.0</ele><time>2026-04-20T16:30:48Z</time></trkpt><trkpt lat="42.82856325008876" lon="10.4530999044618"><ele>0.0</ele><time>2026-04-20T16:30:50Z</time></trkpt><trkpt lat="42.828505917078594" lon="10.45303709330086"><ele>0.0</ele><time>2026-04-20T16:30:51Z</time></trkpt><trkpt lat="42.8284421652161" lon="10.452964174537856"><ele>0.0</ele><time>2026-04-20T16:30:52Z</time></trkpt><trkpt lat="42.82838329502561" lon="10.452897979264431"><ele>0.0</ele><time>2026-04-20T16:30:53Z</time></trkpt><trkpt lat="42.82833895545614" lon="10.452815627737053"><ele>0.0</ele><time>2026-04-20T16:30:55Z</time></trkpt><trkpt lat="42.82829233331517" lon="10.4527530260701"><ele>0.0</ele><time>2026-04-20T16:30:56Z</time></trkpt><trkpt lat="42.82823506074944" lon="10.452695308601557"><ele>0.0</ele><time>2026-04-20T16:30:57Z</time></trkpt><trkpt lat="42.82816443335861" lon="10.452611253794661"><ele>0.0</ele><time>2026-04-20T16:30:58Z</time></trkpt><trkpt lat="42.82810036633273" lon="10.45254864085278"><ele>0.0</ele><time>2026-04-20T16:30:59Z</time></trkpt><trkpt lat="42.82806089039684" lon="10.452477201917585"><ele>0.0</ele><time>2026-04-20T16:31:01Z</time></trkpt><trkpt lat="42.827981026031345" lon="10.45240697287114"><ele>0.0</ele><time>2026-04-20T16:31:03Z</time></trkpt><trkpt lat="42.82790834637729" lon="10.452368972633625"><ele>0.0</ele><time>2026-04-20T16:31:04Z</time></trkpt><trkpt lat="42.82786067401393" lon="10.452307236420165"><ele>0.0</ele><time>2026-04-20T16:31:05Z</time></trkpt><trkpt lat="42.827759192920645" lon="10.452204621404475"><ele>0.0</ele><time>2026-04-20T16:31:07Z</time></trkpt><trkpt lat="42.827688365716924" lon="10.452118912528476"><ele>0.0</ele><time>2026-04-20T16:31:08Z</time></trkpt><trkpt lat="42.827615984126304" lon="10.452071612060069"><ele>0.0</ele><time>2026-04-20T16:31:09Z</time></trkpt><trkpt lat="42.827556884863995" lon="10.451997592671537"><ele>0.0</ele><time>2026-04-20T16:31:10Z</time></trkpt><trkpt lat="42.82749400902175" lon="10.451927198995346"><ele>0.0</ele><time>2026-04-20T16:31:11Z</time></trkpt><trkpt lat="42.8273954486679" lon="10.451848463149355"><ele>0.0</ele><time>2026-04-20T16:31:12Z</time></trkpt><trkpt lat="42.8273393722894" lon="10.451808763294057"><ele>0.0</ele><time>2026-04-20T16:31:13Z</time></trkpt><trkpt lat="42.82725471992636" lon="10.451710896292246"><ele>0.0</ele><time>2026-04-20T16:31:14Z</time></trkpt><trkpt lat="42.827179423953964" lon="10.451655336240345"><ele>0.0</ele><time>2026-04-20T16:31:15Z</time></trkpt><trkpt lat="42.827120220011466" lon="10.451587572547579"><ele>0.0</ele><time>2026-04-20T16:31:16Z</time></trkpt><trkpt lat="42.82706646933275" lon="10.451532527644922"><ele>0.0</ele><time>2026-04-20T16:31:17Z</time></trkpt><trkpt lat="42.82699526739548" lon="10.451455406907085"><ele>0.0</ele><time>2026-04-20T16:31:18Z</time></trkpt><trkpt lat="42.82690609177628" lon="10.451416371064898"><ele>0.0</ele><time>2026-04-20T16:31:20Z</time></trkpt><trkpt lat="42.826853929050465" lon="10.451345044389456"><ele>0.0</ele><time>2026-04-20T16:31:21Z</time></trkpt><trkpt lat="42.82676917078049" lon="10.45128838713498"><ele>0.0</ele><time>2026-04-20T16:31:23Z</time></trkpt><trkpt lat="42.8266890975277" lon="10.451218610682279"><ele>0.0</ele><time>2026-04-20T16:31:25Z</time></trkpt><trkpt lat="42.8266155789059" lon="10.451152427479592"><ele>0.0</ele><time>2026-04-20T16:31:26Z</time></trkpt><trkpt lat="42.82652204989477" lon="10.451059768453927"><ele>0.0</ele><time>2026-04-20T16:31:27Z</time></trkpt><trkpt lat="42.826471688733555" lon="10.45097508508265"><ele>0.0</ele><time>2026-04-20T16:31:28Z</time></trkpt><trkpt lat="42.82642095812765" lon="10.450920511755443"><ele>0.0</ele><time>2026-04-20T16:31:29Z</time></trkpt><trkpt lat="42.82637715289664" lon="10.450856352787767"><ele>0.0</ele><time>2026-04-20T16:31:30Z</time></trkpt><trkpt lat="42.826316571277225" lon="10.450774201437994"><ele>0.0</ele><time>2026-04-20T16:31:31Z</time></trkpt><trkpt lat="42.82626686865317" lon="10.450708476018415"><ele>0.0</ele><time>2026-04-20T16:31:32Z</time></trkpt><trkpt lat="42.82614452161009" lon="10.450591477848905"><ele>0.0</ele><time>2026-04-20T16:31:34Z</time></trkpt><trkpt lat="42.82608421117739" lon="10.450534703446113"><ele>0.0</ele><time>2026-04-20T16:31:35Z</time></trkpt><trkpt lat="42.82601663371659" lon="10.450457925255508"><ele>0.0</ele><time>2026-04-20T16:31:36Z</time></trkpt><trkpt lat="42.825921172911734" lon="10.450322953246253"><ele>0.0</ele><time>2026-04-20T16:31:38Z</time></trkpt><trkpt lat="42.82580996070954" lon="10.450240627557134"><ele>0.0</ele><time>2026-04-20T16:31:40Z</time></trkpt><trkpt lat="42.825756192609525" lon="10.450184967427388"><ele>0.0</ele><time>2026-04-20T16:31:41Z</time></trkpt><trkpt lat="42.82568767134068" lon="10.450123757809424"><ele>0.0</ele><time>2026-04-20T16:31:42Z</time></trkpt><trkpt lat="42.82558386127951" lon="10.450021474695776"><ele>0.0</ele><time>2026-04-20T16:31:44Z</time></trkpt><trkpt lat="42.82552133609026" lon="10.449968857724269"><ele>0.0</ele><time>2026-04-20T16:31:45Z</time></trkpt><trkpt lat="42.82545589291446" lon="10.449881408124236"><ele>0.0</ele><time>2026-04-20T16:31:46Z</time></trkpt><trkpt lat="42.82534901617204" lon="10.449843383675764"><ele>0.0</ele><time>2026-04-20T16:31:48Z</time></trkpt><trkpt lat="42.82529287252281" lon="10.449757973191852"><ele>0.0</ele><time>2026-04-20T16:31:49Z</time></trkpt><trkpt lat="42.825240357261066" lon="10.449691701095656"><ele>0.0</ele><time>2026-04-20T16:31:50Z</time></trkpt><trkpt lat="42.825168279407016" lon="10.449650602475321"><ele>0.0</ele><time>2026-04-20T16:31:51Z</time></trkpt><trkpt lat="42.82510994279041" lon="10.449592027951265"><ele>0.0</ele><time>2026-04-20T16:31:52Z</time></trkpt><trkpt lat="42.82504219531882" lon="10.449522089099471"><ele>0.0</ele><time>2026-04-20T16:31:53Z</time></trkpt><trkpt lat="42.824990007461636" lon="10.449449539018394"><ele>0.0</ele><time>2026-04-20T16:31:54Z</time></trkpt><trkpt lat="42.8248933198724" lon="10.449355196164754"><ele>0.0</ele><time>2026-04-20T16:31:56Z</time></trkpt><trkpt lat="42.8247807993764" lon="10.449322353488192"><ele>0.0</ele><time>2026-04-20T16:31:58Z</time></trkpt><trkpt lat="42.82469193822447" lon="10.449291530903906"><ele>0.0</ele><time>2026-04-20T16:32:00Z</time></trkpt><trkpt lat="42.824624120701706" lon="10.449220794746074"><ele>0.0</ele><time>2026-04-20T16:32:02Z</time></trkpt><trkpt lat="42.82454168399799" lon="10.449165890378934"><ele>0.0</ele><time>2026-04-20T16:32:03Z</time></trkpt><trkpt lat="42.824498916441065" lon="10.449086898198576"><ele>0.0</ele><time>2026-04-20T16:32:04Z</time></trkpt><trkpt lat="42.824432176587436" lon="10.449067647902272"><ele>0.0</ele><time>2026-04-20T16:32:05Z</time></trkpt><trkpt lat="42.82441246340347" lon="10.448704481599416"><ele>0.0</ele><time>2026-04-20T16:32:06Z</time></trkpt><trkpt lat="42.824329076937005" lon="10.448626557020004"><ele>0.0</ele><time>2026-04-20T16:32:08Z</time></trkpt><trkpt lat="42.8242752145852" lon="10.448578888884247"><ele>0.0</ele><time>2026-04-20T16:32:09Z</time></trkpt><trkpt lat="42.82419500275672" lon="10.448457889812943"><ele>0.0</ele><time>2026-04-20T16:32:11Z</time></trkpt><trkpt lat="42.82413735909645" lon="10.448365973884854"><ele>0.0</ele><time>2026-04-20T16:32:12Z</time></trkpt><trkpt lat="42.82406750434256" lon="10.448297694224918"><ele>0.0</ele><time>2026-04-20T16:32:13Z</time></trkpt><trkpt lat="42.82401573159994" lon="10.448208176625219"><ele>0.0</ele><time>2026-04-20T16:32:14Z</time></trkpt><trkpt lat="42.82393502180434" lon="10.448154627621465"><ele>0.0</ele><time>2026-04-20T16:32:15Z</time></trkpt><trkpt lat="42.82387603080083" lon="10.448082626583638"><ele>0.0</ele><time>2026-04-20T16:32:16Z</time></trkpt><trkpt lat="42.82377760337796" lon="10.448015256207201"><ele>0.0</ele><time>2026-04-20T16:32:18Z</time></trkpt><trkpt lat="42.82371407105592" lon="10.447975288566283"><ele>0.0</ele><time>2026-04-20T16:32:19Z</time></trkpt><trkpt lat="42.82364408859564" lon="10.447861348898495"><ele>0.0</ele><time>2026-04-20T16:32:20Z</time></trkpt><trkpt lat="42.8235886226772" lon="10.447805250263666"><ele>0.0</ele><time>2026-04-20T16:32:21Z</time></trkpt><trkpt lat="42.82351568045076" lon="10.44769443269629"><ele>0.0</ele><time>2026-04-20T16:32:22Z</time></trkpt><trkpt lat="42.82346251784124" lon="10.447638630355565"><ele>0.0</ele><time>2026-04-20T16:32:23Z</time></trkpt><trkpt lat="42.823370877199046" lon="10.447581655657089"><ele>0.0</ele><time>2026-04-20T16:32:25Z</time></trkpt><trkpt lat="42.82331551010407" lon="10.447526376573913"><ele>0.0</ele><time>2026-04-20T16:32:26Z</time></trkpt><trkpt lat="42.82321817773979" lon="10.447554489442844"><ele>0.0</ele><time>2026-04-20T16:32:27Z</time></trkpt><trkpt lat="42.8231618774707" lon="10.447503846502082"><ele>0.0</ele><time>2026-04-20T16:32:28Z</time></trkpt><trkpt lat="42.823093786886105" lon="10.447423688028593"><ele>0.0</ele><time>2026-04-20T16:32:29Z</time></trkpt><trkpt lat="42.82302284566418" lon="10.447334524560162"><ele>0.0</ele><time>2026-04-20T16:32:30Z</time></trkpt><trkpt lat="42.8229628770457" lon="10.447272280495078"><ele>0.0</ele><time>2026-04-20T16:32:31Z</time></trkpt><trkpt lat="42.822809722166504" lon="10.447226210500045"><ele>0.0</ele><time>2026-04-20T16:32:33Z</time></trkpt><trkpt lat="42.82279753476879" lon="10.447094200821464"><ele>0.0</ele><time>2026-04-20T16:32:35Z</time></trkpt><trkpt lat="42.82275411138826" lon="10.447005055693364"><ele>0.0</ele><time>2026-04-20T16:32:36Z</time></trkpt><trkpt lat="42.82264886869751" lon="10.446956017004826"><ele>0.0</ele><time>2026-04-20T16:32:37Z</time></trkpt><trkpt lat="42.82253571983561" lon="10.446824858701714"><ele>0.0</ele><time>2026-04-20T16:32:38Z</time></trkpt><trkpt lat="42.82242671580511" lon="10.446722824868349"><ele>0.0</ele><time>2026-04-20T16:32:40Z</time></trkpt><trkpt lat="42.822377997416105" lon="10.446650227931075"><ele>0.0</ele><time>2026-04-20T16:32:41Z</time></trkpt><trkpt lat="42.82233041635947" lon="10.446583103670422"><ele>0.0</ele><time>2026-04-20T16:32:42Z</time></trkpt><trkpt lat="42.82232700583687" lon="10.44647657246332"><ele>0.0</ele><time>2026-04-20T16:32:43Z</time></trkpt><trkpt lat="42.82227638507307" lon="10.446404913765347"><ele>0.0</ele><time>2026-04-20T16:32:44Z</time></trkpt><trkpt lat="42.82224331486058" lon="10.446294284675691"><ele>0.0</ele><time>2026-04-20T16:32:46Z</time></trkpt><trkpt lat="42.82215422357577" lon="10.44617749914578"><ele>0.0</ele><time>2026-04-20T16:32:49Z</time></trkpt><trkpt lat="42.82208894539898" lon="10.446074878704279"><ele>0.0</ele><time>2026-04-20T16:32:51Z</time></trkpt><trkpt lat="42.82203132507121" lon="10.446027960749014"><ele>0.0</ele><time>2026-04-20T16:32:52Z</time></trkpt><trkpt lat="42.82196653528765" lon="10.445954174655988"><ele>0.0</ele><time>2026-04-20T16:32:53Z</time></trkpt><trkpt lat="42.82189000892714" lon="10.445895429752696"><ele>0.0</ele><time>2026-04-20T16:32:54Z</time></trkpt><trkpt lat="42.82183496228339" lon="10.445830239560323"><ele>0.0</ele><time>2026-04-20T16:32:55Z</time></trkpt><trkpt lat="42.8217894162692" lon="10.445752421333994"><ele>0.0</ele><time>2026-04-20T16:32:56Z</time></trkpt><trkpt lat="42.821697342444885" lon="10.445685267483128"><ele>0.0</ele><time>2026-04-20T16:32:58Z</time></trkpt><trkpt lat="42.82165043656686" lon="10.445585561182023"><ele>0.0</ele><time>2026-04-20T16:32:59Z</time></trkpt><trkpt lat="42.821569785647945" lon="10.445526581829595"><ele>0.0</ele><time>2026-04-20T16:33:00Z</time></trkpt><trkpt lat="42.821529326901214" lon="10.44545083832036"><ele>0.0</ele><time>2026-04-20T16:33:01Z</time></trkpt><trkpt lat="42.82142417621328" lon="10.44549004601958"><ele>0.0</ele><time>2026-04-20T16:33:02Z</time></trkpt><trkpt lat="42.82138816172321" lon="10.445395676409923"><ele>0.0</ele><time>2026-04-20T16:33:03Z</time></trkpt><trkpt lat="42.821324206685155" lon="10.445280524567774"><ele>0.0</ele><time>2026-04-20T16:33:04Z</time></trkpt><trkpt lat="42.82126826520864" lon="10.445207911830705"><ele>0.0</ele><time>2026-04-20T16:33:05Z</time></trkpt><trkpt lat="42.821205229316654" lon="10.44511884551359"><ele>0.0</ele><time>2026-04-20T16:33:06Z</time></trkpt><trkpt lat="42.821089987675414" lon="10.445113911001993"><ele>0.0</ele><time>2026-04-20T16:33:08Z</time></trkpt><trkpt lat="42.82106550407537" lon="10.444993888171028"><ele>0.0</ele><time>2026-04-20T16:33:09Z</time></trkpt><trkpt lat="42.82099505171208" lon="10.444883305289746"><ele>0.0</ele><time>2026-04-20T16:33:10Z</time></trkpt><trkpt lat="42.820890704287244" lon="10.444849709081174"><ele>0.0</ele><time>2026-04-20T16:33:11Z</time></trkpt><trkpt lat="42.82079466498737" lon="10.444725539783652"><ele>0.0</ele><time>2026-04-20T16:33:13Z</time></trkpt><trkpt lat="42.82074154562955" lon="10.444665708929072"><ele>0.0</ele><time>2026-04-20T16:33:14Z</time></trkpt><trkpt lat="42.820684732106145" lon="10.444572520984822"><ele>0.0</ele><time>2026-04-20T16:33:15Z</time></trkpt><trkpt lat="42.820644152686256" lon="10.444447069531671"><ele>0.0</ele><time>2026-04-20T16:33:16Z</time></trkpt><trkpt lat="42.82058702350301" lon="10.444382421766162"><ele>0.0</ele><time>2026-04-20T16:33:17Z</time></trkpt><trkpt lat="42.82051103665792" lon="10.444266734235347"><ele>0.0</ele><time>2026-04-20T16:33:19Z</time></trkpt><trkpt lat="42.820442543760436" lon="10.444200072758985"><ele>0.0</ele><time>2026-04-20T16:33:20Z</time></trkpt><trkpt lat="42.82038141834048" lon="10.444143582054824"><ele>0.0</ele><time>2026-04-20T16:33:21Z</time></trkpt><trkpt lat="42.82031812339886" lon="10.444095438896518"><ele>0.0</ele><time>2026-04-20T16:33:22Z</time></trkpt><trkpt lat="42.820256818327145" lon="10.44402893443256"><ele>0.0</ele><time>2026-04-20T16:33:23Z</time></trkpt><trkpt lat="42.82014705949278" lon="10.443910284412642"><ele>0.0</ele><time>2026-04-20T16:33:25Z</time></trkpt><trkpt lat="42.82007888591136" lon="10.443832311271848"><ele>0.0</ele><time>2026-04-20T16:33:26Z</time></trkpt><trkpt lat="42.82005027658699" lon="10.443704386711927"><ele>0.0</ele><time>2026-04-20T16:33:27Z</time></trkpt><trkpt lat="42.81998604470298" lon="10.443659871833244"><ele>0.0</ele><time>2026-04-20T16:33:28Z</time></trkpt><trkpt lat="42.81992475665523" lon="10.443580658328813"><ele>0.0</ele><time>2026-04-20T16:33:29Z</time></trkpt><trkpt lat="42.81987648871367" lon="10.443512909462351"><ele>0.0</ele><time>2026-04-20T16:33:30Z</time></trkpt><trkpt lat="42.81981756905348" lon="10.443458342224282"><ele>0.0</ele><time>2026-04-20T16:33:31Z</time></trkpt><trkpt lat="42.81966743521627" lon="10.4433541035292"><ele>0.0</ele><time>2026-04-20T16:33:33Z</time></trkpt><trkpt lat="42.81958257830085" lon="10.443293027957502"><ele>0.0</ele><time>2026-04-20T16:33:34Z</time></trkpt><trkpt lat="42.819466920461984" lon="10.443151125026986"><ele>0.0</ele><time>2026-04-20T16:33:37Z</time></trkpt><trkpt lat="42.819412525672895" lon="10.443091307862174"><ele>0.0</ele><time>2026-04-20T16:33:38Z</time></trkpt><trkpt lat="42.81928816741784" lon="10.443035256904281"><ele>0.0</ele><time>2026-04-20T16:33:40Z</time></trkpt><trkpt lat="42.81921025985817" lon="10.44296730505853"><ele>0.0</ele><time>2026-04-20T16:33:41Z</time></trkpt><trkpt lat="42.819129744556044" lon="10.442853381317532"><ele>0.0</ele><time>2026-04-20T16:33:43Z</time></trkpt><trkpt lat="42.81906263010043" lon="10.442777374062073"><ele>0.0</ele><time>2026-04-20T16:33:44Z</time></trkpt><trkpt lat="42.81899817922193" lon="10.44267562668569"><ele>0.0</ele><time>2026-04-20T16:33:45Z</time></trkpt><trkpt lat="42.81890529464132" lon="10.4425652490697"><ele>0.0</ele><time>2026-04-20T16:33:47Z</time></trkpt><trkpt lat="42.81879267577613" lon="10.44242991677718"><ele>0.0</ele><time>2026-04-20T16:33:48Z</time></trkpt><trkpt lat="42.818714138302425" lon="10.442350653989832"><ele>0.0</ele><time>2026-04-20T16:33:50Z</time></trkpt><trkpt lat="42.81863329461449" lon="10.442244560425099"><ele>0.0</ele><time>2026-04-20T16:33:51Z</time></trkpt><trkpt lat="42.81857602980264" lon="10.442182793943786"><ele>0.0</ele><time>2026-04-20T16:33:52Z</time></trkpt><trkpt lat="42.81851975681046" lon="10.442122126706023"><ele>0.0</ele><time>2026-04-20T16:33:53Z</time></trkpt><trkpt lat="42.81844396312506" lon="10.442014831671473"><ele>0.0</ele><time>2026-04-20T16:33:55Z</time></trkpt><trkpt lat="42.81831928676123" lon="10.4418648821436"><ele>0.0</ele><time>2026-04-20T16:33:57Z</time></trkpt><trkpt lat="42.81823551851708" lon="10.44174580532398"><ele>0.0</ele><time>2026-04-20T16:33:59Z</time></trkpt><trkpt lat="42.81819004669977" lon="10.441676822330978"><ele>0.0</ele><time>2026-04-20T16:34:00Z</time></trkpt><trkpt lat="42.81813146868994" lon="10.441604924352964"><ele>0.0</ele><time>2026-04-20T16:34:01Z</time></trkpt><trkpt lat="42.81810064644303" lon="10.441526106876642"><ele>0.0</ele><time>2026-04-20T16:34:02Z</time></trkpt><trkpt lat="42.81801071360304" lon="10.441506382729276"><ele>0.0</ele><time>2026-04-20T16:34:03Z</time></trkpt><trkpt lat="42.81792875752643" lon="10.441436288522965"><ele>0.0</ele><time>2026-04-20T16:34:04Z</time></trkpt><trkpt lat="42.817841644767846" lon="10.44137411147524"><ele>0.0</ele><time>2026-04-20T16:34:05Z</time></trkpt><trkpt lat="42.81775936653568" lon="10.441286330673309"><ele>0.0</ele><time>2026-04-20T16:34:06Z</time></trkpt><trkpt lat="42.817716333972534" lon="10.44115294842794"><ele>0.0</ele><time>2026-04-20T16:34:08Z</time></trkpt><trkpt lat="42.817650601854645" lon="10.440979969908993"><ele>0.0</ele><time>2026-04-20T16:34:10Z</time></trkpt><trkpt lat="42.81757453691834" lon="10.440895060235336"><ele>0.0</ele><time>2026-04-20T16:34:12Z</time></trkpt><trkpt lat="42.817504594380985" lon="10.440774242124405"><ele>0.0</ele><time>2026-04-20T16:34:14Z</time></trkpt><trkpt lat="42.81751307450431" lon="10.440675549687793"><ele>0.0</ele><time>2026-04-20T16:34:15Z</time></trkpt><trkpt lat="42.81747395550399" lon="10.44058240921624"><ele>0.0</ele><time>2026-04-20T16:34:16Z</time></trkpt><trkpt lat="42.81740234361423" lon="10.440451306407699"><ele>0.0</ele><time>2026-04-20T16:34:18Z</time></trkpt><trkpt lat="42.81728468721984" lon="10.440267276953255"><ele>0.0</ele><time>2026-04-20T16:34:20Z</time></trkpt><trkpt lat="42.817218451384306" lon="10.440159161367943"><ele>0.0</ele><time>2026-04-20T16:34:22Z</time></trkpt><trkpt lat="42.817178381796886" lon="10.440052760128907"><ele>0.0</ele><time>2026-04-20T16:34:23Z</time></trkpt><trkpt lat="42.81710423437534" lon="10.440028588403552"><ele>0.0</ele><time>2026-04-20T16:34:26Z</time></trkpt><trkpt lat="42.81705566744494" lon="10.439965903259242"><ele>0.0</ele><time>2026-04-20T16:34:27Z</time></trkpt><trkpt lat="42.816984580614566" lon="10.43986472976921"><ele>0.0</ele><time>2026-04-20T16:34:29Z</time></trkpt><trkpt lat="42.816917198260704" lon="10.439724130443404"><ele>0.0</ele><time>2026-04-20T16:34:31Z</time></trkpt><trkpt lat="42.81688519087345" lon="10.43963659669832"><ele>0.0</ele><time>2026-04-20T16:34:33Z</time></trkpt><trkpt lat="42.81682342571152" lon="10.439558776468983"><ele>0.0</ele><time>2026-04-20T16:34:34Z</time></trkpt><trkpt lat="42.816776393229205" lon="10.439489312834286"><ele>0.0</ele><time>2026-04-20T16:34:35Z</time></trkpt><trkpt lat="42.816731904723" lon="10.439388563235237"><ele>0.0</ele><time>2026-04-20T16:34:36Z</time></trkpt><trkpt lat="42.816877530891844" lon="10.43926424605001"><ele>0.0</ele><time>2026-04-20T16:34:37Z</time></trkpt><trkpt lat="42.81679274001132" lon="10.438982379486243"><ele>0.0</ele><time>2026-04-20T16:34:43Z</time></trkpt><trkpt lat="42.816763534484565" lon="10.438870029379512"><ele>0.0</ele><time>2026-04-20T16:34:45Z</time></trkpt><trkpt lat="42.816698019317826" lon="10.43849611117387"><ele>0.0</ele><time>2026-04-20T16:34:49Z</time></trkpt><trkpt lat="42.816685524944845" lon="10.438406523198283"><ele>0.0</ele><time>2026-04-20T16:34:50Z</time></trkpt><trkpt lat="42.816593768551634" lon="10.438245507441868"><ele>0.0</ele><time>2026-04-20T16:34:52Z</time></trkpt><trkpt lat="42.81659193410691" lon="10.438128827807573"><ele>0.0</ele><time>2026-04-20T16:34:55Z</time></trkpt><trkpt lat="42.81649817265851" lon="10.438008371932805"><ele>0.0</ele><time>2026-04-20T16:34:58Z</time></trkpt><trkpt lat="42.81645638802511" lon="10.437884928576329"><ele>0.0</ele><time>2026-04-20T16:35:00Z</time></trkpt><trkpt lat="42.81647584279956" lon="10.437792205143698"><ele>0.0</ele><time>2026-04-20T16:35:11Z</time></trkpt><trkpt lat="42.81635125216081" lon="10.43772974259649"><ele>0.0</ele><time>2026-04-20T16:35:12Z</time></trkpt><trkpt lat="42.81630846326628" lon="10.437656775284625"><ele>0.0</ele><time>2026-04-20T16:35:13Z</time></trkpt><trkpt lat="42.816398888866466" lon="10.437234677384083"><ele>0.0</ele><time>2026-04-20T16:35:16Z</time></trkpt><trkpt lat="42.81625399297517" lon="10.437114665004414"><ele>0.0</ele><time>2026-04-20T16:35:18Z</time></trkpt><trkpt lat="42.81629687512816" lon="10.437029218979928"><ele>0.0</ele><time>2026-04-20T16:35:23Z</time></trkpt><trkpt lat="42.81633566918244" lon="10.436943994769477"><ele>0.0</ele><time>2026-04-20T16:35:24Z</time></trkpt><trkpt lat="42.81632094259851" lon="10.436858369602167"><ele>0.0</ele><time>2026-04-20T16:35:25Z</time></trkpt><trkpt lat="42.816259445278064" lon="10.436714597180393"><ele>0.0</ele><time>2026-04-20T16:35:27Z</time></trkpt><trkpt lat="42.81627536382141" lon="10.436605976192103"><ele>0.0</ele><time>2026-04-20T16:35:29Z</time></trkpt><trkpt lat="42.81627621946541" lon="10.436473703376409"><ele>0.0</ele><time>2026-04-20T16:35:31Z</time></trkpt><trkpt lat="42.81626710555854" lon="10.436310570267953"><ele>0.0</ele><time>2026-04-20T16:35:33Z</time></trkpt><trkpt lat="42.81626375013704" lon="10.436219881948597"><ele>0.0</ele><time>2026-04-20T16:35:34Z</time></trkpt><trkpt lat="42.81625722449617" lon="10.436090142813335"><ele>0.0</ele><time>2026-04-20T16:35:36Z</time></trkpt><trkpt lat="42.81629422392776" lon="10.43590420783254"><ele>0.0</ele><time>2026-04-20T16:35:38Z</time></trkpt><trkpt lat="42.81629058422712" lon="10.435811598158024"><ele>0.0</ele><time>2026-04-20T16:35:40Z</time></trkpt><trkpt lat="42.81629525725878" lon="10.435679201324277"><ele>0.0</ele><time>2026-04-20T16:35:42Z</time></trkpt><trkpt lat="42.81633852040249" lon="10.435584470116714"><ele>0.0</ele><time>2026-04-20T16:35:44Z</time></trkpt><trkpt lat="42.81639842728345" lon="10.435514572767818"><ele>0.0</ele><time>2026-04-20T16:35:46Z</time></trkpt><trkpt lat="42.81641554566929" lon="10.435414859676118"><ele>0.0</ele><time>2026-04-20T16:35:48Z</time></trkpt><trkpt lat="42.81641182869062" lon="10.435321605327719"><ele>0.0</ele><time>2026-04-20T16:35:49Z</time></trkpt><trkpt lat="42.816464894313896" lon="10.435208943906822"><ele>0.0</ele><time>2026-04-20T16:35:51Z</time></trkpt><trkpt lat="42.81641115435156" lon="10.435130615749008"><ele>0.0</ele><time>2026-04-20T16:35:52Z</time></trkpt><trkpt lat="42.81642154456317" lon="10.435005420012407"><ele>0.0</ele><time>2026-04-20T16:35:56Z</time></trkpt><trkpt lat="42.816399241213894" lon="10.434873738576645"><ele>0.0</ele><time>2026-04-20T16:35:59Z</time></trkpt><trkpt lat="42.81641169941226" lon="10.434754278277962"><ele>0.0</ele><time>2026-04-20T16:36:02Z</time></trkpt><trkpt lat="42.81639561284821" lon="10.434668418028208"><ele>0.0</ele><time>2026-04-20T16:36:05Z</time></trkpt><trkpt lat="42.81630966837752" lon="10.434536772270201"><ele>0.0</ele><time>2026-04-20T16:36:07Z</time></trkpt><trkpt lat="42.816275565264334" lon="10.434442849064864"><ele>0.0</ele><time>2026-04-20T16:36:09Z</time></trkpt><trkpt lat="42.816583565384676" lon="10.434207313539725"><ele>0.0</ele><time>2026-04-20T16:36:31Z</time></trkpt><trkpt lat="42.8167631588454" lon="10.433359355119498"><ele>0.0</ele><time>2026-04-20T16:36:39Z</time></trkpt><trkpt lat="42.81680458579246" lon="10.43328706235908"><ele>0.0</ele><time>2026-04-20T16:36:42Z</time></trkpt><trkpt lat="42.81682698565821" lon="10.43319955233823"><ele>0.0</ele><time>2026-04-20T16:36:44Z</time></trkpt><trkpt lat="42.81685178094258" lon="10.433072162778355"><ele>0.0</ele><time>2026-04-20T16:36:46Z</time></trkpt><trkpt lat="42.81687808704704" lon="10.432928371580479"><ele>0.0</ele><time>2026-04-20T16:36:48Z</time></trkpt><trkpt lat="42.81687566661264" lon="10.432799222510699"><ele>0.0</ele><time>2026-04-20T16:36:50Z</time></trkpt><trkpt lat="42.81684809863324" lon="10.432663577456463"><ele>0.0</ele><time>2026-04-20T16:36:52Z</time></trkpt><trkpt lat="42.816582659253925" lon="10.434152855700216"><ele>0.0</ele><time>2026-04-20T16:36:53Z</time></trkpt><trkpt lat="42.816590661375855" lon="10.433420416832886"><ele>0.0</ele><time>2026-04-20T16:37:02Z</time></trkpt><trkpt lat="42.816683414703505" lon="10.432991947565695"><ele>0.0</ele><time>2026-04-20T16:37:09Z</time></trkpt><trkpt lat="42.81683592129783" lon="10.431883502761305"><ele>0.0</ele><time>2026-04-20T16:37:25Z</time></trkpt><trkpt lat="42.81656876331851" lon="10.43245387448621"><ele>0.0</ele><time>2026-04-20T16:37:34Z</time></trkpt><trkpt lat="42.817011857445394" lon="10.431624837229432"><ele>0.0</ele><time>2026-04-20T16:37:51Z</time></trkpt><trkpt lat="42.81675203273488" lon="10.432205811754912"><ele>0.0</ele><time>2026-04-20T16:38:09Z</time></trkpt><trkpt lat="42.81687431051944" lon="10.432139444235402"><ele>0.0</ele><time>2026-04-20T16:38:15Z</time></trkpt><trkpt lat="42.81691606163465" lon="10.4320722544327"><ele>0.0</ele><time>2026-04-20T16:38:19Z</time></trkpt><trkpt lat="42.8170687297188" lon="10.431843245601423"><ele>0.0</ele><time>2026-04-20T16:38:37Z</time></trkpt><trkpt lat="42.817135566890165" lon="10.431552953420782"><ele>0.0</ele><time>2026-04-20T16:39:29Z</time></trkpt><trkpt lat="42.816997944958864" lon="10.43143603512385"><ele>0.0</ele><time>2026-04-20T16:39:30Z</time></trkpt><trkpt lat="42.81692068640497" lon="10.431419950510982"><ele>0.0</ele><time>2026-04-20T16:39:40Z</time></trkpt><trkpt lat="42.816660007746144" lon="10.43109442312545"><ele>0.0</ele><time>2026-04-20T16:40:05Z</time></trkpt><trkpt lat="42.81636704685528" lon="10.43097327628577"><ele>0.0</ele><time>2026-04-20T16:40:26Z</time></trkpt><trkpt lat="42.81612266324745" lon="10.430776420990405"><ele>0.0</ele><time>2026-04-20T16:40:35Z</time></trkpt><trkpt lat="42.81625927621595" lon="10.43082131965433"><ele>0.0</ele><time>2026-04-20T16:41:01Z</time></trkpt><trkpt lat="42.815659787524865" lon="10.431094973003825"><ele>0.0</ele><time>2026-04-20T16:41:52Z</time></trkpt><trkpt lat="42.815790058811075" lon="10.43116486073818"><ele>0.0</ele><time>2026-04-20T16:42:08Z</time></trkpt><trkpt lat="42.815461828910294" lon="10.43120119101516"><ele>0.0</ele><time>2026-04-20T16:42:13Z</time></trkpt><trkpt lat="42.815366725506465" lon="10.431124921079432"><ele>0.0</ele><time>2026-04-20T16:42:17Z</time></trkpt><trkpt lat="42.81533499174024" lon="10.431038790314716"><ele>0.0</ele><time>2026-04-20T16:42:19Z</time></trkpt><trkpt lat="42.81543795254861" lon="10.431436313392025"><ele>0.0</ele><time>2026-04-20T16:42:21Z</time></trkpt><trkpt lat="42.81598827608939" lon="10.431209659255192"><ele>0.0</ele><time>2026-04-20T16:43:04Z</time></trkpt><trkpt lat="42.81588527961307" lon="10.431094612052762"><ele>0.0</ele><time>2026-04-20T16:43:10Z</time></trkpt><trkpt lat="42.81582303397947" lon="10.431061102883389"><ele>0.0</ele><time>2026-04-20T16:43:17Z</time></trkpt><trkpt lat="42.815767120694076" lon="10.431013677496225"><ele>0.0</ele><time>2026-04-20T16:43:25Z</time></trkpt><trkpt lat="42.816002118898325" lon="10.43090422203092"><ele>1.0</ele><time>2026-04-20T16:44:58Z</time></trkpt><trkpt lat="42.814883360423934" lon="10.430770067590188"><ele>1.0</ele><time>2026-04-20T16:47:23Z</time></trkpt><trkpt lat="42.81440415526682" lon="10.430832282356516"><ele>0.0</ele><time>2026-04-20T16:47:24Z</time></trkpt><trkpt lat="42.815858653323545" lon="10.431085542463878"><ele>0.0</ele><time>2026-04-20T16:47:27Z</time></trkpt><trkpt lat="42.815944369416705" lon="10.430862814886254"><ele>0.0</ele><time>2026-04-20T16:47:46Z</time></trkpt><trkpt lat="42.81601922976164" lon="10.43083765953451"><ele>0.0</ele><time>2026-04-20T16:47:47Z</time></trkpt><trkpt lat="42.81611471305765" lon="10.430808278563534"><ele>0.0</ele><time>2026-04-20T16:47:49Z</time></trkpt><trkpt lat="42.81613179377195" lon="10.430907798641245"><ele>0.0</ele><time>2026-04-20T16:47:53Z</time></trkpt><trkpt lat="42.81601605878927" lon="10.430969659738146"><ele>0.0</ele><time>2026-04-20T16:47:55Z</time></trkpt><trkpt lat="42.81589821715513" lon="10.43104022355117"><ele>0.0</ele><time>2026-04-20T16:47:56Z</time></trkpt><trkpt lat="42.815796387160056" lon="10.431097846689786"><ele>0.0</ele><time>2026-04-20T16:47:57Z</time></trkpt><trkpt lat="42.81570453777859" lon="10.4311473806174"><ele>0.0</ele><time>2026-04-20T16:47:58Z</time></trkpt><trkpt lat="42.815619959158155" lon="10.431209083063843"><ele>0.0</ele><time>2026-04-20T16:47:59Z</time></trkpt><trkpt lat="42.81553888415341" lon="10.431214989913231"><ele>0.0</ele><time>2026-04-20T16:48:00Z</time></trkpt><trkpt lat="42.815468352355424" lon="10.431212849220588"><ele>0.0</ele><time>2026-04-20T16:48:01Z</time></trkpt><trkpt lat="42.815363766197" lon="10.431185180301592"><ele>0.0</ele><time>2026-04-20T16:48:03Z</time></trkpt><trkpt lat="42.81530534052184" lon="10.431125617159234"><ele>0.0</ele><time>2026-04-20T16:48:04Z</time></trkpt><trkpt lat="42.815227575798524" lon="10.431094650590971"><ele>0.0</ele><time>2026-04-20T16:48:05Z</time></trkpt><trkpt lat="42.81512920830931" lon="10.431068526779992"><ele>0.0</ele><time>2026-04-20T16:48:06Z</time></trkpt><trkpt lat="42.815028102795516" lon="10.431061052881853"><ele>0.0</ele><time>2026-04-20T16:48:07Z</time></trkpt><trkpt lat="42.815138684945616" lon="10.431086982609227"><ele>0.0</ele><time>2026-04-20T16:48:11Z</time></trkpt><trkpt lat="42.81537949284105" lon="10.431011033826385"><ele>0.0</ele><time>2026-04-20T16:48:37Z</time></trkpt><trkpt lat="42.81513213603704" lon="10.431020686804752"><ele>0.25</ele><time>2026-04-20T16:48:40Z</time></trkpt><trkpt lat="42.81495036493341" lon="10.431024367612212"><ele>0.5</ele><time>2026-04-20T16:48:42Z</time></trkpt><trkpt lat="42.81483189234708" lon="10.43099050446611"><ele>0.75</ele><time>2026-04-20T16:48:43Z</time></trkpt><trkpt lat="42.81490363604195" lon="10.43091984905591"><ele>1.0</ele><time>2026-04-20T16:48:44Z</time></trkpt><trkpt lat="42.81497647495157" lon="10.430885477694474"><ele>1.0</ele><time>2026-04-20T16:48:46Z</time></trkpt><trkpt lat="42.81504186660877" lon="10.430928020277396"><ele>1.0</ele><time>2026-04-20T16:48:47Z</time></trkpt><trkpt lat="42.81517339749492" lon="10.430952225351879"><ele>1.0</ele><time>2026-04-20T16:48:48Z</time></trkpt><trkpt lat="42.81525768745891" lon="10.430943553857434"><ele>1.0</ele><time>2026-04-20T16:48:49Z</time></trkpt><trkpt lat="42.815193344390934" lon="10.431013244602317"><ele>1.0</ele><time>2026-04-20T16:48:55Z</time></trkpt><trkpt lat="42.81513609606178" lon="10.431113745596479"><ele>1.0</ele><time>2026-04-20T16:48:58Z</time></trkpt><trkpt lat="42.81503561008096" lon="10.431091829637458"><ele>1.0</ele><time>2026-04-20T16:54:23Z</time></trkpt><trkpt lat="42.81496808470271" lon="10.43097706047811"><ele>1.0</ele><time>2026-04-20T16:54:25Z</time></trkpt><trkpt lat="42.814871216068866" lon="10.430924686252927"><ele>1.0</ele><time>2026-04-20T16:54:27Z</time></trkpt><trkpt lat="42.81479249180855" lon="10.43083635159181"><ele>1.0</ele><time>2026-04-20T16:54:29Z</time></trkpt><trkpt lat="42.8147135012918" lon="10.430773331230782"><ele>0.9999999999999999</ele><time>2026-04-20T16:54:31Z</time></trkpt><trkpt lat="42.81464212377836" lon="10.430716384690784"><ele>1.0</ele><time>2026-04-20T16:54:33Z</time></trkpt><trkpt lat="42.814583415366265" lon="10.430657389875051"><ele>1.0</ele><time>2026-04-20T16:54:35Z</time></trkpt><trkpt lat="42.8146126850887" lon="10.430531445747963"><ele>1.0</ele><time>2026-04-20T16:54:37Z</time></trkpt><trkpt lat="42.814620153512415" lon="10.430397146295947"><ele>0.9999999999999999</ele><time>2026-04-20T16:54:39Z</time></trkpt><trkpt lat="42.81461176792789" lon="10.430264769126508"><ele>1.0</ele><time>2026-04-20T16:54:41Z</time></trkpt><trkpt lat="42.81462084489973" lon="10.43016800985615"><ele>0.9999999999999999</ele><time>2026-04-20T16:54:44Z</time></trkpt><trkpt lat="42.81462829546623" lon="10.43003887648465"><ele>1.0</ele><time>2026-04-20T16:56:20Z</time></trkpt><trkpt lat="42.81463335894081" lon="10.42995045749158"><ele>1.0</ele><time>2026-04-20T16:56:22Z</time></trkpt><trkpt lat="42.814641908869845" lon="10.42983966245875"><ele>1.0</ele><time>2026-04-20T16:56:24Z</time></trkpt><trkpt lat="42.81464599681979" lon="10.429746072093309"><ele>0.9999999999999999</ele><time>2026-04-20T16:56:26Z</time></trkpt><trkpt lat="42.814660655692805" lon="10.429648519202996"><ele>1.0</ele><time>2026-04-20T16:56:28Z</time></trkpt><trkpt lat="42.814690880280125" lon="10.429552439553154"><ele>1.0</ele><time>2026-04-20T16:56:31Z</time></trkpt><trkpt lat="42.81472349356204" lon="10.429462774245996"><ele>1.0</ele><time>2026-04-20T16:56:33Z</time></trkpt><trkpt lat="42.81472637642226" lon="10.42933124367379"><ele>1.0</ele><time>2026-04-20T16:56:35Z</time></trkpt><trkpt lat="42.81473878111922" lon="10.42919464735356"><ele>1.0</ele><time>2026-04-20T16:56:37Z</time></trkpt><trkpt lat="42.814747077058335" lon="10.429063602805902"><ele>1.0</ele><time>2026-04-20T16:56:39Z</time></trkpt><trkpt lat="42.81475305434632" lon="10.428932092712614"><ele>1.6</ele><time>2026-04-20T16:56:41Z</time></trkpt><trkpt lat="42.81475966937667" lon="10.42880745165257"><ele>2.2</ele><time>2026-04-20T16:56:43Z</time></trkpt><trkpt lat="42.81477467204636" lon="10.428688908372987"><ele>2.8000000000000003</ele><time>2026-04-20T16:56:45Z</time></trkpt><trkpt lat="42.814821507064316" lon="10.428589228449795"><ele>3.4000000000000004</ele><time>2026-04-20T16:56:47Z</time></trkpt><trkpt lat="42.81490896926781" lon="10.428531478806411"><ele>4.0</ele><time>2026-04-20T16:56:49Z</time></trkpt><trkpt lat="42.814999191763455" lon="10.428482682676407"><ele>4.0</ele><time>2026-04-20T16:56:51Z</time></trkpt><trkpt lat="42.81508049326642" lon="10.428414176064834"><ele>4.0</ele><time>2026-04-20T16:56:53Z</time></trkpt><trkpt lat="42.815175649985605" lon="10.428366216880638"><ele>4.0</ele><time>2026-04-20T16:56:55Z</time></trkpt><trkpt lat="42.815265239079025" lon="10.42832419659823"><ele>4.0</ele><time>2026-04-20T16:56:57Z</time></trkpt><trkpt lat="42.81536883124275" lon="10.42830421791007"><ele>4.0</ele><time>2026-04-20T16:56:59Z</time></trkpt><trkpt lat="42.81547376381168" lon="10.428289770680426"><ele>4.2</ele><time>2026-04-20T16:57:01Z</time></trkpt><trkpt lat="42.81558366037077" lon="10.428278893410884"><ele>4.4</ele><time>2026-04-20T16:57:03Z</time></trkpt><trkpt lat="42.81568927520907" lon="10.428304541406147"><ele>4.6</ele><time>2026-04-20T16:57:05Z</time></trkpt><trkpt lat="42.81578857422816" lon="10.428309420243723"><ele>4.8</ele><time>2026-04-20T16:57:07Z</time></trkpt><trkpt lat="42.8158746083404" lon="10.428279390355746"><ele>5.0</ele><time>2026-04-20T16:57:09Z</time></trkpt><trkpt lat="42.815941859046184" lon="10.428277619207913"><ele>5.0</ele><time>2026-04-20T16:57:11Z</time></trkpt><trkpt lat="42.816004683464676" lon="10.428257131443702"><ele>5.0</ele><time>2026-04-20T16:57:17Z</time></trkpt><trkpt lat="42.815955949099624" lon="10.428019598125756"><ele>5.0</ele><time>2026-04-20T16:57:20Z</time></trkpt><trkpt lat="42.815902535035036" lon="10.42791626624228"><ele>5.0</ele><time>2026-04-20T16:57:22Z</time></trkpt><trkpt lat="42.81579447801363" lon="10.427851757169424"><ele>7.0</ele><time>2026-04-20T16:57:24Z</time></trkpt><trkpt lat="42.81567954855546" lon="10.427817666901294"><ele>9.0</ele><time>2026-04-20T16:57:26Z</time></trkpt><trkpt lat="42.81561359402869" lon="10.427696373285576"><ele>11.0</ele><time>2026-04-20T16:57:28Z</time></trkpt><trkpt lat="42.81558337249975" lon="10.4275229961903"><ele>13.0</ele><time>2026-04-20T16:57:30Z</time></trkpt><trkpt lat="42.815561116926474" lon="10.427434749844467"><ele>15.0</ele><time>2026-04-20T16:57:31Z</time></trkpt><trkpt lat="42.815536215823954" lon="10.427345073575664"><ele>15.0</ele><time>2026-04-20T16:57:32Z</time></trkpt><trkpt lat="42.815510299253795" lon="10.427258400353507"><ele>15.0</ele><time>2026-04-20T16:57:33Z</time></trkpt><trkpt lat="42.81548559143696" lon="10.427174342092506"><ele>15.0</ele><time>2026-04-20T16:57:34Z</time></trkpt><trkpt lat="42.815460338640875" lon="10.427090384022542"><ele>15.0</ele><time>2026-04-20T16:57:35Z</time></trkpt><trkpt lat="42.815430718708384" lon="10.42700893641168"><ele>15.0</ele><time>2026-04-20T16:57:36Z</time></trkpt><trkpt lat="42.815366309578515" lon="10.426864283923493"><ele>15.0</ele><time>2026-04-20T16:57:38Z</time></trkpt><trkpt lat="42.81530902443192" lon="10.426713601616445"><ele>15.2</ele><time>2026-04-20T16:57:40Z</time></trkpt><trkpt lat="42.81527582920301" lon="10.426634612724262"><ele>15.4</ele><time>2026-04-20T16:57:41Z</time></trkpt><trkpt lat="42.81521815934422" lon="10.426498685282468"><ele>15.600000000000001</ele><time>2026-04-20T16:57:43Z</time></trkpt><trkpt lat="42.8151613412009" lon="10.426379340811673"><ele>15.8</ele><time>2026-04-20T16:57:45Z</time></trkpt><trkpt lat="42.81511046011142" lon="10.426237340578597"><ele>16.0</ele><time>2026-04-20T16:57:47Z</time></trkpt><trkpt lat="42.81507378662226" lon="10.426162453091893"><ele>15.999999999999998</ele><time>2026-04-20T16:57:48Z</time></trkpt><trkpt lat="42.815042040754705" lon="10.426079798421183"><ele>16.0</ele><time>2026-04-20T16:57:49Z</time></trkpt><trkpt lat="42.81501319729878" lon="10.425993020223295"><ele>16.0</ele><time>2026-04-20T16:57:50Z</time></trkpt><trkpt lat="42.8149854769764" lon="10.42591332802605"><ele>16.0</ele><time>2026-04-20T16:57:51Z</time></trkpt><trkpt lat="42.81495872517649" lon="10.4258345541848"><ele>15.999999999999998</ele><time>2026-04-20T16:57:52Z</time></trkpt><trkpt lat="42.814903395285285" lon="10.425685721394336"><ele>16.0</ele><time>2026-04-20T16:57:54Z</time></trkpt><trkpt lat="42.81487265627071" lon="10.425609597392729"><ele>17.0</ele><time>2026-04-20T16:57:55Z</time></trkpt><trkpt lat="42.81483073152766" lon="10.425439224603755"><ele>18.0</ele><time>2026-04-20T16:57:57Z</time></trkpt><trkpt lat="42.814789471135235" lon="10.42530155142768"><ele>19.0</ele><time>2026-04-20T16:57:59Z</time></trkpt><trkpt lat="42.81475837426321" lon="10.425180468760963"><ele>20.0</ele><time>2026-04-20T16:58:01Z</time></trkpt><trkpt lat="42.81474262350857" lon="10.42509263186539"><ele>21.0</ele><time>2026-04-20T16:58:02Z</time></trkpt><trkpt lat="42.81472992797632" lon="10.424997446621289"><ele>21.0</ele><time>2026-04-20T16:58:03Z</time></trkpt><trkpt lat="42.81471249008857" lon="10.424906178166308"><ele>21.0</ele><time>2026-04-20T16:58:04Z</time></trkpt><trkpt lat="42.81469331188039" lon="10.424820549697943"><ele>21.0</ele><time>2026-04-20T16:58:05Z</time></trkpt><trkpt lat="42.81467945515775" lon="10.424727409998116"><ele>21.0</ele><time>2026-04-20T16:58:06Z</time></trkpt><trkpt lat="42.8146628786001" lon="10.424642289551818"><ele>21.0</ele><time>2026-04-20T16:58:07Z</time></trkpt><trkpt lat="42.81464168475824" lon="10.424495213427459"><ele>21.0</ele><time>2026-04-20T16:58:09Z</time></trkpt><trkpt lat="42.81462848617862" lon="10.424407280976157"><ele>21.0</ele><time>2026-04-20T16:58:10Z</time></trkpt><trkpt lat="42.814615983954766" lon="10.424320023547063"><ele>22.0</ele><time>2026-04-20T16:58:11Z</time></trkpt><trkpt lat="42.81458596312398" lon="10.424153713387351"><ele>23.0</ele><time>2026-04-20T16:58:13Z</time></trkpt><trkpt lat="42.814569111693466" lon="10.424066662577243"><ele>24.0</ele><time>2026-04-20T16:58:14Z</time></trkpt><trkpt lat="42.81455063663209" lon="10.42397657962186"><ele>25.0</ele><time>2026-04-20T16:58:15Z</time></trkpt><trkpt lat="42.81453310346255" lon="10.423880714144826"><ele>26.0</ele><time>2026-04-20T16:58:16Z</time></trkpt><trkpt lat="42.81451397665581" lon="10.42377268283065"><ele>27.0</ele><time>2026-04-20T16:58:17Z</time></trkpt><trkpt lat="42.814495479430825" lon="10.423665421383252"><ele>27.5</ele><time>2026-04-20T16:58:18Z</time></trkpt><trkpt lat="42.81447880258994" lon="10.423547106574915"><ele>28.0</ele><time>2026-04-20T16:58:19Z</time></trkpt><trkpt lat="42.81446395871622" lon="10.423427261837462"><ele>28.5</ele><time>2026-04-20T16:58:20Z</time></trkpt><trkpt lat="42.81445075093452" lon="10.423315020800812"><ele>29.0</ele><time>2026-04-20T16:58:21Z</time></trkpt><trkpt lat="42.814433167227875" lon="10.423199288032276"><ele>29.5</ele><time>2026-04-20T16:58:22Z</time></trkpt><trkpt lat="42.81441131287187" lon="10.42308731786317"><ele>30.0</ele><time>2026-04-20T16:58:23Z</time></trkpt><trkpt lat="42.81439384841891" lon="10.422970240759655"><ele>31.333333333333332</ele><time>2026-04-20T16:58:24Z</time></trkpt><trkpt lat="42.81437731850217" lon="10.422849237967053"><ele>32.666666666666664</ele><time>2026-04-20T16:58:25Z</time></trkpt><trkpt lat="42.81436150908579" lon="10.422729940741997"><ele>34.0</ele><time>2026-04-20T16:58:26Z</time></trkpt><trkpt lat="42.81434670342328" lon="10.422611974990684"><ele>35.33333333333333</ele><time>2026-04-20T16:58:27Z</time></trkpt><trkpt lat="42.81433131343347" lon="10.422494434760495"><ele>36.666666666666664</ele><time>2026-04-20T16:58:28Z</time></trkpt><trkpt lat="42.814322209340915" lon="10.422374545798911"><ele>38.0</ele><time>2026-04-20T16:58:29Z</time></trkpt><trkpt lat="42.81431513349863" lon="10.42225955240693"><ele>35.83333333333333</ele><time>2026-04-20T16:58:30Z</time></trkpt><trkpt lat="42.814314368812774" lon="10.422141894277345"><ele>33.666666666666664</ele><time>2026-04-20T16:58:31Z</time></trkpt><trkpt lat="42.81431334387826" lon="10.422029791483014"><ele>31.5</ele><time>2026-04-20T16:58:32Z</time></trkpt><trkpt lat="42.81430286065293" lon="10.421934811867196"><ele>29.333333333333336</ele><time>2026-04-20T16:58:33Z</time></trkpt><trkpt lat="42.814280997826216" lon="10.42179553993923"><ele>27.166666666666668</ele><time>2026-04-20T16:58:35Z</time></trkpt><trkpt lat="42.81426407127093" lon="10.421686609826851"><ele>25.0</ele><time>2026-04-20T16:58:37Z</time></trkpt><trkpt lat="42.814127373512186" lon="10.421700791788783"><ele>25.000000000000004</ele><time>2026-04-20T16:58:39Z</time></trkpt><trkpt lat="42.814071096731254" lon="10.421741159418703"><ele>25.0</ele><time>2026-04-20T16:58:40Z</time></trkpt><trkpt lat="42.81395604761242" lon="10.42179815645762"><ele>25.0</ele><time>2026-04-20T16:58:42Z</time></trkpt><trkpt lat="42.8138930142252" lon="10.421818134084866"><ele>25.0</ele><time>2026-04-20T16:58:43Z</time></trkpt><trkpt lat="42.813827232784305" lon="10.421839013083002"><ele>25.000000000000004</ele><time>2026-04-20T16:58:44Z</time></trkpt><trkpt lat="42.81376056072772" lon="10.421857729045318"><ele>25.0</ele><time>2026-04-20T16:58:45Z</time></trkpt><trkpt lat="42.81370326301465" lon="10.421898120789658"><ele>25.000000000000004</ele><time>2026-04-20T16:58:46Z</time></trkpt><trkpt lat="42.81364154247589" lon="10.421933108358493"><ele>25.0</ele><time>2026-04-20T16:58:47Z</time></trkpt><trkpt lat="42.81359346690722" lon="10.422006534110844"><ele>25.0</ele><time>2026-04-20T16:58:48Z</time></trkpt><trkpt lat="42.81356967415464" lon="10.422099346361758"><ele>25.0</ele><time>2026-04-20T16:58:49Z</time></trkpt><trkpt lat="42.81355106048536" lon="10.422190000649353"><ele>25.0</ele><time>2026-04-20T16:58:50Z</time></trkpt><trkpt lat="42.813547513751466" lon="10.42228796598464"><ele>25.000000000000004</ele><time>2026-04-20T16:58:51Z</time></trkpt><trkpt lat="42.813542550885344" lon="10.422382401331564"><ele>25.0</ele><time>2026-04-20T16:58:52Z</time></trkpt><trkpt lat="42.813543476311985" lon="10.422479460483865"><ele>24.28571428571429</ele><time>2026-04-20T16:58:53Z</time></trkpt><trkpt lat="42.81354059888435" lon="10.4225771994763"><ele>23.571428571428573</ele><time>2026-04-20T16:58:54Z</time></trkpt><trkpt lat="42.81353901766483" lon="10.422679122165611"><ele>22.857142857142858</ele><time>2026-04-20T16:58:55Z</time></trkpt><trkpt lat="42.81353780289006" lon="10.422783193353876"><ele>22.142857142857146</ele><time>2026-04-20T16:58:56Z</time></trkpt><trkpt lat="42.81353661281555" lon="10.422882814051558"><ele>21.42857142857143</ele><time>2026-04-20T16:58:57Z</time></trkpt><trkpt lat="42.81352624963892" lon="10.422981072001932"><ele>20.714285714285715</ele><time>2026-04-20T16:58:58Z</time></trkpt><trkpt lat="42.81352794799584" lon="10.423077751233285"><ele>20.0</ele><time>2026-04-20T16:58:59Z</time></trkpt><trkpt lat="42.81352561950782" lon="10.42317547980984"><ele>19.714285714285715</ele><time>2026-04-20T16:59:00Z</time></trkpt><trkpt lat="42.813518476292174" lon="10.423273928981887"><ele>19.42857142857143</ele><time>2026-04-20T16:59:01Z</time></trkpt><trkpt lat="42.81351545593329" lon="10.423367954691788"><ele>19.142857142857146</ele><time>2026-04-20T16:59:02Z</time></trkpt><trkpt lat="42.813493732325604" lon="10.423464864091704"><ele>18.857142857142858</ele><time>2026-04-20T16:59:03Z</time></trkpt><trkpt lat="42.813473285344415" lon="10.423556022632123"><ele>18.571428571428573</ele><time>2026-04-20T16:59:04Z</time></trkpt><trkpt lat="42.81343765549662" lon="10.423652672637406"><ele>18.28571428571429</ele><time>2026-04-20T16:59:05Z</time></trkpt><trkpt lat="42.813381308440995" lon="10.423730168690685"><ele>18.0</ele><time>2026-04-20T16:59:06Z</time></trkpt><trkpt lat="42.81334267029583" lon="10.423832474023996"><ele>19.85714285714286</ele><time>2026-04-20T16:59:07Z</time></trkpt><trkpt lat="42.81329520186111" lon="10.423919553914725"><ele>21.714285714285715</ele><time>2026-04-20T16:59:08Z</time></trkpt><trkpt lat="42.813259185242075" lon="10.423996646519845"><ele>23.571428571428573</ele><time>2026-04-20T16:59:09Z</time></trkpt><trkpt lat="42.813225788460706" lon="10.424070499685076"><ele>25.42857142857143</ele><time>2026-04-20T16:59:10Z</time></trkpt><trkpt lat="42.8131980930705" lon="10.424149412113566"><ele>27.28571428571429</ele><time>2026-04-20T16:59:11Z</time></trkpt><trkpt lat="42.81317237038581" lon="10.424230377987087"><ele>29.142857142857146</ele><time>2026-04-20T16:59:12Z</time></trkpt><trkpt lat="42.813143142825375" lon="10.424314635500801"><ele>31.0</ele><time>2026-04-20T16:59:13Z</time></trkpt><trkpt lat="42.813121987883754" lon="10.424399347988738"><ele>31.000000000000004</ele><time>2026-04-20T16:59:14Z</time></trkpt><trkpt lat="42.8130953631767" lon="10.424479295066174"><ele>31.0</ele><time>2026-04-20T16:59:15Z</time></trkpt><trkpt lat="42.81306021166264" lon="10.42459835332635"><ele>31.0</ele><time>2026-04-20T16:59:17Z</time></trkpt><trkpt lat="42.81302928201867" lon="10.424698384799205"><ele>31.0</ele><time>2026-04-20T16:59:19Z</time></trkpt><trkpt lat="42.812991006452805" lon="10.424798347974477"><ele>31.000000000000004</ele><time>2026-04-20T16:59:21Z</time></trkpt><trkpt lat="42.81295971404856" lon="10.42494060578889"><ele>31.0</ele><time>2026-04-20T16:59:23Z</time></trkpt><trkpt lat="42.8129308697877" lon="10.425018117071444"><ele>29.571428571428573</ele><time>2026-04-20T16:59:24Z</time></trkpt><trkpt lat="42.81289151563772" lon="10.42509147839609"><ele>28.142857142857146</ele><time>2026-04-20T16:59:25Z</time></trkpt><trkpt lat="42.81283828591434" lon="10.425150436248689"><ele>26.714285714285715</ele><time>2026-04-20T16:59:26Z</time></trkpt><trkpt lat="42.81278369000181" lon="10.425199693468432"><ele>25.285714285714285</ele><time>2026-04-20T16:59:27Z</time></trkpt><trkpt lat="42.81272699831821" lon="10.425242011038794"><ele>23.857142857142858</ele><time>2026-04-20T16:59:28Z</time></trkpt><trkpt lat="42.81267113847344" lon="10.425281874391837"><ele>22.42857142857143</ele><time>2026-04-20T16:59:29Z</time></trkpt><trkpt lat="42.81256409299232" lon="10.425353738963718"><ele>21.0</ele><time>2026-04-20T16:59:31Z</time></trkpt><trkpt lat="42.81246895304762" lon="10.425420159831683"><ele>24.200000000000003</ele><time>2026-04-20T16:59:33Z</time></trkpt><trkpt lat="42.8124100932017" lon="10.425496705212439"><ele>27.400000000000002</ele><time>2026-04-20T16:59:35Z</time></trkpt><trkpt lat="42.81236318832496" lon="10.425610702095142"><ele>30.6</ele><time>2026-04-20T16:59:37Z</time></trkpt><trkpt lat="42.81236436932719" lon="10.42577278969483"><ele>33.800000000000004</ele><time>2026-04-20T16:59:39Z</time></trkpt><trkpt lat="42.81235855393798" lon="10.425933908674054"><ele>37.0</ele><time>2026-04-20T16:59:41Z</time></trkpt><trkpt lat="42.81234831042362" lon="10.426059104258549"><ele>37.0</ele><time>2026-04-20T16:59:43Z</time></trkpt><trkpt lat="42.81234128885538" lon="10.426188305317643"><ele>37.0</ele><time>2026-04-20T16:59:45Z</time></trkpt><trkpt lat="42.81234348537784" lon="10.42630019523121"><ele>37.0</ele><time>2026-04-20T16:59:47Z</time></trkpt><trkpt lat="42.81234878370776" lon="10.426388336053048"><ele>37.0</ele><time>2026-04-20T16:59:50Z</time></trkpt><trkpt lat="42.81240255809595" lon="10.426518422251814"><ele>37.0</ele><time>2026-04-20T17:00:18Z</time></trkpt><trkpt lat="42.81244083528452" lon="10.42664218221343"><ele>37.2</ele><time>2026-04-20T17:00:20Z</time></trkpt><trkpt lat="42.81249819415391" lon="10.426790151682297"><ele>37.400000000000006</ele><time>2026-04-20T17:00:22Z</time></trkpt><trkpt lat="42.81257052931947" lon="10.426933605940004"><ele>37.599999999999994</ele><time>2026-04-20T17:00:24Z</time></trkpt><trkpt lat="42.81260028433584" lon="10.427011440305497"><ele>37.8</ele><time>2026-04-20T17:00:25Z</time></trkpt><trkpt lat="42.812628009623" lon="10.42709783063331"><ele>38.0</ele><time>2026-04-20T17:00:26Z</time></trkpt><trkpt lat="42.81266084206621" lon="10.42717838049256"><ele>34.8</ele><time>2026-04-20T17:00:27Z</time></trkpt><trkpt lat="42.81268871196249" lon="10.427275705187606"><ele>31.599999999999998</ele><time>2026-04-20T17:00:28Z</time></trkpt><trkpt lat="42.812706344610596" lon="10.427371534905959"><ele>28.4</ele><time>2026-04-20T17:00:29Z</time></trkpt><trkpt lat="42.81271811868745" lon="10.427524448582316"><ele>25.200000000000003</ele><time>2026-04-20T17:00:31Z</time></trkpt><trkpt lat="42.812735328996595" lon="10.427675787727095"><ele>22.0</ele><time>2026-04-20T17:00:33Z</time></trkpt><trkpt lat="42.812757773121945" lon="10.427800634959606"><ele>22.0</ele><time>2026-04-20T17:00:35Z</time></trkpt><trkpt lat="42.812797422244266" lon="10.42786909274858"><ele>22.0</ele><time>2026-04-20T17:00:38Z</time></trkpt><trkpt lat="42.81283184964121" lon="10.427948762675241"><ele>22.0</ele><time>2026-04-20T17:00:51Z</time></trkpt><trkpt lat="42.81278911894009" lon="10.427884551824476"><ele>22.0</ele><time>2026-04-20T17:00:59Z</time></trkpt><trkpt lat="42.812757070500076" lon="10.427799797607362"><ele>22.0</ele><time>2026-04-20T17:01:03Z</time></trkpt></trkseg></trk></gpx>